<?xml version="1.0"?>
<gpx
 version="1.1"
 creator="Satmap Active 20"
 xmlns:xsi="http://www.w3.org/2001/XMLSchema-instance"
 xmlns="http://www.topografix.com/GPX/1/1"
 xmlns:satmap="http://www.satmap.com/updates/xmlschemas/GpxExtensions/v2/GpxExtensions_v2.xsd"
 xsi:schemaLocation="http://www.topografix.com/GPX/1/1 http://www.topografix.com/GPX/1/1/gpx.xsd">
<metadata>
<time>2021-03-01T10:12:08Z</time>
<extensions>
<satmap:platform>43</satmap:platform>
<satmap:software version="3.13.037">SM15.exe</satmap:software>
<satmap:username>pieter metz</satmap:username>
<satmap:network_ids>
<satmap:network_id type="wifi">00-23-A7-CA-E3-5C</satmap:network_id>
<satmap:network_id type="bluetooth">80-BB-EB-78-4F-29</satmap:network_id>
</satmap:network_ids>
<satmap:snap_type>simple</satmap:snap_type>
</extensions>
</metadata>
<trk>
<name>2021-03-01_1012</name>
<desc>Track 1</desc>
<number>1</number>
<trkseg>
<trkpt lat="52.099224" lon="05.696339"><ele>35.2</ele><time>2021-03-01T10:12:08Z</time><name>PT1</name></trkpt>
<trkpt lat="52.099221" lon="05.696365"><ele>34.6</ele><time>2021-03-01T10:12:28Z</time><name>PT2</name></trkpt>
<trkpt lat="52.099224" lon="05.696377"><ele>34.6</ele><time>2021-03-01T10:12:29Z</time><name>PT3</name></trkpt>
<trkpt lat="52.099221" lon="05.696390"><ele>34.8</ele><time>2021-03-01T10:12:30Z</time><name>PT4</name></trkpt>
<trkpt lat="52.099219" lon="05.696410"><ele>34.6</ele><time>2021-03-01T10:12:31Z</time><name>PT5</name></trkpt>
<trkpt lat="52.099217" lon="05.696429"><ele>34.6</ele><time>2021-03-01T10:12:32Z</time><name>PT6</name></trkpt>
<trkpt lat="52.099217" lon="05.696455"><ele>34.7</ele><time>2021-03-01T10:12:33Z</time><name>PT7</name></trkpt>
<trkpt lat="52.099218" lon="05.696470"><ele>34.7</ele><time>2021-03-01T10:12:34Z</time><name>PT8</name></trkpt>
<trkpt lat="52.099215" lon="05.696484"><ele>34.6</ele><time>2021-03-01T10:12:35Z</time><name>PT9</name></trkpt>
<trkpt lat="52.099216" lon="05.696497"><ele>34.6</ele><time>2021-03-01T10:12:36Z</time><name>PT10</name></trkpt>
<trkpt lat="52.099217" lon="05.696510"><ele>34.5</ele><time>2021-03-01T10:12:37Z</time><name>PT11</name></trkpt>
<trkpt lat="52.099213" lon="05.696520"><ele>33.8</ele><time>2021-03-01T10:12:38Z</time><name>PT12</name></trkpt>
<trkpt lat="52.099214" lon="05.696522"><ele>34.1</ele><time>2021-03-01T10:12:39Z</time><name>PT13</name></trkpt>
<trkpt lat="52.099214" lon="05.696524"><ele>34.5</ele><time>2021-03-01T10:12:41Z</time><name>PT14</name></trkpt>
<trkpt lat="52.099214" lon="05.696525"><ele>34</ele><time>2021-03-01T10:12:41Z</time><name>PT15</name></trkpt>
<trkpt lat="52.099213" lon="05.696525"><ele>35.5</ele><time>2021-03-01T10:12:42Z</time><name>PT16</name></trkpt>
<trkpt lat="52.099212" lon="05.696524"><ele>35</ele><time>2021-03-01T10:12:48Z</time><name>PT17</name></trkpt>
<trkpt lat="52.099212" lon="05.696520"><ele>35</ele><time>2021-03-01T10:12:49Z</time><name>PT18</name></trkpt>
<trkpt lat="52.099211" lon="05.696523"><ele>35</ele><time>2021-03-01T10:12:56Z</time><name>PT19</name></trkpt>
<trkpt lat="52.099211" lon="05.696527"><ele>35</ele><time>2021-03-01T10:12:57Z</time><name>PT20</name></trkpt>
<trkpt lat="52.099209" lon="05.696530"><ele>35.1</ele><time>2021-03-01T10:12:58Z</time><name>PT21</name></trkpt>
<trkpt lat="52.099209" lon="05.696535"><ele>35.1</ele><time>2021-03-01T10:12:59Z</time><name>PT22</name></trkpt>
<trkpt lat="52.099210" lon="05.696536"><ele>35.1</ele><time>2021-03-01T10:13:00Z</time><name>PT23</name></trkpt>
<trkpt lat="52.099208" lon="05.696538"><ele>35.1</ele><time>2021-03-01T10:13:01Z</time><name>PT24</name></trkpt>
<trkpt lat="52.099205" lon="05.696539"><ele>35.2</ele><time>2021-03-01T10:13:02Z</time><name>PT25</name></trkpt>
<trkpt lat="52.099208" lon="05.696551"><ele>35</ele><time>2021-03-01T10:13:11Z</time><name>PT26</name></trkpt>
<trkpt lat="52.099206" lon="05.696563"><ele>34.8</ele><time>2021-03-01T10:13:12Z</time><name>PT27</name></trkpt>
<trkpt lat="52.099208" lon="05.696566"><ele>34.7</ele><time>2021-03-01T10:13:13Z</time><name>PT28</name></trkpt>
<trkpt lat="52.099206" lon="05.696565"><ele>34.7</ele><time>2021-03-01T10:13:14Z</time><name>PT29</name></trkpt>
<trkpt lat="52.099201" lon="05.696562"><ele>34.8</ele><time>2021-03-01T10:13:15Z</time><name>PT30</name></trkpt>
<trkpt lat="52.099198" lon="05.696568"><ele>34.9</ele><time>2021-03-01T10:13:16Z</time><name>PT31</name></trkpt>
<trkpt lat="52.099196" lon="05.696584"><ele>35</ele><time>2021-03-01T10:13:18Z</time><name>PT32</name></trkpt>
<trkpt lat="52.099187" lon="05.696595"><ele>35</ele><time>2021-03-01T10:13:19Z</time><name>PT33</name></trkpt>
<trkpt lat="52.099185" lon="05.696601"><ele>34.9</ele><time>2021-03-01T10:13:20Z</time><name>PT34</name></trkpt>
<trkpt lat="52.099182" lon="05.696604"><ele>34.7</ele><time>2021-03-01T10:13:21Z</time><name>PT35</name></trkpt>
<trkpt lat="52.099178" lon="05.696604"><ele>34.8</ele><time>2021-03-01T10:13:22Z</time><name>PT36</name></trkpt>
<trkpt lat="52.099183" lon="05.696611"><ele>34.8</ele><time>2021-03-01T10:13:23Z</time><name>PT37</name></trkpt>
<trkpt lat="52.099182" lon="05.696619"><ele>35</ele><time>2021-03-01T10:13:24Z</time><name>PT38</name></trkpt>
<trkpt lat="52.099179" lon="05.696626"><ele>35</ele><time>2021-03-01T10:13:25Z</time><name>PT39</name></trkpt>
<trkpt lat="52.099178" lon="05.696626"><ele>35</ele><time>2021-03-01T10:13:26Z</time><name>PT40</name></trkpt>
<trkpt lat="52.099174" lon="05.696635"><ele>35</ele><time>2021-03-01T10:13:27Z</time><name>PT41</name></trkpt>
<trkpt lat="52.099172" lon="05.696639"><ele>35</ele><time>2021-03-01T10:13:28Z</time><name>PT42</name></trkpt>
<trkpt lat="52.099165" lon="05.696643"><ele>34.7</ele><time>2021-03-01T10:13:29Z</time><name>PT43</name></trkpt>
<trkpt lat="52.099163" lon="05.696644"><ele>34.6</ele><time>2021-03-01T10:13:30Z</time><name>PT44</name></trkpt>
<trkpt lat="52.099160" lon="05.696642"><ele>34.5</ele><time>2021-03-01T10:13:31Z</time><name>PT45</name></trkpt>
<trkpt lat="52.099151" lon="05.696650"><ele>34.4</ele><time>2021-03-01T10:13:45Z</time><name>PT46</name></trkpt>
<trkpt lat="52.099151" lon="05.696651"><ele>34.4</ele><time>2021-03-01T10:13:46Z</time><name>PT47</name></trkpt>
<trkpt lat="52.099151" lon="05.696654"><ele>34.5</ele><time>2021-03-01T10:13:47Z</time><name>PT48</name></trkpt>
<trkpt lat="52.099151" lon="05.696655"><ele>34.4</ele><time>2021-03-01T10:13:48Z</time><name>PT49</name></trkpt>
<trkpt lat="52.099154" lon="05.696661"><ele>34.6</ele><time>2021-03-01T10:13:50Z</time><name>PT50</name></trkpt>
<trkpt lat="52.099155" lon="05.696671"><ele>34.8</ele><time>2021-03-01T10:13:51Z</time><name>PT51</name></trkpt>
<trkpt lat="52.099157" lon="05.696686"><ele>34.8</ele><time>2021-03-01T10:13:52Z</time><name>PT52</name></trkpt>
<trkpt lat="52.099160" lon="05.696696"><ele>34.7</ele><time>2021-03-01T10:13:53Z</time><name>PT53</name></trkpt>
<trkpt lat="52.099167" lon="05.696703"><ele>34.6</ele><time>2021-03-01T10:13:54Z</time><name>PT54</name></trkpt>
<trkpt lat="52.099170" lon="05.696711"><ele>34.5</ele><time>2021-03-01T10:13:55Z</time><name>PT55</name></trkpt>
<trkpt lat="52.099172" lon="05.696717"><ele>34.3</ele><time>2021-03-01T10:13:56Z</time><name>PT56</name></trkpt>
<trkpt lat="52.099170" lon="05.696720"><ele>34.3</ele><time>2021-03-01T10:13:57Z</time><name>PT57</name></trkpt>
<trkpt lat="52.099170" lon="05.696729"><ele>34.2</ele><time>2021-03-01T10:13:58Z</time><name>PT58</name></trkpt>
<trkpt lat="52.099173" lon="05.696740"><ele>34.3</ele><time>2021-03-01T10:13:59Z</time><name>PT59</name></trkpt>
<trkpt lat="52.099177" lon="05.696751"><ele>34.1</ele><time>2021-03-01T10:14:00Z</time><name>PT60</name></trkpt>
<trkpt lat="52.099183" lon="05.696761"><ele>34.2</ele><time>2021-03-01T10:14:01Z</time><name>PT61</name></trkpt>
<trkpt lat="52.099191" lon="05.696772"><ele>34.2</ele><time>2021-03-01T10:14:02Z</time><name>PT62</name></trkpt>
<trkpt lat="52.099198" lon="05.696778"><ele>34.2</ele><time>2021-03-01T10:14:03Z</time><name>PT63</name></trkpt>
<trkpt lat="52.099209" lon="05.696779"><ele>34.1</ele><time>2021-03-01T10:14:04Z</time><name>PT64</name></trkpt>
<trkpt lat="52.099217" lon="05.696790"><ele>34.1</ele><time>2021-03-01T10:14:05Z</time><name>PT65</name></trkpt>
<trkpt lat="52.099227" lon="05.696809"><ele>34.1</ele><time>2021-03-01T10:14:06Z</time><name>PT66</name></trkpt>
<trkpt lat="52.099228" lon="05.696816"><ele>34.1</ele><time>2021-03-01T10:14:07Z</time><name>PT67</name></trkpt>
<trkpt lat="52.099225" lon="05.696832"><ele>34.3</ele><time>2021-03-01T10:14:08Z</time><name>PT68</name></trkpt>
<trkpt lat="52.099232" lon="05.696840"><ele>34.2</ele><time>2021-03-01T10:14:09Z</time><name>PT69</name></trkpt>
<trkpt lat="52.099232" lon="05.696850"><ele>34.3</ele><time>2021-03-01T10:14:10Z</time><name>PT70</name></trkpt>
<trkpt lat="52.099230" lon="05.696861"><ele>34.2</ele><time>2021-03-01T10:14:11Z</time><name>PT71</name></trkpt>
<trkpt lat="52.099228" lon="05.696874"><ele>34.1</ele><time>2021-03-01T10:14:12Z</time><name>PT72</name></trkpt>
<trkpt lat="52.099231" lon="05.696886"><ele>34.1</ele><time>2021-03-01T10:14:13Z</time><name>PT73</name></trkpt>
<trkpt lat="52.099228" lon="05.696904"><ele>34.2</ele><time>2021-03-01T10:14:14Z</time><name>PT74</name></trkpt>
<trkpt lat="52.099223" lon="05.696921"><ele>34.2</ele><time>2021-03-01T10:14:15Z</time><name>PT75</name></trkpt>
<trkpt lat="52.099215" lon="05.696945"><ele>34.1</ele><time>2021-03-01T10:14:16Z</time><name>PT76</name></trkpt>
<trkpt lat="52.099210" lon="05.696968"><ele>34.2</ele><time>2021-03-01T10:14:17Z</time><name>PT77</name></trkpt>
<trkpt lat="52.099209" lon="05.696988"><ele>34.1</ele><time>2021-03-01T10:14:18Z</time><name>PT78</name></trkpt>
<trkpt lat="52.099210" lon="05.697001"><ele>34.1</ele><time>2021-03-01T10:14:19Z</time><name>PT79</name></trkpt>
<trkpt lat="52.099210" lon="05.697012"><ele>34.1</ele><time>2021-03-01T10:14:20Z</time><name>PT80</name></trkpt>
<trkpt lat="52.099207" lon="05.697029"><ele>34.1</ele><time>2021-03-01T10:14:21Z</time><name>PT81</name></trkpt>
<trkpt lat="52.099209" lon="05.697048"><ele>34.1</ele><time>2021-03-01T10:14:22Z</time><name>PT82</name></trkpt>
<trkpt lat="52.099213" lon="05.697069"><ele>34.2</ele><time>2021-03-01T10:14:23Z</time><name>PT83</name></trkpt>
<trkpt lat="52.099213" lon="05.697089"><ele>34.2</ele><time>2021-03-01T10:14:24Z</time><name>PT84</name></trkpt>
<trkpt lat="52.099216" lon="05.697109"><ele>34.3</ele><time>2021-03-01T10:14:25Z</time><name>PT85</name></trkpt>
<trkpt lat="52.099218" lon="05.697131"><ele>34.3</ele><time>2021-03-01T10:14:26Z</time><name>PT86</name></trkpt>
<trkpt lat="52.099218" lon="05.697151"><ele>34.3</ele><time>2021-03-01T10:14:27Z</time><name>PT87</name></trkpt>
<trkpt lat="52.099214" lon="05.697171"><ele>34.2</ele><time>2021-03-01T10:14:28Z</time><name>PT88</name></trkpt>
<trkpt lat="52.099211" lon="05.697195"><ele>34.1</ele><time>2021-03-01T10:14:29Z</time><name>PT89</name></trkpt>
<trkpt lat="52.099215" lon="05.697219"><ele>34.2</ele><time>2021-03-01T10:14:30Z</time><name>PT90</name></trkpt>
<trkpt lat="52.099219" lon="05.697245"><ele>34.3</ele><time>2021-03-01T10:14:31Z</time><name>PT91</name></trkpt>
<trkpt lat="52.099222" lon="05.697271"><ele>34.3</ele><time>2021-03-01T10:14:32Z</time><name>PT92</name></trkpt>
<trkpt lat="52.099227" lon="05.697298"><ele>34.3</ele><time>2021-03-01T10:14:33Z</time><name>PT93</name></trkpt>
<trkpt lat="52.099234" lon="05.697326"><ele>34.3</ele><time>2021-03-01T10:14:34Z</time><name>PT94</name></trkpt>
<trkpt lat="52.099238" lon="05.697352"><ele>34.2</ele><time>2021-03-01T10:14:35Z</time><name>PT95</name></trkpt>
<trkpt lat="52.099243" lon="05.697379"><ele>34.1</ele><time>2021-03-01T10:14:36Z</time><name>PT96</name></trkpt>
<trkpt lat="52.099247" lon="05.697406"><ele>34.1</ele><time>2021-03-01T10:14:37Z</time><name>PT97</name></trkpt>
<trkpt lat="52.099252" lon="05.697433"><ele>34.1</ele><time>2021-03-01T10:14:38Z</time><name>PT98</name></trkpt>
<trkpt lat="52.099258" lon="05.697456"><ele>34</ele><time>2021-03-01T10:14:39Z</time><name>PT99</name></trkpt>
<trkpt lat="52.099263" lon="05.697477"><ele>34</ele><time>2021-03-01T10:14:40Z</time><name>PT100</name></trkpt>
<trkpt lat="52.099268" lon="05.697501"><ele>33.9</ele><time>2021-03-01T10:14:41Z</time><name>PT101</name></trkpt>
<trkpt lat="52.099273" lon="05.697523"><ele>34</ele><time>2021-03-01T10:14:42Z</time><name>PT102</name></trkpt>
<trkpt lat="52.099277" lon="05.697545"><ele>34.1</ele><time>2021-03-01T10:14:43Z</time><name>PT103</name></trkpt>
<trkpt lat="52.099282" lon="05.697566"><ele>34.1</ele><time>2021-03-01T10:14:44Z</time><name>PT104</name></trkpt>
<trkpt lat="52.099285" lon="05.697586"><ele>34.2</ele><time>2021-03-01T10:14:45Z</time><name>PT105</name></trkpt>
<trkpt lat="52.099290" lon="05.697606"><ele>34.3</ele><time>2021-03-01T10:14:46Z</time><name>PT106</name></trkpt>
<trkpt lat="52.099297" lon="05.697628"><ele>34.3</ele><time>2021-03-01T10:14:47Z</time><name>PT107</name></trkpt>
<trkpt lat="52.099305" lon="05.697651"><ele>34.5</ele><time>2021-03-01T10:14:48Z</time><name>PT108</name></trkpt>
<trkpt lat="52.099313" lon="05.697676"><ele>34.4</ele><time>2021-03-01T10:14:49Z</time><name>PT109</name></trkpt>
<trkpt lat="52.099320" lon="05.697698"><ele>34.2</ele><time>2021-03-01T10:14:50Z</time><name>PT110</name></trkpt>
<trkpt lat="52.099329" lon="05.697721"><ele>34.1</ele><time>2021-03-01T10:14:51Z</time><name>PT111</name></trkpt>
<trkpt lat="52.099335" lon="05.697744"><ele>34</ele><time>2021-03-01T10:14:52Z</time><name>PT112</name></trkpt>
<trkpt lat="52.099341" lon="05.697766"><ele>33.8</ele><time>2021-03-01T10:14:53Z</time><name>PT113</name></trkpt>
<trkpt lat="52.099349" lon="05.697790"><ele>33.7</ele><time>2021-03-01T10:14:54Z</time><name>PT114</name></trkpt>
<trkpt lat="52.099357" lon="05.697812"><ele>33.7</ele><time>2021-03-01T10:14:55Z</time><name>PT115</name></trkpt>
<trkpt lat="52.099363" lon="05.697832"><ele>33.8</ele><time>2021-03-01T10:14:56Z</time><name>PT116</name></trkpt>
<trkpt lat="52.099370" lon="05.697855"><ele>33.8</ele><time>2021-03-01T10:14:57Z</time><name>PT117</name></trkpt>
<trkpt lat="52.099379" lon="05.697876"><ele>33.7</ele><time>2021-03-01T10:14:58Z</time><name>PT118</name></trkpt>
<trkpt lat="52.099386" lon="05.697896"><ele>33.8</ele><time>2021-03-01T10:14:59Z</time><name>PT119</name></trkpt>
<trkpt lat="52.099394" lon="05.697915"><ele>33.8</ele><time>2021-03-01T10:15:00Z</time><name>PT120</name></trkpt>
<trkpt lat="52.099400" lon="05.697937"><ele>33.7</ele><time>2021-03-01T10:15:01Z</time><name>PT121</name></trkpt>
<trkpt lat="52.099406" lon="05.697956"><ele>33.6</ele><time>2021-03-01T10:15:02Z</time><name>PT122</name></trkpt>
<trkpt lat="52.099414" lon="05.697974"><ele>33.4</ele><time>2021-03-01T10:15:03Z</time><name>PT123</name></trkpt>
<trkpt lat="52.099421" lon="05.697993"><ele>33.3</ele><time>2021-03-01T10:15:04Z</time><name>PT124</name></trkpt>
<trkpt lat="52.099432" lon="05.698014"><ele>33.3</ele><time>2021-03-01T10:15:05Z</time><name>PT125</name></trkpt>
<trkpt lat="52.099448" lon="05.698033"><ele>33.4</ele><time>2021-03-01T10:15:06Z</time><name>PT126</name></trkpt>
<trkpt lat="52.099454" lon="05.698048"><ele>33.5</ele><time>2021-03-01T10:15:07Z</time><name>PT127</name></trkpt>
<trkpt lat="52.099462" lon="05.698063"><ele>33.5</ele><time>2021-03-01T10:15:08Z</time><name>PT128</name></trkpt>
<trkpt lat="52.099473" lon="05.698082"><ele>33.5</ele><time>2021-03-01T10:15:09Z</time><name>PT129</name></trkpt>
<trkpt lat="52.099485" lon="05.698101"><ele>33.2</ele><time>2021-03-01T10:15:10Z</time><name>PT130</name></trkpt>
<trkpt lat="52.099495" lon="05.698120"><ele>33.2</ele><time>2021-03-01T10:15:11Z</time><name>PT131</name></trkpt>
<trkpt lat="52.099507" lon="05.698137"><ele>33.2</ele><time>2021-03-01T10:15:12Z</time><name>PT132</name></trkpt>
<trkpt lat="52.099517" lon="05.698153"><ele>33.1</ele><time>2021-03-01T10:15:13Z</time><name>PT133</name></trkpt>
<trkpt lat="52.099532" lon="05.698175"><ele>32.9</ele><time>2021-03-01T10:15:14Z</time><name>PT134</name></trkpt>
<trkpt lat="52.099544" lon="05.698195"><ele>33.1</ele><time>2021-03-01T10:15:15Z</time><name>PT135</name></trkpt>
<trkpt lat="52.099558" lon="05.698213"><ele>33.1</ele><time>2021-03-01T10:15:16Z</time><name>PT136</name></trkpt>
<trkpt lat="52.099572" lon="05.698233"><ele>33</ele><time>2021-03-01T10:15:17Z</time><name>PT137</name></trkpt>
<trkpt lat="52.099584" lon="05.698251"><ele>33.1</ele><time>2021-03-01T10:15:18Z</time><name>PT138</name></trkpt>
<trkpt lat="52.099595" lon="05.698269"><ele>33.1</ele><time>2021-03-01T10:15:19Z</time><name>PT139</name></trkpt>
<trkpt lat="52.099609" lon="05.698287"><ele>33</ele><time>2021-03-01T10:15:20Z</time><name>PT140</name></trkpt>
<trkpt lat="52.099621" lon="05.698302"><ele>33.1</ele><time>2021-03-01T10:15:21Z</time><name>PT141</name></trkpt>
<trkpt lat="52.099632" lon="05.698314"><ele>33.2</ele><time>2021-03-01T10:15:22Z</time><name>PT142</name></trkpt>
<trkpt lat="52.099643" lon="05.698329"><ele>33.3</ele><time>2021-03-01T10:15:23Z</time><name>PT143</name></trkpt>
<trkpt lat="52.099652" lon="05.698345"><ele>33.2</ele><time>2021-03-01T10:15:24Z</time><name>PT144</name></trkpt>
<trkpt lat="52.099657" lon="05.698359"><ele>33.2</ele><time>2021-03-01T10:15:25Z</time><name>PT145</name></trkpt>
<trkpt lat="52.099663" lon="05.698371"><ele>33.2</ele><time>2021-03-01T10:15:26Z</time><name>PT146</name></trkpt>
<trkpt lat="52.099672" lon="05.698386"><ele>33.2</ele><time>2021-03-01T10:15:27Z</time><name>PT147</name></trkpt>
<trkpt lat="52.099681" lon="05.698399"><ele>33</ele><time>2021-03-01T10:15:28Z</time><name>PT148</name></trkpt>
<trkpt lat="52.099689" lon="05.698415"><ele>33.2</ele><time>2021-03-01T10:15:29Z</time><name>PT149</name></trkpt>
<trkpt lat="52.099694" lon="05.698433"><ele>33.3</ele><time>2021-03-01T10:15:30Z</time><name>PT150</name></trkpt>
<trkpt lat="52.099703" lon="05.698452"><ele>33.3</ele><time>2021-03-01T10:15:31Z</time><name>PT151</name></trkpt>
<trkpt lat="52.099714" lon="05.698473"><ele>33.4</ele><time>2021-03-01T10:15:32Z</time><name>PT152</name></trkpt>
<trkpt lat="52.099728" lon="05.698496"><ele>33.6</ele><time>2021-03-01T10:15:33Z</time><name>PT153</name></trkpt>
<trkpt lat="52.099737" lon="05.698515"><ele>33.4</ele><time>2021-03-01T10:15:34Z</time><name>PT154</name></trkpt>
<trkpt lat="52.099746" lon="05.698534"><ele>33.3</ele><time>2021-03-01T10:15:35Z</time><name>PT155</name></trkpt>
<trkpt lat="52.099755" lon="05.698550"><ele>33.4</ele><time>2021-03-01T10:15:36Z</time><name>PT156</name></trkpt>
<trkpt lat="52.099764" lon="05.698565"><ele>33.3</ele><time>2021-03-01T10:15:37Z</time><name>PT157</name></trkpt>
<trkpt lat="52.099771" lon="05.698581"><ele>33.5</ele><time>2021-03-01T10:15:38Z</time><name>PT158</name></trkpt>
<trkpt lat="52.099779" lon="05.698596"><ele>33.5</ele><time>2021-03-01T10:15:39Z</time><name>PT159</name></trkpt>
<trkpt lat="52.099787" lon="05.698611"><ele>33.5</ele><time>2021-03-01T10:15:40Z</time><name>PT160</name></trkpt>
<trkpt lat="52.099797" lon="05.698626"><ele>33.4</ele><time>2021-03-01T10:15:41Z</time><name>PT161</name></trkpt>
<trkpt lat="52.099808" lon="05.698643"><ele>33.4</ele><time>2021-03-01T10:15:42Z</time><name>PT162</name></trkpt>
<trkpt lat="52.099817" lon="05.698658"><ele>33.3</ele><time>2021-03-01T10:15:43Z</time><name>PT163</name></trkpt>
<trkpt lat="52.099829" lon="05.698677"><ele>33.2</ele><time>2021-03-01T10:15:44Z</time><name>PT164</name></trkpt>
<trkpt lat="52.099842" lon="05.698694"><ele>33.3</ele><time>2021-03-01T10:15:45Z</time><name>PT165</name></trkpt>
<trkpt lat="52.099854" lon="05.698713"><ele>33.4</ele><time>2021-03-01T10:15:46Z</time><name>PT166</name></trkpt>
<trkpt lat="52.099861" lon="05.698733"><ele>33.3</ele><time>2021-03-01T10:15:47Z</time><name>PT167</name></trkpt>
<trkpt lat="52.099869" lon="05.698755"><ele>33.4</ele><time>2021-03-01T10:15:48Z</time><name>PT168</name></trkpt>
<trkpt lat="52.099879" lon="05.698777"><ele>33.4</ele><time>2021-03-01T10:15:49Z</time><name>PT169</name></trkpt>
<trkpt lat="52.099886" lon="05.698796"><ele>33.3</ele><time>2021-03-01T10:15:50Z</time><name>PT170</name></trkpt>
<trkpt lat="52.099894" lon="05.698816"><ele>33.3</ele><time>2021-03-01T10:15:51Z</time><name>PT171</name></trkpt>
<trkpt lat="52.099902" lon="05.698837"><ele>33.5</ele><time>2021-03-01T10:15:52Z</time><name>PT172</name></trkpt>
<trkpt lat="52.099911" lon="05.698858"><ele>33.6</ele><time>2021-03-01T10:15:53Z</time><name>PT173</name></trkpt>
<trkpt lat="52.099924" lon="05.698884"><ele>33.7</ele><time>2021-03-01T10:15:54Z</time><name>PT174</name></trkpt>
<trkpt lat="52.099934" lon="05.698907"><ele>33.7</ele><time>2021-03-01T10:15:55Z</time><name>PT175</name></trkpt>
<trkpt lat="52.099946" lon="05.698926"><ele>33.5</ele><time>2021-03-01T10:15:56Z</time><name>PT176</name></trkpt>
<trkpt lat="52.099959" lon="05.698947"><ele>33.4</ele><time>2021-03-01T10:15:57Z</time><name>PT177</name></trkpt>
<trkpt lat="52.099969" lon="05.698971"><ele>33.3</ele><time>2021-03-01T10:15:58Z</time><name>PT178</name></trkpt>
<trkpt lat="52.099979" lon="05.698994"><ele>33.3</ele><time>2021-03-01T10:15:59Z</time><name>PT179</name></trkpt>
<trkpt lat="52.099988" lon="05.699015"><ele>33.3</ele><time>2021-03-01T10:16:00Z</time><name>PT180</name></trkpt>
<trkpt lat="52.099995" lon="05.699036"><ele>33.4</ele><time>2021-03-01T10:16:01Z</time><name>PT181</name></trkpt>
<trkpt lat="52.100004" lon="05.699058"><ele>33.4</ele><time>2021-03-01T10:16:02Z</time><name>PT182</name></trkpt>
<trkpt lat="52.100013" lon="05.699083"><ele>33.6</ele><time>2021-03-01T10:16:03Z</time><name>PT183</name></trkpt>
<trkpt lat="52.100020" lon="05.699107"><ele>33.6</ele><time>2021-03-01T10:16:04Z</time><name>PT184</name></trkpt>
<trkpt lat="52.100027" lon="05.699129"><ele>33.7</ele><time>2021-03-01T10:16:05Z</time><name>PT185</name></trkpt>
<trkpt lat="52.100037" lon="05.699151"><ele>33.7</ele><time>2021-03-01T10:16:06Z</time><name>PT186</name></trkpt>
<trkpt lat="52.100047" lon="05.699172"><ele>33.9</ele><time>2021-03-01T10:16:07Z</time><name>PT187</name></trkpt>
<trkpt lat="52.100055" lon="05.699194"><ele>33.8</ele><time>2021-03-01T10:16:08Z</time><name>PT188</name></trkpt>
<trkpt lat="52.100065" lon="05.699217"><ele>33.9</ele><time>2021-03-01T10:16:09Z</time><name>PT189</name></trkpt>
<trkpt lat="52.100073" lon="05.699240"><ele>33.8</ele><time>2021-03-01T10:16:10Z</time><name>PT190</name></trkpt>
<trkpt lat="52.100080" lon="05.699264"><ele>33.7</ele><time>2021-03-01T10:16:11Z</time><name>PT191</name></trkpt>
<trkpt lat="52.100085" lon="05.699288"><ele>33.8</ele><time>2021-03-01T10:16:12Z</time><name>PT192</name></trkpt>
<trkpt lat="52.100092" lon="05.699312"><ele>33.8</ele><time>2021-03-01T10:16:13Z</time><name>PT193</name></trkpt>
<trkpt lat="52.100098" lon="05.699332"><ele>34</ele><time>2021-03-01T10:16:14Z</time><name>PT194</name></trkpt>
<trkpt lat="52.100103" lon="05.699354"><ele>33.9</ele><time>2021-03-01T10:16:15Z</time><name>PT195</name></trkpt>
<trkpt lat="52.100111" lon="05.699374"><ele>33.8</ele><time>2021-03-01T10:16:16Z</time><name>PT196</name></trkpt>
<trkpt lat="52.100121" lon="05.699398"><ele>33.8</ele><time>2021-03-01T10:16:17Z</time><name>PT197</name></trkpt>
<trkpt lat="52.100130" lon="05.699421"><ele>33.7</ele><time>2021-03-01T10:16:18Z</time><name>PT198</name></trkpt>
<trkpt lat="52.100139" lon="05.699445"><ele>33.7</ele><time>2021-03-01T10:16:19Z</time><name>PT199</name></trkpt>
<trkpt lat="52.100150" lon="05.699470"><ele>33.8</ele><time>2021-03-01T10:16:20Z</time><name>PT200</name></trkpt>
<trkpt lat="52.100156" lon="05.699490"><ele>33.7</ele><time>2021-03-01T10:16:21Z</time><name>PT201</name></trkpt>
<trkpt lat="52.100164" lon="05.699513"><ele>33.8</ele><time>2021-03-01T10:16:22Z</time><name>PT202</name></trkpt>
<trkpt lat="52.100172" lon="05.699536"><ele>33.8</ele><time>2021-03-01T10:16:23Z</time><name>PT203</name></trkpt>
<trkpt lat="52.100179" lon="05.699560"><ele>33.8</ele><time>2021-03-01T10:16:24Z</time><name>PT204</name></trkpt>
<trkpt lat="52.100187" lon="05.699582"><ele>33.7</ele><time>2021-03-01T10:16:25Z</time><name>PT205</name></trkpt>
<trkpt lat="52.100195" lon="05.699603"><ele>33.7</ele><time>2021-03-01T10:16:26Z</time><name>PT206</name></trkpt>
<trkpt lat="52.100203" lon="05.699621"><ele>33.7</ele><time>2021-03-01T10:16:27Z</time><name>PT207</name></trkpt>
<trkpt lat="52.100212" lon="05.699644"><ele>33.7</ele><time>2021-03-01T10:16:28Z</time><name>PT208</name></trkpt>
<trkpt lat="52.100221" lon="05.699665"><ele>33.7</ele><time>2021-03-01T10:16:29Z</time><name>PT209</name></trkpt>
<trkpt lat="52.100228" lon="05.699687"><ele>33.8</ele><time>2021-03-01T10:16:30Z</time><name>PT210</name></trkpt>
<trkpt lat="52.100236" lon="05.699711"><ele>33.8</ele><time>2021-03-01T10:16:31Z</time><name>PT211</name></trkpt>
<trkpt lat="52.100242" lon="05.699729"><ele>33.9</ele><time>2021-03-01T10:16:32Z</time><name>PT212</name></trkpt>
<trkpt lat="52.100248" lon="05.699749"><ele>34.2</ele><time>2021-03-01T10:16:33Z</time><name>PT213</name></trkpt>
<trkpt lat="52.100255" lon="05.699771"><ele>34.1</ele><time>2021-03-01T10:16:34Z</time><name>PT214</name></trkpt>
<trkpt lat="52.100264" lon="05.699794"><ele>34.1</ele><time>2021-03-01T10:16:35Z</time><name>PT215</name></trkpt>
<trkpt lat="52.100269" lon="05.699816"><ele>34.3</ele><time>2021-03-01T10:16:36Z</time><name>PT216</name></trkpt>
<trkpt lat="52.100277" lon="05.699840"><ele>34.1</ele><time>2021-03-01T10:16:37Z</time><name>PT217</name></trkpt>
<trkpt lat="52.100285" lon="05.699863"><ele>33.9</ele><time>2021-03-01T10:16:38Z</time><name>PT218</name></trkpt>
<trkpt lat="52.100292" lon="05.699883"><ele>34</ele><time>2021-03-01T10:16:39Z</time><name>PT219</name></trkpt>
<trkpt lat="52.100299" lon="05.699901"><ele>33.8</ele><time>2021-03-01T10:16:40Z</time><name>PT220</name></trkpt>
<trkpt lat="52.100305" lon="05.699919"><ele>33.7</ele><time>2021-03-01T10:16:41Z</time><name>PT221</name></trkpt>
<trkpt lat="52.100313" lon="05.699939"><ele>34.1</ele><time>2021-03-01T10:16:42Z</time><name>PT222</name></trkpt>
<trkpt lat="52.100321" lon="05.699960"><ele>34.1</ele><time>2021-03-01T10:16:43Z</time><name>PT223</name></trkpt>
<trkpt lat="52.100330" lon="05.699980"><ele>34.3</ele><time>2021-03-01T10:16:44Z</time><name>PT224</name></trkpt>
<trkpt lat="52.100338" lon="05.700001"><ele>34.4</ele><time>2021-03-01T10:16:45Z</time><name>PT225</name></trkpt>
<trkpt lat="52.100346" lon="05.700022"><ele>34.4</ele><time>2021-03-01T10:16:46Z</time><name>PT226</name></trkpt>
<trkpt lat="52.100355" lon="05.700044"><ele>34.2</ele><time>2021-03-01T10:16:47Z</time><name>PT227</name></trkpt>
<trkpt lat="52.100364" lon="05.700067"><ele>34.1</ele><time>2021-03-01T10:16:48Z</time><name>PT228</name></trkpt>
<trkpt lat="52.100372" lon="05.700089"><ele>34.1</ele><time>2021-03-01T10:16:49Z</time><name>PT229</name></trkpt>
<trkpt lat="52.100380" lon="05.700111"><ele>34</ele><time>2021-03-01T10:16:50Z</time><name>PT230</name></trkpt>
<trkpt lat="52.100386" lon="05.700133"><ele>34.1</ele><time>2021-03-01T10:16:51Z</time><name>PT231</name></trkpt>
<trkpt lat="52.100394" lon="05.700156"><ele>34.1</ele><time>2021-03-01T10:16:52Z</time><name>PT232</name></trkpt>
<trkpt lat="52.100401" lon="05.700181"><ele>33.9</ele><time>2021-03-01T10:16:53Z</time><name>PT233</name></trkpt>
<trkpt lat="52.100411" lon="05.700206"><ele>34</ele><time>2021-03-01T10:16:54Z</time><name>PT234</name></trkpt>
<trkpt lat="52.100418" lon="05.700230"><ele>33.9</ele><time>2021-03-01T10:16:55Z</time><name>PT235</name></trkpt>
<trkpt lat="52.100425" lon="05.700254"><ele>33.9</ele><time>2021-03-01T10:16:56Z</time><name>PT236</name></trkpt>
<trkpt lat="52.100433" lon="05.700278"><ele>34</ele><time>2021-03-01T10:16:57Z</time><name>PT237</name></trkpt>
<trkpt lat="52.100440" lon="05.700301"><ele>34.2</ele><time>2021-03-01T10:16:58Z</time><name>PT238</name></trkpt>
<trkpt lat="52.100445" lon="05.700322"><ele>34.3</ele><time>2021-03-01T10:16:59Z</time><name>PT239</name></trkpt>
<trkpt lat="52.100453" lon="05.700345"><ele>34.1</ele><time>2021-03-01T10:17:00Z</time><name>PT240</name></trkpt>
<trkpt lat="52.100458" lon="05.700366"><ele>34.1</ele><time>2021-03-01T10:17:01Z</time><name>PT241</name></trkpt>
<trkpt lat="52.100469" lon="05.700389"><ele>34.1</ele><time>2021-03-01T10:17:02Z</time><name>PT242</name></trkpt>
<trkpt lat="52.100474" lon="05.700410"><ele>34.1</ele><time>2021-03-01T10:17:03Z</time><name>PT243</name></trkpt>
<trkpt lat="52.100481" lon="05.700429"><ele>34.1</ele><time>2021-03-01T10:17:05Z</time><name>PT244</name></trkpt>
<trkpt lat="52.100488" lon="05.700449"><ele>34.2</ele><time>2021-03-01T10:17:05Z</time><name>PT245</name></trkpt>
<trkpt lat="52.100494" lon="05.700470"><ele>34.1</ele><time>2021-03-01T10:17:06Z</time><name>PT246</name></trkpt>
<trkpt lat="52.100501" lon="05.700491"><ele>34.1</ele><time>2021-03-01T10:17:07Z</time><name>PT247</name></trkpt>
<trkpt lat="52.100509" lon="05.700514"><ele>34</ele><time>2021-03-01T10:17:08Z</time><name>PT248</name></trkpt>
<trkpt lat="52.100510" lon="05.700532"><ele>34.1</ele><time>2021-03-01T10:17:09Z</time><name>PT249</name></trkpt>
<trkpt lat="52.100516" lon="05.700553"><ele>34</ele><time>2021-03-01T10:17:10Z</time><name>PT250</name></trkpt>
<trkpt lat="52.100519" lon="05.700571"><ele>33.9</ele><time>2021-03-01T10:17:11Z</time><name>PT251</name></trkpt>
<trkpt lat="52.100527" lon="05.700589"><ele>34</ele><time>2021-03-01T10:17:12Z</time><name>PT252</name></trkpt>
<trkpt lat="52.100534" lon="05.700610"><ele>34.1</ele><time>2021-03-01T10:17:13Z</time><name>PT253</name></trkpt>
<trkpt lat="52.100543" lon="05.700634"><ele>34.1</ele><time>2021-03-01T10:17:14Z</time><name>PT254</name></trkpt>
<trkpt lat="52.100553" lon="05.700656"><ele>34.1</ele><time>2021-03-01T10:17:15Z</time><name>PT255</name></trkpt>
<trkpt lat="52.100560" lon="05.700679"><ele>34.2</ele><time>2021-03-01T10:17:16Z</time><name>PT256</name></trkpt>
<trkpt lat="52.100565" lon="05.700699"><ele>34.2</ele><time>2021-03-01T10:17:17Z</time><name>PT257</name></trkpt>
<trkpt lat="52.100574" lon="05.700720"><ele>34.2</ele><time>2021-03-01T10:17:18Z</time><name>PT258</name></trkpt>
<trkpt lat="52.100581" lon="05.700740"><ele>34.3</ele><time>2021-03-01T10:17:19Z</time><name>PT259</name></trkpt>
<trkpt lat="52.100587" lon="05.700760"><ele>34.5</ele><time>2021-03-01T10:17:20Z</time><name>PT260</name></trkpt>
<trkpt lat="52.100594" lon="05.700785"><ele>34.5</ele><time>2021-03-01T10:17:21Z</time><name>PT261</name></trkpt>
<trkpt lat="52.100599" lon="05.700808"><ele>34.5</ele><time>2021-03-01T10:17:22Z</time><name>PT262</name></trkpt>
<trkpt lat="52.100606" lon="05.700831"><ele>34.4</ele><time>2021-03-01T10:17:23Z</time><name>PT263</name></trkpt>
<trkpt lat="52.100614" lon="05.700854"><ele>34.4</ele><time>2021-03-01T10:17:24Z</time><name>PT264</name></trkpt>
<trkpt lat="52.100620" lon="05.700870"><ele>34.3</ele><time>2021-03-01T10:17:25Z</time><name>PT265</name></trkpt>
<trkpt lat="52.100626" lon="05.700891"><ele>34.2</ele><time>2021-03-01T10:17:26Z</time><name>PT266</name></trkpt>
<trkpt lat="52.100634" lon="05.700914"><ele>34.1</ele><time>2021-03-01T10:17:27Z</time><name>PT267</name></trkpt>
<trkpt lat="52.100640" lon="05.700939"><ele>34.1</ele><time>2021-03-01T10:17:28Z</time><name>PT268</name></trkpt>
<trkpt lat="52.100648" lon="05.700963"><ele>34</ele><time>2021-03-01T10:17:29Z</time><name>PT269</name></trkpt>
<trkpt lat="52.100654" lon="05.700986"><ele>33.9</ele><time>2021-03-01T10:17:30Z</time><name>PT270</name></trkpt>
<trkpt lat="52.100661" lon="05.701011"><ele>33.8</ele><time>2021-03-01T10:17:31Z</time><name>PT271</name></trkpt>
<trkpt lat="52.100668" lon="05.701028"><ele>33.6</ele><time>2021-03-01T10:17:32Z</time><name>PT272</name></trkpt>
<trkpt lat="52.100677" lon="05.701050"><ele>33.7</ele><time>2021-03-01T10:17:33Z</time><name>PT273</name></trkpt>
<trkpt lat="52.100684" lon="05.701070"><ele>33.8</ele><time>2021-03-01T10:17:34Z</time><name>PT274</name></trkpt>
<trkpt lat="52.100686" lon="05.701095"><ele>33.7</ele><time>2021-03-01T10:17:35Z</time><name>PT275</name></trkpt>
<trkpt lat="52.100690" lon="05.701120"><ele>33.4</ele><time>2021-03-01T10:17:36Z</time><name>PT276</name></trkpt>
<trkpt lat="52.100694" lon="05.701141"><ele>33.5</ele><time>2021-03-01T10:17:37Z</time><name>PT277</name></trkpt>
<trkpt lat="52.100701" lon="05.701164"><ele>33.5</ele><time>2021-03-01T10:17:38Z</time><name>PT278</name></trkpt>
<trkpt lat="52.100709" lon="05.701184"><ele>33.5</ele><time>2021-03-01T10:17:39Z</time><name>PT279</name></trkpt>
<trkpt lat="52.100717" lon="05.701205"><ele>33.7</ele><time>2021-03-01T10:17:40Z</time><name>PT280</name></trkpt>
<trkpt lat="52.100727" lon="05.701221"><ele>34</ele><time>2021-03-01T10:17:41Z</time><name>PT281</name></trkpt>
<trkpt lat="52.100737" lon="05.701233"><ele>33.8</ele><time>2021-03-01T10:17:42Z</time><name>PT282</name></trkpt>
<trkpt lat="52.100746" lon="05.701251"><ele>33.4</ele><time>2021-03-01T10:17:43Z</time><name>PT283</name></trkpt>
<trkpt lat="52.100754" lon="05.701277"><ele>33.1</ele><time>2021-03-01T10:17:44Z</time><name>PT284</name></trkpt>
<trkpt lat="52.100755" lon="05.701305"><ele>33.1</ele><time>2021-03-01T10:17:45Z</time><name>PT285</name></trkpt>
<trkpt lat="52.100754" lon="05.701331"><ele>33.3</ele><time>2021-03-01T10:17:46Z</time><name>PT286</name></trkpt>
<trkpt lat="52.100756" lon="05.701359"><ele>33.7</ele><time>2021-03-01T10:17:47Z</time><name>PT287</name></trkpt>
<trkpt lat="52.100766" lon="05.701390"><ele>34.6</ele><time>2021-03-01T10:17:48Z</time><name>PT288</name></trkpt>
<trkpt lat="52.100775" lon="05.701423"><ele>34.7</ele><time>2021-03-01T10:17:49Z</time><name>PT289</name></trkpt>
<trkpt lat="52.100782" lon="05.701445"><ele>34.7</ele><time>2021-03-01T10:17:50Z</time><name>PT290</name></trkpt>
<trkpt lat="52.100785" lon="05.701466"><ele>34.6</ele><time>2021-03-01T10:17:51Z</time><name>PT291</name></trkpt>
<trkpt lat="52.100786" lon="05.701485"><ele>34.1</ele><time>2021-03-01T10:17:52Z</time><name>PT292</name></trkpt>
<trkpt lat="52.100788" lon="05.701503"><ele>33.4</ele><time>2021-03-01T10:17:53Z</time><name>PT293</name></trkpt>
<trkpt lat="52.100792" lon="05.701520"><ele>33.2</ele><time>2021-03-01T10:17:54Z</time><name>PT294</name></trkpt>
<trkpt lat="52.100796" lon="05.701537"><ele>32.8</ele><time>2021-03-01T10:17:55Z</time><name>PT295</name></trkpt>
<trkpt lat="52.100800" lon="05.701556"><ele>34.1</ele><time>2021-03-01T10:17:56Z</time><name>PT296</name></trkpt>
<trkpt lat="52.100804" lon="05.701574"><ele>34.5</ele><time>2021-03-01T10:17:57Z</time><name>PT297</name></trkpt>
<trkpt lat="52.100805" lon="05.701597"><ele>35.5</ele><time>2021-03-01T10:17:58Z</time><name>PT298</name></trkpt>
<trkpt lat="52.100804" lon="05.701623"><ele>35.2</ele><time>2021-03-01T10:17:59Z</time><name>PT299</name></trkpt>
<trkpt lat="52.100805" lon="05.701645"><ele>34.9</ele><time>2021-03-01T10:18:00Z</time><name>PT300</name></trkpt>
<trkpt lat="52.100805" lon="05.701666"><ele>34.8</ele><time>2021-03-01T10:18:01Z</time><name>PT301</name></trkpt>
<trkpt lat="52.100804" lon="05.701689"><ele>34.3</ele><time>2021-03-01T10:18:03Z</time><name>PT302</name></trkpt>
<trkpt lat="52.100804" lon="05.701711"><ele>34.3</ele><time>2021-03-01T10:18:03Z</time><name>PT303</name></trkpt>
<trkpt lat="52.100803" lon="05.701736"><ele>34.2</ele><time>2021-03-01T10:18:04Z</time><name>PT304</name></trkpt>
<trkpt lat="52.100802" lon="05.701762"><ele>34.1</ele><time>2021-03-01T10:18:05Z</time><name>PT305</name></trkpt>
<trkpt lat="52.100802" lon="05.701784"><ele>33.9</ele><time>2021-03-01T10:18:06Z</time><name>PT306</name></trkpt>
<trkpt lat="52.100801" lon="05.701808"><ele>33.7</ele><time>2021-03-01T10:18:07Z</time><name>PT307</name></trkpt>
<trkpt lat="52.100801" lon="05.701833"><ele>33.6</ele><time>2021-03-01T10:18:08Z</time><name>PT308</name></trkpt>
<trkpt lat="52.100801" lon="05.701857"><ele>33.4</ele><time>2021-03-01T10:18:09Z</time><name>PT309</name></trkpt>
<trkpt lat="52.100801" lon="05.701875"><ele>33.3</ele><time>2021-03-01T10:18:10Z</time><name>PT310</name></trkpt>
<trkpt lat="52.100799" lon="05.701898"><ele>33.2</ele><time>2021-03-01T10:18:11Z</time><name>PT311</name></trkpt>
<trkpt lat="52.100798" lon="05.701923"><ele>33.2</ele><time>2021-03-01T10:18:12Z</time><name>PT312</name></trkpt>
<trkpt lat="52.100799" lon="05.701948"><ele>33.3</ele><time>2021-03-01T10:18:13Z</time><name>PT313</name></trkpt>
<trkpt lat="52.100802" lon="05.701968"><ele>33.3</ele><time>2021-03-01T10:18:14Z</time><name>PT314</name></trkpt>
<trkpt lat="52.100803" lon="05.701992"><ele>33.3</ele><time>2021-03-01T10:18:15Z</time><name>PT315</name></trkpt>
<trkpt lat="52.100803" lon="05.702018"><ele>33.3</ele><time>2021-03-01T10:18:16Z</time><name>PT316</name></trkpt>
<trkpt lat="52.100803" lon="05.702046"><ele>33.2</ele><time>2021-03-01T10:18:17Z</time><name>PT317</name></trkpt>
<trkpt lat="52.100802" lon="05.702070"><ele>33.1</ele><time>2021-03-01T10:18:18Z</time><name>PT318</name></trkpt>
<trkpt lat="52.100798" lon="05.702097"><ele>33.1</ele><time>2021-03-01T10:18:19Z</time><name>PT319</name></trkpt>
<trkpt lat="52.100799" lon="05.702121"><ele>32.9</ele><time>2021-03-01T10:18:20Z</time><name>PT320</name></trkpt>
<trkpt lat="52.100800" lon="05.702144"><ele>33.2</ele><time>2021-03-01T10:18:21Z</time><name>PT321</name></trkpt>
<trkpt lat="52.100801" lon="05.702168"><ele>33.3</ele><time>2021-03-01T10:18:22Z</time><name>PT322</name></trkpt>
<trkpt lat="52.100802" lon="05.702193"><ele>33.6</ele><time>2021-03-01T10:18:23Z</time><name>PT323</name></trkpt>
<trkpt lat="52.100803" lon="05.702219"><ele>33.6</ele><time>2021-03-01T10:18:24Z</time><name>PT324</name></trkpt>
<trkpt lat="52.100803" lon="05.702245"><ele>33.7</ele><time>2021-03-01T10:18:25Z</time><name>PT325</name></trkpt>
<trkpt lat="52.100804" lon="05.702272"><ele>33.6</ele><time>2021-03-01T10:18:26Z</time><name>PT326</name></trkpt>
<trkpt lat="52.100803" lon="05.702296"><ele>33.4</ele><time>2021-03-01T10:18:27Z</time><name>PT327</name></trkpt>
<trkpt lat="52.100803" lon="05.702320"><ele>33.4</ele><time>2021-03-01T10:18:28Z</time><name>PT328</name></trkpt>
<trkpt lat="52.100804" lon="05.702345"><ele>33.6</ele><time>2021-03-01T10:18:29Z</time><name>PT329</name></trkpt>
<trkpt lat="52.100805" lon="05.702371"><ele>33.5</ele><time>2021-03-01T10:18:30Z</time><name>PT330</name></trkpt>
<trkpt lat="52.100806" lon="05.702393"><ele>33.5</ele><time>2021-03-01T10:18:31Z</time><name>PT331</name></trkpt>
<trkpt lat="52.100805" lon="05.702415"><ele>33.7</ele><time>2021-03-01T10:18:32Z</time><name>PT332</name></trkpt>
<trkpt lat="52.100805" lon="05.702437"><ele>33.6</ele><time>2021-03-01T10:18:33Z</time><name>PT333</name></trkpt>
<trkpt lat="52.100807" lon="05.702462"><ele>33.3</ele><time>2021-03-01T10:18:34Z</time><name>PT334</name></trkpt>
<trkpt lat="52.100807" lon="05.702490"><ele>33.2</ele><time>2021-03-01T10:18:35Z</time><name>PT335</name></trkpt>
<trkpt lat="52.100807" lon="05.702516"><ele>33.1</ele><time>2021-03-01T10:18:36Z</time><name>PT336</name></trkpt>
<trkpt lat="52.100807" lon="05.702537"><ele>33.2</ele><time>2021-03-01T10:18:37Z</time><name>PT337</name></trkpt>
<trkpt lat="52.100808" lon="05.702559"><ele>33.3</ele><time>2021-03-01T10:18:38Z</time><name>PT338</name></trkpt>
<trkpt lat="52.100809" lon="05.702582"><ele>33.2</ele><time>2021-03-01T10:18:39Z</time><name>PT339</name></trkpt>
<trkpt lat="52.100814" lon="05.702606"><ele>33.4</ele><time>2021-03-01T10:18:40Z</time><name>PT340</name></trkpt>
<trkpt lat="52.100816" lon="05.702631"><ele>33.5</ele><time>2021-03-01T10:18:41Z</time><name>PT341</name></trkpt>
<trkpt lat="52.100819" lon="05.702650"><ele>33.4</ele><time>2021-03-01T10:18:42Z</time><name>PT342</name></trkpt>
<trkpt lat="52.100821" lon="05.702661"><ele>33.4</ele><time>2021-03-01T10:18:43Z</time><name>PT343</name></trkpt>
<trkpt lat="52.100822" lon="05.702670"><ele>33.6</ele><time>2021-03-01T10:18:44Z</time><name>PT344</name></trkpt>
<trkpt lat="52.100823" lon="05.702677"><ele>33.7</ele><time>2021-03-01T10:18:45Z</time><name>PT345</name></trkpt>
<trkpt lat="52.100824" lon="05.702688"><ele>33.8</ele><time>2021-03-01T10:18:46Z</time><name>PT346</name></trkpt>
<trkpt lat="52.100830" lon="05.702699"><ele>33.8</ele><time>2021-03-01T10:18:47Z</time><name>PT347</name></trkpt>
<trkpt lat="52.100836" lon="05.702720"><ele>33.7</ele><time>2021-03-01T10:18:48Z</time><name>PT348</name></trkpt>
<trkpt lat="52.100842" lon="05.702741"><ele>33.7</ele><time>2021-03-01T10:18:49Z</time><name>PT349</name></trkpt>
<trkpt lat="52.100849" lon="05.702758"><ele>33.7</ele><time>2021-03-01T10:18:50Z</time><name>PT350</name></trkpt>
<trkpt lat="52.100860" lon="05.702777"><ele>33.7</ele><time>2021-03-01T10:18:51Z</time><name>PT351</name></trkpt>
<trkpt lat="52.100873" lon="05.702799"><ele>33.7</ele><time>2021-03-01T10:18:52Z</time><name>PT352</name></trkpt>
<trkpt lat="52.100883" lon="05.702817"><ele>33.8</ele><time>2021-03-01T10:18:53Z</time><name>PT353</name></trkpt>
<trkpt lat="52.100896" lon="05.702830"><ele>34</ele><time>2021-03-01T10:18:54Z</time><name>PT354</name></trkpt>
<trkpt lat="52.100908" lon="05.702842"><ele>33.9</ele><time>2021-03-01T10:18:55Z</time><name>PT355</name></trkpt>
<trkpt lat="52.100920" lon="05.702849"><ele>33.9</ele><time>2021-03-01T10:18:56Z</time><name>PT356</name></trkpt>
<trkpt lat="52.100931" lon="05.702858"><ele>33.7</ele><time>2021-03-01T10:18:57Z</time><name>PT357</name></trkpt>
<trkpt lat="52.100946" lon="05.702868"><ele>33.5</ele><time>2021-03-01T10:18:58Z</time><name>PT358</name></trkpt>
<trkpt lat="52.100959" lon="05.702876"><ele>33.5</ele><time>2021-03-01T10:18:59Z</time><name>PT359</name></trkpt>
<trkpt lat="52.100976" lon="05.702883"><ele>33.7</ele><time>2021-03-01T10:19:00Z</time><name>PT360</name></trkpt>
<trkpt lat="52.100987" lon="05.702890"><ele>33.6</ele><time>2021-03-01T10:19:01Z</time><name>PT361</name></trkpt>
<trkpt lat="52.100999" lon="05.702898"><ele>33.9</ele><time>2021-03-01T10:19:02Z</time><name>PT362</name></trkpt>
<trkpt lat="52.101013" lon="05.702907"><ele>33.9</ele><time>2021-03-01T10:19:03Z</time><name>PT363</name></trkpt>
<trkpt lat="52.101026" lon="05.702913"><ele>33.9</ele><time>2021-03-01T10:19:04Z</time><name>PT364</name></trkpt>
<trkpt lat="52.101039" lon="05.702919"><ele>33.7</ele><time>2021-03-01T10:19:05Z</time><name>PT365</name></trkpt>
<trkpt lat="52.101050" lon="05.702926"><ele>33.7</ele><time>2021-03-01T10:19:06Z</time><name>PT366</name></trkpt>
<trkpt lat="52.101060" lon="05.702934"><ele>33.7</ele><time>2021-03-01T10:19:07Z</time><name>PT367</name></trkpt>
<trkpt lat="52.101071" lon="05.702942"><ele>34</ele><time>2021-03-01T10:19:08Z</time><name>PT368</name></trkpt>
<trkpt lat="52.101077" lon="05.702952"><ele>33.9</ele><time>2021-03-01T10:19:09Z</time><name>PT369</name></trkpt>
<trkpt lat="52.101080" lon="05.702961"><ele>33.8</ele><time>2021-03-01T10:19:10Z</time><name>PT370</name></trkpt>
<trkpt lat="52.101078" lon="05.702973"><ele>33.9</ele><time>2021-03-01T10:19:11Z</time><name>PT371</name></trkpt>
<trkpt lat="52.101079" lon="05.702989"><ele>34</ele><time>2021-03-01T10:19:12Z</time><name>PT372</name></trkpt>
<trkpt lat="52.101077" lon="05.703003"><ele>33.9</ele><time>2021-03-01T10:19:13Z</time><name>PT373</name></trkpt>
<trkpt lat="52.101079" lon="05.703020"><ele>34</ele><time>2021-03-01T10:19:14Z</time><name>PT374</name></trkpt>
<trkpt lat="52.101080" lon="05.703036"><ele>34.1</ele><time>2021-03-01T10:19:15Z</time><name>PT375</name></trkpt>
<trkpt lat="52.101083" lon="05.703051"><ele>33.7</ele><time>2021-03-01T10:19:16Z</time><name>PT376</name></trkpt>
<trkpt lat="52.101086" lon="05.703059"><ele>33.7</ele><time>2021-03-01T10:19:17Z</time><name>PT377</name></trkpt>
<trkpt lat="52.101086" lon="05.703072"><ele>33.5</ele><time>2021-03-01T10:19:18Z</time><name>PT378</name></trkpt>
<trkpt lat="52.101089" lon="05.703088"><ele>33.4</ele><time>2021-03-01T10:19:19Z</time><name>PT379</name></trkpt>
<trkpt lat="52.101092" lon="05.703103"><ele>33.4</ele><time>2021-03-01T10:19:20Z</time><name>PT380</name></trkpt>
<trkpt lat="52.101098" lon="05.703117"><ele>33.4</ele><time>2021-03-01T10:19:21Z</time><name>PT381</name></trkpt>
<trkpt lat="52.101101" lon="05.703134"><ele>33.3</ele><time>2021-03-01T10:19:22Z</time><name>PT382</name></trkpt>
<trkpt lat="52.101103" lon="05.703152"><ele>33.3</ele><time>2021-03-01T10:19:23Z</time><name>PT383</name></trkpt>
<trkpt lat="52.101103" lon="05.703167"><ele>33.3</ele><time>2021-03-01T10:19:24Z</time><name>PT384</name></trkpt>
<trkpt lat="52.101105" lon="05.703180"><ele>33.3</ele><time>2021-03-01T10:19:25Z</time><name>PT385</name></trkpt>
<trkpt lat="52.101108" lon="05.703193"><ele>33.4</ele><time>2021-03-01T10:19:26Z</time><name>PT386</name></trkpt>
<trkpt lat="52.101106" lon="05.703209"><ele>33.5</ele><time>2021-03-01T10:19:27Z</time><name>PT387</name></trkpt>
<trkpt lat="52.101106" lon="05.703218"><ele>33.6</ele><time>2021-03-01T10:19:28Z</time><name>PT388</name></trkpt>
<trkpt lat="52.101107" lon="05.703238"><ele>33.6</ele><time>2021-03-01T10:19:29Z</time><name>PT389</name></trkpt>
<trkpt lat="52.101106" lon="05.703260"><ele>33.6</ele><time>2021-03-01T10:19:30Z</time><name>PT390</name></trkpt>
<trkpt lat="52.101110" lon="05.703272"><ele>33.4</ele><time>2021-03-01T10:19:31Z</time><name>PT391</name></trkpt>
<trkpt lat="52.101108" lon="05.703289"><ele>33.6</ele><time>2021-03-01T10:19:32Z</time><name>PT392</name></trkpt>
<trkpt lat="52.101108" lon="05.703300"><ele>33.7</ele><time>2021-03-01T10:19:33Z</time><name>PT393</name></trkpt>
<trkpt lat="52.101107" lon="05.703316"><ele>33.7</ele><time>2021-03-01T10:19:34Z</time><name>PT394</name></trkpt>
<trkpt lat="52.101103" lon="05.703334"><ele>33.8</ele><time>2021-03-01T10:19:35Z</time><name>PT395</name></trkpt>
<trkpt lat="52.101104" lon="05.703343"><ele>33.7</ele><time>2021-03-01T10:19:36Z</time><name>PT396</name></trkpt>
<trkpt lat="52.101103" lon="05.703365"><ele>33.7</ele><time>2021-03-01T10:19:37Z</time><name>PT397</name></trkpt>
<trkpt lat="52.101103" lon="05.703374"><ele>33.7</ele><time>2021-03-01T10:19:38Z</time><name>PT398</name></trkpt>
<trkpt lat="52.101102" lon="05.703388"><ele>33.6</ele><time>2021-03-01T10:19:39Z</time><name>PT399</name></trkpt>
<trkpt lat="52.101098" lon="05.703414"><ele>33.6</ele><time>2021-03-01T10:19:40Z</time><name>PT400</name></trkpt>
<trkpt lat="52.101086" lon="05.703440"><ele>33.7</ele><time>2021-03-01T10:19:41Z</time><name>PT401</name></trkpt>
<trkpt lat="52.101084" lon="05.703456"><ele>33.7</ele><time>2021-03-01T10:19:42Z</time><name>PT402</name></trkpt>
<trkpt lat="52.101078" lon="05.703476"><ele>33.7</ele><time>2021-03-01T10:19:43Z</time><name>PT403</name></trkpt>
<trkpt lat="52.101076" lon="05.703490"><ele>33.6</ele><time>2021-03-01T10:19:44Z</time><name>PT404</name></trkpt>
<trkpt lat="52.101072" lon="05.703512"><ele>33.5</ele><time>2021-03-01T10:19:45Z</time><name>PT405</name></trkpt>
<trkpt lat="52.101072" lon="05.703534"><ele>33.3</ele><time>2021-03-01T10:19:46Z</time><name>PT406</name></trkpt>
<trkpt lat="52.101070" lon="05.703556"><ele>33.3</ele><time>2021-03-01T10:19:47Z</time><name>PT407</name></trkpt>
<trkpt lat="52.101064" lon="05.703570"><ele>33.5</ele><time>2021-03-01T10:19:48Z</time><name>PT408</name></trkpt>
<trkpt lat="52.101064" lon="05.703587"><ele>33.5</ele><time>2021-03-01T10:19:49Z</time><name>PT409</name></trkpt>
<trkpt lat="52.101061" lon="05.703619"><ele>33.5</ele><time>2021-03-01T10:19:50Z</time><name>PT410</name></trkpt>
<trkpt lat="52.101055" lon="05.703643"><ele>33.5</ele><time>2021-03-01T10:19:51Z</time><name>PT411</name></trkpt>
<trkpt lat="52.101050" lon="05.703672"><ele>33.5</ele><time>2021-03-01T10:19:52Z</time><name>PT412</name></trkpt>
<trkpt lat="52.101049" lon="05.703694"><ele>33.4</ele><time>2021-03-01T10:19:53Z</time><name>PT413</name></trkpt>
<trkpt lat="52.101046" lon="05.703716"><ele>33.6</ele><time>2021-03-01T10:19:54Z</time><name>PT414</name></trkpt>
<trkpt lat="52.101042" lon="05.703750"><ele>33.6</ele><time>2021-03-01T10:19:55Z</time><name>PT415</name></trkpt>
<trkpt lat="52.101040" lon="05.703781"><ele>33.5</ele><time>2021-03-01T10:19:56Z</time><name>PT416</name></trkpt>
<trkpt lat="52.101038" lon="05.703806"><ele>33.3</ele><time>2021-03-01T10:19:57Z</time><name>PT417</name></trkpt>
<trkpt lat="52.101029" lon="05.703828"><ele>33.3</ele><time>2021-03-01T10:19:58Z</time><name>PT418</name></trkpt>
<trkpt lat="52.101030" lon="05.703843"><ele>33.3</ele><time>2021-03-01T10:19:59Z</time><name>PT419</name></trkpt>
<trkpt lat="52.101032" lon="05.703859"><ele>33.4</ele><time>2021-03-01T10:20:00Z</time><name>PT420</name></trkpt>
<trkpt lat="52.101031" lon="05.703882"><ele>33.6</ele><time>2021-03-01T10:20:01Z</time><name>PT421</name></trkpt>
<trkpt lat="52.101028" lon="05.703909"><ele>33.4</ele><time>2021-03-01T10:20:02Z</time><name>PT422</name></trkpt>
<trkpt lat="52.101023" lon="05.703933"><ele>33.4</ele><time>2021-03-01T10:20:03Z</time><name>PT423</name></trkpt>
<trkpt lat="52.101013" lon="05.703966"><ele>33.4</ele><time>2021-03-01T10:20:04Z</time><name>PT424</name></trkpt>
<trkpt lat="52.101009" lon="05.703987"><ele>33.4</ele><time>2021-03-01T10:20:05Z</time><name>PT425</name></trkpt>
<trkpt lat="52.101004" lon="05.704014"><ele>33.6</ele><time>2021-03-01T10:20:06Z</time><name>PT426</name></trkpt>
<trkpt lat="52.100994" lon="05.704042"><ele>33.8</ele><time>2021-03-01T10:20:07Z</time><name>PT427</name></trkpt>
<trkpt lat="52.100991" lon="05.704063"><ele>33.8</ele><time>2021-03-01T10:20:08Z</time><name>PT428</name></trkpt>
<trkpt lat="52.100988" lon="05.704088"><ele>33.8</ele><time>2021-03-01T10:20:09Z</time><name>PT429</name></trkpt>
<trkpt lat="52.100985" lon="05.704108"><ele>34</ele><time>2021-03-01T10:20:10Z</time><name>PT430</name></trkpt>
<trkpt lat="52.100980" lon="05.704129"><ele>33.8</ele><time>2021-03-01T10:20:11Z</time><name>PT431</name></trkpt>
<trkpt lat="52.100975" lon="05.704158"><ele>33.5</ele><time>2021-03-01T10:20:12Z</time><name>PT432</name></trkpt>
<trkpt lat="52.100974" lon="05.704182"><ele>33.5</ele><time>2021-03-01T10:20:13Z</time><name>PT433</name></trkpt>
<trkpt lat="52.100969" lon="05.704214"><ele>33.4</ele><time>2021-03-01T10:20:14Z</time><name>PT434</name></trkpt>
<trkpt lat="52.100970" lon="05.704241"><ele>33.3</ele><time>2021-03-01T10:20:15Z</time><name>PT435</name></trkpt>
<trkpt lat="52.100971" lon="05.704267"><ele>33.6</ele><time>2021-03-01T10:20:16Z</time><name>PT436</name></trkpt>
<trkpt lat="52.100973" lon="05.704294"><ele>33.6</ele><time>2021-03-01T10:20:17Z</time><name>PT437</name></trkpt>
<trkpt lat="52.100971" lon="05.704325"><ele>33.4</ele><time>2021-03-01T10:20:18Z</time><name>PT438</name></trkpt>
<trkpt lat="52.100968" lon="05.704352"><ele>33.4</ele><time>2021-03-01T10:20:19Z</time><name>PT439</name></trkpt>
<trkpt lat="52.100962" lon="05.704380"><ele>33.3</ele><time>2021-03-01T10:20:20Z</time><name>PT440</name></trkpt>
<trkpt lat="52.100958" lon="05.704407"><ele>33.1</ele><time>2021-03-01T10:20:21Z</time><name>PT441</name></trkpt>
<trkpt lat="52.100949" lon="05.704434"><ele>33.2</ele><time>2021-03-01T10:20:22Z</time><name>PT442</name></trkpt>
<trkpt lat="52.100940" lon="05.704463"><ele>33.2</ele><time>2021-03-01T10:20:23Z</time><name>PT443</name></trkpt>
<trkpt lat="52.100936" lon="05.704490"><ele>33.3</ele><time>2021-03-01T10:20:24Z</time><name>PT444</name></trkpt>
<trkpt lat="52.100931" lon="05.704517"><ele>33.3</ele><time>2021-03-01T10:20:25Z</time><name>PT445</name></trkpt>
<trkpt lat="52.100925" lon="05.704548"><ele>33.3</ele><time>2021-03-01T10:20:26Z</time><name>PT446</name></trkpt>
<trkpt lat="52.100922" lon="05.704579"><ele>33.4</ele><time>2021-03-01T10:20:27Z</time><name>PT447</name></trkpt>
<trkpt lat="52.100920" lon="05.704606"><ele>33.5</ele><time>2021-03-01T10:20:28Z</time><name>PT448</name></trkpt>
<trkpt lat="52.100911" lon="05.704632"><ele>33.3</ele><time>2021-03-01T10:20:29Z</time><name>PT449</name></trkpt>
<trkpt lat="52.100904" lon="05.704663"><ele>33.4</ele><time>2021-03-01T10:20:30Z</time><name>PT450</name></trkpt>
<trkpt lat="52.100900" lon="05.704701"><ele>33.5</ele><time>2021-03-01T10:20:31Z</time><name>PT451</name></trkpt>
<trkpt lat="52.100890" lon="05.704744"><ele>33.3</ele><time>2021-03-01T10:20:32Z</time><name>PT452</name></trkpt>
<trkpt lat="52.100883" lon="05.704783"><ele>33.3</ele><time>2021-03-01T10:20:33Z</time><name>PT453</name></trkpt>
<trkpt lat="52.100879" lon="05.704819"><ele>33.4</ele><time>2021-03-01T10:20:34Z</time><name>PT454</name></trkpt>
<trkpt lat="52.100877" lon="05.704851"><ele>33.3</ele><time>2021-03-01T10:20:35Z</time><name>PT455</name></trkpt>
<trkpt lat="52.100873" lon="05.704883"><ele>33.2</ele><time>2021-03-01T10:20:36Z</time><name>PT456</name></trkpt>
<trkpt lat="52.100872" lon="05.704913"><ele>33.2</ele><time>2021-03-01T10:20:37Z</time><name>PT457</name></trkpt>
<trkpt lat="52.100869" lon="05.704944"><ele>33.2</ele><time>2021-03-01T10:20:38Z</time><name>PT458</name></trkpt>
<trkpt lat="52.100868" lon="05.704975"><ele>33.3</ele><time>2021-03-01T10:20:39Z</time><name>PT459</name></trkpt>
<trkpt lat="52.100868" lon="05.705007"><ele>33.3</ele><time>2021-03-01T10:20:40Z</time><name>PT460</name></trkpt>
<trkpt lat="52.100866" lon="05.705035"><ele>33.4</ele><time>2021-03-01T10:20:41Z</time><name>PT461</name></trkpt>
<trkpt lat="52.100865" lon="05.705059"><ele>33.5</ele><time>2021-03-01T10:20:42Z</time><name>PT462</name></trkpt>
<trkpt lat="52.100864" lon="05.705083"><ele>33.3</ele><time>2021-03-01T10:20:43Z</time><name>PT463</name></trkpt>
<trkpt lat="52.100863" lon="05.705110"><ele>33.2</ele><time>2021-03-01T10:20:44Z</time><name>PT464</name></trkpt>
<trkpt lat="52.100858" lon="05.705138"><ele>33</ele><time>2021-03-01T10:20:45Z</time><name>PT465</name></trkpt>
<trkpt lat="52.100854" lon="05.705167"><ele>33.1</ele><time>2021-03-01T10:20:46Z</time><name>PT466</name></trkpt>
<trkpt lat="52.100855" lon="05.705191"><ele>33</ele><time>2021-03-01T10:20:47Z</time><name>PT467</name></trkpt>
<trkpt lat="52.100854" lon="05.705221"><ele>33.2</ele><time>2021-03-01T10:20:48Z</time><name>PT468</name></trkpt>
<trkpt lat="52.100853" lon="05.705247"><ele>33.3</ele><time>2021-03-01T10:20:49Z</time><name>PT469</name></trkpt>
<trkpt lat="52.100851" lon="05.705271"><ele>33.3</ele><time>2021-03-01T10:20:50Z</time><name>PT470</name></trkpt>
<trkpt lat="52.100850" lon="05.705296"><ele>33.3</ele><time>2021-03-01T10:20:51Z</time><name>PT471</name></trkpt>
<trkpt lat="52.100848" lon="05.705321"><ele>33.3</ele><time>2021-03-01T10:20:52Z</time><name>PT472</name></trkpt>
<trkpt lat="52.100847" lon="05.705345"><ele>33.3</ele><time>2021-03-01T10:20:53Z</time><name>PT473</name></trkpt>
<trkpt lat="52.100846" lon="05.705370"><ele>33.3</ele><time>2021-03-01T10:20:54Z</time><name>PT474</name></trkpt>
<trkpt lat="52.100845" lon="05.705396"><ele>33.3</ele><time>2021-03-01T10:20:55Z</time><name>PT475</name></trkpt>
<trkpt lat="52.100844" lon="05.705423"><ele>33.3</ele><time>2021-03-01T10:20:56Z</time><name>PT476</name></trkpt>
<trkpt lat="52.100843" lon="05.705450"><ele>33.3</ele><time>2021-03-01T10:20:57Z</time><name>PT477</name></trkpt>
<trkpt lat="52.100842" lon="05.705478"><ele>33.2</ele><time>2021-03-01T10:20:58Z</time><name>PT478</name></trkpt>
<trkpt lat="52.100837" lon="05.705503"><ele>33</ele><time>2021-03-01T10:20:59Z</time><name>PT479</name></trkpt>
<trkpt lat="52.100835" lon="05.705530"><ele>33.2</ele><time>2021-03-01T10:21:00Z</time><name>PT480</name></trkpt>
<trkpt lat="52.100834" lon="05.705558"><ele>33.3</ele><time>2021-03-01T10:21:01Z</time><name>PT481</name></trkpt>
<trkpt lat="52.100833" lon="05.705586"><ele>33.3</ele><time>2021-03-01T10:21:02Z</time><name>PT482</name></trkpt>
<trkpt lat="52.100829" lon="05.705613"><ele>33.4</ele><time>2021-03-01T10:21:03Z</time><name>PT483</name></trkpt>
<trkpt lat="52.100827" lon="05.705642"><ele>33.5</ele><time>2021-03-01T10:21:04Z</time><name>PT484</name></trkpt>
<trkpt lat="52.100823" lon="05.705675"><ele>33.3</ele><time>2021-03-01T10:21:05Z</time><name>PT485</name></trkpt>
<trkpt lat="52.100819" lon="05.705701"><ele>33.1</ele><time>2021-03-01T10:21:06Z</time><name>PT486</name></trkpt>
<trkpt lat="52.100814" lon="05.705730"><ele>33</ele><time>2021-03-01T10:21:07Z</time><name>PT487</name></trkpt>
<trkpt lat="52.100810" lon="05.705761"><ele>33</ele><time>2021-03-01T10:21:08Z</time><name>PT488</name></trkpt>
<trkpt lat="52.100809" lon="05.705789"><ele>32.9</ele><time>2021-03-01T10:21:09Z</time><name>PT489</name></trkpt>
<trkpt lat="52.100808" lon="05.705817"><ele>33</ele><time>2021-03-01T10:21:10Z</time><name>PT490</name></trkpt>
<trkpt lat="52.100807" lon="05.705842"><ele>33.2</ele><time>2021-03-01T10:21:11Z</time><name>PT491</name></trkpt>
<trkpt lat="52.100807" lon="05.705871"><ele>33.1</ele><time>2021-03-01T10:21:12Z</time><name>PT492</name></trkpt>
<trkpt lat="52.100806" lon="05.705899"><ele>33</ele><time>2021-03-01T10:21:13Z</time><name>PT493</name></trkpt>
<trkpt lat="52.100803" lon="05.705928"><ele>33.3</ele><time>2021-03-01T10:21:14Z</time><name>PT494</name></trkpt>
<trkpt lat="52.100801" lon="05.705953"><ele>33.5</ele><time>2021-03-01T10:21:15Z</time><name>PT495</name></trkpt>
<trkpt lat="52.100800" lon="05.705983"><ele>33.4</ele><time>2021-03-01T10:21:16Z</time><name>PT496</name></trkpt>
<trkpt lat="52.100799" lon="05.706013"><ele>33.6</ele><time>2021-03-01T10:21:17Z</time><name>PT497</name></trkpt>
<trkpt lat="52.100797" lon="05.706039"><ele>33.7</ele><time>2021-03-01T10:21:18Z</time><name>PT498</name></trkpt>
<trkpt lat="52.100796" lon="05.706067"><ele>33.6</ele><time>2021-03-01T10:21:19Z</time><name>PT499</name></trkpt>
<trkpt lat="52.100795" lon="05.706096"><ele>33.5</ele><time>2021-03-01T10:21:20Z</time><name>PT500</name></trkpt>
<trkpt lat="52.100795" lon="05.706124"><ele>33.3</ele><time>2021-03-01T10:21:21Z</time><name>PT501</name></trkpt>
<trkpt lat="52.100794" lon="05.706151"><ele>33.4</ele><time>2021-03-01T10:21:22Z</time><name>PT502</name></trkpt>
<trkpt lat="52.100793" lon="05.706176"><ele>33.5</ele><time>2021-03-01T10:21:23Z</time><name>PT503</name></trkpt>
<trkpt lat="52.100790" lon="05.706201"><ele>33.5</ele><time>2021-03-01T10:21:24Z</time><name>PT504</name></trkpt>
<trkpt lat="52.100789" lon="05.706230"><ele>33.7</ele><time>2021-03-01T10:21:25Z</time><name>PT505</name></trkpt>
<trkpt lat="52.100788" lon="05.706257"><ele>33.9</ele><time>2021-03-01T10:21:26Z</time><name>PT506</name></trkpt>
<trkpt lat="52.100787" lon="05.706281"><ele>33.8</ele><time>2021-03-01T10:21:27Z</time><name>PT507</name></trkpt>
<trkpt lat="52.100788" lon="05.706308"><ele>33.7</ele><time>2021-03-01T10:21:28Z</time><name>PT508</name></trkpt>
<trkpt lat="52.100787" lon="05.706336"><ele>33.6</ele><time>2021-03-01T10:21:29Z</time><name>PT509</name></trkpt>
<trkpt lat="52.100787" lon="05.706363"><ele>33.3</ele><time>2021-03-01T10:21:31Z</time><name>PT510</name></trkpt>
<trkpt lat="52.100785" lon="05.706391"><ele>33.2</ele><time>2021-03-01T10:21:31Z</time><name>PT511</name></trkpt>
<trkpt lat="52.100784" lon="05.706416"><ele>33.1</ele><time>2021-03-01T10:21:32Z</time><name>PT512</name></trkpt>
<trkpt lat="52.100784" lon="05.706441"><ele>33.2</ele><time>2021-03-01T10:21:33Z</time><name>PT513</name></trkpt>
<trkpt lat="52.100782" lon="05.706465"><ele>33.1</ele><time>2021-03-01T10:21:34Z</time><name>PT514</name></trkpt>
<trkpt lat="52.100781" lon="05.706493"><ele>33.3</ele><time>2021-03-01T10:21:35Z</time><name>PT515</name></trkpt>
<trkpt lat="52.100781" lon="05.706520"><ele>33.3</ele><time>2021-03-01T10:21:36Z</time><name>PT516</name></trkpt>
<trkpt lat="52.100779" lon="05.706547"><ele>33.3</ele><time>2021-03-01T10:21:37Z</time><name>PT517</name></trkpt>
<trkpt lat="52.100777" lon="05.706574"><ele>33.3</ele><time>2021-03-01T10:21:38Z</time><name>PT518</name></trkpt>
<trkpt lat="52.100776" lon="05.706599"><ele>33.4</ele><time>2021-03-01T10:21:39Z</time><name>PT519</name></trkpt>
<trkpt lat="52.100777" lon="05.706628"><ele>33.3</ele><time>2021-03-01T10:21:40Z</time><name>PT520</name></trkpt>
<trkpt lat="52.100776" lon="05.706654"><ele>33.3</ele><time>2021-03-01T10:21:41Z</time><name>PT521</name></trkpt>
<trkpt lat="52.100775" lon="05.706679"><ele>33.3</ele><time>2021-03-01T10:21:42Z</time><name>PT522</name></trkpt>
<trkpt lat="52.100773" lon="05.706703"><ele>33.3</ele><time>2021-03-01T10:21:43Z</time><name>PT523</name></trkpt>
<trkpt lat="52.100769" lon="05.706725"><ele>33.2</ele><time>2021-03-01T10:21:44Z</time><name>PT524</name></trkpt>
<trkpt lat="52.100765" lon="05.706748"><ele>33.2</ele><time>2021-03-01T10:21:45Z</time><name>PT525</name></trkpt>
<trkpt lat="52.100763" lon="05.706775"><ele>33.2</ele><time>2021-03-01T10:21:46Z</time><name>PT526</name></trkpt>
<trkpt lat="52.100760" lon="05.706802"><ele>33.3</ele><time>2021-03-01T10:21:47Z</time><name>PT527</name></trkpt>
<trkpt lat="52.100756" lon="05.706826"><ele>33.3</ele><time>2021-03-01T10:21:48Z</time><name>PT528</name></trkpt>
<trkpt lat="52.100753" lon="05.706851"><ele>33.3</ele><time>2021-03-01T10:21:49Z</time><name>PT529</name></trkpt>
<trkpt lat="52.100750" lon="05.706875"><ele>33.2</ele><time>2021-03-01T10:21:50Z</time><name>PT530</name></trkpt>
<trkpt lat="52.100747" lon="05.706901"><ele>33.3</ele><time>2021-03-01T10:21:51Z</time><name>PT531</name></trkpt>
<trkpt lat="52.100746" lon="05.706925"><ele>33.1</ele><time>2021-03-01T10:21:52Z</time><name>PT532</name></trkpt>
<trkpt lat="52.100741" lon="05.706946"><ele>33.2</ele><time>2021-03-01T10:21:53Z</time><name>PT533</name></trkpt>
<trkpt lat="52.100737" lon="05.706969"><ele>33.3</ele><time>2021-03-01T10:21:54Z</time><name>PT534</name></trkpt>
<trkpt lat="52.100734" lon="05.706993"><ele>33.3</ele><time>2021-03-01T10:21:55Z</time><name>PT535</name></trkpt>
<trkpt lat="52.100731" lon="05.707016"><ele>33.1</ele><time>2021-03-01T10:21:56Z</time><name>PT536</name></trkpt>
<trkpt lat="52.100726" lon="05.707038"><ele>33.2</ele><time>2021-03-01T10:21:57Z</time><name>PT537</name></trkpt>
<trkpt lat="52.100723" lon="05.707063"><ele>32.9</ele><time>2021-03-01T10:21:58Z</time><name>PT538</name></trkpt>
<trkpt lat="52.100723" lon="05.707089"><ele>33</ele><time>2021-03-01T10:21:59Z</time><name>PT539</name></trkpt>
<trkpt lat="52.100723" lon="05.707112"><ele>33.3</ele><time>2021-03-01T10:22:00Z</time><name>PT540</name></trkpt>
<trkpt lat="52.100725" lon="05.707132"><ele>33.4</ele><time>2021-03-01T10:22:01Z</time><name>PT541</name></trkpt>
<trkpt lat="52.100729" lon="05.707158"><ele>33.3</ele><time>2021-03-01T10:22:02Z</time><name>PT542</name></trkpt>
<trkpt lat="52.100732" lon="05.707182"><ele>33.3</ele><time>2021-03-01T10:22:03Z</time><name>PT543</name></trkpt>
<trkpt lat="52.100735" lon="05.707209"><ele>33.2</ele><time>2021-03-01T10:22:04Z</time><name>PT544</name></trkpt>
<trkpt lat="52.100735" lon="05.707235"><ele>33.3</ele><time>2021-03-01T10:22:05Z</time><name>PT545</name></trkpt>
<trkpt lat="52.100734" lon="05.707263"><ele>33.3</ele><time>2021-03-01T10:22:06Z</time><name>PT546</name></trkpt>
<trkpt lat="52.100733" lon="05.707291"><ele>33.4</ele><time>2021-03-01T10:22:07Z</time><name>PT547</name></trkpt>
<trkpt lat="52.100731" lon="05.707316"><ele>33.7</ele><time>2021-03-01T10:22:08Z</time><name>PT548</name></trkpt>
<trkpt lat="52.100731" lon="05.707341"><ele>33.6</ele><time>2021-03-01T10:22:09Z</time><name>PT549</name></trkpt>
<trkpt lat="52.100730" lon="05.707373"><ele>33.6</ele><time>2021-03-01T10:22:10Z</time><name>PT550</name></trkpt>
<trkpt lat="52.100728" lon="05.707399"><ele>33.6</ele><time>2021-03-01T10:22:11Z</time><name>PT551</name></trkpt>
<trkpt lat="52.100727" lon="05.707424"><ele>33.5</ele><time>2021-03-01T10:22:12Z</time><name>PT552</name></trkpt>
<trkpt lat="52.100725" lon="05.707448"><ele>33.3</ele><time>2021-03-01T10:22:13Z</time><name>PT553</name></trkpt>
<trkpt lat="52.100725" lon="05.707473"><ele>33.5</ele><time>2021-03-01T10:22:14Z</time><name>PT554</name></trkpt>
<trkpt lat="52.100725" lon="05.707496"><ele>33.3</ele><time>2021-03-01T10:22:15Z</time><name>PT555</name></trkpt>
<trkpt lat="52.100725" lon="05.707519"><ele>33.4</ele><time>2021-03-01T10:22:16Z</time><name>PT556</name></trkpt>
<trkpt lat="52.100723" lon="05.707541"><ele>33.5</ele><time>2021-03-01T10:22:17Z</time><name>PT557</name></trkpt>
<trkpt lat="52.100724" lon="05.707562"><ele>33.5</ele><time>2021-03-01T10:22:18Z</time><name>PT558</name></trkpt>
<trkpt lat="52.100723" lon="05.707584"><ele>33.5</ele><time>2021-03-01T10:22:19Z</time><name>PT559</name></trkpt>
<trkpt lat="52.100725" lon="05.707605"><ele>33.7</ele><time>2021-03-01T10:22:20Z</time><name>PT560</name></trkpt>
<trkpt lat="52.100726" lon="05.707625"><ele>33.6</ele><time>2021-03-01T10:22:21Z</time><name>PT561</name></trkpt>
<trkpt lat="52.100731" lon="05.707645"><ele>33.6</ele><time>2021-03-01T10:22:22Z</time><name>PT562</name></trkpt>
<trkpt lat="52.100737" lon="05.707669"><ele>33.7</ele><time>2021-03-01T10:22:23Z</time><name>PT563</name></trkpt>
<trkpt lat="52.100742" lon="05.707692"><ele>33.7</ele><time>2021-03-01T10:22:24Z</time><name>PT564</name></trkpt>
<trkpt lat="52.100748" lon="05.707717"><ele>33.6</ele><time>2021-03-01T10:22:25Z</time><name>PT565</name></trkpt>
<trkpt lat="52.100753" lon="05.707741"><ele>33.4</ele><time>2021-03-01T10:22:26Z</time><name>PT566</name></trkpt>
<trkpt lat="52.100759" lon="05.707765"><ele>33.3</ele><time>2021-03-01T10:22:27Z</time><name>PT567</name></trkpt>
<trkpt lat="52.100765" lon="05.707786"><ele>33.4</ele><time>2021-03-01T10:22:28Z</time><name>PT568</name></trkpt>
<trkpt lat="52.100771" lon="05.707810"><ele>33.4</ele><time>2021-03-01T10:22:29Z</time><name>PT569</name></trkpt>
<trkpt lat="52.100777" lon="05.707833"><ele>33.6</ele><time>2021-03-01T10:22:30Z</time><name>PT570</name></trkpt>
<trkpt lat="52.100784" lon="05.707855"><ele>33.7</ele><time>2021-03-01T10:22:31Z</time><name>PT571</name></trkpt>
<trkpt lat="52.100790" lon="05.707878"><ele>33.7</ele><time>2021-03-01T10:22:32Z</time><name>PT572</name></trkpt>
<trkpt lat="52.100796" lon="05.707901"><ele>33.7</ele><time>2021-03-01T10:22:33Z</time><name>PT573</name></trkpt>
<trkpt lat="52.100802" lon="05.707923"><ele>33.7</ele><time>2021-03-01T10:22:34Z</time><name>PT574</name></trkpt>
<trkpt lat="52.100809" lon="05.707944"><ele>33.5</ele><time>2021-03-01T10:22:35Z</time><name>PT575</name></trkpt>
<trkpt lat="52.100818" lon="05.707964"><ele>33.5</ele><time>2021-03-01T10:22:36Z</time><name>PT576</name></trkpt>
<trkpt lat="52.100827" lon="05.707983"><ele>33.6</ele><time>2021-03-01T10:22:37Z</time><name>PT577</name></trkpt>
<trkpt lat="52.100833" lon="05.708003"><ele>33.5</ele><time>2021-03-01T10:22:38Z</time><name>PT578</name></trkpt>
<trkpt lat="52.100842" lon="05.708022"><ele>33.5</ele><time>2021-03-01T10:22:39Z</time><name>PT579</name></trkpt>
<trkpt lat="52.100847" lon="05.708041"><ele>33.6</ele><time>2021-03-01T10:22:40Z</time><name>PT580</name></trkpt>
<trkpt lat="52.100852" lon="05.708056"><ele>33.6</ele><time>2021-03-01T10:22:41Z</time><name>PT581</name></trkpt>
<trkpt lat="52.100853" lon="05.708071"><ele>33.7</ele><time>2021-03-01T10:22:42Z</time><name>PT582</name></trkpt>
<trkpt lat="52.100856" lon="05.708088"><ele>33.7</ele><time>2021-03-01T10:22:43Z</time><name>PT583</name></trkpt>
<trkpt lat="52.100857" lon="05.708108"><ele>33.7</ele><time>2021-03-01T10:22:44Z</time><name>PT584</name></trkpt>
<trkpt lat="52.100856" lon="05.708124"><ele>33.7</ele><time>2021-03-01T10:22:45Z</time><name>PT585</name></trkpt>
<trkpt lat="52.100856" lon="05.708140"><ele>33.7</ele><time>2021-03-01T10:22:46Z</time><name>PT586</name></trkpt>
<trkpt lat="52.100855" lon="05.708154"><ele>33.6</ele><time>2021-03-01T10:22:47Z</time><name>PT587</name></trkpt>
<trkpt lat="52.100850" lon="05.708165"><ele>33.4</ele><time>2021-03-01T10:22:48Z</time><name>PT588</name></trkpt>
<trkpt lat="52.100846" lon="05.708179"><ele>33.4</ele><time>2021-03-01T10:22:49Z</time><name>PT589</name></trkpt>
<trkpt lat="52.100844" lon="05.708194"><ele>33.3</ele><time>2021-03-01T10:22:50Z</time><name>PT590</name></trkpt>
<trkpt lat="52.100842" lon="05.708211"><ele>33.3</ele><time>2021-03-01T10:22:51Z</time><name>PT591</name></trkpt>
<trkpt lat="52.100837" lon="05.708221"><ele>33.3</ele><time>2021-03-01T10:22:52Z</time><name>PT592</name></trkpt>
<trkpt lat="52.100832" lon="05.708235"><ele>33.3</ele><time>2021-03-01T10:22:53Z</time><name>PT593</name></trkpt>
<trkpt lat="52.100829" lon="05.708247"><ele>33.3</ele><time>2021-03-01T10:22:54Z</time><name>PT594</name></trkpt>
<trkpt lat="52.100825" lon="05.708260"><ele>33.5</ele><time>2021-03-01T10:22:55Z</time><name>PT595</name></trkpt>
<trkpt lat="52.100821" lon="05.708274"><ele>33.6</ele><time>2021-03-01T10:22:56Z</time><name>PT596</name></trkpt>
<trkpt lat="52.100822" lon="05.708290"><ele>33.7</ele><time>2021-03-01T10:22:57Z</time><name>PT597</name></trkpt>
<trkpt lat="52.100821" lon="05.708312"><ele>33.7</ele><time>2021-03-01T10:22:58Z</time><name>PT598</name></trkpt>
<trkpt lat="52.100822" lon="05.708325"><ele>33.6</ele><time>2021-03-01T10:22:59Z</time><name>PT599</name></trkpt>
<trkpt lat="52.100819" lon="05.708337"><ele>33.4</ele><time>2021-03-01T10:23:00Z</time><name>PT600</name></trkpt>
<trkpt lat="52.100818" lon="05.708346"><ele>33.5</ele><time>2021-03-01T10:23:01Z</time><name>PT601</name></trkpt>
<trkpt lat="52.100818" lon="05.708348"><ele>33.5</ele><time>2021-03-01T10:23:02Z</time><name>PT602</name></trkpt>
<trkpt lat="52.100813" lon="05.708362"><ele>33.4</ele><time>2021-03-01T10:23:03Z</time><name>PT603</name></trkpt>
<trkpt lat="52.100814" lon="05.708365"><ele>33.6</ele><time>2021-03-01T10:23:04Z</time><name>PT604</name></trkpt>
<trkpt lat="52.100816" lon="05.708366"><ele>33.7</ele><time>2021-03-01T10:23:05Z</time><name>PT605</name></trkpt>
<trkpt lat="52.100816" lon="05.708369"><ele>33.8</ele><time>2021-03-01T10:23:06Z</time><name>PT606</name></trkpt>
<trkpt lat="52.100816" lon="05.708375"><ele>33.8</ele><time>2021-03-01T10:23:07Z</time><name>PT607</name></trkpt>
<trkpt lat="52.100817" lon="05.708383"><ele>33.8</ele><time>2021-03-01T10:23:08Z</time><name>PT608</name></trkpt>
<trkpt lat="52.100814" lon="05.708398"><ele>33.7</ele><time>2021-03-01T10:23:09Z</time><name>PT609</name></trkpt>
<trkpt lat="52.100813" lon="05.708407"><ele>33.6</ele><time>2021-03-01T10:23:10Z</time><name>PT610</name></trkpt>
<trkpt lat="52.100814" lon="05.708415"><ele>33.5</ele><time>2021-03-01T10:23:11Z</time><name>PT611</name></trkpt>
<trkpt lat="52.100811" lon="05.708423"><ele>33.4</ele><time>2021-03-01T10:23:12Z</time><name>PT612</name></trkpt>
<trkpt lat="52.100807" lon="05.708434"><ele>33.3</ele><time>2021-03-01T10:23:13Z</time><name>PT613</name></trkpt>
<trkpt lat="52.100804" lon="05.708451"><ele>33.3</ele><time>2021-03-01T10:23:14Z</time><name>PT614</name></trkpt>
<trkpt lat="52.100802" lon="05.708468"><ele>33.3</ele><time>2021-03-01T10:23:15Z</time><name>PT615</name></trkpt>
<trkpt lat="52.100802" lon="05.708481"><ele>33.1</ele><time>2021-03-01T10:23:16Z</time><name>PT616</name></trkpt>
<trkpt lat="52.100800" lon="05.708493"><ele>33.1</ele><time>2021-03-01T10:23:17Z</time><name>PT617</name></trkpt>
<trkpt lat="52.100797" lon="05.708508"><ele>33.2</ele><time>2021-03-01T10:23:18Z</time><name>PT618</name></trkpt>
<trkpt lat="52.100796" lon="05.708523"><ele>33.2</ele><time>2021-03-01T10:23:19Z</time><name>PT619</name></trkpt>
<trkpt lat="52.100804" lon="05.708533"><ele>33.2</ele><time>2021-03-01T10:23:20Z</time><name>PT620</name></trkpt>
<trkpt lat="52.100805" lon="05.708547"><ele>33.3</ele><time>2021-03-01T10:23:21Z</time><name>PT621</name></trkpt>
<trkpt lat="52.100800" lon="05.708572"><ele>33.3</ele><time>2021-03-01T10:23:22Z</time><name>PT622</name></trkpt>
<trkpt lat="52.100801" lon="05.708585"><ele>33.4</ele><time>2021-03-01T10:23:23Z</time><name>PT623</name></trkpt>
<trkpt lat="52.100806" lon="05.708591"><ele>33.5</ele><time>2021-03-01T10:23:24Z</time><name>PT624</name></trkpt>
<trkpt lat="52.100796" lon="05.708626"><ele>33.7</ele><time>2021-03-01T10:23:25Z</time><name>PT625</name></trkpt>
<trkpt lat="52.100799" lon="05.708646"><ele>33.6</ele><time>2021-03-01T10:23:26Z</time><name>PT626</name></trkpt>
<trkpt lat="52.100796" lon="05.708671"><ele>33.7</ele><time>2021-03-01T10:23:27Z</time><name>PT627</name></trkpt>
<trkpt lat="52.100796" lon="05.708682"><ele>33.5</ele><time>2021-03-01T10:23:28Z</time><name>PT628</name></trkpt>
<trkpt lat="52.100788" lon="05.708704"><ele>33.4</ele><time>2021-03-01T10:23:29Z</time><name>PT629</name></trkpt>
<trkpt lat="52.100783" lon="05.708729"><ele>33.4</ele><time>2021-03-01T10:23:30Z</time><name>PT630</name></trkpt>
<trkpt lat="52.100778" lon="05.708759"><ele>33.3</ele><time>2021-03-01T10:23:31Z</time><name>PT631</name></trkpt>
<trkpt lat="52.100779" lon="05.708772"><ele>33.2</ele><time>2021-03-01T10:23:32Z</time><name>PT632</name></trkpt>
<trkpt lat="52.100776" lon="05.708794"><ele>33.3</ele><time>2021-03-01T10:23:33Z</time><name>PT633</name></trkpt>
<trkpt lat="52.100774" lon="05.708808"><ele>33.2</ele><time>2021-03-01T10:23:34Z</time><name>PT634</name></trkpt>
<trkpt lat="52.100779" lon="05.708820"><ele>33.2</ele><time>2021-03-01T10:23:35Z</time><name>PT635</name></trkpt>
<trkpt lat="52.100775" lon="05.708841"><ele>33.3</ele><time>2021-03-01T10:23:36Z</time><name>PT636</name></trkpt>
<trkpt lat="52.100770" lon="05.708865"><ele>33.3</ele><time>2021-03-01T10:23:37Z</time><name>PT637</name></trkpt>
<trkpt lat="52.100768" lon="05.708881"><ele>33.3</ele><time>2021-03-01T10:23:38Z</time><name>PT638</name></trkpt>
<trkpt lat="52.100764" lon="05.708903"><ele>33.3</ele><time>2021-03-01T10:23:39Z</time><name>PT639</name></trkpt>
<trkpt lat="52.100758" lon="05.708920"><ele>33.4</ele><time>2021-03-01T10:23:40Z</time><name>PT640</name></trkpt>
<trkpt lat="52.100754" lon="05.708941"><ele>33.4</ele><time>2021-03-01T10:23:41Z</time><name>PT641</name></trkpt>
<trkpt lat="52.100748" lon="05.708965"><ele>33.3</ele><time>2021-03-01T10:23:42Z</time><name>PT642</name></trkpt>
<trkpt lat="52.100742" lon="05.708989"><ele>33.3</ele><time>2021-03-01T10:23:43Z</time><name>PT643</name></trkpt>
<trkpt lat="52.100738" lon="05.709004"><ele>33.4</ele><time>2021-03-01T10:23:44Z</time><name>PT644</name></trkpt>
<trkpt lat="52.100726" lon="05.709041"><ele>33.3</ele><time>2021-03-01T10:23:45Z</time><name>PT645</name></trkpt>
<trkpt lat="52.100709" lon="05.709074"><ele>33.3</ele><time>2021-03-01T10:23:46Z</time><name>PT646</name></trkpt>
<trkpt lat="52.100695" lon="05.709112"><ele>33.3</ele><time>2021-03-01T10:23:47Z</time><name>PT647</name></trkpt>
<trkpt lat="52.100690" lon="05.709137"><ele>33.1</ele><time>2021-03-01T10:23:48Z</time><name>PT648</name></trkpt>
<trkpt lat="52.100677" lon="05.709170"><ele>33.2</ele><time>2021-03-01T10:23:49Z</time><name>PT649</name></trkpt>
<trkpt lat="52.100669" lon="05.709200"><ele>33.3</ele><time>2021-03-01T10:23:50Z</time><name>PT650</name></trkpt>
<trkpt lat="52.100658" lon="05.709235"><ele>33.2</ele><time>2021-03-01T10:23:51Z</time><name>PT651</name></trkpt>
<trkpt lat="52.100635" lon="05.709274"><ele>33.2</ele><time>2021-03-01T10:23:52Z</time><name>PT652</name></trkpt>
<trkpt lat="52.100623" lon="05.709301"><ele>33.3</ele><time>2021-03-01T10:23:53Z</time><name>PT653</name></trkpt>
<trkpt lat="52.100612" lon="05.709328"><ele>33.3</ele><time>2021-03-01T10:23:54Z</time><name>PT654</name></trkpt>
<trkpt lat="52.100604" lon="05.709343"><ele>33.3</ele><time>2021-03-01T10:23:55Z</time><name>PT655</name></trkpt>
<trkpt lat="52.100590" lon="05.709359"><ele>33.3</ele><time>2021-03-01T10:23:56Z</time><name>PT656</name></trkpt>
<trkpt lat="52.100567" lon="05.709384"><ele>33.4</ele><time>2021-03-01T10:23:57Z</time><name>PT657</name></trkpt>
<trkpt lat="52.100548" lon="05.709403"><ele>33.4</ele><time>2021-03-01T10:23:58Z</time><name>PT658</name></trkpt>
<trkpt lat="52.100534" lon="05.709420"><ele>33.6</ele><time>2021-03-01T10:23:59Z</time><name>PT659</name></trkpt>
<trkpt lat="52.100520" lon="05.709440"><ele>33.7</ele><time>2021-03-01T10:24:00Z</time><name>PT660</name></trkpt>
<trkpt lat="52.100506" lon="05.709466"><ele>33.7</ele><time>2021-03-01T10:24:01Z</time><name>PT661</name></trkpt>
<trkpt lat="52.100490" lon="05.709496"><ele>33.7</ele><time>2021-03-01T10:24:02Z</time><name>PT662</name></trkpt>
<trkpt lat="52.100476" lon="05.709518"><ele>33.7</ele><time>2021-03-01T10:24:03Z</time><name>PT663</name></trkpt>
<trkpt lat="52.100461" lon="05.709548"><ele>33.7</ele><time>2021-03-01T10:24:04Z</time><name>PT664</name></trkpt>
<trkpt lat="52.100447" lon="05.709573"><ele>33.7</ele><time>2021-03-01T10:24:05Z</time><name>PT665</name></trkpt>
<trkpt lat="52.100434" lon="05.709597"><ele>33.6</ele><time>2021-03-01T10:24:06Z</time><name>PT666</name></trkpt>
<trkpt lat="52.100423" lon="05.709620"><ele>33.4</ele><time>2021-03-01T10:24:07Z</time><name>PT667</name></trkpt>
<trkpt lat="52.100417" lon="05.709647"><ele>33.4</ele><time>2021-03-01T10:24:08Z</time><name>PT668</name></trkpt>
<trkpt lat="52.100412" lon="05.709670"><ele>33.4</ele><time>2021-03-01T10:24:09Z</time><name>PT669</name></trkpt>
<trkpt lat="52.100405" lon="05.709694"><ele>33.3</ele><time>2021-03-01T10:24:10Z</time><name>PT670</name></trkpt>
<trkpt lat="52.100399" lon="05.709720"><ele>33.2</ele><time>2021-03-01T10:24:11Z</time><name>PT671</name></trkpt>
<trkpt lat="52.100398" lon="05.709746"><ele>33.3</ele><time>2021-03-01T10:24:12Z</time><name>PT672</name></trkpt>
<trkpt lat="52.100398" lon="05.709769"><ele>33.1</ele><time>2021-03-01T10:24:13Z</time><name>PT673</name></trkpt>
<trkpt lat="52.100393" lon="05.709794"><ele>33</ele><time>2021-03-01T10:24:14Z</time><name>PT674</name></trkpt>
<trkpt lat="52.100387" lon="05.709825"><ele>33.1</ele><time>2021-03-01T10:24:15Z</time><name>PT675</name></trkpt>
<trkpt lat="52.100384" lon="05.709846"><ele>33.3</ele><time>2021-03-01T10:24:16Z</time><name>PT676</name></trkpt>
<trkpt lat="52.100386" lon="05.709861"><ele>33.3</ele><time>2021-03-01T10:24:17Z</time><name>PT677</name></trkpt>
<trkpt lat="52.100384" lon="05.709881"><ele>33.3</ele><time>2021-03-01T10:24:18Z</time><name>PT678</name></trkpt>
<trkpt lat="52.100382" lon="05.709904"><ele>33.4</ele><time>2021-03-01T10:24:19Z</time><name>PT679</name></trkpt>
<trkpt lat="52.100380" lon="05.709928"><ele>33.4</ele><time>2021-03-01T10:24:20Z</time><name>PT680</name></trkpt>
<trkpt lat="52.100376" lon="05.709961"><ele>33.3</ele><time>2021-03-01T10:24:21Z</time><name>PT681</name></trkpt>
<trkpt lat="52.100376" lon="05.709981"><ele>33.5</ele><time>2021-03-01T10:24:22Z</time><name>PT682</name></trkpt>
<trkpt lat="52.100373" lon="05.710001"><ele>33.5</ele><time>2021-03-01T10:24:23Z</time><name>PT683</name></trkpt>
<trkpt lat="52.100378" lon="05.710022"><ele>33.7</ele><time>2021-03-01T10:24:24Z</time><name>PT684</name></trkpt>
<trkpt lat="52.100381" lon="05.710042"><ele>33.7</ele><time>2021-03-01T10:24:25Z</time><name>PT685</name></trkpt>
<trkpt lat="52.100379" lon="05.710068"><ele>33.7</ele><time>2021-03-01T10:24:26Z</time><name>PT686</name></trkpt>
<trkpt lat="52.100380" lon="05.710091"><ele>33.7</ele><time>2021-03-01T10:24:27Z</time><name>PT687</name></trkpt>
<trkpt lat="52.100387" lon="05.710114"><ele>33.8</ele><time>2021-03-01T10:24:28Z</time><name>PT688</name></trkpt>
<trkpt lat="52.100387" lon="05.710142"><ele>33.7</ele><time>2021-03-01T10:24:29Z</time><name>PT689</name></trkpt>
<trkpt lat="52.100384" lon="05.710166"><ele>33.7</ele><time>2021-03-01T10:24:30Z</time><name>PT690</name></trkpt>
<trkpt lat="52.100381" lon="05.710197"><ele>33.7</ele><time>2021-03-01T10:24:31Z</time><name>PT691</name></trkpt>
<trkpt lat="52.100385" lon="05.710225"><ele>33.7</ele><time>2021-03-01T10:24:32Z</time><name>PT692</name></trkpt>
<trkpt lat="52.100386" lon="05.710249"><ele>33.7</ele><time>2021-03-01T10:24:33Z</time><name>PT693</name></trkpt>
<trkpt lat="52.100383" lon="05.710274"><ele>33.8</ele><time>2021-03-01T10:24:34Z</time><name>PT694</name></trkpt>
<trkpt lat="52.100379" lon="05.710296"><ele>33.8</ele><time>2021-03-01T10:24:35Z</time><name>PT695</name></trkpt>
<trkpt lat="52.100381" lon="05.710320"><ele>33.8</ele><time>2021-03-01T10:24:36Z</time><name>PT696</name></trkpt>
<trkpt lat="52.100383" lon="05.710348"><ele>33.8</ele><time>2021-03-01T10:24:37Z</time><name>PT697</name></trkpt>
<trkpt lat="52.100384" lon="05.710377"><ele>33.7</ele><time>2021-03-01T10:24:38Z</time><name>PT698</name></trkpt>
<trkpt lat="52.100390" lon="05.710398"><ele>33.7</ele><time>2021-03-01T10:24:39Z</time><name>PT699</name></trkpt>
<trkpt lat="52.100392" lon="05.710419"><ele>33.8</ele><time>2021-03-01T10:24:40Z</time><name>PT700</name></trkpt>
<trkpt lat="52.100399" lon="05.710446"><ele>33.9</ele><time>2021-03-01T10:24:41Z</time><name>PT701</name></trkpt>
<trkpt lat="52.100407" lon="05.710466"><ele>34</ele><time>2021-03-01T10:24:42Z</time><name>PT702</name></trkpt>
<trkpt lat="52.100410" lon="05.710490"><ele>34</ele><time>2021-03-01T10:24:43Z</time><name>PT703</name></trkpt>
<trkpt lat="52.100415" lon="05.710503"><ele>34</ele><time>2021-03-01T10:24:44Z</time><name>PT704</name></trkpt>
<trkpt lat="52.100419" lon="05.710530"><ele>34.1</ele><time>2021-03-01T10:24:45Z</time><name>PT705</name></trkpt>
<trkpt lat="52.100418" lon="05.710555"><ele>34.1</ele><time>2021-03-01T10:24:46Z</time><name>PT706</name></trkpt>
<trkpt lat="52.100418" lon="05.710577"><ele>34.1</ele><time>2021-03-01T10:24:47Z</time><name>PT707</name></trkpt>
<trkpt lat="52.100421" lon="05.710598"><ele>33.8</ele><time>2021-03-01T10:24:48Z</time><name>PT708</name></trkpt>
<trkpt lat="52.100429" lon="05.710616"><ele>34</ele><time>2021-03-01T10:24:49Z</time><name>PT709</name></trkpt>
<trkpt lat="52.100435" lon="05.710636"><ele>33.9</ele><time>2021-03-01T10:24:50Z</time><name>PT710</name></trkpt>
<trkpt lat="52.100437" lon="05.710658"><ele>34</ele><time>2021-03-01T10:24:51Z</time><name>PT711</name></trkpt>
<trkpt lat="52.100441" lon="05.710676"><ele>34.1</ele><time>2021-03-01T10:24:52Z</time><name>PT712</name></trkpt>
<trkpt lat="52.100442" lon="05.710695"><ele>34.1</ele><time>2021-03-01T10:24:53Z</time><name>PT713</name></trkpt>
<trkpt lat="52.100448" lon="05.710708"><ele>34</ele><time>2021-03-01T10:24:54Z</time><name>PT714</name></trkpt>
<trkpt lat="52.100449" lon="05.710729"><ele>34.1</ele><time>2021-03-01T10:24:55Z</time><name>PT715</name></trkpt>
<trkpt lat="52.100458" lon="05.710749"><ele>34</ele><time>2021-03-01T10:24:56Z</time><name>PT716</name></trkpt>
<trkpt lat="52.100458" lon="05.710766"><ele>34</ele><time>2021-03-01T10:24:57Z</time><name>PT717</name></trkpt>
<trkpt lat="52.100458" lon="05.710791"><ele>34.1</ele><time>2021-03-01T10:24:58Z</time><name>PT718</name></trkpt>
<trkpt lat="52.100461" lon="05.710810"><ele>34.1</ele><time>2021-03-01T10:24:59Z</time><name>PT719</name></trkpt>
<trkpt lat="52.100461" lon="05.710824"><ele>34.1</ele><time>2021-03-01T10:25:00Z</time><name>PT720</name></trkpt>
<trkpt lat="52.100458" lon="05.710838"><ele>34</ele><time>2021-03-01T10:25:01Z</time><name>PT721</name></trkpt>
<trkpt lat="52.100460" lon="05.710860"><ele>33.9</ele><time>2021-03-01T10:25:02Z</time><name>PT722</name></trkpt>
<trkpt lat="52.100459" lon="05.710886"><ele>34</ele><time>2021-03-01T10:25:03Z</time><name>PT723</name></trkpt>
<trkpt lat="52.100461" lon="05.710915"><ele>33.9</ele><time>2021-03-01T10:25:04Z</time><name>PT724</name></trkpt>
<trkpt lat="52.100469" lon="05.710936"><ele>34.1</ele><time>2021-03-01T10:25:05Z</time><name>PT725</name></trkpt>
<trkpt lat="52.100476" lon="05.710955"><ele>34.1</ele><time>2021-03-01T10:25:06Z</time><name>PT726</name></trkpt>
<trkpt lat="52.100476" lon="05.710980"><ele>34.1</ele><time>2021-03-01T10:25:07Z</time><name>PT727</name></trkpt>
<trkpt lat="52.100476" lon="05.711003"><ele>34.2</ele><time>2021-03-01T10:25:08Z</time><name>PT728</name></trkpt>
<trkpt lat="52.100478" lon="05.711020"><ele>34.4</ele><time>2021-03-01T10:25:09Z</time><name>PT729</name></trkpt>
<trkpt lat="52.100482" lon="05.711031"><ele>34.3</ele><time>2021-03-01T10:25:10Z</time><name>PT730</name></trkpt>
<trkpt lat="52.100484" lon="05.711047"><ele>34.3</ele><time>2021-03-01T10:25:11Z</time><name>PT731</name></trkpt>
<trkpt lat="52.100488" lon="05.711079"><ele>34.1</ele><time>2021-03-01T10:25:12Z</time><name>PT732</name></trkpt>
<trkpt lat="52.100494" lon="05.711104"><ele>34.1</ele><time>2021-03-01T10:25:13Z</time><name>PT733</name></trkpt>
<trkpt lat="52.100495" lon="05.711119"><ele>34.2</ele><time>2021-03-01T10:25:14Z</time><name>PT734</name></trkpt>
<trkpt lat="52.100498" lon="05.711144"><ele>34.1</ele><time>2021-03-01T10:25:15Z</time><name>PT735</name></trkpt>
<trkpt lat="52.100501" lon="05.711162"><ele>34.2</ele><time>2021-03-01T10:25:16Z</time><name>PT736</name></trkpt>
<trkpt lat="52.100507" lon="05.711187"><ele>34.1</ele><time>2021-03-01T10:25:17Z</time><name>PT737</name></trkpt>
<trkpt lat="52.100513" lon="05.711215"><ele>34.1</ele><time>2021-03-01T10:25:18Z</time><name>PT738</name></trkpt>
<trkpt lat="52.100525" lon="05.711238"><ele>34.1</ele><time>2021-03-01T10:25:19Z</time><name>PT739</name></trkpt>
<trkpt lat="52.100529" lon="05.711255"><ele>34.1</ele><time>2021-03-01T10:25:20Z</time><name>PT740</name></trkpt>
<trkpt lat="52.100535" lon="05.711280"><ele>34</ele><time>2021-03-01T10:25:21Z</time><name>PT741</name></trkpt>
<trkpt lat="52.100542" lon="05.711301"><ele>34</ele><time>2021-03-01T10:25:22Z</time><name>PT742</name></trkpt>
<trkpt lat="52.100546" lon="05.711325"><ele>33.8</ele><time>2021-03-01T10:25:23Z</time><name>PT743</name></trkpt>
<trkpt lat="52.100555" lon="05.711337"><ele>33.6</ele><time>2021-03-01T10:25:24Z</time><name>PT744</name></trkpt>
<trkpt lat="52.100561" lon="05.711356"><ele>33.6</ele><time>2021-03-01T10:25:25Z</time><name>PT745</name></trkpt>
<trkpt lat="52.100562" lon="05.711382"><ele>33.5</ele><time>2021-03-01T10:25:26Z</time><name>PT746</name></trkpt>
<trkpt lat="52.100567" lon="05.711402"><ele>33.5</ele><time>2021-03-01T10:25:27Z</time><name>PT747</name></trkpt>
<trkpt lat="52.100567" lon="05.711424"><ele>33.6</ele><time>2021-03-01T10:25:28Z</time><name>PT748</name></trkpt>
<trkpt lat="52.100564" lon="05.711438"><ele>33.7</ele><time>2021-03-01T10:25:29Z</time><name>PT749</name></trkpt>
<trkpt lat="52.100563" lon="05.711463"><ele>33.5</ele><time>2021-03-01T10:25:30Z</time><name>PT750</name></trkpt>
<trkpt lat="52.100559" lon="05.711490"><ele>33.5</ele><time>2021-03-01T10:25:31Z</time><name>PT751</name></trkpt>
<trkpt lat="52.100558" lon="05.711520"><ele>33.4</ele><time>2021-03-01T10:25:32Z</time><name>PT752</name></trkpt>
<trkpt lat="52.100556" lon="05.711541"><ele>33.6</ele><time>2021-03-01T10:25:33Z</time><name>PT753</name></trkpt>
<trkpt lat="52.100555" lon="05.711565"><ele>33.6</ele><time>2021-03-01T10:25:34Z</time><name>PT754</name></trkpt>
<trkpt lat="52.100554" lon="05.711586"><ele>33.7</ele><time>2021-03-01T10:25:35Z</time><name>PT755</name></trkpt>
<trkpt lat="52.100553" lon="05.711613"><ele>33.8</ele><time>2021-03-01T10:25:36Z</time><name>PT756</name></trkpt>
<trkpt lat="52.100557" lon="05.711632"><ele>33.7</ele><time>2021-03-01T10:25:37Z</time><name>PT757</name></trkpt>
<trkpt lat="52.100551" lon="05.711651"><ele>33.5</ele><time>2021-03-01T10:25:38Z</time><name>PT758</name></trkpt>
<trkpt lat="52.100550" lon="05.711673"><ele>33.3</ele><time>2021-03-01T10:25:39Z</time><name>PT759</name></trkpt>
<trkpt lat="52.100551" lon="05.711699"><ele>33.3</ele><time>2021-03-01T10:25:40Z</time><name>PT760</name></trkpt>
<trkpt lat="52.100544" lon="05.711728"><ele>33.1</ele><time>2021-03-01T10:25:41Z</time><name>PT761</name></trkpt>
<trkpt lat="52.100541" lon="05.711749"><ele>33</ele><time>2021-03-01T10:25:42Z</time><name>PT762</name></trkpt>
<trkpt lat="52.100545" lon="05.711777"><ele>32.8</ele><time>2021-03-01T10:25:43Z</time><name>PT763</name></trkpt>
<trkpt lat="52.100549" lon="05.711802"><ele>32.8</ele><time>2021-03-01T10:25:44Z</time><name>PT764</name></trkpt>
<trkpt lat="52.100554" lon="05.711833"><ele>32.9</ele><time>2021-03-01T10:25:45Z</time><name>PT765</name></trkpt>
<trkpt lat="52.100556" lon="05.711859"><ele>33.1</ele><time>2021-03-01T10:25:46Z</time><name>PT766</name></trkpt>
<trkpt lat="52.100562" lon="05.711883"><ele>33.2</ele><time>2021-03-01T10:25:47Z</time><name>PT767</name></trkpt>
<trkpt lat="52.100568" lon="05.711905"><ele>33.4</ele><time>2021-03-01T10:25:48Z</time><name>PT768</name></trkpt>
<trkpt lat="52.100573" lon="05.711928"><ele>33.4</ele><time>2021-03-01T10:25:49Z</time><name>PT769</name></trkpt>
<trkpt lat="52.100573" lon="05.711948"><ele>33.5</ele><time>2021-03-01T10:25:50Z</time><name>PT770</name></trkpt>
<trkpt lat="52.100578" lon="05.711972"><ele>33.6</ele><time>2021-03-01T10:25:51Z</time><name>PT771</name></trkpt>
<trkpt lat="52.100586" lon="05.711994"><ele>33.6</ele><time>2021-03-01T10:25:52Z</time><name>PT772</name></trkpt>
<trkpt lat="52.100595" lon="05.712008"><ele>33.7</ele><time>2021-03-01T10:25:53Z</time><name>PT773</name></trkpt>
<trkpt lat="52.100605" lon="05.712021"><ele>33.7</ele><time>2021-03-01T10:25:54Z</time><name>PT774</name></trkpt>
<trkpt lat="52.100618" lon="05.712033"><ele>33.7</ele><time>2021-03-01T10:25:55Z</time><name>PT775</name></trkpt>
<trkpt lat="52.100635" lon="05.712047"><ele>33.8</ele><time>2021-03-01T10:25:56Z</time><name>PT776</name></trkpt>
<trkpt lat="52.100650" lon="05.712064"><ele>33.9</ele><time>2021-03-01T10:25:57Z</time><name>PT777</name></trkpt>
<trkpt lat="52.100659" lon="05.712075"><ele>33.8</ele><time>2021-03-01T10:25:58Z</time><name>PT778</name></trkpt>
<trkpt lat="52.100672" lon="05.712088"><ele>33.7</ele><time>2021-03-01T10:25:59Z</time><name>PT779</name></trkpt>
<trkpt lat="52.100684" lon="05.712106"><ele>33.7</ele><time>2021-03-01T10:26:00Z</time><name>PT780</name></trkpt>
<trkpt lat="52.100696" lon="05.712127"><ele>33.6</ele><time>2021-03-01T10:26:01Z</time><name>PT781</name></trkpt>
<trkpt lat="52.100708" lon="05.712147"><ele>33.4</ele><time>2021-03-01T10:26:02Z</time><name>PT782</name></trkpt>
<trkpt lat="52.100722" lon="05.712164"><ele>33.4</ele><time>2021-03-01T10:26:03Z</time><name>PT783</name></trkpt>
<trkpt lat="52.100729" lon="05.712184"><ele>33.7</ele><time>2021-03-01T10:26:04Z</time><name>PT784</name></trkpt>
<trkpt lat="52.100734" lon="05.712209"><ele>33.7</ele><time>2021-03-01T10:26:05Z</time><name>PT785</name></trkpt>
<trkpt lat="52.100742" lon="05.712236"><ele>33.8</ele><time>2021-03-01T10:26:06Z</time><name>PT786</name></trkpt>
<trkpt lat="52.100751" lon="05.712256"><ele>34</ele><time>2021-03-01T10:26:07Z</time><name>PT787</name></trkpt>
<trkpt lat="52.100756" lon="05.712272"><ele>34.2</ele><time>2021-03-01T10:26:08Z</time><name>PT788</name></trkpt>
<trkpt lat="52.100757" lon="05.712288"><ele>34.3</ele><time>2021-03-01T10:26:09Z</time><name>PT789</name></trkpt>
<trkpt lat="52.100761" lon="05.712308"><ele>34.1</ele><time>2021-03-01T10:26:10Z</time><name>PT790</name></trkpt>
<trkpt lat="52.100764" lon="05.712325"><ele>34.3</ele><time>2021-03-01T10:26:11Z</time><name>PT791</name></trkpt>
<trkpt lat="52.100768" lon="05.712340"><ele>34.3</ele><time>2021-03-01T10:26:12Z</time><name>PT792</name></trkpt>
<trkpt lat="52.100773" lon="05.712355"><ele>34.3</ele><time>2021-03-01T10:26:13Z</time><name>PT793</name></trkpt>
<trkpt lat="52.100779" lon="05.712366"><ele>34.2</ele><time>2021-03-01T10:26:14Z</time><name>PT794</name></trkpt>
<trkpt lat="52.100782" lon="05.712383"><ele>34.2</ele><time>2021-03-01T10:26:15Z</time><name>PT795</name></trkpt>
<trkpt lat="52.100787" lon="05.712400"><ele>34</ele><time>2021-03-01T10:26:16Z</time><name>PT796</name></trkpt>
<trkpt lat="52.100787" lon="05.712424"><ele>34.1</ele><time>2021-03-01T10:26:17Z</time><name>PT797</name></trkpt>
<trkpt lat="52.100783" lon="05.712443"><ele>34.1</ele><time>2021-03-01T10:26:18Z</time><name>PT798</name></trkpt>
<trkpt lat="52.100783" lon="05.712459"><ele>34</ele><time>2021-03-01T10:26:19Z</time><name>PT799</name></trkpt>
<trkpt lat="52.100785" lon="05.712476"><ele>34.1</ele><time>2021-03-01T10:26:20Z</time><name>PT800</name></trkpt>
<trkpt lat="52.100785" lon="05.712508"><ele>34.1</ele><time>2021-03-01T10:26:21Z</time><name>PT801</name></trkpt>
<trkpt lat="52.100789" lon="05.712527"><ele>34</ele><time>2021-03-01T10:26:22Z</time><name>PT802</name></trkpt>
<trkpt lat="52.100797" lon="05.712533"><ele>34</ele><time>2021-03-01T10:26:23Z</time><name>PT803</name></trkpt>
<trkpt lat="52.100803" lon="05.712549"><ele>34.1</ele><time>2021-03-01T10:26:24Z</time><name>PT804</name></trkpt>
<trkpt lat="52.100810" lon="05.712570"><ele>34.1</ele><time>2021-03-01T10:26:25Z</time><name>PT805</name></trkpt>
<trkpt lat="52.100815" lon="05.712585"><ele>34.1</ele><time>2021-03-01T10:26:26Z</time><name>PT806</name></trkpt>
<trkpt lat="52.100818" lon="05.712596"><ele>34.1</ele><time>2021-03-01T10:26:27Z</time><name>PT807</name></trkpt>
<trkpt lat="52.100824" lon="05.712603"><ele>33.9</ele><time>2021-03-01T10:26:28Z</time><name>PT808</name></trkpt>
<trkpt lat="52.100827" lon="05.712607"><ele>33.7</ele><time>2021-03-01T10:26:29Z</time><name>PT809</name></trkpt>
<trkpt lat="52.100823" lon="05.712627"><ele>33.8</ele><time>2021-03-01T10:26:30Z</time><name>PT810</name></trkpt>
<trkpt lat="52.100822" lon="05.712640"><ele>33.8</ele><time>2021-03-01T10:26:31Z</time><name>PT811</name></trkpt>
<trkpt lat="52.100820" lon="05.712654"><ele>33.7</ele><time>2021-03-01T10:26:32Z</time><name>PT812</name></trkpt>
<trkpt lat="52.100814" lon="05.712671"><ele>33.7</ele><time>2021-03-01T10:26:33Z</time><name>PT813</name></trkpt>
<trkpt lat="52.100810" lon="05.712686"><ele>33.7</ele><time>2021-03-01T10:26:34Z</time><name>PT814</name></trkpt>
<trkpt lat="52.100803" lon="05.712705"><ele>33.7</ele><time>2021-03-01T10:26:35Z</time><name>PT815</name></trkpt>
<trkpt lat="52.100797" lon="05.712721"><ele>33.6</ele><time>2021-03-01T10:26:36Z</time><name>PT816</name></trkpt>
<trkpt lat="52.100794" lon="05.712743"><ele>33.5</ele><time>2021-03-01T10:26:37Z</time><name>PT817</name></trkpt>
<trkpt lat="52.100787" lon="05.712778"><ele>33.6</ele><time>2021-03-01T10:26:38Z</time><name>PT818</name></trkpt>
<trkpt lat="52.100781" lon="05.712803"><ele>33.5</ele><time>2021-03-01T10:26:39Z</time><name>PT819</name></trkpt>
<trkpt lat="52.100778" lon="05.712807"><ele>33.3</ele><time>2021-03-01T10:26:40Z</time><name>PT820</name></trkpt>
<trkpt lat="52.100770" lon="05.712814"><ele>33.3</ele><time>2021-03-01T10:26:41Z</time><name>PT821</name></trkpt>
<trkpt lat="52.100763" lon="05.712817"><ele>33.3</ele><time>2021-03-01T10:26:42Z</time><name>PT822</name></trkpt>
<trkpt lat="52.100756" lon="05.712834"><ele>33.3</ele><time>2021-03-01T10:26:43Z</time><name>PT823</name></trkpt>
<trkpt lat="52.100746" lon="05.712844"><ele>33.3</ele><time>2021-03-01T10:26:44Z</time><name>PT824</name></trkpt>
<trkpt lat="52.100731" lon="05.712849"><ele>33.4</ele><time>2021-03-01T10:26:45Z</time><name>PT825</name></trkpt>
<trkpt lat="52.100720" lon="05.712848"><ele>33.4</ele><time>2021-03-01T10:26:46Z</time><name>PT826</name></trkpt>
<trkpt lat="52.100706" lon="05.712850"><ele>33.3</ele><time>2021-03-01T10:26:47Z</time><name>PT827</name></trkpt>
<trkpt lat="52.100692" lon="05.712851"><ele>33.3</ele><time>2021-03-01T10:26:48Z</time><name>PT828</name></trkpt>
<trkpt lat="52.100680" lon="05.712850"><ele>33.3</ele><time>2021-03-01T10:26:49Z</time><name>PT829</name></trkpt>
<trkpt lat="52.100668" lon="05.712848"><ele>33.2</ele><time>2021-03-01T10:26:50Z</time><name>PT830</name></trkpt>
<trkpt lat="52.100656" lon="05.712850"><ele>33.2</ele><time>2021-03-01T10:26:51Z</time><name>PT831</name></trkpt>
<trkpt lat="52.100643" lon="05.712857"><ele>33.3</ele><time>2021-03-01T10:26:52Z</time><name>PT832</name></trkpt>
<trkpt lat="52.100634" lon="05.712862"><ele>33.3</ele><time>2021-03-01T10:26:53Z</time><name>PT833</name></trkpt>
<trkpt lat="52.100619" lon="05.712873"><ele>33.4</ele><time>2021-03-01T10:26:54Z</time><name>PT834</name></trkpt>
<trkpt lat="52.100604" lon="05.712904"><ele>33.3</ele><time>2021-03-01T10:26:55Z</time><name>PT835</name></trkpt>
<trkpt lat="52.100600" lon="05.712907"><ele>33.3</ele><time>2021-03-01T10:26:56Z</time><name>PT836</name></trkpt>
<trkpt lat="52.100590" lon="05.712902"><ele>33.4</ele><time>2021-03-01T10:26:57Z</time><name>PT837</name></trkpt>
<trkpt lat="52.100579" lon="05.712904"><ele>33.4</ele><time>2021-03-01T10:26:58Z</time><name>PT838</name></trkpt>
<trkpt lat="52.100565" lon="05.712910"><ele>33.5</ele><time>2021-03-01T10:26:59Z</time><name>PT839</name></trkpt>
<trkpt lat="52.100553" lon="05.712914"><ele>33.6</ele><time>2021-03-01T10:27:00Z</time><name>PT840</name></trkpt>
<trkpt lat="52.100541" lon="05.712918"><ele>33.6</ele><time>2021-03-01T10:27:01Z</time><name>PT841</name></trkpt>
<trkpt lat="52.100531" lon="05.712916"><ele>33.6</ele><time>2021-03-01T10:27:02Z</time><name>PT842</name></trkpt>
<trkpt lat="52.100519" lon="05.712914"><ele>33.5</ele><time>2021-03-01T10:27:03Z</time><name>PT843</name></trkpt>
<trkpt lat="52.100508" lon="05.712918"><ele>33.5</ele><time>2021-03-01T10:27:04Z</time><name>PT844</name></trkpt>
<trkpt lat="52.100498" lon="05.712921"><ele>33.7</ele><time>2021-03-01T10:27:05Z</time><name>PT845</name></trkpt>
<trkpt lat="52.100486" lon="05.712923"><ele>33.7</ele><time>2021-03-01T10:27:06Z</time><name>PT846</name></trkpt>
<trkpt lat="52.100475" lon="05.712929"><ele>33.7</ele><time>2021-03-01T10:27:07Z</time><name>PT847</name></trkpt>
<trkpt lat="52.100460" lon="05.712926"><ele>33.7</ele><time>2021-03-01T10:27:08Z</time><name>PT848</name></trkpt>
<trkpt lat="52.100443" lon="05.712931"><ele>33.7</ele><time>2021-03-01T10:27:09Z</time><name>PT849</name></trkpt>
<trkpt lat="52.100430" lon="05.712932"><ele>33.5</ele><time>2021-03-01T10:27:10Z</time><name>PT850</name></trkpt>
<trkpt lat="52.100420" lon="05.712933"><ele>33.5</ele><time>2021-03-01T10:27:11Z</time><name>PT851</name></trkpt>
<trkpt lat="52.100403" lon="05.712939"><ele>33.3</ele><time>2021-03-01T10:27:12Z</time><name>PT852</name></trkpt>
<trkpt lat="52.100392" lon="05.712939"><ele>33.3</ele><time>2021-03-01T10:27:13Z</time><name>PT853</name></trkpt>
<trkpt lat="52.100381" lon="05.712937"><ele>33.4</ele><time>2021-03-01T10:27:14Z</time><name>PT854</name></trkpt>
<trkpt lat="52.100367" lon="05.712932"><ele>33.4</ele><time>2021-03-01T10:27:15Z</time><name>PT855</name></trkpt>
<trkpt lat="52.100352" lon="05.712923"><ele>33.6</ele><time>2021-03-01T10:27:16Z</time><name>PT856</name></trkpt>
<trkpt lat="52.100344" lon="05.712916"><ele>33.6</ele><time>2021-03-01T10:27:17Z</time><name>PT857</name></trkpt>
<trkpt lat="52.100332" lon="05.712918"><ele>33.5</ele><time>2021-03-01T10:27:18Z</time><name>PT858</name></trkpt>
<trkpt lat="52.100322" lon="05.712922"><ele>33.5</ele><time>2021-03-01T10:27:19Z</time><name>PT859</name></trkpt>
<trkpt lat="52.100317" lon="05.712934"><ele>33.3</ele><time>2021-03-01T10:27:20Z</time><name>PT860</name></trkpt>
<trkpt lat="52.100317" lon="05.712944"><ele>33.3</ele><time>2021-03-01T10:27:21Z</time><name>PT861</name></trkpt>
<trkpt lat="52.100302" lon="05.712950"><ele>33.3</ele><time>2021-03-01T10:27:22Z</time><name>PT862</name></trkpt>
<trkpt lat="52.100290" lon="05.712951"><ele>33.2</ele><time>2021-03-01T10:27:23Z</time><name>PT863</name></trkpt>
<trkpt lat="52.100278" lon="05.712959"><ele>33.3</ele><time>2021-03-01T10:27:24Z</time><name>PT864</name></trkpt>
<trkpt lat="52.100264" lon="05.712967"><ele>33.3</ele><time>2021-03-01T10:27:25Z</time><name>PT865</name></trkpt>
<trkpt lat="52.100249" lon="05.712975"><ele>33.2</ele><time>2021-03-01T10:27:26Z</time><name>PT866</name></trkpt>
<trkpt lat="52.100235" lon="05.712979"><ele>33.2</ele><time>2021-03-01T10:27:27Z</time><name>PT867</name></trkpt>
<trkpt lat="52.100224" lon="05.712993"><ele>33.1</ele><time>2021-03-01T10:27:28Z</time><name>PT868</name></trkpt>
<trkpt lat="52.100210" lon="05.713010"><ele>33.1</ele><time>2021-03-01T10:27:29Z</time><name>PT869</name></trkpt>
<trkpt lat="52.100190" lon="05.713023"><ele>33.2</ele><time>2021-03-01T10:27:30Z</time><name>PT870</name></trkpt>
<trkpt lat="52.100181" lon="05.713035"><ele>33.2</ele><time>2021-03-01T10:27:31Z</time><name>PT871</name></trkpt>
<trkpt lat="52.100171" lon="05.713052"><ele>33.3</ele><time>2021-03-01T10:27:32Z</time><name>PT872</name></trkpt>
<trkpt lat="52.100160" lon="05.713062"><ele>33.3</ele><time>2021-03-01T10:27:33Z</time><name>PT873</name></trkpt>
<trkpt lat="52.100151" lon="05.713070"><ele>33.3</ele><time>2021-03-01T10:27:34Z</time><name>PT874</name></trkpt>
<trkpt lat="52.100139" lon="05.713076"><ele>33.3</ele><time>2021-03-01T10:27:35Z</time><name>PT875</name></trkpt>
<trkpt lat="52.100126" lon="05.713088"><ele>33.3</ele><time>2021-03-01T10:27:36Z</time><name>PT876</name></trkpt>
<trkpt lat="52.100113" lon="05.713100"><ele>33.3</ele><time>2021-03-01T10:27:37Z</time><name>PT877</name></trkpt>
<trkpt lat="52.100098" lon="05.713106"><ele>33.3</ele><time>2021-03-01T10:27:38Z</time><name>PT878</name></trkpt>
<trkpt lat="52.100086" lon="05.713107"><ele>33.3</ele><time>2021-03-01T10:27:39Z</time><name>PT879</name></trkpt>
<trkpt lat="52.100075" lon="05.713104"><ele>33.3</ele><time>2021-03-01T10:27:40Z</time><name>PT880</name></trkpt>
<trkpt lat="52.100065" lon="05.713104"><ele>33.4</ele><time>2021-03-01T10:27:41Z</time><name>PT881</name></trkpt>
<trkpt lat="52.100049" lon="05.713109"><ele>33.3</ele><time>2021-03-01T10:27:42Z</time><name>PT882</name></trkpt>
<trkpt lat="52.100035" lon="05.713121"><ele>33.1</ele><time>2021-03-01T10:27:43Z</time><name>PT883</name></trkpt>
<trkpt lat="52.100024" lon="05.713128"><ele>33</ele><time>2021-03-01T10:27:44Z</time><name>PT884</name></trkpt>
<trkpt lat="52.100010" lon="05.713134"><ele>32.8</ele><time>2021-03-01T10:27:45Z</time><name>PT885</name></trkpt>
<trkpt lat="52.099989" lon="05.713132"><ele>32.7</ele><time>2021-03-01T10:27:46Z</time><name>PT886</name></trkpt>
<trkpt lat="52.099975" lon="05.713147"><ele>32.8</ele><time>2021-03-01T10:27:47Z</time><name>PT887</name></trkpt>
<trkpt lat="52.099960" lon="05.713161"><ele>32.8</ele><time>2021-03-01T10:27:48Z</time><name>PT888</name></trkpt>
<trkpt lat="52.099948" lon="05.713164"><ele>32.9</ele><time>2021-03-01T10:27:49Z</time><name>PT889</name></trkpt>
<trkpt lat="52.099934" lon="05.713168"><ele>33.1</ele><time>2021-03-01T10:27:50Z</time><name>PT890</name></trkpt>
<trkpt lat="52.099922" lon="05.713180"><ele>33.1</ele><time>2021-03-01T10:27:51Z</time><name>PT891</name></trkpt>
<trkpt lat="52.099909" lon="05.713183"><ele>33.1</ele><time>2021-03-01T10:27:52Z</time><name>PT892</name></trkpt>
<trkpt lat="52.099892" lon="05.713199"><ele>33.1</ele><time>2021-03-01T10:27:53Z</time><name>PT893</name></trkpt>
<trkpt lat="52.099875" lon="05.713214"><ele>32.8</ele><time>2021-03-01T10:27:54Z</time><name>PT894</name></trkpt>
<trkpt lat="52.099860" lon="05.713222"><ele>32.8</ele><time>2021-03-01T10:27:55Z</time><name>PT895</name></trkpt>
<trkpt lat="52.099846" lon="05.713237"><ele>33</ele><time>2021-03-01T10:27:56Z</time><name>PT896</name></trkpt>
<trkpt lat="52.099832" lon="05.713242"><ele>32.8</ele><time>2021-03-01T10:27:57Z</time><name>PT897</name></trkpt>
<trkpt lat="52.099814" lon="05.713252"><ele>32.9</ele><time>2021-03-01T10:27:58Z</time><name>PT898</name></trkpt>
<trkpt lat="52.099799" lon="05.713257"><ele>33</ele><time>2021-03-01T10:27:59Z</time><name>PT899</name></trkpt>
<trkpt lat="52.099783" lon="05.713263"><ele>33</ele><time>2021-03-01T10:28:00Z</time><name>PT900</name></trkpt>
<trkpt lat="52.099772" lon="05.713269"><ele>33.2</ele><time>2021-03-01T10:28:01Z</time><name>PT901</name></trkpt>
<trkpt lat="52.099755" lon="05.713281"><ele>33.2</ele><time>2021-03-01T10:28:02Z</time><name>PT902</name></trkpt>
<trkpt lat="52.099739" lon="05.713300"><ele>33.2</ele><time>2021-03-01T10:28:03Z</time><name>PT903</name></trkpt>
<trkpt lat="52.099724" lon="05.713308"><ele>33.3</ele><time>2021-03-01T10:28:04Z</time><name>PT904</name></trkpt>
<trkpt lat="52.099705" lon="05.713321"><ele>33.1</ele><time>2021-03-01T10:28:05Z</time><name>PT905</name></trkpt>
<trkpt lat="52.099690" lon="05.713327"><ele>33.1</ele><time>2021-03-01T10:28:06Z</time><name>PT906</name></trkpt>
<trkpt lat="52.099674" lon="05.713340"><ele>33</ele><time>2021-03-01T10:28:07Z</time><name>PT907</name></trkpt>
<trkpt lat="52.099658" lon="05.713360"><ele>32.9</ele><time>2021-03-01T10:28:08Z</time><name>PT908</name></trkpt>
<trkpt lat="52.099642" lon="05.713361"><ele>32.8</ele><time>2021-03-01T10:28:09Z</time><name>PT909</name></trkpt>
<trkpt lat="52.099627" lon="05.713355"><ele>32.8</ele><time>2021-03-01T10:28:10Z</time><name>PT910</name></trkpt>
<trkpt lat="52.099610" lon="05.713359"><ele>32.7</ele><time>2021-03-01T10:28:11Z</time><name>PT911</name></trkpt>
<trkpt lat="52.099597" lon="05.713354"><ele>32.9</ele><time>2021-03-01T10:28:12Z</time><name>PT912</name></trkpt>
<trkpt lat="52.099585" lon="05.713359"><ele>32.9</ele><time>2021-03-01T10:28:13Z</time><name>PT913</name></trkpt>
<trkpt lat="52.099568" lon="05.713368"><ele>32.8</ele><time>2021-03-01T10:28:14Z</time><name>PT914</name></trkpt>
<trkpt lat="52.099553" lon="05.713372"><ele>33.1</ele><time>2021-03-01T10:28:15Z</time><name>PT915</name></trkpt>
<trkpt lat="52.099542" lon="05.713371"><ele>33</ele><time>2021-03-01T10:28:16Z</time><name>PT916</name></trkpt>
<trkpt lat="52.099531" lon="05.713371"><ele>33.2</ele><time>2021-03-01T10:28:17Z</time><name>PT917</name></trkpt>
<trkpt lat="52.099517" lon="05.713376"><ele>33.3</ele><time>2021-03-01T10:28:18Z</time><name>PT918</name></trkpt>
<trkpt lat="52.099502" lon="05.713380"><ele>33.3</ele><time>2021-03-01T10:28:19Z</time><name>PT919</name></trkpt>
<trkpt lat="52.099485" lon="05.713385"><ele>33.2</ele><time>2021-03-01T10:28:20Z</time><name>PT920</name></trkpt>
<trkpt lat="52.099470" lon="05.713391"><ele>33</ele><time>2021-03-01T10:28:21Z</time><name>PT921</name></trkpt>
<trkpt lat="52.099457" lon="05.713394"><ele>32.8</ele><time>2021-03-01T10:28:22Z</time><name>PT922</name></trkpt>
<trkpt lat="52.099441" lon="05.713396"><ele>32.8</ele><time>2021-03-01T10:28:23Z</time><name>PT923</name></trkpt>
<trkpt lat="52.099422" lon="05.713411"><ele>32.9</ele><time>2021-03-01T10:28:24Z</time><name>PT924</name></trkpt>
<trkpt lat="52.099403" lon="05.713423"><ele>33</ele><time>2021-03-01T10:28:25Z</time><name>PT925</name></trkpt>
<trkpt lat="52.099390" lon="05.713426"><ele>32.9</ele><time>2021-03-01T10:28:26Z</time><name>PT926</name></trkpt>
<trkpt lat="52.099374" lon="05.713433"><ele>33.1</ele><time>2021-03-01T10:28:27Z</time><name>PT927</name></trkpt>
<trkpt lat="52.099358" lon="05.713431"><ele>33.2</ele><time>2021-03-01T10:28:28Z</time><name>PT928</name></trkpt>
<trkpt lat="52.099346" lon="05.713430"><ele>33.1</ele><time>2021-03-01T10:28:29Z</time><name>PT929</name></trkpt>
<trkpt lat="52.099333" lon="05.713433"><ele>33.3</ele><time>2021-03-01T10:28:30Z</time><name>PT930</name></trkpt>
<trkpt lat="52.099323" lon="05.713429"><ele>33</ele><time>2021-03-01T10:28:31Z</time><name>PT931</name></trkpt>
<trkpt lat="52.099301" lon="05.713425"><ele>32.9</ele><time>2021-03-01T10:28:32Z</time><name>PT932</name></trkpt>
<trkpt lat="52.099281" lon="05.713426"><ele>33.1</ele><time>2021-03-01T10:28:33Z</time><name>PT933</name></trkpt>
<trkpt lat="52.099266" lon="05.713428"><ele>33.1</ele><time>2021-03-01T10:28:34Z</time><name>PT934</name></trkpt>
<trkpt lat="52.099249" lon="05.713429"><ele>33.2</ele><time>2021-03-01T10:28:35Z</time><name>PT935</name></trkpt>
<trkpt lat="52.099233" lon="05.713420"><ele>33.1</ele><time>2021-03-01T10:28:36Z</time><name>PT936</name></trkpt>
<trkpt lat="52.099216" lon="05.713422"><ele>33.3</ele><time>2021-03-01T10:28:37Z</time><name>PT937</name></trkpt>
<trkpt lat="52.099200" lon="05.713431"><ele>33.3</ele><time>2021-03-01T10:28:38Z</time><name>PT938</name></trkpt>
<trkpt lat="52.099187" lon="05.713434"><ele>33.3</ele><time>2021-03-01T10:28:39Z</time><name>PT939</name></trkpt>
<trkpt lat="52.099172" lon="05.713441"><ele>33.4</ele><time>2021-03-01T10:28:40Z</time><name>PT940</name></trkpt>
<trkpt lat="52.099158" lon="05.713448"><ele>33.4</ele><time>2021-03-01T10:28:41Z</time><name>PT941</name></trkpt>
<trkpt lat="52.099144" lon="05.713454"><ele>33.2</ele><time>2021-03-01T10:28:42Z</time><name>PT942</name></trkpt>
<trkpt lat="52.099129" lon="05.713459"><ele>33.1</ele><time>2021-03-01T10:28:43Z</time><name>PT943</name></trkpt>
<trkpt lat="52.099114" lon="05.713462"><ele>33</ele><time>2021-03-01T10:28:44Z</time><name>PT944</name></trkpt>
<trkpt lat="52.099099" lon="05.713468"><ele>32.9</ele><time>2021-03-01T10:28:45Z</time><name>PT945</name></trkpt>
<trkpt lat="52.099084" lon="05.713474"><ele>33</ele><time>2021-03-01T10:28:46Z</time><name>PT946</name></trkpt>
<trkpt lat="52.099068" lon="05.713478"><ele>33.1</ele><time>2021-03-01T10:28:47Z</time><name>PT947</name></trkpt>
<trkpt lat="52.099054" lon="05.713483"><ele>32.9</ele><time>2021-03-01T10:28:48Z</time><name>PT948</name></trkpt>
<trkpt lat="52.099041" lon="05.713485"><ele>32.8</ele><time>2021-03-01T10:28:49Z</time><name>PT949</name></trkpt>
<trkpt lat="52.099029" lon="05.713487"><ele>32.7</ele><time>2021-03-01T10:28:50Z</time><name>PT950</name></trkpt>
<trkpt lat="52.099015" lon="05.713492"><ele>32.6</ele><time>2021-03-01T10:28:51Z</time><name>PT951</name></trkpt>
<trkpt lat="52.099000" lon="05.713494"><ele>32.7</ele><time>2021-03-01T10:28:52Z</time><name>PT952</name></trkpt>
<trkpt lat="52.098987" lon="05.713496"><ele>32.9</ele><time>2021-03-01T10:28:53Z</time><name>PT953</name></trkpt>
<trkpt lat="52.098971" lon="05.713499"><ele>33</ele><time>2021-03-01T10:28:54Z</time><name>PT954</name></trkpt>
<trkpt lat="52.098961" lon="05.713495"><ele>33.1</ele><time>2021-03-01T10:28:55Z</time><name>PT955</name></trkpt>
<trkpt lat="52.098950" lon="05.713492"><ele>33.1</ele><time>2021-03-01T10:28:56Z</time><name>PT956</name></trkpt>
<trkpt lat="52.098937" lon="05.713485"><ele>33.3</ele><time>2021-03-01T10:28:57Z</time><name>PT957</name></trkpt>
<trkpt lat="52.098921" lon="05.713480"><ele>33.3</ele><time>2021-03-01T10:28:58Z</time><name>PT958</name></trkpt>
<trkpt lat="52.098908" lon="05.713480"><ele>33.3</ele><time>2021-03-01T10:28:59Z</time><name>PT959</name></trkpt>
<trkpt lat="52.098893" lon="05.713487"><ele>33.3</ele><time>2021-03-01T10:29:00Z</time><name>PT960</name></trkpt>
<trkpt lat="52.098881" lon="05.713491"><ele>33.3</ele><time>2021-03-01T10:29:01Z</time><name>PT961</name></trkpt>
<trkpt lat="52.098868" lon="05.713495"><ele>33.2</ele><time>2021-03-01T10:29:02Z</time><name>PT962</name></trkpt>
<trkpt lat="52.098855" lon="05.713497"><ele>33.4</ele><time>2021-03-01T10:29:03Z</time><name>PT963</name></trkpt>
<trkpt lat="52.098839" lon="05.713498"><ele>33.2</ele><time>2021-03-01T10:29:04Z</time><name>PT964</name></trkpt>
<trkpt lat="52.098825" lon="05.713501"><ele>33.4</ele><time>2021-03-01T10:29:05Z</time><name>PT965</name></trkpt>
<trkpt lat="52.098809" lon="05.713501"><ele>33.4</ele><time>2021-03-01T10:29:06Z</time><name>PT966</name></trkpt>
<trkpt lat="52.098795" lon="05.713505"><ele>33.2</ele><time>2021-03-01T10:29:07Z</time><name>PT967</name></trkpt>
<trkpt lat="52.098783" lon="05.713508"><ele>33.2</ele><time>2021-03-01T10:29:08Z</time><name>PT968</name></trkpt>
<trkpt lat="52.098772" lon="05.713515"><ele>33.3</ele><time>2021-03-01T10:29:09Z</time><name>PT969</name></trkpt>
<trkpt lat="52.098764" lon="05.713514"><ele>33.3</ele><time>2021-03-01T10:29:10Z</time><name>PT970</name></trkpt>
<trkpt lat="52.098753" lon="05.713516"><ele>33.3</ele><time>2021-03-01T10:29:11Z</time><name>PT971</name></trkpt>
<trkpt lat="52.098744" lon="05.713511"><ele>33.5</ele><time>2021-03-01T10:29:12Z</time><name>PT972</name></trkpt>
<trkpt lat="52.098734" lon="05.713505"><ele>33.8</ele><time>2021-03-01T10:29:13Z</time><name>PT973</name></trkpt>
<trkpt lat="52.098721" lon="05.713496"><ele>34.1</ele><time>2021-03-01T10:29:14Z</time><name>PT974</name></trkpt>
<trkpt lat="52.098707" lon="05.713488"><ele>34.4</ele><time>2021-03-01T10:29:15Z</time><name>PT975</name></trkpt>
<trkpt lat="52.098697" lon="05.713485"><ele>34.6</ele><time>2021-03-01T10:29:16Z</time><name>PT976</name></trkpt>
<trkpt lat="52.098686" lon="05.713485"><ele>34.6</ele><time>2021-03-01T10:29:17Z</time><name>PT977</name></trkpt>
<trkpt lat="52.098672" lon="05.713484"><ele>34.5</ele><time>2021-03-01T10:29:18Z</time><name>PT978</name></trkpt>
<trkpt lat="52.098658" lon="05.713481"><ele>34.5</ele><time>2021-03-01T10:29:19Z</time><name>PT979</name></trkpt>
<trkpt lat="52.098649" lon="05.713477"><ele>34.4</ele><time>2021-03-01T10:29:20Z</time><name>PT980</name></trkpt>
<trkpt lat="52.098637" lon="05.713481"><ele>34.5</ele><time>2021-03-01T10:29:21Z</time><name>PT981</name></trkpt>
<trkpt lat="52.098623" lon="05.713490"><ele>34.5</ele><time>2021-03-01T10:29:22Z</time><name>PT982</name></trkpt>
<trkpt lat="52.098609" lon="05.713498"><ele>34.3</ele><time>2021-03-01T10:29:23Z</time><name>PT983</name></trkpt>
<trkpt lat="52.098596" lon="05.713502"><ele>34.1</ele><time>2021-03-01T10:29:24Z</time><name>PT984</name></trkpt>
<trkpt lat="52.098582" lon="05.713507"><ele>34</ele><time>2021-03-01T10:29:25Z</time><name>PT985</name></trkpt>
<trkpt lat="52.098567" lon="05.713516"><ele>34</ele><time>2021-03-01T10:29:26Z</time><name>PT986</name></trkpt>
<trkpt lat="52.098550" lon="05.713522"><ele>33.9</ele><time>2021-03-01T10:29:27Z</time><name>PT987</name></trkpt>
<trkpt lat="52.098534" lon="05.713533"><ele>33.9</ele><time>2021-03-01T10:29:28Z</time><name>PT988</name></trkpt>
<trkpt lat="52.098522" lon="05.713542"><ele>33.9</ele><time>2021-03-01T10:29:29Z</time><name>PT989</name></trkpt>
<trkpt lat="52.098512" lon="05.713548"><ele>33.9</ele><time>2021-03-01T10:29:30Z</time><name>PT990</name></trkpt>
<trkpt lat="52.098501" lon="05.713555"><ele>33.9</ele><time>2021-03-01T10:29:31Z</time><name>PT991</name></trkpt>
<trkpt lat="52.098490" lon="05.713564"><ele>33.9</ele><time>2021-03-01T10:29:32Z</time><name>PT992</name></trkpt>
<trkpt lat="52.098477" lon="05.713568"><ele>33.8</ele><time>2021-03-01T10:29:33Z</time><name>PT993</name></trkpt>
<trkpt lat="52.098463" lon="05.713573"><ele>34.1</ele><time>2021-03-01T10:29:34Z</time><name>PT994</name></trkpt>
<trkpt lat="52.098450" lon="05.713577"><ele>34</ele><time>2021-03-01T10:29:35Z</time><name>PT995</name></trkpt>
<trkpt lat="52.098435" lon="05.713584"><ele>34.1</ele><time>2021-03-01T10:29:36Z</time><name>PT996</name></trkpt>
<trkpt lat="52.098421" lon="05.713593"><ele>34.1</ele><time>2021-03-01T10:29:37Z</time><name>PT997</name></trkpt>
<trkpt lat="52.098408" lon="05.713601"><ele>33.9</ele><time>2021-03-01T10:29:38Z</time><name>PT998</name></trkpt>
<trkpt lat="52.098393" lon="05.713608"><ele>33.8</ele><time>2021-03-01T10:29:39Z</time><name>PT999</name></trkpt>
<trkpt lat="52.098380" lon="05.713616"><ele>33.9</ele><time>2021-03-01T10:29:40Z</time><name>PT1000</name></trkpt>
<trkpt lat="52.098366" lon="05.713623"><ele>33.8</ele><time>2021-03-01T10:29:41Z</time><name>PT1001</name></trkpt>
<trkpt lat="52.098356" lon="05.713626"><ele>33.7</ele><time>2021-03-01T10:29:42Z</time><name>PT1002</name></trkpt>
<trkpt lat="52.098350" lon="05.713629"><ele>33.8</ele><time>2021-03-01T10:29:43Z</time><name>PT1003</name></trkpt>
<trkpt lat="52.098346" lon="05.713636"><ele>33.7</ele><time>2021-03-01T10:29:44Z</time><name>PT1004</name></trkpt>
<trkpt lat="52.098339" lon="05.713641"><ele>33.8</ele><time>2021-03-01T10:29:45Z</time><name>PT1005</name></trkpt>
<trkpt lat="52.098333" lon="05.713645"><ele>34</ele><time>2021-03-01T10:29:46Z</time><name>PT1006</name></trkpt>
<trkpt lat="52.098323" lon="05.713653"><ele>34.1</ele><time>2021-03-01T10:29:47Z</time><name>PT1007</name></trkpt>
<trkpt lat="52.098314" lon="05.713660"><ele>34.1</ele><time>2021-03-01T10:29:48Z</time><name>PT1008</name></trkpt>
<trkpt lat="52.098312" lon="05.713661"><ele>34.1</ele><time>2021-03-01T10:29:49Z</time><name>PT1009</name></trkpt>
<trkpt lat="52.098304" lon="05.713665"><ele>34</ele><time>2021-03-01T10:29:50Z</time><name>PT1010</name></trkpt>
<trkpt lat="52.098293" lon="05.713669"><ele>33.9</ele><time>2021-03-01T10:29:51Z</time><name>PT1011</name></trkpt>
<trkpt lat="52.098282" lon="05.713674"><ele>33.9</ele><time>2021-03-01T10:29:52Z</time><name>PT1012</name></trkpt>
<trkpt lat="52.098270" lon="05.713681"><ele>34.1</ele><time>2021-03-01T10:29:53Z</time><name>PT1013</name></trkpt>
<trkpt lat="52.098261" lon="05.713687"><ele>34.1</ele><time>2021-03-01T10:29:54Z</time><name>PT1014</name></trkpt>
<trkpt lat="52.098253" lon="05.713694"><ele>34.1</ele><time>2021-03-01T10:29:55Z</time><name>PT1015</name></trkpt>
<trkpt lat="52.098244" lon="05.713702"><ele>34.1</ele><time>2021-03-01T10:29:56Z</time><name>PT1016</name></trkpt>
<trkpt lat="52.098235" lon="05.713712"><ele>34.1</ele><time>2021-03-01T10:29:57Z</time><name>PT1017</name></trkpt>
<trkpt lat="52.098226" lon="05.713720"><ele>34</ele><time>2021-03-01T10:29:58Z</time><name>PT1018</name></trkpt>
<trkpt lat="52.098217" lon="05.713725"><ele>34.1</ele><time>2021-03-01T10:29:59Z</time><name>PT1019</name></trkpt>
<trkpt lat="52.098210" lon="05.713730"><ele>34.3</ele><time>2021-03-01T10:30:00Z</time><name>PT1020</name></trkpt>
<trkpt lat="52.098204" lon="05.713736"><ele>34.3</ele><time>2021-03-01T10:30:01Z</time><name>PT1021</name></trkpt>
<trkpt lat="52.098198" lon="05.713743"><ele>34.5</ele><time>2021-03-01T10:30:02Z</time><name>PT1022</name></trkpt>
<trkpt lat="52.098191" lon="05.713746"><ele>34.5</ele><time>2021-03-01T10:30:03Z</time><name>PT1023</name></trkpt>
<trkpt lat="52.098183" lon="05.713749"><ele>34.6</ele><time>2021-03-01T10:30:04Z</time><name>PT1024</name></trkpt>
<trkpt lat="52.098180" lon="05.713752"><ele>34.6</ele><time>2021-03-01T10:30:05Z</time><name>PT1025</name></trkpt>
<trkpt lat="52.098179" lon="05.713755"><ele>34.6</ele><time>2021-03-01T10:30:06Z</time><name>PT1026</name></trkpt>
<trkpt lat="52.098180" lon="05.713754"><ele>34.6</ele><time>2021-03-01T10:30:07Z</time><name>PT1027</name></trkpt>
<trkpt lat="52.098180" lon="05.713757"><ele>34.8</ele><time>2021-03-01T10:30:14Z</time><name>PT1028</name></trkpt>
<trkpt lat="52.098178" lon="05.713759"><ele>34.6</ele><time>2021-03-01T10:30:15Z</time><name>PT1029</name></trkpt>
<trkpt lat="52.098173" lon="05.713760"><ele>34.8</ele><time>2021-03-01T10:30:26Z</time><name>PT1030</name></trkpt>
<trkpt lat="52.098163" lon="05.713760"><ele>34.7</ele><time>2021-03-01T10:30:27Z</time><name>PT1031</name></trkpt>
<trkpt lat="52.098155" lon="05.713761"><ele>34.8</ele><time>2021-03-01T10:30:28Z</time><name>PT1032</name></trkpt>
<trkpt lat="52.098151" lon="05.713759"><ele>34.7</ele><time>2021-03-01T10:30:29Z</time><name>PT1033</name></trkpt>
<trkpt lat="52.098149" lon="05.713758"><ele>34.6</ele><time>2021-03-01T10:30:30Z</time><name>PT1034</name></trkpt>
<trkpt lat="52.098147" lon="05.713760"><ele>34.7</ele><time>2021-03-01T10:30:31Z</time><name>PT1035</name></trkpt>
<trkpt lat="52.098140" lon="05.713759"><ele>34.6</ele><time>2021-03-01T10:30:32Z</time><name>PT1036</name></trkpt>
<trkpt lat="52.098134" lon="05.713757"><ele>34.5</ele><time>2021-03-01T10:30:33Z</time><name>PT1037</name></trkpt>
<trkpt lat="52.098128" lon="05.713755"><ele>34.6</ele><time>2021-03-01T10:30:34Z</time><name>PT1038</name></trkpt>
<trkpt lat="52.098119" lon="05.713752"><ele>34.5</ele><time>2021-03-01T10:30:35Z</time><name>PT1039</name></trkpt>
<trkpt lat="52.098100" lon="05.713755"><ele>34.4</ele><time>2021-03-01T10:30:36Z</time><name>PT1040</name></trkpt>
<trkpt lat="52.098095" lon="05.713755"><ele>34.5</ele><time>2021-03-01T10:30:37Z</time><name>PT1041</name></trkpt>
<trkpt lat="52.098089" lon="05.713758"><ele>34.3</ele><time>2021-03-01T10:30:38Z</time><name>PT1042</name></trkpt>
<trkpt lat="52.098085" lon="05.713759"><ele>34.3</ele><time>2021-03-01T10:30:39Z</time><name>PT1043</name></trkpt>
<trkpt lat="52.098078" lon="05.713759"><ele>34.5</ele><time>2021-03-01T10:30:40Z</time><name>PT1044</name></trkpt>
<trkpt lat="52.098070" lon="05.713757"><ele>34.4</ele><time>2021-03-01T10:30:41Z</time><name>PT1045</name></trkpt>
<trkpt lat="52.098063" lon="05.713753"><ele>34.3</ele><time>2021-03-01T10:30:42Z</time><name>PT1046</name></trkpt>
<trkpt lat="52.098055" lon="05.713751"><ele>34.3</ele><time>2021-03-01T10:30:43Z</time><name>PT1047</name></trkpt>
<trkpt lat="52.098050" lon="05.713753"><ele>34.2</ele><time>2021-03-01T10:30:44Z</time><name>PT1048</name></trkpt>
<trkpt lat="52.098045" lon="05.713750"><ele>34.1</ele><time>2021-03-01T10:30:45Z</time><name>PT1049</name></trkpt>
<trkpt lat="52.098038" lon="05.713745"><ele>34.1</ele><time>2021-03-01T10:30:46Z</time><name>PT1050</name></trkpt>
<trkpt lat="52.098031" lon="05.713744"><ele>34.2</ele><time>2021-03-01T10:30:47Z</time><name>PT1051</name></trkpt>
<trkpt lat="52.098024" lon="05.713742"><ele>34.2</ele><time>2021-03-01T10:30:48Z</time><name>PT1052</name></trkpt>
<trkpt lat="52.098018" lon="05.713741"><ele>34.2</ele><time>2021-03-01T10:30:49Z</time><name>PT1053</name></trkpt>
<trkpt lat="52.098011" lon="05.713739"><ele>34.2</ele><time>2021-03-01T10:30:50Z</time><name>PT1054</name></trkpt>
<trkpt lat="52.098005" lon="05.713733"><ele>34.2</ele><time>2021-03-01T10:30:51Z</time><name>PT1055</name></trkpt>
<trkpt lat="52.098002" lon="05.713733"><ele>34.2</ele><time>2021-03-01T10:30:52Z</time><name>PT1056</name></trkpt>
<trkpt lat="52.097997" lon="05.713727"><ele>34.1</ele><time>2021-03-01T10:30:53Z</time><name>PT1057</name></trkpt>
<trkpt lat="52.097989" lon="05.713724"><ele>34.1</ele><time>2021-03-01T10:30:54Z</time><name>PT1058</name></trkpt>
<trkpt lat="52.097980" lon="05.713721"><ele>34.1</ele><time>2021-03-01T10:30:55Z</time><name>PT1059</name></trkpt>
<trkpt lat="52.097973" lon="05.713719"><ele>34</ele><time>2021-03-01T10:30:56Z</time><name>PT1060</name></trkpt>
<trkpt lat="52.097963" lon="05.713716"><ele>34.1</ele><time>2021-03-01T10:30:57Z</time><name>PT1061</name></trkpt>
<trkpt lat="52.097954" lon="05.713711"><ele>34.1</ele><time>2021-03-01T10:30:58Z</time><name>PT1062</name></trkpt>
<trkpt lat="52.097946" lon="05.713712"><ele>34.1</ele><time>2021-03-01T10:30:59Z</time><name>PT1063</name></trkpt>
<trkpt lat="52.097941" lon="05.713712"><ele>34</ele><time>2021-03-01T10:31:00Z</time><name>PT1064</name></trkpt>
<trkpt lat="52.097937" lon="05.713708"><ele>33.7</ele><time>2021-03-01T10:31:01Z</time><name>PT1065</name></trkpt>
<trkpt lat="52.097933" lon="05.713707"><ele>33.5</ele><time>2021-03-01T10:31:02Z</time><name>PT1066</name></trkpt>
<trkpt lat="52.097928" lon="05.713702"><ele>33.5</ele><time>2021-03-01T10:31:03Z</time><name>PT1067</name></trkpt>
<trkpt lat="52.097922" lon="05.713695"><ele>33.5</ele><time>2021-03-01T10:31:04Z</time><name>PT1068</name></trkpt>
<trkpt lat="52.097912" lon="05.713691"><ele>33.6</ele><time>2021-03-01T10:31:05Z</time><name>PT1069</name></trkpt>
<trkpt lat="52.097902" lon="05.713689"><ele>33.6</ele><time>2021-03-01T10:31:06Z</time><name>PT1070</name></trkpt>
<trkpt lat="52.097891" lon="05.713687"><ele>33.5</ele><time>2021-03-01T10:31:07Z</time><name>PT1071</name></trkpt>
<trkpt lat="52.097880" lon="05.713687"><ele>33.5</ele><time>2021-03-01T10:31:08Z</time><name>PT1072</name></trkpt>
<trkpt lat="52.097873" lon="05.713684"><ele>33.5</ele><time>2021-03-01T10:31:09Z</time><name>PT1073</name></trkpt>
<trkpt lat="52.097868" lon="05.713685"><ele>33.4</ele><time>2021-03-01T10:31:10Z</time><name>PT1074</name></trkpt>
<trkpt lat="52.097866" lon="05.713691"><ele>33.3</ele><time>2021-03-01T10:31:11Z</time><name>PT1075</name></trkpt>
<trkpt lat="52.097864" lon="05.713694"><ele>33.2</ele><time>2021-03-01T10:31:12Z</time><name>PT1076</name></trkpt>
<trkpt lat="52.097863" lon="05.713695"><ele>33.2</ele><time>2021-03-01T10:31:13Z</time><name>PT1077</name></trkpt>
<trkpt lat="52.097857" lon="05.713693"><ele>33.9</ele><time>2021-03-01T10:32:02Z</time><name>PT1078</name></trkpt>
<trkpt lat="52.097839" lon="05.713693"><ele>33.7</ele><time>2021-03-01T10:32:03Z</time><name>PT1079</name></trkpt>
<trkpt lat="52.097824" lon="05.713689"><ele>33.7</ele><time>2021-03-01T10:32:04Z</time><name>PT1080</name></trkpt>
<trkpt lat="52.097812" lon="05.713681"><ele>33.7</ele><time>2021-03-01T10:32:05Z</time><name>PT1081</name></trkpt>
<trkpt lat="52.097800" lon="05.713679"><ele>33.5</ele><time>2021-03-01T10:32:06Z</time><name>PT1082</name></trkpt>
<trkpt lat="52.097787" lon="05.713675"><ele>33.5</ele><time>2021-03-01T10:32:07Z</time><name>PT1083</name></trkpt>
<trkpt lat="52.097777" lon="05.713680"><ele>33.4</ele><time>2021-03-01T10:32:08Z</time><name>PT1084</name></trkpt>
<trkpt lat="52.097770" lon="05.713686"><ele>33.2</ele><time>2021-03-01T10:32:09Z</time><name>PT1085</name></trkpt>
<trkpt lat="52.097759" lon="05.713702"><ele>33.1</ele><time>2021-03-01T10:32:10Z</time><name>PT1086</name></trkpt>
<trkpt lat="52.097757" lon="05.713710"><ele>33.2</ele><time>2021-03-01T10:32:11Z</time><name>PT1087</name></trkpt>
<trkpt lat="52.097748" lon="05.713716"><ele>33.3</ele><time>2021-03-01T10:32:12Z</time><name>PT1088</name></trkpt>
<trkpt lat="52.097737" lon="05.713728"><ele>33.3</ele><time>2021-03-01T10:32:13Z</time><name>PT1089</name></trkpt>
<trkpt lat="52.097728" lon="05.713731"><ele>33.4</ele><time>2021-03-01T10:32:14Z</time><name>PT1090</name></trkpt>
<trkpt lat="52.097719" lon="05.713734"><ele>33.3</ele><time>2021-03-01T10:32:15Z</time><name>PT1091</name></trkpt>
<trkpt lat="52.097710" lon="05.713733"><ele>33.2</ele><time>2021-03-01T10:32:16Z</time><name>PT1092</name></trkpt>
<trkpt lat="52.097702" lon="05.713731"><ele>33.1</ele><time>2021-03-01T10:32:17Z</time><name>PT1093</name></trkpt>
<trkpt lat="52.097695" lon="05.713732"><ele>33.1</ele><time>2021-03-01T10:32:18Z</time><name>PT1094</name></trkpt>
<trkpt lat="52.097691" lon="05.713730"><ele>33.3</ele><time>2021-03-01T10:32:19Z</time><name>PT1095</name></trkpt>
<trkpt lat="52.097688" lon="05.713732"><ele>33.3</ele><time>2021-03-01T10:32:20Z</time><name>PT1096</name></trkpt>
<trkpt lat="52.097686" lon="05.713736"><ele>33.3</ele><time>2021-03-01T10:32:21Z</time><name>PT1097</name></trkpt>
<trkpt lat="52.097687" lon="05.713735"><ele>33.5</ele><time>2021-03-01T10:32:22Z</time><name>PT1098</name></trkpt>
<trkpt lat="52.097686" lon="05.713735"><ele>33.6</ele><time>2021-03-01T10:32:25Z</time><name>PT1099</name></trkpt>
<trkpt lat="52.097681" lon="05.713740"><ele>33.5</ele><time>2021-03-01T10:32:26Z</time><name>PT1100</name></trkpt>
<trkpt lat="52.097674" lon="05.713739"><ele>33.7</ele><time>2021-03-01T10:32:27Z</time><name>PT1101</name></trkpt>
<trkpt lat="52.097666" lon="05.713741"><ele>33.9</ele><time>2021-03-01T10:32:28Z</time><name>PT1102</name></trkpt>
<trkpt lat="52.097655" lon="05.713741"><ele>33.7</ele><time>2021-03-01T10:32:29Z</time><name>PT1103</name></trkpt>
<trkpt lat="52.097644" lon="05.713737"><ele>33.7</ele><time>2021-03-01T10:32:30Z</time><name>PT1104</name></trkpt>
<trkpt lat="52.097637" lon="05.713742"><ele>33.6</ele><time>2021-03-01T10:32:31Z</time><name>PT1105</name></trkpt>
<trkpt lat="52.097629" lon="05.713747"><ele>33.3</ele><time>2021-03-01T10:32:32Z</time><name>PT1106</name></trkpt>
<trkpt lat="52.097621" lon="05.713747"><ele>33.4</ele><time>2021-03-01T10:32:33Z</time><name>PT1107</name></trkpt>
<trkpt lat="52.097607" lon="05.713754"><ele>33.4</ele><time>2021-03-01T10:32:34Z</time><name>PT1108</name></trkpt>
<trkpt lat="52.097597" lon="05.713755"><ele>33.4</ele><time>2021-03-01T10:32:35Z</time><name>PT1109</name></trkpt>
<trkpt lat="52.097585" lon="05.713756"><ele>33.7</ele><time>2021-03-01T10:32:36Z</time><name>PT1110</name></trkpt>
<trkpt lat="52.097576" lon="05.713755"><ele>33.7</ele><time>2021-03-01T10:32:37Z</time><name>PT1111</name></trkpt>
<trkpt lat="52.097569" lon="05.713756"><ele>33.7</ele><time>2021-03-01T10:32:38Z</time><name>PT1112</name></trkpt>
<trkpt lat="52.097557" lon="05.713760"><ele>33.7</ele><time>2021-03-01T10:32:39Z</time><name>PT1113</name></trkpt>
<trkpt lat="52.097548" lon="05.713767"><ele>33.7</ele><time>2021-03-01T10:32:40Z</time><name>PT1114</name></trkpt>
<trkpt lat="52.097540" lon="05.713771"><ele>33.7</ele><time>2021-03-01T10:32:41Z</time><name>PT1115</name></trkpt>
<trkpt lat="52.097536" lon="05.713776"><ele>33.7</ele><time>2021-03-01T10:32:42Z</time><name>PT1116</name></trkpt>
<trkpt lat="52.097534" lon="05.713780"><ele>33.7</ele><time>2021-03-01T10:32:43Z</time><name>PT1117</name></trkpt>
<trkpt lat="52.097532" lon="05.713781"><ele>33.7</ele><time>2021-03-01T10:32:44Z</time><name>PT1118</name></trkpt>
<trkpt lat="52.097522" lon="05.713785"><ele>34.1</ele><time>2021-03-01T10:32:57Z</time><name>PT1119</name></trkpt>
<trkpt lat="52.097510" lon="05.713790"><ele>34.1</ele><time>2021-03-01T10:32:58Z</time><name>PT1120</name></trkpt>
<trkpt lat="52.097499" lon="05.713796"><ele>34</ele><time>2021-03-01T10:32:59Z</time><name>PT1121</name></trkpt>
<trkpt lat="52.097491" lon="05.713807"><ele>33.8</ele><time>2021-03-01T10:33:00Z</time><name>PT1122</name></trkpt>
<trkpt lat="52.097485" lon="05.713820"><ele>33.7</ele><time>2021-03-01T10:33:01Z</time><name>PT1123</name></trkpt>
<trkpt lat="52.097472" lon="05.713824"><ele>33.7</ele><time>2021-03-01T10:33:02Z</time><name>PT1124</name></trkpt>
<trkpt lat="52.097460" lon="05.713828"><ele>33.5</ele><time>2021-03-01T10:33:03Z</time><name>PT1125</name></trkpt>
<trkpt lat="52.097449" lon="05.713832"><ele>33.4</ele><time>2021-03-01T10:33:04Z</time><name>PT1126</name></trkpt>
<trkpt lat="52.097440" lon="05.713833"><ele>33.3</ele><time>2021-03-01T10:33:05Z</time><name>PT1127</name></trkpt>
<trkpt lat="52.097430" lon="05.713837"><ele>33.5</ele><time>2021-03-01T10:33:06Z</time><name>PT1128</name></trkpt>
<trkpt lat="52.097418" lon="05.713829"><ele>33.6</ele><time>2021-03-01T10:33:07Z</time><name>PT1129</name></trkpt>
<trkpt lat="52.097406" lon="05.713820"><ele>33.6</ele><time>2021-03-01T10:33:08Z</time><name>PT1130</name></trkpt>
<trkpt lat="52.097391" lon="05.713818"><ele>33.6</ele><time>2021-03-01T10:33:09Z</time><name>PT1131</name></trkpt>
<trkpt lat="52.097377" lon="05.713812"><ele>33.7</ele><time>2021-03-01T10:33:10Z</time><name>PT1132</name></trkpt>
<trkpt lat="52.097362" lon="05.713811"><ele>33.5</ele><time>2021-03-01T10:33:11Z</time><name>PT1133</name></trkpt>
<trkpt lat="52.097347" lon="05.713813"><ele>33.4</ele><time>2021-03-01T10:33:12Z</time><name>PT1134</name></trkpt>
<trkpt lat="52.097338" lon="05.713809"><ele>33.3</ele><time>2021-03-01T10:33:13Z</time><name>PT1135</name></trkpt>
<trkpt lat="52.097328" lon="05.713808"><ele>33.2</ele><time>2021-03-01T10:33:14Z</time><name>PT1136</name></trkpt>
<trkpt lat="52.097323" lon="05.713817"><ele>33.2</ele><time>2021-03-01T10:33:15Z</time><name>PT1137</name></trkpt>
<trkpt lat="52.097314" lon="05.713840"><ele>33.2</ele><time>2021-03-01T10:33:16Z</time><name>PT1138</name></trkpt>
<trkpt lat="52.097314" lon="05.713862"><ele>33.3</ele><time>2021-03-01T10:33:17Z</time><name>PT1139</name></trkpt>
<trkpt lat="52.097308" lon="05.713885"><ele>33.3</ele><time>2021-03-01T10:33:18Z</time><name>PT1140</name></trkpt>
<trkpt lat="52.097306" lon="05.713905"><ele>33.3</ele><time>2021-03-01T10:33:19Z</time><name>PT1141</name></trkpt>
<trkpt lat="52.097306" lon="05.713929"><ele>33.2</ele><time>2021-03-01T10:33:20Z</time><name>PT1142</name></trkpt>
<trkpt lat="52.097305" lon="05.713946"><ele>33.2</ele><time>2021-03-01T10:33:21Z</time><name>PT1143</name></trkpt>
<trkpt lat="52.097304" lon="05.713968"><ele>33.1</ele><time>2021-03-01T10:33:22Z</time><name>PT1144</name></trkpt>
<trkpt lat="52.097304" lon="05.713989"><ele>33.2</ele><time>2021-03-01T10:33:23Z</time><name>PT1145</name></trkpt>
<trkpt lat="52.097308" lon="05.714006"><ele>33.3</ele><time>2021-03-01T10:33:24Z</time><name>PT1146</name></trkpt>
<trkpt lat="52.097316" lon="05.714021"><ele>33.3</ele><time>2021-03-01T10:33:25Z</time><name>PT1147</name></trkpt>
<trkpt lat="52.097317" lon="05.714041"><ele>33.5</ele><time>2021-03-01T10:33:26Z</time><name>PT1148</name></trkpt>
<trkpt lat="52.097315" lon="05.714053"><ele>33.5</ele><time>2021-03-01T10:33:27Z</time><name>PT1149</name></trkpt>
<trkpt lat="52.097314" lon="05.714079"><ele>33.7</ele><time>2021-03-01T10:33:28Z</time><name>PT1150</name></trkpt>
<trkpt lat="52.097317" lon="05.714104"><ele>33.5</ele><time>2021-03-01T10:33:29Z</time><name>PT1151</name></trkpt>
<trkpt lat="52.097320" lon="05.714128"><ele>33.6</ele><time>2021-03-01T10:33:30Z</time><name>PT1152</name></trkpt>
<trkpt lat="52.097319" lon="05.714152"><ele>33.5</ele><time>2021-03-01T10:33:31Z</time><name>PT1153</name></trkpt>
<trkpt lat="52.097321" lon="05.714179"><ele>33.4</ele><time>2021-03-01T10:33:32Z</time><name>PT1154</name></trkpt>
<trkpt lat="52.097326" lon="05.714199"><ele>33.6</ele><time>2021-03-01T10:33:33Z</time><name>PT1155</name></trkpt>
<trkpt lat="52.097327" lon="05.714221"><ele>33.4</ele><time>2021-03-01T10:33:34Z</time><name>PT1156</name></trkpt>
<trkpt lat="52.097327" lon="05.714243"><ele>33.4</ele><time>2021-03-01T10:33:35Z</time><name>PT1157</name></trkpt>
<trkpt lat="52.097327" lon="05.714263"><ele>33.3</ele><time>2021-03-01T10:33:36Z</time><name>PT1158</name></trkpt>
<trkpt lat="52.097330" lon="05.714285"><ele>33.2</ele><time>2021-03-01T10:33:37Z</time><name>PT1159</name></trkpt>
<trkpt lat="52.097333" lon="05.714308"><ele>33.3</ele><time>2021-03-01T10:33:38Z</time><name>PT1160</name></trkpt>
<trkpt lat="52.097334" lon="05.714329"><ele>33.3</ele><time>2021-03-01T10:33:39Z</time><name>PT1161</name></trkpt>
<trkpt lat="52.097339" lon="05.714352"><ele>33.4</ele><time>2021-03-01T10:33:40Z</time><name>PT1162</name></trkpt>
<trkpt lat="52.097343" lon="05.714371"><ele>33.5</ele><time>2021-03-01T10:33:41Z</time><name>PT1163</name></trkpt>
<trkpt lat="52.097346" lon="05.714393"><ele>33.6</ele><time>2021-03-01T10:33:42Z</time><name>PT1164</name></trkpt>
<trkpt lat="52.097350" lon="05.714409"><ele>33.4</ele><time>2021-03-01T10:33:43Z</time><name>PT1165</name></trkpt>
<trkpt lat="52.097354" lon="05.714423"><ele>33.6</ele><time>2021-03-01T10:33:44Z</time><name>PT1166</name></trkpt>
<trkpt lat="52.097358" lon="05.714445"><ele>33.7</ele><time>2021-03-01T10:33:45Z</time><name>PT1167</name></trkpt>
<trkpt lat="52.097363" lon="05.714468"><ele>33.7</ele><time>2021-03-01T10:33:46Z</time><name>PT1168</name></trkpt>
<trkpt lat="52.097366" lon="05.714488"><ele>33.7</ele><time>2021-03-01T10:33:47Z</time><name>PT1169</name></trkpt>
<trkpt lat="52.097371" lon="05.714508"><ele>33.7</ele><time>2021-03-01T10:33:48Z</time><name>PT1170</name></trkpt>
<trkpt lat="52.097377" lon="05.714522"><ele>33.6</ele><time>2021-03-01T10:33:49Z</time><name>PT1171</name></trkpt>
<trkpt lat="52.097386" lon="05.714540"><ele>33.5</ele><time>2021-03-01T10:33:50Z</time><name>PT1172</name></trkpt>
<trkpt lat="52.097394" lon="05.714558"><ele>33.4</ele><time>2021-03-01T10:33:51Z</time><name>PT1173</name></trkpt>
<trkpt lat="52.097398" lon="05.714576"><ele>33.3</ele><time>2021-03-01T10:33:52Z</time><name>PT1174</name></trkpt>
<trkpt lat="52.097402" lon="05.714597"><ele>33.3</ele><time>2021-03-01T10:33:53Z</time><name>PT1175</name></trkpt>
<trkpt lat="52.097407" lon="05.714617"><ele>33.3</ele><time>2021-03-01T10:33:54Z</time><name>PT1176</name></trkpt>
<trkpt lat="52.097411" lon="05.714636"><ele>33.3</ele><time>2021-03-01T10:33:55Z</time><name>PT1177</name></trkpt>
<trkpt lat="52.097410" lon="05.714656"><ele>33.5</ele><time>2021-03-01T10:33:56Z</time><name>PT1178</name></trkpt>
<trkpt lat="52.097412" lon="05.714675"><ele>33.3</ele><time>2021-03-01T10:33:57Z</time><name>PT1179</name></trkpt>
<trkpt lat="52.097416" lon="05.714696"><ele>33</ele><time>2021-03-01T10:33:58Z</time><name>PT1180</name></trkpt>
<trkpt lat="52.097414" lon="05.714728"><ele>33.1</ele><time>2021-03-01T10:33:59Z</time><name>PT1181</name></trkpt>
<trkpt lat="52.097413" lon="05.714744"><ele>32.8</ele><time>2021-03-01T10:34:00Z</time><name>PT1182</name></trkpt>
<trkpt lat="52.097407" lon="05.714759"><ele>33</ele><time>2021-03-01T10:34:01Z</time><name>PT1183</name></trkpt>
<trkpt lat="52.097404" lon="05.714764"><ele>33.3</ele><time>2021-03-01T10:34:02Z</time><name>PT1184</name></trkpt>
<trkpt lat="52.097402" lon="05.714769"><ele>33.4</ele><time>2021-03-01T10:34:03Z</time><name>PT1185</name></trkpt>
<trkpt lat="52.097401" lon="05.714775"><ele>33.5</ele><time>2021-03-01T10:34:04Z</time><name>PT1186</name></trkpt>
<trkpt lat="52.097397" lon="05.714798"><ele>33.7</ele><time>2021-03-01T10:34:11Z</time><name>PT1187</name></trkpt>
<trkpt lat="52.097401" lon="05.714831"><ele>33.7</ele><time>2021-03-01T10:34:12Z</time><name>PT1188</name></trkpt>
<trkpt lat="52.097407" lon="05.714857"><ele>33.7</ele><time>2021-03-01T10:34:13Z</time><name>PT1189</name></trkpt>
<trkpt lat="52.097410" lon="05.714875"><ele>33.5</ele><time>2021-03-01T10:34:14Z</time><name>PT1190</name></trkpt>
<trkpt lat="52.097411" lon="05.714893"><ele>33.5</ele><time>2021-03-01T10:34:15Z</time><name>PT1191</name></trkpt>
<trkpt lat="52.097411" lon="05.714915"><ele>33.3</ele><time>2021-03-01T10:34:16Z</time><name>PT1192</name></trkpt>
<trkpt lat="52.097415" lon="05.714935"><ele>33.5</ele><time>2021-03-01T10:34:17Z</time><name>PT1193</name></trkpt>
<trkpt lat="52.097421" lon="05.714950"><ele>33.7</ele><time>2021-03-01T10:34:18Z</time><name>PT1194</name></trkpt>
<trkpt lat="52.097426" lon="05.714964"><ele>33.3</ele><time>2021-03-01T10:34:19Z</time><name>PT1195</name></trkpt>
<trkpt lat="52.097426" lon="05.714981"><ele>33.4</ele><time>2021-03-01T10:34:20Z</time><name>PT1196</name></trkpt>
<trkpt lat="52.097423" lon="05.714986"><ele>33.5</ele><time>2021-03-01T10:34:21Z</time><name>PT1197</name></trkpt>
<trkpt lat="52.097421" lon="05.714992"><ele>33.6</ele><time>2021-03-01T10:34:22Z</time><name>PT1198</name></trkpt>
<trkpt lat="52.097420" lon="05.714993"><ele>33.6</ele><time>2021-03-01T10:34:23Z</time><name>PT1199</name></trkpt>
<trkpt lat="52.097420" lon="05.714995"><ele>33.6</ele><time>2021-03-01T10:34:24Z</time><name>PT1200</name></trkpt>
<trkpt lat="52.097416" lon="05.715020"><ele>33.7</ele><time>2021-03-01T10:34:28Z</time><name>PT1201</name></trkpt>
<trkpt lat="52.097414" lon="05.715036"><ele>33.7</ele><time>2021-03-01T10:34:29Z</time><name>PT1202</name></trkpt>
<trkpt lat="52.097420" lon="05.715065"><ele>33.7</ele><time>2021-03-01T10:34:30Z</time><name>PT1203</name></trkpt>
<trkpt lat="52.097424" lon="05.715087"><ele>33.5</ele><time>2021-03-01T10:34:31Z</time><name>PT1204</name></trkpt>
<trkpt lat="52.097428" lon="05.715101"><ele>33.5</ele><time>2021-03-01T10:34:32Z</time><name>PT1205</name></trkpt>
<trkpt lat="52.097433" lon="05.715111"><ele>33.4</ele><time>2021-03-01T10:34:33Z</time><name>PT1206</name></trkpt>
<trkpt lat="52.097438" lon="05.715129"><ele>33.3</ele><time>2021-03-01T10:34:34Z</time><name>PT1207</name></trkpt>
<trkpt lat="52.097443" lon="05.715155"><ele>33.5</ele><time>2021-03-01T10:34:35Z</time><name>PT1208</name></trkpt>
<trkpt lat="52.097449" lon="05.715176"><ele>33.6</ele><time>2021-03-01T10:34:36Z</time><name>PT1209</name></trkpt>
<trkpt lat="52.097455" lon="05.715200"><ele>33.6</ele><time>2021-03-01T10:34:37Z</time><name>PT1210</name></trkpt>
<trkpt lat="52.097458" lon="05.715217"><ele>33.7</ele><time>2021-03-01T10:34:38Z</time><name>PT1211</name></trkpt>
<trkpt lat="52.097462" lon="05.715237"><ele>33.7</ele><time>2021-03-01T10:34:39Z</time><name>PT1212</name></trkpt>
<trkpt lat="52.097463" lon="05.715256"><ele>33.6</ele><time>2021-03-01T10:34:40Z</time><name>PT1213</name></trkpt>
<trkpt lat="52.097465" lon="05.715271"><ele>33.6</ele><time>2021-03-01T10:34:41Z</time><name>PT1214</name></trkpt>
<trkpt lat="52.097465" lon="05.715287"><ele>33.3</ele><time>2021-03-01T10:34:42Z</time><name>PT1215</name></trkpt>
<trkpt lat="52.097469" lon="05.715297"><ele>33.4</ele><time>2021-03-01T10:34:43Z</time><name>PT1216</name></trkpt>
<trkpt lat="52.097471" lon="05.715316"><ele>33.5</ele><time>2021-03-01T10:34:44Z</time><name>PT1217</name></trkpt>
<trkpt lat="52.097474" lon="05.715331"><ele>33.4</ele><time>2021-03-01T10:34:45Z</time><name>PT1218</name></trkpt>
<trkpt lat="52.097477" lon="05.715353"><ele>33.6</ele><time>2021-03-01T10:34:46Z</time><name>PT1219</name></trkpt>
<trkpt lat="52.097479" lon="05.715371"><ele>33.5</ele><time>2021-03-01T10:34:47Z</time><name>PT1220</name></trkpt>
<trkpt lat="52.097482" lon="05.715389"><ele>33.5</ele><time>2021-03-01T10:34:48Z</time><name>PT1221</name></trkpt>
<trkpt lat="52.097487" lon="05.715403"><ele>33.7</ele><time>2021-03-01T10:34:49Z</time><name>PT1222</name></trkpt>
<trkpt lat="52.097496" lon="05.715411"><ele>33.5</ele><time>2021-03-01T10:34:50Z</time><name>PT1223</name></trkpt>
<trkpt lat="52.097497" lon="05.715426"><ele>33.4</ele><time>2021-03-01T10:34:51Z</time><name>PT1224</name></trkpt>
<trkpt lat="52.097499" lon="05.715441"><ele>33.3</ele><time>2021-03-01T10:34:52Z</time><name>PT1225</name></trkpt>
<trkpt lat="52.097505" lon="05.715450"><ele>33.3</ele><time>2021-03-01T10:34:53Z</time><name>PT1226</name></trkpt>
<trkpt lat="52.097511" lon="05.715459"><ele>33.3</ele><time>2021-03-01T10:34:54Z</time><name>PT1227</name></trkpt>
<trkpt lat="52.097513" lon="05.715467"><ele>33.3</ele><time>2021-03-01T10:34:55Z</time><name>PT1228</name></trkpt>
<trkpt lat="52.097522" lon="05.715470"><ele>33.4</ele><time>2021-03-01T10:34:56Z</time><name>PT1229</name></trkpt>
<trkpt lat="52.097527" lon="05.715479"><ele>33.4</ele><time>2021-03-01T10:34:57Z</time><name>PT1230</name></trkpt>
<trkpt lat="52.097527" lon="05.715497"><ele>33.4</ele><time>2021-03-01T10:34:58Z</time><name>PT1231</name></trkpt>
<trkpt lat="52.097527" lon="05.715503"><ele>33.3</ele><time>2021-03-01T10:34:59Z</time><name>PT1232</name></trkpt>
<trkpt lat="52.097528" lon="05.715511"><ele>33.3</ele><time>2021-03-01T10:35:00Z</time><name>PT1233</name></trkpt>
<trkpt lat="52.097524" lon="05.715526"><ele>33.3</ele><time>2021-03-01T10:35:01Z</time><name>PT1234</name></trkpt>
<trkpt lat="52.097522" lon="05.715536"><ele>33.3</ele><time>2021-03-01T10:35:02Z</time><name>PT1235</name></trkpt>
<trkpt lat="52.097519" lon="05.715546"><ele>33.4</ele><time>2021-03-01T10:35:03Z</time><name>PT1236</name></trkpt>
<trkpt lat="52.097519" lon="05.715558"><ele>33.6</ele><time>2021-03-01T10:35:04Z</time><name>PT1237</name></trkpt>
<trkpt lat="52.097518" lon="05.715567"><ele>33.5</ele><time>2021-03-01T10:35:05Z</time><name>PT1238</name></trkpt>
<trkpt lat="52.097517" lon="05.715578"><ele>33.6</ele><time>2021-03-01T10:35:06Z</time><name>PT1239</name></trkpt>
<trkpt lat="52.097531" lon="05.715596"><ele>33.9</ele><time>2021-03-01T10:35:30Z</time><name>PT1240</name></trkpt>
<trkpt lat="52.097545" lon="05.715616"><ele>34.2</ele><time>2021-03-01T10:35:31Z</time><name>PT1241</name></trkpt>
<trkpt lat="52.097549" lon="05.715637"><ele>34</ele><time>2021-03-01T10:35:32Z</time><name>PT1242</name></trkpt>
<trkpt lat="52.097546" lon="05.715642"><ele>33.7</ele><time>2021-03-01T10:38:05Z</time><name>PT1243</name></trkpt>
<trkpt lat="52.097542" lon="05.715648"><ele>33.7</ele><time>2021-03-01T10:38:06Z</time><name>PT1244</name></trkpt>
<trkpt lat="52.097537" lon="05.715652"><ele>33.7</ele><time>2021-03-01T10:38:07Z</time><name>PT1245</name></trkpt>
<trkpt lat="52.097527" lon="05.715664"><ele>33.7</ele><time>2021-03-01T10:38:08Z</time><name>PT1246</name></trkpt>
<trkpt lat="52.097519" lon="05.715673"><ele>33.6</ele><time>2021-03-01T10:38:09Z</time><name>PT1247</name></trkpt>
<trkpt lat="52.097508" lon="05.715680"><ele>33.6</ele><time>2021-03-01T10:38:10Z</time><name>PT1248</name></trkpt>
<trkpt lat="52.097497" lon="05.715681"><ele>33.5</ele><time>2021-03-01T10:38:11Z</time><name>PT1249</name></trkpt>
<trkpt lat="52.097485" lon="05.715687"><ele>33.5</ele><time>2021-03-01T10:38:12Z</time><name>PT1250</name></trkpt>
<trkpt lat="52.097477" lon="05.715689"><ele>33.7</ele><time>2021-03-01T10:38:14Z</time><name>PT1251</name></trkpt>
<trkpt lat="52.097468" lon="05.715691"><ele>33.7</ele><time>2021-03-01T10:38:14Z</time><name>PT1252</name></trkpt>
<trkpt lat="52.097460" lon="05.715693"><ele>33.5</ele><time>2021-03-01T10:38:15Z</time><name>PT1253</name></trkpt>
<trkpt lat="52.097448" lon="05.715696"><ele>33.4</ele><time>2021-03-01T10:38:16Z</time><name>PT1254</name></trkpt>
<trkpt lat="52.097432" lon="05.715704"><ele>33.3</ele><time>2021-03-01T10:38:17Z</time><name>PT1255</name></trkpt>
<trkpt lat="52.097420" lon="05.715707"><ele>33.1</ele><time>2021-03-01T10:38:19Z</time><name>PT1256</name></trkpt>
<trkpt lat="52.097409" lon="05.715705"><ele>33</ele><time>2021-03-01T10:38:19Z</time><name>PT1257</name></trkpt>
<trkpt lat="52.097400" lon="05.715707"><ele>33.1</ele><time>2021-03-01T10:38:20Z</time><name>PT1258</name></trkpt>
<trkpt lat="52.097394" lon="05.715716"><ele>33.1</ele><time>2021-03-01T10:38:21Z</time><name>PT1259</name></trkpt>
<trkpt lat="52.097385" lon="05.715723"><ele>33.3</ele><time>2021-03-01T10:38:22Z</time><name>PT1260</name></trkpt>
<trkpt lat="52.097379" lon="05.715731"><ele>33.4</ele><time>2021-03-01T10:38:23Z</time><name>PT1261</name></trkpt>
<trkpt lat="52.097374" lon="05.715729"><ele>33.6</ele><time>2021-03-01T10:38:24Z</time><name>PT1262</name></trkpt>
<trkpt lat="52.097371" lon="05.715731"><ele>33.7</ele><time>2021-03-01T10:38:25Z</time><name>PT1263</name></trkpt>
<trkpt lat="52.097372" lon="05.715735"><ele>33.8</ele><time>2021-03-01T10:38:26Z</time><name>PT1264</name></trkpt>
<trkpt lat="52.097373" lon="05.715738"><ele>33.8</ele><time>2021-03-01T10:38:27Z</time><name>PT1265</name></trkpt>
<trkpt lat="52.097373" lon="05.715738"><ele>33.7</ele><time>2021-03-01T10:38:28Z</time><name>PT1266</name></trkpt>
<trkpt lat="52.097373" lon="05.715737"><ele>33.6</ele><time>2021-03-01T10:38:29Z</time><name>PT1267</name></trkpt>
<trkpt lat="52.097372" lon="05.715738"><ele>33.3</ele><time>2021-03-01T10:38:30Z</time><name>PT1268</name></trkpt>
<trkpt lat="52.097352" lon="05.715756"><ele>33.3</ele><time>2021-03-01T10:40:10Z</time><name>PT1269</name></trkpt>
<trkpt lat="52.097333" lon="05.715768"><ele>33.3</ele><time>2021-03-01T10:40:11Z</time><name>PT1270</name></trkpt>
<trkpt lat="52.097322" lon="05.715771"><ele>33.2</ele><time>2021-03-01T10:40:12Z</time><name>PT1271</name></trkpt>
<trkpt lat="52.097317" lon="05.715775"><ele>33.2</ele><time>2021-03-01T10:40:13Z</time><name>PT1272</name></trkpt>
<trkpt lat="52.097313" lon="05.715781"><ele>33.1</ele><time>2021-03-01T10:40:14Z</time><name>PT1273</name></trkpt>
<trkpt lat="52.097299" lon="05.715783"><ele>33.2</ele><time>2021-03-01T10:40:15Z</time><name>PT1274</name></trkpt>
<trkpt lat="52.097286" lon="05.715783"><ele>33.2</ele><time>2021-03-01T10:40:16Z</time><name>PT1275</name></trkpt>
<trkpt lat="52.097274" lon="05.715791"><ele>33.2</ele><time>2021-03-01T10:40:17Z</time><name>PT1276</name></trkpt>
<trkpt lat="52.097264" lon="05.715799"><ele>33</ele><time>2021-03-01T10:40:18Z</time><name>PT1277</name></trkpt>
<trkpt lat="52.097256" lon="05.715807"><ele>32.8</ele><time>2021-03-01T10:40:19Z</time><name>PT1278</name></trkpt>
<trkpt lat="52.097245" lon="05.715805"><ele>32.7</ele><time>2021-03-01T10:40:20Z</time><name>PT1279</name></trkpt>
<trkpt lat="52.097235" lon="05.715806"><ele>32.5</ele><time>2021-03-01T10:40:21Z</time><name>PT1280</name></trkpt>
<trkpt lat="52.097225" lon="05.715809"><ele>32.4</ele><time>2021-03-01T10:40:22Z</time><name>PT1281</name></trkpt>
<trkpt lat="52.097216" lon="05.715813"><ele>32.2</ele><time>2021-03-01T10:40:23Z</time><name>PT1282</name></trkpt>
<trkpt lat="52.097210" lon="05.715820"><ele>32.4</ele><time>2021-03-01T10:40:24Z</time><name>PT1283</name></trkpt>
<trkpt lat="52.097199" lon="05.715821"><ele>32.4</ele><time>2021-03-01T10:40:25Z</time><name>PT1284</name></trkpt>
<trkpt lat="52.097189" lon="05.715822"><ele>32.5</ele><time>2021-03-01T10:40:26Z</time><name>PT1285</name></trkpt>
<trkpt lat="52.097178" lon="05.715816"><ele>33</ele><time>2021-03-01T10:40:27Z</time><name>PT1286</name></trkpt>
<trkpt lat="52.097163" lon="05.715811"><ele>33.4</ele><time>2021-03-01T10:40:28Z</time><name>PT1287</name></trkpt>
<trkpt lat="52.097152" lon="05.715818"><ele>33.5</ele><time>2021-03-01T10:40:29Z</time><name>PT1288</name></trkpt>
<trkpt lat="52.097142" lon="05.715817"><ele>33.3</ele><time>2021-03-01T10:40:30Z</time><name>PT1289</name></trkpt>
<trkpt lat="52.097129" lon="05.715814"><ele>33</ele><time>2021-03-01T10:40:31Z</time><name>PT1290</name></trkpt>
<trkpt lat="52.097114" lon="05.715821"><ele>32.8</ele><time>2021-03-01T10:40:32Z</time><name>PT1291</name></trkpt>
<trkpt lat="52.097107" lon="05.715820"><ele>32.3</ele><time>2021-03-01T10:40:33Z</time><name>PT1292</name></trkpt>
<trkpt lat="52.097098" lon="05.715816"><ele>32.4</ele><time>2021-03-01T10:40:34Z</time><name>PT1293</name></trkpt>
<trkpt lat="52.097086" lon="05.715813"><ele>32.7</ele><time>2021-03-01T10:40:35Z</time><name>PT1294</name></trkpt>
<trkpt lat="52.097076" lon="05.715813"><ele>32.8</ele><time>2021-03-01T10:40:36Z</time><name>PT1295</name></trkpt>
<trkpt lat="52.097062" lon="05.715809"><ele>32.9</ele><time>2021-03-01T10:40:37Z</time><name>PT1296</name></trkpt>
<trkpt lat="52.097053" lon="05.715801"><ele>33.2</ele><time>2021-03-01T10:40:38Z</time><name>PT1297</name></trkpt>
<trkpt lat="52.097039" lon="05.715797"><ele>33.1</ele><time>2021-03-01T10:40:39Z</time><name>PT1298</name></trkpt>
<trkpt lat="52.097029" lon="05.715790"><ele>33.3</ele><time>2021-03-01T10:40:40Z</time><name>PT1299</name></trkpt>
<trkpt lat="52.097018" lon="05.715782"><ele>33.4</ele><time>2021-03-01T10:40:41Z</time><name>PT1300</name></trkpt>
<trkpt lat="52.097010" lon="05.715783"><ele>33.5</ele><time>2021-03-01T10:40:42Z</time><name>PT1301</name></trkpt>
<trkpt lat="52.096999" lon="05.715783"><ele>33.3</ele><time>2021-03-01T10:40:43Z</time><name>PT1302</name></trkpt>
<trkpt lat="52.096988" lon="05.715772"><ele>33.4</ele><time>2021-03-01T10:40:44Z</time><name>PT1303</name></trkpt>
<trkpt lat="52.096974" lon="05.715762"><ele>33.4</ele><time>2021-03-01T10:40:45Z</time><name>PT1304</name></trkpt>
<trkpt lat="52.096961" lon="05.715759"><ele>33.3</ele><time>2021-03-01T10:40:46Z</time><name>PT1305</name></trkpt>
<trkpt lat="52.096949" lon="05.715759"><ele>33.3</ele><time>2021-03-01T10:40:47Z</time><name>PT1306</name></trkpt>
<trkpt lat="52.096939" lon="05.715759"><ele>33.4</ele><time>2021-03-01T10:40:48Z</time><name>PT1307</name></trkpt>
<trkpt lat="52.096924" lon="05.715767"><ele>33.3</ele><time>2021-03-01T10:40:49Z</time><name>PT1308</name></trkpt>
<trkpt lat="52.096916" lon="05.715766"><ele>33.3</ele><time>2021-03-01T10:40:50Z</time><name>PT1309</name></trkpt>
<trkpt lat="52.096910" lon="05.715764"><ele>33.3</ele><time>2021-03-01T10:40:51Z</time><name>PT1310</name></trkpt>
<trkpt lat="52.096901" lon="05.715767"><ele>33.2</ele><time>2021-03-01T10:40:52Z</time><name>PT1311</name></trkpt>
<trkpt lat="52.096895" lon="05.715764"><ele>33.2</ele><time>2021-03-01T10:40:53Z</time><name>PT1312</name></trkpt>
<trkpt lat="52.096887" lon="05.715755"><ele>33.1</ele><time>2021-03-01T10:40:54Z</time><name>PT1313</name></trkpt>
<trkpt lat="52.096878" lon="05.715748"><ele>33.2</ele><time>2021-03-01T10:40:55Z</time><name>PT1314</name></trkpt>
<trkpt lat="52.096873" lon="05.715745"><ele>33.3</ele><time>2021-03-01T10:40:56Z</time><name>PT1315</name></trkpt>
<trkpt lat="52.096871" lon="05.715739"><ele>33.5</ele><time>2021-03-01T10:40:57Z</time><name>PT1316</name></trkpt>
<trkpt lat="52.096869" lon="05.715734"><ele>33.6</ele><time>2021-03-01T10:40:58Z</time><name>PT1317</name></trkpt>
<trkpt lat="52.096869" lon="05.715732"><ele>33.7</ele><time>2021-03-01T10:40:59Z</time><name>PT1318</name></trkpt>
<trkpt lat="52.096869" lon="05.715730"><ele>33.7</ele><time>2021-03-01T10:41:00Z</time><name>PT1319</name></trkpt>
<trkpt lat="52.096860" lon="05.715727"><ele>32.9</ele><time>2021-03-01T10:41:11Z</time><name>PT1320</name></trkpt>
<trkpt lat="52.096844" lon="05.715707"><ele>32.9</ele><time>2021-03-01T10:41:12Z</time><name>PT1321</name></trkpt>
<trkpt lat="52.096827" lon="05.715687"><ele>32.8</ele><time>2021-03-01T10:41:13Z</time><name>PT1322</name></trkpt>
<trkpt lat="52.096813" lon="05.715679"><ele>32.7</ele><time>2021-03-01T10:41:14Z</time><name>PT1323</name></trkpt>
<trkpt lat="52.096798" lon="05.715675"><ele>32.4</ele><time>2021-03-01T10:41:15Z</time><name>PT1324</name></trkpt>
<trkpt lat="52.096788" lon="05.715676"><ele>32.5</ele><time>2021-03-01T10:41:16Z</time><name>PT1325</name></trkpt>
<trkpt lat="52.096774" lon="05.715677"><ele>32.6</ele><time>2021-03-01T10:41:17Z</time><name>PT1326</name></trkpt>
<trkpt lat="52.096764" lon="05.715677"><ele>32.8</ele><time>2021-03-01T10:41:18Z</time><name>PT1327</name></trkpt>
<trkpt lat="52.096753" lon="05.715679"><ele>32.8</ele><time>2021-03-01T10:41:19Z</time><name>PT1328</name></trkpt>
<trkpt lat="52.096744" lon="05.715679"><ele>32.8</ele><time>2021-03-01T10:41:20Z</time><name>PT1329</name></trkpt>
<trkpt lat="52.096733" lon="05.715672"><ele>33.1</ele><time>2021-03-01T10:41:21Z</time><name>PT1330</name></trkpt>
<trkpt lat="52.096723" lon="05.715668"><ele>33.3</ele><time>2021-03-01T10:41:22Z</time><name>PT1331</name></trkpt>
<trkpt lat="52.096711" lon="05.715666"><ele>33.3</ele><time>2021-03-01T10:41:23Z</time><name>PT1332</name></trkpt>
<trkpt lat="52.096703" lon="05.715661"><ele>33.6</ele><time>2021-03-01T10:41:24Z</time><name>PT1333</name></trkpt>
<trkpt lat="52.096690" lon="05.715660"><ele>33.7</ele><time>2021-03-01T10:41:25Z</time><name>PT1334</name></trkpt>
<trkpt lat="52.096683" lon="05.715654"><ele>33.7</ele><time>2021-03-01T10:41:26Z</time><name>PT1335</name></trkpt>
<trkpt lat="52.096673" lon="05.715643"><ele>33.7</ele><time>2021-03-01T10:41:27Z</time><name>PT1336</name></trkpt>
<trkpt lat="52.096667" lon="05.715642"><ele>33.7</ele><time>2021-03-01T10:41:28Z</time><name>PT1337</name></trkpt>
<trkpt lat="52.096660" lon="05.715640"><ele>33.7</ele><time>2021-03-01T10:41:29Z</time><name>PT1338</name></trkpt>
<trkpt lat="52.096651" lon="05.715635"><ele>33.7</ele><time>2021-03-01T10:41:30Z</time><name>PT1339</name></trkpt>
<trkpt lat="52.096647" lon="05.715631"><ele>33.8</ele><time>2021-03-01T10:41:32Z</time><name>PT1340</name></trkpt>
<trkpt lat="52.096636" lon="05.715627"><ele>33.9</ele><time>2021-03-01T10:41:32Z</time><name>PT1341</name></trkpt>
<trkpt lat="52.096626" lon="05.715624"><ele>34</ele><time>2021-03-01T10:41:33Z</time><name>PT1342</name></trkpt>
<trkpt lat="52.096619" lon="05.715619"><ele>34</ele><time>2021-03-01T10:41:34Z</time><name>PT1343</name></trkpt>
<trkpt lat="52.096609" lon="05.715612"><ele>34</ele><time>2021-03-01T10:41:35Z</time><name>PT1344</name></trkpt>
<trkpt lat="52.096600" lon="05.715607"><ele>34.1</ele><time>2021-03-01T10:41:36Z</time><name>PT1345</name></trkpt>
<trkpt lat="52.096589" lon="05.715603"><ele>34</ele><time>2021-03-01T10:41:38Z</time><name>PT1346</name></trkpt>
<trkpt lat="52.096576" lon="05.715588"><ele>33.9</ele><time>2021-03-01T10:41:38Z</time><name>PT1347</name></trkpt>
<trkpt lat="52.096570" lon="05.715585"><ele>33.8</ele><time>2021-03-01T10:41:39Z</time><name>PT1348</name></trkpt>
<trkpt lat="52.096563" lon="05.715583"><ele>33.8</ele><time>2021-03-01T10:41:40Z</time><name>PT1349</name></trkpt>
<trkpt lat="52.096552" lon="05.715579"><ele>33.8</ele><time>2021-03-01T10:41:41Z</time><name>PT1350</name></trkpt>
<trkpt lat="52.096534" lon="05.715572"><ele>33.7</ele><time>2021-03-01T10:41:42Z</time><name>PT1351</name></trkpt>
<trkpt lat="52.096520" lon="05.715564"><ele>33.6</ele><time>2021-03-01T10:41:43Z</time><name>PT1352</name></trkpt>
<trkpt lat="52.096504" lon="05.715555"><ele>33.7</ele><time>2021-03-01T10:41:44Z</time><name>PT1353</name></trkpt>
<trkpt lat="52.096491" lon="05.715551"><ele>33.7</ele><time>2021-03-01T10:41:45Z</time><name>PT1354</name></trkpt>
<trkpt lat="52.096487" lon="05.715544"><ele>33.7</ele><time>2021-03-01T10:41:46Z</time><name>PT1355</name></trkpt>
<trkpt lat="52.096472" lon="05.715540"><ele>33.8</ele><time>2021-03-01T10:41:47Z</time><name>PT1356</name></trkpt>
<trkpt lat="52.096462" lon="05.715522"><ele>33.7</ele><time>2021-03-01T10:41:48Z</time><name>PT1357</name></trkpt>
<trkpt lat="52.096446" lon="05.715492"><ele>33.5</ele><time>2021-03-01T10:41:49Z</time><name>PT1358</name></trkpt>
<trkpt lat="52.096436" lon="05.715481"><ele>33.4</ele><time>2021-03-01T10:41:50Z</time><name>PT1359</name></trkpt>
<trkpt lat="52.096427" lon="05.715464"><ele>33.4</ele><time>2021-03-01T10:41:51Z</time><name>PT1360</name></trkpt>
<trkpt lat="52.096416" lon="05.715447"><ele>33.2</ele><time>2021-03-01T10:41:52Z</time><name>PT1361</name></trkpt>
<trkpt lat="52.096405" lon="05.715430"><ele>33.2</ele><time>2021-03-01T10:41:53Z</time><name>PT1362</name></trkpt>
<trkpt lat="52.096396" lon="05.715417"><ele>33.1</ele><time>2021-03-01T10:41:54Z</time><name>PT1363</name></trkpt>
<trkpt lat="52.096386" lon="05.715402"><ele>33.2</ele><time>2021-03-01T10:41:55Z</time><name>PT1364</name></trkpt>
<trkpt lat="52.096373" lon="05.715384"><ele>33.3</ele><time>2021-03-01T10:41:56Z</time><name>PT1365</name></trkpt>
<trkpt lat="52.096359" lon="05.715361"><ele>33.5</ele><time>2021-03-01T10:41:57Z</time><name>PT1366</name></trkpt>
<trkpt lat="52.096349" lon="05.715345"><ele>33.4</ele><time>2021-03-01T10:41:58Z</time><name>PT1367</name></trkpt>
<trkpt lat="52.096336" lon="05.715331"><ele>33.4</ele><time>2021-03-01T10:41:59Z</time><name>PT1368</name></trkpt>
<trkpt lat="52.096324" lon="05.715314"><ele>33.4</ele><time>2021-03-01T10:42:00Z</time><name>PT1369</name></trkpt>
<trkpt lat="52.096308" lon="05.715296"><ele>33.3</ele><time>2021-03-01T10:42:01Z</time><name>PT1370</name></trkpt>
<trkpt lat="52.096292" lon="05.715283"><ele>33.3</ele><time>2021-03-01T10:42:02Z</time><name>PT1371</name></trkpt>
<trkpt lat="52.096278" lon="05.715274"><ele>33.3</ele><time>2021-03-01T10:42:03Z</time><name>PT1372</name></trkpt>
<trkpt lat="52.096266" lon="05.715266"><ele>33.2</ele><time>2021-03-01T10:42:04Z</time><name>PT1373</name></trkpt>
<trkpt lat="52.096254" lon="05.715252"><ele>33.2</ele><time>2021-03-01T10:42:05Z</time><name>PT1374</name></trkpt>
<trkpt lat="52.096243" lon="05.715247"><ele>33.1</ele><time>2021-03-01T10:42:06Z</time><name>PT1375</name></trkpt>
<trkpt lat="52.096235" lon="05.715238"><ele>33</ele><time>2021-03-01T10:42:07Z</time><name>PT1376</name></trkpt>
<trkpt lat="52.096229" lon="05.715228"><ele>33.2</ele><time>2021-03-01T10:42:08Z</time><name>PT1377</name></trkpt>
<trkpt lat="52.096223" lon="05.715218"><ele>33.5</ele><time>2021-03-01T10:42:09Z</time><name>PT1378</name></trkpt>
<trkpt lat="52.096214" lon="05.715208"><ele>33.7</ele><time>2021-03-01T10:42:10Z</time><name>PT1379</name></trkpt>
<trkpt lat="52.096211" lon="05.715203"><ele>34</ele><time>2021-03-01T10:42:11Z</time><name>PT1380</name></trkpt>
<trkpt lat="52.096204" lon="05.715191"><ele>33.7</ele><time>2021-03-01T10:42:12Z</time><name>PT1381</name></trkpt>
<trkpt lat="52.096198" lon="05.715184"><ele>33.4</ele><time>2021-03-01T10:42:13Z</time><name>PT1382</name></trkpt>
<trkpt lat="52.096184" lon="05.715185"><ele>33.3</ele><time>2021-03-01T10:42:14Z</time><name>PT1383</name></trkpt>
<trkpt lat="52.096178" lon="05.715185"><ele>33.3</ele><time>2021-03-01T10:42:15Z</time><name>PT1384</name></trkpt>
<trkpt lat="52.096176" lon="05.715184"><ele>33.3</ele><time>2021-03-01T10:42:16Z</time><name>PT1385</name></trkpt>
<trkpt lat="52.096175" lon="05.715179"><ele>33.8</ele><time>2021-03-01T10:42:17Z</time><name>PT1386</name></trkpt>
<trkpt lat="52.096173" lon="05.715177"><ele>33.3</ele><time>2021-03-01T10:42:22Z</time><name>PT1387</name></trkpt>
<trkpt lat="52.096164" lon="05.715169"><ele>33.3</ele><time>2021-03-01T10:42:23Z</time><name>PT1388</name></trkpt>
<trkpt lat="52.096154" lon="05.715162"><ele>33.2</ele><time>2021-03-01T10:42:24Z</time><name>PT1389</name></trkpt>
<trkpt lat="52.096144" lon="05.715152"><ele>33.2</ele><time>2021-03-01T10:42:25Z</time><name>PT1390</name></trkpt>
<trkpt lat="52.096132" lon="05.715129"><ele>33.2</ele><time>2021-03-01T10:42:26Z</time><name>PT1391</name></trkpt>
<trkpt lat="52.096123" lon="05.715115"><ele>33</ele><time>2021-03-01T10:42:27Z</time><name>PT1392</name></trkpt>
<trkpt lat="52.096118" lon="05.715101"><ele>32.8</ele><time>2021-03-01T10:42:28Z</time><name>PT1393</name></trkpt>
<trkpt lat="52.096108" lon="05.715087"><ele>32.6</ele><time>2021-03-01T10:42:29Z</time><name>PT1394</name></trkpt>
<trkpt lat="52.096100" lon="05.715077"><ele>32.4</ele><time>2021-03-01T10:42:30Z</time><name>PT1395</name></trkpt>
<trkpt lat="52.096093" lon="05.715075"><ele>32</ele><time>2021-03-01T10:42:31Z</time><name>PT1396</name></trkpt>
<trkpt lat="52.096087" lon="05.715072"><ele>32.1</ele><time>2021-03-01T10:42:32Z</time><name>PT1397</name></trkpt>
<trkpt lat="52.096077" lon="05.715067"><ele>32.1</ele><time>2021-03-01T10:42:33Z</time><name>PT1398</name></trkpt>
<trkpt lat="52.096070" lon="05.715062"><ele>32.3</ele><time>2021-03-01T10:42:34Z</time><name>PT1399</name></trkpt>
<trkpt lat="52.096059" lon="05.715051"><ele>32.4</ele><time>2021-03-01T10:42:35Z</time><name>PT1400</name></trkpt>
<trkpt lat="52.096051" lon="05.715042"><ele>32.6</ele><time>2021-03-01T10:42:36Z</time><name>PT1401</name></trkpt>
<trkpt lat="52.096044" lon="05.715034"><ele>32.6</ele><time>2021-03-01T10:42:37Z</time><name>PT1402</name></trkpt>
<trkpt lat="52.096034" lon="05.715026"><ele>32.4</ele><time>2021-03-01T10:42:38Z</time><name>PT1403</name></trkpt>
<trkpt lat="52.096027" lon="05.715018"><ele>32.5</ele><time>2021-03-01T10:42:39Z</time><name>PT1404</name></trkpt>
<trkpt lat="52.096016" lon="05.715012"><ele>32.5</ele><time>2021-03-01T10:42:40Z</time><name>PT1405</name></trkpt>
<trkpt lat="52.096008" lon="05.715006"><ele>32.6</ele><time>2021-03-01T10:42:41Z</time><name>PT1406</name></trkpt>
<trkpt lat="52.095994" lon="05.714998"><ele>32.7</ele><time>2021-03-01T10:42:42Z</time><name>PT1407</name></trkpt>
<trkpt lat="52.095983" lon="05.714988"><ele>32.7</ele><time>2021-03-01T10:42:43Z</time><name>PT1408</name></trkpt>
<trkpt lat="52.095975" lon="05.714977"><ele>32.7</ele><time>2021-03-01T10:42:44Z</time><name>PT1409</name></trkpt>
<trkpt lat="52.095967" lon="05.714964"><ele>32.7</ele><time>2021-03-01T10:42:45Z</time><name>PT1410</name></trkpt>
<trkpt lat="52.095955" lon="05.714943"><ele>32.5</ele><time>2021-03-01T10:42:46Z</time><name>PT1411</name></trkpt>
<trkpt lat="52.095944" lon="05.714925"><ele>32.4</ele><time>2021-03-01T10:42:47Z</time><name>PT1412</name></trkpt>
<trkpt lat="52.095936" lon="05.714906"><ele>32.4</ele><time>2021-03-01T10:42:48Z</time><name>PT1413</name></trkpt>
<trkpt lat="52.095930" lon="05.714895"><ele>32.4</ele><time>2021-03-01T10:42:49Z</time><name>PT1414</name></trkpt>
<trkpt lat="52.095923" lon="05.714885"><ele>32.2</ele><time>2021-03-01T10:42:50Z</time><name>PT1415</name></trkpt>
<trkpt lat="52.095914" lon="05.714876"><ele>32.3</ele><time>2021-03-01T10:42:51Z</time><name>PT1416</name></trkpt>
<trkpt lat="52.095903" lon="05.714873"><ele>32.5</ele><time>2021-03-01T10:42:52Z</time><name>PT1417</name></trkpt>
<trkpt lat="52.095886" lon="05.714883"><ele>32.6</ele><time>2021-03-01T10:42:53Z</time><name>PT1418</name></trkpt>
<trkpt lat="52.095877" lon="05.714889"><ele>32.6</ele><time>2021-03-01T10:42:54Z</time><name>PT1419</name></trkpt>
<trkpt lat="52.095867" lon="05.714894"><ele>32.5</ele><time>2021-03-01T10:42:55Z</time><name>PT1420</name></trkpt>
<trkpt lat="52.095853" lon="05.714899"><ele>32.4</ele><time>2021-03-01T10:42:56Z</time><name>PT1421</name></trkpt>
<trkpt lat="52.095841" lon="05.714904"><ele>32.4</ele><time>2021-03-01T10:42:57Z</time><name>PT1422</name></trkpt>
<trkpt lat="52.095825" lon="05.714906"><ele>32.2</ele><time>2021-03-01T10:42:58Z</time><name>PT1423</name></trkpt>
<trkpt lat="52.095815" lon="05.714914"><ele>32.2</ele><time>2021-03-01T10:42:59Z</time><name>PT1424</name></trkpt>
<trkpt lat="52.095807" lon="05.714929"><ele>32.1</ele><time>2021-03-01T10:43:00Z</time><name>PT1425</name></trkpt>
<trkpt lat="52.095799" lon="05.714938"><ele>32.2</ele><time>2021-03-01T10:43:01Z</time><name>PT1426</name></trkpt>
<trkpt lat="52.095789" lon="05.714946"><ele>32.2</ele><time>2021-03-01T10:43:02Z</time><name>PT1427</name></trkpt>
<trkpt lat="52.095781" lon="05.714955"><ele>32.2</ele><time>2021-03-01T10:43:03Z</time><name>PT1428</name></trkpt>
<trkpt lat="52.095769" lon="05.714954"><ele>32.3</ele><time>2021-03-01T10:43:04Z</time><name>PT1429</name></trkpt>
<trkpt lat="52.095746" lon="05.714969"><ele>32.4</ele><time>2021-03-01T10:43:05Z</time><name>PT1430</name></trkpt>
<trkpt lat="52.095734" lon="05.714978"><ele>32.4</ele><time>2021-03-01T10:43:06Z</time><name>PT1431</name></trkpt>
<trkpt lat="52.095723" lon="05.714994"><ele>32.4</ele><time>2021-03-01T10:43:07Z</time><name>PT1432</name></trkpt>
<trkpt lat="52.095705" lon="05.715010"><ele>32.8</ele><time>2021-03-01T10:43:08Z</time><name>PT1433</name></trkpt>
<trkpt lat="52.095682" lon="05.715030"><ele>32.6</ele><time>2021-03-01T10:43:09Z</time><name>PT1434</name></trkpt>
<trkpt lat="52.095663" lon="05.715044"><ele>32.8</ele><time>2021-03-01T10:43:10Z</time><name>PT1435</name></trkpt>
<trkpt lat="52.095648" lon="05.715055"><ele>32.8</ele><time>2021-03-01T10:43:11Z</time><name>PT1436</name></trkpt>
<trkpt lat="52.095633" lon="05.715062"><ele>32.8</ele><time>2021-03-01T10:43:12Z</time><name>PT1437</name></trkpt>
<trkpt lat="52.095619" lon="05.715071"><ele>32.8</ele><time>2021-03-01T10:43:13Z</time><name>PT1438</name></trkpt>
<trkpt lat="52.095605" lon="05.715080"><ele>32.8</ele><time>2021-03-01T10:43:14Z</time><name>PT1439</name></trkpt>
<trkpt lat="52.095591" lon="05.715089"><ele>32.8</ele><time>2021-03-01T10:43:15Z</time><name>PT1440</name></trkpt>
<trkpt lat="52.095579" lon="05.715098"><ele>32.7</ele><time>2021-03-01T10:43:16Z</time><name>PT1441</name></trkpt>
<trkpt lat="52.095568" lon="05.715103"><ele>32.6</ele><time>2021-03-01T10:43:17Z</time><name>PT1442</name></trkpt>
<trkpt lat="52.095560" lon="05.715117"><ele>32.8</ele><time>2021-03-01T10:43:18Z</time><name>PT1443</name></trkpt>
<trkpt lat="52.095553" lon="05.715127"><ele>33.2</ele><time>2021-03-01T10:43:19Z</time><name>PT1444</name></trkpt>
<trkpt lat="52.095553" lon="05.715130"><ele>33.3</ele><time>2021-03-01T10:43:20Z</time><name>PT1445</name></trkpt>
<trkpt lat="52.095553" lon="05.715137"><ele>33.6</ele><time>2021-03-01T10:43:21Z</time><name>PT1446</name></trkpt>
<trkpt lat="52.095549" lon="05.715137"><ele>33.7</ele><time>2021-03-01T10:43:22Z</time><name>PT1447</name></trkpt>
<trkpt lat="52.095545" lon="05.715145"><ele>33.7</ele><time>2021-03-01T10:43:23Z</time><name>PT1448</name></trkpt>
<trkpt lat="52.095537" lon="05.715149"><ele>33.5</ele><time>2021-03-01T10:43:24Z</time><name>PT1449</name></trkpt>
<trkpt lat="52.095529" lon="05.715150"><ele>33.5</ele><time>2021-03-01T10:43:25Z</time><name>PT1450</name></trkpt>
<trkpt lat="52.095519" lon="05.715151"><ele>33.4</ele><time>2021-03-01T10:43:26Z</time><name>PT1451</name></trkpt>
<trkpt lat="52.095509" lon="05.715152"><ele>33.5</ele><time>2021-03-01T10:43:27Z</time><name>PT1452</name></trkpt>
<trkpt lat="52.095497" lon="05.715156"><ele>33.4</ele><time>2021-03-01T10:43:28Z</time><name>PT1453</name></trkpt>
<trkpt lat="52.095482" lon="05.715155"><ele>33.2</ele><time>2021-03-01T10:43:29Z</time><name>PT1454</name></trkpt>
<trkpt lat="52.095468" lon="05.715156"><ele>32.9</ele><time>2021-03-01T10:43:31Z</time><name>PT1455</name></trkpt>
<trkpt lat="52.095453" lon="05.715159"><ele>32.8</ele><time>2021-03-01T10:43:31Z</time><name>PT1456</name></trkpt>
<trkpt lat="52.095439" lon="05.715167"><ele>32.6</ele><time>2021-03-01T10:43:32Z</time><name>PT1457</name></trkpt>
<trkpt lat="52.095427" lon="05.715168"><ele>32.7</ele><time>2021-03-01T10:43:33Z</time><name>PT1458</name></trkpt>
<trkpt lat="52.095416" lon="05.715172"><ele>32.9</ele><time>2021-03-01T10:43:34Z</time><name>PT1459</name></trkpt>
<trkpt lat="52.095407" lon="05.715176"><ele>33.2</ele><time>2021-03-01T10:43:35Z</time><name>PT1460</name></trkpt>
<trkpt lat="52.095397" lon="05.715173"><ele>33.3</ele><time>2021-03-01T10:43:36Z</time><name>PT1461</name></trkpt>
<trkpt lat="52.095389" lon="05.715167"><ele>33.4</ele><time>2021-03-01T10:43:37Z</time><name>PT1462</name></trkpt>
<trkpt lat="52.095382" lon="05.715160"><ele>33.4</ele><time>2021-03-01T10:43:38Z</time><name>PT1463</name></trkpt>
<trkpt lat="52.095371" lon="05.715155"><ele>33.4</ele><time>2021-03-01T10:43:39Z</time><name>PT1464</name></trkpt>
<trkpt lat="52.095362" lon="05.715149"><ele>33.3</ele><time>2021-03-01T10:43:40Z</time><name>PT1465</name></trkpt>
<trkpt lat="52.095353" lon="05.715144"><ele>33.3</ele><time>2021-03-01T10:43:41Z</time><name>PT1466</name></trkpt>
<trkpt lat="52.095346" lon="05.715136"><ele>33.3</ele><time>2021-03-01T10:43:42Z</time><name>PT1467</name></trkpt>
<trkpt lat="52.095343" lon="05.715125"><ele>33.3</ele><time>2021-03-01T10:43:44Z</time><name>PT1468</name></trkpt>
<trkpt lat="52.095337" lon="05.715119"><ele>33.3</ele><time>2021-03-01T10:43:44Z</time><name>PT1469</name></trkpt>
<trkpt lat="52.095330" lon="05.715113"><ele>33.4</ele><time>2021-03-01T10:43:45Z</time><name>PT1470</name></trkpt>
<trkpt lat="52.095320" lon="05.715096"><ele>33.2</ele><time>2021-03-01T10:43:46Z</time><name>PT1471</name></trkpt>
<trkpt lat="52.095311" lon="05.715078"><ele>32.9</ele><time>2021-03-01T10:43:47Z</time><name>PT1472</name></trkpt>
<trkpt lat="52.095304" lon="05.715062"><ele>32.8</ele><time>2021-03-01T10:43:48Z</time><name>PT1473</name></trkpt>
<trkpt lat="52.095297" lon="05.715045"><ele>32.6</ele><time>2021-03-01T10:43:49Z</time><name>PT1474</name></trkpt>
<trkpt lat="52.095294" lon="05.715033"><ele>32.6</ele><time>2021-03-01T10:43:50Z</time><name>PT1475</name></trkpt>
<trkpt lat="52.095288" lon="05.715023"><ele>32.5</ele><time>2021-03-01T10:43:51Z</time><name>PT1476</name></trkpt>
<trkpt lat="52.095280" lon="05.715012"><ele>32.4</ele><time>2021-03-01T10:43:52Z</time><name>PT1477</name></trkpt>
<trkpt lat="52.095276" lon="05.714995"><ele>32.3</ele><time>2021-03-01T10:43:53Z</time><name>PT1478</name></trkpt>
<trkpt lat="52.095274" lon="05.714976"><ele>32.2</ele><time>2021-03-01T10:43:54Z</time><name>PT1479</name></trkpt>
<trkpt lat="52.095272" lon="05.714955"><ele>32</ele><time>2021-03-01T10:43:55Z</time><name>PT1480</name></trkpt>
<trkpt lat="52.095270" lon="05.714937"><ele>32</ele><time>2021-03-01T10:43:56Z</time><name>PT1481</name></trkpt>
<trkpt lat="52.095269" lon="05.714918"><ele>31.9</ele><time>2021-03-01T10:43:57Z</time><name>PT1482</name></trkpt>
<trkpt lat="52.095265" lon="05.714890"><ele>31.9</ele><time>2021-03-01T10:43:58Z</time><name>PT1483</name></trkpt>
<trkpt lat="52.095262" lon="05.714869"><ele>31.9</ele><time>2021-03-01T10:43:59Z</time><name>PT1484</name></trkpt>
<trkpt lat="52.095259" lon="05.714856"><ele>31.9</ele><time>2021-03-01T10:44:00Z</time><name>PT1485</name></trkpt>
<trkpt lat="52.095255" lon="05.714836"><ele>31.8</ele><time>2021-03-01T10:44:01Z</time><name>PT1486</name></trkpt>
<trkpt lat="52.095251" lon="05.714820"><ele>31.9</ele><time>2021-03-01T10:44:02Z</time><name>PT1487</name></trkpt>
<trkpt lat="52.095245" lon="05.714799"><ele>31.9</ele><time>2021-03-01T10:44:03Z</time><name>PT1488</name></trkpt>
<trkpt lat="52.095240" lon="05.714783"><ele>31.9</ele><time>2021-03-01T10:44:04Z</time><name>PT1489</name></trkpt>
<trkpt lat="52.095236" lon="05.714770"><ele>31.9</ele><time>2021-03-01T10:44:05Z</time><name>PT1490</name></trkpt>
<trkpt lat="52.095229" lon="05.714753"><ele>32</ele><time>2021-03-01T10:44:06Z</time><name>PT1491</name></trkpt>
<trkpt lat="52.095223" lon="05.714738"><ele>32</ele><time>2021-03-01T10:44:07Z</time><name>PT1492</name></trkpt>
<trkpt lat="52.095221" lon="05.714726"><ele>32</ele><time>2021-03-01T10:44:08Z</time><name>PT1493</name></trkpt>
<trkpt lat="52.095217" lon="05.714716"><ele>32</ele><time>2021-03-01T10:44:09Z</time><name>PT1494</name></trkpt>
<trkpt lat="52.095212" lon="05.714702"><ele>32.1</ele><time>2021-03-01T10:44:10Z</time><name>PT1495</name></trkpt>
<trkpt lat="52.095205" lon="05.714688"><ele>32.1</ele><time>2021-03-01T10:44:11Z</time><name>PT1496</name></trkpt>
<trkpt lat="52.095203" lon="05.714674"><ele>32.6</ele><time>2021-03-01T10:44:12Z</time><name>PT1497</name></trkpt>
<trkpt lat="52.095198" lon="05.714660"><ele>32.8</ele><time>2021-03-01T10:44:13Z</time><name>PT1498</name></trkpt>
<trkpt lat="52.095191" lon="05.714653"><ele>33.1</ele><time>2021-03-01T10:44:14Z</time><name>PT1499</name></trkpt>
<trkpt lat="52.095184" lon="05.714640"><ele>33.6</ele><time>2021-03-01T10:44:16Z</time><name>PT1500</name></trkpt>
<trkpt lat="52.095184" lon="05.714634"><ele>33.7</ele><time>2021-03-01T10:44:16Z</time><name>PT1501</name></trkpt>
<trkpt lat="52.095180" lon="05.714626"><ele>34</ele><time>2021-03-01T10:44:17Z</time><name>PT1502</name></trkpt>
<trkpt lat="52.095179" lon="05.714617"><ele>33.9</ele><time>2021-03-01T10:44:18Z</time><name>PT1503</name></trkpt>
<trkpt lat="52.095175" lon="05.714603"><ele>33.7</ele><time>2021-03-01T10:44:19Z</time><name>PT1504</name></trkpt>
<trkpt lat="52.095167" lon="05.714583"><ele>33.7</ele><time>2021-03-01T10:44:20Z</time><name>PT1505</name></trkpt>
<trkpt lat="52.095165" lon="05.714564"><ele>33.9</ele><time>2021-03-01T10:44:25Z</time><name>PT1506</name></trkpt>
<trkpt lat="52.095154" lon="05.714560"><ele>33.7</ele><time>2021-03-01T10:44:26Z</time><name>PT1507</name></trkpt>
<trkpt lat="52.095137" lon="05.714554"><ele>33.5</ele><time>2021-03-01T10:44:27Z</time><name>PT1508</name></trkpt>
<trkpt lat="52.095125" lon="05.714555"><ele>33.3</ele><time>2021-03-01T10:44:28Z</time><name>PT1509</name></trkpt>
<trkpt lat="52.095110" lon="05.714565"><ele>33.1</ele><time>2021-03-01T10:44:29Z</time><name>PT1510</name></trkpt>
<trkpt lat="52.095096" lon="05.714571"><ele>33</ele><time>2021-03-01T10:44:30Z</time><name>PT1511</name></trkpt>
<trkpt lat="52.095085" lon="05.714586"><ele>33</ele><time>2021-03-01T10:44:31Z</time><name>PT1512</name></trkpt>
<trkpt lat="52.095072" lon="05.714602"><ele>33.1</ele><time>2021-03-01T10:44:32Z</time><name>PT1513</name></trkpt>
<trkpt lat="52.095061" lon="05.714617"><ele>32.9</ele><time>2021-03-01T10:44:33Z</time><name>PT1514</name></trkpt>
<trkpt lat="52.095050" lon="05.714620"><ele>32.8</ele><time>2021-03-01T10:44:34Z</time><name>PT1515</name></trkpt>
<trkpt lat="52.095042" lon="05.714623"><ele>32.6</ele><time>2021-03-01T10:44:35Z</time><name>PT1516</name></trkpt>
<trkpt lat="52.095034" lon="05.714632"><ele>32.4</ele><time>2021-03-01T10:44:36Z</time><name>PT1517</name></trkpt>
<trkpt lat="52.095025" lon="05.714636"><ele>32.6</ele><time>2021-03-01T10:44:37Z</time><name>PT1518</name></trkpt>
<trkpt lat="52.095014" lon="05.714639"><ele>32.8</ele><time>2021-03-01T10:44:38Z</time><name>PT1519</name></trkpt>
<trkpt lat="52.095002" lon="05.714637"><ele>32.6</ele><time>2021-03-01T10:44:39Z</time><name>PT1520</name></trkpt>
<trkpt lat="52.094986" lon="05.714639"><ele>32.8</ele><time>2021-03-01T10:44:40Z</time><name>PT1521</name></trkpt>
<trkpt lat="52.094972" lon="05.714640"><ele>32.8</ele><time>2021-03-01T10:44:41Z</time><name>PT1522</name></trkpt>
<trkpt lat="52.094961" lon="05.714647"><ele>32.7</ele><time>2021-03-01T10:44:42Z</time><name>PT1523</name></trkpt>
<trkpt lat="52.094946" lon="05.714647"><ele>32.7</ele><time>2021-03-01T10:44:43Z</time><name>PT1524</name></trkpt>
<trkpt lat="52.094935" lon="05.714650"><ele>32.5</ele><time>2021-03-01T10:44:44Z</time><name>PT1525</name></trkpt>
<trkpt lat="52.094926" lon="05.714651"><ele>32.5</ele><time>2021-03-01T10:44:45Z</time><name>PT1526</name></trkpt>
<trkpt lat="52.094915" lon="05.714650"><ele>32.4</ele><time>2021-03-01T10:44:46Z</time><name>PT1527</name></trkpt>
<trkpt lat="52.094899" lon="05.714655"><ele>32.4</ele><time>2021-03-01T10:44:47Z</time><name>PT1528</name></trkpt>
<trkpt lat="52.094891" lon="05.714662"><ele>32.4</ele><time>2021-03-01T10:44:48Z</time><name>PT1529</name></trkpt>
<trkpt lat="52.094883" lon="05.714663"><ele>32.6</ele><time>2021-03-01T10:44:49Z</time><name>PT1530</name></trkpt>
<trkpt lat="52.094870" lon="05.714672"><ele>32.8</ele><time>2021-03-01T10:44:50Z</time><name>PT1531</name></trkpt>
<trkpt lat="52.094858" lon="05.714677"><ele>32.9</ele><time>2021-03-01T10:44:51Z</time><name>PT1532</name></trkpt>
<trkpt lat="52.094843" lon="05.714689"><ele>32.8</ele><time>2021-03-01T10:44:52Z</time><name>PT1533</name></trkpt>
<trkpt lat="52.094827" lon="05.714699"><ele>32.8</ele><time>2021-03-01T10:44:53Z</time><name>PT1534</name></trkpt>
<trkpt lat="52.094813" lon="05.714711"><ele>32.9</ele><time>2021-03-01T10:44:54Z</time><name>PT1535</name></trkpt>
<trkpt lat="52.094794" lon="05.714732"><ele>32.9</ele><time>2021-03-01T10:44:55Z</time><name>PT1536</name></trkpt>
<trkpt lat="52.094785" lon="05.714743"><ele>32.8</ele><time>2021-03-01T10:44:56Z</time><name>PT1537</name></trkpt>
<trkpt lat="52.094774" lon="05.714757"><ele>32.8</ele><time>2021-03-01T10:44:57Z</time><name>PT1538</name></trkpt>
<trkpt lat="52.094765" lon="05.714767"><ele>32.8</ele><time>2021-03-01T10:44:58Z</time><name>PT1539</name></trkpt>
<trkpt lat="52.094755" lon="05.714784"><ele>32.9</ele><time>2021-03-01T10:44:59Z</time><name>PT1540</name></trkpt>
<trkpt lat="52.094742" lon="05.714794"><ele>32.7</ele><time>2021-03-01T10:45:00Z</time><name>PT1541</name></trkpt>
<trkpt lat="52.094738" lon="05.714812"><ele>32.7</ele><time>2021-03-01T10:45:01Z</time><name>PT1542</name></trkpt>
<trkpt lat="52.094741" lon="05.714818"><ele>32.5</ele><time>2021-03-01T10:45:02Z</time><name>PT1543</name></trkpt>
<trkpt lat="52.094744" lon="05.714820"><ele>32.4</ele><time>2021-03-01T10:45:03Z</time><name>PT1544</name></trkpt>
<trkpt lat="52.094727" lon="05.714841"><ele>32.3</ele><time>2021-03-01T10:45:04Z</time><name>PT1545</name></trkpt>
<trkpt lat="52.094715" lon="05.714854"><ele>32.4</ele><time>2021-03-01T10:45:05Z</time><name>PT1546</name></trkpt>
<trkpt lat="52.094700" lon="05.714869"><ele>32.5</ele><time>2021-03-01T10:45:06Z</time><name>PT1547</name></trkpt>
<trkpt lat="52.094687" lon="05.714881"><ele>32.6</ele><time>2021-03-01T10:45:07Z</time><name>PT1548</name></trkpt>
<trkpt lat="52.094674" lon="05.714899"><ele>32.4</ele><time>2021-03-01T10:45:09Z</time><name>PT1549</name></trkpt>
<trkpt lat="52.094662" lon="05.714904"><ele>32.5</ele><time>2021-03-01T10:45:09Z</time><name>PT1550</name></trkpt>
<trkpt lat="52.094649" lon="05.714918"><ele>32.7</ele><time>2021-03-01T10:45:10Z</time><name>PT1551</name></trkpt>
<trkpt lat="52.094633" lon="05.714934"><ele>32.6</ele><time>2021-03-01T10:45:11Z</time><name>PT1552</name></trkpt>
<trkpt lat="52.094616" lon="05.714941"><ele>32.7</ele><time>2021-03-01T10:45:12Z</time><name>PT1553</name></trkpt>
<trkpt lat="52.094598" lon="05.714949"><ele>32.7</ele><time>2021-03-01T10:45:13Z</time><name>PT1554</name></trkpt>
<trkpt lat="52.094585" lon="05.714960"><ele>32.5</ele><time>2021-03-01T10:45:14Z</time><name>PT1555</name></trkpt>
<trkpt lat="52.094569" lon="05.714980"><ele>32.6</ele><time>2021-03-01T10:45:15Z</time><name>PT1556</name></trkpt>
<trkpt lat="52.094557" lon="05.714986"><ele>32.4</ele><time>2021-03-01T10:45:16Z</time><name>PT1557</name></trkpt>
<trkpt lat="52.094541" lon="05.714994"><ele>32.4</ele><time>2021-03-01T10:45:17Z</time><name>PT1558</name></trkpt>
<trkpt lat="52.094523" lon="05.714995"><ele>32.4</ele><time>2021-03-01T10:45:18Z</time><name>PT1559</name></trkpt>
<trkpt lat="52.094512" lon="05.715011"><ele>32.3</ele><time>2021-03-01T10:45:19Z</time><name>PT1560</name></trkpt>
<trkpt lat="52.094499" lon="05.715023"><ele>32.1</ele><time>2021-03-01T10:45:20Z</time><name>PT1561</name></trkpt>
<trkpt lat="52.094488" lon="05.715038"><ele>32.4</ele><time>2021-03-01T10:45:21Z</time><name>PT1562</name></trkpt>
<trkpt lat="52.094478" lon="05.715046"><ele>32.4</ele><time>2021-03-01T10:45:22Z</time><name>PT1563</name></trkpt>
<trkpt lat="52.094463" lon="05.715048"><ele>32.4</ele><time>2021-03-01T10:45:23Z</time><name>PT1564</name></trkpt>
<trkpt lat="52.094454" lon="05.715048"><ele>32.5</ele><time>2021-03-01T10:45:24Z</time><name>PT1565</name></trkpt>
<trkpt lat="52.094440" lon="05.715044"><ele>32.5</ele><time>2021-03-01T10:45:25Z</time><name>PT1566</name></trkpt>
<trkpt lat="52.094428" lon="05.715042"><ele>32.4</ele><time>2021-03-01T10:45:26Z</time><name>PT1567</name></trkpt>
<trkpt lat="52.094418" lon="05.715046"><ele>32.4</ele><time>2021-03-01T10:45:27Z</time><name>PT1568</name></trkpt>
<trkpt lat="52.094411" lon="05.715044"><ele>32.5</ele><time>2021-03-01T10:45:28Z</time><name>PT1569</name></trkpt>
<trkpt lat="52.094407" lon="05.715042"><ele>32.5</ele><time>2021-03-01T10:45:29Z</time><name>PT1570</name></trkpt>
<trkpt lat="52.094399" lon="05.715043"><ele>32.4</ele><time>2021-03-01T10:45:30Z</time><name>PT1571</name></trkpt>
<trkpt lat="52.094390" lon="05.715044"><ele>32.4</ele><time>2021-03-01T10:45:31Z</time><name>PT1572</name></trkpt>
<trkpt lat="52.094385" lon="05.715041"><ele>32.4</ele><time>2021-03-01T10:45:32Z</time><name>PT1573</name></trkpt>
<trkpt lat="52.094374" lon="05.715033"><ele>32.4</ele><time>2021-03-01T10:45:33Z</time><name>PT1574</name></trkpt>
<trkpt lat="52.094364" lon="05.715020"><ele>32.5</ele><time>2021-03-01T10:45:34Z</time><name>PT1575</name></trkpt>
<trkpt lat="52.094356" lon="05.715012"><ele>32.5</ele><time>2021-03-01T10:45:35Z</time><name>PT1576</name></trkpt>
<trkpt lat="52.094348" lon="05.715015"><ele>32.5</ele><time>2021-03-01T10:45:36Z</time><name>PT1577</name></trkpt>
<trkpt lat="52.094334" lon="05.715008"><ele>32.5</ele><time>2021-03-01T10:45:37Z</time><name>PT1578</name></trkpt>
<trkpt lat="52.094320" lon="05.715008"><ele>32.5</ele><time>2021-03-01T10:45:38Z</time><name>PT1579</name></trkpt>
<trkpt lat="52.094311" lon="05.715003"><ele>32.6</ele><time>2021-03-01T10:45:39Z</time><name>PT1580</name></trkpt>
<trkpt lat="52.094305" lon="05.714997"><ele>32.5</ele><time>2021-03-01T10:45:40Z</time><name>PT1581</name></trkpt>
<trkpt lat="52.094289" lon="05.714993"><ele>32.4</ele><time>2021-03-01T10:45:41Z</time><name>PT1582</name></trkpt>
<trkpt lat="52.094269" lon="05.714983"><ele>32.4</ele><time>2021-03-01T10:45:42Z</time><name>PT1583</name></trkpt>
<trkpt lat="52.094256" lon="05.714987"><ele>32.3</ele><time>2021-03-01T10:45:43Z</time><name>PT1584</name></trkpt>
<trkpt lat="52.094245" lon="05.714989"><ele>32.1</ele><time>2021-03-01T10:45:44Z</time><name>PT1585</name></trkpt>
<trkpt lat="52.094233" lon="05.714996"><ele>32.1</ele><time>2021-03-01T10:45:45Z</time><name>PT1586</name></trkpt>
<trkpt lat="52.094222" lon="05.714994"><ele>31.9</ele><time>2021-03-01T10:45:46Z</time><name>PT1587</name></trkpt>
<trkpt lat="52.094215" lon="05.714997"><ele>31.9</ele><time>2021-03-01T10:45:47Z</time><name>PT1588</name></trkpt>
<trkpt lat="52.094205" lon="05.714994"><ele>32.2</ele><time>2021-03-01T10:45:48Z</time><name>PT1589</name></trkpt>
<trkpt lat="52.094192" lon="05.714991"><ele>32.3</ele><time>2021-03-01T10:45:49Z</time><name>PT1590</name></trkpt>
<trkpt lat="52.094181" lon="05.714993"><ele>32.4</ele><time>2021-03-01T10:45:50Z</time><name>PT1591</name></trkpt>
<trkpt lat="52.094174" lon="05.714997"><ele>32.4</ele><time>2021-03-01T10:45:51Z</time><name>PT1592</name></trkpt>
<trkpt lat="52.094163" lon="05.714998"><ele>32.3</ele><time>2021-03-01T10:45:52Z</time><name>PT1593</name></trkpt>
<trkpt lat="52.094140" lon="05.714994"><ele>31.9</ele><time>2021-03-01T10:45:53Z</time><name>PT1594</name></trkpt>
<trkpt lat="52.094129" lon="05.715003"><ele>31.9</ele><time>2021-03-01T10:45:54Z</time><name>PT1595</name></trkpt>
<trkpt lat="52.094130" lon="05.715001"><ele>31.9</ele><time>2021-03-01T10:45:55Z</time><name>PT1596</name></trkpt>
<trkpt lat="52.094136" lon="05.714998"><ele>32</ele><time>2021-03-01T10:45:56Z</time><name>PT1597</name></trkpt>
<trkpt lat="52.094138" lon="05.714991"><ele>32.4</ele><time>2021-03-01T10:45:57Z</time><name>PT1598</name></trkpt>
<trkpt lat="52.094141" lon="05.714988"><ele>32.7</ele><time>2021-03-01T10:45:58Z</time><name>PT1599</name></trkpt>
<trkpt lat="52.094138" lon="05.714988"><ele>32.7</ele><time>2021-03-01T10:45:59Z</time><name>PT1600</name></trkpt>
<trkpt lat="52.094137" lon="05.714985"><ele>32.7</ele><time>2021-03-01T10:46:00Z</time><name>PT1601</name></trkpt>
<trkpt lat="52.094131" lon="05.714983"><ele>32.7</ele><time>2021-03-01T10:46:01Z</time><name>PT1602</name></trkpt>
<trkpt lat="52.094121" lon="05.714987"><ele>32.4</ele><time>2021-03-01T10:46:02Z</time><name>PT1603</name></trkpt>
<trkpt lat="52.094111" lon="05.714989"><ele>32.2</ele><time>2021-03-01T10:46:03Z</time><name>PT1604</name></trkpt>
<trkpt lat="52.094098" lon="05.714990"><ele>31.9</ele><time>2021-03-01T10:46:04Z</time><name>PT1605</name></trkpt>
<trkpt lat="52.094087" lon="05.714996"><ele>31.8</ele><time>2021-03-01T10:46:05Z</time><name>PT1606</name></trkpt>
<trkpt lat="52.094079" lon="05.715001"><ele>31.9</ele><time>2021-03-01T10:46:06Z</time><name>PT1607</name></trkpt>
<trkpt lat="52.094069" lon="05.715004"><ele>32</ele><time>2021-03-01T10:46:07Z</time><name>PT1608</name></trkpt>
<trkpt lat="52.094056" lon="05.715004"><ele>32.2</ele><time>2021-03-01T10:46:08Z</time><name>PT1609</name></trkpt>
<trkpt lat="52.094047" lon="05.715000"><ele>32.4</ele><time>2021-03-01T10:46:09Z</time><name>PT1610</name></trkpt>
<trkpt lat="52.094040" lon="05.714998"><ele>32.7</ele><time>2021-03-01T10:46:10Z</time><name>PT1611</name></trkpt>
<trkpt lat="52.094028" lon="05.715001"><ele>32.5</ele><time>2021-03-01T10:46:11Z</time><name>PT1612</name></trkpt>
<trkpt lat="52.094012" lon="05.715005"><ele>32.5</ele><time>2021-03-01T10:46:12Z</time><name>PT1613</name></trkpt>
<trkpt lat="52.093997" lon="05.715013"><ele>32.5</ele><time>2021-03-01T10:46:13Z</time><name>PT1614</name></trkpt>
<trkpt lat="52.093980" lon="05.715016"><ele>32.3</ele><time>2021-03-01T10:46:14Z</time><name>PT1615</name></trkpt>
<trkpt lat="52.093965" lon="05.715019"><ele>32.1</ele><time>2021-03-01T10:46:15Z</time><name>PT1616</name></trkpt>
<trkpt lat="52.093952" lon="05.715021"><ele>32.1</ele><time>2021-03-01T10:46:16Z</time><name>PT1617</name></trkpt>
<trkpt lat="52.093938" lon="05.715021"><ele>31.9</ele><time>2021-03-01T10:46:17Z</time><name>PT1618</name></trkpt>
<trkpt lat="52.093925" lon="05.715022"><ele>31.9</ele><time>2021-03-01T10:46:18Z</time><name>PT1619</name></trkpt>
<trkpt lat="52.093911" lon="05.715034"><ele>32</ele><time>2021-03-01T10:46:19Z</time><name>PT1620</name></trkpt>
<trkpt lat="52.093900" lon="05.715049"><ele>32.2</ele><time>2021-03-01T10:46:20Z</time><name>PT1621</name></trkpt>
<trkpt lat="52.093890" lon="05.715061"><ele>32.4</ele><time>2021-03-01T10:46:21Z</time><name>PT1622</name></trkpt>
<trkpt lat="52.093878" lon="05.715072"><ele>32.5</ele><time>2021-03-01T10:46:22Z</time><name>PT1623</name></trkpt>
<trkpt lat="52.093862" lon="05.715081"><ele>32.5</ele><time>2021-03-01T10:46:23Z</time><name>PT1624</name></trkpt>
<trkpt lat="52.093850" lon="05.715089"><ele>32.7</ele><time>2021-03-01T10:46:24Z</time><name>PT1625</name></trkpt>
<trkpt lat="52.093840" lon="05.715099"><ele>32.9</ele><time>2021-03-01T10:46:25Z</time><name>PT1626</name></trkpt>
<trkpt lat="52.093821" lon="05.715106"><ele>33</ele><time>2021-03-01T10:46:26Z</time><name>PT1627</name></trkpt>
<trkpt lat="52.093806" lon="05.715114"><ele>33.2</ele><time>2021-03-01T10:46:27Z</time><name>PT1628</name></trkpt>
<trkpt lat="52.093795" lon="05.715118"><ele>33.3</ele><time>2021-03-01T10:46:28Z</time><name>PT1629</name></trkpt>
<trkpt lat="52.093783" lon="05.715127"><ele>33.4</ele><time>2021-03-01T10:46:29Z</time><name>PT1630</name></trkpt>
<trkpt lat="52.093768" lon="05.715131"><ele>33.3</ele><time>2021-03-01T10:46:30Z</time><name>PT1631</name></trkpt>
<trkpt lat="52.093757" lon="05.715136"><ele>33.3</ele><time>2021-03-01T10:46:31Z</time><name>PT1632</name></trkpt>
<trkpt lat="52.093749" lon="05.715144"><ele>33.1</ele><time>2021-03-01T10:46:32Z</time><name>PT1633</name></trkpt>
<trkpt lat="52.093738" lon="05.715152"><ele>33</ele><time>2021-03-01T10:46:33Z</time><name>PT1634</name></trkpt>
<trkpt lat="52.093729" lon="05.715158"><ele>32.9</ele><time>2021-03-01T10:46:34Z</time><name>PT1635</name></trkpt>
<trkpt lat="52.093720" lon="05.715161"><ele>33</ele><time>2021-03-01T10:46:35Z</time><name>PT1636</name></trkpt>
<trkpt lat="52.093710" lon="05.715162"><ele>32.8</ele><time>2021-03-01T10:46:36Z</time><name>PT1637</name></trkpt>
<trkpt lat="52.093702" lon="05.715171"><ele>32.8</ele><time>2021-03-01T10:46:37Z</time><name>PT1638</name></trkpt>
<trkpt lat="52.093691" lon="05.715175"><ele>32.6</ele><time>2021-03-01T10:46:38Z</time><name>PT1639</name></trkpt>
<trkpt lat="52.093682" lon="05.715172"><ele>32.6</ele><time>2021-03-01T10:46:39Z</time><name>PT1640</name></trkpt>
<trkpt lat="52.093669" lon="05.715178"><ele>32.5</ele><time>2021-03-01T10:46:40Z</time><name>PT1641</name></trkpt>
<trkpt lat="52.093656" lon="05.715185"><ele>32.5</ele><time>2021-03-01T10:46:41Z</time><name>PT1642</name></trkpt>
<trkpt lat="52.093645" lon="05.715193"><ele>32.6</ele><time>2021-03-01T10:46:42Z</time><name>PT1643</name></trkpt>
<trkpt lat="52.093631" lon="05.715197"><ele>32.7</ele><time>2021-03-01T10:46:43Z</time><name>PT1644</name></trkpt>
<trkpt lat="52.093618" lon="05.715204"><ele>32.8</ele><time>2021-03-01T10:46:44Z</time><name>PT1645</name></trkpt>
<trkpt lat="52.093602" lon="05.715199"><ele>32.7</ele><time>2021-03-01T10:46:45Z</time><name>PT1646</name></trkpt>
<trkpt lat="52.093589" lon="05.715208"><ele>32.7</ele><time>2021-03-01T10:46:46Z</time><name>PT1647</name></trkpt>
<trkpt lat="52.093575" lon="05.715216"><ele>32.7</ele><time>2021-03-01T10:46:47Z</time><name>PT1648</name></trkpt>
<trkpt lat="52.093563" lon="05.715224"><ele>32.6</ele><time>2021-03-01T10:46:48Z</time><name>PT1649</name></trkpt>
<trkpt lat="52.093551" lon="05.715233"><ele>32.4</ele><time>2021-03-01T10:46:49Z</time><name>PT1650</name></trkpt>
<trkpt lat="52.093540" lon="05.715245"><ele>32.5</ele><time>2021-03-01T10:46:50Z</time><name>PT1651</name></trkpt>
<trkpt lat="52.093527" lon="05.715248"><ele>32.6</ele><time>2021-03-01T10:46:51Z</time><name>PT1652</name></trkpt>
<trkpt lat="52.093514" lon="05.715254"><ele>32.6</ele><time>2021-03-01T10:46:52Z</time><name>PT1653</name></trkpt>
<trkpt lat="52.093499" lon="05.715270"><ele>32.7</ele><time>2021-03-01T10:46:53Z</time><name>PT1654</name></trkpt>
<trkpt lat="52.093491" lon="05.715279"><ele>32.8</ele><time>2021-03-01T10:46:54Z</time><name>PT1655</name></trkpt>
<trkpt lat="52.093479" lon="05.715291"><ele>32.8</ele><time>2021-03-01T10:46:55Z</time><name>PT1656</name></trkpt>
<trkpt lat="52.093464" lon="05.715305"><ele>32.8</ele><time>2021-03-01T10:46:56Z</time><name>PT1657</name></trkpt>
<trkpt lat="52.093453" lon="05.715317"><ele>32.8</ele><time>2021-03-01T10:46:57Z</time><name>PT1658</name></trkpt>
<trkpt lat="52.093437" lon="05.715326"><ele>32.9</ele><time>2021-03-01T10:46:58Z</time><name>PT1659</name></trkpt>
<trkpt lat="52.093424" lon="05.715335"><ele>33</ele><time>2021-03-01T10:46:59Z</time><name>PT1660</name></trkpt>
<trkpt lat="52.093410" lon="05.715339"><ele>33</ele><time>2021-03-01T10:47:00Z</time><name>PT1661</name></trkpt>
<trkpt lat="52.093394" lon="05.715349"><ele>33.2</ele><time>2021-03-01T10:47:01Z</time><name>PT1662</name></trkpt>
<trkpt lat="52.093381" lon="05.715360"><ele>33.1</ele><time>2021-03-01T10:47:02Z</time><name>PT1663</name></trkpt>
<trkpt lat="52.093369" lon="05.715366"><ele>33.1</ele><time>2021-03-01T10:47:03Z</time><name>PT1664</name></trkpt>
<trkpt lat="52.093356" lon="05.715381"><ele>33</ele><time>2021-03-01T10:47:04Z</time><name>PT1665</name></trkpt>
<trkpt lat="52.093344" lon="05.715395"><ele>32.9</ele><time>2021-03-01T10:47:05Z</time><name>PT1666</name></trkpt>
<trkpt lat="52.093329" lon="05.715402"><ele>32.7</ele><time>2021-03-01T10:47:06Z</time><name>PT1667</name></trkpt>
<trkpt lat="52.093315" lon="05.715405"><ele>32.6</ele><time>2021-03-01T10:47:07Z</time><name>PT1668</name></trkpt>
<trkpt lat="52.093301" lon="05.715411"><ele>32.5</ele><time>2021-03-01T10:47:08Z</time><name>PT1669</name></trkpt>
<trkpt lat="52.093288" lon="05.715414"><ele>32.4</ele><time>2021-03-01T10:47:09Z</time><name>PT1670</name></trkpt>
<trkpt lat="52.093275" lon="05.715416"><ele>32.4</ele><time>2021-03-01T10:47:10Z</time><name>PT1671</name></trkpt>
<trkpt lat="52.093263" lon="05.715426"><ele>32.4</ele><time>2021-03-01T10:47:11Z</time><name>PT1672</name></trkpt>
<trkpt lat="52.093249" lon="05.715430"><ele>32.2</ele><time>2021-03-01T10:47:12Z</time><name>PT1673</name></trkpt>
<trkpt lat="52.093237" lon="05.715436"><ele>32.2</ele><time>2021-03-01T10:47:13Z</time><name>PT1674</name></trkpt>
<trkpt lat="52.093222" lon="05.715447"><ele>32</ele><time>2021-03-01T10:47:14Z</time><name>PT1675</name></trkpt>
<trkpt lat="52.093210" lon="05.715456"><ele>31.9</ele><time>2021-03-01T10:47:15Z</time><name>PT1676</name></trkpt>
<trkpt lat="52.093196" lon="05.715464"><ele>31.9</ele><time>2021-03-01T10:47:16Z</time><name>PT1677</name></trkpt>
<trkpt lat="52.093181" lon="05.715472"><ele>31.9</ele><time>2021-03-01T10:47:17Z</time><name>PT1678</name></trkpt>
<trkpt lat="52.093169" lon="05.715488"><ele>31.9</ele><time>2021-03-01T10:47:18Z</time><name>PT1679</name></trkpt>
<trkpt lat="52.093157" lon="05.715498"><ele>31.9</ele><time>2021-03-01T10:47:19Z</time><name>PT1680</name></trkpt>
<trkpt lat="52.093142" lon="05.715512"><ele>32</ele><time>2021-03-01T10:47:20Z</time><name>PT1681</name></trkpt>
<trkpt lat="52.093132" lon="05.715518"><ele>32.3</ele><time>2021-03-01T10:47:21Z</time><name>PT1682</name></trkpt>
<trkpt lat="52.093128" lon="05.715524"><ele>32.5</ele><time>2021-03-01T10:47:22Z</time><name>PT1683</name></trkpt>
<trkpt lat="52.093128" lon="05.715526"><ele>32.7</ele><time>2021-03-01T10:47:23Z</time><name>PT1684</name></trkpt>
<trkpt lat="52.093128" lon="05.715525"><ele>32.8</ele><time>2021-03-01T10:47:24Z</time><name>PT1685</name></trkpt>
<trkpt lat="52.093127" lon="05.715526"><ele>32.9</ele><time>2021-03-01T10:47:32Z</time><name>PT1686</name></trkpt>
<trkpt lat="52.093115" lon="05.715524"><ele>33.1</ele><time>2021-03-01T10:47:33Z</time><name>PT1687</name></trkpt>
<trkpt lat="52.093106" lon="05.715529"><ele>33</ele><time>2021-03-01T10:47:34Z</time><name>PT1688</name></trkpt>
<trkpt lat="52.093094" lon="05.715532"><ele>32.8</ele><time>2021-03-01T10:47:35Z</time><name>PT1689</name></trkpt>
<trkpt lat="52.093087" lon="05.715530"><ele>32.7</ele><time>2021-03-01T10:47:36Z</time><name>PT1690</name></trkpt>
<trkpt lat="52.093070" lon="05.715537"><ele>32.8</ele><time>2021-03-01T10:47:37Z</time><name>PT1691</name></trkpt>
<trkpt lat="52.093053" lon="05.715542"><ele>32.6</ele><time>2021-03-01T10:47:38Z</time><name>PT1692</name></trkpt>
<trkpt lat="52.093040" lon="05.715551"><ele>32.6</ele><time>2021-03-01T10:47:39Z</time><name>PT1693</name></trkpt>
<trkpt lat="52.093027" lon="05.715563"><ele>33</ele><time>2021-03-01T10:47:40Z</time><name>PT1694</name></trkpt>
<trkpt lat="52.093016" lon="05.715573"><ele>33</ele><time>2021-03-01T10:47:41Z</time><name>PT1695</name></trkpt>
<trkpt lat="52.093001" lon="05.715580"><ele>33.1</ele><time>2021-03-01T10:47:42Z</time><name>PT1696</name></trkpt>
<trkpt lat="52.092994" lon="05.715580"><ele>33.2</ele><time>2021-03-01T10:47:43Z</time><name>PT1697</name></trkpt>
<trkpt lat="52.092981" lon="05.715586"><ele>33.3</ele><time>2021-03-01T10:47:44Z</time><name>PT1698</name></trkpt>
<trkpt lat="52.092966" lon="05.715591"><ele>33.1</ele><time>2021-03-01T10:47:45Z</time><name>PT1699</name></trkpt>
<trkpt lat="52.092952" lon="05.715594"><ele>32.7</ele><time>2021-03-01T10:47:46Z</time><name>PT1700</name></trkpt>
<trkpt lat="52.092938" lon="05.715596"><ele>32.4</ele><time>2021-03-01T10:47:47Z</time><name>PT1701</name></trkpt>
<trkpt lat="52.092924" lon="05.715597"><ele>32.1</ele><time>2021-03-01T10:47:48Z</time><name>PT1702</name></trkpt>
<trkpt lat="52.092911" lon="05.715597"><ele>31.9</ele><time>2021-03-01T10:47:49Z</time><name>PT1703</name></trkpt>
<trkpt lat="52.092894" lon="05.715599"><ele>31.8</ele><time>2021-03-01T10:47:50Z</time><name>PT1704</name></trkpt>
<trkpt lat="52.092880" lon="05.715601"><ele>31.9</ele><time>2021-03-01T10:47:51Z</time><name>PT1705</name></trkpt>
<trkpt lat="52.092866" lon="05.715604"><ele>31.8</ele><time>2021-03-01T10:47:52Z</time><name>PT1706</name></trkpt>
<trkpt lat="52.092854" lon="05.715607"><ele>32.1</ele><time>2021-03-01T10:47:53Z</time><name>PT1707</name></trkpt>
<trkpt lat="52.092842" lon="05.715615"><ele>32.2</ele><time>2021-03-01T10:47:54Z</time><name>PT1708</name></trkpt>
<trkpt lat="52.092826" lon="05.715619"><ele>32</ele><time>2021-03-01T10:47:55Z</time><name>PT1709</name></trkpt>
<trkpt lat="52.092805" lon="05.715621"><ele>31.9</ele><time>2021-03-01T10:47:56Z</time><name>PT1710</name></trkpt>
<trkpt lat="52.092789" lon="05.715624"><ele>32</ele><time>2021-03-01T10:47:57Z</time><name>PT1711</name></trkpt>
<trkpt lat="52.092774" lon="05.715628"><ele>31.9</ele><time>2021-03-01T10:47:58Z</time><name>PT1712</name></trkpt>
<trkpt lat="52.092764" lon="05.715630"><ele>32</ele><time>2021-03-01T10:47:59Z</time><name>PT1713</name></trkpt>
<trkpt lat="52.092758" lon="05.715632"><ele>32.2</ele><time>2021-03-01T10:48:00Z</time><name>PT1714</name></trkpt>
<trkpt lat="52.092752" lon="05.715636"><ele>32.5</ele><time>2021-03-01T10:48:01Z</time><name>PT1715</name></trkpt>
<trkpt lat="52.092739" lon="05.715641"><ele>32.7</ele><time>2021-03-01T10:48:02Z</time><name>PT1716</name></trkpt>
<trkpt lat="52.092726" lon="05.715641"><ele>32.7</ele><time>2021-03-01T10:48:03Z</time><name>PT1717</name></trkpt>
<trkpt lat="52.092714" lon="05.715647"><ele>32.8</ele><time>2021-03-01T10:48:04Z</time><name>PT1718</name></trkpt>
<trkpt lat="52.092704" lon="05.715660"><ele>32.8</ele><time>2021-03-01T10:48:05Z</time><name>PT1719</name></trkpt>
<trkpt lat="52.092697" lon="05.715668"><ele>32.6</ele><time>2021-03-01T10:48:06Z</time><name>PT1720</name></trkpt>
<trkpt lat="52.092690" lon="05.715678"><ele>32.7</ele><time>2021-03-01T10:48:07Z</time><name>PT1721</name></trkpt>
<trkpt lat="52.092682" lon="05.715680"><ele>32.8</ele><time>2021-03-01T10:48:08Z</time><name>PT1722</name></trkpt>
<trkpt lat="52.092677" lon="05.715689"><ele>32.7</ele><time>2021-03-01T10:48:09Z</time><name>PT1723</name></trkpt>
<trkpt lat="52.092666" lon="05.715698"><ele>32.5</ele><time>2021-03-01T10:48:10Z</time><name>PT1724</name></trkpt>
<trkpt lat="52.092657" lon="05.715703"><ele>32.4</ele><time>2021-03-01T10:48:11Z</time><name>PT1725</name></trkpt>
<trkpt lat="52.092648" lon="05.715710"><ele>32.3</ele><time>2021-03-01T10:48:12Z</time><name>PT1726</name></trkpt>
<trkpt lat="52.092641" lon="05.715721"><ele>32.2</ele><time>2021-03-01T10:48:13Z</time><name>PT1727</name></trkpt>
<trkpt lat="52.092636" lon="05.715726"><ele>32.4</ele><time>2021-03-01T10:48:14Z</time><name>PT1728</name></trkpt>
<trkpt lat="52.092634" lon="05.715727"><ele>32.6</ele><time>2021-03-01T10:48:15Z</time><name>PT1729</name></trkpt>
<trkpt lat="52.092633" lon="05.715727"><ele>32.9</ele><time>2021-03-01T10:48:16Z</time><name>PT1730</name></trkpt>
<trkpt lat="52.092632" lon="05.715728"><ele>32.9</ele><time>2021-03-01T10:48:17Z</time><name>PT1731</name></trkpt>
<trkpt lat="52.092615" lon="05.715725"><ele>32.4</ele><time>2021-03-01T10:48:21Z</time><name>PT1732</name></trkpt>
<trkpt lat="52.092592" lon="05.715710"><ele>32.5</ele><time>2021-03-01T10:48:22Z</time><name>PT1733</name></trkpt>
<trkpt lat="52.092599" lon="05.715705"><ele>32.8</ele><time>2021-03-01T10:48:23Z</time><name>PT1734</name></trkpt>
<trkpt lat="52.092603" lon="05.715706"><ele>33.3</ele><time>2021-03-01T10:48:24Z</time><name>PT1735</name></trkpt>
<trkpt lat="52.092604" lon="05.715703"><ele>32.4</ele><time>2021-03-01T10:48:28Z</time><name>PT1736</name></trkpt>
<trkpt lat="52.092596" lon="05.715699"><ele>32.3</ele><time>2021-03-01T10:48:29Z</time><name>PT1737</name></trkpt>
<trkpt lat="52.092594" lon="05.715690"><ele>32.4</ele><time>2021-03-01T10:48:30Z</time><name>PT1738</name></trkpt>
<trkpt lat="52.092594" lon="05.715687"><ele>32.4</ele><time>2021-03-01T10:48:31Z</time><name>PT1739</name></trkpt>
<trkpt lat="52.092591" lon="05.715684"><ele>32.4</ele><time>2021-03-01T10:48:34Z</time><name>PT1740</name></trkpt>
<trkpt lat="52.092582" lon="05.715690"><ele>32.4</ele><time>2021-03-01T10:48:35Z</time><name>PT1741</name></trkpt>
<trkpt lat="52.092575" lon="05.715685"><ele>32.4</ele><time>2021-03-01T10:48:36Z</time><name>PT1742</name></trkpt>
<trkpt lat="52.092568" lon="05.715700"><ele>32.4</ele><time>2021-03-01T10:48:37Z</time><name>PT1743</name></trkpt>
<trkpt lat="52.092569" lon="05.715700"><ele>32.4</ele><time>2021-03-01T10:48:38Z</time><name>PT1744</name></trkpt>
<trkpt lat="52.092568" lon="05.715706"><ele>32.4</ele><time>2021-03-01T10:48:39Z</time><name>PT1745</name></trkpt>
<trkpt lat="52.092563" lon="05.715706"><ele>32.7</ele><time>2021-03-01T10:48:42Z</time><name>PT1746</name></trkpt>
<trkpt lat="52.092557" lon="05.715702"><ele>32.8</ele><time>2021-03-01T10:48:43Z</time><name>PT1747</name></trkpt>
<trkpt lat="52.092552" lon="05.715700"><ele>32.9</ele><time>2021-03-01T10:48:44Z</time><name>PT1748</name></trkpt>
<trkpt lat="52.092546" lon="05.715710"><ele>33</ele><time>2021-03-01T10:48:45Z</time><name>PT1749</name></trkpt>
<trkpt lat="52.092544" lon="05.715722"><ele>32.8</ele><time>2021-03-01T10:48:46Z</time><name>PT1750</name></trkpt>
<trkpt lat="52.092538" lon="05.715709"><ele>32.8</ele><time>2021-03-01T10:48:47Z</time><name>PT1751</name></trkpt>
<trkpt lat="52.092530" lon="05.715698"><ele>32.8</ele><time>2021-03-01T10:48:48Z</time><name>PT1752</name></trkpt>
<trkpt lat="52.092520" lon="05.715681"><ele>32.7</ele><time>2021-03-01T10:48:49Z</time><name>PT1753</name></trkpt>
<trkpt lat="52.092513" lon="05.715664"><ele>32.7</ele><time>2021-03-01T10:48:50Z</time><name>PT1754</name></trkpt>
<trkpt lat="52.092510" lon="05.715649"><ele>32.6</ele><time>2021-03-01T10:48:51Z</time><name>PT1755</name></trkpt>
<trkpt lat="52.092506" lon="05.715636"><ele>32.7</ele><time>2021-03-01T10:48:52Z</time><name>PT1756</name></trkpt>
<trkpt lat="52.092503" lon="05.715626"><ele>32.7</ele><time>2021-03-01T10:48:53Z</time><name>PT1757</name></trkpt>
<trkpt lat="52.092498" lon="05.715614"><ele>32.6</ele><time>2021-03-01T10:48:54Z</time><name>PT1758</name></trkpt>
<trkpt lat="52.092490" lon="05.715600"><ele>32.6</ele><time>2021-03-01T10:48:55Z</time><name>PT1759</name></trkpt>
<trkpt lat="52.092483" lon="05.715588"><ele>32.5</ele><time>2021-03-01T10:48:56Z</time><name>PT1760</name></trkpt>
<trkpt lat="52.092475" lon="05.715574"><ele>32.4</ele><time>2021-03-01T10:48:57Z</time><name>PT1761</name></trkpt>
<trkpt lat="52.092466" lon="05.715566"><ele>32.4</ele><time>2021-03-01T10:48:58Z</time><name>PT1762</name></trkpt>
<trkpt lat="52.092460" lon="05.715558"><ele>32.4</ele><time>2021-03-01T10:48:59Z</time><name>PT1763</name></trkpt>
<trkpt lat="52.092452" lon="05.715550"><ele>32.4</ele><time>2021-03-01T10:49:00Z</time><name>PT1764</name></trkpt>
<trkpt lat="52.092445" lon="05.715537"><ele>32.4</ele><time>2021-03-01T10:49:01Z</time><name>PT1765</name></trkpt>
<trkpt lat="52.092440" lon="05.715531"><ele>32.7</ele><time>2021-03-01T10:49:02Z</time><name>PT1766</name></trkpt>
<trkpt lat="52.092433" lon="05.715529"><ele>32.8</ele><time>2021-03-01T10:49:03Z</time><name>PT1767</name></trkpt>
<trkpt lat="52.092425" lon="05.715520"><ele>33</ele><time>2021-03-01T10:49:04Z</time><name>PT1768</name></trkpt>
<trkpt lat="52.092416" lon="05.715512"><ele>33.1</ele><time>2021-03-01T10:49:05Z</time><name>PT1769</name></trkpt>
<trkpt lat="52.092411" lon="05.715493"><ele>33.3</ele><time>2021-03-01T10:49:09Z</time><name>PT1770</name></trkpt>
<trkpt lat="52.092401" lon="05.715467"><ele>33.3</ele><time>2021-03-01T10:49:10Z</time><name>PT1771</name></trkpt>
<trkpt lat="52.092392" lon="05.715446"><ele>33.3</ele><time>2021-03-01T10:49:11Z</time><name>PT1772</name></trkpt>
<trkpt lat="52.092384" lon="05.715424"><ele>33.1</ele><time>2021-03-01T10:49:12Z</time><name>PT1773</name></trkpt>
<trkpt lat="52.092376" lon="05.715406"><ele>33.2</ele><time>2021-03-01T10:49:13Z</time><name>PT1774</name></trkpt>
<trkpt lat="52.092371" lon="05.715385"><ele>33.1</ele><time>2021-03-01T10:49:14Z</time><name>PT1775</name></trkpt>
<trkpt lat="52.092362" lon="05.715368"><ele>33.2</ele><time>2021-03-01T10:49:15Z</time><name>PT1776</name></trkpt>
<trkpt lat="52.092357" lon="05.715352"><ele>33.2</ele><time>2021-03-01T10:49:16Z</time><name>PT1777</name></trkpt>
<trkpt lat="52.092350" lon="05.715336"><ele>33.1</ele><time>2021-03-01T10:49:17Z</time><name>PT1778</name></trkpt>
<trkpt lat="52.092343" lon="05.715320"><ele>33.1</ele><time>2021-03-01T10:49:18Z</time><name>PT1779</name></trkpt>
<trkpt lat="52.092336" lon="05.715303"><ele>33.2</ele><time>2021-03-01T10:49:19Z</time><name>PT1780</name></trkpt>
<trkpt lat="52.092328" lon="05.715290"><ele>33</ele><time>2021-03-01T10:49:20Z</time><name>PT1781</name></trkpt>
<trkpt lat="52.092320" lon="05.715277"><ele>33</ele><time>2021-03-01T10:49:21Z</time><name>PT1782</name></trkpt>
<trkpt lat="52.092314" lon="05.715263"><ele>33</ele><time>2021-03-01T10:49:22Z</time><name>PT1783</name></trkpt>
<trkpt lat="52.092311" lon="05.715248"><ele>33.1</ele><time>2021-03-01T10:49:23Z</time><name>PT1784</name></trkpt>
<trkpt lat="52.092305" lon="05.715234"><ele>33.1</ele><time>2021-03-01T10:49:24Z</time><name>PT1785</name></trkpt>
<trkpt lat="52.092297" lon="05.715219"><ele>33.3</ele><time>2021-03-01T10:49:25Z</time><name>PT1786</name></trkpt>
<trkpt lat="52.092292" lon="05.715207"><ele>33.3</ele><time>2021-03-01T10:49:26Z</time><name>PT1787</name></trkpt>
<trkpt lat="52.092288" lon="05.715196"><ele>33.3</ele><time>2021-03-01T10:49:27Z</time><name>PT1788</name></trkpt>
<trkpt lat="52.092283" lon="05.715184"><ele>33.3</ele><time>2021-03-01T10:49:28Z</time><name>PT1789</name></trkpt>
<trkpt lat="52.092279" lon="05.715169"><ele>33.3</ele><time>2021-03-01T10:49:29Z</time><name>PT1790</name></trkpt>
<trkpt lat="52.092270" lon="05.715156"><ele>33.2</ele><time>2021-03-01T10:49:30Z</time><name>PT1791</name></trkpt>
<trkpt lat="52.092259" lon="05.715142"><ele>33.2</ele><time>2021-03-01T10:49:31Z</time><name>PT1792</name></trkpt>
<trkpt lat="52.092251" lon="05.715124"><ele>33.3</ele><time>2021-03-01T10:49:32Z</time><name>PT1793</name></trkpt>
<trkpt lat="52.092246" lon="05.715109"><ele>33.2</ele><time>2021-03-01T10:49:33Z</time><name>PT1794</name></trkpt>
<trkpt lat="52.092239" lon="05.715098"><ele>33.2</ele><time>2021-03-01T10:49:34Z</time><name>PT1795</name></trkpt>
<trkpt lat="52.092236" lon="05.715088"><ele>33.1</ele><time>2021-03-01T10:49:35Z</time><name>PT1796</name></trkpt>
<trkpt lat="52.092231" lon="05.715073"><ele>33.2</ele><time>2021-03-01T10:49:36Z</time><name>PT1797</name></trkpt>
<trkpt lat="52.092227" lon="05.715059"><ele>33</ele><time>2021-03-01T10:49:37Z</time><name>PT1798</name></trkpt>
<trkpt lat="52.092221" lon="05.715045"><ele>33.1</ele><time>2021-03-01T10:49:38Z</time><name>PT1799</name></trkpt>
<trkpt lat="52.092215" lon="05.715026"><ele>33.1</ele><time>2021-03-01T10:49:39Z</time><name>PT1800</name></trkpt>
<trkpt lat="52.092209" lon="05.715005"><ele>33.1</ele><time>2021-03-01T10:49:40Z</time><name>PT1801</name></trkpt>
<trkpt lat="52.092206" lon="05.714985"><ele>33.1</ele><time>2021-03-01T10:49:41Z</time><name>PT1802</name></trkpt>
<trkpt lat="52.092202" lon="05.714964"><ele>33</ele><time>2021-03-01T10:49:42Z</time><name>PT1803</name></trkpt>
<trkpt lat="52.092196" lon="05.714941"><ele>33</ele><time>2021-03-01T10:49:43Z</time><name>PT1804</name></trkpt>
<trkpt lat="52.092194" lon="05.714925"><ele>32.8</ele><time>2021-03-01T10:49:44Z</time><name>PT1805</name></trkpt>
<trkpt lat="52.092189" lon="05.714907"><ele>33.1</ele><time>2021-03-01T10:49:45Z</time><name>PT1806</name></trkpt>
<trkpt lat="52.092181" lon="05.714892"><ele>33</ele><time>2021-03-01T10:49:46Z</time><name>PT1807</name></trkpt>
<trkpt lat="52.092174" lon="05.714874"><ele>33.1</ele><time>2021-03-01T10:49:47Z</time><name>PT1808</name></trkpt>
<trkpt lat="52.092168" lon="05.714855"><ele>33.1</ele><time>2021-03-01T10:49:48Z</time><name>PT1809</name></trkpt>
<trkpt lat="52.092165" lon="05.714836"><ele>33.1</ele><time>2021-03-01T10:49:49Z</time><name>PT1810</name></trkpt>
<trkpt lat="52.092159" lon="05.714816"><ele>32.9</ele><time>2021-03-01T10:49:50Z</time><name>PT1811</name></trkpt>
<trkpt lat="52.092151" lon="05.714800"><ele>33</ele><time>2021-03-01T10:49:51Z</time><name>PT1812</name></trkpt>
<trkpt lat="52.092139" lon="05.714786"><ele>33.1</ele><time>2021-03-01T10:49:52Z</time><name>PT1813</name></trkpt>
<trkpt lat="52.092129" lon="05.714771"><ele>33.2</ele><time>2021-03-01T10:49:53Z</time><name>PT1814</name></trkpt>
<trkpt lat="52.092122" lon="05.714753"><ele>33.3</ele><time>2021-03-01T10:49:54Z</time><name>PT1815</name></trkpt>
<trkpt lat="52.092114" lon="05.714736"><ele>33.3</ele><time>2021-03-01T10:49:55Z</time><name>PT1816</name></trkpt>
<trkpt lat="52.092104" lon="05.714716"><ele>33.3</ele><time>2021-03-01T10:49:56Z</time><name>PT1817</name></trkpt>
<trkpt lat="52.092098" lon="05.714701"><ele>33.4</ele><time>2021-03-01T10:49:57Z</time><name>PT1818</name></trkpt>
<trkpt lat="52.092092" lon="05.714684"><ele>33.5</ele><time>2021-03-01T10:49:58Z</time><name>PT1819</name></trkpt>
<trkpt lat="52.092086" lon="05.714659"><ele>33.7</ele><time>2021-03-01T10:49:59Z</time><name>PT1820</name></trkpt>
<trkpt lat="52.092080" lon="05.714640"><ele>33.7</ele><time>2021-03-01T10:50:00Z</time><name>PT1821</name></trkpt>
<trkpt lat="52.092077" lon="05.714625"><ele>33.8</ele><time>2021-03-01T10:50:01Z</time><name>PT1822</name></trkpt>
<trkpt lat="52.092073" lon="05.714610"><ele>33.8</ele><time>2021-03-01T10:50:02Z</time><name>PT1823</name></trkpt>
<trkpt lat="52.092067" lon="05.714598"><ele>33.9</ele><time>2021-03-01T10:50:03Z</time><name>PT1824</name></trkpt>
<trkpt lat="52.092061" lon="05.714582"><ele>33.9</ele><time>2021-03-01T10:50:04Z</time><name>PT1825</name></trkpt>
<trkpt lat="52.092057" lon="05.714567"><ele>33.9</ele><time>2021-03-01T10:50:05Z</time><name>PT1826</name></trkpt>
<trkpt lat="52.092049" lon="05.714549"><ele>33.8</ele><time>2021-03-01T10:50:06Z</time><name>PT1827</name></trkpt>
<trkpt lat="52.092042" lon="05.714534"><ele>33.8</ele><time>2021-03-01T10:50:07Z</time><name>PT1828</name></trkpt>
<trkpt lat="52.092030" lon="05.714515"><ele>33.7</ele><time>2021-03-01T10:50:08Z</time><name>PT1829</name></trkpt>
<trkpt lat="52.092021" lon="05.714497"><ele>33.6</ele><time>2021-03-01T10:50:09Z</time><name>PT1830</name></trkpt>
<trkpt lat="52.092012" lon="05.714476"><ele>33.5</ele><time>2021-03-01T10:50:10Z</time><name>PT1831</name></trkpt>
<trkpt lat="52.092003" lon="05.714460"><ele>33.5</ele><time>2021-03-01T10:50:11Z</time><name>PT1832</name></trkpt>
<trkpt lat="52.092001" lon="05.714445"><ele>33.6</ele><time>2021-03-01T10:50:12Z</time><name>PT1833</name></trkpt>
<trkpt lat="52.092000" lon="05.714434"><ele>33.5</ele><time>2021-03-01T10:50:13Z</time><name>PT1834</name></trkpt>
<trkpt lat="52.091996" lon="05.714422"><ele>33.6</ele><time>2021-03-01T10:50:14Z</time><name>PT1835</name></trkpt>
<trkpt lat="52.091992" lon="05.714414"><ele>33.7</ele><time>2021-03-01T10:50:15Z</time><name>PT1836</name></trkpt>
<trkpt lat="52.091991" lon="05.714412"><ele>33.8</ele><time>2021-03-01T10:50:16Z</time><name>PT1837</name></trkpt>
<trkpt lat="52.091991" lon="05.714411"><ele>33.9</ele><time>2021-03-01T10:50:17Z</time><name>PT1838</name></trkpt>
<trkpt lat="52.091990" lon="05.714408"><ele>33.8</ele><time>2021-03-01T10:50:18Z</time><name>PT1839</name></trkpt>
<trkpt lat="52.091987" lon="05.714389"><ele>34</ele><time>2021-03-01T10:50:25Z</time><name>PT1840</name></trkpt>
<trkpt lat="52.091985" lon="05.714362"><ele>33.7</ele><time>2021-03-01T10:50:26Z</time><name>PT1841</name></trkpt>
<trkpt lat="52.091979" lon="05.714344"><ele>33.8</ele><time>2021-03-01T10:50:27Z</time><name>PT1842</name></trkpt>
<trkpt lat="52.091979" lon="05.714330"><ele>33.9</ele><time>2021-03-01T10:50:28Z</time><name>PT1843</name></trkpt>
<trkpt lat="52.091983" lon="05.714313"><ele>33.9</ele><time>2021-03-01T10:50:29Z</time><name>PT1844</name></trkpt>
<trkpt lat="52.091983" lon="05.714303"><ele>33.8</ele><time>2021-03-01T10:50:30Z</time><name>PT1845</name></trkpt>
<trkpt lat="52.091981" lon="05.714289"><ele>34</ele><time>2021-03-01T10:50:31Z</time><name>PT1846</name></trkpt>
<trkpt lat="52.091978" lon="05.714273"><ele>34</ele><time>2021-03-01T10:50:32Z</time><name>PT1847</name></trkpt>
<trkpt lat="52.091975" lon="05.714259"><ele>34</ele><time>2021-03-01T10:50:33Z</time><name>PT1848</name></trkpt>
<trkpt lat="52.091973" lon="05.714242"><ele>33.9</ele><time>2021-03-01T10:50:34Z</time><name>PT1849</name></trkpt>
<trkpt lat="52.091967" lon="05.714228"><ele>34</ele><time>2021-03-01T10:50:35Z</time><name>PT1850</name></trkpt>
<trkpt lat="52.091961" lon="05.714217"><ele>33.9</ele><time>2021-03-01T10:50:36Z</time><name>PT1851</name></trkpt>
<trkpt lat="52.091956" lon="05.714204"><ele>33.9</ele><time>2021-03-01T10:50:37Z</time><name>PT1852</name></trkpt>
<trkpt lat="52.091951" lon="05.714197"><ele>34.1</ele><time>2021-03-01T10:50:38Z</time><name>PT1853</name></trkpt>
<trkpt lat="52.091945" lon="05.714182"><ele>34.1</ele><time>2021-03-01T10:50:39Z</time><name>PT1854</name></trkpt>
<trkpt lat="52.091938" lon="05.714172"><ele>34.1</ele><time>2021-03-01T10:50:40Z</time><name>PT1855</name></trkpt>
<trkpt lat="52.091930" lon="05.714161"><ele>34.1</ele><time>2021-03-01T10:50:41Z</time><name>PT1856</name></trkpt>
<trkpt lat="52.091925" lon="05.714148"><ele>34.1</ele><time>2021-03-01T10:50:42Z</time><name>PT1857</name></trkpt>
<trkpt lat="52.091919" lon="05.714136"><ele>33.9</ele><time>2021-03-01T10:50:43Z</time><name>PT1858</name></trkpt>
<trkpt lat="52.091917" lon="05.714128"><ele>34</ele><time>2021-03-01T10:50:44Z</time><name>PT1859</name></trkpt>
<trkpt lat="52.091915" lon="05.714121"><ele>34.1</ele><time>2021-03-01T10:50:45Z</time><name>PT1860</name></trkpt>
<trkpt lat="52.091915" lon="05.714125"><ele>34.3</ele><time>2021-03-01T10:50:46Z</time><name>PT1861</name></trkpt>
<trkpt lat="52.091912" lon="05.714123"><ele>34.1</ele><time>2021-03-01T10:50:47Z</time><name>PT1862</name></trkpt>
<trkpt lat="52.091908" lon="05.714118"><ele>33.9</ele><time>2021-03-01T10:51:32Z</time><name>PT1863</name></trkpt>
<trkpt lat="52.091901" lon="05.714102"><ele>33.8</ele><time>2021-03-01T10:51:33Z</time><name>PT1864</name></trkpt>
<trkpt lat="52.091892" lon="05.714083"><ele>33.7</ele><time>2021-03-01T10:51:34Z</time><name>PT1865</name></trkpt>
<trkpt lat="52.091883" lon="05.714059"><ele>33.7</ele><time>2021-03-01T10:51:35Z</time><name>PT1866</name></trkpt>
<trkpt lat="52.091873" lon="05.714044"><ele>33.7</ele><time>2021-03-01T10:51:36Z</time><name>PT1867</name></trkpt>
<trkpt lat="52.091863" lon="05.714027"><ele>33.7</ele><time>2021-03-01T10:51:37Z</time><name>PT1868</name></trkpt>
<trkpt lat="52.091856" lon="05.714012"><ele>33.6</ele><time>2021-03-01T10:51:38Z</time><name>PT1869</name></trkpt>
<trkpt lat="52.091849" lon="05.713992"><ele>33.6</ele><time>2021-03-01T10:51:39Z</time><name>PT1870</name></trkpt>
<trkpt lat="52.091841" lon="05.713970"><ele>33.7</ele><time>2021-03-01T10:51:40Z</time><name>PT1871</name></trkpt>
<trkpt lat="52.091835" lon="05.713952"><ele>33.7</ele><time>2021-03-01T10:51:41Z</time><name>PT1872</name></trkpt>
<trkpt lat="52.091833" lon="05.713942"><ele>33.8</ele><time>2021-03-01T10:51:42Z</time><name>PT1873</name></trkpt>
<trkpt lat="52.091832" lon="05.713937"><ele>33.9</ele><time>2021-03-01T10:51:43Z</time><name>PT1874</name></trkpt>
<trkpt lat="52.091832" lon="05.713934"><ele>33.9</ele><time>2021-03-01T10:51:44Z</time><name>PT1875</name></trkpt>
<trkpt lat="52.091832" lon="05.713930"><ele>33.8</ele><time>2021-03-01T10:51:45Z</time><name>PT1876</name></trkpt>
<trkpt lat="52.091831" lon="05.713916"><ele>34.1</ele><time>2021-03-01T10:52:00Z</time><name>PT1877</name></trkpt>
<trkpt lat="52.091828" lon="05.713900"><ele>34.2</ele><time>2021-03-01T10:52:01Z</time><name>PT1878</name></trkpt>
<trkpt lat="52.091826" lon="05.713882"><ele>34.1</ele><time>2021-03-01T10:52:02Z</time><name>PT1879</name></trkpt>
<trkpt lat="52.091824" lon="05.713866"><ele>34.2</ele><time>2021-03-01T10:52:03Z</time><name>PT1880</name></trkpt>
<trkpt lat="52.091821" lon="05.713851"><ele>34.2</ele><time>2021-03-01T10:52:04Z</time><name>PT1881</name></trkpt>
<trkpt lat="52.091817" lon="05.713837"><ele>34.2</ele><time>2021-03-01T10:52:05Z</time><name>PT1882</name></trkpt>
<trkpt lat="52.091814" lon="05.713824"><ele>34.1</ele><time>2021-03-01T10:52:06Z</time><name>PT1883</name></trkpt>
<trkpt lat="52.091807" lon="05.713807"><ele>34.2</ele><time>2021-03-01T10:52:07Z</time><name>PT1884</name></trkpt>
<trkpt lat="52.091801" lon="05.713794"><ele>34.1</ele><time>2021-03-01T10:52:08Z</time><name>PT1885</name></trkpt>
<trkpt lat="52.091793" lon="05.713780"><ele>34.2</ele><time>2021-03-01T10:52:09Z</time><name>PT1886</name></trkpt>
<trkpt lat="52.091787" lon="05.713764"><ele>34.3</ele><time>2021-03-01T10:52:10Z</time><name>PT1887</name></trkpt>
<trkpt lat="52.091783" lon="05.713745"><ele>34.3</ele><time>2021-03-01T10:52:11Z</time><name>PT1888</name></trkpt>
<trkpt lat="52.091779" lon="05.713729"><ele>34.4</ele><time>2021-03-01T10:52:12Z</time><name>PT1889</name></trkpt>
<trkpt lat="52.091775" lon="05.713711"><ele>34.5</ele><time>2021-03-01T10:52:13Z</time><name>PT1890</name></trkpt>
<trkpt lat="52.091770" lon="05.713698"><ele>34.5</ele><time>2021-03-01T10:52:14Z</time><name>PT1891</name></trkpt>
<trkpt lat="52.091767" lon="05.713680"><ele>34.3</ele><time>2021-03-01T10:52:15Z</time><name>PT1892</name></trkpt>
<trkpt lat="52.091762" lon="05.713662"><ele>34.4</ele><time>2021-03-01T10:52:16Z</time><name>PT1893</name></trkpt>
<trkpt lat="52.091756" lon="05.713643"><ele>34.3</ele><time>2021-03-01T10:52:17Z</time><name>PT1894</name></trkpt>
<trkpt lat="52.091748" lon="05.713627"><ele>34.3</ele><time>2021-03-01T10:52:18Z</time><name>PT1895</name></trkpt>
<trkpt lat="52.091737" lon="05.713610"><ele>34.3</ele><time>2021-03-01T10:52:19Z</time><name>PT1896</name></trkpt>
<trkpt lat="52.091724" lon="05.713591"><ele>34.5</ele><time>2021-03-01T10:52:20Z</time><name>PT1897</name></trkpt>
<trkpt lat="52.091719" lon="05.713580"><ele>34.4</ele><time>2021-03-01T10:52:21Z</time><name>PT1898</name></trkpt>
<trkpt lat="52.091715" lon="05.713576"><ele>34.4</ele><time>2021-03-01T10:52:22Z</time><name>PT1899</name></trkpt>
<trkpt lat="52.091709" lon="05.713566"><ele>34.4</ele><time>2021-03-01T10:52:23Z</time><name>PT1900</name></trkpt>
<trkpt lat="52.091708" lon="05.713563"><ele>34.5</ele><time>2021-03-01T10:52:24Z</time><name>PT1901</name></trkpt>
<trkpt lat="52.091702" lon="05.713550"><ele>34.6</ele><time>2021-03-01T10:52:30Z</time><name>PT1902</name></trkpt>
<trkpt lat="52.091684" lon="05.713555"><ele>34.6</ele><time>2021-03-01T10:52:30Z</time><name>PT1903</name></trkpt>
<trkpt lat="52.091671" lon="05.713563"><ele>34.7</ele><time>2021-03-01T10:52:31Z</time><name>PT1904</name></trkpt>
<trkpt lat="52.091658" lon="05.713554"><ele>34.9</ele><time>2021-03-01T10:52:32Z</time><name>PT1905</name></trkpt>
<trkpt lat="52.091641" lon="05.713553"><ele>35</ele><time>2021-03-01T10:52:33Z</time><name>PT1906</name></trkpt>
<trkpt lat="52.091630" lon="05.713554"><ele>35</ele><time>2021-03-01T10:52:34Z</time><name>PT1907</name></trkpt>
<trkpt lat="52.091620" lon="05.713558"><ele>35</ele><time>2021-03-01T10:52:35Z</time><name>PT1908</name></trkpt>
<trkpt lat="52.091610" lon="05.713561"><ele>34.7</ele><time>2021-03-01T10:52:36Z</time><name>PT1909</name></trkpt>
<trkpt lat="52.091600" lon="05.713568"><ele>34.6</ele><time>2021-03-01T10:52:37Z</time><name>PT1910</name></trkpt>
<trkpt lat="52.091587" lon="05.713571"><ele>34.6</ele><time>2021-03-01T10:52:38Z</time><name>PT1911</name></trkpt>
<trkpt lat="52.091576" lon="05.713571"><ele>34.3</ele><time>2021-03-01T10:52:39Z</time><name>PT1912</name></trkpt>
<trkpt lat="52.091567" lon="05.713570"><ele>34.3</ele><time>2021-03-01T10:52:40Z</time><name>PT1913</name></trkpt>
<trkpt lat="52.091556" lon="05.713573"><ele>34.5</ele><time>2021-03-01T10:52:41Z</time><name>PT1914</name></trkpt>
<trkpt lat="52.091545" lon="05.713575"><ele>34.4</ele><time>2021-03-01T10:52:42Z</time><name>PT1915</name></trkpt>
<trkpt lat="52.091531" lon="05.713580"><ele>34.5</ele><time>2021-03-01T10:52:43Z</time><name>PT1916</name></trkpt>
<trkpt lat="52.091517" lon="05.713578"><ele>34.5</ele><time>2021-03-01T10:52:44Z</time><name>PT1917</name></trkpt>
<trkpt lat="52.091505" lon="05.713582"><ele>34.6</ele><time>2021-03-01T10:52:45Z</time><name>PT1918</name></trkpt>
<trkpt lat="52.091491" lon="05.713585"><ele>34.6</ele><time>2021-03-01T10:52:46Z</time><name>PT1919</name></trkpt>
<trkpt lat="52.091480" lon="05.713589"><ele>34.8</ele><time>2021-03-01T10:52:47Z</time><name>PT1920</name></trkpt>
<trkpt lat="52.091469" lon="05.713588"><ele>34.9</ele><time>2021-03-01T10:52:48Z</time><name>PT1921</name></trkpt>
<trkpt lat="52.091454" lon="05.713589"><ele>34.8</ele><time>2021-03-01T10:52:49Z</time><name>PT1922</name></trkpt>
<trkpt lat="52.091440" lon="05.713593"><ele>34.7</ele><time>2021-03-01T10:52:50Z</time><name>PT1923</name></trkpt>
<trkpt lat="52.091426" lon="05.713589"><ele>34.8</ele><time>2021-03-01T10:52:51Z</time><name>PT1924</name></trkpt>
<trkpt lat="52.091412" lon="05.713589"><ele>34.7</ele><time>2021-03-01T10:52:52Z</time><name>PT1925</name></trkpt>
<trkpt lat="52.091398" lon="05.713590"><ele>34.7</ele><time>2021-03-01T10:52:53Z</time><name>PT1926</name></trkpt>
<trkpt lat="52.091384" lon="05.713590"><ele>34.9</ele><time>2021-03-01T10:52:54Z</time><name>PT1927</name></trkpt>
<trkpt lat="52.091370" lon="05.713590"><ele>34.9</ele><time>2021-03-01T10:52:55Z</time><name>PT1928</name></trkpt>
<trkpt lat="52.091355" lon="05.713592"><ele>34.9</ele><time>2021-03-01T10:52:56Z</time><name>PT1929</name></trkpt>
<trkpt lat="52.091341" lon="05.713593"><ele>34.9</ele><time>2021-03-01T10:52:57Z</time><name>PT1930</name></trkpt>
<trkpt lat="52.091326" lon="05.713591"><ele>35</ele><time>2021-03-01T10:52:58Z</time><name>PT1931</name></trkpt>
<trkpt lat="52.091312" lon="05.713594"><ele>35</ele><time>2021-03-01T10:52:59Z</time><name>PT1932</name></trkpt>
<trkpt lat="52.091298" lon="05.713594"><ele>35</ele><time>2021-03-01T10:53:00Z</time><name>PT1933</name></trkpt>
<trkpt lat="52.091285" lon="05.713590"><ele>34.9</ele><time>2021-03-01T10:53:01Z</time><name>PT1934</name></trkpt>
<trkpt lat="52.091268" lon="05.713590"><ele>35</ele><time>2021-03-01T10:53:02Z</time><name>PT1935</name></trkpt>
<trkpt lat="52.091252" lon="05.713592"><ele>34.6</ele><time>2021-03-01T10:53:03Z</time><name>PT1936</name></trkpt>
<trkpt lat="52.091240" lon="05.713593"><ele>34.2</ele><time>2021-03-01T10:53:04Z</time><name>PT1937</name></trkpt>
<trkpt lat="52.091228" lon="05.713597"><ele>34.1</ele><time>2021-03-01T10:53:05Z</time><name>PT1938</name></trkpt>
<trkpt lat="52.091216" lon="05.713601"><ele>34.6</ele><time>2021-03-01T10:53:06Z</time><name>PT1939</name></trkpt>
<trkpt lat="52.091204" lon="05.713606"><ele>35</ele><time>2021-03-01T10:53:07Z</time><name>PT1940</name></trkpt>
<trkpt lat="52.091194" lon="05.713610"><ele>35.8</ele><time>2021-03-01T10:53:08Z</time><name>PT1941</name></trkpt>
<trkpt lat="52.091182" lon="05.713610"><ele>36</ele><time>2021-03-01T10:53:09Z</time><name>PT1942</name></trkpt>
<trkpt lat="52.091168" lon="05.713612"><ele>35.5</ele><time>2021-03-01T10:53:11Z</time><name>PT1943</name></trkpt>
<trkpt lat="52.091152" lon="05.713614"><ele>35.3</ele><time>2021-03-01T10:53:11Z</time><name>PT1944</name></trkpt>
<trkpt lat="52.091139" lon="05.713616"><ele>35</ele><time>2021-03-01T10:53:12Z</time><name>PT1945</name></trkpt>
<trkpt lat="52.091127" lon="05.713616"><ele>35</ele><time>2021-03-01T10:53:13Z</time><name>PT1946</name></trkpt>
<trkpt lat="52.091113" lon="05.713617"><ele>35.2</ele><time>2021-03-01T10:53:14Z</time><name>PT1947</name></trkpt>
<trkpt lat="52.091101" lon="05.713618"><ele>35.4</ele><time>2021-03-01T10:53:15Z</time><name>PT1948</name></trkpt>
<trkpt lat="52.091088" lon="05.713610"><ele>35.5</ele><time>2021-03-01T10:53:16Z</time><name>PT1949</name></trkpt>
<trkpt lat="52.091080" lon="05.713608"><ele>35.5</ele><time>2021-03-01T10:53:17Z</time><name>PT1950</name></trkpt>
<trkpt lat="52.091068" lon="05.713608"><ele>35.4</ele><time>2021-03-01T10:53:18Z</time><name>PT1951</name></trkpt>
<trkpt lat="52.091057" lon="05.713611"><ele>35.4</ele><time>2021-03-01T10:53:19Z</time><name>PT1952</name></trkpt>
<trkpt lat="52.091046" lon="05.713614"><ele>35.2</ele><time>2021-03-01T10:53:20Z</time><name>PT1953</name></trkpt>
<trkpt lat="52.091035" lon="05.713618"><ele>35.3</ele><time>2021-03-01T10:53:21Z</time><name>PT1954</name></trkpt>
<trkpt lat="52.091021" lon="05.713619"><ele>35.3</ele><time>2021-03-01T10:53:22Z</time><name>PT1955</name></trkpt>
<trkpt lat="52.091007" lon="05.713620"><ele>35.4</ele><time>2021-03-01T10:53:23Z</time><name>PT1956</name></trkpt>
<trkpt lat="52.090993" lon="05.713623"><ele>35.5</ele><time>2021-03-01T10:53:24Z</time><name>PT1957</name></trkpt>
<trkpt lat="52.090978" lon="05.713624"><ele>35.5</ele><time>2021-03-01T10:53:25Z</time><name>PT1958</name></trkpt>
<trkpt lat="52.090967" lon="05.713626"><ele>35.5</ele><time>2021-03-01T10:53:26Z</time><name>PT1959</name></trkpt>
<trkpt lat="52.090955" lon="05.713627"><ele>35.6</ele><time>2021-03-01T10:53:27Z</time><name>PT1960</name></trkpt>
<trkpt lat="52.090941" lon="05.713629"><ele>35.8</ele><time>2021-03-01T10:53:28Z</time><name>PT1961</name></trkpt>
<trkpt lat="52.090928" lon="05.713633"><ele>35.9</ele><time>2021-03-01T10:53:29Z</time><name>PT1962</name></trkpt>
<trkpt lat="52.090915" lon="05.713638"><ele>36</ele><time>2021-03-01T10:53:30Z</time><name>PT1963</name></trkpt>
<trkpt lat="52.090905" lon="05.713643"><ele>35.9</ele><time>2021-03-01T10:53:31Z</time><name>PT1964</name></trkpt>
<trkpt lat="52.090891" lon="05.713643"><ele>35.8</ele><time>2021-03-01T10:53:32Z</time><name>PT1965</name></trkpt>
<trkpt lat="52.090876" lon="05.713646"><ele>35.7</ele><time>2021-03-01T10:53:33Z</time><name>PT1966</name></trkpt>
<trkpt lat="52.090865" lon="05.713653"><ele>35.5</ele><time>2021-03-01T10:53:34Z</time><name>PT1967</name></trkpt>
<trkpt lat="52.090851" lon="05.713656"><ele>35.5</ele><time>2021-03-01T10:53:35Z</time><name>PT1968</name></trkpt>
<trkpt lat="52.090837" lon="05.713661"><ele>35.9</ele><time>2021-03-01T10:53:36Z</time><name>PT1969</name></trkpt>
<trkpt lat="52.090821" lon="05.713662"><ele>35.8</ele><time>2021-03-01T10:53:37Z</time><name>PT1970</name></trkpt>
<trkpt lat="52.090807" lon="05.713664"><ele>35.9</ele><time>2021-03-01T10:53:38Z</time><name>PT1971</name></trkpt>
<trkpt lat="52.090793" lon="05.713668"><ele>36</ele><time>2021-03-01T10:53:39Z</time><name>PT1972</name></trkpt>
<trkpt lat="52.090776" lon="05.713669"><ele>35.9</ele><time>2021-03-01T10:53:40Z</time><name>PT1973</name></trkpt>
<trkpt lat="52.090763" lon="05.713669"><ele>36</ele><time>2021-03-01T10:53:41Z</time><name>PT1974</name></trkpt>
<trkpt lat="52.090745" lon="05.713671"><ele>36</ele><time>2021-03-01T10:53:42Z</time><name>PT1975</name></trkpt>
<trkpt lat="52.090731" lon="05.713675"><ele>36.1</ele><time>2021-03-01T10:53:43Z</time><name>PT1976</name></trkpt>
<trkpt lat="52.090717" lon="05.713679"><ele>36.2</ele><time>2021-03-01T10:53:44Z</time><name>PT1977</name></trkpt>
<trkpt lat="52.090698" lon="05.713678"><ele>36.2</ele><time>2021-03-01T10:53:45Z</time><name>PT1978</name></trkpt>
<trkpt lat="52.090683" lon="05.713680"><ele>36.2</ele><time>2021-03-01T10:53:46Z</time><name>PT1979</name></trkpt>
<trkpt lat="52.090669" lon="05.713684"><ele>36.1</ele><time>2021-03-01T10:53:47Z</time><name>PT1980</name></trkpt>
<trkpt lat="52.090652" lon="05.713688"><ele>36.2</ele><time>2021-03-01T10:53:48Z</time><name>PT1981</name></trkpt>
<trkpt lat="52.090640" lon="05.713689"><ele>35.9</ele><time>2021-03-01T10:53:49Z</time><name>PT1982</name></trkpt>
<trkpt lat="52.090629" lon="05.713694"><ele>35.9</ele><time>2021-03-01T10:53:50Z</time><name>PT1983</name></trkpt>
<trkpt lat="52.090617" lon="05.713697"><ele>36</ele><time>2021-03-01T10:53:51Z</time><name>PT1984</name></trkpt>
<trkpt lat="52.090600" lon="05.713696"><ele>35.9</ele><time>2021-03-01T10:53:52Z</time><name>PT1985</name></trkpt>
<trkpt lat="52.090585" lon="05.713702"><ele>36.1</ele><time>2021-03-01T10:53:53Z</time><name>PT1986</name></trkpt>
<trkpt lat="52.090571" lon="05.713703"><ele>36</ele><time>2021-03-01T10:53:54Z</time><name>PT1987</name></trkpt>
<trkpt lat="52.090558" lon="05.713708"><ele>36.2</ele><time>2021-03-01T10:53:55Z</time><name>PT1988</name></trkpt>
<trkpt lat="52.090545" lon="05.713709"><ele>36.5</ele><time>2021-03-01T10:53:56Z</time><name>PT1989</name></trkpt>
<trkpt lat="52.090529" lon="05.713712"><ele>36.4</ele><time>2021-03-01T10:53:58Z</time><name>PT1990</name></trkpt>
<trkpt lat="52.090514" lon="05.713716"><ele>36.5</ele><time>2021-03-01T10:53:58Z</time><name>PT1991</name></trkpt>
<trkpt lat="52.090501" lon="05.713720"><ele>36.5</ele><time>2021-03-01T10:53:59Z</time><name>PT1992</name></trkpt>
<trkpt lat="52.090488" lon="05.713722"><ele>36.4</ele><time>2021-03-01T10:54:00Z</time><name>PT1993</name></trkpt>
<trkpt lat="52.090475" lon="05.713726"><ele>36.4</ele><time>2021-03-01T10:54:01Z</time><name>PT1994</name></trkpt>
<trkpt lat="52.090462" lon="05.713725"><ele>36.4</ele><time>2021-03-01T10:54:02Z</time><name>PT1995</name></trkpt>
<trkpt lat="52.090448" lon="05.713725"><ele>36.3</ele><time>2021-03-01T10:54:03Z</time><name>PT1996</name></trkpt>
<trkpt lat="52.090433" lon="05.713727"><ele>36.4</ele><time>2021-03-01T10:54:04Z</time><name>PT1997</name></trkpt>
<trkpt lat="52.090419" lon="05.713730"><ele>36.3</ele><time>2021-03-01T10:54:05Z</time><name>PT1998</name></trkpt>
<trkpt lat="52.090403" lon="05.713742"><ele>36.4</ele><time>2021-03-01T10:54:06Z</time><name>PT1999</name></trkpt>
<trkpt lat="52.090387" lon="05.713748"><ele>36.5</ele><time>2021-03-01T10:54:07Z</time><name>PT2000</name></trkpt>
<trkpt lat="52.090363" lon="05.713764"><ele>36.4</ele><time>2021-03-01T10:54:09Z</time><name>PT2001</name></trkpt>
<trkpt lat="52.090346" lon="05.713761"><ele>36.5</ele><time>2021-03-01T10:54:09Z</time><name>PT2002</name></trkpt>
<trkpt lat="52.090338" lon="05.713770"><ele>36.5</ele><time>2021-03-01T10:54:10Z</time><name>PT2003</name></trkpt>
<trkpt lat="52.090330" lon="05.713770"><ele>36.4</ele><time>2021-03-01T10:54:11Z</time><name>PT2004</name></trkpt>
<trkpt lat="52.090326" lon="05.713766"><ele>36.3</ele><time>2021-03-01T10:54:12Z</time><name>PT2005</name></trkpt>
<trkpt lat="52.090323" lon="05.713764"><ele>36.5</ele><time>2021-03-01T10:54:13Z</time><name>PT2006</name></trkpt>
<trkpt lat="52.090319" lon="05.713760"><ele>36.5</ele><time>2021-03-01T10:54:25Z</time><name>PT2007</name></trkpt>
<trkpt lat="52.090304" lon="05.713767"><ele>36.4</ele><time>2021-03-01T10:54:26Z</time><name>PT2008</name></trkpt>
<trkpt lat="52.090290" lon="05.713771"><ele>36.4</ele><time>2021-03-01T10:54:27Z</time><name>PT2009</name></trkpt>
<trkpt lat="52.090277" lon="05.713769"><ele>36.2</ele><time>2021-03-01T10:54:28Z</time><name>PT2010</name></trkpt>
<trkpt lat="52.090264" lon="05.713773"><ele>36.2</ele><time>2021-03-01T10:54:29Z</time><name>PT2011</name></trkpt>
<trkpt lat="52.090252" lon="05.713779"><ele>36</ele><time>2021-03-01T10:54:30Z</time><name>PT2012</name></trkpt>
<trkpt lat="52.090239" lon="05.713782"><ele>36.1</ele><time>2021-03-01T10:54:31Z</time><name>PT2013</name></trkpt>
<trkpt lat="52.090226" lon="05.713791"><ele>36.1</ele><time>2021-03-01T10:54:32Z</time><name>PT2014</name></trkpt>
<trkpt lat="52.090211" lon="05.713799"><ele>36.1</ele><time>2021-03-01T10:54:33Z</time><name>PT2015</name></trkpt>
<trkpt lat="52.090198" lon="05.713808"><ele>36.2</ele><time>2021-03-01T10:54:34Z</time><name>PT2016</name></trkpt>
<trkpt lat="52.090182" lon="05.713813"><ele>36.1</ele><time>2021-03-01T10:54:35Z</time><name>PT2017</name></trkpt>
<trkpt lat="52.090164" lon="05.713815"><ele>36.3</ele><time>2021-03-01T10:54:36Z</time><name>PT2018</name></trkpt>
<trkpt lat="52.090148" lon="05.713818"><ele>36.3</ele><time>2021-03-01T10:54:37Z</time><name>PT2019</name></trkpt>
<trkpt lat="52.090134" lon="05.713823"><ele>36.3</ele><time>2021-03-01T10:54:38Z</time><name>PT2020</name></trkpt>
<trkpt lat="52.090120" lon="05.713827"><ele>36.4</ele><time>2021-03-01T10:54:39Z</time><name>PT2021</name></trkpt>
<trkpt lat="52.090104" lon="05.713830"><ele>36.3</ele><time>2021-03-01T10:54:40Z</time><name>PT2022</name></trkpt>
<trkpt lat="52.090093" lon="05.713834"><ele>36.4</ele><time>2021-03-01T10:54:41Z</time><name>PT2023</name></trkpt>
<trkpt lat="52.090081" lon="05.713837"><ele>36.4</ele><time>2021-03-01T10:54:42Z</time><name>PT2024</name></trkpt>
<trkpt lat="52.090065" lon="05.713837"><ele>36.4</ele><time>2021-03-01T10:54:43Z</time><name>PT2025</name></trkpt>
<trkpt lat="52.090050" lon="05.713841"><ele>36.5</ele><time>2021-03-01T10:54:44Z</time><name>PT2026</name></trkpt>
<trkpt lat="52.090037" lon="05.713845"><ele>36.4</ele><time>2021-03-01T10:54:45Z</time><name>PT2027</name></trkpt>
<trkpt lat="52.090024" lon="05.713850"><ele>36.4</ele><time>2021-03-01T10:54:46Z</time><name>PT2028</name></trkpt>
<trkpt lat="52.090011" lon="05.713853"><ele>36.3</ele><time>2021-03-01T10:54:47Z</time><name>PT2029</name></trkpt>
<trkpt lat="52.089998" lon="05.713854"><ele>36.1</ele><time>2021-03-01T10:54:48Z</time><name>PT2030</name></trkpt>
<trkpt lat="52.089982" lon="05.713855"><ele>36.2</ele><time>2021-03-01T10:54:50Z</time><name>PT2031</name></trkpt>
<trkpt lat="52.089964" lon="05.713855"><ele>36.1</ele><time>2021-03-01T10:54:50Z</time><name>PT2032</name></trkpt>
<trkpt lat="52.089950" lon="05.713859"><ele>36.1</ele><time>2021-03-01T10:54:51Z</time><name>PT2033</name></trkpt>
<trkpt lat="52.089935" lon="05.713862"><ele>36.2</ele><time>2021-03-01T10:54:52Z</time><name>PT2034</name></trkpt>
<trkpt lat="52.089923" lon="05.713866"><ele>36.2</ele><time>2021-03-01T10:54:53Z</time><name>PT2035</name></trkpt>
<trkpt lat="52.089912" lon="05.713872"><ele>36.1</ele><time>2021-03-01T10:54:54Z</time><name>PT2036</name></trkpt>
<trkpt lat="52.089899" lon="05.713878"><ele>36.4</ele><time>2021-03-01T10:54:55Z</time><name>PT2037</name></trkpt>
<trkpt lat="52.089887" lon="05.713880"><ele>36.5</ele><time>2021-03-01T10:54:56Z</time><name>PT2038</name></trkpt>
<trkpt lat="52.089873" lon="05.713877"><ele>36.7</ele><time>2021-03-01T10:54:57Z</time><name>PT2039</name></trkpt>
<trkpt lat="52.089858" lon="05.713876"><ele>36.8</ele><time>2021-03-01T10:54:58Z</time><name>PT2040</name></trkpt>
<trkpt lat="52.089846" lon="05.713877"><ele>36.7</ele><time>2021-03-01T10:54:59Z</time><name>PT2041</name></trkpt>
<trkpt lat="52.089832" lon="05.713877"><ele>36.8</ele><time>2021-03-01T10:55:00Z</time><name>PT2042</name></trkpt>
<trkpt lat="52.089817" lon="05.713877"><ele>36.7</ele><time>2021-03-01T10:55:01Z</time><name>PT2043</name></trkpt>
<trkpt lat="52.089804" lon="05.713877"><ele>36.7</ele><time>2021-03-01T10:55:02Z</time><name>PT2044</name></trkpt>
<trkpt lat="52.089792" lon="05.713876"><ele>36.8</ele><time>2021-03-01T10:55:03Z</time><name>PT2045</name></trkpt>
<trkpt lat="52.089778" lon="05.713881"><ele>36.9</ele><time>2021-03-01T10:55:04Z</time><name>PT2046</name></trkpt>
<trkpt lat="52.089765" lon="05.713881"><ele>37</ele><time>2021-03-01T10:55:05Z</time><name>PT2047</name></trkpt>
<trkpt lat="52.089750" lon="05.713883"><ele>37.2</ele><time>2021-03-01T10:55:06Z</time><name>PT2048</name></trkpt>
<trkpt lat="52.089737" lon="05.713883"><ele>37.3</ele><time>2021-03-01T10:55:07Z</time><name>PT2049</name></trkpt>
<trkpt lat="52.089725" lon="05.713886"><ele>37.3</ele><time>2021-03-01T10:55:09Z</time><name>PT2050</name></trkpt>
<trkpt lat="52.089712" lon="05.713893"><ele>37.2</ele><time>2021-03-01T10:55:09Z</time><name>PT2051</name></trkpt>
<trkpt lat="52.089700" lon="05.713894"><ele>37.1</ele><time>2021-03-01T10:55:10Z</time><name>PT2052</name></trkpt>
<trkpt lat="52.089687" lon="05.713895"><ele>37.1</ele><time>2021-03-01T10:55:11Z</time><name>PT2053</name></trkpt>
<trkpt lat="52.089675" lon="05.713897"><ele>37.3</ele><time>2021-03-01T10:55:12Z</time><name>PT2054</name></trkpt>
<trkpt lat="52.089659" lon="05.713900"><ele>37.5</ele><time>2021-03-01T10:55:13Z</time><name>PT2055</name></trkpt>
<trkpt lat="52.089647" lon="05.713905"><ele>37.7</ele><time>2021-03-01T10:55:14Z</time><name>PT2056</name></trkpt>
<trkpt lat="52.089632" lon="05.713905"><ele>37.8</ele><time>2021-03-01T10:55:16Z</time><name>PT2057</name></trkpt>
<trkpt lat="52.089615" lon="05.713900"><ele>37.7</ele><time>2021-03-01T10:55:16Z</time><name>PT2058</name></trkpt>
<trkpt lat="52.089599" lon="05.713902"><ele>37.5</ele><time>2021-03-01T10:55:17Z</time><name>PT2059</name></trkpt>
<trkpt lat="52.089588" lon="05.713903"><ele>37.7</ele><time>2021-03-01T10:55:18Z</time><name>PT2060</name></trkpt>
<trkpt lat="52.089577" lon="05.713902"><ele>37.6</ele><time>2021-03-01T10:55:19Z</time><name>PT2061</name></trkpt>
<trkpt lat="52.089566" lon="05.713902"><ele>37.5</ele><time>2021-03-01T10:55:21Z</time><name>PT2062</name></trkpt>
<trkpt lat="52.089553" lon="05.713902"><ele>37.7</ele><time>2021-03-01T10:55:21Z</time><name>PT2063</name></trkpt>
<trkpt lat="52.089540" lon="05.713903"><ele>37.8</ele><time>2021-03-01T10:55:22Z</time><name>PT2064</name></trkpt>
<trkpt lat="52.089526" lon="05.713904"><ele>37.9</ele><time>2021-03-01T10:55:24Z</time><name>PT2065</name></trkpt>
<trkpt lat="52.089512" lon="05.713905"><ele>37.9</ele><time>2021-03-01T10:55:24Z</time><name>PT2066</name></trkpt>
<trkpt lat="52.089499" lon="05.713906"><ele>37.9</ele><time>2021-03-01T10:55:25Z</time><name>PT2067</name></trkpt>
<trkpt lat="52.089488" lon="05.713907"><ele>37.8</ele><time>2021-03-01T10:55:26Z</time><name>PT2068</name></trkpt>
<trkpt lat="52.089474" lon="05.713910"><ele>37.7</ele><time>2021-03-01T10:55:27Z</time><name>PT2069</name></trkpt>
<trkpt lat="52.089461" lon="05.713915"><ele>37.8</ele><time>2021-03-01T10:55:28Z</time><name>PT2070</name></trkpt>
<trkpt lat="52.089450" lon="05.713917"><ele>37.9</ele><time>2021-03-01T10:55:29Z</time><name>PT2071</name></trkpt>
<trkpt lat="52.089439" lon="05.713920"><ele>37.9</ele><time>2021-03-01T10:55:31Z</time><name>PT2072</name></trkpt>
<trkpt lat="52.089427" lon="05.713923"><ele>37.9</ele><time>2021-03-01T10:55:31Z</time><name>PT2073</name></trkpt>
<trkpt lat="52.089419" lon="05.713924"><ele>38</ele><time>2021-03-01T10:55:32Z</time><name>PT2074</name></trkpt>
<trkpt lat="52.089413" lon="05.713927"><ele>38.1</ele><time>2021-03-01T10:55:34Z</time><name>PT2075</name></trkpt>
<trkpt lat="52.089405" lon="05.713940"><ele>38.1</ele><time>2021-03-01T10:55:34Z</time><name>PT2076</name></trkpt>
<trkpt lat="52.089398" lon="05.713946"><ele>38.1</ele><time>2021-03-01T10:55:35Z</time><name>PT2077</name></trkpt>
<trkpt lat="52.089395" lon="05.713938"><ele>38.2</ele><time>2021-03-01T10:55:37Z</time><name>PT2078</name></trkpt>
<trkpt lat="52.089386" lon="05.713931"><ele>38.2</ele><time>2021-03-01T10:55:37Z</time><name>PT2079</name></trkpt>
<trkpt lat="52.089375" lon="05.713922"><ele>38.3</ele><time>2021-03-01T10:55:38Z</time><name>PT2080</name></trkpt>
<trkpt lat="52.089368" lon="05.713910"><ele>38.3</ele><time>2021-03-01T10:55:39Z</time><name>PT2081</name></trkpt>
<trkpt lat="52.089355" lon="05.713904"><ele>38.3</ele><time>2021-03-01T10:55:40Z</time><name>PT2082</name></trkpt>
<trkpt lat="52.089343" lon="05.713894"><ele>38.5</ele><time>2021-03-01T10:55:41Z</time><name>PT2083</name></trkpt>
<trkpt lat="52.089333" lon="05.713883"><ele>38.6</ele><time>2021-03-01T10:55:42Z</time><name>PT2084</name></trkpt>
<trkpt lat="52.089323" lon="05.713869"><ele>38.8</ele><time>2021-03-01T10:55:43Z</time><name>PT2085</name></trkpt>
<trkpt lat="52.089313" lon="05.713854"><ele>38.6</ele><time>2021-03-01T10:55:44Z</time><name>PT2086</name></trkpt>
<trkpt lat="52.089306" lon="05.713838"><ele>38.7</ele><time>2021-03-01T10:55:45Z</time><name>PT2087</name></trkpt>
<trkpt lat="52.089289" lon="05.713829"><ele>38.6</ele><time>2021-03-01T10:55:46Z</time><name>PT2088</name></trkpt>
<trkpt lat="52.089275" lon="05.713821"><ele>38.6</ele><time>2021-03-01T10:55:48Z</time><name>PT2089</name></trkpt>
<trkpt lat="52.089268" lon="05.713811"><ele>38.8</ele><time>2021-03-01T10:55:48Z</time><name>PT2090</name></trkpt>
<trkpt lat="52.089259" lon="05.713798"><ele>38.8</ele><time>2021-03-01T10:55:49Z</time><name>PT2091</name></trkpt>
<trkpt lat="52.089247" lon="05.713780"><ele>39</ele><time>2021-03-01T10:55:50Z</time><name>PT2092</name></trkpt>
<trkpt lat="52.089234" lon="05.713763"><ele>38.8</ele><time>2021-03-01T10:55:51Z</time><name>PT2093</name></trkpt>
<trkpt lat="52.089223" lon="05.713745"><ele>38.9</ele><time>2021-03-01T10:55:52Z</time><name>PT2094</name></trkpt>
<trkpt lat="52.089214" lon="05.713728"><ele>38.7</ele><time>2021-03-01T10:55:53Z</time><name>PT2095</name></trkpt>
<trkpt lat="52.089203" lon="05.713706"><ele>38.7</ele><time>2021-03-01T10:55:54Z</time><name>PT2096</name></trkpt>
<trkpt lat="52.089193" lon="05.713689"><ele>38.7</ele><time>2021-03-01T10:55:55Z</time><name>PT2097</name></trkpt>
<trkpt lat="52.089187" lon="05.713676"><ele>38.7</ele><time>2021-03-01T10:55:56Z</time><name>PT2098</name></trkpt>
<trkpt lat="52.089178" lon="05.713655"><ele>38.8</ele><time>2021-03-01T10:55:57Z</time><name>PT2099</name></trkpt>
<trkpt lat="52.089167" lon="05.713638"><ele>38.4</ele><time>2021-03-01T10:55:58Z</time><name>PT2100</name></trkpt>
<trkpt lat="52.089161" lon="05.713625"><ele>38</ele><time>2021-03-01T10:55:59Z</time><name>PT2101</name></trkpt>
<trkpt lat="52.089151" lon="05.713606"><ele>37.7</ele><time>2021-03-01T10:56:00Z</time><name>PT2102</name></trkpt>
<trkpt lat="52.089143" lon="05.713588"><ele>38.6</ele><time>2021-03-01T10:56:01Z</time><name>PT2103</name></trkpt>
<trkpt lat="52.089131" lon="05.713568"><ele>39.3</ele><time>2021-03-01T10:56:02Z</time><name>PT2104</name></trkpt>
<trkpt lat="52.089121" lon="05.713550"><ele>40.1</ele><time>2021-03-01T10:56:03Z</time><name>PT2105</name></trkpt>
<trkpt lat="52.089113" lon="05.713533"><ele>40.4</ele><time>2021-03-01T10:56:04Z</time><name>PT2106</name></trkpt>
<trkpt lat="52.089105" lon="05.713522"><ele>40.4</ele><time>2021-03-01T10:56:05Z</time><name>PT2107</name></trkpt>
<trkpt lat="52.089096" lon="05.713505"><ele>39.8</ele><time>2021-03-01T10:56:06Z</time><name>PT2108</name></trkpt>
<trkpt lat="52.089084" lon="05.713485"><ele>39.5</ele><time>2021-03-01T10:56:07Z</time><name>PT2109</name></trkpt>
<trkpt lat="52.089072" lon="05.713463"><ele>39.5</ele><time>2021-03-01T10:56:08Z</time><name>PT2110</name></trkpt>
<trkpt lat="52.089061" lon="05.713439"><ele>39</ele><time>2021-03-01T10:56:09Z</time><name>PT2111</name></trkpt>
<trkpt lat="52.089051" lon="05.713420"><ele>38.8</ele><time>2021-03-01T10:56:10Z</time><name>PT2112</name></trkpt>
<trkpt lat="52.089045" lon="05.713401"><ele>38.8</ele><time>2021-03-01T10:56:11Z</time><name>PT2113</name></trkpt>
<trkpt lat="52.089039" lon="05.713377"><ele>39</ele><time>2021-03-01T10:56:12Z</time><name>PT2114</name></trkpt>
<trkpt lat="52.089035" lon="05.713370"><ele>39.1</ele><time>2021-03-01T10:56:13Z</time><name>PT2115</name></trkpt>
<trkpt lat="52.089030" lon="05.713364"><ele>39.2</ele><time>2021-03-01T10:56:14Z</time><name>PT2116</name></trkpt>
<trkpt lat="52.089025" lon="05.713362"><ele>39.2</ele><time>2021-03-01T10:56:15Z</time><name>PT2117</name></trkpt>
<trkpt lat="52.089021" lon="05.713351"><ele>39</ele><time>2021-03-01T10:56:24Z</time><name>PT2118</name></trkpt>
<trkpt lat="52.089017" lon="05.713328"><ele>39</ele><time>2021-03-01T10:56:25Z</time><name>PT2119</name></trkpt>
<trkpt lat="52.089016" lon="05.713308"><ele>39</ele><time>2021-03-01T10:56:26Z</time><name>PT2120</name></trkpt>
<trkpt lat="52.089014" lon="05.713286"><ele>39.3</ele><time>2021-03-01T10:56:27Z</time><name>PT2121</name></trkpt>
<trkpt lat="52.089010" lon="05.713269"><ele>39.4</ele><time>2021-03-01T10:56:28Z</time><name>PT2122</name></trkpt>
<trkpt lat="52.089008" lon="05.713251"><ele>39.3</ele><time>2021-03-01T10:56:29Z</time><name>PT2123</name></trkpt>
<trkpt lat="52.089005" lon="05.713227"><ele>39.3</ele><time>2021-03-01T10:56:30Z</time><name>PT2124</name></trkpt>
<trkpt lat="52.089005" lon="05.713204"><ele>39.2</ele><time>2021-03-01T10:56:31Z</time><name>PT2125</name></trkpt>
<trkpt lat="52.089002" lon="05.713185"><ele>39.1</ele><time>2021-03-01T10:56:32Z</time><name>PT2126</name></trkpt>
<trkpt lat="52.089002" lon="05.713165"><ele>38.9</ele><time>2021-03-01T10:56:33Z</time><name>PT2127</name></trkpt>
<trkpt lat="52.088996" lon="05.713151"><ele>38.8</ele><time>2021-03-01T10:56:34Z</time><name>PT2128</name></trkpt>
<trkpt lat="52.088997" lon="05.713135"><ele>38.6</ele><time>2021-03-01T10:56:35Z</time><name>PT2129</name></trkpt>
<trkpt lat="52.088997" lon="05.713118"><ele>38.8</ele><time>2021-03-01T10:56:36Z</time><name>PT2130</name></trkpt>
<trkpt lat="52.088996" lon="05.713103"><ele>39</ele><time>2021-03-01T10:56:37Z</time><name>PT2131</name></trkpt>
<trkpt lat="52.088998" lon="05.713088"><ele>39.2</ele><time>2021-03-01T10:56:38Z</time><name>PT2132</name></trkpt>
<trkpt lat="52.089000" lon="05.713072"><ele>39.2</ele><time>2021-03-01T10:56:39Z</time><name>PT2133</name></trkpt>
<trkpt lat="52.089004" lon="05.713053"><ele>39.2</ele><time>2021-03-01T10:56:40Z</time><name>PT2134</name></trkpt>
<trkpt lat="52.089006" lon="05.713038"><ele>39</ele><time>2021-03-01T10:56:41Z</time><name>PT2135</name></trkpt>
<trkpt lat="52.089011" lon="05.713034"><ele>38.9</ele><time>2021-03-01T10:56:42Z</time><name>PT2136</name></trkpt>
<trkpt lat="52.089015" lon="05.713021"><ele>38.5</ele><time>2021-03-01T10:56:43Z</time><name>PT2137</name></trkpt>
<trkpt lat="52.089020" lon="05.713005"><ele>38.6</ele><time>2021-03-01T10:56:44Z</time><name>PT2138</name></trkpt>
<trkpt lat="52.089024" lon="05.712992"><ele>38.6</ele><time>2021-03-01T10:56:45Z</time><name>PT2139</name></trkpt>
<trkpt lat="52.089027" lon="05.712982"><ele>38.6</ele><time>2021-03-01T10:56:46Z</time><name>PT2140</name></trkpt>
<trkpt lat="52.089029" lon="05.712973"><ele>38.9</ele><time>2021-03-01T10:56:47Z</time><name>PT2141</name></trkpt>
<trkpt lat="52.089031" lon="05.712964"><ele>39</ele><time>2021-03-01T10:56:48Z</time><name>PT2142</name></trkpt>
<trkpt lat="52.089031" lon="05.712962"><ele>39.1</ele><time>2021-03-01T10:56:49Z</time><name>PT2143</name></trkpt>
<trkpt lat="52.089034" lon="05.712959"><ele>39</ele><time>2021-03-01T10:56:53Z</time><name>PT2144</name></trkpt>
<trkpt lat="52.089034" lon="05.712954"><ele>38.8</ele><time>2021-03-01T10:56:54Z</time><name>PT2145</name></trkpt>
<trkpt lat="52.089036" lon="05.712944"><ele>38.7</ele><time>2021-03-01T10:56:55Z</time><name>PT2146</name></trkpt>
<trkpt lat="52.089037" lon="05.712935"><ele>38.6</ele><time>2021-03-01T10:56:56Z</time><name>PT2147</name></trkpt>
<trkpt lat="52.089041" lon="05.712918"><ele>38.6</ele><time>2021-03-01T10:56:57Z</time><name>PT2148</name></trkpt>
<trkpt lat="52.089048" lon="05.712899"><ele>38.7</ele><time>2021-03-01T10:56:58Z</time><name>PT2149</name></trkpt>
<trkpt lat="52.089056" lon="05.712887"><ele>38.8</ele><time>2021-03-01T10:56:59Z</time><name>PT2150</name></trkpt>
<trkpt lat="52.089061" lon="05.712870"><ele>38.9</ele><time>2021-03-01T10:57:00Z</time><name>PT2151</name></trkpt>
<trkpt lat="52.089063" lon="05.712856"><ele>38.7</ele><time>2021-03-01T10:57:01Z</time><name>PT2152</name></trkpt>
<trkpt lat="52.089059" lon="05.712835"><ele>38.6</ele><time>2021-03-01T10:57:02Z</time><name>PT2153</name></trkpt>
<trkpt lat="52.089070" lon="05.712818"><ele>38.6</ele><time>2021-03-01T10:57:03Z</time><name>PT2154</name></trkpt>
<trkpt lat="52.089075" lon="05.712805"><ele>38.7</ele><time>2021-03-01T10:57:04Z</time><name>PT2155</name></trkpt>
<trkpt lat="52.089077" lon="05.712786"><ele>38.7</ele><time>2021-03-01T10:57:05Z</time><name>PT2156</name></trkpt>
<trkpt lat="52.089081" lon="05.712772"><ele>38.6</ele><time>2021-03-01T10:57:06Z</time><name>PT2157</name></trkpt>
<trkpt lat="52.089086" lon="05.712759"><ele>38.6</ele><time>2021-03-01T10:57:07Z</time><name>PT2158</name></trkpt>
<trkpt lat="52.089090" lon="05.712734"><ele>38.6</ele><time>2021-03-01T10:57:08Z</time><name>PT2159</name></trkpt>
<trkpt lat="52.089096" lon="05.712718"><ele>38.6</ele><time>2021-03-01T10:57:09Z</time><name>PT2160</name></trkpt>
<trkpt lat="52.089101" lon="05.712702"><ele>38.4</ele><time>2021-03-01T10:57:10Z</time><name>PT2161</name></trkpt>
<trkpt lat="52.089107" lon="05.712684"><ele>38.5</ele><time>2021-03-01T10:57:11Z</time><name>PT2162</name></trkpt>
<trkpt lat="52.089113" lon="05.712674"><ele>38.5</ele><time>2021-03-01T10:57:12Z</time><name>PT2163</name></trkpt>
<trkpt lat="52.089119" lon="05.712665"><ele>38.5</ele><time>2021-03-01T10:57:13Z</time><name>PT2164</name></trkpt>
<trkpt lat="52.089119" lon="05.712648"><ele>38.6</ele><time>2021-03-01T10:57:14Z</time><name>PT2165</name></trkpt>
<trkpt lat="52.089125" lon="05.712629"><ele>38.6</ele><time>2021-03-01T10:57:15Z</time><name>PT2166</name></trkpt>
<trkpt lat="52.089132" lon="05.712616"><ele>38.6</ele><time>2021-03-01T10:57:16Z</time><name>PT2167</name></trkpt>
<trkpt lat="52.089140" lon="05.712596"><ele>38.6</ele><time>2021-03-01T10:57:17Z</time><name>PT2168</name></trkpt>
<trkpt lat="52.089146" lon="05.712576"><ele>38.4</ele><time>2021-03-01T10:57:18Z</time><name>PT2169</name></trkpt>
<trkpt lat="52.089153" lon="05.712558"><ele>38.2</ele><time>2021-03-01T10:57:19Z</time><name>PT2170</name></trkpt>
<trkpt lat="52.089159" lon="05.712541"><ele>38.2</ele><time>2021-03-01T10:57:20Z</time><name>PT2171</name></trkpt>
<trkpt lat="52.089162" lon="05.712529"><ele>38.3</ele><time>2021-03-01T10:57:21Z</time><name>PT2172</name></trkpt>
<trkpt lat="52.089161" lon="05.712501"><ele>38.3</ele><time>2021-03-01T10:57:22Z</time><name>PT2173</name></trkpt>
<trkpt lat="52.089161" lon="05.712479"><ele>38.5</ele><time>2021-03-01T10:57:23Z</time><name>PT2174</name></trkpt>
<trkpt lat="52.089161" lon="05.712460"><ele>38.5</ele><time>2021-03-01T10:57:24Z</time><name>PT2175</name></trkpt>
<trkpt lat="52.089166" lon="05.712445"><ele>38.6</ele><time>2021-03-01T10:57:25Z</time><name>PT2176</name></trkpt>
<trkpt lat="52.089176" lon="05.712455"><ele>38.6</ele><time>2021-03-01T10:57:26Z</time><name>PT2177</name></trkpt>
<trkpt lat="52.089182" lon="05.712434"><ele>38.6</ele><time>2021-03-01T10:57:27Z</time><name>PT2178</name></trkpt>
<trkpt lat="52.089186" lon="05.712413"><ele>38.6</ele><time>2021-03-01T10:57:28Z</time><name>PT2179</name></trkpt>
<trkpt lat="52.089189" lon="05.712396"><ele>38.7</ele><time>2021-03-01T10:57:29Z</time><name>PT2180</name></trkpt>
<trkpt lat="52.089191" lon="05.712371"><ele>38.7</ele><time>2021-03-01T10:57:30Z</time><name>PT2181</name></trkpt>
<trkpt lat="52.089197" lon="05.712357"><ele>38.9</ele><time>2021-03-01T10:57:31Z</time><name>PT2182</name></trkpt>
<trkpt lat="52.089202" lon="05.712340"><ele>38.7</ele><time>2021-03-01T10:57:32Z</time><name>PT2183</name></trkpt>
<trkpt lat="52.089203" lon="05.712309"><ele>38.7</ele><time>2021-03-01T10:57:33Z</time><name>PT2184</name></trkpt>
<trkpt lat="52.089208" lon="05.712290"><ele>38.6</ele><time>2021-03-01T10:57:34Z</time><name>PT2185</name></trkpt>
<trkpt lat="52.089212" lon="05.712271"><ele>38.6</ele><time>2021-03-01T10:57:35Z</time><name>PT2186</name></trkpt>
<trkpt lat="52.089215" lon="05.712250"><ele>38.6</ele><time>2021-03-01T10:57:36Z</time><name>PT2187</name></trkpt>
<trkpt lat="52.089218" lon="05.712225"><ele>38.6</ele><time>2021-03-01T10:57:37Z</time><name>PT2188</name></trkpt>
<trkpt lat="52.089221" lon="05.712202"><ele>38.6</ele><time>2021-03-01T10:57:38Z</time><name>PT2189</name></trkpt>
<trkpt lat="52.089222" lon="05.712173"><ele>38.7</ele><time>2021-03-01T10:57:39Z</time><name>PT2190</name></trkpt>
<trkpt lat="52.089225" lon="05.712148"><ele>38.7</ele><time>2021-03-01T10:57:40Z</time><name>PT2191</name></trkpt>
<trkpt lat="52.089227" lon="05.712128"><ele>38.8</ele><time>2021-03-01T10:57:41Z</time><name>PT2192</name></trkpt>
<trkpt lat="52.089232" lon="05.712115"><ele>38.8</ele><time>2021-03-01T10:57:42Z</time><name>PT2193</name></trkpt>
<trkpt lat="52.089237" lon="05.712101"><ele>38.8</ele><time>2021-03-01T10:57:43Z</time><name>PT2194</name></trkpt>
<trkpt lat="52.089238" lon="05.712084"><ele>38.7</ele><time>2021-03-01T10:57:44Z</time><name>PT2195</name></trkpt>
<trkpt lat="52.089238" lon="05.712068"><ele>38.7</ele><time>2021-03-01T10:57:45Z</time><name>PT2196</name></trkpt>
<trkpt lat="52.089244" lon="05.712043"><ele>38.7</ele><time>2021-03-01T10:57:46Z</time><name>PT2197</name></trkpt>
<trkpt lat="52.089253" lon="05.712019"><ele>38.6</ele><time>2021-03-01T10:57:47Z</time><name>PT2198</name></trkpt>
<trkpt lat="52.089255" lon="05.712006"><ele>38.6</ele><time>2021-03-01T10:57:48Z</time><name>PT2199</name></trkpt>
<trkpt lat="52.089259" lon="05.711989"><ele>38.6</ele><time>2021-03-01T10:57:49Z</time><name>PT2200</name></trkpt>
<trkpt lat="52.089262" lon="05.711974"><ele>38.6</ele><time>2021-03-01T10:57:50Z</time><name>PT2201</name></trkpt>
<trkpt lat="52.089263" lon="05.711954"><ele>38.5</ele><time>2021-03-01T10:57:51Z</time><name>PT2202</name></trkpt>
<trkpt lat="52.089268" lon="05.711930"><ele>38.5</ele><time>2021-03-01T10:57:52Z</time><name>PT2203</name></trkpt>
<trkpt lat="52.089279" lon="05.711916"><ele>38.4</ele><time>2021-03-01T10:57:53Z</time><name>PT2204</name></trkpt>
<trkpt lat="52.089279" lon="05.711904"><ele>38.2</ele><time>2021-03-01T10:57:54Z</time><name>PT2205</name></trkpt>
<trkpt lat="52.089282" lon="05.711907"><ele>38.4</ele><time>2021-03-01T10:57:55Z</time><name>PT2206</name></trkpt>
<trkpt lat="52.089281" lon="05.711910"><ele>38.4</ele><time>2021-03-01T10:57:56Z</time><name>PT2207</name></trkpt>
<trkpt lat="52.089282" lon="05.711908"><ele>38.3</ele><time>2021-03-01T10:57:57Z</time><name>PT2208</name></trkpt>
<trkpt lat="52.089282" lon="05.711863"><ele>38.6</ele><time>2021-03-01T10:58:07Z</time><name>PT2209</name></trkpt>
<trkpt lat="52.089281" lon="05.711833"><ele>38.6</ele><time>2021-03-01T10:58:08Z</time><name>PT2210</name></trkpt>
<trkpt lat="52.089286" lon="05.711813"><ele>38.7</ele><time>2021-03-01T10:58:09Z</time><name>PT2211</name></trkpt>
<trkpt lat="52.089282" lon="05.711798"><ele>38.6</ele><time>2021-03-01T10:58:10Z</time><name>PT2212</name></trkpt>
<trkpt lat="52.089285" lon="05.711775"><ele>38.3</ele><time>2021-03-01T10:58:15Z</time><name>PT2213</name></trkpt>
<trkpt lat="52.089268" lon="05.711753"><ele>38.2</ele><time>2021-03-01T10:58:16Z</time><name>PT2214</name></trkpt>
<trkpt lat="52.089273" lon="05.711745"><ele>38.3</ele><time>2021-03-01T10:58:17Z</time><name>PT2215</name></trkpt>
<trkpt lat="52.089278" lon="05.711739"><ele>38.5</ele><time>2021-03-01T10:58:18Z</time><name>PT2216</name></trkpt>
<trkpt lat="52.089275" lon="05.711722"><ele>38.5</ele><time>2021-03-01T10:58:19Z</time><name>PT2217</name></trkpt>
<trkpt lat="52.089275" lon="05.711708"><ele>38.4</ele><time>2021-03-01T10:58:20Z</time><name>PT2218</name></trkpt>
<trkpt lat="52.089277" lon="05.711693"><ele>38.4</ele><time>2021-03-01T10:58:21Z</time><name>PT2219</name></trkpt>
<trkpt lat="52.089275" lon="05.711672"><ele>38.3</ele><time>2021-03-01T10:58:22Z</time><name>PT2220</name></trkpt>
<trkpt lat="52.089272" lon="05.711656"><ele>38.3</ele><time>2021-03-01T10:58:23Z</time><name>PT2221</name></trkpt>
<trkpt lat="52.089264" lon="05.711637"><ele>38.3</ele><time>2021-03-01T10:58:24Z</time><name>PT2222</name></trkpt>
<trkpt lat="52.089251" lon="05.711610"><ele>38.5</ele><time>2021-03-01T10:58:25Z</time><name>PT2223</name></trkpt>
<trkpt lat="52.089241" lon="05.711586"><ele>38.6</ele><time>2021-03-01T10:58:26Z</time><name>PT2224</name></trkpt>
<trkpt lat="52.089233" lon="05.711571"><ele>38.9</ele><time>2021-03-01T10:58:27Z</time><name>PT2225</name></trkpt>
<trkpt lat="52.089235" lon="05.711548"><ele>38.7</ele><time>2021-03-01T10:58:28Z</time><name>PT2226</name></trkpt>
<trkpt lat="52.089231" lon="05.711534"><ele>38.7</ele><time>2021-03-01T10:58:29Z</time><name>PT2227</name></trkpt>
<trkpt lat="52.089228" lon="05.711517"><ele>38.7</ele><time>2021-03-01T10:58:30Z</time><name>PT2228</name></trkpt>
<trkpt lat="52.089226" lon="05.711500"><ele>38.6</ele><time>2021-03-01T10:58:31Z</time><name>PT2229</name></trkpt>
<trkpt lat="52.089226" lon="05.711484"><ele>38.5</ele><time>2021-03-01T10:58:32Z</time><name>PT2230</name></trkpt>
<trkpt lat="52.089224" lon="05.711464"><ele>38.7</ele><time>2021-03-01T10:58:33Z</time><name>PT2231</name></trkpt>
<trkpt lat="52.089224" lon="05.711446"><ele>38.7</ele><time>2021-03-01T10:58:34Z</time><name>PT2232</name></trkpt>
<trkpt lat="52.089224" lon="05.711431"><ele>38.7</ele><time>2021-03-01T10:58:35Z</time><name>PT2233</name></trkpt>
<trkpt lat="52.089218" lon="05.711417"><ele>38.6</ele><time>2021-03-01T10:58:36Z</time><name>PT2234</name></trkpt>
<trkpt lat="52.089205" lon="05.711402"><ele>38.6</ele><time>2021-03-01T10:58:37Z</time><name>PT2235</name></trkpt>
<trkpt lat="52.089192" lon="05.711388"><ele>38.6</ele><time>2021-03-01T10:58:38Z</time><name>PT2236</name></trkpt>
<trkpt lat="52.089181" lon="05.711379"><ele>38.6</ele><time>2021-03-01T10:58:39Z</time><name>PT2237</name></trkpt>
<trkpt lat="52.089169" lon="05.711368"><ele>38.7</ele><time>2021-03-01T10:58:40Z</time><name>PT2238</name></trkpt>
<trkpt lat="52.089157" lon="05.711356"><ele>38.7</ele><time>2021-03-01T10:58:41Z</time><name>PT2239</name></trkpt>
<trkpt lat="52.089150" lon="05.711341"><ele>38.5</ele><time>2021-03-01T10:58:42Z</time><name>PT2240</name></trkpt>
<trkpt lat="52.089143" lon="05.711331"><ele>38.6</ele><time>2021-03-01T10:58:43Z</time><name>PT2241</name></trkpt>
<trkpt lat="52.089136" lon="05.711321"><ele>38.6</ele><time>2021-03-01T10:58:44Z</time><name>PT2242</name></trkpt>
<trkpt lat="52.089127" lon="05.711316"><ele>38.6</ele><time>2021-03-01T10:58:45Z</time><name>PT2243</name></trkpt>
<trkpt lat="52.089119" lon="05.711306"><ele>38.7</ele><time>2021-03-01T10:58:46Z</time><name>PT2244</name></trkpt>
<trkpt lat="52.089107" lon="05.711295"><ele>38.6</ele><time>2021-03-01T10:58:47Z</time><name>PT2245</name></trkpt>
<trkpt lat="52.089098" lon="05.711287"><ele>38.6</ele><time>2021-03-01T10:58:48Z</time><name>PT2246</name></trkpt>
<trkpt lat="52.089091" lon="05.711276"><ele>38.5</ele><time>2021-03-01T10:58:49Z</time><name>PT2247</name></trkpt>
<trkpt lat="52.089083" lon="05.711267"><ele>38.4</ele><time>2021-03-01T10:58:50Z</time><name>PT2248</name></trkpt>
<trkpt lat="52.089069" lon="05.711242"><ele>38.4</ele><time>2021-03-01T10:58:51Z</time><name>PT2249</name></trkpt>
<trkpt lat="52.089061" lon="05.711232"><ele>38.3</ele><time>2021-03-01T10:58:52Z</time><name>PT2250</name></trkpt>
<trkpt lat="52.089049" lon="05.711222"><ele>38.2</ele><time>2021-03-01T10:58:53Z</time><name>PT2251</name></trkpt>
<trkpt lat="52.089039" lon="05.711213"><ele>38.3</ele><time>2021-03-01T10:58:54Z</time><name>PT2252</name></trkpt>
<trkpt lat="52.089033" lon="05.711204"><ele>38.1</ele><time>2021-03-01T10:58:55Z</time><name>PT2253</name></trkpt>
<trkpt lat="52.089026" lon="05.711199"><ele>38</ele><time>2021-03-01T10:58:56Z</time><name>PT2254</name></trkpt>
<trkpt lat="52.089015" lon="05.711183"><ele>38.1</ele><time>2021-03-01T10:58:57Z</time><name>PT2255</name></trkpt>
<trkpt lat="52.089004" lon="05.711164"><ele>38.1</ele><time>2021-03-01T10:58:58Z</time><name>PT2256</name></trkpt>
<trkpt lat="52.088995" lon="05.711155"><ele>38.1</ele><time>2021-03-01T10:58:59Z</time><name>PT2257</name></trkpt>
<trkpt lat="52.088988" lon="05.711147"><ele>38.2</ele><time>2021-03-01T10:59:00Z</time><name>PT2258</name></trkpt>
<trkpt lat="52.088985" lon="05.711140"><ele>38.3</ele><time>2021-03-01T10:59:01Z</time><name>PT2259</name></trkpt>
<trkpt lat="52.088976" lon="05.711130"><ele>38.4</ele><time>2021-03-01T10:59:02Z</time><name>PT2260</name></trkpt>
<trkpt lat="52.088967" lon="05.711119"><ele>38.4</ele><time>2021-03-01T10:59:03Z</time><name>PT2261</name></trkpt>
<trkpt lat="52.088958" lon="05.711108"><ele>38.5</ele><time>2021-03-01T10:59:04Z</time><name>PT2262</name></trkpt>
<trkpt lat="52.088953" lon="05.711098"><ele>38.4</ele><time>2021-03-01T10:59:05Z</time><name>PT2263</name></trkpt>
<trkpt lat="52.088948" lon="05.711095"><ele>38.4</ele><time>2021-03-01T10:59:06Z</time><name>PT2264</name></trkpt>
<trkpt lat="52.088939" lon="05.711084"><ele>38.4</ele><time>2021-03-01T10:59:07Z</time><name>PT2265</name></trkpt>
<trkpt lat="52.088925" lon="05.711065"><ele>38.4</ele><time>2021-03-01T10:59:08Z</time><name>PT2266</name></trkpt>
<trkpt lat="52.088919" lon="05.711064"><ele>38.4</ele><time>2021-03-01T10:59:09Z</time><name>PT2267</name></trkpt>
<trkpt lat="52.088915" lon="05.711058"><ele>38.4</ele><time>2021-03-01T10:59:10Z</time><name>PT2268</name></trkpt>
<trkpt lat="52.088902" lon="05.711039"><ele>38.4</ele><time>2021-03-01T10:59:11Z</time><name>PT2269</name></trkpt>
<trkpt lat="52.088890" lon="05.711021"><ele>38.4</ele><time>2021-03-01T10:59:12Z</time><name>PT2270</name></trkpt>
<trkpt lat="52.088874" lon="05.710998"><ele>38.4</ele><time>2021-03-01T10:59:13Z</time><name>PT2271</name></trkpt>
<trkpt lat="52.088862" lon="05.710984"><ele>38.4</ele><time>2021-03-01T10:59:14Z</time><name>PT2272</name></trkpt>
<trkpt lat="52.088852" lon="05.710971"><ele>38.3</ele><time>2021-03-01T10:59:15Z</time><name>PT2273</name></trkpt>
<trkpt lat="52.088842" lon="05.710955"><ele>38.3</ele><time>2021-03-01T10:59:16Z</time><name>PT2274</name></trkpt>
<trkpt lat="52.088826" lon="05.710939"><ele>38.5</ele><time>2021-03-01T10:59:17Z</time><name>PT2275</name></trkpt>
<trkpt lat="52.088810" lon="05.710924"><ele>38.5</ele><time>2021-03-01T10:59:18Z</time><name>PT2276</name></trkpt>
<trkpt lat="52.088794" lon="05.710908"><ele>38.5</ele><time>2021-03-01T10:59:19Z</time><name>PT2277</name></trkpt>
<trkpt lat="52.088784" lon="05.710901"><ele>38.4</ele><time>2021-03-01T10:59:20Z</time><name>PT2278</name></trkpt>
<trkpt lat="52.088772" lon="05.710890"><ele>38.5</ele><time>2021-03-01T10:59:21Z</time><name>PT2279</name></trkpt>
<trkpt lat="52.088762" lon="05.710878"><ele>38.4</ele><time>2021-03-01T10:59:22Z</time><name>PT2280</name></trkpt>
<trkpt lat="52.088752" lon="05.710869"><ele>38.4</ele><time>2021-03-01T10:59:23Z</time><name>PT2281</name></trkpt>
<trkpt lat="52.088737" lon="05.710849"><ele>38.5</ele><time>2021-03-01T10:59:24Z</time><name>PT2282</name></trkpt>
<trkpt lat="52.088720" lon="05.710835"><ele>38.5</ele><time>2021-03-01T10:59:25Z</time><name>PT2283</name></trkpt>
<trkpt lat="52.088711" lon="05.710829"><ele>38.6</ele><time>2021-03-01T10:59:26Z</time><name>PT2284</name></trkpt>
<trkpt lat="52.088701" lon="05.710815"><ele>38.6</ele><time>2021-03-01T10:59:27Z</time><name>PT2285</name></trkpt>
<trkpt lat="52.088685" lon="05.710785"><ele>38.6</ele><time>2021-03-01T10:59:28Z</time><name>PT2286</name></trkpt>
<trkpt lat="52.088675" lon="05.710774"><ele>38.4</ele><time>2021-03-01T10:59:29Z</time><name>PT2287</name></trkpt>
<trkpt lat="52.088669" lon="05.710764"><ele>38.6</ele><time>2021-03-01T10:59:30Z</time><name>PT2288</name></trkpt>
<trkpt lat="52.088657" lon="05.710753"><ele>38.6</ele><time>2021-03-01T10:59:31Z</time><name>PT2289</name></trkpt>
<trkpt lat="52.088649" lon="05.710743"><ele>38.6</ele><time>2021-03-01T10:59:32Z</time><name>PT2290</name></trkpt>
<trkpt lat="52.088636" lon="05.710728"><ele>38.6</ele><time>2021-03-01T10:59:33Z</time><name>PT2291</name></trkpt>
<trkpt lat="52.088626" lon="05.710719"><ele>38.6</ele><time>2021-03-01T10:59:34Z</time><name>PT2292</name></trkpt>
<trkpt lat="52.088609" lon="05.710700"><ele>38.6</ele><time>2021-03-01T10:59:35Z</time><name>PT2293</name></trkpt>
<trkpt lat="52.088598" lon="05.710683"><ele>38.6</ele><time>2021-03-01T10:59:36Z</time><name>PT2294</name></trkpt>
<trkpt lat="52.088584" lon="05.710668"><ele>38.5</ele><time>2021-03-01T10:59:37Z</time><name>PT2295</name></trkpt>
<trkpt lat="52.088570" lon="05.710656"><ele>38.6</ele><time>2021-03-01T10:59:38Z</time><name>PT2296</name></trkpt>
<trkpt lat="52.088560" lon="05.710642"><ele>38.5</ele><time>2021-03-01T10:59:39Z</time><name>PT2297</name></trkpt>
<trkpt lat="52.088549" lon="05.710630"><ele>38.6</ele><time>2021-03-01T10:59:40Z</time><name>PT2298</name></trkpt>
<trkpt lat="52.088535" lon="05.710612"><ele>38.8</ele><time>2021-03-01T10:59:41Z</time><name>PT2299</name></trkpt>
<trkpt lat="52.088517" lon="05.710588"><ele>38.9</ele><time>2021-03-01T10:59:42Z</time><name>PT2300</name></trkpt>
<trkpt lat="52.088504" lon="05.710568"><ele>39</ele><time>2021-03-01T10:59:43Z</time><name>PT2301</name></trkpt>
<trkpt lat="52.088490" lon="05.710549"><ele>39</ele><time>2021-03-01T10:59:44Z</time><name>PT2302</name></trkpt>
<trkpt lat="52.088480" lon="05.710536"><ele>38.9</ele><time>2021-03-01T10:59:45Z</time><name>PT2303</name></trkpt>
<trkpt lat="52.088466" lon="05.710524"><ele>38.9</ele><time>2021-03-01T10:59:46Z</time><name>PT2304</name></trkpt>
<trkpt lat="52.088455" lon="05.710513"><ele>38.8</ele><time>2021-03-01T10:59:47Z</time><name>PT2305</name></trkpt>
<trkpt lat="52.088445" lon="05.710505"><ele>38.6</ele><time>2021-03-01T10:59:48Z</time><name>PT2306</name></trkpt>
<trkpt lat="52.088436" lon="05.710499"><ele>38.5</ele><time>2021-03-01T10:59:49Z</time><name>PT2307</name></trkpt>
<trkpt lat="52.088424" lon="05.710479"><ele>38.5</ele><time>2021-03-01T10:59:50Z</time><name>PT2308</name></trkpt>
<trkpt lat="52.088412" lon="05.710467"><ele>38.6</ele><time>2021-03-01T10:59:51Z</time><name>PT2309</name></trkpt>
<trkpt lat="52.088401" lon="05.710448"><ele>38.6</ele><time>2021-03-01T10:59:52Z</time><name>PT2310</name></trkpt>
<trkpt lat="52.088390" lon="05.710432"><ele>38.7</ele><time>2021-03-01T10:59:53Z</time><name>PT2311</name></trkpt>
<trkpt lat="52.088380" lon="05.710421"><ele>38.8</ele><time>2021-03-01T10:59:54Z</time><name>PT2312</name></trkpt>
<trkpt lat="52.088365" lon="05.710408"><ele>38.9</ele><time>2021-03-01T10:59:55Z</time><name>PT2313</name></trkpt>
<trkpt lat="52.088355" lon="05.710392"><ele>38.9</ele><time>2021-03-01T10:59:56Z</time><name>PT2314</name></trkpt>
<trkpt lat="52.088343" lon="05.710376"><ele>38.7</ele><time>2021-03-01T10:59:57Z</time><name>PT2315</name></trkpt>
<trkpt lat="52.088331" lon="05.710364"><ele>38.7</ele><time>2021-03-01T10:59:58Z</time><name>PT2316</name></trkpt>
<trkpt lat="52.088319" lon="05.710345"><ele>38.8</ele><time>2021-03-01T10:59:59Z</time><name>PT2317</name></trkpt>
<trkpt lat="52.088309" lon="05.710327"><ele>38.7</ele><time>2021-03-01T11:00:00Z</time><name>PT2318</name></trkpt>
<trkpt lat="52.088299" lon="05.710310"><ele>38.7</ele><time>2021-03-01T11:00:01Z</time><name>PT2319</name></trkpt>
<trkpt lat="52.088284" lon="05.710291"><ele>38.8</ele><time>2021-03-01T11:00:02Z</time><name>PT2320</name></trkpt>
<trkpt lat="52.088270" lon="05.710269"><ele>38.7</ele><time>2021-03-01T11:00:03Z</time><name>PT2321</name></trkpt>
<trkpt lat="52.088258" lon="05.710257"><ele>38.7</ele><time>2021-03-01T11:00:04Z</time><name>PT2322</name></trkpt>
<trkpt lat="52.088246" lon="05.710248"><ele>38.7</ele><time>2021-03-01T11:00:05Z</time><name>PT2323</name></trkpt>
<trkpt lat="52.088232" lon="05.710234"><ele>38.6</ele><time>2021-03-01T11:00:06Z</time><name>PT2324</name></trkpt>
<trkpt lat="52.088221" lon="05.710217"><ele>38.6</ele><time>2021-03-01T11:00:07Z</time><name>PT2325</name></trkpt>
<trkpt lat="52.088211" lon="05.710203"><ele>38.6</ele><time>2021-03-01T11:00:08Z</time><name>PT2326</name></trkpt>
<trkpt lat="52.088201" lon="05.710191"><ele>38.7</ele><time>2021-03-01T11:00:09Z</time><name>PT2327</name></trkpt>
<trkpt lat="52.088190" lon="05.710181"><ele>38.8</ele><time>2021-03-01T11:00:10Z</time><name>PT2328</name></trkpt>
<trkpt lat="52.088177" lon="05.710167"><ele>38.9</ele><time>2021-03-01T11:00:11Z</time><name>PT2329</name></trkpt>
<trkpt lat="52.088164" lon="05.710156"><ele>39</ele><time>2021-03-01T11:00:12Z</time><name>PT2330</name></trkpt>
<trkpt lat="52.088152" lon="05.710145"><ele>39</ele><time>2021-03-01T11:00:13Z</time><name>PT2331</name></trkpt>
<trkpt lat="52.088141" lon="05.710133"><ele>39</ele><time>2021-03-01T11:00:14Z</time><name>PT2332</name></trkpt>
<trkpt lat="52.088130" lon="05.710121"><ele>39</ele><time>2021-03-01T11:00:15Z</time><name>PT2333</name></trkpt>
<trkpt lat="52.088118" lon="05.710110"><ele>38.9</ele><time>2021-03-01T11:00:16Z</time><name>PT2334</name></trkpt>
<trkpt lat="52.088109" lon="05.710102"><ele>38.8</ele><time>2021-03-01T11:00:17Z</time><name>PT2335</name></trkpt>
<trkpt lat="52.088097" lon="05.710094"><ele>38.8</ele><time>2021-03-01T11:00:18Z</time><name>PT2336</name></trkpt>
<trkpt lat="52.088086" lon="05.710084"><ele>38.8</ele><time>2021-03-01T11:00:19Z</time><name>PT2337</name></trkpt>
<trkpt lat="52.088075" lon="05.710073"><ele>38.8</ele><time>2021-03-01T11:00:20Z</time><name>PT2338</name></trkpt>
<trkpt lat="52.088068" lon="05.710069"><ele>38.8</ele><time>2021-03-01T11:00:21Z</time><name>PT2339</name></trkpt>
<trkpt lat="52.088060" lon="05.710064"><ele>38.8</ele><time>2021-03-01T11:00:22Z</time><name>PT2340</name></trkpt>
<trkpt lat="52.088051" lon="05.710048"><ele>38.8</ele><time>2021-03-01T11:00:23Z</time><name>PT2341</name></trkpt>
<trkpt lat="52.088039" lon="05.710030"><ele>38.9</ele><time>2021-03-01T11:00:24Z</time><name>PT2342</name></trkpt>
<trkpt lat="52.088032" lon="05.710017"><ele>39.1</ele><time>2021-03-01T11:00:25Z</time><name>PT2343</name></trkpt>
<trkpt lat="52.088023" lon="05.710005"><ele>39</ele><time>2021-03-01T11:00:26Z</time><name>PT2344</name></trkpt>
<trkpt lat="52.088013" lon="05.709990"><ele>39.1</ele><time>2021-03-01T11:00:27Z</time><name>PT2345</name></trkpt>
<trkpt lat="52.088002" lon="05.709976"><ele>39.2</ele><time>2021-03-01T11:00:28Z</time><name>PT2346</name></trkpt>
<trkpt lat="52.087990" lon="05.709959"><ele>39.1</ele><time>2021-03-01T11:00:29Z</time><name>PT2347</name></trkpt>
<trkpt lat="52.087977" lon="05.709938"><ele>39</ele><time>2021-03-01T11:00:30Z</time><name>PT2348</name></trkpt>
<trkpt lat="52.087967" lon="05.709923"><ele>39.1</ele><time>2021-03-01T11:00:31Z</time><name>PT2349</name></trkpt>
<trkpt lat="52.087960" lon="05.709914"><ele>39</ele><time>2021-03-01T11:00:32Z</time><name>PT2350</name></trkpt>
<trkpt lat="52.087949" lon="05.709908"><ele>39</ele><time>2021-03-01T11:00:33Z</time><name>PT2351</name></trkpt>
<trkpt lat="52.087934" lon="05.709909"><ele>39</ele><time>2021-03-01T11:00:34Z</time><name>PT2352</name></trkpt>
<trkpt lat="52.087917" lon="05.709911"><ele>39.1</ele><time>2021-03-01T11:00:35Z</time><name>PT2353</name></trkpt>
<trkpt lat="52.087903" lon="05.709920"><ele>39.1</ele><time>2021-03-01T11:00:36Z</time><name>PT2354</name></trkpt>
<trkpt lat="52.087890" lon="05.709935"><ele>39</ele><time>2021-03-01T11:00:37Z</time><name>PT2355</name></trkpt>
<trkpt lat="52.087877" lon="05.709946"><ele>38.9</ele><time>2021-03-01T11:00:38Z</time><name>PT2356</name></trkpt>
<trkpt lat="52.087858" lon="05.709946"><ele>38.7</ele><time>2021-03-01T11:00:39Z</time><name>PT2357</name></trkpt>
<trkpt lat="52.087842" lon="05.709955"><ele>38.5</ele><time>2021-03-01T11:00:40Z</time><name>PT2358</name></trkpt>
<trkpt lat="52.087826" lon="05.709967"><ele>38.3</ele><time>2021-03-01T11:00:41Z</time><name>PT2359</name></trkpt>
<trkpt lat="52.087812" lon="05.709979"><ele>38.3</ele><time>2021-03-01T11:00:42Z</time><name>PT2360</name></trkpt>
<trkpt lat="52.087802" lon="05.709987"><ele>38.3</ele><time>2021-03-01T11:00:43Z</time><name>PT2361</name></trkpt>
<trkpt lat="52.087788" lon="05.710000"><ele>38.3</ele><time>2021-03-01T11:00:44Z</time><name>PT2362</name></trkpt>
<trkpt lat="52.087774" lon="05.710014"><ele>38.5</ele><time>2021-03-01T11:00:45Z</time><name>PT2363</name></trkpt>
<trkpt lat="52.087762" lon="05.710026"><ele>38.5</ele><time>2021-03-01T11:00:46Z</time><name>PT2364</name></trkpt>
<trkpt lat="52.087749" lon="05.710040"><ele>38.6</ele><time>2021-03-01T11:00:47Z</time><name>PT2365</name></trkpt>
<trkpt lat="52.087737" lon="05.710050"><ele>38.5</ele><time>2021-03-01T11:00:48Z</time><name>PT2366</name></trkpt>
<trkpt lat="52.087726" lon="05.710058"><ele>38.6</ele><time>2021-03-01T11:00:49Z</time><name>PT2367</name></trkpt>
<trkpt lat="52.087713" lon="05.710068"><ele>38.4</ele><time>2021-03-01T11:00:50Z</time><name>PT2368</name></trkpt>
<trkpt lat="52.087700" lon="05.710077"><ele>38.5</ele><time>2021-03-01T11:00:51Z</time><name>PT2369</name></trkpt>
<trkpt lat="52.087688" lon="05.710084"><ele>38.6</ele><time>2021-03-01T11:00:52Z</time><name>PT2370</name></trkpt>
<trkpt lat="52.087677" lon="05.710089"><ele>38.5</ele><time>2021-03-01T11:00:53Z</time><name>PT2371</name></trkpt>
<trkpt lat="52.087670" lon="05.710096"><ele>38.5</ele><time>2021-03-01T11:00:54Z</time><name>PT2372</name></trkpt>
<trkpt lat="52.087656" lon="05.710106"><ele>38.4</ele><time>2021-03-01T11:00:55Z</time><name>PT2373</name></trkpt>
<trkpt lat="52.087642" lon="05.710117"><ele>38.3</ele><time>2021-03-01T11:00:56Z</time><name>PT2374</name></trkpt>
<trkpt lat="52.087629" lon="05.710126"><ele>38.3</ele><time>2021-03-01T11:00:57Z</time><name>PT2375</name></trkpt>
<trkpt lat="52.087618" lon="05.710134"><ele>38.4</ele><time>2021-03-01T11:00:58Z</time><name>PT2376</name></trkpt>
<trkpt lat="52.087604" lon="05.710146"><ele>38.5</ele><time>2021-03-01T11:00:59Z</time><name>PT2377</name></trkpt>
<trkpt lat="52.087592" lon="05.710158"><ele>38.5</ele><time>2021-03-01T11:01:00Z</time><name>PT2378</name></trkpt>
<trkpt lat="52.087582" lon="05.710170"><ele>38.6</ele><time>2021-03-01T11:01:01Z</time><name>PT2379</name></trkpt>
<trkpt lat="52.087571" lon="05.710185"><ele>38.6</ele><time>2021-03-01T11:01:02Z</time><name>PT2380</name></trkpt>
<trkpt lat="52.087559" lon="05.710198"><ele>38.7</ele><time>2021-03-01T11:01:03Z</time><name>PT2381</name></trkpt>
<trkpt lat="52.087548" lon="05.710211"><ele>38.6</ele><time>2021-03-01T11:01:04Z</time><name>PT2382</name></trkpt>
<trkpt lat="52.087536" lon="05.710225"><ele>38.8</ele><time>2021-03-01T11:01:05Z</time><name>PT2383</name></trkpt>
<trkpt lat="52.087526" lon="05.710239"><ele>38.8</ele><time>2021-03-01T11:01:06Z</time><name>PT2384</name></trkpt>
<trkpt lat="52.087514" lon="05.710253"><ele>38.9</ele><time>2021-03-01T11:01:07Z</time><name>PT2385</name></trkpt>
<trkpt lat="52.087504" lon="05.710265"><ele>39</ele><time>2021-03-01T11:01:08Z</time><name>PT2386</name></trkpt>
<trkpt lat="52.087492" lon="05.710276"><ele>39</ele><time>2021-03-01T11:01:09Z</time><name>PT2387</name></trkpt>
<trkpt lat="52.087481" lon="05.710290"><ele>39.2</ele><time>2021-03-01T11:01:10Z</time><name>PT2388</name></trkpt>
<trkpt lat="52.087468" lon="05.710304"><ele>39.4</ele><time>2021-03-01T11:01:11Z</time><name>PT2389</name></trkpt>
<trkpt lat="52.087461" lon="05.710329"><ele>39.4</ele><time>2021-03-01T11:01:13Z</time><name>PT2390</name></trkpt>
<trkpt lat="52.087447" lon="05.710345"><ele>39.4</ele><time>2021-03-01T11:01:13Z</time><name>PT2391</name></trkpt>
<trkpt lat="52.087436" lon="05.710368"><ele>39.5</ele><time>2021-03-01T11:01:14Z</time><name>PT2392</name></trkpt>
<trkpt lat="52.087426" lon="05.710385"><ele>39.2</ele><time>2021-03-01T11:01:15Z</time><name>PT2393</name></trkpt>
<trkpt lat="52.087416" lon="05.710398"><ele>39.2</ele><time>2021-03-01T11:01:16Z</time><name>PT2394</name></trkpt>
<trkpt lat="52.087404" lon="05.710406"><ele>39.1</ele><time>2021-03-01T11:01:17Z</time><name>PT2395</name></trkpt>
<trkpt lat="52.087390" lon="05.710414"><ele>39.1</ele><time>2021-03-01T11:01:18Z</time><name>PT2396</name></trkpt>
<trkpt lat="52.087378" lon="05.710426"><ele>39</ele><time>2021-03-01T11:01:19Z</time><name>PT2397</name></trkpt>
<trkpt lat="52.087366" lon="05.710429"><ele>39.3</ele><time>2021-03-01T11:01:20Z</time><name>PT2398</name></trkpt>
<trkpt lat="52.087356" lon="05.710435"><ele>39.4</ele><time>2021-03-01T11:01:21Z</time><name>PT2399</name></trkpt>
<trkpt lat="52.087344" lon="05.710446"><ele>39.4</ele><time>2021-03-01T11:01:22Z</time><name>PT2400</name></trkpt>
<trkpt lat="52.087331" lon="05.710457"><ele>39.4</ele><time>2021-03-01T11:01:23Z</time><name>PT2401</name></trkpt>
<trkpt lat="52.087319" lon="05.710466"><ele>39.5</ele><time>2021-03-01T11:01:24Z</time><name>PT2402</name></trkpt>
<trkpt lat="52.087308" lon="05.710479"><ele>39.5</ele><time>2021-03-01T11:01:25Z</time><name>PT2403</name></trkpt>
<trkpt lat="52.087298" lon="05.710494"><ele>39.6</ele><time>2021-03-01T11:01:26Z</time><name>PT2404</name></trkpt>
<trkpt lat="52.087293" lon="05.710506"><ele>39.8</ele><time>2021-03-01T11:01:27Z</time><name>PT2405</name></trkpt>
<trkpt lat="52.087289" lon="05.710517"><ele>39.9</ele><time>2021-03-01T11:01:28Z</time><name>PT2406</name></trkpt>
<trkpt lat="52.087284" lon="05.710527"><ele>39.8</ele><time>2021-03-01T11:01:29Z</time><name>PT2407</name></trkpt>
<trkpt lat="52.087278" lon="05.710540"><ele>39.7</ele><time>2021-03-01T11:01:30Z</time><name>PT2408</name></trkpt>
<trkpt lat="52.087272" lon="05.710558"><ele>39.6</ele><time>2021-03-01T11:01:31Z</time><name>PT2409</name></trkpt>
<trkpt lat="52.087268" lon="05.710575"><ele>39.6</ele><time>2021-03-01T11:01:32Z</time><name>PT2410</name></trkpt>
<trkpt lat="52.087264" lon="05.710592"><ele>39.6</ele><time>2021-03-01T11:01:33Z</time><name>PT2411</name></trkpt>
<trkpt lat="52.087258" lon="05.710611"><ele>39.9</ele><time>2021-03-01T11:01:34Z</time><name>PT2412</name></trkpt>
<trkpt lat="52.087251" lon="05.710627"><ele>39.9</ele><time>2021-03-01T11:01:35Z</time><name>PT2413</name></trkpt>
<trkpt lat="52.087247" lon="05.710646"><ele>40.1</ele><time>2021-03-01T11:01:36Z</time><name>PT2414</name></trkpt>
<trkpt lat="52.087241" lon="05.710666"><ele>39.9</ele><time>2021-03-01T11:01:37Z</time><name>PT2415</name></trkpt>
<trkpt lat="52.087236" lon="05.710682"><ele>39.9</ele><time>2021-03-01T11:01:38Z</time><name>PT2416</name></trkpt>
<trkpt lat="52.087231" lon="05.710696"><ele>40.1</ele><time>2021-03-01T11:01:39Z</time><name>PT2417</name></trkpt>
<trkpt lat="52.087225" lon="05.710710"><ele>40</ele><time>2021-03-01T11:01:40Z</time><name>PT2418</name></trkpt>
<trkpt lat="52.087221" lon="05.710728"><ele>40.1</ele><time>2021-03-01T11:01:41Z</time><name>PT2419</name></trkpt>
<trkpt lat="52.087207" lon="05.710737"><ele>40.3</ele><time>2021-03-01T11:01:42Z</time><name>PT2420</name></trkpt>
<trkpt lat="52.087196" lon="05.710752"><ele>40.3</ele><time>2021-03-01T11:01:43Z</time><name>PT2421</name></trkpt>
<trkpt lat="52.087181" lon="05.710768"><ele>40.3</ele><time>2021-03-01T11:01:44Z</time><name>PT2422</name></trkpt>
<trkpt lat="52.087168" lon="05.710785"><ele>40.4</ele><time>2021-03-01T11:01:45Z</time><name>PT2423</name></trkpt>
<trkpt lat="52.087156" lon="05.710801"><ele>40.4</ele><time>2021-03-01T11:01:46Z</time><name>PT2424</name></trkpt>
<trkpt lat="52.087143" lon="05.710813"><ele>40.4</ele><time>2021-03-01T11:01:47Z</time><name>PT2425</name></trkpt>
<trkpt lat="52.087130" lon="05.710824"><ele>40.5</ele><time>2021-03-01T11:01:48Z</time><name>PT2426</name></trkpt>
<trkpt lat="52.087117" lon="05.710832"><ele>40.7</ele><time>2021-03-01T11:01:49Z</time><name>PT2427</name></trkpt>
<trkpt lat="52.087102" lon="05.710838"><ele>41</ele><time>2021-03-01T11:01:50Z</time><name>PT2428</name></trkpt>
<trkpt lat="52.087084" lon="05.710837"><ele>41.2</ele><time>2021-03-01T11:01:51Z</time><name>PT2429</name></trkpt>
<trkpt lat="52.087069" lon="05.710842"><ele>41.3</ele><time>2021-03-01T11:01:52Z</time><name>PT2430</name></trkpt>
<trkpt lat="52.087056" lon="05.710850"><ele>41.4</ele><time>2021-03-01T11:01:53Z</time><name>PT2431</name></trkpt>
<trkpt lat="52.087044" lon="05.710848"><ele>41.3</ele><time>2021-03-01T11:01:54Z</time><name>PT2432</name></trkpt>
<trkpt lat="52.087034" lon="05.710849"><ele>41.2</ele><time>2021-03-01T11:01:55Z</time><name>PT2433</name></trkpt>
<trkpt lat="52.087025" lon="05.710847"><ele>41.2</ele><time>2021-03-01T11:01:56Z</time><name>PT2434</name></trkpt>
<trkpt lat="52.087013" lon="05.710840"><ele>41.1</ele><time>2021-03-01T11:01:57Z</time><name>PT2435</name></trkpt>
<trkpt lat="52.087000" lon="05.710829"><ele>41.1</ele><time>2021-03-01T11:01:58Z</time><name>PT2436</name></trkpt>
<trkpt lat="52.086987" lon="05.710819"><ele>41.1</ele><time>2021-03-01T11:01:59Z</time><name>PT2437</name></trkpt>
<trkpt lat="52.086973" lon="05.710812"><ele>41.3</ele><time>2021-03-01T11:02:00Z</time><name>PT2438</name></trkpt>
<trkpt lat="52.086961" lon="05.710805"><ele>41.5</ele><time>2021-03-01T11:02:01Z</time><name>PT2439</name></trkpt>
<trkpt lat="52.086951" lon="05.710800"><ele>41.7</ele><time>2021-03-01T11:02:02Z</time><name>PT2440</name></trkpt>
<trkpt lat="52.086938" lon="05.710794"><ele>41.9</ele><time>2021-03-01T11:02:03Z</time><name>PT2441</name></trkpt>
<trkpt lat="52.086921" lon="05.710782"><ele>42.1</ele><time>2021-03-01T11:02:04Z</time><name>PT2442</name></trkpt>
<trkpt lat="52.086905" lon="05.710776"><ele>42.2</ele><time>2021-03-01T11:02:05Z</time><name>PT2443</name></trkpt>
<trkpt lat="52.086890" lon="05.710773"><ele>42.2</ele><time>2021-03-01T11:02:06Z</time><name>PT2444</name></trkpt>
<trkpt lat="52.086881" lon="05.710766"><ele>42.2</ele><time>2021-03-01T11:02:07Z</time><name>PT2445</name></trkpt>
<trkpt lat="52.086873" lon="05.710757"><ele>42.2</ele><time>2021-03-01T11:02:08Z</time><name>PT2446</name></trkpt>
<trkpt lat="52.086862" lon="05.710748"><ele>42.2</ele><time>2021-03-01T11:02:09Z</time><name>PT2447</name></trkpt>
<trkpt lat="52.086850" lon="05.710742"><ele>42.4</ele><time>2021-03-01T11:02:10Z</time><name>PT2448</name></trkpt>
<trkpt lat="52.086837" lon="05.710730"><ele>42.4</ele><time>2021-03-01T11:02:11Z</time><name>PT2449</name></trkpt>
<trkpt lat="52.086824" lon="05.710724"><ele>42.6</ele><time>2021-03-01T11:02:12Z</time><name>PT2450</name></trkpt>
<trkpt lat="52.086811" lon="05.710717"><ele>42.8</ele><time>2021-03-01T11:02:13Z</time><name>PT2451</name></trkpt>
<trkpt lat="52.086800" lon="05.710706"><ele>43</ele><time>2021-03-01T11:02:14Z</time><name>PT2452</name></trkpt>
<trkpt lat="52.086787" lon="05.710693"><ele>43.1</ele><time>2021-03-01T11:02:15Z</time><name>PT2453</name></trkpt>
<trkpt lat="52.086778" lon="05.710686"><ele>43.1</ele><time>2021-03-01T11:02:16Z</time><name>PT2454</name></trkpt>
<trkpt lat="52.086770" lon="05.710679"><ele>43.1</ele><time>2021-03-01T11:02:17Z</time><name>PT2455</name></trkpt>
<trkpt lat="52.086762" lon="05.710669"><ele>43</ele><time>2021-03-01T11:02:18Z</time><name>PT2456</name></trkpt>
<trkpt lat="52.086751" lon="05.710660"><ele>43</ele><time>2021-03-01T11:02:19Z</time><name>PT2457</name></trkpt>
<trkpt lat="52.086742" lon="05.710657"><ele>43.1</ele><time>2021-03-01T11:02:20Z</time><name>PT2458</name></trkpt>
<trkpt lat="52.086731" lon="05.710652"><ele>43.2</ele><time>2021-03-01T11:02:21Z</time><name>PT2459</name></trkpt>
<trkpt lat="52.086722" lon="05.710646"><ele>43.5</ele><time>2021-03-01T11:02:22Z</time><name>PT2460</name></trkpt>
<trkpt lat="52.086717" lon="05.710640"><ele>43.5</ele><time>2021-03-01T11:02:23Z</time><name>PT2461</name></trkpt>
<trkpt lat="52.086713" lon="05.710632"><ele>43.7</ele><time>2021-03-01T11:02:24Z</time><name>PT2462</name></trkpt>
<trkpt lat="52.086712" lon="05.710626"><ele>43.7</ele><time>2021-03-01T11:02:25Z</time><name>PT2463</name></trkpt>
<trkpt lat="52.086706" lon="05.710620"><ele>43.7</ele><time>2021-03-01T11:02:29Z</time><name>PT2464</name></trkpt>
<trkpt lat="52.086693" lon="05.710600"><ele>43.6</ele><time>2021-03-01T11:02:30Z</time><name>PT2465</name></trkpt>
<trkpt lat="52.086684" lon="05.710588"><ele>43.7</ele><time>2021-03-01T11:02:31Z</time><name>PT2466</name></trkpt>
<trkpt lat="52.086678" lon="05.710574"><ele>43.8</ele><time>2021-03-01T11:02:32Z</time><name>PT2467</name></trkpt>
<trkpt lat="52.086669" lon="05.710563"><ele>43.9</ele><time>2021-03-01T11:02:33Z</time><name>PT2468</name></trkpt>
<trkpt lat="52.086659" lon="05.710552"><ele>44.3</ele><time>2021-03-01T11:02:34Z</time><name>PT2469</name></trkpt>
<trkpt lat="52.086649" lon="05.710540"><ele>44.4</ele><time>2021-03-01T11:02:35Z</time><name>PT2470</name></trkpt>
<trkpt lat="52.086638" lon="05.710532"><ele>44.4</ele><time>2021-03-01T11:02:36Z</time><name>PT2471</name></trkpt>
<trkpt lat="52.086631" lon="05.710520"><ele>44.4</ele><time>2021-03-01T11:02:37Z</time><name>PT2472</name></trkpt>
<trkpt lat="52.086624" lon="05.710510"><ele>44.3</ele><time>2021-03-01T11:02:38Z</time><name>PT2473</name></trkpt>
<trkpt lat="52.086614" lon="05.710498"><ele>44.3</ele><time>2021-03-01T11:02:39Z</time><name>PT2474</name></trkpt>
<trkpt lat="52.086604" lon="05.710484"><ele>44.2</ele><time>2021-03-01T11:02:40Z</time><name>PT2475</name></trkpt>
<trkpt lat="52.086590" lon="05.710465"><ele>44.2</ele><time>2021-03-01T11:02:41Z</time><name>PT2476</name></trkpt>
<trkpt lat="52.086578" lon="05.710449"><ele>44.3</ele><time>2021-03-01T11:02:42Z</time><name>PT2477</name></trkpt>
<trkpt lat="52.086568" lon="05.710440"><ele>44.3</ele><time>2021-03-01T11:02:43Z</time><name>PT2478</name></trkpt>
<trkpt lat="52.086557" lon="05.710427"><ele>44.1</ele><time>2021-03-01T11:02:44Z</time><name>PT2479</name></trkpt>
<trkpt lat="52.086549" lon="05.710413"><ele>44.3</ele><time>2021-03-01T11:02:45Z</time><name>PT2480</name></trkpt>
<trkpt lat="52.086541" lon="05.710393"><ele>44.4</ele><time>2021-03-01T11:02:46Z</time><name>PT2481</name></trkpt>
<trkpt lat="52.086532" lon="05.710374"><ele>44.4</ele><time>2021-03-01T11:02:48Z</time><name>PT2482</name></trkpt>
<trkpt lat="52.086523" lon="05.710356"><ele>44.4</ele><time>2021-03-01T11:02:48Z</time><name>PT2483</name></trkpt>
<trkpt lat="52.086514" lon="05.710338"><ele>44.4</ele><time>2021-03-01T11:02:49Z</time><name>PT2484</name></trkpt>
<trkpt lat="52.086512" lon="05.710321"><ele>44.4</ele><time>2021-03-01T11:02:50Z</time><name>PT2485</name></trkpt>
<trkpt lat="52.086504" lon="05.710302"><ele>44.4</ele><time>2021-03-01T11:02:51Z</time><name>PT2486</name></trkpt>
<trkpt lat="52.086494" lon="05.710284"><ele>44.4</ele><time>2021-03-01T11:02:52Z</time><name>PT2487</name></trkpt>
<trkpt lat="52.086485" lon="05.710264"><ele>44.4</ele><time>2021-03-01T11:02:53Z</time><name>PT2488</name></trkpt>
<trkpt lat="52.086473" lon="05.710243"><ele>44.5</ele><time>2021-03-01T11:02:54Z</time><name>PT2489</name></trkpt>
<trkpt lat="52.086459" lon="05.710223"><ele>44.6</ele><time>2021-03-01T11:02:55Z</time><name>PT2490</name></trkpt>
<trkpt lat="52.086447" lon="05.710205"><ele>44.6</ele><time>2021-03-01T11:02:56Z</time><name>PT2491</name></trkpt>
<trkpt lat="52.086437" lon="05.710189"><ele>44.5</ele><time>2021-03-01T11:02:57Z</time><name>PT2492</name></trkpt>
<trkpt lat="52.086429" lon="05.710172"><ele>44.4</ele><time>2021-03-01T11:02:58Z</time><name>PT2493</name></trkpt>
<trkpt lat="52.086420" lon="05.710157"><ele>44.4</ele><time>2021-03-01T11:02:59Z</time><name>PT2494</name></trkpt>
<trkpt lat="52.086412" lon="05.710140"><ele>44.4</ele><time>2021-03-01T11:03:00Z</time><name>PT2495</name></trkpt>
<trkpt lat="52.086403" lon="05.710120"><ele>44.3</ele><time>2021-03-01T11:03:01Z</time><name>PT2496</name></trkpt>
<trkpt lat="52.086395" lon="05.710101"><ele>44.4</ele><time>2021-03-01T11:03:02Z</time><name>PT2497</name></trkpt>
<trkpt lat="52.086386" lon="05.710088"><ele>44.4</ele><time>2021-03-01T11:03:03Z</time><name>PT2498</name></trkpt>
<trkpt lat="52.086376" lon="05.710077"><ele>44.3</ele><time>2021-03-01T11:03:04Z</time><name>PT2499</name></trkpt>
<trkpt lat="52.086365" lon="05.710065"><ele>44.3</ele><time>2021-03-01T11:03:05Z</time><name>PT2500</name></trkpt>
<trkpt lat="52.086357" lon="05.710053"><ele>44.4</ele><time>2021-03-01T11:03:06Z</time><name>PT2501</name></trkpt>
<trkpt lat="52.086352" lon="05.710042"><ele>44.4</ele><time>2021-03-01T11:03:07Z</time><name>PT2502</name></trkpt>
<trkpt lat="52.086347" lon="05.710039"><ele>44.2</ele><time>2021-03-01T11:03:08Z</time><name>PT2503</name></trkpt>
<trkpt lat="52.086344" lon="05.710036"><ele>44.4</ele><time>2021-03-01T11:03:09Z</time><name>PT2504</name></trkpt>
<trkpt lat="52.086342" lon="05.710033"><ele>44.3</ele><time>2021-03-01T11:03:10Z</time><name>PT2505</name></trkpt>
<trkpt lat="52.086341" lon="05.710036"><ele>44.4</ele><time>2021-03-01T11:03:11Z</time><name>PT2506</name></trkpt>
<trkpt lat="52.086341" lon="05.710034"><ele>44.3</ele><time>2021-03-01T11:03:12Z</time><name>PT2507</name></trkpt>
<trkpt lat="52.086334" lon="05.710032"><ele>43.8</ele><time>2021-03-01T11:03:16Z</time><name>PT2508</name></trkpt>
<trkpt lat="52.086320" lon="05.710029"><ele>43.9</ele><time>2021-03-01T11:03:17Z</time><name>PT2509</name></trkpt>
<trkpt lat="52.086310" lon="05.710031"><ele>43.9</ele><time>2021-03-01T11:03:18Z</time><name>PT2510</name></trkpt>
<trkpt lat="52.086295" lon="05.710028"><ele>43.9</ele><time>2021-03-01T11:03:19Z</time><name>PT2511</name></trkpt>
<trkpt lat="52.086286" lon="05.710029"><ele>43.9</ele><time>2021-03-01T11:03:20Z</time><name>PT2512</name></trkpt>
<trkpt lat="52.086277" lon="05.710023"><ele>43.9</ele><time>2021-03-01T11:03:21Z</time><name>PT2513</name></trkpt>
<trkpt lat="52.086267" lon="05.710012"><ele>44.2</ele><time>2021-03-01T11:03:22Z</time><name>PT2514</name></trkpt>
<trkpt lat="52.086259" lon="05.710009"><ele>43.9</ele><time>2021-03-01T11:03:23Z</time><name>PT2515</name></trkpt>
<trkpt lat="52.086254" lon="05.710004"><ele>44</ele><time>2021-03-01T11:03:24Z</time><name>PT2516</name></trkpt>
<trkpt lat="52.086246" lon="05.709995"><ele>44.1</ele><time>2021-03-01T11:03:25Z</time><name>PT2517</name></trkpt>
<trkpt lat="52.086236" lon="05.709988"><ele>44.1</ele><time>2021-03-01T11:03:26Z</time><name>PT2518</name></trkpt>
<trkpt lat="52.086229" lon="05.709984"><ele>43.9</ele><time>2021-03-01T11:03:27Z</time><name>PT2519</name></trkpt>
<trkpt lat="52.086219" lon="05.709976"><ele>44.2</ele><time>2021-03-01T11:03:28Z</time><name>PT2520</name></trkpt>
<trkpt lat="52.086214" lon="05.709971"><ele>44.2</ele><time>2021-03-01T11:03:29Z</time><name>PT2521</name></trkpt>
<trkpt lat="52.086216" lon="05.709972"><ele>44</ele><time>2021-03-01T11:03:30Z</time><name>PT2522</name></trkpt>
<trkpt lat="52.086217" lon="05.709973"><ele>43.9</ele><time>2021-03-01T11:03:31Z</time><name>PT2523</name></trkpt>
<trkpt lat="52.086217" lon="05.709975"><ele>43.9</ele><time>2021-03-01T11:03:32Z</time><name>PT2524</name></trkpt>
<trkpt lat="52.086213" lon="05.709973"><ele>43.9</ele><time>2021-03-01T11:03:41Z</time><name>PT2525</name></trkpt>
<trkpt lat="52.086212" lon="05.709961"><ele>43.8</ele><time>2021-03-01T11:03:42Z</time><name>PT2526</name></trkpt>
<trkpt lat="52.086210" lon="05.709956"><ele>44</ele><time>2021-03-01T11:03:43Z</time><name>PT2527</name></trkpt>
<trkpt lat="52.086205" lon="05.709950"><ele>44</ele><time>2021-03-01T11:03:44Z</time><name>PT2528</name></trkpt>
<trkpt lat="52.086205" lon="05.709950"><ele>44.1</ele><time>2021-03-01T11:03:45Z</time><name>PT2529</name></trkpt>
<trkpt lat="52.086211" lon="05.709955"><ele>44.4</ele><time>2021-03-01T11:03:47Z</time><name>PT2530</name></trkpt>
<trkpt lat="52.086204" lon="05.709940"><ele>44.2</ele><time>2021-03-01T11:03:48Z</time><name>PT2531</name></trkpt>
<trkpt lat="52.086196" lon="05.709934"><ele>43.9</ele><time>2021-03-01T11:03:49Z</time><name>PT2532</name></trkpt>
<trkpt lat="52.086187" lon="05.709922"><ele>43.8</ele><time>2021-03-01T11:03:50Z</time><name>PT2533</name></trkpt>
<trkpt lat="52.086181" lon="05.709913"><ele>43.6</ele><time>2021-03-01T11:03:51Z</time><name>PT2534</name></trkpt>
<trkpt lat="52.086169" lon="05.709901"><ele>43.6</ele><time>2021-03-01T11:03:52Z</time><name>PT2535</name></trkpt>
<trkpt lat="52.086160" lon="05.709891"><ele>43.6</ele><time>2021-03-01T11:03:53Z</time><name>PT2536</name></trkpt>
<trkpt lat="52.086149" lon="05.709888"><ele>43.8</ele><time>2021-03-01T11:03:54Z</time><name>PT2537</name></trkpt>
<trkpt lat="52.086141" lon="05.709885"><ele>43.9</ele><time>2021-03-01T11:03:55Z</time><name>PT2538</name></trkpt>
<trkpt lat="52.086133" lon="05.709887"><ele>43.8</ele><time>2021-03-01T11:03:56Z</time><name>PT2539</name></trkpt>
<trkpt lat="52.086129" lon="05.709889"><ele>43.9</ele><time>2021-03-01T11:03:57Z</time><name>PT2540</name></trkpt>
<trkpt lat="52.086124" lon="05.709897"><ele>43.9</ele><time>2021-03-01T11:03:58Z</time><name>PT2541</name></trkpt>
<trkpt lat="52.086122" lon="05.709897"><ele>43.8</ele><time>2021-03-01T11:03:59Z</time><name>PT2542</name></trkpt>
<trkpt lat="52.086122" lon="05.709893"><ele>43.9</ele><time>2021-03-01T11:04:00Z</time><name>PT2543</name></trkpt>
<trkpt lat="52.086106" lon="05.709891"><ele>43.7</ele><time>2021-03-01T11:04:09Z</time><name>PT2544</name></trkpt>
<trkpt lat="52.086106" lon="05.709898"><ele>43.9</ele><time>2021-03-01T11:04:10Z</time><name>PT2545</name></trkpt>
<trkpt lat="52.086104" lon="05.709892"><ele>44.1</ele><time>2021-03-01T11:04:11Z</time><name>PT2546</name></trkpt>
<trkpt lat="52.086101" lon="05.709889"><ele>44.3</ele><time>2021-03-01T11:04:22Z</time><name>PT2547</name></trkpt>
<trkpt lat="52.086099" lon="05.709888"><ele>44.1</ele><time>2021-03-01T11:04:23Z</time><name>PT2548</name></trkpt>
<trkpt lat="52.086098" lon="05.709888"><ele>44.1</ele><time>2021-03-01T11:04:24Z</time><name>PT2549</name></trkpt>
<trkpt lat="52.086096" lon="05.709893"><ele>43.9</ele><time>2021-03-01T11:04:27Z</time><name>PT2550</name></trkpt>
<trkpt lat="52.086089" lon="05.709901"><ele>43.8</ele><time>2021-03-01T11:04:28Z</time><name>PT2551</name></trkpt>
<trkpt lat="52.086082" lon="05.709912"><ele>43.8</ele><time>2021-03-01T11:04:29Z</time><name>PT2552</name></trkpt>
<trkpt lat="52.086073" lon="05.709921"><ele>43.7</ele><time>2021-03-01T11:04:30Z</time><name>PT2553</name></trkpt>
<trkpt lat="52.086066" lon="05.709931"><ele>43.8</ele><time>2021-03-01T11:04:31Z</time><name>PT2554</name></trkpt>
<trkpt lat="52.086061" lon="05.709944"><ele>43.7</ele><time>2021-03-01T11:04:32Z</time><name>PT2555</name></trkpt>
<trkpt lat="52.086056" lon="05.709959"><ele>43.8</ele><time>2021-03-01T11:04:33Z</time><name>PT2556</name></trkpt>
<trkpt lat="52.086052" lon="05.709976"><ele>43.9</ele><time>2021-03-01T11:04:34Z</time><name>PT2557</name></trkpt>
<trkpt lat="52.086046" lon="05.709994"><ele>44.2</ele><time>2021-03-01T11:04:35Z</time><name>PT2558</name></trkpt>
<trkpt lat="52.086041" lon="05.710012"><ele>44.2</ele><time>2021-03-01T11:04:36Z</time><name>PT2559</name></trkpt>
<trkpt lat="52.086038" lon="05.710029"><ele>44.5</ele><time>2021-03-01T11:04:37Z</time><name>PT2560</name></trkpt>
<trkpt lat="52.086034" lon="05.710048"><ele>44.7</ele><time>2021-03-01T11:04:38Z</time><name>PT2561</name></trkpt>
<trkpt lat="52.086030" lon="05.710068"><ele>44.7</ele><time>2021-03-01T11:04:39Z</time><name>PT2562</name></trkpt>
<trkpt lat="52.086022" lon="05.710086"><ele>44.7</ele><time>2021-03-01T11:04:40Z</time><name>PT2563</name></trkpt>
<trkpt lat="52.086014" lon="05.710107"><ele>44.8</ele><time>2021-03-01T11:04:41Z</time><name>PT2564</name></trkpt>
<trkpt lat="52.086010" lon="05.710127"><ele>44.8</ele><time>2021-03-01T11:04:42Z</time><name>PT2565</name></trkpt>
<trkpt lat="52.086005" lon="05.710139"><ele>44.8</ele><time>2021-03-01T11:04:43Z</time><name>PT2566</name></trkpt>
<trkpt lat="52.086004" lon="05.710143"><ele>44.8</ele><time>2021-03-01T11:04:44Z</time><name>PT2567</name></trkpt>
<trkpt lat="52.086003" lon="05.710144"><ele>44.8</ele><time>2021-03-01T11:04:45Z</time><name>PT2568</name></trkpt>
<trkpt lat="52.086000" lon="05.710143"><ele>45.1</ele><time>2021-03-01T11:04:46Z</time><name>PT2569</name></trkpt>
<trkpt lat="52.085999" lon="05.710140"><ele>45.3</ele><time>2021-03-01T11:04:47Z</time><name>PT2570</name></trkpt>
<trkpt lat="52.086000" lon="05.710138"><ele>44.8</ele><time>2021-03-01T11:04:48Z</time><name>PT2571</name></trkpt>
<trkpt lat="52.085998" lon="05.710135"><ele>45.5</ele><time>2021-03-01T11:04:49Z</time><name>PT2572</name></trkpt>
<trkpt lat="52.085993" lon="05.710142"><ele>46.1</ele><time>2021-03-01T11:04:50Z</time><name>PT2573</name></trkpt>
<trkpt lat="52.085983" lon="05.710152"><ele>46.2</ele><time>2021-03-01T11:04:51Z</time><name>PT2574</name></trkpt>
<trkpt lat="52.085972" lon="05.710159"><ele>46.6</ele><time>2021-03-01T11:04:52Z</time><name>PT2575</name></trkpt>
<trkpt lat="52.085964" lon="05.710170"><ele>46.4</ele><time>2021-03-01T11:04:53Z</time><name>PT2576</name></trkpt>
<trkpt lat="52.085953" lon="05.710182"><ele>46.2</ele><time>2021-03-01T11:04:54Z</time><name>PT2577</name></trkpt>
<trkpt lat="52.085947" lon="05.710193"><ele>45.7</ele><time>2021-03-01T11:04:55Z</time><name>PT2578</name></trkpt>
<trkpt lat="52.085941" lon="05.710203"><ele>45.8</ele><time>2021-03-01T11:04:56Z</time><name>PT2579</name></trkpt>
<trkpt lat="52.085934" lon="05.710213"><ele>45.8</ele><time>2021-03-01T11:04:57Z</time><name>PT2580</name></trkpt>
<trkpt lat="52.085929" lon="05.710223"><ele>46</ele><time>2021-03-01T11:04:58Z</time><name>PT2581</name></trkpt>
<trkpt lat="52.085924" lon="05.710236"><ele>46</ele><time>2021-03-01T11:04:59Z</time><name>PT2582</name></trkpt>
<trkpt lat="52.085920" lon="05.710244"><ele>46.2</ele><time>2021-03-01T11:05:00Z</time><name>PT2583</name></trkpt>
<trkpt lat="52.085919" lon="05.710247"><ele>46.1</ele><time>2021-03-01T11:05:01Z</time><name>PT2584</name></trkpt>
<trkpt lat="52.085919" lon="05.710249"><ele>46</ele><time>2021-03-01T11:05:02Z</time><name>PT2585</name></trkpt>
<trkpt lat="52.085917" lon="05.710253"><ele>46.2</ele><time>2021-03-01T11:05:03Z</time><name>PT2586</name></trkpt>
<trkpt lat="52.085913" lon="05.710260"><ele>46.1</ele><time>2021-03-01T11:05:04Z</time><name>PT2587</name></trkpt>
<trkpt lat="52.085910" lon="05.710268"><ele>46.1</ele><time>2021-03-01T11:05:05Z</time><name>PT2588</name></trkpt>
<trkpt lat="52.085906" lon="05.710274"><ele>46.3</ele><time>2021-03-01T11:05:06Z</time><name>PT2589</name></trkpt>
<trkpt lat="52.085903" lon="05.710280"><ele>46.2</ele><time>2021-03-01T11:05:07Z</time><name>PT2590</name></trkpt>
<trkpt lat="52.085898" lon="05.710289"><ele>46</ele><time>2021-03-01T11:05:08Z</time><name>PT2591</name></trkpt>
<trkpt lat="52.085893" lon="05.710299"><ele>46.2</ele><time>2021-03-01T11:05:09Z</time><name>PT2592</name></trkpt>
<trkpt lat="52.085879" lon="05.710318"><ele>46.2</ele><time>2021-03-01T11:05:11Z</time><name>PT2593</name></trkpt>
<trkpt lat="52.085870" lon="05.710323"><ele>46.2</ele><time>2021-03-01T11:05:12Z</time><name>PT2594</name></trkpt>
<trkpt lat="52.085862" lon="05.710334"><ele>46.1</ele><time>2021-03-01T11:05:13Z</time><name>PT2595</name></trkpt>
<trkpt lat="52.085853" lon="05.710344"><ele>46</ele><time>2021-03-01T11:05:14Z</time><name>PT2596</name></trkpt>
<trkpt lat="52.085844" lon="05.710354"><ele>46.1</ele><time>2021-03-01T11:05:15Z</time><name>PT2597</name></trkpt>
<trkpt lat="52.085834" lon="05.710364"><ele>46.2</ele><time>2021-03-01T11:05:16Z</time><name>PT2598</name></trkpt>
<trkpt lat="52.085824" lon="05.710375"><ele>46.2</ele><time>2021-03-01T11:05:17Z</time><name>PT2599</name></trkpt>
<trkpt lat="52.085815" lon="05.710386"><ele>46.3</ele><time>2021-03-01T11:05:18Z</time><name>PT2600</name></trkpt>
<trkpt lat="52.085805" lon="05.710395"><ele>46.2</ele><time>2021-03-01T11:05:19Z</time><name>PT2601</name></trkpt>
<trkpt lat="52.085793" lon="05.710403"><ele>46.2</ele><time>2021-03-01T11:05:20Z</time><name>PT2602</name></trkpt>
<trkpt lat="52.085783" lon="05.710411"><ele>46.2</ele><time>2021-03-01T11:05:21Z</time><name>PT2603</name></trkpt>
<trkpt lat="52.085773" lon="05.710420"><ele>46.2</ele><time>2021-03-01T11:05:22Z</time><name>PT2604</name></trkpt>
<trkpt lat="52.085764" lon="05.710432"><ele>46.5</ele><time>2021-03-01T11:05:23Z</time><name>PT2605</name></trkpt>
<trkpt lat="52.085753" lon="05.710445"><ele>46.5</ele><time>2021-03-01T11:05:24Z</time><name>PT2606</name></trkpt>
<trkpt lat="52.085747" lon="05.710466"><ele>46.6</ele><time>2021-03-01T11:05:25Z</time><name>PT2607</name></trkpt>
<trkpt lat="52.085738" lon="05.710482"><ele>46.8</ele><time>2021-03-01T11:05:26Z</time><name>PT2608</name></trkpt>
<trkpt lat="52.085728" lon="05.710496"><ele>46.8</ele><time>2021-03-01T11:05:27Z</time><name>PT2609</name></trkpt>
<trkpt lat="52.085718" lon="05.710511"><ele>46.8</ele><time>2021-03-01T11:05:28Z</time><name>PT2610</name></trkpt>
<trkpt lat="52.085709" lon="05.710526"><ele>46.7</ele><time>2021-03-01T11:05:29Z</time><name>PT2611</name></trkpt>
<trkpt lat="52.085700" lon="05.710541"><ele>46.6</ele><time>2021-03-01T11:05:30Z</time><name>PT2612</name></trkpt>
<trkpt lat="52.085693" lon="05.710557"><ele>46.7</ele><time>2021-03-01T11:05:31Z</time><name>PT2613</name></trkpt>
<trkpt lat="52.085684" lon="05.710574"><ele>46.8</ele><time>2021-03-01T11:05:32Z</time><name>PT2614</name></trkpt>
<trkpt lat="52.085673" lon="05.710591"><ele>47.1</ele><time>2021-03-01T11:05:33Z</time><name>PT2615</name></trkpt>
<trkpt lat="52.085664" lon="05.710609"><ele>47.1</ele><time>2021-03-01T11:05:34Z</time><name>PT2616</name></trkpt>
<trkpt lat="52.085656" lon="05.710627"><ele>47.4</ele><time>2021-03-01T11:05:35Z</time><name>PT2617</name></trkpt>
<trkpt lat="52.085648" lon="05.710644"><ele>47.3</ele><time>2021-03-01T11:05:36Z</time><name>PT2618</name></trkpt>
<trkpt lat="52.085640" lon="05.710661"><ele>47.3</ele><time>2021-03-01T11:05:37Z</time><name>PT2619</name></trkpt>
<trkpt lat="52.085630" lon="05.710680"><ele>47.3</ele><time>2021-03-01T11:05:38Z</time><name>PT2620</name></trkpt>
<trkpt lat="52.085619" lon="05.710698"><ele>47.5</ele><time>2021-03-01T11:05:39Z</time><name>PT2621</name></trkpt>
<trkpt lat="52.085610" lon="05.710715"><ele>47.6</ele><time>2021-03-01T11:05:40Z</time><name>PT2622</name></trkpt>
<trkpt lat="52.085601" lon="05.710732"><ele>47.6</ele><time>2021-03-01T11:05:41Z</time><name>PT2623</name></trkpt>
<trkpt lat="52.085593" lon="05.710747"><ele>47.9</ele><time>2021-03-01T11:05:42Z</time><name>PT2624</name></trkpt>
<trkpt lat="52.085585" lon="05.710762"><ele>48</ele><time>2021-03-01T11:05:43Z</time><name>PT2625</name></trkpt>
<trkpt lat="52.085578" lon="05.710781"><ele>47.8</ele><time>2021-03-01T11:05:44Z</time><name>PT2626</name></trkpt>
<trkpt lat="52.085572" lon="05.710797"><ele>47.6</ele><time>2021-03-01T11:05:45Z</time><name>PT2627</name></trkpt>
<trkpt lat="52.085564" lon="05.710814"><ele>47.5</ele><time>2021-03-01T11:05:46Z</time><name>PT2628</name></trkpt>
<trkpt lat="52.085556" lon="05.710829"><ele>47.7</ele><time>2021-03-01T11:05:47Z</time><name>PT2629</name></trkpt>
<trkpt lat="52.085547" lon="05.710845"><ele>47.6</ele><time>2021-03-01T11:05:48Z</time><name>PT2630</name></trkpt>
<trkpt lat="52.085539" lon="05.710858"><ele>47.7</ele><time>2021-03-01T11:05:49Z</time><name>PT2631</name></trkpt>
<trkpt lat="52.085531" lon="05.710873"><ele>47.6</ele><time>2021-03-01T11:05:50Z</time><name>PT2632</name></trkpt>
<trkpt lat="52.085522" lon="05.710888"><ele>47.5</ele><time>2021-03-01T11:05:51Z</time><name>PT2633</name></trkpt>
<trkpt lat="52.085512" lon="05.710904"><ele>47.5</ele><time>2021-03-01T11:05:52Z</time><name>PT2634</name></trkpt>
<trkpt lat="52.085502" lon="05.710919"><ele>47.4</ele><time>2021-03-01T11:05:53Z</time><name>PT2635</name></trkpt>
<trkpt lat="52.085493" lon="05.710933"><ele>47.2</ele><time>2021-03-01T11:05:54Z</time><name>PT2636</name></trkpt>
<trkpt lat="52.085482" lon="05.710947"><ele>47.1</ele><time>2021-03-01T11:05:55Z</time><name>PT2637</name></trkpt>
<trkpt lat="52.085470" lon="05.710960"><ele>47.1</ele><time>2021-03-01T11:05:56Z</time><name>PT2638</name></trkpt>
<trkpt lat="52.085457" lon="05.710969"><ele>47.1</ele><time>2021-03-01T11:05:57Z</time><name>PT2639</name></trkpt>
<trkpt lat="52.085443" lon="05.710976"><ele>47.1</ele><time>2021-03-01T11:05:58Z</time><name>PT2640</name></trkpt>
<trkpt lat="52.085430" lon="05.710982"><ele>47.3</ele><time>2021-03-01T11:05:59Z</time><name>PT2641</name></trkpt>
<trkpt lat="52.085417" lon="05.710987"><ele>47.4</ele><time>2021-03-01T11:06:00Z</time><name>PT2642</name></trkpt>
<trkpt lat="52.085403" lon="05.710991"><ele>47.4</ele><time>2021-03-01T11:06:01Z</time><name>PT2643</name></trkpt>
<trkpt lat="52.085390" lon="05.710993"><ele>47.5</ele><time>2021-03-01T11:06:02Z</time><name>PT2644</name></trkpt>
<trkpt lat="52.085377" lon="05.710993"><ele>47.6</ele><time>2021-03-01T11:06:03Z</time><name>PT2645</name></trkpt>
<trkpt lat="52.085363" lon="05.710994"><ele>47.5</ele><time>2021-03-01T11:06:04Z</time><name>PT2646</name></trkpt>
<trkpt lat="52.085349" lon="05.710991"><ele>47.5</ele><time>2021-03-01T11:06:05Z</time><name>PT2647</name></trkpt>
<trkpt lat="52.085335" lon="05.710988"><ele>47.3</ele><time>2021-03-01T11:06:06Z</time><name>PT2648</name></trkpt>
<trkpt lat="52.085320" lon="05.710987"><ele>47.1</ele><time>2021-03-01T11:06:07Z</time><name>PT2649</name></trkpt>
<trkpt lat="52.085305" lon="05.710983"><ele>47.1</ele><time>2021-03-01T11:06:08Z</time><name>PT2650</name></trkpt>
<trkpt lat="52.085290" lon="05.710977"><ele>47.1</ele><time>2021-03-01T11:06:09Z</time><name>PT2651</name></trkpt>
<trkpt lat="52.085276" lon="05.710972"><ele>47.2</ele><time>2021-03-01T11:06:10Z</time><name>PT2652</name></trkpt>
<trkpt lat="52.085263" lon="05.710967"><ele>47.2</ele><time>2021-03-01T11:06:11Z</time><name>PT2653</name></trkpt>
<trkpt lat="52.085250" lon="05.710961"><ele>47.3</ele><time>2021-03-01T11:06:12Z</time><name>PT2654</name></trkpt>
<trkpt lat="52.085236" lon="05.710955"><ele>47.3</ele><time>2021-03-01T11:06:13Z</time><name>PT2655</name></trkpt>
<trkpt lat="52.085224" lon="05.710951"><ele>47.3</ele><time>2021-03-01T11:06:14Z</time><name>PT2656</name></trkpt>
<trkpt lat="52.085211" lon="05.710947"><ele>47.3</ele><time>2021-03-01T11:06:15Z</time><name>PT2657</name></trkpt>
<trkpt lat="52.085198" lon="05.710943"><ele>47.5</ele><time>2021-03-01T11:06:16Z</time><name>PT2658</name></trkpt>
<trkpt lat="52.085185" lon="05.710939"><ele>47.6</ele><time>2021-03-01T11:06:17Z</time><name>PT2659</name></trkpt>
<trkpt lat="52.085173" lon="05.710935"><ele>47.6</ele><time>2021-03-01T11:06:18Z</time><name>PT2660</name></trkpt>
<trkpt lat="52.085159" lon="05.710930"><ele>47.5</ele><time>2021-03-01T11:06:19Z</time><name>PT2661</name></trkpt>
<trkpt lat="52.085146" lon="05.710924"><ele>47.6</ele><time>2021-03-01T11:06:20Z</time><name>PT2662</name></trkpt>
<trkpt lat="52.085132" lon="05.710921"><ele>47.5</ele><time>2021-03-01T11:06:21Z</time><name>PT2663</name></trkpt>
<trkpt lat="52.085117" lon="05.710918"><ele>47.4</ele><time>2021-03-01T11:06:22Z</time><name>PT2664</name></trkpt>
<trkpt lat="52.085104" lon="05.710917"><ele>47.5</ele><time>2021-03-01T11:06:23Z</time><name>PT2665</name></trkpt>
<trkpt lat="52.085090" lon="05.710916"><ele>47.5</ele><time>2021-03-01T11:06:24Z</time><name>PT2666</name></trkpt>
<trkpt lat="52.085076" lon="05.710917"><ele>47.5</ele><time>2021-03-01T11:06:25Z</time><name>PT2667</name></trkpt>
<trkpt lat="52.085062" lon="05.710917"><ele>47.5</ele><time>2021-03-01T11:06:26Z</time><name>PT2668</name></trkpt>
<trkpt lat="52.085049" lon="05.710921"><ele>47.5</ele><time>2021-03-01T11:06:27Z</time><name>PT2669</name></trkpt>
<trkpt lat="52.085035" lon="05.710929"><ele>47.5</ele><time>2021-03-01T11:06:28Z</time><name>PT2670</name></trkpt>
<trkpt lat="52.085021" lon="05.710938"><ele>47.5</ele><time>2021-03-01T11:06:29Z</time><name>PT2671</name></trkpt>
<trkpt lat="52.085006" lon="05.710947"><ele>47.7</ele><time>2021-03-01T11:06:30Z</time><name>PT2672</name></trkpt>
<trkpt lat="52.084992" lon="05.710952"><ele>47.8</ele><time>2021-03-01T11:06:31Z</time><name>PT2673</name></trkpt>
<trkpt lat="52.084979" lon="05.710958"><ele>47.7</ele><time>2021-03-01T11:06:32Z</time><name>PT2674</name></trkpt>
<trkpt lat="52.084967" lon="05.710967"><ele>47.5</ele><time>2021-03-01T11:06:33Z</time><name>PT2675</name></trkpt>
<trkpt lat="52.084955" lon="05.710974"><ele>47.6</ele><time>2021-03-01T11:06:34Z</time><name>PT2676</name></trkpt>
<trkpt lat="52.084942" lon="05.710981"><ele>47.5</ele><time>2021-03-01T11:06:35Z</time><name>PT2677</name></trkpt>
<trkpt lat="52.084930" lon="05.710986"><ele>47.4</ele><time>2021-03-01T11:06:36Z</time><name>PT2678</name></trkpt>
<trkpt lat="52.084919" lon="05.710997"><ele>47.5</ele><time>2021-03-01T11:06:37Z</time><name>PT2679</name></trkpt>
<trkpt lat="52.084908" lon="05.711006"><ele>47.5</ele><time>2021-03-01T11:06:38Z</time><name>PT2680</name></trkpt>
<trkpt lat="52.084897" lon="05.711014"><ele>47.7</ele><time>2021-03-01T11:06:39Z</time><name>PT2681</name></trkpt>
<trkpt lat="52.084885" lon="05.711023"><ele>47.8</ele><time>2021-03-01T11:06:40Z</time><name>PT2682</name></trkpt>
<trkpt lat="52.084874" lon="05.711033"><ele>47.7</ele><time>2021-03-01T11:06:41Z</time><name>PT2683</name></trkpt>
<trkpt lat="52.084863" lon="05.711045"><ele>47.7</ele><time>2021-03-01T11:06:42Z</time><name>PT2684</name></trkpt>
<trkpt lat="52.084853" lon="05.711058"><ele>47.8</ele><time>2021-03-01T11:06:43Z</time><name>PT2685</name></trkpt>
<trkpt lat="52.084844" lon="05.711070"><ele>47.9</ele><time>2021-03-01T11:06:44Z</time><name>PT2686</name></trkpt>
<trkpt lat="52.084835" lon="05.711083"><ele>48</ele><time>2021-03-01T11:06:45Z</time><name>PT2687</name></trkpt>
<trkpt lat="52.084825" lon="05.711095"><ele>48</ele><time>2021-03-01T11:06:46Z</time><name>PT2688</name></trkpt>
<trkpt lat="52.084816" lon="05.711110"><ele>48.1</ele><time>2021-03-01T11:06:47Z</time><name>PT2689</name></trkpt>
<trkpt lat="52.084805" lon="05.711123"><ele>48.3</ele><time>2021-03-01T11:06:48Z</time><name>PT2690</name></trkpt>
<trkpt lat="52.084794" lon="05.711136"><ele>48.4</ele><time>2021-03-01T11:06:49Z</time><name>PT2691</name></trkpt>
<trkpt lat="52.084783" lon="05.711149"><ele>48.5</ele><time>2021-03-01T11:06:50Z</time><name>PT2692</name></trkpt>
<trkpt lat="52.084771" lon="05.711162"><ele>48.6</ele><time>2021-03-01T11:06:51Z</time><name>PT2693</name></trkpt>
<trkpt lat="52.084760" lon="05.711175"><ele>48.6</ele><time>2021-03-01T11:06:52Z</time><name>PT2694</name></trkpt>
<trkpt lat="52.084749" lon="05.711187"><ele>48.4</ele><time>2021-03-01T11:06:53Z</time><name>PT2695</name></trkpt>
<trkpt lat="52.084739" lon="05.711199"><ele>48.4</ele><time>2021-03-01T11:06:54Z</time><name>PT2696</name></trkpt>
<trkpt lat="52.084728" lon="05.711211"><ele>48.6</ele><time>2021-03-01T11:06:55Z</time><name>PT2697</name></trkpt>
<trkpt lat="52.084718" lon="05.711224"><ele>48.7</ele><time>2021-03-01T11:06:56Z</time><name>PT2698</name></trkpt>
<trkpt lat="52.084706" lon="05.711237"><ele>48.6</ele><time>2021-03-01T11:06:57Z</time><name>PT2699</name></trkpt>
<trkpt lat="52.084694" lon="05.711251"><ele>48.6</ele><time>2021-03-01T11:06:58Z</time><name>PT2700</name></trkpt>
<trkpt lat="52.084682" lon="05.711265"><ele>48.7</ele><time>2021-03-01T11:06:59Z</time><name>PT2701</name></trkpt>
<trkpt lat="52.084671" lon="05.711278"><ele>48.6</ele><time>2021-03-01T11:07:00Z</time><name>PT2702</name></trkpt>
<trkpt lat="52.084659" lon="05.711291"><ele>48.7</ele><time>2021-03-01T11:07:01Z</time><name>PT2703</name></trkpt>
<trkpt lat="52.084647" lon="05.711302"><ele>48.7</ele><time>2021-03-01T11:07:02Z</time><name>PT2704</name></trkpt>
<trkpt lat="52.084635" lon="05.711314"><ele>48.8</ele><time>2021-03-01T11:07:03Z</time><name>PT2705</name></trkpt>
<trkpt lat="52.084623" lon="05.711324"><ele>48.8</ele><time>2021-03-01T11:07:04Z</time><name>PT2706</name></trkpt>
<trkpt lat="52.084610" lon="05.711335"><ele>48.8</ele><time>2021-03-01T11:07:05Z</time><name>PT2707</name></trkpt>
<trkpt lat="52.084599" lon="05.711346"><ele>48.8</ele><time>2021-03-01T11:07:06Z</time><name>PT2708</name></trkpt>
<trkpt lat="52.084587" lon="05.711359"><ele>48.7</ele><time>2021-03-01T11:07:07Z</time><name>PT2709</name></trkpt>
<trkpt lat="52.084577" lon="05.711369"><ele>48.8</ele><time>2021-03-01T11:07:08Z</time><name>PT2710</name></trkpt>
<trkpt lat="52.084565" lon="05.711380"><ele>48.9</ele><time>2021-03-01T11:07:09Z</time><name>PT2711</name></trkpt>
<trkpt lat="52.084553" lon="05.711391"><ele>48.8</ele><time>2021-03-01T11:07:10Z</time><name>PT2712</name></trkpt>
<trkpt lat="52.084541" lon="05.711401"><ele>48.9</ele><time>2021-03-01T11:07:11Z</time><name>PT2713</name></trkpt>
<trkpt lat="52.084529" lon="05.711410"><ele>48.9</ele><time>2021-03-01T11:07:12Z</time><name>PT2714</name></trkpt>
<trkpt lat="52.084518" lon="05.711420"><ele>49.1</ele><time>2021-03-01T11:07:13Z</time><name>PT2715</name></trkpt>
<trkpt lat="52.084506" lon="05.711430"><ele>49.2</ele><time>2021-03-01T11:07:14Z</time><name>PT2716</name></trkpt>
<trkpt lat="52.084494" lon="05.711441"><ele>49.4</ele><time>2021-03-01T11:07:15Z</time><name>PT2717</name></trkpt>
<trkpt lat="52.084482" lon="05.711451"><ele>49.4</ele><time>2021-03-01T11:07:16Z</time><name>PT2718</name></trkpt>
<trkpt lat="52.084470" lon="05.711461"><ele>49.5</ele><time>2021-03-01T11:07:17Z</time><name>PT2719</name></trkpt>
<trkpt lat="52.084459" lon="05.711469"><ele>49.6</ele><time>2021-03-01T11:07:18Z</time><name>PT2720</name></trkpt>
<trkpt lat="52.084448" lon="05.711475"><ele>49.5</ele><time>2021-03-01T11:07:19Z</time><name>PT2721</name></trkpt>
<trkpt lat="52.084437" lon="05.711482"><ele>49.4</ele><time>2021-03-01T11:07:20Z</time><name>PT2722</name></trkpt>
<trkpt lat="52.084426" lon="05.711489"><ele>49.3</ele><time>2021-03-01T11:07:21Z</time><name>PT2723</name></trkpt>
<trkpt lat="52.084413" lon="05.711496"><ele>49.4</ele><time>2021-03-01T11:07:22Z</time><name>PT2724</name></trkpt>
<trkpt lat="52.084401" lon="05.711504"><ele>49.3</ele><time>2021-03-01T11:07:23Z</time><name>PT2725</name></trkpt>
<trkpt lat="52.084389" lon="05.711513"><ele>49.3</ele><time>2021-03-01T11:07:24Z</time><name>PT2726</name></trkpt>
<trkpt lat="52.084379" lon="05.711519"><ele>49.1</ele><time>2021-03-01T11:07:25Z</time><name>PT2727</name></trkpt>
<trkpt lat="52.084374" lon="05.711522"><ele>49.1</ele><time>2021-03-01T11:07:26Z</time><name>PT2728</name></trkpt>
<trkpt lat="52.084373" lon="05.711523"><ele>49</ele><time>2021-03-01T11:07:27Z</time><name>PT2729</name></trkpt>
<trkpt lat="52.084373" lon="05.711523"><ele>49.1</ele><time>2021-03-01T11:07:28Z</time><name>PT2730</name></trkpt>
<trkpt lat="52.084372" lon="05.711525"><ele>49.2</ele><time>2021-03-01T11:07:29Z</time><name>PT2731</name></trkpt>
<trkpt lat="52.084371" lon="05.711524"><ele>49.3</ele><time>2021-03-01T11:07:44Z</time><name>PT2732</name></trkpt>
<trkpt lat="52.084366" lon="05.711526"><ele>49.7</ele><time>2021-03-01T11:07:45Z</time><name>PT2733</name></trkpt>
<trkpt lat="52.084364" lon="05.711529"><ele>49.8</ele><time>2021-03-01T11:07:46Z</time><name>PT2734</name></trkpt>
<trkpt lat="52.084358" lon="05.711534"><ele>49.8</ele><time>2021-03-01T11:07:47Z</time><name>PT2735</name></trkpt>
<trkpt lat="52.084348" lon="05.711537"><ele>49.9</ele><time>2021-03-01T11:07:48Z</time><name>PT2736</name></trkpt>
<trkpt lat="52.084336" lon="05.711542"><ele>50.2</ele><time>2021-03-01T11:07:49Z</time><name>PT2737</name></trkpt>
<trkpt lat="52.084325" lon="05.711548"><ele>50.1</ele><time>2021-03-01T11:07:50Z</time><name>PT2738</name></trkpt>
<trkpt lat="52.084313" lon="05.711553"><ele>50.3</ele><time>2021-03-01T11:07:51Z</time><name>PT2739</name></trkpt>
<trkpt lat="52.084302" lon="05.711560"><ele>50.3</ele><time>2021-03-01T11:07:52Z</time><name>PT2740</name></trkpt>
<trkpt lat="52.084290" lon="05.711565"><ele>50.3</ele><time>2021-03-01T11:07:53Z</time><name>PT2741</name></trkpt>
<trkpt lat="52.084277" lon="05.711569"><ele>50.2</ele><time>2021-03-01T11:07:54Z</time><name>PT2742</name></trkpt>
<trkpt lat="52.084268" lon="05.711572"><ele>50.2</ele><time>2021-03-01T11:07:55Z</time><name>PT2743</name></trkpt>
<trkpt lat="52.084257" lon="05.711575"><ele>50.2</ele><time>2021-03-01T11:07:56Z</time><name>PT2744</name></trkpt>
<trkpt lat="52.084248" lon="05.711578"><ele>50.2</ele><time>2021-03-01T11:07:57Z</time><name>PT2745</name></trkpt>
<trkpt lat="52.084237" lon="05.711584"><ele>50.2</ele><time>2021-03-01T11:07:58Z</time><name>PT2746</name></trkpt>
<trkpt lat="52.084226" lon="05.711587"><ele>50.3</ele><time>2021-03-01T11:07:59Z</time><name>PT2747</name></trkpt>
<trkpt lat="52.084214" lon="05.711589"><ele>50.3</ele><time>2021-03-01T11:08:00Z</time><name>PT2748</name></trkpt>
<trkpt lat="52.084201" lon="05.711592"><ele>50.3</ele><time>2021-03-01T11:08:01Z</time><name>PT2749</name></trkpt>
<trkpt lat="52.084187" lon="05.711595"><ele>50.3</ele><time>2021-03-01T11:08:02Z</time><name>PT2750</name></trkpt>
<trkpt lat="52.084172" lon="05.711597"><ele>50.4</ele><time>2021-03-01T11:08:03Z</time><name>PT2751</name></trkpt>
<trkpt lat="52.084156" lon="05.711598"><ele>50.3</ele><time>2021-03-01T11:08:04Z</time><name>PT2752</name></trkpt>
<trkpt lat="52.084141" lon="05.711601"><ele>50.4</ele><time>2021-03-01T11:08:05Z</time><name>PT2753</name></trkpt>
<trkpt lat="52.084128" lon="05.711608"><ele>50.1</ele><time>2021-03-01T11:08:06Z</time><name>PT2754</name></trkpt>
<trkpt lat="52.084115" lon="05.711613"><ele>49.4</ele><time>2021-03-01T11:08:07Z</time><name>PT2755</name></trkpt>
<trkpt lat="52.084101" lon="05.711617"><ele>49.3</ele><time>2021-03-01T11:08:08Z</time><name>PT2756</name></trkpt>
<trkpt lat="52.084089" lon="05.711620"><ele>49.4</ele><time>2021-03-01T11:08:09Z</time><name>PT2757</name></trkpt>
<trkpt lat="52.084077" lon="05.711621"><ele>49.8</ele><time>2021-03-01T11:08:10Z</time><name>PT2758</name></trkpt>
<trkpt lat="52.084065" lon="05.711620"><ele>51.4</ele><time>2021-03-01T11:08:11Z</time><name>PT2759</name></trkpt>
<trkpt lat="52.084051" lon="05.711621"><ele>52.4</ele><time>2021-03-01T11:08:12Z</time><name>PT2760</name></trkpt>
<trkpt lat="52.084037" lon="05.711624"><ele>52.2</ele><time>2021-03-01T11:08:13Z</time><name>PT2761</name></trkpt>
<trkpt lat="52.084024" lon="05.711627"><ele>52</ele><time>2021-03-01T11:08:14Z</time><name>PT2762</name></trkpt>
<trkpt lat="52.084012" lon="05.711629"><ele>51.5</ele><time>2021-03-01T11:08:15Z</time><name>PT2763</name></trkpt>
<trkpt lat="52.084000" lon="05.711630"><ele>51.2</ele><time>2021-03-01T11:08:16Z</time><name>PT2764</name></trkpt>
<trkpt lat="52.083988" lon="05.711631"><ele>50.9</ele><time>2021-03-01T11:08:17Z</time><name>PT2765</name></trkpt>
<trkpt lat="52.083973" lon="05.711634"><ele>50.9</ele><time>2021-03-01T11:08:18Z</time><name>PT2766</name></trkpt>
<trkpt lat="52.083958" lon="05.711640"><ele>50.6</ele><time>2021-03-01T11:08:19Z</time><name>PT2767</name></trkpt>
<trkpt lat="52.083947" lon="05.711649"><ele>50.5</ele><time>2021-03-01T11:08:20Z</time><name>PT2768</name></trkpt>
<trkpt lat="52.083946" lon="05.711652"><ele>50.5</ele><time>2021-03-01T11:08:21Z</time><name>PT2769</name></trkpt>
<trkpt lat="52.083947" lon="05.711655"><ele>50.5</ele><time>2021-03-01T11:08:22Z</time><name>PT2770</name></trkpt>
<trkpt lat="52.083945" lon="05.711658"><ele>50.6</ele><time>2021-03-01T11:08:23Z</time><name>PT2771</name></trkpt>
<trkpt lat="52.083937" lon="05.711660"><ele>50.6</ele><time>2021-03-01T11:08:24Z</time><name>PT2772</name></trkpt>
<trkpt lat="52.083926" lon="05.711668"><ele>50.6</ele><time>2021-03-01T11:08:25Z</time><name>PT2773</name></trkpt>
<trkpt lat="52.083916" lon="05.711674"><ele>50.7</ele><time>2021-03-01T11:08:26Z</time><name>PT2774</name></trkpt>
<trkpt lat="52.083907" lon="05.711678"><ele>50.8</ele><time>2021-03-01T11:08:27Z</time><name>PT2775</name></trkpt>
<trkpt lat="52.083905" lon="05.711678"><ele>51</ele><time>2021-03-01T11:08:29Z</time><name>PT2776</name></trkpt>
<trkpt lat="52.083898" lon="05.711684"><ele>51</ele><time>2021-03-01T11:08:29Z</time><name>PT2777</name></trkpt>
<trkpt lat="52.083889" lon="05.711690"><ele>51.1</ele><time>2021-03-01T11:08:30Z</time><name>PT2778</name></trkpt>
<trkpt lat="52.083880" lon="05.711697"><ele>51.1</ele><time>2021-03-01T11:08:31Z</time><name>PT2779</name></trkpt>
<trkpt lat="52.083872" lon="05.711705"><ele>51</ele><time>2021-03-01T11:08:32Z</time><name>PT2780</name></trkpt>
<trkpt lat="52.083863" lon="05.711710"><ele>50.9</ele><time>2021-03-01T11:08:33Z</time><name>PT2781</name></trkpt>
<trkpt lat="52.083853" lon="05.711714"><ele>50.8</ele><time>2021-03-01T11:08:34Z</time><name>PT2782</name></trkpt>
<trkpt lat="52.083843" lon="05.711719"><ele>50.7</ele><time>2021-03-01T11:08:35Z</time><name>PT2783</name></trkpt>
<trkpt lat="52.083830" lon="05.711720"><ele>50.7</ele><time>2021-03-01T11:08:36Z</time><name>PT2784</name></trkpt>
<trkpt lat="52.083818" lon="05.711721"><ele>50.8</ele><time>2021-03-01T11:08:37Z</time><name>PT2785</name></trkpt>
<trkpt lat="52.083806" lon="05.711721"><ele>51</ele><time>2021-03-01T11:08:38Z</time><name>PT2786</name></trkpt>
<trkpt lat="52.083793" lon="05.711715"><ele>50.9</ele><time>2021-03-01T11:08:39Z</time><name>PT2787</name></trkpt>
<trkpt lat="52.083781" lon="05.711711"><ele>50.9</ele><time>2021-03-01T11:08:40Z</time><name>PT2788</name></trkpt>
<trkpt lat="52.083771" lon="05.711712"><ele>51.1</ele><time>2021-03-01T11:08:41Z</time><name>PT2789</name></trkpt>
<trkpt lat="52.083760" lon="05.711713"><ele>51.4</ele><time>2021-03-01T11:08:42Z</time><name>PT2790</name></trkpt>
<trkpt lat="52.083750" lon="05.711715"><ele>51.6</ele><time>2021-03-01T11:08:43Z</time><name>PT2791</name></trkpt>
<trkpt lat="52.083741" lon="05.711715"><ele>51.9</ele><time>2021-03-01T11:08:44Z</time><name>PT2792</name></trkpt>
<trkpt lat="52.083733" lon="05.711715"><ele>52</ele><time>2021-03-01T11:08:45Z</time><name>PT2793</name></trkpt>
<trkpt lat="52.083725" lon="05.711714"><ele>52.1</ele><time>2021-03-01T11:08:46Z</time><name>PT2794</name></trkpt>
<trkpt lat="52.083719" lon="05.711712"><ele>52.1</ele><time>2021-03-01T11:08:47Z</time><name>PT2795</name></trkpt>
<trkpt lat="52.083709" lon="05.711713"><ele>52.2</ele><time>2021-03-01T11:08:48Z</time><name>PT2796</name></trkpt>
<trkpt lat="52.083700" lon="05.711712"><ele>52.2</ele><time>2021-03-01T11:08:49Z</time><name>PT2797</name></trkpt>
<trkpt lat="52.083687" lon="05.711714"><ele>52.2</ele><time>2021-03-01T11:08:50Z</time><name>PT2798</name></trkpt>
<trkpt lat="52.083674" lon="05.711719"><ele>52.3</ele><time>2021-03-01T11:08:51Z</time><name>PT2799</name></trkpt>
<trkpt lat="52.083660" lon="05.711718"><ele>52.3</ele><time>2021-03-01T11:08:52Z</time><name>PT2800</name></trkpt>
<trkpt lat="52.083648" lon="05.711722"><ele>52.2</ele><time>2021-03-01T11:08:53Z</time><name>PT2801</name></trkpt>
<trkpt lat="52.083635" lon="05.711723"><ele>52.2</ele><time>2021-03-01T11:08:54Z</time><name>PT2802</name></trkpt>
<trkpt lat="52.083622" lon="05.711725"><ele>52.1</ele><time>2021-03-01T11:08:55Z</time><name>PT2803</name></trkpt>
<trkpt lat="52.083610" lon="05.711729"><ele>52</ele><time>2021-03-01T11:08:56Z</time><name>PT2804</name></trkpt>
<trkpt lat="52.083595" lon="05.711728"><ele>52.1</ele><time>2021-03-01T11:08:57Z</time><name>PT2805</name></trkpt>
<trkpt lat="52.083584" lon="05.711725"><ele>52.3</ele><time>2021-03-01T11:08:58Z</time><name>PT2806</name></trkpt>
<trkpt lat="52.083569" lon="05.711726"><ele>52.1</ele><time>2021-03-01T11:08:59Z</time><name>PT2807</name></trkpt>
<trkpt lat="52.083554" lon="05.711726"><ele>52.1</ele><time>2021-03-01T11:09:00Z</time><name>PT2808</name></trkpt>
<trkpt lat="52.083541" lon="05.711726"><ele>52</ele><time>2021-03-01T11:09:01Z</time><name>PT2809</name></trkpt>
<trkpt lat="52.083528" lon="05.711731"><ele>52</ele><time>2021-03-01T11:09:02Z</time><name>PT2810</name></trkpt>
<trkpt lat="52.083517" lon="05.711736"><ele>52.1</ele><time>2021-03-01T11:09:03Z</time><name>PT2811</name></trkpt>
<trkpt lat="52.083505" lon="05.711737"><ele>52.4</ele><time>2021-03-01T11:09:04Z</time><name>PT2812</name></trkpt>
<trkpt lat="52.083495" lon="05.711739"><ele>52.6</ele><time>2021-03-01T11:09:05Z</time><name>PT2813</name></trkpt>
<trkpt lat="52.083483" lon="05.711741"><ele>52.6</ele><time>2021-03-01T11:09:06Z</time><name>PT2814</name></trkpt>
<trkpt lat="52.083469" lon="05.711743"><ele>52.5</ele><time>2021-03-01T11:09:07Z</time><name>PT2815</name></trkpt>
<trkpt lat="52.083455" lon="05.711739"><ele>52.3</ele><time>2021-03-01T11:09:08Z</time><name>PT2816</name></trkpt>
<trkpt lat="52.083443" lon="05.711738"><ele>52.1</ele><time>2021-03-01T11:09:09Z</time><name>PT2817</name></trkpt>
<trkpt lat="52.083432" lon="05.711736"><ele>52</ele><time>2021-03-01T11:09:10Z</time><name>PT2818</name></trkpt>
<trkpt lat="52.083419" lon="05.711737"><ele>52</ele><time>2021-03-01T11:09:11Z</time><name>PT2819</name></trkpt>
<trkpt lat="52.083405" lon="05.711738"><ele>51.9</ele><time>2021-03-01T11:09:12Z</time><name>PT2820</name></trkpt>
<trkpt lat="52.083391" lon="05.711735"><ele>52</ele><time>2021-03-01T11:09:13Z</time><name>PT2821</name></trkpt>
<trkpt lat="52.083378" lon="05.711729"><ele>52</ele><time>2021-03-01T11:09:14Z</time><name>PT2822</name></trkpt>
<trkpt lat="52.083365" lon="05.711719"><ele>52.2</ele><time>2021-03-01T11:09:15Z</time><name>PT2823</name></trkpt>
<trkpt lat="52.083354" lon="05.711707"><ele>52.3</ele><time>2021-03-01T11:09:17Z</time><name>PT2824</name></trkpt>
<trkpt lat="52.083342" lon="05.711696"><ele>52.6</ele><time>2021-03-01T11:09:17Z</time><name>PT2825</name></trkpt>
<trkpt lat="52.083332" lon="05.711692"><ele>52.7</ele><time>2021-03-01T11:09:18Z</time><name>PT2826</name></trkpt>
<trkpt lat="52.083321" lon="05.711677"><ele>52.6</ele><time>2021-03-01T11:09:19Z</time><name>PT2827</name></trkpt>
<trkpt lat="52.083308" lon="05.711662"><ele>52.5</ele><time>2021-03-01T11:09:20Z</time><name>PT2828</name></trkpt>
<trkpt lat="52.083298" lon="05.711652"><ele>52.5</ele><time>2021-03-01T11:09:21Z</time><name>PT2829</name></trkpt>
<trkpt lat="52.083286" lon="05.711640"><ele>52.4</ele><time>2021-03-01T11:09:22Z</time><name>PT2830</name></trkpt>
<trkpt lat="52.083277" lon="05.711630"><ele>52.4</ele><time>2021-03-01T11:09:23Z</time><name>PT2831</name></trkpt>
<trkpt lat="52.083265" lon="05.711626"><ele>52.4</ele><time>2021-03-01T11:09:24Z</time><name>PT2832</name></trkpt>
<trkpt lat="52.083254" lon="05.711616"><ele>52.6</ele><time>2021-03-01T11:09:25Z</time><name>PT2833</name></trkpt>
<trkpt lat="52.083244" lon="05.711605"><ele>52.5</ele><time>2021-03-01T11:09:26Z</time><name>PT2834</name></trkpt>
<trkpt lat="52.083234" lon="05.711595"><ele>52.6</ele><time>2021-03-01T11:09:27Z</time><name>PT2835</name></trkpt>
<trkpt lat="52.083222" lon="05.711585"><ele>52.6</ele><time>2021-03-01T11:09:28Z</time><name>PT2836</name></trkpt>
<trkpt lat="52.083210" lon="05.711576"><ele>52.8</ele><time>2021-03-01T11:09:29Z</time><name>PT2837</name></trkpt>
<trkpt lat="52.083199" lon="05.711570"><ele>52.6</ele><time>2021-03-01T11:09:30Z</time><name>PT2838</name></trkpt>
<trkpt lat="52.083187" lon="05.711565"><ele>52.7</ele><time>2021-03-01T11:09:31Z</time><name>PT2839</name></trkpt>
<trkpt lat="52.083177" lon="05.711562"><ele>52.5</ele><time>2021-03-01T11:09:32Z</time><name>PT2840</name></trkpt>
<trkpt lat="52.083163" lon="05.711555"><ele>52.5</ele><time>2021-03-01T11:09:33Z</time><name>PT2841</name></trkpt>
<trkpt lat="52.083151" lon="05.711551"><ele>52.5</ele><time>2021-03-01T11:09:34Z</time><name>PT2842</name></trkpt>
<trkpt lat="52.083137" lon="05.711544"><ele>52.7</ele><time>2021-03-01T11:09:35Z</time><name>PT2843</name></trkpt>
<trkpt lat="52.083123" lon="05.711539"><ele>52.8</ele><time>2021-03-01T11:09:36Z</time><name>PT2844</name></trkpt>
<trkpt lat="52.083112" lon="05.711536"><ele>52.9</ele><time>2021-03-01T11:09:37Z</time><name>PT2845</name></trkpt>
<trkpt lat="52.083100" lon="05.711528"><ele>53</ele><time>2021-03-01T11:09:38Z</time><name>PT2846</name></trkpt>
<trkpt lat="52.083088" lon="05.711524"><ele>53.1</ele><time>2021-03-01T11:09:40Z</time><name>PT2847</name></trkpt>
<trkpt lat="52.083070" lon="05.711522"><ele>53.1</ele><time>2021-03-01T11:09:40Z</time><name>PT2848</name></trkpt>
<trkpt lat="52.083052" lon="05.711517"><ele>53.3</ele><time>2021-03-01T11:09:41Z</time><name>PT2849</name></trkpt>
<trkpt lat="52.083038" lon="05.711512"><ele>53.2</ele><time>2021-03-01T11:09:42Z</time><name>PT2850</name></trkpt>
<trkpt lat="52.083023" lon="05.711507"><ele>53.3</ele><time>2021-03-01T11:09:43Z</time><name>PT2851</name></trkpt>
<trkpt lat="52.083009" lon="05.711508"><ele>53.3</ele><time>2021-03-01T11:09:44Z</time><name>PT2852</name></trkpt>
<trkpt lat="52.082991" lon="05.711508"><ele>53.3</ele><time>2021-03-01T11:09:45Z</time><name>PT2853</name></trkpt>
<trkpt lat="52.082979" lon="05.711515"><ele>53.2</ele><time>2021-03-01T11:09:46Z</time><name>PT2854</name></trkpt>
<trkpt lat="52.082969" lon="05.711524"><ele>53.3</ele><time>2021-03-01T11:09:47Z</time><name>PT2855</name></trkpt>
<trkpt lat="52.082957" lon="05.711532"><ele>53.3</ele><time>2021-03-01T11:09:48Z</time><name>PT2856</name></trkpt>
<trkpt lat="52.082945" lon="05.711538"><ele>53.3</ele><time>2021-03-01T11:09:49Z</time><name>PT2857</name></trkpt>
<trkpt lat="52.082934" lon="05.711546"><ele>53.4</ele><time>2021-03-01T11:09:50Z</time><name>PT2858</name></trkpt>
<trkpt lat="52.082920" lon="05.711549"><ele>53.6</ele><time>2021-03-01T11:09:51Z</time><name>PT2859</name></trkpt>
<trkpt lat="52.082905" lon="05.711552"><ele>53.7</ele><time>2021-03-01T11:09:52Z</time><name>PT2860</name></trkpt>
<trkpt lat="52.082895" lon="05.711553"><ele>53.8</ele><time>2021-03-01T11:09:53Z</time><name>PT2861</name></trkpt>
<trkpt lat="52.082886" lon="05.711559"><ele>54</ele><time>2021-03-01T11:09:54Z</time><name>PT2862</name></trkpt>
<trkpt lat="52.082878" lon="05.711562"><ele>53.8</ele><time>2021-03-01T11:09:55Z</time><name>PT2863</name></trkpt>
<trkpt lat="52.082871" lon="05.711558"><ele>53.8</ele><time>2021-03-01T11:09:56Z</time><name>PT2864</name></trkpt>
<trkpt lat="52.082866" lon="05.711560"><ele>53.9</ele><time>2021-03-01T11:09:57Z</time><name>PT2865</name></trkpt>
<trkpt lat="52.082865" lon="05.711560"><ele>53.8</ele><time>2021-03-01T11:09:58Z</time><name>PT2866</name></trkpt>
<trkpt lat="52.082860" lon="05.711562"><ele>53.8</ele><time>2021-03-01T11:09:59Z</time><name>PT2867</name></trkpt>
<trkpt lat="52.082857" lon="05.711553"><ele>54.2</ele><time>2021-03-01T11:10:16Z</time><name>PT2868</name></trkpt>
<trkpt lat="52.082852" lon="05.711535"><ele>54.2</ele><time>2021-03-01T11:10:17Z</time><name>PT2869</name></trkpt>
<trkpt lat="52.082845" lon="05.711517"><ele>54.1</ele><time>2021-03-01T11:10:18Z</time><name>PT2870</name></trkpt>
<trkpt lat="52.082836" lon="05.711487"><ele>54</ele><time>2021-03-01T11:10:19Z</time><name>PT2871</name></trkpt>
<trkpt lat="52.082827" lon="05.711471"><ele>53.9</ele><time>2021-03-01T11:10:20Z</time><name>PT2872</name></trkpt>
<trkpt lat="52.082822" lon="05.711444"><ele>54</ele><time>2021-03-01T11:10:21Z</time><name>PT2873</name></trkpt>
<trkpt lat="52.082818" lon="05.711423"><ele>54.1</ele><time>2021-03-01T11:10:22Z</time><name>PT2874</name></trkpt>
<trkpt lat="52.082810" lon="05.711407"><ele>54.2</ele><time>2021-03-01T11:10:23Z</time><name>PT2875</name></trkpt>
<trkpt lat="52.082804" lon="05.711376"><ele>54.1</ele><time>2021-03-01T11:10:24Z</time><name>PT2876</name></trkpt>
<trkpt lat="52.082795" lon="05.711340"><ele>54.2</ele><time>2021-03-01T11:10:25Z</time><name>PT2877</name></trkpt>
<trkpt lat="52.082781" lon="05.711312"><ele>54.2</ele><time>2021-03-01T11:10:26Z</time><name>PT2878</name></trkpt>
<trkpt lat="52.082772" lon="05.711287"><ele>53.9</ele><time>2021-03-01T11:10:27Z</time><name>PT2879</name></trkpt>
<trkpt lat="52.082761" lon="05.711263"><ele>53.9</ele><time>2021-03-01T11:10:28Z</time><name>PT2880</name></trkpt>
<trkpt lat="52.082755" lon="05.711238"><ele>53.9</ele><time>2021-03-01T11:10:29Z</time><name>PT2881</name></trkpt>
<trkpt lat="52.082745" lon="05.711209"><ele>54</ele><time>2021-03-01T11:10:30Z</time><name>PT2882</name></trkpt>
<trkpt lat="52.082736" lon="05.711178"><ele>53.9</ele><time>2021-03-01T11:10:31Z</time><name>PT2883</name></trkpt>
<trkpt lat="52.082732" lon="05.711150"><ele>54</ele><time>2021-03-01T11:10:32Z</time><name>PT2884</name></trkpt>
<trkpt lat="52.082727" lon="05.711119"><ele>54</ele><time>2021-03-01T11:10:33Z</time><name>PT2885</name></trkpt>
<trkpt lat="52.082718" lon="05.711093"><ele>54</ele><time>2021-03-01T11:10:34Z</time><name>PT2886</name></trkpt>
<trkpt lat="52.082708" lon="05.711066"><ele>54</ele><time>2021-03-01T11:10:35Z</time><name>PT2887</name></trkpt>
<trkpt lat="52.082702" lon="05.711035"><ele>54</ele><time>2021-03-01T11:10:36Z</time><name>PT2888</name></trkpt>
<trkpt lat="52.082697" lon="05.711008"><ele>54.2</ele><time>2021-03-01T11:10:37Z</time><name>PT2889</name></trkpt>
<trkpt lat="52.082691" lon="05.710986"><ele>54.2</ele><time>2021-03-01T11:10:38Z</time><name>PT2890</name></trkpt>
<trkpt lat="52.082686" lon="05.710966"><ele>54.2</ele><time>2021-03-01T11:10:39Z</time><name>PT2891</name></trkpt>
<trkpt lat="52.082679" lon="05.710953"><ele>54.2</ele><time>2021-03-01T11:10:40Z</time><name>PT2892</name></trkpt>
<trkpt lat="52.082673" lon="05.710940"><ele>54.1</ele><time>2021-03-01T11:10:41Z</time><name>PT2893</name></trkpt>
<trkpt lat="52.082670" lon="05.710942"><ele>54</ele><time>2021-03-01T11:10:43Z</time><name>PT2894</name></trkpt>
<trkpt lat="52.082665" lon="05.710944"><ele>54</ele><time>2021-03-01T11:10:43Z</time><name>PT2895</name></trkpt>
<trkpt lat="52.082660" lon="05.710950"><ele>54</ele><time>2021-03-01T11:10:44Z</time><name>PT2896</name></trkpt>
<trkpt lat="52.082654" lon="05.710944"><ele>53.8</ele><time>2021-03-01T11:10:45Z</time><name>PT2897</name></trkpt>
<trkpt lat="52.082647" lon="05.710936"><ele>53.9</ele><time>2021-03-01T11:10:46Z</time><name>PT2898</name></trkpt>
<trkpt lat="52.082644" lon="05.710924"><ele>53.8</ele><time>2021-03-01T11:10:47Z</time><name>PT2899</name></trkpt>
<trkpt lat="52.082643" lon="05.710911"><ele>53.8</ele><time>2021-03-01T11:10:48Z</time><name>PT2900</name></trkpt>
<trkpt lat="52.082639" lon="05.710901"><ele>53.8</ele><time>2021-03-01T11:10:49Z</time><name>PT2901</name></trkpt>
<trkpt lat="52.082632" lon="05.710891"><ele>53.7</ele><time>2021-03-01T11:10:50Z</time><name>PT2902</name></trkpt>
<trkpt lat="52.082626" lon="05.710885"><ele>53.7</ele><time>2021-03-01T11:10:51Z</time><name>PT2903</name></trkpt>
<trkpt lat="52.082626" lon="05.710876"><ele>53.8</ele><time>2021-03-01T11:10:52Z</time><name>PT2904</name></trkpt>
<trkpt lat="52.082624" lon="05.710868"><ele>54</ele><time>2021-03-01T11:10:53Z</time><name>PT2905</name></trkpt>
<trkpt lat="52.082622" lon="05.710857"><ele>53.8</ele><time>2021-03-01T11:10:54Z</time><name>PT2906</name></trkpt>
<trkpt lat="52.082613" lon="05.710756"><ele>54.3</ele><time>2021-03-01T11:11:13Z</time><name>PT2907</name></trkpt>
<trkpt lat="52.082613" lon="05.710737"><ele>54.3</ele><time>2021-03-01T11:11:14Z</time><name>PT2908</name></trkpt>
<trkpt lat="52.082610" lon="05.710717"><ele>54.3</ele><time>2021-03-01T11:11:15Z</time><name>PT2909</name></trkpt>
<trkpt lat="52.082607" lon="05.710700"><ele>54.6</ele><time>2021-03-01T11:11:16Z</time><name>PT2910</name></trkpt>
<trkpt lat="52.082596" lon="05.710685"><ele>54.5</ele><time>2021-03-01T11:11:19Z</time><name>PT2911</name></trkpt>
<trkpt lat="52.082591" lon="05.710656"><ele>54.3</ele><time>2021-03-01T11:11:20Z</time><name>PT2912</name></trkpt>
<trkpt lat="52.082577" lon="05.710619"><ele>54.3</ele><time>2021-03-01T11:11:21Z</time><name>PT2913</name></trkpt>
<trkpt lat="52.082570" lon="05.710590"><ele>54.3</ele><time>2021-03-01T11:11:22Z</time><name>PT2914</name></trkpt>
<trkpt lat="52.082561" lon="05.710550"><ele>54.3</ele><time>2021-03-01T11:11:23Z</time><name>PT2915</name></trkpt>
<trkpt lat="52.082553" lon="05.710531"><ele>54.3</ele><time>2021-03-01T11:11:24Z</time><name>PT2916</name></trkpt>
<trkpt lat="52.082538" lon="05.710493"><ele>54.4</ele><time>2021-03-01T11:11:25Z</time><name>PT2917</name></trkpt>
<trkpt lat="52.082526" lon="05.710457"><ele>54.3</ele><time>2021-03-01T11:11:26Z</time><name>PT2918</name></trkpt>
<trkpt lat="52.082510" lon="05.710419"><ele>54.2</ele><time>2021-03-01T11:11:27Z</time><name>PT2919</name></trkpt>
<trkpt lat="52.082494" lon="05.710376"><ele>54.1</ele><time>2021-03-01T11:11:28Z</time><name>PT2920</name></trkpt>
<trkpt lat="52.082481" lon="05.710340"><ele>54.1</ele><time>2021-03-01T11:11:29Z</time><name>PT2921</name></trkpt>
<trkpt lat="52.082473" lon="05.710301"><ele>54</ele><time>2021-03-01T11:11:30Z</time><name>PT2922</name></trkpt>
<trkpt lat="52.082462" lon="05.710268"><ele>54</ele><time>2021-03-01T11:11:31Z</time><name>PT2923</name></trkpt>
<trkpt lat="52.082454" lon="05.710239"><ele>54</ele><time>2021-03-01T11:11:32Z</time><name>PT2924</name></trkpt>
<trkpt lat="52.082446" lon="05.710210"><ele>53.9</ele><time>2021-03-01T11:11:33Z</time><name>PT2925</name></trkpt>
<trkpt lat="52.082443" lon="05.710179"><ele>53.9</ele><time>2021-03-01T11:11:34Z</time><name>PT2926</name></trkpt>
<trkpt lat="52.082436" lon="05.710154"><ele>53.9</ele><time>2021-03-01T11:11:35Z</time><name>PT2927</name></trkpt>
<trkpt lat="52.082427" lon="05.710131"><ele>54.1</ele><time>2021-03-01T11:11:36Z</time><name>PT2928</name></trkpt>
<trkpt lat="52.082422" lon="05.710109"><ele>54.2</ele><time>2021-03-01T11:11:37Z</time><name>PT2929</name></trkpt>
<trkpt lat="52.082415" lon="05.710095"><ele>54.2</ele><time>2021-03-01T11:11:38Z</time><name>PT2930</name></trkpt>
<trkpt lat="52.082410" lon="05.710081"><ele>54.3</ele><time>2021-03-01T11:11:39Z</time><name>PT2931</name></trkpt>
<trkpt lat="52.082407" lon="05.710074"><ele>54.5</ele><time>2021-03-01T11:11:40Z</time><name>PT2932</name></trkpt>
<trkpt lat="52.082406" lon="05.710061"><ele>54.4</ele><time>2021-03-01T11:11:41Z</time><name>PT2933</name></trkpt>
<trkpt lat="52.082403" lon="05.710049"><ele>54.4</ele><time>2021-03-01T11:11:42Z</time><name>PT2934</name></trkpt>
<trkpt lat="52.082403" lon="05.710037"><ele>54.4</ele><time>2021-03-01T11:11:43Z</time><name>PT2935</name></trkpt>
<trkpt lat="52.082402" lon="05.710018"><ele>54.4</ele><time>2021-03-01T11:11:44Z</time><name>PT2936</name></trkpt>
<trkpt lat="52.082402" lon="05.710009"><ele>54.3</ele><time>2021-03-01T11:11:45Z</time><name>PT2937</name></trkpt>
<trkpt lat="52.082400" lon="05.709985"><ele>54.2</ele><time>2021-03-01T11:11:46Z</time><name>PT2938</name></trkpt>
<trkpt lat="52.082395" lon="05.709962"><ele>54.3</ele><time>2021-03-01T11:11:47Z</time><name>PT2939</name></trkpt>
<trkpt lat="52.082387" lon="05.709952"><ele>54.2</ele><time>2021-03-01T11:11:48Z</time><name>PT2940</name></trkpt>
<trkpt lat="52.082382" lon="05.709937"><ele>54.1</ele><time>2021-03-01T11:11:49Z</time><name>PT2941</name></trkpt>
<trkpt lat="52.082376" lon="05.709921"><ele>54.2</ele><time>2021-03-01T11:11:50Z</time><name>PT2942</name></trkpt>
<trkpt lat="52.082373" lon="05.709909"><ele>54.1</ele><time>2021-03-01T11:11:51Z</time><name>PT2943</name></trkpt>
<trkpt lat="52.082371" lon="05.709891"><ele>54</ele><time>2021-03-01T11:11:52Z</time><name>PT2944</name></trkpt>
<trkpt lat="52.082365" lon="05.709865"><ele>54.1</ele><time>2021-03-01T11:11:53Z</time><name>PT2945</name></trkpt>
<trkpt lat="52.082365" lon="05.709834"><ele>54.1</ele><time>2021-03-01T11:11:54Z</time><name>PT2946</name></trkpt>
<trkpt lat="52.082355" lon="05.709806"><ele>54.2</ele><time>2021-03-01T11:11:55Z</time><name>PT2947</name></trkpt>
<trkpt lat="52.082347" lon="05.709767"><ele>54.4</ele><time>2021-03-01T11:11:57Z</time><name>PT2948</name></trkpt>
<trkpt lat="52.082338" lon="05.709734"><ele>54.5</ele><time>2021-03-01T11:11:57Z</time><name>PT2949</name></trkpt>
<trkpt lat="52.082332" lon="05.709703"><ele>54.6</ele><time>2021-03-01T11:11:58Z</time><name>PT2950</name></trkpt>
<trkpt lat="52.082324" lon="05.709674"><ele>54.6</ele><time>2021-03-01T11:11:59Z</time><name>PT2951</name></trkpt>
<trkpt lat="52.082314" lon="05.709648"><ele>54.6</ele><time>2021-03-01T11:12:00Z</time><name>PT2952</name></trkpt>
<trkpt lat="52.082301" lon="05.709618"><ele>54.5</ele><time>2021-03-01T11:12:01Z</time><name>PT2953</name></trkpt>
<trkpt lat="52.082285" lon="05.709582"><ele>54.3</ele><time>2021-03-01T11:12:02Z</time><name>PT2954</name></trkpt>
<trkpt lat="52.082272" lon="05.709546"><ele>54.3</ele><time>2021-03-01T11:12:03Z</time><name>PT2955</name></trkpt>
<trkpt lat="52.082261" lon="05.709512"><ele>54.2</ele><time>2021-03-01T11:12:04Z</time><name>PT2956</name></trkpt>
<trkpt lat="52.082249" lon="05.709480"><ele>54.3</ele><time>2021-03-01T11:12:05Z</time><name>PT2957</name></trkpt>
<trkpt lat="52.082237" lon="05.709455"><ele>54.5</ele><time>2021-03-01T11:12:06Z</time><name>PT2958</name></trkpt>
<trkpt lat="52.082226" lon="05.709431"><ele>54.6</ele><time>2021-03-01T11:12:07Z</time><name>PT2959</name></trkpt>
<trkpt lat="52.082215" lon="05.709400"><ele>54.6</ele><time>2021-03-01T11:12:08Z</time><name>PT2960</name></trkpt>
<trkpt lat="52.082210" lon="05.709372"><ele>54.7</ele><time>2021-03-01T11:12:09Z</time><name>PT2961</name></trkpt>
<trkpt lat="52.082211" lon="05.709343"><ele>54.7</ele><time>2021-03-01T11:12:10Z</time><name>PT2962</name></trkpt>
<trkpt lat="52.082209" lon="05.709312"><ele>54.7</ele><time>2021-03-01T11:12:11Z</time><name>PT2963</name></trkpt>
<trkpt lat="52.082207" lon="05.709282"><ele>54.7</ele><time>2021-03-01T11:12:12Z</time><name>PT2964</name></trkpt>
<trkpt lat="52.082204" lon="05.709261"><ele>54.7</ele><time>2021-03-01T11:12:13Z</time><name>PT2965</name></trkpt>
<trkpt lat="52.082199" lon="05.709236"><ele>54.6</ele><time>2021-03-01T11:12:14Z</time><name>PT2966</name></trkpt>
<trkpt lat="52.082196" lon="05.709207"><ele>54.6</ele><time>2021-03-01T11:12:15Z</time><name>PT2967</name></trkpt>
<trkpt lat="52.082191" lon="05.709176"><ele>54.7</ele><time>2021-03-01T11:12:16Z</time><name>PT2968</name></trkpt>
<trkpt lat="52.082185" lon="05.709149"><ele>54.9</ele><time>2021-03-01T11:12:17Z</time><name>PT2969</name></trkpt>
<trkpt lat="52.082178" lon="05.709126"><ele>54.8</ele><time>2021-03-01T11:12:18Z</time><name>PT2970</name></trkpt>
<trkpt lat="52.082176" lon="05.709100"><ele>54.9</ele><time>2021-03-01T11:12:19Z</time><name>PT2971</name></trkpt>
<trkpt lat="52.082174" lon="05.709077"><ele>55</ele><time>2021-03-01T11:12:20Z</time><name>PT2972</name></trkpt>
<trkpt lat="52.082167" lon="05.709059"><ele>55</ele><time>2021-03-01T11:12:21Z</time><name>PT2973</name></trkpt>
<trkpt lat="52.082161" lon="05.709034"><ele>55</ele><time>2021-03-01T11:12:22Z</time><name>PT2974</name></trkpt>
<trkpt lat="52.082161" lon="05.709007"><ele>55.1</ele><time>2021-03-01T11:12:23Z</time><name>PT2975</name></trkpt>
<trkpt lat="52.082160" lon="05.708978"><ele>55.1</ele><time>2021-03-01T11:12:24Z</time><name>PT2976</name></trkpt>
<trkpt lat="52.082158" lon="05.708953"><ele>55.2</ele><time>2021-03-01T11:12:26Z</time><name>PT2977</name></trkpt>
<trkpt lat="52.082152" lon="05.708933"><ele>55.2</ele><time>2021-03-01T11:12:26Z</time><name>PT2978</name></trkpt>
<trkpt lat="52.082150" lon="05.708916"><ele>55.3</ele><time>2021-03-01T11:12:27Z</time><name>PT2979</name></trkpt>
<trkpt lat="52.082147" lon="05.708899"><ele>55.4</ele><time>2021-03-01T11:12:28Z</time><name>PT2980</name></trkpt>
<trkpt lat="52.082142" lon="05.708883"><ele>55.6</ele><time>2021-03-01T11:12:29Z</time><name>PT2981</name></trkpt>
<trkpt lat="52.082140" lon="05.708872"><ele>55.6</ele><time>2021-03-01T11:12:30Z</time><name>PT2982</name></trkpt>
<trkpt lat="52.082141" lon="05.708861"><ele>55.6</ele><time>2021-03-01T11:12:31Z</time><name>PT2983</name></trkpt>
<trkpt lat="52.082132" lon="05.708861"><ele>55.8</ele><time>2021-03-01T11:12:32Z</time><name>PT2984</name></trkpt>
<trkpt lat="52.082130" lon="05.708860"><ele>55.9</ele><time>2021-03-01T11:12:33Z</time><name>PT2985</name></trkpt>
<trkpt lat="52.082128" lon="05.708861"><ele>56</ele><time>2021-03-01T11:12:34Z</time><name>PT2986</name></trkpt>
<trkpt lat="52.082125" lon="05.708856"><ele>56.1</ele><time>2021-03-01T11:12:35Z</time><name>PT2987</name></trkpt>
<trkpt lat="52.082123" lon="05.708851"><ele>56.1</ele><time>2021-03-01T11:12:36Z</time><name>PT2988</name></trkpt>
<trkpt lat="52.082116" lon="05.708842"><ele>56.1</ele><time>2021-03-01T11:12:37Z</time><name>PT2989</name></trkpt>
<trkpt lat="52.082113" lon="05.708840"><ele>56.1</ele><time>2021-03-01T11:12:38Z</time><name>PT2990</name></trkpt>
<trkpt lat="52.082110" lon="05.708834"><ele>56</ele><time>2021-03-01T11:12:39Z</time><name>PT2991</name></trkpt>
<trkpt lat="52.082104" lon="05.708823"><ele>55.9</ele><time>2021-03-01T11:12:40Z</time><name>PT2992</name></trkpt>
<trkpt lat="52.082105" lon="05.708817"><ele>55.9</ele><time>2021-03-01T11:12:41Z</time><name>PT2993</name></trkpt>
<trkpt lat="52.082103" lon="05.708813"><ele>55.8</ele><time>2021-03-01T11:12:42Z</time><name>PT2994</name></trkpt>
<trkpt lat="52.082099" lon="05.708800"><ele>56</ele><time>2021-03-01T11:12:43Z</time><name>PT2995</name></trkpt>
<trkpt lat="52.082098" lon="05.708791"><ele>56</ele><time>2021-03-01T11:12:44Z</time><name>PT2996</name></trkpt>
<trkpt lat="52.082099" lon="05.708781"><ele>56.2</ele><time>2021-03-01T11:12:45Z</time><name>PT2997</name></trkpt>
<trkpt lat="52.082097" lon="05.708771"><ele>56.3</ele><time>2021-03-01T11:12:46Z</time><name>PT2998</name></trkpt>
<trkpt lat="52.082094" lon="05.708762"><ele>56.4</ele><time>2021-03-01T11:12:47Z</time><name>PT2999</name></trkpt>
<trkpt lat="52.082086" lon="05.708749"><ele>56.4</ele><time>2021-03-01T11:12:49Z</time><name>PT3000</name></trkpt>
<trkpt lat="52.082083" lon="05.708738"><ele>56.5</ele><time>2021-03-01T11:12:49Z</time><name>PT3001</name></trkpt>
<trkpt lat="52.082084" lon="05.708721"><ele>56.4</ele><time>2021-03-01T11:12:50Z</time><name>PT3002</name></trkpt>
<trkpt lat="52.082082" lon="05.708710"><ele>56.4</ele><time>2021-03-01T11:12:51Z</time><name>PT3003</name></trkpt>
<trkpt lat="52.082070" lon="05.708700"><ele>56.5</ele><time>2021-03-01T11:12:52Z</time><name>PT3004</name></trkpt>
<trkpt lat="52.082067" lon="05.708688"><ele>56.6</ele><time>2021-03-01T11:12:53Z</time><name>PT3005</name></trkpt>
<trkpt lat="52.082064" lon="05.708679"><ele>56.6</ele><time>2021-03-01T11:12:54Z</time><name>PT3006</name></trkpt>
<trkpt lat="52.082054" lon="05.708628"><ele>56.9</ele><time>2021-03-01T11:12:56Z</time><name>PT3007</name></trkpt>
<trkpt lat="52.082035" lon="05.708599"><ele>56.9</ele><time>2021-03-01T11:12:57Z</time><name>PT3008</name></trkpt>
<trkpt lat="52.082024" lon="05.708583"><ele>56.9</ele><time>2021-03-01T11:12:58Z</time><name>PT3009</name></trkpt>
<trkpt lat="52.082010" lon="05.708545"><ele>56.9</ele><time>2021-03-01T11:12:59Z</time><name>PT3010</name></trkpt>
<trkpt lat="52.081997" lon="05.708505"><ele>57.1</ele><time>2021-03-01T11:13:00Z</time><name>PT3011</name></trkpt>
<trkpt lat="52.081980" lon="05.708472"><ele>57.1</ele><time>2021-03-01T11:13:01Z</time><name>PT3012</name></trkpt>
<trkpt lat="52.081963" lon="05.708447"><ele>57.1</ele><time>2021-03-01T11:13:02Z</time><name>PT3013</name></trkpt>
<trkpt lat="52.081959" lon="05.708408"><ele>56.9</ele><time>2021-03-01T11:13:03Z</time><name>PT3014</name></trkpt>
<trkpt lat="52.081958" lon="05.708371"><ele>56.9</ele><time>2021-03-01T11:13:04Z</time><name>PT3015</name></trkpt>
<trkpt lat="52.081949" lon="05.708341"><ele>56.9</ele><time>2021-03-01T11:13:05Z</time><name>PT3016</name></trkpt>
<trkpt lat="52.081942" lon="05.708317"><ele>56.9</ele><time>2021-03-01T11:13:06Z</time><name>PT3017</name></trkpt>
<trkpt lat="52.081944" lon="05.708283"><ele>57</ele><time>2021-03-01T11:13:07Z</time><name>PT3018</name></trkpt>
<trkpt lat="52.081940" lon="05.708255"><ele>57.2</ele><time>2021-03-01T11:13:08Z</time><name>PT3019</name></trkpt>
<trkpt lat="52.081941" lon="05.708224"><ele>57.2</ele><time>2021-03-01T11:13:09Z</time><name>PT3020</name></trkpt>
<trkpt lat="52.081940" lon="05.708191"><ele>57.2</ele><time>2021-03-01T11:13:10Z</time><name>PT3021</name></trkpt>
<trkpt lat="52.081951" lon="05.708153"><ele>56.9</ele><time>2021-03-01T11:13:11Z</time><name>PT3022</name></trkpt>
<trkpt lat="52.081960" lon="05.708121"><ele>56.9</ele><time>2021-03-01T11:13:13Z</time><name>PT3023</name></trkpt>
<trkpt lat="52.081964" lon="05.708094"><ele>56.9</ele><time>2021-03-01T11:13:13Z</time><name>PT3024</name></trkpt>
<trkpt lat="52.081972" lon="05.708058"><ele>56.9</ele><time>2021-03-01T11:13:14Z</time><name>PT3025</name></trkpt>
<trkpt lat="52.081968" lon="05.708041"><ele>56.9</ele><time>2021-03-01T11:13:15Z</time><name>PT3026</name></trkpt>
<trkpt lat="52.081972" lon="05.708023"><ele>56.9</ele><time>2021-03-01T11:13:16Z</time><name>PT3027</name></trkpt>
<trkpt lat="52.081978" lon="05.707992"><ele>56.9</ele><time>2021-03-01T11:13:17Z</time><name>PT3028</name></trkpt>
<trkpt lat="52.081982" lon="05.707963"><ele>57</ele><time>2021-03-01T11:13:19Z</time><name>PT3029</name></trkpt>
<trkpt lat="52.081987" lon="05.707931"><ele>57</ele><time>2021-03-01T11:13:19Z</time><name>PT3030</name></trkpt>
<trkpt lat="52.081998" lon="05.707901"><ele>57</ele><time>2021-03-01T11:13:20Z</time><name>PT3031</name></trkpt>
<trkpt lat="52.082000" lon="05.707873"><ele>57.1</ele><time>2021-03-01T11:13:21Z</time><name>PT3032</name></trkpt>
<trkpt lat="52.082004" lon="05.707849"><ele>56.9</ele><time>2021-03-01T11:13:22Z</time><name>PT3033</name></trkpt>
<trkpt lat="52.082008" lon="05.707820"><ele>56.9</ele><time>2021-03-01T11:13:23Z</time><name>PT3034</name></trkpt>
<trkpt lat="52.082008" lon="05.707794"><ele>56.9</ele><time>2021-03-01T11:13:24Z</time><name>PT3035</name></trkpt>
<trkpt lat="52.082008" lon="05.707762"><ele>56.9</ele><time>2021-03-01T11:13:25Z</time><name>PT3036</name></trkpt>
<trkpt lat="52.082005" lon="05.707731"><ele>57.1</ele><time>2021-03-01T11:13:26Z</time><name>PT3037</name></trkpt>
<trkpt lat="52.082005" lon="05.707706"><ele>57.1</ele><time>2021-03-01T11:13:27Z</time><name>PT3038</name></trkpt>
<trkpt lat="52.082005" lon="05.707677"><ele>57.2</ele><time>2021-03-01T11:13:28Z</time><name>PT3039</name></trkpt>
<trkpt lat="52.082008" lon="05.707644"><ele>57.1</ele><time>2021-03-01T11:13:29Z</time><name>PT3040</name></trkpt>
<trkpt lat="52.082009" lon="05.707614"><ele>57.3</ele><time>2021-03-01T11:13:30Z</time><name>PT3041</name></trkpt>
<trkpt lat="52.082010" lon="05.707582"><ele>57.1</ele><time>2021-03-01T11:13:31Z</time><name>PT3042</name></trkpt>
<trkpt lat="52.082010" lon="05.707551"><ele>57.1</ele><time>2021-03-01T11:13:32Z</time><name>PT3043</name></trkpt>
<trkpt lat="52.082015" lon="05.707522"><ele>57.4</ele><time>2021-03-01T11:13:33Z</time><name>PT3044</name></trkpt>
<trkpt lat="52.082015" lon="05.707504"><ele>57.4</ele><time>2021-03-01T11:13:34Z</time><name>PT3045</name></trkpt>
<trkpt lat="52.081994" lon="05.707501"><ele>57.3</ele><time>2021-03-01T11:13:35Z</time><name>PT3046</name></trkpt>
<trkpt lat="52.081982" lon="05.707499"><ele>57.4</ele><time>2021-03-01T11:13:36Z</time><name>PT3047</name></trkpt>
<trkpt lat="52.081976" lon="05.707492"><ele>57.5</ele><time>2021-03-01T11:13:37Z</time><name>PT3048</name></trkpt>
<trkpt lat="52.081969" lon="05.707482"><ele>56.9</ele><time>2021-03-01T11:13:38Z</time><name>PT3049</name></trkpt>
<trkpt lat="52.081971" lon="05.707468"><ele>56.9</ele><time>2021-03-01T11:13:39Z</time><name>PT3050</name></trkpt>
<trkpt lat="52.081968" lon="05.707455"><ele>57.4</ele><time>2021-03-01T11:13:40Z</time><name>PT3051</name></trkpt>
<trkpt lat="52.081967" lon="05.707443"><ele>57.5</ele><time>2021-03-01T11:13:41Z</time><name>PT3052</name></trkpt>
<trkpt lat="52.081972" lon="05.707429"><ele>58</ele><time>2021-03-01T11:13:42Z</time><name>PT3053</name></trkpt>
<trkpt lat="52.081982" lon="05.707409"><ele>58.1</ele><time>2021-03-01T11:13:43Z</time><name>PT3054</name></trkpt>
<trkpt lat="52.081989" lon="05.707386"><ele>57.7</ele><time>2021-03-01T11:13:44Z</time><name>PT3055</name></trkpt>
<trkpt lat="52.081986" lon="05.707378"><ele>57.4</ele><time>2021-03-01T11:13:45Z</time><name>PT3056</name></trkpt>
<trkpt lat="52.081984" lon="05.707372"><ele>57.1</ele><time>2021-03-01T11:13:46Z</time><name>PT3057</name></trkpt>
<trkpt lat="52.081984" lon="05.707365"><ele>57.1</ele><time>2021-03-01T11:13:47Z</time><name>PT3058</name></trkpt>
<trkpt lat="52.081983" lon="05.707352"><ele>56.9</ele><time>2021-03-01T11:13:48Z</time><name>PT3059</name></trkpt>
<trkpt lat="52.081984" lon="05.707345"><ele>56.9</ele><time>2021-03-01T11:13:49Z</time><name>PT3060</name></trkpt>
<trkpt lat="52.081986" lon="05.707336"><ele>56.9</ele><time>2021-03-01T11:13:50Z</time><name>PT3061</name></trkpt>
<trkpt lat="52.081992" lon="05.707324"><ele>56.7</ele><time>2021-03-01T11:13:52Z</time><name>PT3062</name></trkpt>
<trkpt lat="52.081999" lon="05.707303"><ele>56.7</ele><time>2021-03-01T11:13:52Z</time><name>PT3063</name></trkpt>
<trkpt lat="52.082017" lon="05.707282"><ele>56.6</ele><time>2021-03-01T11:13:53Z</time><name>PT3064</name></trkpt>
<trkpt lat="52.082034" lon="05.707266"><ele>56.5</ele><time>2021-03-01T11:13:54Z</time><name>PT3065</name></trkpt>
<trkpt lat="52.082051" lon="05.707249"><ele>56.5</ele><time>2021-03-01T11:13:55Z</time><name>PT3066</name></trkpt>
<trkpt lat="52.082064" lon="05.707230"><ele>56.4</ele><time>2021-03-01T11:13:56Z</time><name>PT3067</name></trkpt>
<trkpt lat="52.082076" lon="05.707210"><ele>56.5</ele><time>2021-03-01T11:13:57Z</time><name>PT3068</name></trkpt>
<trkpt lat="52.082081" lon="05.707197"><ele>56.5</ele><time>2021-03-01T11:13:58Z</time><name>PT3069</name></trkpt>
<trkpt lat="52.082086" lon="05.707187"><ele>56.1</ele><time>2021-03-01T11:13:59Z</time><name>PT3070</name></trkpt>
<trkpt lat="52.082094" lon="05.707177"><ele>56</ele><time>2021-03-01T11:14:00Z</time><name>PT3071</name></trkpt>
<trkpt lat="52.082099" lon="05.707165"><ele>55.9</ele><time>2021-03-01T11:14:01Z</time><name>PT3072</name></trkpt>
<trkpt lat="52.082103" lon="05.707155"><ele>56</ele><time>2021-03-01T11:14:02Z</time><name>PT3073</name></trkpt>
<trkpt lat="52.082117" lon="05.707139"><ele>56</ele><time>2021-03-01T11:14:03Z</time><name>PT3074</name></trkpt>
<trkpt lat="52.082125" lon="05.707121"><ele>56.2</ele><time>2021-03-01T11:14:04Z</time><name>PT3075</name></trkpt>
<trkpt lat="52.082138" lon="05.707104"><ele>56.1</ele><time>2021-03-01T11:14:05Z</time><name>PT3076</name></trkpt>
<trkpt lat="52.082147" lon="05.707089"><ele>55.8</ele><time>2021-03-01T11:14:06Z</time><name>PT3077</name></trkpt>
<trkpt lat="52.082156" lon="05.707073"><ele>56</ele><time>2021-03-01T11:14:07Z</time><name>PT3078</name></trkpt>
<trkpt lat="52.082163" lon="05.707061"><ele>56</ele><time>2021-03-01T11:14:08Z</time><name>PT3079</name></trkpt>
<trkpt lat="52.082172" lon="05.707048"><ele>56</ele><time>2021-03-01T11:14:09Z</time><name>PT3080</name></trkpt>
<trkpt lat="52.082177" lon="05.707037"><ele>55.9</ele><time>2021-03-01T11:14:10Z</time><name>PT3081</name></trkpt>
<trkpt lat="52.082187" lon="05.707019"><ele>55.9</ele><time>2021-03-01T11:14:11Z</time><name>PT3082</name></trkpt>
<trkpt lat="52.082196" lon="05.707000"><ele>55.7</ele><time>2021-03-01T11:14:12Z</time><name>PT3083</name></trkpt>
<trkpt lat="52.082208" lon="05.706983"><ele>55.4</ele><time>2021-03-01T11:14:13Z</time><name>PT3084</name></trkpt>
<trkpt lat="52.082218" lon="05.706963"><ele>55.4</ele><time>2021-03-01T11:14:14Z</time><name>PT3085</name></trkpt>
<trkpt lat="52.082228" lon="05.706941"><ele>55.4</ele><time>2021-03-01T11:14:15Z</time><name>PT3086</name></trkpt>
<trkpt lat="52.082240" lon="05.706919"><ele>55.4</ele><time>2021-03-01T11:14:16Z</time><name>PT3087</name></trkpt>
<trkpt lat="52.082254" lon="05.706898"><ele>55.5</ele><time>2021-03-01T11:14:17Z</time><name>PT3088</name></trkpt>
<trkpt lat="52.082267" lon="05.706880"><ele>55.3</ele><time>2021-03-01T11:14:19Z</time><name>PT3089</name></trkpt>
<trkpt lat="52.082281" lon="05.706859"><ele>55.3</ele><time>2021-03-01T11:14:19Z</time><name>PT3090</name></trkpt>
<trkpt lat="52.082295" lon="05.706839"><ele>55.2</ele><time>2021-03-01T11:14:20Z</time><name>PT3091</name></trkpt>
<trkpt lat="52.082307" lon="05.706822"><ele>55.1</ele><time>2021-03-01T11:14:21Z</time><name>PT3092</name></trkpt>
<trkpt lat="52.082320" lon="05.706804"><ele>55.2</ele><time>2021-03-01T11:14:22Z</time><name>PT3093</name></trkpt>
<trkpt lat="52.082329" lon="05.706786"><ele>55.3</ele><time>2021-03-01T11:14:24Z</time><name>PT3094</name></trkpt>
<trkpt lat="52.082337" lon="05.706766"><ele>55.2</ele><time>2021-03-01T11:14:24Z</time><name>PT3095</name></trkpt>
<trkpt lat="52.082343" lon="05.706748"><ele>55.2</ele><time>2021-03-01T11:14:25Z</time><name>PT3096</name></trkpt>
<trkpt lat="52.082356" lon="05.706731"><ele>55.1</ele><time>2021-03-01T11:14:26Z</time><name>PT3097</name></trkpt>
<trkpt lat="52.082369" lon="05.706715"><ele>55</ele><time>2021-03-01T11:14:27Z</time><name>PT3098</name></trkpt>
<trkpt lat="52.082371" lon="05.706693"><ele>55</ele><time>2021-03-01T11:14:28Z</time><name>PT3099</name></trkpt>
<trkpt lat="52.082383" lon="05.706669"><ele>54.9</ele><time>2021-03-01T11:14:29Z</time><name>PT3100</name></trkpt>
<trkpt lat="52.082392" lon="05.706647"><ele>54.8</ele><time>2021-03-01T11:14:30Z</time><name>PT3101</name></trkpt>
<trkpt lat="52.082401" lon="05.706627"><ele>55</ele><time>2021-03-01T11:14:31Z</time><name>PT3102</name></trkpt>
<trkpt lat="52.082410" lon="05.706605"><ele>55.1</ele><time>2021-03-01T11:14:32Z</time><name>PT3103</name></trkpt>
<trkpt lat="52.082419" lon="05.706588"><ele>55.1</ele><time>2021-03-01T11:14:33Z</time><name>PT3104</name></trkpt>
<trkpt lat="52.082427" lon="05.706570"><ele>55.1</ele><time>2021-03-01T11:14:34Z</time><name>PT3105</name></trkpt>
<trkpt lat="52.082442" lon="05.706552"><ele>55.1</ele><time>2021-03-01T11:14:35Z</time><name>PT3106</name></trkpt>
<trkpt lat="52.082456" lon="05.706538"><ele>55.1</ele><time>2021-03-01T11:14:36Z</time><name>PT3107</name></trkpt>
<trkpt lat="52.082468" lon="05.706526"><ele>55</ele><time>2021-03-01T11:14:37Z</time><name>PT3108</name></trkpt>
<trkpt lat="52.082479" lon="05.706509"><ele>54.9</ele><time>2021-03-01T11:14:38Z</time><name>PT3109</name></trkpt>
<trkpt lat="52.082489" lon="05.706495"><ele>54.9</ele><time>2021-03-01T11:14:39Z</time><name>PT3110</name></trkpt>
<trkpt lat="52.082499" lon="05.706478"><ele>55</ele><time>2021-03-01T11:14:40Z</time><name>PT3111</name></trkpt>
<trkpt lat="52.082509" lon="05.706458"><ele>54.9</ele><time>2021-03-01T11:14:41Z</time><name>PT3112</name></trkpt>
<trkpt lat="52.082520" lon="05.706436"><ele>54.9</ele><time>2021-03-01T11:14:42Z</time><name>PT3113</name></trkpt>
<trkpt lat="52.082531" lon="05.706423"><ele>55</ele><time>2021-03-01T11:14:43Z</time><name>PT3114</name></trkpt>
<trkpt lat="52.082539" lon="05.706416"><ele>54.8</ele><time>2021-03-01T11:14:44Z</time><name>PT3115</name></trkpt>
<trkpt lat="52.082548" lon="05.706404"><ele>54.7</ele><time>2021-03-01T11:14:45Z</time><name>PT3116</name></trkpt>
<trkpt lat="52.082555" lon="05.706394"><ele>54.7</ele><time>2021-03-01T11:14:46Z</time><name>PT3117</name></trkpt>
<trkpt lat="52.082563" lon="05.706378"><ele>54.3</ele><time>2021-03-01T11:14:47Z</time><name>PT3118</name></trkpt>
<trkpt lat="52.082570" lon="05.706366"><ele>54.3</ele><time>2021-03-01T11:14:48Z</time><name>PT3119</name></trkpt>
<trkpt lat="52.082575" lon="05.706354"><ele>54.2</ele><time>2021-03-01T11:14:49Z</time><name>PT3120</name></trkpt>
<trkpt lat="52.082579" lon="05.706345"><ele>54.3</ele><time>2021-03-01T11:14:50Z</time><name>PT3121</name></trkpt>
<trkpt lat="52.082581" lon="05.706338"><ele>54.2</ele><time>2021-03-01T11:14:51Z</time><name>PT3122</name></trkpt>
<trkpt lat="52.082587" lon="05.706330"><ele>54.3</ele><time>2021-03-01T11:14:52Z</time><name>PT3123</name></trkpt>
<trkpt lat="52.082591" lon="05.706324"><ele>54.3</ele><time>2021-03-01T11:14:53Z</time><name>PT3124</name></trkpt>
<trkpt lat="52.082595" lon="05.706321"><ele>54.4</ele><time>2021-03-01T11:14:54Z</time><name>PT3125</name></trkpt>
<trkpt lat="52.082599" lon="05.706316"><ele>54.4</ele><time>2021-03-01T11:14:55Z</time><name>PT3126</name></trkpt>
<trkpt lat="52.082600" lon="05.706306"><ele>54.3</ele><time>2021-03-01T11:14:56Z</time><name>PT3127</name></trkpt>
<trkpt lat="52.082600" lon="05.706300"><ele>54.2</ele><time>2021-03-01T11:14:57Z</time><name>PT3128</name></trkpt>
<trkpt lat="52.082603" lon="05.706293"><ele>54.1</ele><time>2021-03-01T11:14:59Z</time><name>PT3129</name></trkpt>
<trkpt lat="52.082613" lon="05.706280"><ele>54.2</ele><time>2021-03-01T11:14:59Z</time><name>PT3130</name></trkpt>
<trkpt lat="52.082622" lon="05.706268"><ele>54.1</ele><time>2021-03-01T11:15:00Z</time><name>PT3131</name></trkpt>
<trkpt lat="52.082623" lon="05.706254"><ele>54.1</ele><time>2021-03-01T11:15:01Z</time><name>PT3132</name></trkpt>
<trkpt lat="52.082625" lon="05.706231"><ele>54.1</ele><time>2021-03-01T11:15:02Z</time><name>PT3133</name></trkpt>
<trkpt lat="52.082637" lon="05.706207"><ele>54</ele><time>2021-03-01T11:15:03Z</time><name>PT3134</name></trkpt>
<trkpt lat="52.082647" lon="05.706178"><ele>53.9</ele><time>2021-03-01T11:15:04Z</time><name>PT3135</name></trkpt>
<trkpt lat="52.082659" lon="05.706161"><ele>54</ele><time>2021-03-01T11:15:05Z</time><name>PT3136</name></trkpt>
<trkpt lat="52.082666" lon="05.706139"><ele>53.9</ele><time>2021-03-01T11:15:06Z</time><name>PT3137</name></trkpt>
<trkpt lat="52.082674" lon="05.706104"><ele>53.8</ele><time>2021-03-01T11:15:07Z</time><name>PT3138</name></trkpt>
<trkpt lat="52.082681" lon="05.706083"><ele>53.9</ele><time>2021-03-01T11:15:08Z</time><name>PT3139</name></trkpt>
<trkpt lat="52.082690" lon="05.706065"><ele>53.9</ele><time>2021-03-01T11:15:09Z</time><name>PT3140</name></trkpt>
<trkpt lat="52.082699" lon="05.706050"><ele>53.8</ele><time>2021-03-01T11:15:10Z</time><name>PT3141</name></trkpt>
<trkpt lat="52.082707" lon="05.706029"><ele>53.8</ele><time>2021-03-01T11:15:11Z</time><name>PT3142</name></trkpt>
<trkpt lat="52.082716" lon="05.706004"><ele>53.8</ele><time>2021-03-01T11:15:12Z</time><name>PT3143</name></trkpt>
<trkpt lat="52.082723" lon="05.705979"><ele>53.7</ele><time>2021-03-01T11:15:13Z</time><name>PT3144</name></trkpt>
<trkpt lat="52.082728" lon="05.705948"><ele>53.7</ele><time>2021-03-01T11:15:14Z</time><name>PT3145</name></trkpt>
<trkpt lat="52.082735" lon="05.705921"><ele>53.8</ele><time>2021-03-01T11:15:15Z</time><name>PT3146</name></trkpt>
<trkpt lat="52.082746" lon="05.705894"><ele>53.4</ele><time>2021-03-01T11:15:16Z</time><name>PT3147</name></trkpt>
<trkpt lat="52.082752" lon="05.705863"><ele>53.3</ele><time>2021-03-01T11:15:18Z</time><name>PT3148</name></trkpt>
<trkpt lat="52.082758" lon="05.705831"><ele>53.3</ele><time>2021-03-01T11:15:18Z</time><name>PT3149</name></trkpt>
<trkpt lat="52.082767" lon="05.705796"><ele>53.3</ele><time>2021-03-01T11:15:19Z</time><name>PT3150</name></trkpt>
<trkpt lat="52.082778" lon="05.705769"><ele>53.3</ele><time>2021-03-01T11:15:21Z</time><name>PT3151</name></trkpt>
<trkpt lat="52.082784" lon="05.705751"><ele>53.3</ele><time>2021-03-01T11:15:21Z</time><name>PT3152</name></trkpt>
<trkpt lat="52.082784" lon="05.705732"><ele>53.5</ele><time>2021-03-01T11:15:22Z</time><name>PT3153</name></trkpt>
<trkpt lat="52.082787" lon="05.705711"><ele>53.4</ele><time>2021-03-01T11:15:23Z</time><name>PT3154</name></trkpt>
<trkpt lat="52.082792" lon="05.705694"><ele>53.7</ele><time>2021-03-01T11:15:24Z</time><name>PT3155</name></trkpt>
<trkpt lat="52.082797" lon="05.705677"><ele>53.8</ele><time>2021-03-01T11:15:25Z</time><name>PT3156</name></trkpt>
<trkpt lat="52.082802" lon="05.705664"><ele>53.8</ele><time>2021-03-01T11:15:26Z</time><name>PT3157</name></trkpt>
<trkpt lat="52.082809" lon="05.705652"><ele>54.2</ele><time>2021-03-01T11:15:27Z</time><name>PT3158</name></trkpt>
<trkpt lat="52.082817" lon="05.705638"><ele>54.5</ele><time>2021-03-01T11:15:28Z</time><name>PT3159</name></trkpt>
<trkpt lat="52.082826" lon="05.705629"><ele>54.1</ele><time>2021-03-01T11:15:29Z</time><name>PT3160</name></trkpt>
<trkpt lat="52.082837" lon="05.705617"><ele>54.2</ele><time>2021-03-01T11:15:30Z</time><name>PT3161</name></trkpt>
<trkpt lat="52.082847" lon="05.705601"><ele>54</ele><time>2021-03-01T11:15:31Z</time><name>PT3162</name></trkpt>
<trkpt lat="52.082858" lon="05.705589"><ele>53.8</ele><time>2021-03-01T11:15:32Z</time><name>PT3163</name></trkpt>
<trkpt lat="52.082863" lon="05.705576"><ele>53.5</ele><time>2021-03-01T11:15:33Z</time><name>PT3164</name></trkpt>
<trkpt lat="52.082868" lon="05.705564"><ele>53.6</ele><time>2021-03-01T11:15:34Z</time><name>PT3165</name></trkpt>
<trkpt lat="52.082875" lon="05.705554"><ele>53.3</ele><time>2021-03-01T11:15:35Z</time><name>PT3166</name></trkpt>
<trkpt lat="52.082876" lon="05.705544"><ele>53.2</ele><time>2021-03-01T11:15:36Z</time><name>PT3167</name></trkpt>
<trkpt lat="52.082880" lon="05.705528"><ele>53.1</ele><time>2021-03-01T11:15:37Z</time><name>PT3168</name></trkpt>
<trkpt lat="52.082889" lon="05.705517"><ele>53.1</ele><time>2021-03-01T11:15:38Z</time><name>PT3169</name></trkpt>
<trkpt lat="52.082900" lon="05.705506"><ele>53.1</ele><time>2021-03-01T11:15:39Z</time><name>PT3170</name></trkpt>
<trkpt lat="52.082906" lon="05.705499"><ele>53.3</ele><time>2021-03-01T11:15:40Z</time><name>PT3171</name></trkpt>
<trkpt lat="52.082916" lon="05.705487"><ele>53.1</ele><time>2021-03-01T11:15:41Z</time><name>PT3172</name></trkpt>
<trkpt lat="52.082928" lon="05.705470"><ele>53</ele><time>2021-03-01T11:15:42Z</time><name>PT3173</name></trkpt>
<trkpt lat="52.082932" lon="05.705460"><ele>53.1</ele><time>2021-03-01T11:15:43Z</time><name>PT3174</name></trkpt>
<trkpt lat="52.082937" lon="05.705447"><ele>53</ele><time>2021-03-01T11:15:44Z</time><name>PT3175</name></trkpt>
<trkpt lat="52.082954" lon="05.705426"><ele>53.1</ele><time>2021-03-01T11:15:45Z</time><name>PT3176</name></trkpt>
<trkpt lat="52.082977" lon="05.705381"><ele>53.1</ele><time>2021-03-01T11:15:47Z</time><name>PT3177</name></trkpt>
<trkpt lat="52.082992" lon="05.705357"><ele>52.9</ele><time>2021-03-01T11:15:48Z</time><name>PT3178</name></trkpt>
<trkpt lat="52.083005" lon="05.705333"><ele>53</ele><time>2021-03-01T11:15:49Z</time><name>PT3179</name></trkpt>
<trkpt lat="52.083013" lon="05.705315"><ele>52.9</ele><time>2021-03-01T11:15:50Z</time><name>PT3180</name></trkpt>
<trkpt lat="52.083020" lon="05.705303"><ele>52.9</ele><time>2021-03-01T11:15:51Z</time><name>PT3181</name></trkpt>
<trkpt lat="52.083032" lon="05.705276"><ele>53.1</ele><time>2021-03-01T11:15:52Z</time><name>PT3182</name></trkpt>
<trkpt lat="52.083048" lon="05.705257"><ele>53</ele><time>2021-03-01T11:15:53Z</time><name>PT3183</name></trkpt>
<trkpt lat="52.083066" lon="05.705234"><ele>52.9</ele><time>2021-03-01T11:15:54Z</time><name>PT3184</name></trkpt>
<trkpt lat="52.083082" lon="05.705209"><ele>52.8</ele><time>2021-03-01T11:15:55Z</time><name>PT3185</name></trkpt>
<trkpt lat="52.083099" lon="05.705187"><ele>52.5</ele><time>2021-03-01T11:15:56Z</time><name>PT3186</name></trkpt>
<trkpt lat="52.083112" lon="05.705169"><ele>52.4</ele><time>2021-03-01T11:15:57Z</time><name>PT3187</name></trkpt>
<trkpt lat="52.083120" lon="05.705146"><ele>52.4</ele><time>2021-03-01T11:15:58Z</time><name>PT3188</name></trkpt>
<trkpt lat="52.083133" lon="05.705121"><ele>52.5</ele><time>2021-03-01T11:15:59Z</time><name>PT3189</name></trkpt>
<trkpt lat="52.083143" lon="05.705098"><ele>52.7</ele><time>2021-03-01T11:16:00Z</time><name>PT3190</name></trkpt>
<trkpt lat="52.083151" lon="05.705075"><ele>52.8</ele><time>2021-03-01T11:16:01Z</time><name>PT3191</name></trkpt>
<trkpt lat="52.083164" lon="05.705052"><ele>52.8</ele><time>2021-03-01T11:16:02Z</time><name>PT3192</name></trkpt>
<trkpt lat="52.083175" lon="05.705035"><ele>52.8</ele><time>2021-03-01T11:16:03Z</time><name>PT3193</name></trkpt>
<trkpt lat="52.083180" lon="05.705014"><ele>52.9</ele><time>2021-03-01T11:16:04Z</time><name>PT3194</name></trkpt>
<trkpt lat="52.083190" lon="05.704993"><ele>52.8</ele><time>2021-03-01T11:16:05Z</time><name>PT3195</name></trkpt>
<trkpt lat="52.083204" lon="05.704972"><ele>52.7</ele><time>2021-03-01T11:16:06Z</time><name>PT3196</name></trkpt>
<trkpt lat="52.083217" lon="05.704958"><ele>52.7</ele><time>2021-03-01T11:16:07Z</time><name>PT3197</name></trkpt>
<trkpt lat="52.083232" lon="05.704946"><ele>52.6</ele><time>2021-03-01T11:16:08Z</time><name>PT3198</name></trkpt>
<trkpt lat="52.083241" lon="05.704929"><ele>52.4</ele><time>2021-03-01T11:16:09Z</time><name>PT3199</name></trkpt>
<trkpt lat="52.083249" lon="05.704911"><ele>52.3</ele><time>2021-03-01T11:16:10Z</time><name>PT3200</name></trkpt>
<trkpt lat="52.083256" lon="05.704894"><ele>52.2</ele><time>2021-03-01T11:16:11Z</time><name>PT3201</name></trkpt>
<trkpt lat="52.083264" lon="05.704877"><ele>52.3</ele><time>2021-03-01T11:16:12Z</time><name>PT3202</name></trkpt>
<trkpt lat="52.083266" lon="05.704861"><ele>52.5</ele><time>2021-03-01T11:16:13Z</time><name>PT3203</name></trkpt>
<trkpt lat="52.083272" lon="05.704843"><ele>52.5</ele><time>2021-03-01T11:16:14Z</time><name>PT3204</name></trkpt>
<trkpt lat="52.083277" lon="05.704825"><ele>52.5</ele><time>2021-03-01T11:16:16Z</time><name>PT3205</name></trkpt>
<trkpt lat="52.083285" lon="05.704812"><ele>52.5</ele><time>2021-03-01T11:16:16Z</time><name>PT3206</name></trkpt>
<trkpt lat="52.083290" lon="05.704797"><ele>52.3</ele><time>2021-03-01T11:16:17Z</time><name>PT3207</name></trkpt>
<trkpt lat="52.083297" lon="05.704790"><ele>52.4</ele><time>2021-03-01T11:16:19Z</time><name>PT3208</name></trkpt>
<trkpt lat="52.083303" lon="05.704776"><ele>52.4</ele><time>2021-03-01T11:16:19Z</time><name>PT3209</name></trkpt>
<trkpt lat="52.083311" lon="05.704765"><ele>52.4</ele><time>2021-03-01T11:16:20Z</time><name>PT3210</name></trkpt>
<trkpt lat="52.083309" lon="05.704761"><ele>52.4</ele><time>2021-03-01T11:16:22Z</time><name>PT3211</name></trkpt>
<trkpt lat="52.083314" lon="05.704751"><ele>52.4</ele><time>2021-03-01T11:16:22Z</time><name>PT3212</name></trkpt>
<trkpt lat="52.083312" lon="05.704746"><ele>52.4</ele><time>2021-03-01T11:16:23Z</time><name>PT3213</name></trkpt>
<trkpt lat="52.083314" lon="05.704735"><ele>52.4</ele><time>2021-03-01T11:16:24Z</time><name>PT3214</name></trkpt>
<trkpt lat="52.083314" lon="05.704721"><ele>52.5</ele><time>2021-03-01T11:16:25Z</time><name>PT3215</name></trkpt>
<trkpt lat="52.083313" lon="05.704703"><ele>52.6</ele><time>2021-03-01T11:16:26Z</time><name>PT3216</name></trkpt>
<trkpt lat="52.083313" lon="05.704683"><ele>52.5</ele><time>2021-03-01T11:16:27Z</time><name>PT3217</name></trkpt>
<trkpt lat="52.083310" lon="05.704665"><ele>52.5</ele><time>2021-03-01T11:16:28Z</time><name>PT3218</name></trkpt>
<trkpt lat="52.083308" lon="05.704651"><ele>52.6</ele><time>2021-03-01T11:16:29Z</time><name>PT3219</name></trkpt>
<trkpt lat="52.083305" lon="05.704638"><ele>52.5</ele><time>2021-03-01T11:16:30Z</time><name>PT3220</name></trkpt>
<trkpt lat="52.083295" lon="05.704621"><ele>52.5</ele><time>2021-03-01T11:16:31Z</time><name>PT3221</name></trkpt>
<trkpt lat="52.083295" lon="05.704610"><ele>52.6</ele><time>2021-03-01T11:16:32Z</time><name>PT3222</name></trkpt>
<trkpt lat="52.083297" lon="05.704601"><ele>52.4</ele><time>2021-03-01T11:16:33Z</time><name>PT3223</name></trkpt>
<trkpt lat="52.083299" lon="05.704587"><ele>52.4</ele><time>2021-03-01T11:16:34Z</time><name>PT3224</name></trkpt>
<trkpt lat="52.083305" lon="05.704573"><ele>52.4</ele><time>2021-03-01T11:16:35Z</time><name>PT3225</name></trkpt>
<trkpt lat="52.083306" lon="05.704565"><ele>52.3</ele><time>2021-03-01T11:16:36Z</time><name>PT3226</name></trkpt>
<trkpt lat="52.083299" lon="05.704563"><ele>52.4</ele><time>2021-03-01T11:16:37Z</time><name>PT3227</name></trkpt>
<trkpt lat="52.083298" lon="05.704563"><ele>52.4</ele><time>2021-03-01T11:16:38Z</time><name>PT3228</name></trkpt>
<trkpt lat="52.083296" lon="05.704566"><ele>52.4</ele><time>2021-03-01T11:16:39Z</time><name>PT3229</name></trkpt>
<trkpt lat="52.083292" lon="05.704570"><ele>52.6</ele><time>2021-03-01T11:16:40Z</time><name>PT3230</name></trkpt>
<trkpt lat="52.083289" lon="05.704570"><ele>52.5</ele><time>2021-03-01T11:16:41Z</time><name>PT3231</name></trkpt>
<trkpt lat="52.083290" lon="05.704572"><ele>52.5</ele><time>2021-03-01T11:16:42Z</time><name>PT3232</name></trkpt>
<trkpt lat="52.083290" lon="05.704574"><ele>52.4</ele><time>2021-03-01T11:16:43Z</time><name>PT3233</name></trkpt>
<trkpt lat="52.083290" lon="05.704573"><ele>52.4</ele><time>2021-03-01T11:16:44Z</time><name>PT3234</name></trkpt>
<trkpt lat="52.083289" lon="05.704571"><ele>52.4</ele><time>2021-03-01T11:16:45Z</time><name>PT3235</name></trkpt>
<trkpt lat="52.083289" lon="05.704573"><ele>52.4</ele><time>2021-03-01T11:16:46Z</time><name>PT3236</name></trkpt>
<trkpt lat="52.083287" lon="05.704574"><ele>52.5</ele><time>2021-03-01T11:16:47Z</time><name>PT3237</name></trkpt>
<trkpt lat="52.083290" lon="05.704568"><ele>52.8</ele><time>2021-03-01T11:16:50Z</time><name>PT3238</name></trkpt>
<trkpt lat="52.083291" lon="05.704550"><ele>52.7</ele><time>2021-03-01T11:16:51Z</time><name>PT3239</name></trkpt>
<trkpt lat="52.083292" lon="05.704530"><ele>52.7</ele><time>2021-03-01T11:16:52Z</time><name>PT3240</name></trkpt>
<trkpt lat="52.083295" lon="05.704513"><ele>52.6</ele><time>2021-03-01T11:16:53Z</time><name>PT3241</name></trkpt>
<trkpt lat="52.083298" lon="05.704500"><ele>52.6</ele><time>2021-03-01T11:16:54Z</time><name>PT3242</name></trkpt>
<trkpt lat="52.083296" lon="05.704492"><ele>52.6</ele><time>2021-03-01T11:16:55Z</time><name>PT3243</name></trkpt>
<trkpt lat="52.083296" lon="05.704483"><ele>52.8</ele><time>2021-03-01T11:16:56Z</time><name>PT3244</name></trkpt>
<trkpt lat="52.083298" lon="05.704471"><ele>52.8</ele><time>2021-03-01T11:16:57Z</time><name>PT3245</name></trkpt>
<trkpt lat="52.083293" lon="05.704451"><ele>52.5</ele><time>2021-03-01T11:17:00Z</time><name>PT3246</name></trkpt>
<trkpt lat="52.083293" lon="05.704452"><ele>52.5</ele><time>2021-03-01T11:17:01Z</time><name>PT3247</name></trkpt>
<trkpt lat="52.083292" lon="05.704453"><ele>52.7</ele><time>2021-03-01T11:17:02Z</time><name>PT3248</name></trkpt>
<trkpt lat="52.083290" lon="05.704451"><ele>52.7</ele><time>2021-03-01T11:17:03Z</time><name>PT3249</name></trkpt>
<trkpt lat="52.083289" lon="05.704459"><ele>52.1</ele><time>2021-03-01T11:17:10Z</time><name>PT3250</name></trkpt>
<trkpt lat="52.083293" lon="05.704450"><ele>52</ele><time>2021-03-01T11:17:11Z</time><name>PT3251</name></trkpt>
<trkpt lat="52.083295" lon="05.704440"><ele>51.9</ele><time>2021-03-01T11:17:12Z</time><name>PT3252</name></trkpt>
<trkpt lat="52.083297" lon="05.704432"><ele>51.8</ele><time>2021-03-01T11:17:13Z</time><name>PT3253</name></trkpt>
<trkpt lat="52.083296" lon="05.704423"><ele>51.9</ele><time>2021-03-01T11:17:14Z</time><name>PT3254</name></trkpt>
<trkpt lat="52.083296" lon="05.704425"><ele>52.1</ele><time>2021-03-01T11:17:15Z</time><name>PT3255</name></trkpt>
<trkpt lat="52.083296" lon="05.704426"><ele>52.2</ele><time>2021-03-01T11:17:16Z</time><name>PT3256</name></trkpt>
<trkpt lat="52.083296" lon="05.704419"><ele>52.3</ele><time>2021-03-01T11:17:17Z</time><name>PT3257</name></trkpt>
<trkpt lat="52.083298" lon="05.704412"><ele>52.3</ele><time>2021-03-01T11:17:18Z</time><name>PT3258</name></trkpt>
<trkpt lat="52.083297" lon="05.704411"><ele>52.2</ele><time>2021-03-01T11:17:19Z</time><name>PT3259</name></trkpt>
<trkpt lat="52.083300" lon="05.704408"><ele>52</ele><time>2021-03-01T11:17:20Z</time><name>PT3260</name></trkpt>
<trkpt lat="52.083302" lon="05.704395"><ele>51.8</ele><time>2021-03-01T11:17:21Z</time><name>PT3261</name></trkpt>
<trkpt lat="52.083308" lon="05.704393"><ele>51.9</ele><time>2021-03-01T11:17:22Z</time><name>PT3262</name></trkpt>
<trkpt lat="52.083308" lon="05.704390"><ele>51.9</ele><time>2021-03-01T11:17:23Z</time><name>PT3263</name></trkpt>
<trkpt lat="52.083310" lon="05.704386"><ele>52</ele><time>2021-03-01T11:17:24Z</time><name>PT3264</name></trkpt>
<trkpt lat="52.083310" lon="05.704384"><ele>52.1</ele><time>2021-03-01T11:17:25Z</time><name>PT3265</name></trkpt>
<trkpt lat="52.083313" lon="05.704381"><ele>52.4</ele><time>2021-03-01T11:17:31Z</time><name>PT3266</name></trkpt>
<trkpt lat="52.083314" lon="05.704377"><ele>52.4</ele><time>2021-03-01T11:17:32Z</time><name>PT3267</name></trkpt>
<trkpt lat="52.083320" lon="05.704370"><ele>52.3</ele><time>2021-03-01T11:17:35Z</time><name>PT3268</name></trkpt>
<trkpt lat="52.083322" lon="05.704364"><ele>52.3</ele><time>2021-03-01T11:17:36Z</time><name>PT3269</name></trkpt>
<trkpt lat="52.083323" lon="05.704358"><ele>52.3</ele><time>2021-03-01T11:17:37Z</time><name>PT3270</name></trkpt>
<trkpt lat="52.083325" lon="05.704354"><ele>52.4</ele><time>2021-03-01T11:17:38Z</time><name>PT3271</name></trkpt>
<trkpt lat="52.083325" lon="05.704344"><ele>52.4</ele><time>2021-03-01T11:17:39Z</time><name>PT3272</name></trkpt>
<trkpt lat="52.083321" lon="05.704333"><ele>52.2</ele><time>2021-03-01T11:17:42Z</time><name>PT3273</name></trkpt>
<trkpt lat="52.083318" lon="05.704330"><ele>52</ele><time>2021-03-01T11:17:43Z</time><name>PT3274</name></trkpt>
<trkpt lat="52.083314" lon="05.704325"><ele>52</ele><time>2021-03-01T11:17:44Z</time><name>PT3275</name></trkpt>
<trkpt lat="52.083315" lon="05.704324"><ele>51.9</ele><time>2021-03-01T11:17:45Z</time><name>PT3276</name></trkpt>
<trkpt lat="52.083316" lon="05.704322"><ele>51.9</ele><time>2021-03-01T11:17:46Z</time><name>PT3277</name></trkpt>
<trkpt lat="52.083314" lon="05.704320"><ele>51.7</ele><time>2021-03-01T11:17:47Z</time><name>PT3278</name></trkpt>
<trkpt lat="52.083315" lon="05.704319"><ele>51.9</ele><time>2021-03-01T11:17:50Z</time><name>PT3279</name></trkpt>
<trkpt lat="52.083315" lon="05.704322"><ele>52.1</ele><time>2021-03-01T11:17:51Z</time><name>PT3280</name></trkpt>
<trkpt lat="52.083316" lon="05.704319"><ele>52.1</ele><time>2021-03-01T11:17:52Z</time><name>PT3281</name></trkpt>
<trkpt lat="52.083312" lon="05.704324"><ele>52.4</ele><time>2021-03-01T11:18:25Z</time><name>PT3282</name></trkpt>
<trkpt lat="52.083310" lon="05.704333"><ele>52.4</ele><time>2021-03-01T11:18:26Z</time><name>PT3283</name></trkpt>
<trkpt lat="52.083303" lon="05.704317"><ele>52.1</ele><time>2021-03-01T11:27:35Z</time><name>PT3284</name></trkpt>
<trkpt lat="52.083290" lon="05.704326"><ele>52</ele><time>2021-03-01T11:27:36Z</time><name>PT3285</name></trkpt>
<trkpt lat="52.083280" lon="05.704324"><ele>52.1</ele><time>2021-03-01T11:27:37Z</time><name>PT3286</name></trkpt>
<trkpt lat="52.083275" lon="05.704313"><ele>52.2</ele><time>2021-03-01T11:27:38Z</time><name>PT3287</name></trkpt>
<trkpt lat="52.083274" lon="05.704286"><ele>52.3</ele><time>2021-03-01T11:27:39Z</time><name>PT3288</name></trkpt>
<trkpt lat="52.083277" lon="05.704269"><ele>52.3</ele><time>2021-03-01T11:27:40Z</time><name>PT3289</name></trkpt>
<trkpt lat="52.083275" lon="05.704250"><ele>52.2</ele><time>2021-03-01T11:27:41Z</time><name>PT3290</name></trkpt>
<trkpt lat="52.083275" lon="05.704245"><ele>52.1</ele><time>2021-03-01T11:27:42Z</time><name>PT3291</name></trkpt>
<trkpt lat="52.083276" lon="05.704249"><ele>52</ele><time>2021-03-01T11:27:43Z</time><name>PT3292</name></trkpt>
<trkpt lat="52.083274" lon="05.704259"><ele>51.8</ele><time>2021-03-01T11:27:44Z</time><name>PT3293</name></trkpt>
<trkpt lat="52.083271" lon="05.704270"><ele>51.7</ele><time>2021-03-01T11:27:45Z</time><name>PT3294</name></trkpt>
<trkpt lat="52.083270" lon="05.704274"><ele>51.9</ele><time>2021-03-01T11:27:46Z</time><name>PT3295</name></trkpt>
<trkpt lat="52.083267" lon="05.704269"><ele>51.9</ele><time>2021-03-01T11:28:11Z</time><name>PT3296</name></trkpt>
<trkpt lat="52.083260" lon="05.704262"><ele>52</ele><time>2021-03-01T11:28:12Z</time><name>PT3297</name></trkpt>
<trkpt lat="52.083254" lon="05.704251"><ele>52</ele><time>2021-03-01T11:28:13Z</time><name>PT3298</name></trkpt>
<trkpt lat="52.083251" lon="05.704238"><ele>52</ele><time>2021-03-01T11:28:14Z</time><name>PT3299</name></trkpt>
<trkpt lat="52.083244" lon="05.704227"><ele>52</ele><time>2021-03-01T11:28:15Z</time><name>PT3300</name></trkpt>
<trkpt lat="52.083239" lon="05.704220"><ele>52</ele><time>2021-03-01T11:28:16Z</time><name>PT3301</name></trkpt>
<trkpt lat="52.083233" lon="05.704209"><ele>51.9</ele><time>2021-03-01T11:28:17Z</time><name>PT3302</name></trkpt>
<trkpt lat="52.083229" lon="05.704198"><ele>51.9</ele><time>2021-03-01T11:28:18Z</time><name>PT3303</name></trkpt>
<trkpt lat="52.083224" lon="05.704190"><ele>52</ele><time>2021-03-01T11:28:19Z</time><name>PT3304</name></trkpt>
<trkpt lat="52.083218" lon="05.704180"><ele>51.8</ele><time>2021-03-01T11:28:20Z</time><name>PT3305</name></trkpt>
<trkpt lat="52.083208" lon="05.704168"><ele>51.9</ele><time>2021-03-01T11:28:21Z</time><name>PT3306</name></trkpt>
<trkpt lat="52.083199" lon="05.704162"><ele>52</ele><time>2021-03-01T11:28:22Z</time><name>PT3307</name></trkpt>
<trkpt lat="52.083191" lon="05.704154"><ele>51.8</ele><time>2021-03-01T11:28:23Z</time><name>PT3308</name></trkpt>
<trkpt lat="52.083179" lon="05.704146"><ele>51.8</ele><time>2021-03-01T11:28:24Z</time><name>PT3309</name></trkpt>
<trkpt lat="52.083169" lon="05.704137"><ele>52</ele><time>2021-03-01T11:28:25Z</time><name>PT3310</name></trkpt>
<trkpt lat="52.083160" lon="05.704126"><ele>51.8</ele><time>2021-03-01T11:28:26Z</time><name>PT3311</name></trkpt>
<trkpt lat="52.083153" lon="05.704115"><ele>51.8</ele><time>2021-03-01T11:28:27Z</time><name>PT3312</name></trkpt>
<trkpt lat="52.083149" lon="05.704109"><ele>51.8</ele><time>2021-03-01T11:28:28Z</time><name>PT3313</name></trkpt>
<trkpt lat="52.083142" lon="05.704103"><ele>51.8</ele><time>2021-03-01T11:28:29Z</time><name>PT3314</name></trkpt>
<trkpt lat="52.083135" lon="05.704094"><ele>51.8</ele><time>2021-03-01T11:28:30Z</time><name>PT3315</name></trkpt>
<trkpt lat="52.083124" lon="05.704088"><ele>52</ele><time>2021-03-01T11:28:31Z</time><name>PT3316</name></trkpt>
<trkpt lat="52.083112" lon="05.704076"><ele>52</ele><time>2021-03-01T11:28:32Z</time><name>PT3317</name></trkpt>
<trkpt lat="52.083105" lon="05.704070"><ele>52</ele><time>2021-03-01T11:28:33Z</time><name>PT3318</name></trkpt>
<trkpt lat="52.083091" lon="05.704054"><ele>52</ele><time>2021-03-01T11:28:34Z</time><name>PT3319</name></trkpt>
<trkpt lat="52.083081" lon="05.704048"><ele>51.8</ele><time>2021-03-01T11:28:35Z</time><name>PT3320</name></trkpt>
<trkpt lat="52.083073" lon="05.704038"><ele>51.9</ele><time>2021-03-01T11:28:36Z</time><name>PT3321</name></trkpt>
<trkpt lat="52.083065" lon="05.704030"><ele>52</ele><time>2021-03-01T11:28:37Z</time><name>PT3322</name></trkpt>
<trkpt lat="52.083051" lon="05.704020"><ele>52.3</ele><time>2021-03-01T11:28:38Z</time><name>PT3323</name></trkpt>
<trkpt lat="52.083042" lon="05.704011"><ele>52.2</ele><time>2021-03-01T11:28:39Z</time><name>PT3324</name></trkpt>
<trkpt lat="52.083034" lon="05.703995"><ele>52.1</ele><time>2021-03-01T11:28:40Z</time><name>PT3325</name></trkpt>
<trkpt lat="52.083020" lon="05.703979"><ele>51.9</ele><time>2021-03-01T11:28:41Z</time><name>PT3326</name></trkpt>
<trkpt lat="52.083002" lon="05.703962"><ele>51.8</ele><time>2021-03-01T11:28:42Z</time><name>PT3327</name></trkpt>
<trkpt lat="52.082993" lon="05.703944"><ele>51.8</ele><time>2021-03-01T11:28:43Z</time><name>PT3328</name></trkpt>
<trkpt lat="52.082978" lon="05.703928"><ele>51.7</ele><time>2021-03-01T11:28:44Z</time><name>PT3329</name></trkpt>
<trkpt lat="52.082980" lon="05.703912"><ele>52.2</ele><time>2021-03-01T11:28:45Z</time><name>PT3330</name></trkpt>
<trkpt lat="52.082964" lon="05.703906"><ele>52.6</ele><time>2021-03-01T11:28:46Z</time><name>PT3331</name></trkpt>
<trkpt lat="52.082942" lon="05.703882"><ele>52.7</ele><time>2021-03-01T11:28:47Z</time><name>PT3332</name></trkpt>
<trkpt lat="52.082924" lon="05.703860"><ele>52.8</ele><time>2021-03-01T11:28:48Z</time><name>PT3333</name></trkpt>
<trkpt lat="52.082912" lon="05.703838"><ele>52.9</ele><time>2021-03-01T11:28:49Z</time><name>PT3334</name></trkpt>
<trkpt lat="52.082906" lon="05.703827"><ele>52.5</ele><time>2021-03-01T11:28:50Z</time><name>PT3335</name></trkpt>
<trkpt lat="52.082902" lon="05.703815"><ele>52.2</ele><time>2021-03-01T11:28:51Z</time><name>PT3336</name></trkpt>
<trkpt lat="52.082892" lon="05.703801"><ele>52.2</ele><time>2021-03-01T11:28:52Z</time><name>PT3337</name></trkpt>
<trkpt lat="52.082877" lon="05.703783"><ele>52</ele><time>2021-03-01T11:28:53Z</time><name>PT3338</name></trkpt>
<trkpt lat="52.082865" lon="05.703770"><ele>52</ele><time>2021-03-01T11:28:54Z</time><name>PT3339</name></trkpt>
<trkpt lat="52.082854" lon="05.703758"><ele>52.1</ele><time>2021-03-01T11:28:55Z</time><name>PT3340</name></trkpt>
<trkpt lat="52.082845" lon="05.703748"><ele>52.3</ele><time>2021-03-01T11:28:56Z</time><name>PT3341</name></trkpt>
<trkpt lat="52.082837" lon="05.703734"><ele>52.3</ele><time>2021-03-01T11:28:57Z</time><name>PT3342</name></trkpt>
<trkpt lat="52.082829" lon="05.703724"><ele>52.4</ele><time>2021-03-01T11:28:58Z</time><name>PT3343</name></trkpt>
<trkpt lat="52.082817" lon="05.703714"><ele>52.2</ele><time>2021-03-01T11:28:59Z</time><name>PT3344</name></trkpt>
<trkpt lat="52.082809" lon="05.703709"><ele>52.2</ele><time>2021-03-01T11:29:00Z</time><name>PT3345</name></trkpt>
<trkpt lat="52.082802" lon="05.703705"><ele>52.2</ele><time>2021-03-01T11:29:01Z</time><name>PT3346</name></trkpt>
<trkpt lat="52.082794" lon="05.703698"><ele>52.2</ele><time>2021-03-01T11:29:02Z</time><name>PT3347</name></trkpt>
<trkpt lat="52.082784" lon="05.703688"><ele>52.3</ele><time>2021-03-01T11:29:03Z</time><name>PT3348</name></trkpt>
<trkpt lat="52.082777" lon="05.703675"><ele>52.4</ele><time>2021-03-01T11:29:04Z</time><name>PT3349</name></trkpt>
<trkpt lat="52.082770" lon="05.703664"><ele>52.4</ele><time>2021-03-01T11:29:05Z</time><name>PT3350</name></trkpt>
<trkpt lat="52.082758" lon="05.703652"><ele>52.4</ele><time>2021-03-01T11:29:06Z</time><name>PT3351</name></trkpt>
<trkpt lat="52.082748" lon="05.703647"><ele>52.4</ele><time>2021-03-01T11:29:07Z</time><name>PT3352</name></trkpt>
<trkpt lat="52.082741" lon="05.703633"><ele>52.4</ele><time>2021-03-01T11:29:08Z</time><name>PT3353</name></trkpt>
<trkpt lat="52.082730" lon="05.703608"><ele>52.3</ele><time>2021-03-01T11:29:09Z</time><name>PT3354</name></trkpt>
<trkpt lat="52.082718" lon="05.703591"><ele>52.3</ele><time>2021-03-01T11:29:10Z</time><name>PT3355</name></trkpt>
<trkpt lat="52.082706" lon="05.703575"><ele>52.4</ele><time>2021-03-01T11:29:11Z</time><name>PT3356</name></trkpt>
<trkpt lat="52.082693" lon="05.703554"><ele>52.4</ele><time>2021-03-01T11:29:12Z</time><name>PT3357</name></trkpt>
<trkpt lat="52.082675" lon="05.703539"><ele>52.4</ele><time>2021-03-01T11:29:13Z</time><name>PT3358</name></trkpt>
<trkpt lat="52.082667" lon="05.703528"><ele>52.3</ele><time>2021-03-01T11:29:14Z</time><name>PT3359</name></trkpt>
<trkpt lat="52.082657" lon="05.703512"><ele>52.4</ele><time>2021-03-01T11:29:15Z</time><name>PT3360</name></trkpt>
<trkpt lat="52.082645" lon="05.703493"><ele>52.1</ele><time>2021-03-01T11:29:16Z</time><name>PT3361</name></trkpt>
<trkpt lat="52.082636" lon="05.703473"><ele>52.3</ele><time>2021-03-01T11:29:17Z</time><name>PT3362</name></trkpt>
<trkpt lat="52.082626" lon="05.703455"><ele>52.4</ele><time>2021-03-01T11:29:18Z</time><name>PT3363</name></trkpt>
<trkpt lat="52.082616" lon="05.703435"><ele>52.4</ele><time>2021-03-01T11:29:19Z</time><name>PT3364</name></trkpt>
<trkpt lat="52.082605" lon="05.703408"><ele>52.5</ele><time>2021-03-01T11:29:20Z</time><name>PT3365</name></trkpt>
<trkpt lat="52.082596" lon="05.703392"><ele>52.4</ele><time>2021-03-01T11:29:21Z</time><name>PT3366</name></trkpt>
<trkpt lat="52.082583" lon="05.703374"><ele>52.5</ele><time>2021-03-01T11:29:22Z</time><name>PT3367</name></trkpt>
<trkpt lat="52.082566" lon="05.703356"><ele>52.3</ele><time>2021-03-01T11:29:23Z</time><name>PT3368</name></trkpt>
<trkpt lat="52.082556" lon="05.703339"><ele>52.4</ele><time>2021-03-01T11:29:24Z</time><name>PT3369</name></trkpt>
<trkpt lat="52.082542" lon="05.703320"><ele>52.4</ele><time>2021-03-01T11:29:25Z</time><name>PT3370</name></trkpt>
<trkpt lat="52.082530" lon="05.703307"><ele>52.5</ele><time>2021-03-01T11:29:26Z</time><name>PT3371</name></trkpt>
<trkpt lat="52.082515" lon="05.703290"><ele>52.5</ele><time>2021-03-01T11:29:27Z</time><name>PT3372</name></trkpt>
<trkpt lat="52.082504" lon="05.703279"><ele>52.5</ele><time>2021-03-01T11:29:28Z</time><name>PT3373</name></trkpt>
<trkpt lat="52.082488" lon="05.703267"><ele>52.4</ele><time>2021-03-01T11:29:29Z</time><name>PT3374</name></trkpt>
<trkpt lat="52.082477" lon="05.703255"><ele>52.4</ele><time>2021-03-01T11:29:30Z</time><name>PT3375</name></trkpt>
<trkpt lat="52.082469" lon="05.703243"><ele>52.3</ele><time>2021-03-01T11:29:31Z</time><name>PT3376</name></trkpt>
<trkpt lat="52.082458" lon="05.703233"><ele>52.3</ele><time>2021-03-01T11:29:32Z</time><name>PT3377</name></trkpt>
<trkpt lat="52.082448" lon="05.703223"><ele>52.2</ele><time>2021-03-01T11:29:33Z</time><name>PT3378</name></trkpt>
<trkpt lat="52.082441" lon="05.703211"><ele>52.3</ele><time>2021-03-01T11:29:34Z</time><name>PT3379</name></trkpt>
<trkpt lat="52.082435" lon="05.703199"><ele>52.4</ele><time>2021-03-01T11:29:35Z</time><name>PT3380</name></trkpt>
<trkpt lat="52.082424" lon="05.703187"><ele>52.3</ele><time>2021-03-01T11:29:36Z</time><name>PT3381</name></trkpt>
<trkpt lat="52.082415" lon="05.703173"><ele>52.4</ele><time>2021-03-01T11:29:37Z</time><name>PT3382</name></trkpt>
<trkpt lat="52.082405" lon="05.703161"><ele>52.4</ele><time>2021-03-01T11:29:38Z</time><name>PT3383</name></trkpt>
<trkpt lat="52.082392" lon="05.703153"><ele>52.3</ele><time>2021-03-01T11:29:39Z</time><name>PT3384</name></trkpt>
<trkpt lat="52.082384" lon="05.703144"><ele>52.3</ele><time>2021-03-01T11:29:40Z</time><name>PT3385</name></trkpt>
<trkpt lat="52.082376" lon="05.703134"><ele>52.6</ele><time>2021-03-01T11:29:41Z</time><name>PT3386</name></trkpt>
<trkpt lat="52.082369" lon="05.703124"><ele>52.4</ele><time>2021-03-01T11:29:42Z</time><name>PT3387</name></trkpt>
<trkpt lat="52.082355" lon="05.703112"><ele>52.4</ele><time>2021-03-01T11:29:43Z</time><name>PT3388</name></trkpt>
<trkpt lat="52.082345" lon="05.703105"><ele>52.7</ele><time>2021-03-01T11:29:44Z</time><name>PT3389</name></trkpt>
<trkpt lat="52.082338" lon="05.703100"><ele>52.5</ele><time>2021-03-01T11:29:45Z</time><name>PT3390</name></trkpt>
<trkpt lat="52.082323" lon="05.703090"><ele>52.4</ele><time>2021-03-01T11:29:46Z</time><name>PT3391</name></trkpt>
<trkpt lat="52.082311" lon="05.703083"><ele>52.4</ele><time>2021-03-01T11:29:47Z</time><name>PT3392</name></trkpt>
<trkpt lat="52.082297" lon="05.703069"><ele>52.4</ele><time>2021-03-01T11:29:48Z</time><name>PT3393</name></trkpt>
<trkpt lat="52.082284" lon="05.703056"><ele>52.2</ele><time>2021-03-01T11:29:49Z</time><name>PT3394</name></trkpt>
<trkpt lat="52.082271" lon="05.703045"><ele>52.3</ele><time>2021-03-01T11:29:50Z</time><name>PT3395</name></trkpt>
<trkpt lat="52.082263" lon="05.703033"><ele>52.4</ele><time>2021-03-01T11:29:51Z</time><name>PT3396</name></trkpt>
<trkpt lat="52.082258" lon="05.703022"><ele>52.4</ele><time>2021-03-01T11:29:52Z</time><name>PT3397</name></trkpt>
<trkpt lat="52.082249" lon="05.703018"><ele>52.3</ele><time>2021-03-01T11:29:53Z</time><name>PT3398</name></trkpt>
<trkpt lat="52.082238" lon="05.703013"><ele>52.3</ele><time>2021-03-01T11:29:54Z</time><name>PT3399</name></trkpt>
<trkpt lat="52.082224" lon="05.702994"><ele>52.2</ele><time>2021-03-01T11:29:55Z</time><name>PT3400</name></trkpt>
<trkpt lat="52.082217" lon="05.702984"><ele>52.2</ele><time>2021-03-01T11:29:56Z</time><name>PT3401</name></trkpt>
<trkpt lat="52.082209" lon="05.702975"><ele>52.3</ele><time>2021-03-01T11:29:57Z</time><name>PT3402</name></trkpt>
<trkpt lat="52.082201" lon="05.702965"><ele>52.4</ele><time>2021-03-01T11:29:58Z</time><name>PT3403</name></trkpt>
<trkpt lat="52.082190" lon="05.702955"><ele>52.4</ele><time>2021-03-01T11:29:59Z</time><name>PT3404</name></trkpt>
<trkpt lat="52.082180" lon="05.702941"><ele>52.4</ele><time>2021-03-01T11:30:00Z</time><name>PT3405</name></trkpt>
<trkpt lat="52.082171" lon="05.702933"><ele>52.4</ele><time>2021-03-01T11:30:01Z</time><name>PT3406</name></trkpt>
<trkpt lat="52.082164" lon="05.702924"><ele>52.4</ele><time>2021-03-01T11:30:02Z</time><name>PT3407</name></trkpt>
<trkpt lat="52.082154" lon="05.702914"><ele>52.1</ele><time>2021-03-01T11:30:03Z</time><name>PT3408</name></trkpt>
<trkpt lat="52.082148" lon="05.702910"><ele>52.1</ele><time>2021-03-01T11:30:04Z</time><name>PT3409</name></trkpt>
<trkpt lat="52.082136" lon="05.702890"><ele>52.1</ele><time>2021-03-01T11:30:05Z</time><name>PT3410</name></trkpt>
<trkpt lat="52.082123" lon="05.702881"><ele>52</ele><time>2021-03-01T11:30:06Z</time><name>PT3411</name></trkpt>
<trkpt lat="52.082113" lon="05.702864"><ele>52.2</ele><time>2021-03-01T11:30:07Z</time><name>PT3412</name></trkpt>
<trkpt lat="52.082109" lon="05.702853"><ele>52.3</ele><time>2021-03-01T11:30:08Z</time><name>PT3413</name></trkpt>
<trkpt lat="52.082104" lon="05.702850"><ele>52.3</ele><time>2021-03-01T11:30:09Z</time><name>PT3414</name></trkpt>
<trkpt lat="52.082098" lon="05.702842"><ele>52.3</ele><time>2021-03-01T11:30:10Z</time><name>PT3415</name></trkpt>
<trkpt lat="52.082095" lon="05.702837"><ele>52.4</ele><time>2021-03-01T11:30:11Z</time><name>PT3416</name></trkpt>
<trkpt lat="52.082091" lon="05.702835"><ele>52.3</ele><time>2021-03-01T11:30:12Z</time><name>PT3417</name></trkpt>
<trkpt lat="52.082072" lon="05.702821"><ele>52.4</ele><time>2021-03-01T11:30:13Z</time><name>PT3418</name></trkpt>
<trkpt lat="52.082062" lon="05.702813"><ele>52.4</ele><time>2021-03-01T11:30:14Z</time><name>PT3419</name></trkpt>
<trkpt lat="52.082052" lon="05.702801"><ele>52.5</ele><time>2021-03-01T11:30:15Z</time><name>PT3420</name></trkpt>
<trkpt lat="52.082040" lon="05.702785"><ele>52.5</ele><time>2021-03-01T11:30:16Z</time><name>PT3421</name></trkpt>
<trkpt lat="52.082031" lon="05.702771"><ele>52.6</ele><time>2021-03-01T11:30:17Z</time><name>PT3422</name></trkpt>
<trkpt lat="52.082022" lon="05.702751"><ele>52.6</ele><time>2021-03-01T11:30:18Z</time><name>PT3423</name></trkpt>
<trkpt lat="52.082011" lon="05.702737"><ele>52.7</ele><time>2021-03-01T11:30:19Z</time><name>PT3424</name></trkpt>
<trkpt lat="52.082002" lon="05.702731"><ele>52.7</ele><time>2021-03-01T11:30:20Z</time><name>PT3425</name></trkpt>
<trkpt lat="52.081995" lon="05.702721"><ele>52.7</ele><time>2021-03-01T11:30:21Z</time><name>PT3426</name></trkpt>
<trkpt lat="52.081985" lon="05.702707"><ele>52.7</ele><time>2021-03-01T11:30:22Z</time><name>PT3427</name></trkpt>
<trkpt lat="52.081965" lon="05.702676"><ele>52.5</ele><time>2021-03-01T11:30:23Z</time><name>PT3428</name></trkpt>
<trkpt lat="52.081950" lon="05.702656"><ele>52.4</ele><time>2021-03-01T11:30:24Z</time><name>PT3429</name></trkpt>
<trkpt lat="52.081938" lon="05.702639"><ele>52.5</ele><time>2021-03-01T11:30:25Z</time><name>PT3430</name></trkpt>
<trkpt lat="52.081925" lon="05.702620"><ele>52.5</ele><time>2021-03-01T11:30:26Z</time><name>PT3431</name></trkpt>
<trkpt lat="52.081914" lon="05.702610"><ele>52.6</ele><time>2021-03-01T11:30:27Z</time><name>PT3432</name></trkpt>
<trkpt lat="52.081899" lon="05.702593"><ele>52.6</ele><time>2021-03-01T11:30:28Z</time><name>PT3433</name></trkpt>
<trkpt lat="52.081885" lon="05.702575"><ele>52.5</ele><time>2021-03-01T11:30:29Z</time><name>PT3434</name></trkpt>
<trkpt lat="52.081867" lon="05.702545"><ele>52.4</ele><time>2021-03-01T11:30:30Z</time><name>PT3435</name></trkpt>
<trkpt lat="52.081852" lon="05.702531"><ele>52.3</ele><time>2021-03-01T11:30:31Z</time><name>PT3436</name></trkpt>
<trkpt lat="52.081845" lon="05.702520"><ele>52.4</ele><time>2021-03-01T11:30:32Z</time><name>PT3437</name></trkpt>
<trkpt lat="52.081834" lon="05.702505"><ele>52.4</ele><time>2021-03-01T11:30:33Z</time><name>PT3438</name></trkpt>
<trkpt lat="52.081816" lon="05.702482"><ele>52.4</ele><time>2021-03-01T11:30:34Z</time><name>PT3439</name></trkpt>
<trkpt lat="52.081809" lon="05.702474"><ele>52.4</ele><time>2021-03-01T11:30:35Z</time><name>PT3440</name></trkpt>
<trkpt lat="52.081798" lon="05.702460"><ele>52.4</ele><time>2021-03-01T11:30:36Z</time><name>PT3441</name></trkpt>
<trkpt lat="52.081784" lon="05.702442"><ele>52.4</ele><time>2021-03-01T11:30:37Z</time><name>PT3442</name></trkpt>
<trkpt lat="52.081771" lon="05.702425"><ele>52.5</ele><time>2021-03-01T11:30:38Z</time><name>PT3443</name></trkpt>
<trkpt lat="52.081761" lon="05.702418"><ele>52.4</ele><time>2021-03-01T11:30:39Z</time><name>PT3444</name></trkpt>
<trkpt lat="52.081749" lon="05.702402"><ele>52.4</ele><time>2021-03-01T11:30:40Z</time><name>PT3445</name></trkpt>
<trkpt lat="52.081731" lon="05.702376"><ele>52.5</ele><time>2021-03-01T11:30:41Z</time><name>PT3446</name></trkpt>
<trkpt lat="52.081719" lon="05.702358"><ele>52.4</ele><time>2021-03-01T11:30:42Z</time><name>PT3447</name></trkpt>
<trkpt lat="52.081708" lon="05.702346"><ele>52.3</ele><time>2021-03-01T11:30:43Z</time><name>PT3448</name></trkpt>
<trkpt lat="52.081695" lon="05.702330"><ele>52.4</ele><time>2021-03-01T11:30:44Z</time><name>PT3449</name></trkpt>
<trkpt lat="52.081674" lon="05.702299"><ele>52.4</ele><time>2021-03-01T11:30:45Z</time><name>PT3450</name></trkpt>
<trkpt lat="52.081659" lon="05.702281"><ele>52.4</ele><time>2021-03-01T11:30:46Z</time><name>PT3451</name></trkpt>
<trkpt lat="52.081644" lon="05.702257"><ele>52.4</ele><time>2021-03-01T11:30:47Z</time><name>PT3452</name></trkpt>
<trkpt lat="52.081631" lon="05.702242"><ele>52.3</ele><time>2021-03-01T11:30:48Z</time><name>PT3453</name></trkpt>
<trkpt lat="52.081621" lon="05.702230"><ele>52.2</ele><time>2021-03-01T11:30:49Z</time><name>PT3454</name></trkpt>
<trkpt lat="52.081614" lon="05.702217"><ele>52.2</ele><time>2021-03-01T11:30:50Z</time><name>PT3455</name></trkpt>
<trkpt lat="52.081604" lon="05.702202"><ele>52.2</ele><time>2021-03-01T11:30:51Z</time><name>PT3456</name></trkpt>
<trkpt lat="52.081583" lon="05.702171"><ele>52.2</ele><time>2021-03-01T11:30:52Z</time><name>PT3457</name></trkpt>
<trkpt lat="52.081557" lon="05.702137"><ele>52.1</ele><time>2021-03-01T11:30:53Z</time><name>PT3458</name></trkpt>
<trkpt lat="52.081538" lon="05.702115"><ele>52.2</ele><time>2021-03-01T11:30:54Z</time><name>PT3459</name></trkpt>
<trkpt lat="52.081519" lon="05.702094"><ele>52.4</ele><time>2021-03-01T11:30:55Z</time><name>PT3460</name></trkpt>
<trkpt lat="52.081510" lon="05.702079"><ele>52.4</ele><time>2021-03-01T11:30:56Z</time><name>PT3461</name></trkpt>
<trkpt lat="52.081497" lon="05.702063"><ele>52.4</ele><time>2021-03-01T11:30:57Z</time><name>PT3462</name></trkpt>
<trkpt lat="52.081482" lon="05.702049"><ele>52.6</ele><time>2021-03-01T11:30:58Z</time><name>PT3463</name></trkpt>
<trkpt lat="52.081477" lon="05.702035"><ele>52.5</ele><time>2021-03-01T11:30:59Z</time><name>PT3464</name></trkpt>
<trkpt lat="52.081467" lon="05.702009"><ele>52.5</ele><time>2021-03-01T11:31:00Z</time><name>PT3465</name></trkpt>
<trkpt lat="52.081458" lon="05.701994"><ele>52.7</ele><time>2021-03-01T11:31:01Z</time><name>PT3466</name></trkpt>
<trkpt lat="52.081448" lon="05.701981"><ele>52.6</ele><time>2021-03-01T11:31:02Z</time><name>PT3467</name></trkpt>
<trkpt lat="52.081435" lon="05.701960"><ele>52.6</ele><time>2021-03-01T11:31:03Z</time><name>PT3468</name></trkpt>
<trkpt lat="52.081421" lon="05.701947"><ele>52.6</ele><time>2021-03-01T11:31:04Z</time><name>PT3469</name></trkpt>
<trkpt lat="52.081416" lon="05.701942"><ele>52.4</ele><time>2021-03-01T11:31:05Z</time><name>PT3470</name></trkpt>
<trkpt lat="52.081404" lon="05.701926"><ele>52.4</ele><time>2021-03-01T11:31:06Z</time><name>PT3471</name></trkpt>
<trkpt lat="52.081396" lon="05.701916"><ele>52.4</ele><time>2021-03-01T11:31:07Z</time><name>PT3472</name></trkpt>
<trkpt lat="52.081393" lon="05.701911"><ele>52.3</ele><time>2021-03-01T11:31:08Z</time><name>PT3473</name></trkpt>
<trkpt lat="52.081391" lon="05.701907"><ele>52.2</ele><time>2021-03-01T11:31:09Z</time><name>PT3474</name></trkpt>
<trkpt lat="52.081377" lon="05.701884"><ele>52.1</ele><time>2021-03-01T11:31:10Z</time><name>PT3475</name></trkpt>
<trkpt lat="52.081379" lon="05.701881"><ele>52.2</ele><time>2021-03-01T11:31:13Z</time><name>PT3476</name></trkpt>
<trkpt lat="52.081384" lon="05.701864"><ele>52.1</ele><time>2021-03-01T11:31:14Z</time><name>PT3477</name></trkpt>
<trkpt lat="52.081394" lon="05.701857"><ele>52.1</ele><time>2021-03-01T11:31:15Z</time><name>PT3478</name></trkpt>
<trkpt lat="52.081405" lon="05.701837"><ele>52.1</ele><time>2021-03-01T11:31:16Z</time><name>PT3479</name></trkpt>
<trkpt lat="52.081416" lon="05.701824"><ele>52.1</ele><time>2021-03-01T11:31:17Z</time><name>PT3480</name></trkpt>
<trkpt lat="52.081427" lon="05.701823"><ele>52.1</ele><time>2021-03-01T11:31:18Z</time><name>PT3481</name></trkpt>
<trkpt lat="52.081432" lon="05.701818"><ele>52.2</ele><time>2021-03-01T11:31:19Z</time><name>PT3482</name></trkpt>
<trkpt lat="52.081439" lon="05.701807"><ele>52.3</ele><time>2021-03-01T11:31:20Z</time><name>PT3483</name></trkpt>
<trkpt lat="52.081446" lon="05.701802"><ele>52.3</ele><time>2021-03-01T11:31:21Z</time><name>PT3484</name></trkpt>
<trkpt lat="52.081448" lon="05.701786"><ele>52.4</ele><time>2021-03-01T11:31:22Z</time><name>PT3485</name></trkpt>
<trkpt lat="52.081456" lon="05.701778"><ele>52.4</ele><time>2021-03-01T11:31:23Z</time><name>PT3486</name></trkpt>
<trkpt lat="52.081463" lon="05.701774"><ele>52.5</ele><time>2021-03-01T11:31:24Z</time><name>PT3487</name></trkpt>
<trkpt lat="52.081464" lon="05.701764"><ele>52.5</ele><time>2021-03-01T11:31:25Z</time><name>PT3488</name></trkpt>
<trkpt lat="52.081470" lon="05.701754"><ele>52.4</ele><time>2021-03-01T11:31:26Z</time><name>PT3489</name></trkpt>
<trkpt lat="52.081473" lon="05.701736"><ele>52.4</ele><time>2021-03-01T11:31:27Z</time><name>PT3490</name></trkpt>
<trkpt lat="52.081476" lon="05.701716"><ele>52.4</ele><time>2021-03-01T11:31:28Z</time><name>PT3491</name></trkpt>
<trkpt lat="52.081478" lon="05.701707"><ele>52.4</ele><time>2021-03-01T11:31:29Z</time><name>PT3492</name></trkpt>
<trkpt lat="52.081480" lon="05.701677"><ele>52.5</ele><time>2021-03-01T11:31:30Z</time><name>PT3493</name></trkpt>
<trkpt lat="52.081483" lon="05.701638"><ele>52.5</ele><time>2021-03-01T11:31:31Z</time><name>PT3494</name></trkpt>
<trkpt lat="52.081489" lon="05.701606"><ele>52.4</ele><time>2021-03-01T11:31:32Z</time><name>PT3495</name></trkpt>
<trkpt lat="52.081495" lon="05.701594"><ele>52.4</ele><time>2021-03-01T11:31:33Z</time><name>PT3496</name></trkpt>
<trkpt lat="52.081499" lon="05.701576"><ele>52.3</ele><time>2021-03-01T11:31:34Z</time><name>PT3497</name></trkpt>
<trkpt lat="52.081504" lon="05.701546"><ele>52.1</ele><time>2021-03-01T11:31:35Z</time><name>PT3498</name></trkpt>
<trkpt lat="52.081515" lon="05.701531"><ele>52.3</ele><time>2021-03-01T11:31:36Z</time><name>PT3499</name></trkpt>
<trkpt lat="52.081526" lon="05.701518"><ele>52.4</ele><time>2021-03-01T11:31:37Z</time><name>PT3500</name></trkpt>
<trkpt lat="52.081533" lon="05.701509"><ele>52.4</ele><time>2021-03-01T11:31:38Z</time><name>PT3501</name></trkpt>
<trkpt lat="52.081541" lon="05.701493"><ele>52.5</ele><time>2021-03-01T11:31:39Z</time><name>PT3502</name></trkpt>
<trkpt lat="52.081550" lon="05.701484"><ele>52.4</ele><time>2021-03-01T11:31:40Z</time><name>PT3503</name></trkpt>
<trkpt lat="52.081557" lon="05.701469"><ele>52.4</ele><time>2021-03-01T11:31:41Z</time><name>PT3504</name></trkpt>
<trkpt lat="52.081562" lon="05.701449"><ele>52.4</ele><time>2021-03-01T11:31:42Z</time><name>PT3505</name></trkpt>
<trkpt lat="52.081573" lon="05.701428"><ele>52.4</ele><time>2021-03-01T11:31:43Z</time><name>PT3506</name></trkpt>
<trkpt lat="52.081579" lon="05.701416"><ele>52.4</ele><time>2021-03-01T11:31:44Z</time><name>PT3507</name></trkpt>
<trkpt lat="52.081586" lon="05.701392"><ele>52.4</ele><time>2021-03-01T11:31:45Z</time><name>PT3508</name></trkpt>
<trkpt lat="52.081595" lon="05.701364"><ele>52.4</ele><time>2021-03-01T11:31:46Z</time><name>PT3509</name></trkpt>
<trkpt lat="52.081602" lon="05.701336"><ele>52.4</ele><time>2021-03-01T11:31:47Z</time><name>PT3510</name></trkpt>
<trkpt lat="52.081611" lon="05.701321"><ele>52.4</ele><time>2021-03-01T11:31:48Z</time><name>PT3511</name></trkpt>
<trkpt lat="52.081621" lon="05.701311"><ele>52.3</ele><time>2021-03-01T11:31:49Z</time><name>PT3512</name></trkpt>
<trkpt lat="52.081626" lon="05.701278"><ele>52.1</ele><time>2021-03-01T11:31:50Z</time><name>PT3513</name></trkpt>
<trkpt lat="52.081634" lon="05.701269"><ele>52.2</ele><time>2021-03-01T11:31:51Z</time><name>PT3514</name></trkpt>
<trkpt lat="52.081643" lon="05.701251"><ele>52</ele><time>2021-03-01T11:31:52Z</time><name>PT3515</name></trkpt>
<trkpt lat="52.081652" lon="05.701248"><ele>51.9</ele><time>2021-03-01T11:31:53Z</time><name>PT3516</name></trkpt>
<trkpt lat="52.081660" lon="05.701242"><ele>51.7</ele><time>2021-03-01T11:31:54Z</time><name>PT3517</name></trkpt>
<trkpt lat="52.081666" lon="05.701238"><ele>51.7</ele><time>2021-03-01T11:31:55Z</time><name>PT3518</name></trkpt>
<trkpt lat="52.081671" lon="05.701194"><ele>51.6</ele><time>2021-03-01T11:31:56Z</time><name>PT3519</name></trkpt>
<trkpt lat="52.081672" lon="05.701175"><ele>51.8</ele><time>2021-03-01T11:31:57Z</time><name>PT3520</name></trkpt>
<trkpt lat="52.081671" lon="05.701158"><ele>51.9</ele><time>2021-03-01T11:31:58Z</time><name>PT3521</name></trkpt>
<trkpt lat="52.081677" lon="05.701141"><ele>51.9</ele><time>2021-03-01T11:31:59Z</time><name>PT3522</name></trkpt>
<trkpt lat="52.081688" lon="05.701121"><ele>51.8</ele><time>2021-03-01T11:32:00Z</time><name>PT3523</name></trkpt>
<trkpt lat="52.081697" lon="05.701087"><ele>51.8</ele><time>2021-03-01T11:32:01Z</time><name>PT3524</name></trkpt>
<trkpt lat="52.081704" lon="05.701071"><ele>51.8</ele><time>2021-03-01T11:32:02Z</time><name>PT3525</name></trkpt>
<trkpt lat="52.081712" lon="05.701048"><ele>51.9</ele><time>2021-03-01T11:32:03Z</time><name>PT3526</name></trkpt>
<trkpt lat="52.081717" lon="05.701032"><ele>51.9</ele><time>2021-03-01T11:32:04Z</time><name>PT3527</name></trkpt>
<trkpt lat="52.081722" lon="05.701018"><ele>51.9</ele><time>2021-03-01T11:32:05Z</time><name>PT3528</name></trkpt>
<trkpt lat="52.081729" lon="05.701002"><ele>51.9</ele><time>2021-03-01T11:32:06Z</time><name>PT3529</name></trkpt>
<trkpt lat="52.081737" lon="05.700991"><ele>51.9</ele><time>2021-03-01T11:32:07Z</time><name>PT3530</name></trkpt>
<trkpt lat="52.081751" lon="05.700986"><ele>51.8</ele><time>2021-03-01T11:32:08Z</time><name>PT3531</name></trkpt>
<trkpt lat="52.081760" lon="05.700962"><ele>51.8</ele><time>2021-03-01T11:32:09Z</time><name>PT3532</name></trkpt>
<trkpt lat="52.081776" lon="05.700948"><ele>51.8</ele><time>2021-03-01T11:32:10Z</time><name>PT3533</name></trkpt>
<trkpt lat="52.081785" lon="05.700930"><ele>52</ele><time>2021-03-01T11:32:11Z</time><name>PT3534</name></trkpt>
<trkpt lat="52.081798" lon="05.700911"><ele>51.9</ele><time>2021-03-01T11:32:12Z</time><name>PT3535</name></trkpt>
<trkpt lat="52.081809" lon="05.700884"><ele>52</ele><time>2021-03-01T11:32:13Z</time><name>PT3536</name></trkpt>
<trkpt lat="52.081824" lon="05.700864"><ele>52</ele><time>2021-03-01T11:32:14Z</time><name>PT3537</name></trkpt>
<trkpt lat="52.081834" lon="05.700856"><ele>52</ele><time>2021-03-01T11:32:15Z</time><name>PT3538</name></trkpt>
<trkpt lat="52.081842" lon="05.700839"><ele>51.7</ele><time>2021-03-01T11:32:16Z</time><name>PT3539</name></trkpt>
<trkpt lat="52.081852" lon="05.700834"><ele>51.8</ele><time>2021-03-01T11:32:17Z</time><name>PT3540</name></trkpt>
<trkpt lat="52.081863" lon="05.700807"><ele>51.7</ele><time>2021-03-01T11:32:18Z</time><name>PT3541</name></trkpt>
<trkpt lat="52.081873" lon="05.700788"><ele>51.8</ele><time>2021-03-01T11:32:19Z</time><name>PT3542</name></trkpt>
<trkpt lat="52.081882" lon="05.700763"><ele>51.8</ele><time>2021-03-01T11:32:20Z</time><name>PT3543</name></trkpt>
<trkpt lat="52.081906" lon="05.700743"><ele>51.8</ele><time>2021-03-01T11:32:21Z</time><name>PT3544</name></trkpt>
<trkpt lat="52.081919" lon="05.700735"><ele>51.9</ele><time>2021-03-01T11:32:22Z</time><name>PT3545</name></trkpt>
<trkpt lat="52.081933" lon="05.700710"><ele>51.7</ele><time>2021-03-01T11:32:23Z</time><name>PT3546</name></trkpt>
<trkpt lat="52.081940" lon="05.700693"><ele>51.5</ele><time>2021-03-01T11:32:25Z</time><name>PT3547</name></trkpt>
<trkpt lat="52.081948" lon="05.700666"><ele>51.5</ele><time>2021-03-01T11:32:25Z</time><name>PT3548</name></trkpt>
<trkpt lat="52.081955" lon="05.700653"><ele>51.4</ele><time>2021-03-01T11:32:26Z</time><name>PT3549</name></trkpt>
<trkpt lat="52.081962" lon="05.700640"><ele>51.3</ele><time>2021-03-01T11:32:27Z</time><name>PT3550</name></trkpt>
<trkpt lat="52.081961" lon="05.700611"><ele>51.4</ele><time>2021-03-01T11:32:28Z</time><name>PT3551</name></trkpt>
<trkpt lat="52.081959" lon="05.700591"><ele>51.5</ele><time>2021-03-01T11:32:29Z</time><name>PT3552</name></trkpt>
<trkpt lat="52.081959" lon="05.700574"><ele>51.4</ele><time>2021-03-01T11:32:30Z</time><name>PT3553</name></trkpt>
<trkpt lat="52.081965" lon="05.700549"><ele>51.3</ele><time>2021-03-01T11:32:31Z</time><name>PT3554</name></trkpt>
<trkpt lat="52.081971" lon="05.700529"><ele>51.1</ele><time>2021-03-01T11:32:32Z</time><name>PT3555</name></trkpt>
<trkpt lat="52.081977" lon="05.700511"><ele>51</ele><time>2021-03-01T11:32:33Z</time><name>PT3556</name></trkpt>
<trkpt lat="52.081984" lon="05.700490"><ele>51</ele><time>2021-03-01T11:32:34Z</time><name>PT3557</name></trkpt>
<trkpt lat="52.081990" lon="05.700474"><ele>51.1</ele><time>2021-03-01T11:32:35Z</time><name>PT3558</name></trkpt>
<trkpt lat="52.081995" lon="05.700450"><ele>51.1</ele><time>2021-03-01T11:32:36Z</time><name>PT3559</name></trkpt>
<trkpt lat="52.082000" lon="05.700433"><ele>51.1</ele><time>2021-03-01T11:32:37Z</time><name>PT3560</name></trkpt>
<trkpt lat="52.082007" lon="05.700412"><ele>51.1</ele><time>2021-03-01T11:32:38Z</time><name>PT3561</name></trkpt>
<trkpt lat="52.082015" lon="05.700397"><ele>51</ele><time>2021-03-01T11:32:39Z</time><name>PT3562</name></trkpt>
<trkpt lat="52.082025" lon="05.700382"><ele>50.7</ele><time>2021-03-01T11:32:40Z</time><name>PT3563</name></trkpt>
<trkpt lat="52.082033" lon="05.700363"><ele>50.7</ele><time>2021-03-01T11:32:41Z</time><name>PT3564</name></trkpt>
<trkpt lat="52.082040" lon="05.700348"><ele>50.6</ele><time>2021-03-01T11:32:42Z</time><name>PT3565</name></trkpt>
<trkpt lat="52.082049" lon="05.700336"><ele>50.6</ele><time>2021-03-01T11:32:43Z</time><name>PT3566</name></trkpt>
<trkpt lat="52.082060" lon="05.700318"><ele>50.8</ele><time>2021-03-01T11:32:44Z</time><name>PT3567</name></trkpt>
<trkpt lat="52.082068" lon="05.700309"><ele>50.9</ele><time>2021-03-01T11:32:45Z</time><name>PT3568</name></trkpt>
<trkpt lat="52.082075" lon="05.700298"><ele>50.6</ele><time>2021-03-01T11:32:46Z</time><name>PT3569</name></trkpt>
<trkpt lat="52.082084" lon="05.700278"><ele>50.8</ele><time>2021-03-01T11:32:48Z</time><name>PT3570</name></trkpt>
<trkpt lat="52.082093" lon="05.700266"><ele>50.7</ele><time>2021-03-01T11:32:48Z</time><name>PT3571</name></trkpt>
<trkpt lat="52.082102" lon="05.700241"><ele>50.8</ele><time>2021-03-01T11:32:49Z</time><name>PT3572</name></trkpt>
<trkpt lat="52.082108" lon="05.700229"><ele>50.8</ele><time>2021-03-01T11:32:50Z</time><name>PT3573</name></trkpt>
<trkpt lat="52.082115" lon="05.700208"><ele>50.8</ele><time>2021-03-01T11:32:51Z</time><name>PT3574</name></trkpt>
<trkpt lat="52.082124" lon="05.700191"><ele>50.9</ele><time>2021-03-01T11:32:52Z</time><name>PT3575</name></trkpt>
<trkpt lat="52.082131" lon="05.700179"><ele>50.7</ele><time>2021-03-01T11:32:53Z</time><name>PT3576</name></trkpt>
<trkpt lat="52.082137" lon="05.700170"><ele>50.6</ele><time>2021-03-01T11:32:54Z</time><name>PT3577</name></trkpt>
<trkpt lat="52.082146" lon="05.700159"><ele>50.5</ele><time>2021-03-01T11:32:55Z</time><name>PT3578</name></trkpt>
<trkpt lat="52.082155" lon="05.700143"><ele>50.6</ele><time>2021-03-01T11:32:56Z</time><name>PT3579</name></trkpt>
<trkpt lat="52.082164" lon="05.700123"><ele>50.6</ele><time>2021-03-01T11:32:57Z</time><name>PT3580</name></trkpt>
<trkpt lat="52.082174" lon="05.700115"><ele>50.5</ele><time>2021-03-01T11:32:58Z</time><name>PT3581</name></trkpt>
<trkpt lat="52.082184" lon="05.700104"><ele>50.4</ele><time>2021-03-01T11:32:59Z</time><name>PT3582</name></trkpt>
<trkpt lat="52.082198" lon="05.700092"><ele>50.5</ele><time>2021-03-01T11:33:00Z</time><name>PT3583</name></trkpt>
<trkpt lat="52.082212" lon="05.700073"><ele>50.5</ele><time>2021-03-01T11:33:01Z</time><name>PT3584</name></trkpt>
<trkpt lat="52.082222" lon="05.700060"><ele>50.4</ele><time>2021-03-01T11:33:02Z</time><name>PT3585</name></trkpt>
<trkpt lat="52.082231" lon="05.700048"><ele>50.5</ele><time>2021-03-01T11:33:03Z</time><name>PT3586</name></trkpt>
<trkpt lat="52.082242" lon="05.700032"><ele>50.3</ele><time>2021-03-01T11:33:04Z</time><name>PT3587</name></trkpt>
<trkpt lat="52.082253" lon="05.700001"><ele>50.5</ele><time>2021-03-01T11:33:05Z</time><name>PT3588</name></trkpt>
<trkpt lat="52.082262" lon="05.699991"><ele>50.3</ele><time>2021-03-01T11:33:06Z</time><name>PT3589</name></trkpt>
<trkpt lat="52.082275" lon="05.699977"><ele>50.2</ele><time>2021-03-01T11:33:07Z</time><name>PT3590</name></trkpt>
<trkpt lat="52.082284" lon="05.699958"><ele>50.1</ele><time>2021-03-01T11:33:08Z</time><name>PT3591</name></trkpt>
<trkpt lat="52.082295" lon="05.699933"><ele>50.1</ele><time>2021-03-01T11:33:09Z</time><name>PT3592</name></trkpt>
<trkpt lat="52.082303" lon="05.699925"><ele>50</ele><time>2021-03-01T11:33:10Z</time><name>PT3593</name></trkpt>
<trkpt lat="52.082313" lon="05.699911"><ele>49.9</ele><time>2021-03-01T11:33:11Z</time><name>PT3594</name></trkpt>
<trkpt lat="52.082321" lon="05.699890"><ele>49.9</ele><time>2021-03-01T11:33:12Z</time><name>PT3595</name></trkpt>
<trkpt lat="52.082327" lon="05.699873"><ele>50</ele><time>2021-03-01T11:33:13Z</time><name>PT3596</name></trkpt>
<trkpt lat="52.082336" lon="05.699852"><ele>50.2</ele><time>2021-03-01T11:33:14Z</time><name>PT3597</name></trkpt>
<trkpt lat="52.082346" lon="05.699840"><ele>50.2</ele><time>2021-03-01T11:33:15Z</time><name>PT3598</name></trkpt>
<trkpt lat="52.082357" lon="05.699825"><ele>50.2</ele><time>2021-03-01T11:33:16Z</time><name>PT3599</name></trkpt>
<trkpt lat="52.082364" lon="05.699808"><ele>50.2</ele><time>2021-03-01T11:33:17Z</time><name>PT3600</name></trkpt>
<trkpt lat="52.082372" lon="05.699799"><ele>50.2</ele><time>2021-03-01T11:33:18Z</time><name>PT3601</name></trkpt>
<trkpt lat="52.082377" lon="05.699785"><ele>50.1</ele><time>2021-03-01T11:33:19Z</time><name>PT3602</name></trkpt>
<trkpt lat="52.082387" lon="05.699762"><ele>50.2</ele><time>2021-03-01T11:33:20Z</time><name>PT3603</name></trkpt>
<trkpt lat="52.082395" lon="05.699730"><ele>50.2</ele><time>2021-03-01T11:33:21Z</time><name>PT3604</name></trkpt>
<trkpt lat="52.082402" lon="05.699700"><ele>50.2</ele><time>2021-03-01T11:33:22Z</time><name>PT3605</name></trkpt>
<trkpt lat="52.082410" lon="05.699689"><ele>50.1</ele><time>2021-03-01T11:33:23Z</time><name>PT3606</name></trkpt>
<trkpt lat="52.082416" lon="05.699678"><ele>50.2</ele><time>2021-03-01T11:33:24Z</time><name>PT3607</name></trkpt>
<trkpt lat="52.082424" lon="05.699665"><ele>50.2</ele><time>2021-03-01T11:33:25Z</time><name>PT3608</name></trkpt>
<trkpt lat="52.082433" lon="05.699655"><ele>50.1</ele><time>2021-03-01T11:33:26Z</time><name>PT3609</name></trkpt>
<trkpt lat="52.082446" lon="05.699645"><ele>50.1</ele><time>2021-03-01T11:33:27Z</time><name>PT3610</name></trkpt>
<trkpt lat="52.082457" lon="05.699638"><ele>50.2</ele><time>2021-03-01T11:33:28Z</time><name>PT3611</name></trkpt>
<trkpt lat="52.082462" lon="05.699614"><ele>50.3</ele><time>2021-03-01T11:33:29Z</time><name>PT3612</name></trkpt>
<trkpt lat="52.082470" lon="05.699593"><ele>50.2</ele><time>2021-03-01T11:33:30Z</time><name>PT3613</name></trkpt>
<trkpt lat="52.082477" lon="05.699569"><ele>50.1</ele><time>2021-03-01T11:33:31Z</time><name>PT3614</name></trkpt>
<trkpt lat="52.082482" lon="05.699552"><ele>50.1</ele><time>2021-03-01T11:33:32Z</time><name>PT3615</name></trkpt>
<trkpt lat="52.082481" lon="05.699543"><ele>50</ele><time>2021-03-01T11:33:33Z</time><name>PT3616</name></trkpt>
<trkpt lat="52.082487" lon="05.699515"><ele>49.8</ele><time>2021-03-01T11:33:34Z</time><name>PT3617</name></trkpt>
<trkpt lat="52.082498" lon="05.699489"><ele>49.9</ele><time>2021-03-01T11:33:35Z</time><name>PT3618</name></trkpt>
<trkpt lat="52.082504" lon="05.699467"><ele>49.9</ele><time>2021-03-01T11:33:36Z</time><name>PT3619</name></trkpt>
<trkpt lat="52.082515" lon="05.699449"><ele>49.9</ele><time>2021-03-01T11:33:37Z</time><name>PT3620</name></trkpt>
<trkpt lat="52.082522" lon="05.699431"><ele>50</ele><time>2021-03-01T11:33:38Z</time><name>PT3621</name></trkpt>
<trkpt lat="52.082530" lon="05.699396"><ele>50.1</ele><time>2021-03-01T11:33:39Z</time><name>PT3622</name></trkpt>
<trkpt lat="52.082542" lon="05.699369"><ele>49.9</ele><time>2021-03-01T11:33:40Z</time><name>PT3623</name></trkpt>
<trkpt lat="52.082550" lon="05.699347"><ele>50</ele><time>2021-03-01T11:33:41Z</time><name>PT3624</name></trkpt>
<trkpt lat="52.082556" lon="05.699315"><ele>50</ele><time>2021-03-01T11:33:42Z</time><name>PT3625</name></trkpt>
<trkpt lat="52.082563" lon="05.699290"><ele>50</ele><time>2021-03-01T11:33:43Z</time><name>PT3626</name></trkpt>
<trkpt lat="52.082570" lon="05.699272"><ele>50</ele><time>2021-03-01T11:33:44Z</time><name>PT3627</name></trkpt>
<trkpt lat="52.082582" lon="05.699251"><ele>50.1</ele><time>2021-03-01T11:33:45Z</time><name>PT3628</name></trkpt>
<trkpt lat="52.082587" lon="05.699242"><ele>50.1</ele><time>2021-03-01T11:33:46Z</time><name>PT3629</name></trkpt>
<trkpt lat="52.082593" lon="05.699214"><ele>49.9</ele><time>2021-03-01T11:33:47Z</time><name>PT3630</name></trkpt>
<trkpt lat="52.082599" lon="05.699191"><ele>50</ele><time>2021-03-01T11:33:48Z</time><name>PT3631</name></trkpt>
<trkpt lat="52.082606" lon="05.699173"><ele>50.1</ele><time>2021-03-01T11:33:49Z</time><name>PT3632</name></trkpt>
<trkpt lat="52.082613" lon="05.699152"><ele>50</ele><time>2021-03-01T11:33:50Z</time><name>PT3633</name></trkpt>
<trkpt lat="52.082623" lon="05.699135"><ele>50.1</ele><time>2021-03-01T11:33:51Z</time><name>PT3634</name></trkpt>
<trkpt lat="52.082629" lon="05.699119"><ele>50</ele><time>2021-03-01T11:33:52Z</time><name>PT3635</name></trkpt>
<trkpt lat="52.082639" lon="05.699098"><ele>50</ele><time>2021-03-01T11:33:53Z</time><name>PT3636</name></trkpt>
<trkpt lat="52.082654" lon="05.699090"><ele>49.9</ele><time>2021-03-01T11:33:54Z</time><name>PT3637</name></trkpt>
<trkpt lat="52.082662" lon="05.699068"><ele>49.9</ele><time>2021-03-01T11:33:55Z</time><name>PT3638</name></trkpt>
<trkpt lat="52.082656" lon="05.699061"><ele>50</ele><time>2021-03-01T11:33:56Z</time><name>PT3639</name></trkpt>
<trkpt lat="52.082669" lon="05.699049"><ele>49.9</ele><time>2021-03-01T11:33:57Z</time><name>PT3640</name></trkpt>
<trkpt lat="52.082681" lon="05.699044"><ele>49.8</ele><time>2021-03-01T11:33:58Z</time><name>PT3641</name></trkpt>
<trkpt lat="52.082697" lon="05.699032"><ele>49.9</ele><time>2021-03-01T11:33:59Z</time><name>PT3642</name></trkpt>
<trkpt lat="52.082707" lon="05.699016"><ele>49.8</ele><time>2021-03-01T11:34:00Z</time><name>PT3643</name></trkpt>
<trkpt lat="52.082719" lon="05.699011"><ele>49.8</ele><time>2021-03-01T11:34:01Z</time><name>PT3644</name></trkpt>
<trkpt lat="52.082733" lon="05.699001"><ele>49.7</ele><time>2021-03-01T11:34:02Z</time><name>PT3645</name></trkpt>
<trkpt lat="52.082746" lon="05.698984"><ele>49.7</ele><time>2021-03-01T11:34:03Z</time><name>PT3646</name></trkpt>
<trkpt lat="52.082757" lon="05.698967"><ele>49.7</ele><time>2021-03-01T11:34:04Z</time><name>PT3647</name></trkpt>
<trkpt lat="52.082769" lon="05.698956"><ele>49.6</ele><time>2021-03-01T11:34:05Z</time><name>PT3648</name></trkpt>
<trkpt lat="52.082779" lon="05.698934"><ele>49.5</ele><time>2021-03-01T11:34:06Z</time><name>PT3649</name></trkpt>
<trkpt lat="52.082791" lon="05.698927"><ele>49.7</ele><time>2021-03-01T11:34:07Z</time><name>PT3650</name></trkpt>
<trkpt lat="52.082802" lon="05.698914"><ele>49.7</ele><time>2021-03-01T11:34:08Z</time><name>PT3651</name></trkpt>
<trkpt lat="52.082816" lon="05.698904"><ele>49.7</ele><time>2021-03-01T11:34:09Z</time><name>PT3652</name></trkpt>
<trkpt lat="52.082826" lon="05.698890"><ele>49.7</ele><time>2021-03-01T11:34:10Z</time><name>PT3653</name></trkpt>
<trkpt lat="52.082834" lon="05.698865"><ele>49.7</ele><time>2021-03-01T11:34:11Z</time><name>PT3654</name></trkpt>
<trkpt lat="52.082840" lon="05.698847"><ele>49.7</ele><time>2021-03-01T11:34:12Z</time><name>PT3655</name></trkpt>
<trkpt lat="52.082846" lon="05.698818"><ele>49.7</ele><time>2021-03-01T11:34:13Z</time><name>PT3656</name></trkpt>
<trkpt lat="52.082849" lon="05.698793"><ele>49.6</ele><time>2021-03-01T11:34:14Z</time><name>PT3657</name></trkpt>
<trkpt lat="52.082860" lon="05.698770"><ele>49.7</ele><time>2021-03-01T11:34:15Z</time><name>PT3658</name></trkpt>
<trkpt lat="52.082870" lon="05.698754"><ele>49.5</ele><time>2021-03-01T11:34:16Z</time><name>PT3659</name></trkpt>
<trkpt lat="52.082878" lon="05.698733"><ele>49.6</ele><time>2021-03-01T11:34:17Z</time><name>PT3660</name></trkpt>
<trkpt lat="52.082888" lon="05.698713"><ele>49.5</ele><time>2021-03-01T11:34:18Z</time><name>PT3661</name></trkpt>
<trkpt lat="52.082906" lon="05.698693"><ele>49.5</ele><time>2021-03-01T11:34:19Z</time><name>PT3662</name></trkpt>
<trkpt lat="52.082916" lon="05.698674"><ele>49.4</ele><time>2021-03-01T11:34:20Z</time><name>PT3663</name></trkpt>
<trkpt lat="52.082928" lon="05.698654"><ele>49.4</ele><time>2021-03-01T11:34:21Z</time><name>PT3664</name></trkpt>
<trkpt lat="52.082937" lon="05.698635"><ele>49.3</ele><time>2021-03-01T11:34:22Z</time><name>PT3665</name></trkpt>
<trkpt lat="52.082946" lon="05.698615"><ele>49.3</ele><time>2021-03-01T11:34:23Z</time><name>PT3666</name></trkpt>
<trkpt lat="52.082963" lon="05.698589"><ele>49.4</ele><time>2021-03-01T11:34:24Z</time><name>PT3667</name></trkpt>
<trkpt lat="52.082974" lon="05.698577"><ele>49.4</ele><time>2021-03-01T11:34:25Z</time><name>PT3668</name></trkpt>
<trkpt lat="52.082986" lon="05.698560"><ele>49.4</ele><time>2021-03-01T11:34:26Z</time><name>PT3669</name></trkpt>
<trkpt lat="52.082994" lon="05.698540"><ele>49.3</ele><time>2021-03-01T11:34:27Z</time><name>PT3670</name></trkpt>
<trkpt lat="52.083003" lon="05.698522"><ele>49.3</ele><time>2021-03-01T11:34:28Z</time><name>PT3671</name></trkpt>
<trkpt lat="52.083010" lon="05.698507"><ele>49.3</ele><time>2021-03-01T11:34:29Z</time><name>PT3672</name></trkpt>
<trkpt lat="52.083020" lon="05.698494"><ele>49.3</ele><time>2021-03-01T11:34:30Z</time><name>PT3673</name></trkpt>
<trkpt lat="52.083031" lon="05.698476"><ele>49.2</ele><time>2021-03-01T11:34:31Z</time><name>PT3674</name></trkpt>
<trkpt lat="52.083035" lon="05.698457"><ele>49.2</ele><time>2021-03-01T11:34:32Z</time><name>PT3675</name></trkpt>
<trkpt lat="52.083043" lon="05.698441"><ele>49.2</ele><time>2021-03-01T11:34:33Z</time><name>PT3676</name></trkpt>
<trkpt lat="52.083052" lon="05.698427"><ele>49.2</ele><time>2021-03-01T11:34:34Z</time><name>PT3677</name></trkpt>
<trkpt lat="52.083061" lon="05.698416"><ele>49</ele><time>2021-03-01T11:34:35Z</time><name>PT3678</name></trkpt>
<trkpt lat="52.083072" lon="05.698405"><ele>48.8</ele><time>2021-03-01T11:34:36Z</time><name>PT3679</name></trkpt>
<trkpt lat="52.083079" lon="05.698394"><ele>48.8</ele><time>2021-03-01T11:34:37Z</time><name>PT3680</name></trkpt>
<trkpt lat="52.083087" lon="05.698373"><ele>48.9</ele><time>2021-03-01T11:34:38Z</time><name>PT3681</name></trkpt>
<trkpt lat="52.083095" lon="05.698349"><ele>48.7</ele><time>2021-03-01T11:34:39Z</time><name>PT3682</name></trkpt>
<trkpt lat="52.083104" lon="05.698333"><ele>48.8</ele><time>2021-03-01T11:34:40Z</time><name>PT3683</name></trkpt>
<trkpt lat="52.083111" lon="05.698318"><ele>48.8</ele><time>2021-03-01T11:34:41Z</time><name>PT3684</name></trkpt>
<trkpt lat="52.083121" lon="05.698302"><ele>48.8</ele><time>2021-03-01T11:34:42Z</time><name>PT3685</name></trkpt>
<trkpt lat="52.083132" lon="05.698280"><ele>48.7</ele><time>2021-03-01T11:34:43Z</time><name>PT3686</name></trkpt>
<trkpt lat="52.083143" lon="05.698250"><ele>48.8</ele><time>2021-03-01T11:34:44Z</time><name>PT3687</name></trkpt>
<trkpt lat="52.083154" lon="05.698222"><ele>48.7</ele><time>2021-03-01T11:34:45Z</time><name>PT3688</name></trkpt>
<trkpt lat="52.083163" lon="05.698206"><ele>48.7</ele><time>2021-03-01T11:34:46Z</time><name>PT3689</name></trkpt>
<trkpt lat="52.083174" lon="05.698200"><ele>48.6</ele><time>2021-03-01T11:34:47Z</time><name>PT3690</name></trkpt>
<trkpt lat="52.083185" lon="05.698176"><ele>48.7</ele><time>2021-03-01T11:34:48Z</time><name>PT3691</name></trkpt>
<trkpt lat="52.083192" lon="05.698143"><ele>48.5</ele><time>2021-03-01T11:34:49Z</time><name>PT3692</name></trkpt>
<trkpt lat="52.083203" lon="05.698114"><ele>48.7</ele><time>2021-03-01T11:34:50Z</time><name>PT3693</name></trkpt>
<trkpt lat="52.083212" lon="05.698098"><ele>48.5</ele><time>2021-03-01T11:34:51Z</time><name>PT3694</name></trkpt>
<trkpt lat="52.083222" lon="05.698078"><ele>48.6</ele><time>2021-03-01T11:34:52Z</time><name>PT3695</name></trkpt>
<trkpt lat="52.083231" lon="05.698050"><ele>48.7</ele><time>2021-03-01T11:34:53Z</time><name>PT3696</name></trkpt>
<trkpt lat="52.083241" lon="05.698033"><ele>48.7</ele><time>2021-03-01T11:34:54Z</time><name>PT3697</name></trkpt>
<trkpt lat="52.083250" lon="05.698007"><ele>48.7</ele><time>2021-03-01T11:34:55Z</time><name>PT3698</name></trkpt>
<trkpt lat="52.083258" lon="05.697983"><ele>48.8</ele><time>2021-03-01T11:34:56Z</time><name>PT3699</name></trkpt>
<trkpt lat="52.083266" lon="05.697956"><ele>49</ele><time>2021-03-01T11:34:57Z</time><name>PT3700</name></trkpt>
<trkpt lat="52.083278" lon="05.697932"><ele>48.9</ele><time>2021-03-01T11:34:58Z</time><name>PT3701</name></trkpt>
<trkpt lat="52.083287" lon="05.697904"><ele>48.9</ele><time>2021-03-01T11:34:59Z</time><name>PT3702</name></trkpt>
<trkpt lat="52.083297" lon="05.697881"><ele>49</ele><time>2021-03-01T11:35:00Z</time><name>PT3703</name></trkpt>
<trkpt lat="52.083305" lon="05.697860"><ele>48.8</ele><time>2021-03-01T11:35:01Z</time><name>PT3704</name></trkpt>
<trkpt lat="52.083315" lon="05.697835"><ele>48.8</ele><time>2021-03-01T11:35:02Z</time><name>PT3705</name></trkpt>
<trkpt lat="52.083325" lon="05.697818"><ele>48.8</ele><time>2021-03-01T11:35:03Z</time><name>PT3706</name></trkpt>
<trkpt lat="52.083337" lon="05.697795"><ele>48.9</ele><time>2021-03-01T11:35:04Z</time><name>PT3707</name></trkpt>
<trkpt lat="52.083345" lon="05.697774"><ele>48.9</ele><time>2021-03-01T11:35:05Z</time><name>PT3708</name></trkpt>
<trkpt lat="52.083352" lon="05.697757"><ele>49.1</ele><time>2021-03-01T11:35:06Z</time><name>PT3709</name></trkpt>
<trkpt lat="52.083362" lon="05.697744"><ele>49.1</ele><time>2021-03-01T11:35:07Z</time><name>PT3710</name></trkpt>
<trkpt lat="52.083370" lon="05.697728"><ele>49.3</ele><time>2021-03-01T11:35:08Z</time><name>PT3711</name></trkpt>
<trkpt lat="52.083378" lon="05.697711"><ele>49.3</ele><time>2021-03-01T11:35:09Z</time><name>PT3712</name></trkpt>
<trkpt lat="52.083385" lon="05.697689"><ele>49.2</ele><time>2021-03-01T11:35:10Z</time><name>PT3713</name></trkpt>
<trkpt lat="52.083393" lon="05.697669"><ele>49</ele><time>2021-03-01T11:35:11Z</time><name>PT3714</name></trkpt>
<trkpt lat="52.083403" lon="05.697652"><ele>49.1</ele><time>2021-03-01T11:35:12Z</time><name>PT3715</name></trkpt>
<trkpt lat="52.083416" lon="05.697640"><ele>49.1</ele><time>2021-03-01T11:35:13Z</time><name>PT3716</name></trkpt>
<trkpt lat="52.083426" lon="05.697622"><ele>49</ele><time>2021-03-01T11:35:14Z</time><name>PT3717</name></trkpt>
<trkpt lat="52.083434" lon="05.697611"><ele>49.1</ele><time>2021-03-01T11:35:15Z</time><name>PT3718</name></trkpt>
<trkpt lat="52.083441" lon="05.697604"><ele>49.1</ele><time>2021-03-01T11:35:16Z</time><name>PT3719</name></trkpt>
<trkpt lat="52.083451" lon="05.697592"><ele>49.3</ele><time>2021-03-01T11:35:17Z</time><name>PT3720</name></trkpt>
<trkpt lat="52.083460" lon="05.697583"><ele>49</ele><time>2021-03-01T11:35:18Z</time><name>PT3721</name></trkpt>
<trkpt lat="52.083471" lon="05.697567"><ele>49.1</ele><time>2021-03-01T11:35:19Z</time><name>PT3722</name></trkpt>
<trkpt lat="52.083481" lon="05.697553"><ele>49.1</ele><time>2021-03-01T11:35:20Z</time><name>PT3723</name></trkpt>
<trkpt lat="52.083488" lon="05.697538"><ele>48.9</ele><time>2021-03-01T11:35:21Z</time><name>PT3724</name></trkpt>
<trkpt lat="52.083497" lon="05.697520"><ele>48.8</ele><time>2021-03-01T11:35:22Z</time><name>PT3725</name></trkpt>
<trkpt lat="52.083504" lon="05.697506"><ele>48.8</ele><time>2021-03-01T11:35:23Z</time><name>PT3726</name></trkpt>
<trkpt lat="52.083511" lon="05.697488"><ele>48.8</ele><time>2021-03-01T11:35:24Z</time><name>PT3727</name></trkpt>
<trkpt lat="52.083521" lon="05.697470"><ele>48.9</ele><time>2021-03-01T11:35:25Z</time><name>PT3728</name></trkpt>
<trkpt lat="52.083531" lon="05.697449"><ele>48.9</ele><time>2021-03-01T11:35:26Z</time><name>PT3729</name></trkpt>
<trkpt lat="52.083541" lon="05.697430"><ele>49.1</ele><time>2021-03-01T11:35:27Z</time><name>PT3730</name></trkpt>
<trkpt lat="52.083554" lon="05.697407"><ele>49.1</ele><time>2021-03-01T11:35:28Z</time><name>PT3731</name></trkpt>
<trkpt lat="52.083560" lon="05.697391"><ele>49.2</ele><time>2021-03-01T11:35:29Z</time><name>PT3732</name></trkpt>
<trkpt lat="52.083569" lon="05.697378"><ele>49.1</ele><time>2021-03-01T11:35:30Z</time><name>PT3733</name></trkpt>
<trkpt lat="52.083577" lon="05.697364"><ele>49.2</ele><time>2021-03-01T11:35:31Z</time><name>PT3734</name></trkpt>
<trkpt lat="52.083586" lon="05.697350"><ele>49.1</ele><time>2021-03-01T11:35:32Z</time><name>PT3735</name></trkpt>
<trkpt lat="52.083597" lon="05.697340"><ele>49.2</ele><time>2021-03-01T11:35:33Z</time><name>PT3736</name></trkpt>
<trkpt lat="52.083609" lon="05.697329"><ele>49.1</ele><time>2021-03-01T11:35:34Z</time><name>PT3737</name></trkpt>
<trkpt lat="52.083619" lon="05.697321"><ele>49</ele><time>2021-03-01T11:35:35Z</time><name>PT3738</name></trkpt>
<trkpt lat="52.083630" lon="05.697314"><ele>48.9</ele><time>2021-03-01T11:35:36Z</time><name>PT3739</name></trkpt>
<trkpt lat="52.083638" lon="05.697301"><ele>49</ele><time>2021-03-01T11:35:37Z</time><name>PT3740</name></trkpt>
<trkpt lat="52.083643" lon="05.697297"><ele>48.8</ele><time>2021-03-01T11:35:38Z</time><name>PT3741</name></trkpt>
<trkpt lat="52.083649" lon="05.697291"><ele>48.9</ele><time>2021-03-01T11:35:39Z</time><name>PT3742</name></trkpt>
<trkpt lat="52.083660" lon="05.697287"><ele>48.9</ele><time>2021-03-01T11:35:40Z</time><name>PT3743</name></trkpt>
<trkpt lat="52.083664" lon="05.697293"><ele>48.8</ele><time>2021-03-01T11:35:41Z</time><name>PT3744</name></trkpt>
<trkpt lat="52.083673" lon="05.697298"><ele>48.8</ele><time>2021-03-01T11:35:42Z</time><name>PT3745</name></trkpt>
<trkpt lat="52.083682" lon="05.697307"><ele>48.8</ele><time>2021-03-01T11:35:43Z</time><name>PT3746</name></trkpt>
<trkpt lat="52.083693" lon="05.697315"><ele>48.8</ele><time>2021-03-01T11:35:44Z</time><name>PT3747</name></trkpt>
<trkpt lat="52.083700" lon="05.697323"><ele>48.8</ele><time>2021-03-01T11:35:45Z</time><name>PT3748</name></trkpt>
<trkpt lat="52.083707" lon="05.697325"><ele>48.8</ele><time>2021-03-01T11:35:46Z</time><name>PT3749</name></trkpt>
<trkpt lat="52.083716" lon="05.697328"><ele>49.1</ele><time>2021-03-01T11:35:47Z</time><name>PT3750</name></trkpt>
<trkpt lat="52.083728" lon="05.697324"><ele>49.3</ele><time>2021-03-01T11:35:48Z</time><name>PT3751</name></trkpt>
<trkpt lat="52.083735" lon="05.697328"><ele>49.3</ele><time>2021-03-01T11:35:49Z</time><name>PT3752</name></trkpt>
<trkpt lat="52.083745" lon="05.697332"><ele>49.3</ele><time>2021-03-01T11:35:50Z</time><name>PT3753</name></trkpt>
<trkpt lat="52.083751" lon="05.697340"><ele>49.2</ele><time>2021-03-01T11:35:51Z</time><name>PT3754</name></trkpt>
<trkpt lat="52.083753" lon="05.697344"><ele>49.1</ele><time>2021-03-01T11:35:52Z</time><name>PT3755</name></trkpt>
<trkpt lat="52.083760" lon="05.697350"><ele>48.9</ele><time>2021-03-01T11:35:53Z</time><name>PT3756</name></trkpt>
<trkpt lat="52.083769" lon="05.697357"><ele>49</ele><time>2021-03-01T11:35:54Z</time><name>PT3757</name></trkpt>
<trkpt lat="52.083778" lon="05.697361"><ele>49.2</ele><time>2021-03-01T11:35:55Z</time><name>PT3758</name></trkpt>
<trkpt lat="52.083786" lon="05.697363"><ele>49.2</ele><time>2021-03-01T11:35:56Z</time><name>PT3759</name></trkpt>
<trkpt lat="52.083798" lon="05.697367"><ele>49.4</ele><time>2021-03-01T11:35:57Z</time><name>PT3760</name></trkpt>
<trkpt lat="52.083808" lon="05.697368"><ele>49.5</ele><time>2021-03-01T11:35:58Z</time><name>PT3761</name></trkpt>
<trkpt lat="52.083822" lon="05.697370"><ele>49.5</ele><time>2021-03-01T11:35:59Z</time><name>PT3762</name></trkpt>
<trkpt lat="52.083825" lon="05.697383"><ele>49.3</ele><time>2021-03-01T11:36:00Z</time><name>PT3763</name></trkpt>
<trkpt lat="52.083831" lon="05.697396"><ele>49.3</ele><time>2021-03-01T11:36:01Z</time><name>PT3764</name></trkpt>
<trkpt lat="52.083839" lon="05.697407"><ele>49.2</ele><time>2021-03-01T11:36:02Z</time><name>PT3765</name></trkpt>
<trkpt lat="52.083848" lon="05.697410"><ele>49</ele><time>2021-03-01T11:36:03Z</time><name>PT3766</name></trkpt>
<trkpt lat="52.083856" lon="05.697415"><ele>49</ele><time>2021-03-01T11:36:04Z</time><name>PT3767</name></trkpt>
<trkpt lat="52.083861" lon="05.697415"><ele>48.9</ele><time>2021-03-01T11:36:05Z</time><name>PT3768</name></trkpt>
<trkpt lat="52.083876" lon="05.697415"><ele>48.9</ele><time>2021-03-01T11:36:06Z</time><name>PT3769</name></trkpt>
<trkpt lat="52.083883" lon="05.697419"><ele>48.9</ele><time>2021-03-01T11:36:07Z</time><name>PT3770</name></trkpt>
<trkpt lat="52.083903" lon="05.697460"><ele>49.8</ele><time>2021-03-01T11:36:20Z</time><name>PT3771</name></trkpt>
<trkpt lat="52.083926" lon="05.697499"><ele>49.8</ele><time>2021-03-01T11:36:21Z</time><name>PT3772</name></trkpt>
<trkpt lat="52.083948" lon="05.697533"><ele>49.9</ele><time>2021-03-01T11:36:22Z</time><name>PT3773</name></trkpt>
<trkpt lat="52.083965" lon="05.697554"><ele>49.8</ele><time>2021-03-01T11:36:23Z</time><name>PT3774</name></trkpt>
<trkpt lat="52.083981" lon="05.697579"><ele>49.9</ele><time>2021-03-01T11:36:24Z</time><name>PT3775</name></trkpt>
<trkpt lat="52.083997" lon="05.697603"><ele>49.8</ele><time>2021-03-01T11:36:25Z</time><name>PT3776</name></trkpt>
<trkpt lat="52.084025" lon="05.697625"><ele>49.8</ele><time>2021-03-01T11:36:26Z</time><name>PT3777</name></trkpt>
<trkpt lat="52.084037" lon="05.697636"><ele>49.7</ele><time>2021-03-01T11:36:27Z</time><name>PT3778</name></trkpt>
<trkpt lat="52.084047" lon="05.697653"><ele>49.7</ele><time>2021-03-01T11:36:28Z</time><name>PT3779</name></trkpt>
<trkpt lat="52.084063" lon="05.697662"><ele>49.7</ele><time>2021-03-01T11:36:29Z</time><name>PT3780</name></trkpt>
<trkpt lat="52.084073" lon="05.697675"><ele>49.7</ele><time>2021-03-01T11:36:30Z</time><name>PT3781</name></trkpt>
<trkpt lat="52.084088" lon="05.697689"><ele>49.8</ele><time>2021-03-01T11:36:31Z</time><name>PT3782</name></trkpt>
<trkpt lat="52.084099" lon="05.697705"><ele>49.7</ele><time>2021-03-01T11:36:32Z</time><name>PT3783</name></trkpt>
<trkpt lat="52.084103" lon="05.697720"><ele>49.7</ele><time>2021-03-01T11:36:33Z</time><name>PT3784</name></trkpt>
<trkpt lat="52.084111" lon="05.697736"><ele>49.7</ele><time>2021-03-01T11:36:34Z</time><name>PT3785</name></trkpt>
<trkpt lat="52.084125" lon="05.697742"><ele>49.6</ele><time>2021-03-01T11:36:35Z</time><name>PT3786</name></trkpt>
<trkpt lat="52.084148" lon="05.697755"><ele>49.4</ele><time>2021-03-01T11:36:36Z</time><name>PT3787</name></trkpt>
<trkpt lat="52.084160" lon="05.697764"><ele>49.6</ele><time>2021-03-01T11:36:37Z</time><name>PT3788</name></trkpt>
<trkpt lat="52.084180" lon="05.697770"><ele>49.7</ele><time>2021-03-01T11:36:38Z</time><name>PT3789</name></trkpt>
<trkpt lat="52.084192" lon="05.697781"><ele>49.8</ele><time>2021-03-01T11:36:39Z</time><name>PT3790</name></trkpt>
<trkpt lat="52.084203" lon="05.697793"><ele>49.8</ele><time>2021-03-01T11:36:40Z</time><name>PT3791</name></trkpt>
<trkpt lat="52.084212" lon="05.697804"><ele>49.9</ele><time>2021-03-01T11:36:41Z</time><name>PT3792</name></trkpt>
<trkpt lat="52.084221" lon="05.697816"><ele>50</ele><time>2021-03-01T11:36:42Z</time><name>PT3793</name></trkpt>
<trkpt lat="52.084233" lon="05.697822"><ele>49.8</ele><time>2021-03-01T11:36:43Z</time><name>PT3794</name></trkpt>
<trkpt lat="52.084239" lon="05.697831"><ele>49.7</ele><time>2021-03-01T11:36:44Z</time><name>PT3795</name></trkpt>
<trkpt lat="52.084246" lon="05.697840"><ele>50</ele><time>2021-03-01T11:36:45Z</time><name>PT3796</name></trkpt>
<trkpt lat="52.084254" lon="05.697853"><ele>50</ele><time>2021-03-01T11:36:46Z</time><name>PT3797</name></trkpt>
<trkpt lat="52.084268" lon="05.697866"><ele>50</ele><time>2021-03-01T11:36:47Z</time><name>PT3798</name></trkpt>
<trkpt lat="52.084280" lon="05.697876"><ele>50.1</ele><time>2021-03-01T11:36:48Z</time><name>PT3799</name></trkpt>
<trkpt lat="52.084301" lon="05.697886"><ele>50</ele><time>2021-03-01T11:36:49Z</time><name>PT3800</name></trkpt>
<trkpt lat="52.084310" lon="05.697901"><ele>49.9</ele><time>2021-03-01T11:36:50Z</time><name>PT3801</name></trkpt>
<trkpt lat="52.084336" lon="05.697910"><ele>49.7</ele><time>2021-03-01T11:36:51Z</time><name>PT3802</name></trkpt>
<trkpt lat="52.084356" lon="05.697918"><ele>49.7</ele><time>2021-03-01T11:36:52Z</time><name>PT3803</name></trkpt>
<trkpt lat="52.084368" lon="05.697930"><ele>49.5</ele><time>2021-03-01T11:36:53Z</time><name>PT3804</name></trkpt>
<trkpt lat="52.084376" lon="05.697945"><ele>49.5</ele><time>2021-03-01T11:36:54Z</time><name>PT3805</name></trkpt>
<trkpt lat="52.084392" lon="05.697954"><ele>49.5</ele><time>2021-03-01T11:36:55Z</time><name>PT3806</name></trkpt>
<trkpt lat="52.084408" lon="05.697964"><ele>49.6</ele><time>2021-03-01T11:36:56Z</time><name>PT3807</name></trkpt>
<trkpt lat="52.084428" lon="05.697973"><ele>49.6</ele><time>2021-03-01T11:36:57Z</time><name>PT3808</name></trkpt>
<trkpt lat="52.084443" lon="05.697981"><ele>49.6</ele><time>2021-03-01T11:36:58Z</time><name>PT3809</name></trkpt>
<trkpt lat="52.084457" lon="05.697992"><ele>49.5</ele><time>2021-03-01T11:36:59Z</time><name>PT3810</name></trkpt>
<trkpt lat="52.084482" lon="05.697997"><ele>49.4</ele><time>2021-03-01T11:37:00Z</time><name>PT3811</name></trkpt>
<trkpt lat="52.084486" lon="05.698013"><ele>49.6</ele><time>2021-03-01T11:37:01Z</time><name>PT3812</name></trkpt>
<trkpt lat="52.084493" lon="05.698027"><ele>49.7</ele><time>2021-03-01T11:37:02Z</time><name>PT3813</name></trkpt>
<trkpt lat="52.084506" lon="05.698033"><ele>49.7</ele><time>2021-03-01T11:37:03Z</time><name>PT3814</name></trkpt>
<trkpt lat="52.084520" lon="05.698045"><ele>49.8</ele><time>2021-03-01T11:37:04Z</time><name>PT3815</name></trkpt>
<trkpt lat="52.084531" lon="05.698051"><ele>49.7</ele><time>2021-03-01T11:37:05Z</time><name>PT3816</name></trkpt>
<trkpt lat="52.084539" lon="05.698062"><ele>49.7</ele><time>2021-03-01T11:37:06Z</time><name>PT3817</name></trkpt>
<trkpt lat="52.084560" lon="05.698064"><ele>49.4</ele><time>2021-03-01T11:37:07Z</time><name>PT3818</name></trkpt>
<trkpt lat="52.084587" lon="05.698066"><ele>49.4</ele><time>2021-03-01T11:37:08Z</time><name>PT3819</name></trkpt>
<trkpt lat="52.084594" lon="05.698077"><ele>49.2</ele><time>2021-03-01T11:37:09Z</time><name>PT3820</name></trkpt>
<trkpt lat="52.084605" lon="05.698090"><ele>49.3</ele><time>2021-03-01T11:37:10Z</time><name>PT3821</name></trkpt>
<trkpt lat="52.084613" lon="05.698103"><ele>49.6</ele><time>2021-03-01T11:37:11Z</time><name>PT3822</name></trkpt>
<trkpt lat="52.084623" lon="05.698118"><ele>49.7</ele><time>2021-03-01T11:37:12Z</time><name>PT3823</name></trkpt>
<trkpt lat="52.084639" lon="05.698127"><ele>49.7</ele><time>2021-03-01T11:37:13Z</time><name>PT3824</name></trkpt>
<trkpt lat="52.084655" lon="05.698137"><ele>49.8</ele><time>2021-03-01T11:37:14Z</time><name>PT3825</name></trkpt>
<trkpt lat="52.084660" lon="05.698150"><ele>49.8</ele><time>2021-03-01T11:37:15Z</time><name>PT3826</name></trkpt>
<trkpt lat="52.084678" lon="05.698159"><ele>49.9</ele><time>2021-03-01T11:37:16Z</time><name>PT3827</name></trkpt>
<trkpt lat="52.084689" lon="05.698168"><ele>50.1</ele><time>2021-03-01T11:37:17Z</time><name>PT3828</name></trkpt>
<trkpt lat="52.084708" lon="05.698170"><ele>50.1</ele><time>2021-03-01T11:37:18Z</time><name>PT3829</name></trkpt>
<trkpt lat="52.084716" lon="05.698180"><ele>50.1</ele><time>2021-03-01T11:37:19Z</time><name>PT3830</name></trkpt>
<trkpt lat="52.084730" lon="05.698181"><ele>50.1</ele><time>2021-03-01T11:37:20Z</time><name>PT3831</name></trkpt>
<trkpt lat="52.084738" lon="05.698189"><ele>50.1</ele><time>2021-03-01T11:37:21Z</time><name>PT3832</name></trkpt>
<trkpt lat="52.084749" lon="05.698196"><ele>50</ele><time>2021-03-01T11:37:22Z</time><name>PT3833</name></trkpt>
<trkpt lat="52.084764" lon="05.698206"><ele>50</ele><time>2021-03-01T11:37:23Z</time><name>PT3834</name></trkpt>
<trkpt lat="52.084769" lon="05.698215"><ele>50.2</ele><time>2021-03-01T11:37:24Z</time><name>PT3835</name></trkpt>
<trkpt lat="52.084771" lon="05.698224"><ele>50.2</ele><time>2021-03-01T11:37:25Z</time><name>PT3836</name></trkpt>
<trkpt lat="52.084782" lon="05.698237"><ele>49.9</ele><time>2021-03-01T11:37:26Z</time><name>PT3837</name></trkpt>
<trkpt lat="52.084794" lon="05.698249"><ele>50.1</ele><time>2021-03-01T11:37:27Z</time><name>PT3838</name></trkpt>
<trkpt lat="52.084805" lon="05.698262"><ele>50.2</ele><time>2021-03-01T11:37:28Z</time><name>PT3839</name></trkpt>
<trkpt lat="52.084816" lon="05.698275"><ele>50.2</ele><time>2021-03-01T11:37:29Z</time><name>PT3840</name></trkpt>
<trkpt lat="52.084832" lon="05.698283"><ele>50.2</ele><time>2021-03-01T11:37:30Z</time><name>PT3841</name></trkpt>
<trkpt lat="52.084843" lon="05.698291"><ele>50.3</ele><time>2021-03-01T11:37:31Z</time><name>PT3842</name></trkpt>
<trkpt lat="52.084853" lon="05.698304"><ele>50.2</ele><time>2021-03-01T11:37:32Z</time><name>PT3843</name></trkpt>
<trkpt lat="52.084865" lon="05.698309"><ele>50.2</ele><time>2021-03-01T11:37:33Z</time><name>PT3844</name></trkpt>
<trkpt lat="52.084871" lon="05.698325"><ele>50.1</ele><time>2021-03-01T11:37:34Z</time><name>PT3845</name></trkpt>
<trkpt lat="52.084880" lon="05.698331"><ele>50</ele><time>2021-03-01T11:37:35Z</time><name>PT3846</name></trkpt>
<trkpt lat="52.084895" lon="05.698332"><ele>50</ele><time>2021-03-01T11:37:36Z</time><name>PT3847</name></trkpt>
<trkpt lat="52.084901" lon="05.698344"><ele>50.1</ele><time>2021-03-01T11:37:37Z</time><name>PT3848</name></trkpt>
<trkpt lat="52.084911" lon="05.698354"><ele>50.2</ele><time>2021-03-01T11:37:38Z</time><name>PT3849</name></trkpt>
<trkpt lat="52.084919" lon="05.698368"><ele>50.4</ele><time>2021-03-01T11:37:39Z</time><name>PT3850</name></trkpt>
<trkpt lat="52.084928" lon="05.698379"><ele>50.6</ele><time>2021-03-01T11:37:40Z</time><name>PT3851</name></trkpt>
<trkpt lat="52.084940" lon="05.698388"><ele>50.4</ele><time>2021-03-01T11:37:41Z</time><name>PT3852</name></trkpt>
<trkpt lat="52.084950" lon="05.698400"><ele>50.5</ele><time>2021-03-01T11:37:42Z</time><name>PT3853</name></trkpt>
<trkpt lat="52.084961" lon="05.698405"><ele>50.6</ele><time>2021-03-01T11:37:43Z</time><name>PT3854</name></trkpt>
<trkpt lat="52.084970" lon="05.698417"><ele>50.6</ele><time>2021-03-01T11:37:44Z</time><name>PT3855</name></trkpt>
<trkpt lat="52.084978" lon="05.698423"><ele>50.6</ele><time>2021-03-01T11:37:45Z</time><name>PT3856</name></trkpt>
<trkpt lat="52.084986" lon="05.698433"><ele>50.9</ele><time>2021-03-01T11:37:46Z</time><name>PT3857</name></trkpt>
<trkpt lat="52.084988" lon="05.698442"><ele>50.9</ele><time>2021-03-01T11:37:47Z</time><name>PT3858</name></trkpt>
<trkpt lat="52.085005" lon="05.698473"><ele>51</ele><time>2021-03-01T11:37:54Z</time><name>PT3859</name></trkpt>
<trkpt lat="52.085028" lon="05.698520"><ele>51.1</ele><time>2021-03-01T11:37:55Z</time><name>PT3860</name></trkpt>
<trkpt lat="52.085066" lon="05.698566"><ele>51.1</ele><time>2021-03-01T11:37:56Z</time><name>PT3861</name></trkpt>
<trkpt lat="52.085081" lon="05.698598"><ele>51.1</ele><time>2021-03-01T11:37:57Z</time><name>PT3862</name></trkpt>
<trkpt lat="52.085089" lon="05.698632"><ele>50.7</ele><time>2021-03-01T11:38:06Z</time><name>PT3863</name></trkpt>
<trkpt lat="52.085107" lon="05.698668"><ele>50.8</ele><time>2021-03-01T11:38:07Z</time><name>PT3864</name></trkpt>
<trkpt lat="52.085128" lon="05.698676"><ele>50.9</ele><time>2021-03-01T11:38:08Z</time><name>PT3865</name></trkpt>
<trkpt lat="52.085151" lon="05.698699"><ele>50.9</ele><time>2021-03-01T11:38:09Z</time><name>PT3866</name></trkpt>
<trkpt lat="52.085181" lon="05.698726"><ele>51</ele><time>2021-03-01T11:38:10Z</time><name>PT3867</name></trkpt>
<trkpt lat="52.085201" lon="05.698738"><ele>51</ele><time>2021-03-01T11:38:11Z</time><name>PT3868</name></trkpt>
<trkpt lat="52.085224" lon="05.698757"><ele>51</ele><time>2021-03-01T11:38:12Z</time><name>PT3869</name></trkpt>
<trkpt lat="52.085242" lon="05.698767"><ele>51</ele><time>2021-03-01T11:38:13Z</time><name>PT3870</name></trkpt>
<trkpt lat="52.085254" lon="05.698777"><ele>51.1</ele><time>2021-03-01T11:38:14Z</time><name>PT3871</name></trkpt>
<trkpt lat="52.085273" lon="05.698790"><ele>50.9</ele><time>2021-03-01T11:38:15Z</time><name>PT3872</name></trkpt>
<trkpt lat="52.085287" lon="05.698795"><ele>50.9</ele><time>2021-03-01T11:38:16Z</time><name>PT3873</name></trkpt>
<trkpt lat="52.085306" lon="05.698803"><ele>50.9</ele><time>2021-03-01T11:38:17Z</time><name>PT3874</name></trkpt>
<trkpt lat="52.085328" lon="05.698808"><ele>50.7</ele><time>2021-03-01T11:38:18Z</time><name>PT3875</name></trkpt>
<trkpt lat="52.085341" lon="05.698816"><ele>50.8</ele><time>2021-03-01T11:38:19Z</time><name>PT3876</name></trkpt>
<trkpt lat="52.085353" lon="05.698830"><ele>50.9</ele><time>2021-03-01T11:38:20Z</time><name>PT3877</name></trkpt>
<trkpt lat="52.085380" lon="05.698841"><ele>50.8</ele><time>2021-03-01T11:38:21Z</time><name>PT3878</name></trkpt>
<trkpt lat="52.085397" lon="05.698858"><ele>50.7</ele><time>2021-03-01T11:38:22Z</time><name>PT3879</name></trkpt>
<trkpt lat="52.085408" lon="05.698868"><ele>50.8</ele><time>2021-03-01T11:38:23Z</time><name>PT3880</name></trkpt>
<trkpt lat="52.085426" lon="05.698884"><ele>50.7</ele><time>2021-03-01T11:38:24Z</time><name>PT3881</name></trkpt>
<trkpt lat="52.085442" lon="05.698894"><ele>50.6</ele><time>2021-03-01T11:38:25Z</time><name>PT3882</name></trkpt>
<trkpt lat="52.085460" lon="05.698908"><ele>50.6</ele><time>2021-03-01T11:38:26Z</time><name>PT3883</name></trkpt>
<trkpt lat="52.085473" lon="05.698916"><ele>50.7</ele><time>2021-03-01T11:38:27Z</time><name>PT3884</name></trkpt>
<trkpt lat="52.085478" lon="05.698930"><ele>50.8</ele><time>2021-03-01T11:38:28Z</time><name>PT3885</name></trkpt>
<trkpt lat="52.085492" lon="05.698942"><ele>50.6</ele><time>2021-03-01T11:38:29Z</time><name>PT3886</name></trkpt>
<trkpt lat="52.085514" lon="05.698946"><ele>50.6</ele><time>2021-03-01T11:38:30Z</time><name>PT3887</name></trkpt>
<trkpt lat="52.085523" lon="05.698955"><ele>50.6</ele><time>2021-03-01T11:38:31Z</time><name>PT3888</name></trkpt>
<trkpt lat="52.085536" lon="05.698963"><ele>50.6</ele><time>2021-03-01T11:38:32Z</time><name>PT3889</name></trkpt>
<trkpt lat="52.085556" lon="05.698972"><ele>50.6</ele><time>2021-03-01T11:38:33Z</time><name>PT3890</name></trkpt>
<trkpt lat="52.085579" lon="05.698980"><ele>50.4</ele><time>2021-03-01T11:38:34Z</time><name>PT3891</name></trkpt>
<trkpt lat="52.085595" lon="05.698988"><ele>50.3</ele><time>2021-03-01T11:38:35Z</time><name>PT3892</name></trkpt>
<trkpt lat="52.085612" lon="05.698999"><ele>50.2</ele><time>2021-03-01T11:38:36Z</time><name>PT3893</name></trkpt>
<trkpt lat="52.085627" lon="05.699006"><ele>50.1</ele><time>2021-03-01T11:38:37Z</time><name>PT3894</name></trkpt>
<trkpt lat="52.085642" lon="05.699017"><ele>50</ele><time>2021-03-01T11:38:38Z</time><name>PT3895</name></trkpt>
<trkpt lat="52.085663" lon="05.699019"><ele>50</ele><time>2021-03-01T11:38:39Z</time><name>PT3896</name></trkpt>
<trkpt lat="52.085675" lon="05.699029"><ele>50.1</ele><time>2021-03-01T11:38:40Z</time><name>PT3897</name></trkpt>
<trkpt lat="52.085682" lon="05.699039"><ele>50</ele><time>2021-03-01T11:38:41Z</time><name>PT3898</name></trkpt>
<trkpt lat="52.085699" lon="05.699052"><ele>49.9</ele><time>2021-03-01T11:38:42Z</time><name>PT3899</name></trkpt>
<trkpt lat="52.085710" lon="05.699057"><ele>50</ele><time>2021-03-01T11:38:43Z</time><name>PT3900</name></trkpt>
<trkpt lat="52.085720" lon="05.699069"><ele>49.9</ele><time>2021-03-01T11:38:44Z</time><name>PT3901</name></trkpt>
<trkpt lat="52.085731" lon="05.699077"><ele>49.8</ele><time>2021-03-01T11:38:45Z</time><name>PT3902</name></trkpt>
<trkpt lat="52.085739" lon="05.699084"><ele>49.9</ele><time>2021-03-01T11:38:46Z</time><name>PT3903</name></trkpt>
<trkpt lat="52.085752" lon="05.699096"><ele>49.9</ele><time>2021-03-01T11:38:47Z</time><name>PT3904</name></trkpt>
<trkpt lat="52.085765" lon="05.699101"><ele>49.8</ele><time>2021-03-01T11:38:48Z</time><name>PT3905</name></trkpt>
<trkpt lat="52.085775" lon="05.699114"><ele>49.8</ele><time>2021-03-01T11:38:49Z</time><name>PT3906</name></trkpt>
<trkpt lat="52.085787" lon="05.699134"><ele>49.7</ele><time>2021-03-01T11:38:50Z</time><name>PT3907</name></trkpt>
<trkpt lat="52.085793" lon="05.699143"><ele>49.7</ele><time>2021-03-01T11:38:51Z</time><name>PT3908</name></trkpt>
<trkpt lat="52.085805" lon="05.699156"><ele>49.7</ele><time>2021-03-01T11:38:52Z</time><name>PT3909</name></trkpt>
<trkpt lat="52.085829" lon="05.699164"><ele>49.7</ele><time>2021-03-01T11:38:53Z</time><name>PT3910</name></trkpt>
<trkpt lat="52.085840" lon="05.699173"><ele>49.7</ele><time>2021-03-01T11:38:54Z</time><name>PT3911</name></trkpt>
<trkpt lat="52.085851" lon="05.699180"><ele>49.8</ele><time>2021-03-01T11:38:55Z</time><name>PT3912</name></trkpt>
<trkpt lat="52.085863" lon="05.699189"><ele>49.8</ele><time>2021-03-01T11:38:56Z</time><name>PT3913</name></trkpt>
<trkpt lat="52.085877" lon="05.699195"><ele>49.7</ele><time>2021-03-01T11:38:57Z</time><name>PT3914</name></trkpt>
<trkpt lat="52.085889" lon="05.699203"><ele>49.7</ele><time>2021-03-01T11:38:58Z</time><name>PT3915</name></trkpt>
<trkpt lat="52.085898" lon="05.699217"><ele>49.8</ele><time>2021-03-01T11:38:59Z</time><name>PT3916</name></trkpt>
<trkpt lat="52.085908" lon="05.699228"><ele>49.7</ele><time>2021-03-01T11:39:00Z</time><name>PT3917</name></trkpt>
<trkpt lat="52.085918" lon="05.699241"><ele>49.7</ele><time>2021-03-01T11:39:01Z</time><name>PT3918</name></trkpt>
<trkpt lat="52.085925" lon="05.699253"><ele>49.7</ele><time>2021-03-01T11:39:02Z</time><name>PT3919</name></trkpt>
<trkpt lat="52.085943" lon="05.699262"><ele>49.7</ele><time>2021-03-01T11:39:03Z</time><name>PT3920</name></trkpt>
<trkpt lat="52.085962" lon="05.699271"><ele>49.7</ele><time>2021-03-01T11:39:04Z</time><name>PT3921</name></trkpt>
<trkpt lat="52.085972" lon="05.699276"><ele>49.8</ele><time>2021-03-01T11:39:05Z</time><name>PT3922</name></trkpt>
<trkpt lat="52.085993" lon="05.699284"><ele>49.7</ele><time>2021-03-01T11:39:06Z</time><name>PT3923</name></trkpt>
<trkpt lat="52.086017" lon="05.699279"><ele>49.8</ele><time>2021-03-01T11:39:07Z</time><name>PT3924</name></trkpt>
<trkpt lat="52.086033" lon="05.699285"><ele>49.9</ele><time>2021-03-01T11:39:08Z</time><name>PT3925</name></trkpt>
<trkpt lat="52.086046" lon="05.699286"><ele>49.8</ele><time>2021-03-01T11:39:09Z</time><name>PT3926</name></trkpt>
<trkpt lat="52.086053" lon="05.699289"><ele>49.8</ele><time>2021-03-01T11:39:10Z</time><name>PT3927</name></trkpt>
<trkpt lat="52.086059" lon="05.699299"><ele>49.7</ele><time>2021-03-01T11:39:11Z</time><name>PT3928</name></trkpt>
<trkpt lat="52.086064" lon="05.699313"><ele>49.8</ele><time>2021-03-01T11:39:12Z</time><name>PT3929</name></trkpt>
<trkpt lat="52.086071" lon="05.699327"><ele>49.7</ele><time>2021-03-01T11:39:13Z</time><name>PT3930</name></trkpt>
<trkpt lat="52.086081" lon="05.699338"><ele>49.6</ele><time>2021-03-01T11:39:14Z</time><name>PT3931</name></trkpt>
<trkpt lat="52.086094" lon="05.699343"><ele>49.7</ele><time>2021-03-01T11:39:15Z</time><name>PT3932</name></trkpt>
<trkpt lat="52.086108" lon="05.699351"><ele>49.6</ele><time>2021-03-01T11:39:16Z</time><name>PT3933</name></trkpt>
<trkpt lat="52.086119" lon="05.699364"><ele>49.5</ele><time>2021-03-01T11:39:17Z</time><name>PT3934</name></trkpt>
<trkpt lat="52.086134" lon="05.699371"><ele>49.6</ele><time>2021-03-01T11:39:18Z</time><name>PT3935</name></trkpt>
<trkpt lat="52.086147" lon="05.699384"><ele>49.4</ele><time>2021-03-01T11:39:19Z</time><name>PT3936</name></trkpt>
<trkpt lat="52.086160" lon="05.699395"><ele>49.3</ele><time>2021-03-01T11:39:20Z</time><name>PT3937</name></trkpt>
<trkpt lat="52.086173" lon="05.699400"><ele>49.3</ele><time>2021-03-01T11:39:21Z</time><name>PT3938</name></trkpt>
<trkpt lat="52.086189" lon="05.699408"><ele>49.1</ele><time>2021-03-01T11:39:22Z</time><name>PT3939</name></trkpt>
<trkpt lat="52.086202" lon="05.699423"><ele>49</ele><time>2021-03-01T11:39:23Z</time><name>PT3940</name></trkpt>
<trkpt lat="52.086220" lon="05.699431"><ele>48.8</ele><time>2021-03-01T11:39:24Z</time><name>PT3941</name></trkpt>
<trkpt lat="52.086236" lon="05.699438"><ele>48.7</ele><time>2021-03-01T11:39:25Z</time><name>PT3942</name></trkpt>
<trkpt lat="52.086252" lon="05.699447"><ele>48.8</ele><time>2021-03-01T11:39:26Z</time><name>PT3943</name></trkpt>
<trkpt lat="52.086260" lon="05.699464"><ele>48.8</ele><time>2021-03-01T11:39:27Z</time><name>PT3944</name></trkpt>
<trkpt lat="52.086283" lon="05.699477"><ele>48.8</ele><time>2021-03-01T11:39:28Z</time><name>PT3945</name></trkpt>
<trkpt lat="52.086298" lon="05.699493"><ele>48.8</ele><time>2021-03-01T11:39:29Z</time><name>PT3946</name></trkpt>
<trkpt lat="52.086314" lon="05.699508"><ele>48.5</ele><time>2021-03-01T11:39:30Z</time><name>PT3947</name></trkpt>
<trkpt lat="52.086328" lon="05.699518"><ele>48.2</ele><time>2021-03-01T11:39:31Z</time><name>PT3948</name></trkpt>
<trkpt lat="52.086340" lon="05.699532"><ele>48.3</ele><time>2021-03-01T11:39:32Z</time><name>PT3949</name></trkpt>
<trkpt lat="52.086353" lon="05.699547"><ele>48.1</ele><time>2021-03-01T11:39:33Z</time><name>PT3950</name></trkpt>
<trkpt lat="52.086370" lon="05.699557"><ele>48</ele><time>2021-03-01T11:39:34Z</time><name>PT3951</name></trkpt>
<trkpt lat="52.086387" lon="05.699562"><ele>48</ele><time>2021-03-01T11:39:35Z</time><name>PT3952</name></trkpt>
<trkpt lat="52.086398" lon="05.699571"><ele>48.2</ele><time>2021-03-01T11:39:36Z</time><name>PT3953</name></trkpt>
<trkpt lat="52.086413" lon="05.699579"><ele>48</ele><time>2021-03-01T11:39:37Z</time><name>PT3954</name></trkpt>
<trkpt lat="52.086423" lon="05.699591"><ele>48</ele><time>2021-03-01T11:39:38Z</time><name>PT3955</name></trkpt>
<trkpt lat="52.086440" lon="05.699598"><ele>48</ele><time>2021-03-01T11:39:39Z</time><name>PT3956</name></trkpt>
<trkpt lat="52.086452" lon="05.699606"><ele>47.8</ele><time>2021-03-01T11:39:40Z</time><name>PT3957</name></trkpt>
<trkpt lat="52.086465" lon="05.699616"><ele>47.9</ele><time>2021-03-01T11:39:41Z</time><name>PT3958</name></trkpt>
<trkpt lat="52.086475" lon="05.699631"><ele>47.9</ele><time>2021-03-01T11:39:42Z</time><name>PT3959</name></trkpt>
<trkpt lat="52.086487" lon="05.699642"><ele>48</ele><time>2021-03-01T11:39:43Z</time><name>PT3960</name></trkpt>
<trkpt lat="52.086497" lon="05.699658"><ele>48</ele><time>2021-03-01T11:39:44Z</time><name>PT3961</name></trkpt>
<trkpt lat="52.086505" lon="05.699668"><ele>48</ele><time>2021-03-01T11:39:45Z</time><name>PT3962</name></trkpt>
<trkpt lat="52.086523" lon="05.699678"><ele>48</ele><time>2021-03-01T11:39:46Z</time><name>PT3963</name></trkpt>
<trkpt lat="52.086535" lon="05.699684"><ele>48</ele><time>2021-03-01T11:39:47Z</time><name>PT3964</name></trkpt>
<trkpt lat="52.086549" lon="05.699687"><ele>48.1</ele><time>2021-03-01T11:39:48Z</time><name>PT3965</name></trkpt>
<trkpt lat="52.086558" lon="05.699698"><ele>48</ele><time>2021-03-01T11:39:49Z</time><name>PT3966</name></trkpt>
<trkpt lat="52.086567" lon="05.699712"><ele>48.1</ele><time>2021-03-01T11:39:50Z</time><name>PT3967</name></trkpt>
<trkpt lat="52.086574" lon="05.699724"><ele>47.9</ele><time>2021-03-01T11:39:51Z</time><name>PT3968</name></trkpt>
<trkpt lat="52.086587" lon="05.699735"><ele>47.8</ele><time>2021-03-01T11:39:52Z</time><name>PT3969</name></trkpt>
<trkpt lat="52.086606" lon="05.699745"><ele>47.7</ele><time>2021-03-01T11:39:53Z</time><name>PT3970</name></trkpt>
<trkpt lat="52.086613" lon="05.699757"><ele>47.5</ele><time>2021-03-01T11:39:54Z</time><name>PT3971</name></trkpt>
<trkpt lat="52.086627" lon="05.699768"><ele>47.6</ele><time>2021-03-01T11:39:55Z</time><name>PT3972</name></trkpt>
<trkpt lat="52.086641" lon="05.699775"><ele>47.7</ele><time>2021-03-01T11:39:56Z</time><name>PT3973</name></trkpt>
<trkpt lat="52.086657" lon="05.699785"><ele>47.7</ele><time>2021-03-01T11:39:57Z</time><name>PT3974</name></trkpt>
<trkpt lat="52.086674" lon="05.699790"><ele>47.5</ele><time>2021-03-01T11:39:58Z</time><name>PT3975</name></trkpt>
<trkpt lat="52.086685" lon="05.699805"><ele>47.3</ele><time>2021-03-01T11:39:59Z</time><name>PT3976</name></trkpt>
<trkpt lat="52.086694" lon="05.699819"><ele>47.1</ele><time>2021-03-01T11:40:00Z</time><name>PT3977</name></trkpt>
<trkpt lat="52.086703" lon="05.699832"><ele>47</ele><time>2021-03-01T11:40:01Z</time><name>PT3978</name></trkpt>
<trkpt lat="52.086723" lon="05.699842"><ele>47.1</ele><time>2021-03-01T11:40:02Z</time><name>PT3979</name></trkpt>
<trkpt lat="52.086734" lon="05.699857"><ele>47.1</ele><time>2021-03-01T11:40:03Z</time><name>PT3980</name></trkpt>
<trkpt lat="52.086748" lon="05.699871"><ele>47.2</ele><time>2021-03-01T11:40:04Z</time><name>PT3981</name></trkpt>
<trkpt lat="52.086764" lon="05.699881"><ele>47.3</ele><time>2021-03-01T11:40:05Z</time><name>PT3982</name></trkpt>
<trkpt lat="52.086774" lon="05.699898"><ele>47.4</ele><time>2021-03-01T11:40:06Z</time><name>PT3983</name></trkpt>
<trkpt lat="52.086783" lon="05.699915"><ele>47.5</ele><time>2021-03-01T11:40:07Z</time><name>PT3984</name></trkpt>
<trkpt lat="52.086797" lon="05.699930"><ele>47.3</ele><time>2021-03-01T11:40:08Z</time><name>PT3985</name></trkpt>
<trkpt lat="52.086814" lon="05.699941"><ele>47.2</ele><time>2021-03-01T11:40:09Z</time><name>PT3986</name></trkpt>
<trkpt lat="52.086826" lon="05.699951"><ele>47.1</ele><time>2021-03-01T11:40:10Z</time><name>PT3987</name></trkpt>
<trkpt lat="52.086841" lon="05.699953"><ele>46.8</ele><time>2021-03-01T11:40:11Z</time><name>PT3988</name></trkpt>
<trkpt lat="52.086856" lon="05.699963"><ele>46.8</ele><time>2021-03-01T11:40:12Z</time><name>PT3989</name></trkpt>
<trkpt lat="52.086871" lon="05.699971"><ele>46.8</ele><time>2021-03-01T11:40:13Z</time><name>PT3990</name></trkpt>
<trkpt lat="52.086887" lon="05.699982"><ele>46.9</ele><time>2021-03-01T11:40:14Z</time><name>PT3991</name></trkpt>
<trkpt lat="52.086904" lon="05.699992"><ele>47</ele><time>2021-03-01T11:40:15Z</time><name>PT3992</name></trkpt>
<trkpt lat="52.086917" lon="05.699999"><ele>46.9</ele><time>2021-03-01T11:40:16Z</time><name>PT3993</name></trkpt>
<trkpt lat="52.086930" lon="05.700014"><ele>46.9</ele><time>2021-03-01T11:40:17Z</time><name>PT3994</name></trkpt>
<trkpt lat="52.086942" lon="05.700026"><ele>46.6</ele><time>2021-03-01T11:40:18Z</time><name>PT3995</name></trkpt>
<trkpt lat="52.086959" lon="05.700033"><ele>46.7</ele><time>2021-03-01T11:40:19Z</time><name>PT3996</name></trkpt>
<trkpt lat="52.086971" lon="05.700046"><ele>46.6</ele><time>2021-03-01T11:40:20Z</time><name>PT3997</name></trkpt>
<trkpt lat="52.086977" lon="05.700056"><ele>46.6</ele><time>2021-03-01T11:40:21Z</time><name>PT3998</name></trkpt>
<trkpt lat="52.086987" lon="05.700072"><ele>46.6</ele><time>2021-03-01T11:40:22Z</time><name>PT3999</name></trkpt>
<trkpt lat="52.087003" lon="05.700081"><ele>46.6</ele><time>2021-03-01T11:40:23Z</time><name>PT4000</name></trkpt>
<trkpt lat="52.087022" lon="05.700096"><ele>46.7</ele><time>2021-03-01T11:40:24Z</time><name>PT4001</name></trkpt>
<trkpt lat="52.087037" lon="05.700107"><ele>46.6</ele><time>2021-03-01T11:40:25Z</time><name>PT4002</name></trkpt>
<trkpt lat="52.087056" lon="05.700119"><ele>46.6</ele><time>2021-03-01T11:40:26Z</time><name>PT4003</name></trkpt>
<trkpt lat="52.087076" lon="05.700133"><ele>46.6</ele><time>2021-03-01T11:40:27Z</time><name>PT4004</name></trkpt>
<trkpt lat="52.087091" lon="05.700147"><ele>46.4</ele><time>2021-03-01T11:40:28Z</time><name>PT4005</name></trkpt>
<trkpt lat="52.087107" lon="05.700155"><ele>46.4</ele><time>2021-03-01T11:40:29Z</time><name>PT4006</name></trkpt>
<trkpt lat="52.087121" lon="05.700168"><ele>46.3</ele><time>2021-03-01T11:40:30Z</time><name>PT4007</name></trkpt>
<trkpt lat="52.087135" lon="05.700176"><ele>46.3</ele><time>2021-03-01T11:40:31Z</time><name>PT4008</name></trkpt>
<trkpt lat="52.087152" lon="05.700180"><ele>46.2</ele><time>2021-03-01T11:40:32Z</time><name>PT4009</name></trkpt>
<trkpt lat="52.087168" lon="05.700183"><ele>46.2</ele><time>2021-03-01T11:40:33Z</time><name>PT4010</name></trkpt>
<trkpt lat="52.087181" lon="05.700196"><ele>46.3</ele><time>2021-03-01T11:40:34Z</time><name>PT4011</name></trkpt>
<trkpt lat="52.087189" lon="05.700211"><ele>46.1</ele><time>2021-03-01T11:40:35Z</time><name>PT4012</name></trkpt>
<trkpt lat="52.087204" lon="05.700233"><ele>46.1</ele><time>2021-03-01T11:40:36Z</time><name>PT4013</name></trkpt>
<trkpt lat="52.087215" lon="05.700250"><ele>46.2</ele><time>2021-03-01T11:40:37Z</time><name>PT4014</name></trkpt>
<trkpt lat="52.087225" lon="05.700259"><ele>46</ele><time>2021-03-01T11:40:38Z</time><name>PT4015</name></trkpt>
<trkpt lat="52.087235" lon="05.700264"><ele>46.1</ele><time>2021-03-01T11:40:39Z</time><name>PT4016</name></trkpt>
<trkpt lat="52.087242" lon="05.700275"><ele>46.1</ele><time>2021-03-01T11:40:40Z</time><name>PT4017</name></trkpt>
<trkpt lat="52.087250" lon="05.700276"><ele>46.2</ele><time>2021-03-01T11:40:41Z</time><name>PT4018</name></trkpt>
<trkpt lat="52.087255" lon="05.700283"><ele>46.2</ele><time>2021-03-01T11:40:42Z</time><name>PT4019</name></trkpt>
<trkpt lat="52.087262" lon="05.700289"><ele>46.2</ele><time>2021-03-01T11:40:43Z</time><name>PT4020</name></trkpt>
<trkpt lat="52.087269" lon="05.700299"><ele>46.1</ele><time>2021-03-01T11:40:44Z</time><name>PT4021</name></trkpt>
<trkpt lat="52.087281" lon="05.700307"><ele>46</ele><time>2021-03-01T11:40:45Z</time><name>PT4022</name></trkpt>
<trkpt lat="52.087292" lon="05.700315"><ele>45.9</ele><time>2021-03-01T11:40:46Z</time><name>PT4023</name></trkpt>
<trkpt lat="52.087304" lon="05.700319"><ele>46</ele><time>2021-03-01T11:40:47Z</time><name>PT4024</name></trkpt>
<trkpt lat="52.087318" lon="05.700333"><ele>45.9</ele><time>2021-03-01T11:40:48Z</time><name>PT4025</name></trkpt>
<trkpt lat="52.087329" lon="05.700334"><ele>45.8</ele><time>2021-03-01T11:40:49Z</time><name>PT4026</name></trkpt>
<trkpt lat="52.087339" lon="05.700344"><ele>45.8</ele><time>2021-03-01T11:40:50Z</time><name>PT4027</name></trkpt>
<trkpt lat="52.087346" lon="05.700356"><ele>45.8</ele><time>2021-03-01T11:40:51Z</time><name>PT4028</name></trkpt>
<trkpt lat="52.087351" lon="05.700368"><ele>45.7</ele><time>2021-03-01T11:40:52Z</time><name>PT4029</name></trkpt>
<trkpt lat="52.087361" lon="05.700384"><ele>45.7</ele><time>2021-03-01T11:40:53Z</time><name>PT4030</name></trkpt>
<trkpt lat="52.087367" lon="05.700393"><ele>45.7</ele><time>2021-03-01T11:40:54Z</time><name>PT4031</name></trkpt>
<trkpt lat="52.087369" lon="05.700404"><ele>45.5</ele><time>2021-03-01T11:40:55Z</time><name>PT4032</name></trkpt>
<trkpt lat="52.087378" lon="05.700417"><ele>45.3</ele><time>2021-03-01T11:40:56Z</time><name>PT4033</name></trkpt>
<trkpt lat="52.087388" lon="05.700440"><ele>45.4</ele><time>2021-03-01T11:40:57Z</time><name>PT4034</name></trkpt>
<trkpt lat="52.087399" lon="05.700450"><ele>45.3</ele><time>2021-03-01T11:40:58Z</time><name>PT4035</name></trkpt>
<trkpt lat="52.087403" lon="05.700457"><ele>45.3</ele><time>2021-03-01T11:40:59Z</time><name>PT4036</name></trkpt>
<trkpt lat="52.087410" lon="05.700464"><ele>45.3</ele><time>2021-03-01T11:41:00Z</time><name>PT4037</name></trkpt>
<trkpt lat="52.087415" lon="05.700477"><ele>45.3</ele><time>2021-03-01T11:41:01Z</time><name>PT4038</name></trkpt>
<trkpt lat="52.087433" lon="05.700487"><ele>45.3</ele><time>2021-03-01T11:41:02Z</time><name>PT4039</name></trkpt>
<trkpt lat="52.087441" lon="05.700498"><ele>45.3</ele><time>2021-03-01T11:41:03Z</time><name>PT4040</name></trkpt>
<trkpt lat="52.087443" lon="05.700509"><ele>45.3</ele><time>2021-03-01T11:41:04Z</time><name>PT4041</name></trkpt>
<trkpt lat="52.087455" lon="05.700520"><ele>45.2</ele><time>2021-03-01T11:41:05Z</time><name>PT4042</name></trkpt>
<trkpt lat="52.087458" lon="05.700531"><ele>45.3</ele><time>2021-03-01T11:41:06Z</time><name>PT4043</name></trkpt>
<trkpt lat="52.087471" lon="05.700548"><ele>45.2</ele><time>2021-03-01T11:41:07Z</time><name>PT4044</name></trkpt>
<trkpt lat="52.087483" lon="05.700556"><ele>45.2</ele><time>2021-03-01T11:41:08Z</time><name>PT4045</name></trkpt>
<trkpt lat="52.087489" lon="05.700568"><ele>45</ele><time>2021-03-01T11:41:09Z</time><name>PT4046</name></trkpt>
<trkpt lat="52.087497" lon="05.700585"><ele>44.9</ele><time>2021-03-01T11:41:10Z</time><name>PT4047</name></trkpt>
<trkpt lat="52.087510" lon="05.700588"><ele>44.9</ele><time>2021-03-01T11:41:11Z</time><name>PT4048</name></trkpt>
<trkpt lat="52.087515" lon="05.700593"><ele>45</ele><time>2021-03-01T11:41:12Z</time><name>PT4049</name></trkpt>
<trkpt lat="52.087518" lon="05.700604"><ele>45.1</ele><time>2021-03-01T11:41:13Z</time><name>PT4050</name></trkpt>
<trkpt lat="52.087526" lon="05.700615"><ele>45.1</ele><time>2021-03-01T11:41:14Z</time><name>PT4051</name></trkpt>
<trkpt lat="52.087530" lon="05.700622"><ele>45</ele><time>2021-03-01T11:41:15Z</time><name>PT4052</name></trkpt>
<trkpt lat="52.087538" lon="05.700623"><ele>44.9</ele><time>2021-03-01T11:41:16Z</time><name>PT4053</name></trkpt>
<trkpt lat="52.087548" lon="05.700627"><ele>44.8</ele><time>2021-03-01T11:41:17Z</time><name>PT4054</name></trkpt>
<trkpt lat="52.087557" lon="05.700637"><ele>44.8</ele><time>2021-03-01T11:41:18Z</time><name>PT4055</name></trkpt>
<trkpt lat="52.087572" lon="05.700647"><ele>44.8</ele><time>2021-03-01T11:41:19Z</time><name>PT4056</name></trkpt>
<trkpt lat="52.087579" lon="05.700652"><ele>44.7</ele><time>2021-03-01T11:41:20Z</time><name>PT4057</name></trkpt>
<trkpt lat="52.087600" lon="05.700661"><ele>44.8</ele><time>2021-03-01T11:41:21Z</time><name>PT4058</name></trkpt>
<trkpt lat="52.087607" lon="05.700665"><ele>44.9</ele><time>2021-03-01T11:41:22Z</time><name>PT4059</name></trkpt>
<trkpt lat="52.087615" lon="05.700667"><ele>44.8</ele><time>2021-03-01T11:41:23Z</time><name>PT4060</name></trkpt>
<trkpt lat="52.087626" lon="05.700671"><ele>44.7</ele><time>2021-03-01T11:41:24Z</time><name>PT4061</name></trkpt>
<trkpt lat="52.087631" lon="05.700671"><ele>44.7</ele><time>2021-03-01T11:41:25Z</time><name>PT4062</name></trkpt>
<trkpt lat="52.087639" lon="05.700672"><ele>44.6</ele><time>2021-03-01T11:41:26Z</time><name>PT4063</name></trkpt>
<trkpt lat="52.087650" lon="05.700675"><ele>44.7</ele><time>2021-03-01T11:41:27Z</time><name>PT4064</name></trkpt>
<trkpt lat="52.087662" lon="05.700680"><ele>44.7</ele><time>2021-03-01T11:41:28Z</time><name>PT4065</name></trkpt>
<trkpt lat="52.087672" lon="05.700681"><ele>44.8</ele><time>2021-03-01T11:41:29Z</time><name>PT4066</name></trkpt>
<trkpt lat="52.087679" lon="05.700678"><ele>44.9</ele><time>2021-03-01T11:41:30Z</time><name>PT4067</name></trkpt>
<trkpt lat="52.087686" lon="05.700681"><ele>44.8</ele><time>2021-03-01T11:41:31Z</time><name>PT4068</name></trkpt>
<trkpt lat="52.087698" lon="05.700684"><ele>44.8</ele><time>2021-03-01T11:41:32Z</time><name>PT4069</name></trkpt>
<trkpt lat="52.087708" lon="05.700683"><ele>44.7</ele><time>2021-03-01T11:41:33Z</time><name>PT4070</name></trkpt>
<trkpt lat="52.087721" lon="05.700685"><ele>44.4</ele><time>2021-03-01T11:41:34Z</time><name>PT4071</name></trkpt>
<trkpt lat="52.087733" lon="05.700685"><ele>44.3</ele><time>2021-03-01T11:41:35Z</time><name>PT4072</name></trkpt>
<trkpt lat="52.087744" lon="05.700689"><ele>44.2</ele><time>2021-03-01T11:41:36Z</time><name>PT4073</name></trkpt>
<trkpt lat="52.087753" lon="05.700693"><ele>44.1</ele><time>2021-03-01T11:41:37Z</time><name>PT4074</name></trkpt>
<trkpt lat="52.087762" lon="05.700694"><ele>44</ele><time>2021-03-01T11:41:38Z</time><name>PT4075</name></trkpt>
<trkpt lat="52.087769" lon="05.700691"><ele>43.9</ele><time>2021-03-01T11:41:39Z</time><name>PT4076</name></trkpt>
<trkpt lat="52.087773" lon="05.700686"><ele>44</ele><time>2021-03-01T11:41:40Z</time><name>PT4077</name></trkpt>
<trkpt lat="52.087780" lon="05.700685"><ele>44.1</ele><time>2021-03-01T11:41:41Z</time><name>PT4078</name></trkpt>
<trkpt lat="52.087790" lon="05.700680"><ele>44</ele><time>2021-03-01T11:41:42Z</time><name>PT4079</name></trkpt>
<trkpt lat="52.087794" lon="05.700679"><ele>44.2</ele><time>2021-03-01T11:41:43Z</time><name>PT4080</name></trkpt>
<trkpt lat="52.087801" lon="05.700680"><ele>44.2</ele><time>2021-03-01T11:41:44Z</time><name>PT4081</name></trkpt>
<trkpt lat="52.087807" lon="05.700675"><ele>44</ele><time>2021-03-01T11:41:45Z</time><name>PT4082</name></trkpt>
<trkpt lat="52.087814" lon="05.700676"><ele>44</ele><time>2021-03-01T11:41:46Z</time><name>PT4083</name></trkpt>
<trkpt lat="52.087819" lon="05.700677"><ele>43.9</ele><time>2021-03-01T11:41:47Z</time><name>PT4084</name></trkpt>
<trkpt lat="52.087828" lon="05.700677"><ele>43.9</ele><time>2021-03-01T11:41:48Z</time><name>PT4085</name></trkpt>
<trkpt lat="52.087836" lon="05.700680"><ele>43.9</ele><time>2021-03-01T11:41:49Z</time><name>PT4086</name></trkpt>
<trkpt lat="52.087843" lon="05.700681"><ele>43.8</ele><time>2021-03-01T11:41:50Z</time><name>PT4087</name></trkpt>
<trkpt lat="52.087859" lon="05.700691"><ele>43.7</ele><time>2021-03-01T11:41:54Z</time><name>PT4088</name></trkpt>
<trkpt lat="52.087888" lon="05.700717"><ele>43.8</ele><time>2021-03-01T11:41:55Z</time><name>PT4089</name></trkpt>
<trkpt lat="52.087906" lon="05.700714"><ele>43.8</ele><time>2021-03-01T11:41:56Z</time><name>PT4090</name></trkpt>
<trkpt lat="52.087916" lon="05.700714"><ele>43.7</ele><time>2021-03-01T11:41:57Z</time><name>PT4091</name></trkpt>
<trkpt lat="52.087929" lon="05.700703"><ele>43.7</ele><time>2021-03-01T11:41:58Z</time><name>PT4092</name></trkpt>
<trkpt lat="52.087945" lon="05.700693"><ele>43.7</ele><time>2021-03-01T11:41:59Z</time><name>PT4093</name></trkpt>
<trkpt lat="52.087960" lon="05.700687"><ele>43.6</ele><time>2021-03-01T11:42:00Z</time><name>PT4094</name></trkpt>
<trkpt lat="52.087982" lon="05.700663"><ele>43.7</ele><time>2021-03-01T11:42:01Z</time><name>PT4095</name></trkpt>
<trkpt lat="52.087992" lon="05.700658"><ele>43.6</ele><time>2021-03-01T11:42:02Z</time><name>PT4096</name></trkpt>
<trkpt lat="52.087999" lon="05.700657"><ele>43.5</ele><time>2021-03-01T11:42:03Z</time><name>PT4097</name></trkpt>
<trkpt lat="52.088009" lon="05.700657"><ele>43.5</ele><time>2021-03-01T11:42:04Z</time><name>PT4098</name></trkpt>
<trkpt lat="52.088022" lon="05.700652"><ele>43.5</ele><time>2021-03-01T11:42:05Z</time><name>PT4099</name></trkpt>
<trkpt lat="52.088034" lon="05.700651"><ele>43.4</ele><time>2021-03-01T11:42:06Z</time><name>PT4100</name></trkpt>
<trkpt lat="52.088050" lon="05.700649"><ele>43.4</ele><time>2021-03-01T11:42:07Z</time><name>PT4101</name></trkpt>
<trkpt lat="52.088068" lon="05.700642"><ele>43.4</ele><time>2021-03-01T11:42:08Z</time><name>PT4102</name></trkpt>
<trkpt lat="52.088077" lon="05.700634"><ele>43.2</ele><time>2021-03-01T11:42:09Z</time><name>PT4103</name></trkpt>
<trkpt lat="52.088086" lon="05.700627"><ele>43.1</ele><time>2021-03-01T11:42:10Z</time><name>PT4104</name></trkpt>
<trkpt lat="52.088098" lon="05.700623"><ele>43.1</ele><time>2021-03-01T11:42:11Z</time><name>PT4105</name></trkpt>
<trkpt lat="52.088112" lon="05.700623"><ele>43.1</ele><time>2021-03-01T11:42:12Z</time><name>PT4106</name></trkpt>
<trkpt lat="52.088125" lon="05.700620"><ele>43</ele><time>2021-03-01T11:42:13Z</time><name>PT4107</name></trkpt>
<trkpt lat="52.088139" lon="05.700612"><ele>43</ele><time>2021-03-01T11:42:14Z</time><name>PT4108</name></trkpt>
<trkpt lat="52.088154" lon="05.700603"><ele>43</ele><time>2021-03-01T11:42:15Z</time><name>PT4109</name></trkpt>
<trkpt lat="52.088168" lon="05.700595"><ele>43</ele><time>2021-03-01T11:42:16Z</time><name>PT4110</name></trkpt>
<trkpt lat="52.088175" lon="05.700594"><ele>43</ele><time>2021-03-01T11:42:17Z</time><name>PT4111</name></trkpt>
<trkpt lat="52.088188" lon="05.700592"><ele>43</ele><time>2021-03-01T11:42:18Z</time><name>PT4112</name></trkpt>
<trkpt lat="52.088197" lon="05.700590"><ele>43</ele><time>2021-03-01T11:42:19Z</time><name>PT4113</name></trkpt>
<trkpt lat="52.088205" lon="05.700589"><ele>42.8</ele><time>2021-03-01T11:42:20Z</time><name>PT4114</name></trkpt>
<trkpt lat="52.088218" lon="05.700587"><ele>43</ele><time>2021-03-01T11:42:21Z</time><name>PT4115</name></trkpt>
<trkpt lat="52.088226" lon="05.700585"><ele>43</ele><time>2021-03-01T11:42:22Z</time><name>PT4116</name></trkpt>
<trkpt lat="52.088239" lon="05.700580"><ele>43</ele><time>2021-03-01T11:42:23Z</time><name>PT4117</name></trkpt>
<trkpt lat="52.088248" lon="05.700574"><ele>43.1</ele><time>2021-03-01T11:42:24Z</time><name>PT4118</name></trkpt>
<trkpt lat="52.088263" lon="05.700568"><ele>43</ele><time>2021-03-01T11:42:25Z</time><name>PT4119</name></trkpt>
<trkpt lat="52.088275" lon="05.700565"><ele>43</ele><time>2021-03-01T11:42:26Z</time><name>PT4120</name></trkpt>
<trkpt lat="52.088287" lon="05.700566"><ele>42.9</ele><time>2021-03-01T11:42:27Z</time><name>PT4121</name></trkpt>
<trkpt lat="52.088298" lon="05.700564"><ele>42.9</ele><time>2021-03-01T11:42:28Z</time><name>PT4122</name></trkpt>
<trkpt lat="52.088307" lon="05.700556"><ele>42.8</ele><time>2021-03-01T11:42:29Z</time><name>PT4123</name></trkpt>
<trkpt lat="52.088318" lon="05.700551"><ele>42.8</ele><time>2021-03-01T11:42:30Z</time><name>PT4124</name></trkpt>
<trkpt lat="52.088325" lon="05.700551"><ele>43</ele><time>2021-03-01T11:42:31Z</time><name>PT4125</name></trkpt>
<trkpt lat="52.088334" lon="05.700550"><ele>42.8</ele><time>2021-03-01T11:42:32Z</time><name>PT4126</name></trkpt>
<trkpt lat="52.088343" lon="05.700547"><ele>42.9</ele><time>2021-03-01T11:42:33Z</time><name>PT4127</name></trkpt>
<trkpt lat="52.088350" lon="05.700542"><ele>43</ele><time>2021-03-01T11:42:34Z</time><name>PT4128</name></trkpt>
<trkpt lat="52.088354" lon="05.700542"><ele>42.8</ele><time>2021-03-01T11:42:35Z</time><name>PT4129</name></trkpt>
<trkpt lat="52.088358" lon="05.700542"><ele>42.9</ele><time>2021-03-01T11:42:36Z</time><name>PT4130</name></trkpt>
<trkpt lat="52.088365" lon="05.700543"><ele>42.7</ele><time>2021-03-01T11:42:37Z</time><name>PT4131</name></trkpt>
<trkpt lat="52.088368" lon="05.700544"><ele>42.6</ele><time>2021-03-01T11:42:38Z</time><name>PT4132</name></trkpt>
<trkpt lat="52.088371" lon="05.700541"><ele>42.6</ele><time>2021-03-01T11:42:39Z</time><name>PT4133</name></trkpt>
<trkpt lat="52.088376" lon="05.700534"><ele>42.6</ele><time>2021-03-01T11:42:40Z</time><name>PT4134</name></trkpt>
<trkpt lat="52.088393" lon="05.700509"><ele>42.6</ele><time>2021-03-01T11:42:50Z</time><name>PT4135</name></trkpt>
<trkpt lat="52.088406" lon="05.700491"><ele>42.6</ele><time>2021-03-01T11:42:51Z</time><name>PT4136</name></trkpt>
<trkpt lat="52.088414" lon="05.700478"><ele>42.4</ele><time>2021-03-01T11:42:52Z</time><name>PT4137</name></trkpt>
<trkpt lat="52.088420" lon="05.700456"><ele>42.4</ele><time>2021-03-01T11:42:53Z</time><name>PT4138</name></trkpt>
<trkpt lat="52.088426" lon="05.700448"><ele>42.2</ele><time>2021-03-01T11:42:54Z</time><name>PT4139</name></trkpt>
<trkpt lat="52.088433" lon="05.700435"><ele>42.2</ele><time>2021-03-01T11:42:55Z</time><name>PT4140</name></trkpt>
<trkpt lat="52.088441" lon="05.700423"><ele>42.1</ele><time>2021-03-01T11:42:56Z</time><name>PT4141</name></trkpt>
<trkpt lat="52.088452" lon="05.700411"><ele>42</ele><time>2021-03-01T11:42:57Z</time><name>PT4142</name></trkpt>
<trkpt lat="52.088460" lon="05.700397"><ele>41.9</ele><time>2021-03-01T11:42:58Z</time><name>PT4143</name></trkpt>
<trkpt lat="52.088467" lon="05.700389"><ele>42</ele><time>2021-03-01T11:42:59Z</time><name>PT4144</name></trkpt>
<trkpt lat="52.088475" lon="05.700378"><ele>41.9</ele><time>2021-03-01T11:43:00Z</time><name>PT4145</name></trkpt>
<trkpt lat="52.088479" lon="05.700369"><ele>41.9</ele><time>2021-03-01T11:43:01Z</time><name>PT4146</name></trkpt>
<trkpt lat="52.088487" lon="05.700357"><ele>41.8</ele><time>2021-03-01T11:43:02Z</time><name>PT4147</name></trkpt>
<trkpt lat="52.088492" lon="05.700346"><ele>41.8</ele><time>2021-03-01T11:43:03Z</time><name>PT4148</name></trkpt>
<trkpt lat="52.088499" lon="05.700335"><ele>41.8</ele><time>2021-03-01T11:43:04Z</time><name>PT4149</name></trkpt>
<trkpt lat="52.088507" lon="05.700329"><ele>42.1</ele><time>2021-03-01T11:43:05Z</time><name>PT4150</name></trkpt>
<trkpt lat="52.088517" lon="05.700321"><ele>42.1</ele><time>2021-03-01T11:43:06Z</time><name>PT4151</name></trkpt>
<trkpt lat="52.088520" lon="05.700309"><ele>42.2</ele><time>2021-03-01T11:43:07Z</time><name>PT4152</name></trkpt>
<trkpt lat="52.088528" lon="05.700299"><ele>42.2</ele><time>2021-03-01T11:43:08Z</time><name>PT4153</name></trkpt>
<trkpt lat="52.088532" lon="05.700290"><ele>41.9</ele><time>2021-03-01T11:43:09Z</time><name>PT4154</name></trkpt>
<trkpt lat="52.088542" lon="05.700278"><ele>41.8</ele><time>2021-03-01T11:43:10Z</time><name>PT4155</name></trkpt>
<trkpt lat="52.088553" lon="05.700264"><ele>41.9</ele><time>2021-03-01T11:43:11Z</time><name>PT4156</name></trkpt>
<trkpt lat="52.088563" lon="05.700257"><ele>41.8</ele><time>2021-03-01T11:43:12Z</time><name>PT4157</name></trkpt>
<trkpt lat="52.088573" lon="05.700254"><ele>41.8</ele><time>2021-03-01T11:43:13Z</time><name>PT4158</name></trkpt>
<trkpt lat="52.088583" lon="05.700250"><ele>41.8</ele><time>2021-03-01T11:43:14Z</time><name>PT4159</name></trkpt>
<trkpt lat="52.088598" lon="05.700240"><ele>41.7</ele><time>2021-03-01T11:43:15Z</time><name>PT4160</name></trkpt>
<trkpt lat="52.088612" lon="05.700232"><ele>41.5</ele><time>2021-03-01T11:43:16Z</time><name>PT4161</name></trkpt>
<trkpt lat="52.088617" lon="05.700223"><ele>41.4</ele><time>2021-03-01T11:43:17Z</time><name>PT4162</name></trkpt>
<trkpt lat="52.088626" lon="05.700211"><ele>41.4</ele><time>2021-03-01T11:43:18Z</time><name>PT4163</name></trkpt>
<trkpt lat="52.088633" lon="05.700206"><ele>41.6</ele><time>2021-03-01T11:43:19Z</time><name>PT4164</name></trkpt>
<trkpt lat="52.088641" lon="05.700195"><ele>41.5</ele><time>2021-03-01T11:43:20Z</time><name>PT4165</name></trkpt>
<trkpt lat="52.088653" lon="05.700176"><ele>41.6</ele><time>2021-03-01T11:43:21Z</time><name>PT4166</name></trkpt>
<trkpt lat="52.088663" lon="05.700166"><ele>41.6</ele><time>2021-03-01T11:43:22Z</time><name>PT4167</name></trkpt>
<trkpt lat="52.088676" lon="05.700152"><ele>41.6</ele><time>2021-03-01T11:43:23Z</time><name>PT4168</name></trkpt>
<trkpt lat="52.088696" lon="05.700135"><ele>41.5</ele><time>2021-03-01T11:43:24Z</time><name>PT4169</name></trkpt>
<trkpt lat="52.088709" lon="05.700123"><ele>41.3</ele><time>2021-03-01T11:43:25Z</time><name>PT4170</name></trkpt>
<trkpt lat="52.088720" lon="05.700114"><ele>41.3</ele><time>2021-03-01T11:43:26Z</time><name>PT4171</name></trkpt>
<trkpt lat="52.088725" lon="05.700110"><ele>41.4</ele><time>2021-03-01T11:43:27Z</time><name>PT4172</name></trkpt>
<trkpt lat="52.088735" lon="05.700098"><ele>41.4</ele><time>2021-03-01T11:43:28Z</time><name>PT4173</name></trkpt>
<trkpt lat="52.088748" lon="05.700091"><ele>41.6</ele><time>2021-03-01T11:43:29Z</time><name>PT4174</name></trkpt>
<trkpt lat="52.088770" lon="05.700078"><ele>41.6</ele><time>2021-03-01T11:43:30Z</time><name>PT4175</name></trkpt>
<trkpt lat="52.088786" lon="05.700057"><ele>41.7</ele><time>2021-03-01T11:43:31Z</time><name>PT4176</name></trkpt>
<trkpt lat="52.088794" lon="05.700042"><ele>41.5</ele><time>2021-03-01T11:43:32Z</time><name>PT4177</name></trkpt>
<trkpt lat="52.088809" lon="05.700029"><ele>41.4</ele><time>2021-03-01T11:43:33Z</time><name>PT4178</name></trkpt>
<trkpt lat="52.088816" lon="05.700012"><ele>41.5</ele><time>2021-03-01T11:43:34Z</time><name>PT4179</name></trkpt>
<trkpt lat="52.088822" lon="05.699997"><ele>42</ele><time>2021-03-01T11:43:35Z</time><name>PT4180</name></trkpt>
<trkpt lat="52.088842" lon="05.699974"><ele>42.2</ele><time>2021-03-01T11:43:36Z</time><name>PT4181</name></trkpt>
<trkpt lat="52.088867" lon="05.699952"><ele>42.5</ele><time>2021-03-01T11:43:37Z</time><name>PT4182</name></trkpt>
<trkpt lat="52.088875" lon="05.699944"><ele>42.4</ele><time>2021-03-01T11:43:38Z</time><name>PT4183</name></trkpt>
<trkpt lat="52.088881" lon="05.699929"><ele>41.9</ele><time>2021-03-01T11:43:39Z</time><name>PT4184</name></trkpt>
<trkpt lat="52.088883" lon="05.699931"><ele>41.6</ele><time>2021-03-01T11:43:40Z</time><name>PT4185</name></trkpt>
<trkpt lat="52.088885" lon="05.699927"><ele>41.6</ele><time>2021-03-01T11:43:41Z</time><name>PT4186</name></trkpt>
<trkpt lat="52.088887" lon="05.699916"><ele>41.6</ele><time>2021-03-01T11:43:42Z</time><name>PT4187</name></trkpt>
<trkpt lat="52.088892" lon="05.699903"><ele>41.7</ele><time>2021-03-01T11:43:43Z</time><name>PT4188</name></trkpt>
<trkpt lat="52.088892" lon="05.699889"><ele>41.7</ele><time>2021-03-01T11:43:44Z</time><name>PT4189</name></trkpt>
<trkpt lat="52.088892" lon="05.699877"><ele>41.4</ele><time>2021-03-01T11:43:45Z</time><name>PT4190</name></trkpt>
<trkpt lat="52.088893" lon="05.699866"><ele>41.2</ele><time>2021-03-01T11:43:46Z</time><name>PT4191</name></trkpt>
<trkpt lat="52.088889" lon="05.699848"><ele>41.2</ele><time>2021-03-01T11:43:47Z</time><name>PT4192</name></trkpt>
<trkpt lat="52.088888" lon="05.699840"><ele>41.1</ele><time>2021-03-01T11:43:48Z</time><name>PT4193</name></trkpt>
<trkpt lat="52.088892" lon="05.699812"><ele>41.3</ele><time>2021-03-01T11:43:49Z</time><name>PT4194</name></trkpt>
<trkpt lat="52.088892" lon="05.699791"><ele>41.3</ele><time>2021-03-01T11:43:50Z</time><name>PT4195</name></trkpt>
<trkpt lat="52.088892" lon="05.699785"><ele>41.5</ele><time>2021-03-01T11:43:51Z</time><name>PT4196</name></trkpt>
<trkpt lat="52.088892" lon="05.699775"><ele>41.7</ele><time>2021-03-01T11:43:52Z</time><name>PT4197</name></trkpt>
<trkpt lat="52.088893" lon="05.699765"><ele>41.7</ele><time>2021-03-01T11:43:53Z</time><name>PT4198</name></trkpt>
<trkpt lat="52.088897" lon="05.699748"><ele>41.7</ele><time>2021-03-01T11:43:54Z</time><name>PT4199</name></trkpt>
<trkpt lat="52.088901" lon="05.699726"><ele>41.6</ele><time>2021-03-01T11:43:55Z</time><name>PT4200</name></trkpt>
<trkpt lat="52.088905" lon="05.699713"><ele>41.5</ele><time>2021-03-01T11:43:56Z</time><name>PT4201</name></trkpt>
<trkpt lat="52.088907" lon="05.699697"><ele>41.7</ele><time>2021-03-01T11:43:57Z</time><name>PT4202</name></trkpt>
<trkpt lat="52.088912" lon="05.699671"><ele>41.8</ele><time>2021-03-01T11:43:58Z</time><name>PT4203</name></trkpt>
<trkpt lat="52.088908" lon="05.699639"><ele>41.9</ele><time>2021-03-01T11:43:59Z</time><name>PT4204</name></trkpt>
<trkpt lat="52.088907" lon="05.699614"><ele>42</ele><time>2021-03-01T11:44:00Z</time><name>PT4205</name></trkpt>
<trkpt lat="52.088908" lon="05.699598"><ele>41.8</ele><time>2021-03-01T11:44:01Z</time><name>PT4206</name></trkpt>
<trkpt lat="52.088906" lon="05.699582"><ele>41.7</ele><time>2021-03-01T11:44:02Z</time><name>PT4207</name></trkpt>
<trkpt lat="52.088906" lon="05.699566"><ele>42</ele><time>2021-03-01T11:44:03Z</time><name>PT4208</name></trkpt>
<trkpt lat="52.088905" lon="05.699547"><ele>42</ele><time>2021-03-01T11:44:04Z</time><name>PT4209</name></trkpt>
<trkpt lat="52.088910" lon="05.699519"><ele>42.2</ele><time>2021-03-01T11:44:05Z</time><name>PT4210</name></trkpt>
<trkpt lat="52.088912" lon="05.699500"><ele>42.2</ele><time>2021-03-01T11:44:06Z</time><name>PT4211</name></trkpt>
<trkpt lat="52.088909" lon="05.699478"><ele>42.2</ele><time>2021-03-01T11:44:07Z</time><name>PT4212</name></trkpt>
<trkpt lat="52.088907" lon="05.699471"><ele>42.2</ele><time>2021-03-01T11:44:08Z</time><name>PT4213</name></trkpt>
<trkpt lat="52.088905" lon="05.699456"><ele>42.2</ele><time>2021-03-01T11:44:09Z</time><name>PT4214</name></trkpt>
<trkpt lat="52.088906" lon="05.699441"><ele>42.2</ele><time>2021-03-01T11:44:10Z</time><name>PT4215</name></trkpt>
<trkpt lat="52.088908" lon="05.699416"><ele>42.3</ele><time>2021-03-01T11:44:11Z</time><name>PT4216</name></trkpt>
<trkpt lat="52.088913" lon="05.699402"><ele>42.4</ele><time>2021-03-01T11:44:12Z</time><name>PT4217</name></trkpt>
<trkpt lat="52.088918" lon="05.699382"><ele>42.6</ele><time>2021-03-01T11:44:13Z</time><name>PT4218</name></trkpt>
<trkpt lat="52.088927" lon="05.699372"><ele>42.6</ele><time>2021-03-01T11:44:14Z</time><name>PT4219</name></trkpt>
<trkpt lat="52.088934" lon="05.699351"><ele>42.6</ele><time>2021-03-01T11:44:15Z</time><name>PT4220</name></trkpt>
<trkpt lat="52.088939" lon="05.699315"><ele>42.9</ele><time>2021-03-01T11:44:16Z</time><name>PT4221</name></trkpt>
<trkpt lat="52.088944" lon="05.699299"><ele>43</ele><time>2021-03-01T11:44:17Z</time><name>PT4222</name></trkpt>
<trkpt lat="52.088948" lon="05.699290"><ele>43.1</ele><time>2021-03-01T11:44:18Z</time><name>PT4223</name></trkpt>
<trkpt lat="52.088955" lon="05.699273"><ele>43</ele><time>2021-03-01T11:44:19Z</time><name>PT4224</name></trkpt>
<trkpt lat="52.088961" lon="05.699265"><ele>42.9</ele><time>2021-03-01T11:44:20Z</time><name>PT4225</name></trkpt>
<trkpt lat="52.088966" lon="05.699259"><ele>42.9</ele><time>2021-03-01T11:44:21Z</time><name>PT4226</name></trkpt>
<trkpt lat="52.088979" lon="05.699241"><ele>42.9</ele><time>2021-03-01T11:44:22Z</time><name>PT4227</name></trkpt>
<trkpt lat="52.088987" lon="05.699239"><ele>43</ele><time>2021-03-01T11:44:23Z</time><name>PT4228</name></trkpt>
<trkpt lat="52.088993" lon="05.699235"><ele>43</ele><time>2021-03-01T11:44:24Z</time><name>PT4229</name></trkpt>
<trkpt lat="52.089001" lon="05.699226"><ele>43</ele><time>2021-03-01T11:44:25Z</time><name>PT4230</name></trkpt>
<trkpt lat="52.089006" lon="05.699218"><ele>43</ele><time>2021-03-01T11:44:26Z</time><name>PT4231</name></trkpt>
<trkpt lat="52.089007" lon="05.699216"><ele>43</ele><time>2021-03-01T11:44:27Z</time><name>PT4232</name></trkpt>
<trkpt lat="52.089009" lon="05.699214"><ele>43.2</ele><time>2021-03-01T11:44:28Z</time><name>PT4233</name></trkpt>
<trkpt lat="52.089015" lon="05.699224"><ele>42.6</ele><time>2021-03-01T11:44:38Z</time><name>PT4234</name></trkpt>
<trkpt lat="52.089023" lon="05.699239"><ele>42.3</ele><time>2021-03-01T11:44:39Z</time><name>PT4235</name></trkpt>
<trkpt lat="52.089031" lon="05.699252"><ele>42.2</ele><time>2021-03-01T11:44:40Z</time><name>PT4236</name></trkpt>
<trkpt lat="52.089041" lon="05.699255"><ele>42</ele><time>2021-03-01T11:44:41Z</time><name>PT4237</name></trkpt>
<trkpt lat="52.089054" lon="05.699259"><ele>41.9</ele><time>2021-03-01T11:44:42Z</time><name>PT4238</name></trkpt>
<trkpt lat="52.089063" lon="05.699259"><ele>42</ele><time>2021-03-01T11:44:43Z</time><name>PT4239</name></trkpt>
<trkpt lat="52.089072" lon="05.699261"><ele>42</ele><time>2021-03-01T11:44:44Z</time><name>PT4240</name></trkpt>
<trkpt lat="52.089079" lon="05.699268"><ele>41.7</ele><time>2021-03-01T11:44:45Z</time><name>PT4241</name></trkpt>
<trkpt lat="52.089084" lon="05.699276"><ele>41.6</ele><time>2021-03-01T11:44:46Z</time><name>PT4242</name></trkpt>
<trkpt lat="52.089099" lon="05.699285"><ele>41.7</ele><time>2021-03-01T11:44:47Z</time><name>PT4243</name></trkpt>
<trkpt lat="52.089107" lon="05.699295"><ele>41.5</ele><time>2021-03-01T11:44:48Z</time><name>PT4244</name></trkpt>
<trkpt lat="52.089111" lon="05.699302"><ele>41.5</ele><time>2021-03-01T11:44:49Z</time><name>PT4245</name></trkpt>
<trkpt lat="52.089118" lon="05.699307"><ele>41.3</ele><time>2021-03-01T11:44:50Z</time><name>PT4246</name></trkpt>
<trkpt lat="52.089124" lon="05.699316"><ele>41.3</ele><time>2021-03-01T11:44:51Z</time><name>PT4247</name></trkpt>
<trkpt lat="52.089136" lon="05.699322"><ele>41.2</ele><time>2021-03-01T11:44:52Z</time><name>PT4248</name></trkpt>
<trkpt lat="52.089137" lon="05.699336"><ele>40.8</ele><time>2021-03-01T11:44:53Z</time><name>PT4249</name></trkpt>
<trkpt lat="52.089144" lon="05.699342"><ele>40.8</ele><time>2021-03-01T11:44:54Z</time><name>PT4250</name></trkpt>
<trkpt lat="52.089150" lon="05.699354"><ele>40.5</ele><time>2021-03-01T11:44:55Z</time><name>PT4251</name></trkpt>
<trkpt lat="52.089154" lon="05.699357"><ele>40.4</ele><time>2021-03-01T11:44:56Z</time><name>PT4252</name></trkpt>
<trkpt lat="52.089159" lon="05.699360"><ele>40.3</ele><time>2021-03-01T11:44:57Z</time><name>PT4253</name></trkpt>
<trkpt lat="52.089164" lon="05.699369"><ele>40.4</ele><time>2021-03-01T11:44:58Z</time><name>PT4254</name></trkpt>
<trkpt lat="52.089171" lon="05.699376"><ele>40.4</ele><time>2021-03-01T11:44:59Z</time><name>PT4255</name></trkpt>
<trkpt lat="52.089174" lon="05.699383"><ele>40.4</ele><time>2021-03-01T11:45:00Z</time><name>PT4256</name></trkpt>
<trkpt lat="52.089176" lon="05.699389"><ele>40.5</ele><time>2021-03-01T11:45:01Z</time><name>PT4257</name></trkpt>
<trkpt lat="52.089181" lon="05.699399"><ele>40.7</ele><time>2021-03-01T11:45:02Z</time><name>PT4258</name></trkpt>
<trkpt lat="52.089193" lon="05.699416"><ele>40.8</ele><time>2021-03-01T11:45:05Z</time><name>PT4259</name></trkpt>
<trkpt lat="52.089205" lon="05.699423"><ele>40.9</ele><time>2021-03-01T11:45:06Z</time><name>PT4260</name></trkpt>
<trkpt lat="52.089216" lon="05.699420"><ele>41.5</ele><time>2021-03-01T11:45:07Z</time><name>PT4261</name></trkpt>
<trkpt lat="52.089229" lon="05.699421"><ele>41.8</ele><time>2021-03-01T11:45:08Z</time><name>PT4262</name></trkpt>
<trkpt lat="52.089240" lon="05.699420"><ele>41.9</ele><time>2021-03-01T11:45:09Z</time><name>PT4263</name></trkpt>
<trkpt lat="52.089252" lon="05.699417"><ele>41.9</ele><time>2021-03-01T11:45:10Z</time><name>PT4264</name></trkpt>
<trkpt lat="52.089264" lon="05.699414"><ele>41.7</ele><time>2021-03-01T11:45:11Z</time><name>PT4265</name></trkpt>
<trkpt lat="52.089272" lon="05.699409"><ele>41.4</ele><time>2021-03-01T11:45:12Z</time><name>PT4266</name></trkpt>
<trkpt lat="52.089282" lon="05.699404"><ele>41.4</ele><time>2021-03-01T11:45:13Z</time><name>PT4267</name></trkpt>
<trkpt lat="52.089292" lon="05.699395"><ele>41.4</ele><time>2021-03-01T11:45:14Z</time><name>PT4268</name></trkpt>
<trkpt lat="52.089298" lon="05.699388"><ele>41.3</ele><time>2021-03-01T11:45:15Z</time><name>PT4269</name></trkpt>
<trkpt lat="52.089307" lon="05.699386"><ele>41.5</ele><time>2021-03-01T11:45:16Z</time><name>PT4270</name></trkpt>
<trkpt lat="52.089321" lon="05.699379"><ele>41.5</ele><time>2021-03-01T11:45:17Z</time><name>PT4271</name></trkpt>
<trkpt lat="52.089326" lon="05.699378"><ele>41.6</ele><time>2021-03-01T11:45:18Z</time><name>PT4272</name></trkpt>
<trkpt lat="52.089332" lon="05.699376"><ele>41.7</ele><time>2021-03-01T11:45:19Z</time><name>PT4273</name></trkpt>
<trkpt lat="52.089338" lon="05.699374"><ele>41.7</ele><time>2021-03-01T11:45:20Z</time><name>PT4274</name></trkpt>
<trkpt lat="52.089345" lon="05.699372"><ele>41.7</ele><time>2021-03-01T11:45:21Z</time><name>PT4275</name></trkpt>
<trkpt lat="52.089355" lon="05.699372"><ele>41.7</ele><time>2021-03-01T11:45:24Z</time><name>PT4276</name></trkpt>
<trkpt lat="52.089371" lon="05.699373"><ele>41.7</ele><time>2021-03-01T11:45:25Z</time><name>PT4277</name></trkpt>
<trkpt lat="52.089388" lon="05.699374"><ele>41.9</ele><time>2021-03-01T11:45:26Z</time><name>PT4278</name></trkpt>
<trkpt lat="52.089402" lon="05.699372"><ele>42.2</ele><time>2021-03-01T11:45:27Z</time><name>PT4279</name></trkpt>
<trkpt lat="52.089419" lon="05.699349"><ele>42.1</ele><time>2021-03-01T11:45:28Z</time><name>PT4280</name></trkpt>
<trkpt lat="52.089427" lon="05.699340"><ele>42.2</ele><time>2021-03-01T11:45:29Z</time><name>PT4281</name></trkpt>
<trkpt lat="52.089437" lon="05.699323"><ele>42.2</ele><time>2021-03-01T11:45:30Z</time><name>PT4282</name></trkpt>
<trkpt lat="52.089443" lon="05.699323"><ele>42.2</ele><time>2021-03-01T11:45:31Z</time><name>PT4283</name></trkpt>
<trkpt lat="52.089464" lon="05.699322"><ele>42</ele><time>2021-03-01T11:45:32Z</time><name>PT4284</name></trkpt>
<trkpt lat="52.089476" lon="05.699309"><ele>41.9</ele><time>2021-03-01T11:45:33Z</time><name>PT4285</name></trkpt>
<trkpt lat="52.089489" lon="05.699296"><ele>41.8</ele><time>2021-03-01T11:45:34Z</time><name>PT4286</name></trkpt>
<trkpt lat="52.089503" lon="05.699284"><ele>41.8</ele><time>2021-03-01T11:45:35Z</time><name>PT4287</name></trkpt>
<trkpt lat="52.089519" lon="05.699285"><ele>41.7</ele><time>2021-03-01T11:45:36Z</time><name>PT4288</name></trkpt>
<trkpt lat="52.089533" lon="05.699281"><ele>41.8</ele><time>2021-03-01T11:45:37Z</time><name>PT4289</name></trkpt>
<trkpt lat="52.089554" lon="05.699270"><ele>41.9</ele><time>2021-03-01T11:45:38Z</time><name>PT4290</name></trkpt>
<trkpt lat="52.089568" lon="05.699261"><ele>42</ele><time>2021-03-01T11:45:39Z</time><name>PT4291</name></trkpt>
<trkpt lat="52.089575" lon="05.699257"><ele>41.9</ele><time>2021-03-01T11:45:40Z</time><name>PT4292</name></trkpt>
<trkpt lat="52.089582" lon="05.699253"><ele>41.8</ele><time>2021-03-01T11:45:41Z</time><name>PT4293</name></trkpt>
<trkpt lat="52.089593" lon="05.699246"><ele>41.8</ele><time>2021-03-01T11:45:42Z</time><name>PT4294</name></trkpt>
<trkpt lat="52.089607" lon="05.699241"><ele>41.8</ele><time>2021-03-01T11:45:43Z</time><name>PT4295</name></trkpt>
<trkpt lat="52.089618" lon="05.699235"><ele>41.8</ele><time>2021-03-01T11:45:44Z</time><name>PT4296</name></trkpt>
<trkpt lat="52.089628" lon="05.699228"><ele>41.9</ele><time>2021-03-01T11:45:45Z</time><name>PT4297</name></trkpt>
<trkpt lat="52.089640" lon="05.699223"><ele>41.8</ele><time>2021-03-01T11:45:46Z</time><name>PT4298</name></trkpt>
<trkpt lat="52.089653" lon="05.699217"><ele>41.8</ele><time>2021-03-01T11:45:47Z</time><name>PT4299</name></trkpt>
<trkpt lat="52.089668" lon="05.699218"><ele>41.7</ele><time>2021-03-01T11:45:48Z</time><name>PT4300</name></trkpt>
<trkpt lat="52.089679" lon="05.699218"><ele>41.5</ele><time>2021-03-01T11:45:49Z</time><name>PT4301</name></trkpt>
<trkpt lat="52.089691" lon="05.699216"><ele>41.4</ele><time>2021-03-01T11:45:50Z</time><name>PT4302</name></trkpt>
<trkpt lat="52.089714" lon="05.699210"><ele>41.3</ele><time>2021-03-01T11:45:51Z</time><name>PT4303</name></trkpt>
<trkpt lat="52.089732" lon="05.699205"><ele>41.5</ele><time>2021-03-01T11:45:52Z</time><name>PT4304</name></trkpt>
<trkpt lat="52.089745" lon="05.699201"><ele>41.6</ele><time>2021-03-01T11:45:53Z</time><name>PT4305</name></trkpt>
<trkpt lat="52.089751" lon="05.699205"><ele>41.7</ele><time>2021-03-01T11:45:54Z</time><name>PT4306</name></trkpt>
<trkpt lat="52.089758" lon="05.699212"><ele>41.7</ele><time>2021-03-01T11:45:55Z</time><name>PT4307</name></trkpt>
<trkpt lat="52.089770" lon="05.699210"><ele>41.7</ele><time>2021-03-01T11:45:56Z</time><name>PT4308</name></trkpt>
<trkpt lat="52.089783" lon="05.699213"><ele>41.7</ele><time>2021-03-01T11:45:57Z</time><name>PT4309</name></trkpt>
<trkpt lat="52.089799" lon="05.699216"><ele>41.7</ele><time>2021-03-01T11:45:58Z</time><name>PT4310</name></trkpt>
<trkpt lat="52.089810" lon="05.699218"><ele>41.9</ele><time>2021-03-01T11:45:59Z</time><name>PT4311</name></trkpt>
<trkpt lat="52.089818" lon="05.699219"><ele>42</ele><time>2021-03-01T11:46:00Z</time><name>PT4312</name></trkpt>
<trkpt lat="52.089831" lon="05.699225"><ele>41.7</ele><time>2021-03-01T11:46:01Z</time><name>PT4313</name></trkpt>
<trkpt lat="52.089840" lon="05.699228"><ele>42</ele><time>2021-03-01T11:46:02Z</time><name>PT4314</name></trkpt>
<trkpt lat="52.089854" lon="05.699233"><ele>42.1</ele><time>2021-03-01T11:46:03Z</time><name>PT4315</name></trkpt>
<trkpt lat="52.089865" lon="05.699237"><ele>42</ele><time>2021-03-01T11:46:04Z</time><name>PT4316</name></trkpt>
<trkpt lat="52.089879" lon="05.699243"><ele>42.2</ele><time>2021-03-01T11:46:05Z</time><name>PT4317</name></trkpt>
<trkpt lat="52.089886" lon="05.699251"><ele>42.2</ele><time>2021-03-01T11:46:06Z</time><name>PT4318</name></trkpt>
<trkpt lat="52.089901" lon="05.699256"><ele>42</ele><time>2021-03-01T11:46:07Z</time><name>PT4319</name></trkpt>
<trkpt lat="52.089906" lon="05.699263"><ele>41.9</ele><time>2021-03-01T11:46:08Z</time><name>PT4320</name></trkpt>
<trkpt lat="52.089924" lon="05.699270"><ele>41.8</ele><time>2021-03-01T11:46:09Z</time><name>PT4321</name></trkpt>
<trkpt lat="52.089937" lon="05.699276"><ele>41.6</ele><time>2021-03-01T11:46:10Z</time><name>PT4322</name></trkpt>
<trkpt lat="52.089946" lon="05.699285"><ele>41.6</ele><time>2021-03-01T11:46:11Z</time><name>PT4323</name></trkpt>
<trkpt lat="52.089960" lon="05.699294"><ele>41.5</ele><time>2021-03-01T11:46:12Z</time><name>PT4324</name></trkpt>
<trkpt lat="52.089972" lon="05.699299"><ele>41.5</ele><time>2021-03-01T11:46:13Z</time><name>PT4325</name></trkpt>
<trkpt lat="52.089990" lon="05.699297"><ele>41.5</ele><time>2021-03-01T11:46:14Z</time><name>PT4326</name></trkpt>
<trkpt lat="52.090009" lon="05.699296"><ele>41.3</ele><time>2021-03-01T11:46:15Z</time><name>PT4327</name></trkpt>
<trkpt lat="52.090022" lon="05.699303"><ele>41.3</ele><time>2021-03-01T11:46:16Z</time><name>PT4328</name></trkpt>
<trkpt lat="52.090032" lon="05.699314"><ele>41.2</ele><time>2021-03-01T11:46:17Z</time><name>PT4329</name></trkpt>
<trkpt lat="52.090042" lon="05.699322"><ele>41</ele><time>2021-03-01T11:46:18Z</time><name>PT4330</name></trkpt>
<trkpt lat="52.090048" lon="05.699333"><ele>41.3</ele><time>2021-03-01T11:46:19Z</time><name>PT4331</name></trkpt>
<trkpt lat="52.090056" lon="05.699341"><ele>41</ele><time>2021-03-01T11:46:20Z</time><name>PT4332</name></trkpt>
<trkpt lat="52.090067" lon="05.699343"><ele>41</ele><time>2021-03-01T11:46:21Z</time><name>PT4333</name></trkpt>
<trkpt lat="52.090077" lon="05.699347"><ele>40.8</ele><time>2021-03-01T11:46:22Z</time><name>PT4334</name></trkpt>
<trkpt lat="52.090084" lon="05.699355"><ele>40.8</ele><time>2021-03-01T11:46:23Z</time><name>PT4335</name></trkpt>
<trkpt lat="52.090091" lon="05.699360"><ele>40.8</ele><time>2021-03-01T11:46:24Z</time><name>PT4336</name></trkpt>
<trkpt lat="52.090100" lon="05.699364"><ele>40.7</ele><time>2021-03-01T11:46:25Z</time><name>PT4337</name></trkpt>
<trkpt lat="52.090101" lon="05.699368"><ele>40.8</ele><time>2021-03-01T11:46:26Z</time><name>PT4338</name></trkpt>
<trkpt lat="52.090119" lon="05.699374"><ele>40.7</ele><time>2021-03-01T11:46:27Z</time><name>PT4339</name></trkpt>
<trkpt lat="52.090131" lon="05.699374"><ele>40.7</ele><time>2021-03-01T11:46:28Z</time><name>PT4340</name></trkpt>
<trkpt lat="52.090139" lon="05.699377"><ele>40.8</ele><time>2021-03-01T11:46:29Z</time><name>PT4341</name></trkpt>
<trkpt lat="52.090153" lon="05.699378"><ele>40.9</ele><time>2021-03-01T11:46:30Z</time><name>PT4342</name></trkpt>
<trkpt lat="52.090171" lon="05.699386"><ele>40.8</ele><time>2021-03-01T11:46:31Z</time><name>PT4343</name></trkpt>
<trkpt lat="52.090189" lon="05.699395"><ele>40.6</ele><time>2021-03-01T11:46:32Z</time><name>PT4344</name></trkpt>
<trkpt lat="52.090203" lon="05.699400"><ele>40.8</ele><time>2021-03-01T11:46:33Z</time><name>PT4345</name></trkpt>
<trkpt lat="52.090218" lon="05.699407"><ele>40.4</ele><time>2021-03-01T11:46:34Z</time><name>PT4346</name></trkpt>
<trkpt lat="52.090233" lon="05.699413"><ele>40.4</ele><time>2021-03-01T11:46:35Z</time><name>PT4347</name></trkpt>
<trkpt lat="52.090245" lon="05.699418"><ele>40.5</ele><time>2021-03-01T11:46:36Z</time><name>PT4348</name></trkpt>
<trkpt lat="52.090254" lon="05.699435"><ele>40.4</ele><time>2021-03-01T11:46:37Z</time><name>PT4349</name></trkpt>
<trkpt lat="52.090277" lon="05.699448"><ele>40.3</ele><time>2021-03-01T11:46:38Z</time><name>PT4350</name></trkpt>
<trkpt lat="52.090297" lon="05.699461"><ele>40.2</ele><time>2021-03-01T11:46:39Z</time><name>PT4351</name></trkpt>
<trkpt lat="52.090313" lon="05.699472"><ele>40</ele><time>2021-03-01T11:46:40Z</time><name>PT4352</name></trkpt>
<trkpt lat="52.090326" lon="05.699478"><ele>39.9</ele><time>2021-03-01T11:46:41Z</time><name>PT4353</name></trkpt>
<trkpt lat="52.090333" lon="05.699489"><ele>40</ele><time>2021-03-01T11:46:42Z</time><name>PT4354</name></trkpt>
<trkpt lat="52.090336" lon="05.699497"><ele>39.8</ele><time>2021-03-01T11:46:43Z</time><name>PT4355</name></trkpt>
<trkpt lat="52.090348" lon="05.699503"><ele>39.9</ele><time>2021-03-01T11:46:44Z</time><name>PT4356</name></trkpt>
<trkpt lat="52.090357" lon="05.699512"><ele>39.7</ele><time>2021-03-01T11:46:45Z</time><name>PT4357</name></trkpt>
<trkpt lat="52.090366" lon="05.699524"><ele>39.5</ele><time>2021-03-01T11:46:46Z</time><name>PT4358</name></trkpt>
<trkpt lat="52.090370" lon="05.699538"><ele>39.3</ele><time>2021-03-01T11:46:47Z</time><name>PT4359</name></trkpt>
<trkpt lat="52.090380" lon="05.699547"><ele>39.4</ele><time>2021-03-01T11:46:48Z</time><name>PT4360</name></trkpt>
<trkpt lat="52.090387" lon="05.699557"><ele>39.4</ele><time>2021-03-01T11:46:49Z</time><name>PT4361</name></trkpt>
<trkpt lat="52.090395" lon="05.699562"><ele>39.5</ele><time>2021-03-01T11:46:50Z</time><name>PT4362</name></trkpt>
<trkpt lat="52.090401" lon="05.699576"><ele>39.5</ele><time>2021-03-01T11:46:51Z</time><name>PT4363</name></trkpt>
<trkpt lat="52.090407" lon="05.699589"><ele>39.5</ele><time>2021-03-01T11:46:52Z</time><name>PT4364</name></trkpt>
<trkpt lat="52.090413" lon="05.699594"><ele>39.5</ele><time>2021-03-01T11:46:53Z</time><name>PT4365</name></trkpt>
<trkpt lat="52.090420" lon="05.699601"><ele>39.2</ele><time>2021-03-01T11:46:54Z</time><name>PT4366</name></trkpt>
<trkpt lat="52.090426" lon="05.699609"><ele>39.3</ele><time>2021-03-01T11:46:55Z</time><name>PT4367</name></trkpt>
<trkpt lat="52.090428" lon="05.699622"><ele>39.3</ele><time>2021-03-01T11:46:56Z</time><name>PT4368</name></trkpt>
<trkpt lat="52.090436" lon="05.699635"><ele>39.1</ele><time>2021-03-01T11:46:57Z</time><name>PT4369</name></trkpt>
<trkpt lat="52.090443" lon="05.699646"><ele>39</ele><time>2021-03-01T11:46:58Z</time><name>PT4370</name></trkpt>
<trkpt lat="52.090451" lon="05.699658"><ele>38.9</ele><time>2021-03-01T11:46:59Z</time><name>PT4371</name></trkpt>
<trkpt lat="52.090465" lon="05.699671"><ele>38.8</ele><time>2021-03-01T11:47:00Z</time><name>PT4372</name></trkpt>
<trkpt lat="52.090481" lon="05.699680"><ele>38.8</ele><time>2021-03-01T11:47:01Z</time><name>PT4373</name></trkpt>
<trkpt lat="52.090494" lon="05.699685"><ele>38.9</ele><time>2021-03-01T11:47:02Z</time><name>PT4374</name></trkpt>
<trkpt lat="52.090507" lon="05.699700"><ele>39.2</ele><time>2021-03-01T11:47:03Z</time><name>PT4375</name></trkpt>
<trkpt lat="52.090520" lon="05.699710"><ele>39.1</ele><time>2021-03-01T11:47:04Z</time><name>PT4376</name></trkpt>
<trkpt lat="52.090532" lon="05.699719"><ele>39.2</ele><time>2021-03-01T11:47:05Z</time><name>PT4377</name></trkpt>
<trkpt lat="52.090541" lon="05.699731"><ele>39.1</ele><time>2021-03-01T11:47:06Z</time><name>PT4378</name></trkpt>
<trkpt lat="52.090552" lon="05.699742"><ele>39</ele><time>2021-03-01T11:47:07Z</time><name>PT4379</name></trkpt>
<trkpt lat="52.090561" lon="05.699753"><ele>38.8</ele><time>2021-03-01T11:47:08Z</time><name>PT4380</name></trkpt>
<trkpt lat="52.090576" lon="05.699763"><ele>38.6</ele><time>2021-03-01T11:47:09Z</time><name>PT4381</name></trkpt>
<trkpt lat="52.090583" lon="05.699774"><ele>38.4</ele><time>2021-03-01T11:47:10Z</time><name>PT4382</name></trkpt>
<trkpt lat="52.090597" lon="05.699785"><ele>38.4</ele><time>2021-03-01T11:47:11Z</time><name>PT4383</name></trkpt>
<trkpt lat="52.090603" lon="05.699798"><ele>38.5</ele><time>2021-03-01T11:47:12Z</time><name>PT4384</name></trkpt>
<trkpt lat="52.090609" lon="05.699808"><ele>38.4</ele><time>2021-03-01T11:47:13Z</time><name>PT4385</name></trkpt>
<trkpt lat="52.090617" lon="05.699820"><ele>38.5</ele><time>2021-03-01T11:47:14Z</time><name>PT4386</name></trkpt>
<trkpt lat="52.090633" lon="05.699832"><ele>38.6</ele><time>2021-03-01T11:47:15Z</time><name>PT4387</name></trkpt>
<trkpt lat="52.090640" lon="05.699839"><ele>38.6</ele><time>2021-03-01T11:47:16Z</time><name>PT4388</name></trkpt>
<trkpt lat="52.090645" lon="05.699845"><ele>38.7</ele><time>2021-03-01T11:47:17Z</time><name>PT4389</name></trkpt>
<trkpt lat="52.090649" lon="05.699856"><ele>38.5</ele><time>2021-03-01T11:47:19Z</time><name>PT4390</name></trkpt>
<trkpt lat="52.090661" lon="05.699874"><ele>38.4</ele><time>2021-03-01T11:47:20Z</time><name>PT4391</name></trkpt>
<trkpt lat="52.090674" lon="05.699892"><ele>38.3</ele><time>2021-03-01T11:47:21Z</time><name>PT4392</name></trkpt>
<trkpt lat="52.090689" lon="05.699904"><ele>38.2</ele><time>2021-03-01T11:47:22Z</time><name>PT4393</name></trkpt>
<trkpt lat="52.090699" lon="05.699914"><ele>38.3</ele><time>2021-03-01T11:47:23Z</time><name>PT4394</name></trkpt>
<trkpt lat="52.090712" lon="05.699924"><ele>38.3</ele><time>2021-03-01T11:47:24Z</time><name>PT4395</name></trkpt>
<trkpt lat="52.090720" lon="05.699924"><ele>38.1</ele><time>2021-03-01T11:47:25Z</time><name>PT4396</name></trkpt>
<trkpt lat="52.090733" lon="05.699919"><ele>38.1</ele><time>2021-03-01T11:47:26Z</time><name>PT4397</name></trkpt>
<trkpt lat="52.090743" lon="05.699915"><ele>38.1</ele><time>2021-03-01T11:47:27Z</time><name>PT4398</name></trkpt>
<trkpt lat="52.090754" lon="05.699915"><ele>38.3</ele><time>2021-03-01T11:47:28Z</time><name>PT4399</name></trkpt>
<trkpt lat="52.090765" lon="05.699913"><ele>38.4</ele><time>2021-03-01T11:47:29Z</time><name>PT4400</name></trkpt>
<trkpt lat="52.090778" lon="05.699912"><ele>38.3</ele><time>2021-03-01T11:47:30Z</time><name>PT4401</name></trkpt>
<trkpt lat="52.090790" lon="05.699913"><ele>38.4</ele><time>2021-03-01T11:47:31Z</time><name>PT4402</name></trkpt>
<trkpt lat="52.090798" lon="05.699907"><ele>38.7</ele><time>2021-03-01T11:47:32Z</time><name>PT4403</name></trkpt>
<trkpt lat="52.090807" lon="05.699905"><ele>38.9</ele><time>2021-03-01T11:47:33Z</time><name>PT4404</name></trkpt>
<trkpt lat="52.090814" lon="05.699904"><ele>39</ele><time>2021-03-01T11:47:34Z</time><name>PT4405</name></trkpt>
<trkpt lat="52.090820" lon="05.699902"><ele>39</ele><time>2021-03-01T11:47:35Z</time><name>PT4406</name></trkpt>
<trkpt lat="52.090828" lon="05.699900"><ele>38.6</ele><time>2021-03-01T11:47:36Z</time><name>PT4407</name></trkpt>
<trkpt lat="52.090831" lon="05.699903"><ele>38.1</ele><time>2021-03-01T11:47:46Z</time><name>PT4408</name></trkpt>
<trkpt lat="52.090844" lon="05.699906"><ele>38.2</ele><time>2021-03-01T11:47:47Z</time><name>PT4409</name></trkpt>
<trkpt lat="52.090858" lon="05.699907"><ele>38.1</ele><time>2021-03-01T11:47:48Z</time><name>PT4410</name></trkpt>
<trkpt lat="52.090873" lon="05.699904"><ele>37.7</ele><time>2021-03-01T11:47:49Z</time><name>PT4411</name></trkpt>
<trkpt lat="52.090886" lon="05.699895"><ele>37.5</ele><time>2021-03-01T11:47:50Z</time><name>PT4412</name></trkpt>
<trkpt lat="52.090899" lon="05.699886"><ele>37.2</ele><time>2021-03-01T11:47:51Z</time><name>PT4413</name></trkpt>
<trkpt lat="52.090910" lon="05.699881"><ele>37.1</ele><time>2021-03-01T11:47:52Z</time><name>PT4414</name></trkpt>
<trkpt lat="52.090917" lon="05.699876"><ele>37.8</ele><time>2021-03-01T11:47:53Z</time><name>PT4415</name></trkpt>
<trkpt lat="52.090928" lon="05.699873"><ele>38.2</ele><time>2021-03-01T11:47:54Z</time><name>PT4416</name></trkpt>
<trkpt lat="52.090938" lon="05.699872"><ele>38.7</ele><time>2021-03-01T11:47:55Z</time><name>PT4417</name></trkpt>
<trkpt lat="52.090950" lon="05.699865"><ele>38.9</ele><time>2021-03-01T11:47:56Z</time><name>PT4418</name></trkpt>
<trkpt lat="52.090955" lon="05.699862"><ele>38.3</ele><time>2021-03-01T11:47:57Z</time><name>PT4419</name></trkpt>
<trkpt lat="52.090968" lon="05.699854"><ele>38</ele><time>2021-03-01T11:47:58Z</time><name>PT4420</name></trkpt>
<trkpt lat="52.090980" lon="05.699851"><ele>37.6</ele><time>2021-03-01T11:47:59Z</time><name>PT4421</name></trkpt>
<trkpt lat="52.090990" lon="05.699844"><ele>37.4</ele><time>2021-03-01T11:48:00Z</time><name>PT4422</name></trkpt>
<trkpt lat="52.091002" lon="05.699835"><ele>37.3</ele><time>2021-03-01T11:48:01Z</time><name>PT4423</name></trkpt>
<trkpt lat="52.091017" lon="05.699828"><ele>37.4</ele><time>2021-03-01T11:48:02Z</time><name>PT4424</name></trkpt>
<trkpt lat="52.091027" lon="05.699823"><ele>37.7</ele><time>2021-03-01T11:48:03Z</time><name>PT4425</name></trkpt>
<trkpt lat="52.091038" lon="05.699820"><ele>37.8</ele><time>2021-03-01T11:48:04Z</time><name>PT4426</name></trkpt>
<trkpt lat="52.091051" lon="05.699819"><ele>37.9</ele><time>2021-03-01T11:48:05Z</time><name>PT4427</name></trkpt>
<trkpt lat="52.091060" lon="05.699820"><ele>38</ele><time>2021-03-01T11:48:06Z</time><name>PT4428</name></trkpt>
<trkpt lat="52.091070" lon="05.699822"><ele>38</ele><time>2021-03-01T11:48:07Z</time><name>PT4429</name></trkpt>
<trkpt lat="52.091078" lon="05.699824"><ele>37.9</ele><time>2021-03-01T11:48:08Z</time><name>PT4430</name></trkpt>
<trkpt lat="52.091085" lon="05.699831"><ele>37.7</ele><time>2021-03-01T11:48:09Z</time><name>PT4431</name></trkpt>
<trkpt lat="52.091091" lon="05.699841"><ele>37.7</ele><time>2021-03-01T11:48:10Z</time><name>PT4432</name></trkpt>
<trkpt lat="52.091111" lon="05.699841"><ele>37.7</ele><time>2021-03-01T11:48:11Z</time><name>PT4433</name></trkpt>
<trkpt lat="52.091120" lon="05.699850"><ele>37.6</ele><time>2021-03-01T11:48:12Z</time><name>PT4434</name></trkpt>
<trkpt lat="52.091129" lon="05.699851"><ele>37.7</ele><time>2021-03-01T11:48:13Z</time><name>PT4435</name></trkpt>
<trkpt lat="52.091130" lon="05.699855"><ele>37.7</ele><time>2021-03-01T11:48:14Z</time><name>PT4436</name></trkpt>
<trkpt lat="52.091136" lon="05.699863"><ele>37.7</ele><time>2021-03-01T11:48:15Z</time><name>PT4437</name></trkpt>
<trkpt lat="52.091147" lon="05.699867"><ele>37.7</ele><time>2021-03-01T11:48:16Z</time><name>PT4438</name></trkpt>
<trkpt lat="52.091163" lon="05.699876"><ele>37.8</ele><time>2021-03-01T11:48:17Z</time><name>PT4439</name></trkpt>
<trkpt lat="52.091172" lon="05.699882"><ele>37.8</ele><time>2021-03-01T11:48:18Z</time><name>PT4440</name></trkpt>
<trkpt lat="52.091185" lon="05.699887"><ele>37.8</ele><time>2021-03-01T11:48:19Z</time><name>PT4441</name></trkpt>
<trkpt lat="52.091199" lon="05.699892"><ele>37.9</ele><time>2021-03-01T11:48:20Z</time><name>PT4442</name></trkpt>
<trkpt lat="52.091210" lon="05.699899"><ele>37.9</ele><time>2021-03-01T11:48:21Z</time><name>PT4443</name></trkpt>
<trkpt lat="52.091220" lon="05.699905"><ele>37.7</ele><time>2021-03-01T11:48:22Z</time><name>PT4444</name></trkpt>
<trkpt lat="52.091232" lon="05.699910"><ele>37.6</ele><time>2021-03-01T11:48:23Z</time><name>PT4445</name></trkpt>
<trkpt lat="52.091241" lon="05.699920"><ele>37.6</ele><time>2021-03-01T11:48:24Z</time><name>PT4446</name></trkpt>
<trkpt lat="52.091250" lon="05.699927"><ele>37.4</ele><time>2021-03-01T11:48:25Z</time><name>PT4447</name></trkpt>
<trkpt lat="52.091260" lon="05.699933"><ele>37.4</ele><time>2021-03-01T11:48:26Z</time><name>PT4448</name></trkpt>
<trkpt lat="52.091269" lon="05.699936"><ele>37.6</ele><time>2021-03-01T11:48:27Z</time><name>PT4449</name></trkpt>
<trkpt lat="52.091286" lon="05.699939"><ele>37.5</ele><time>2021-03-01T11:48:28Z</time><name>PT4450</name></trkpt>
<trkpt lat="52.091300" lon="05.699941"><ele>37.5</ele><time>2021-03-01T11:48:29Z</time><name>PT4451</name></trkpt>
<trkpt lat="52.091311" lon="05.699938"><ele>37.3</ele><time>2021-03-01T11:48:30Z</time><name>PT4452</name></trkpt>
<trkpt lat="52.091321" lon="05.699937"><ele>37.3</ele><time>2021-03-01T11:48:31Z</time><name>PT4453</name></trkpt>
<trkpt lat="52.091335" lon="05.699935"><ele>37.1</ele><time>2021-03-01T11:48:32Z</time><name>PT4454</name></trkpt>
<trkpt lat="52.091347" lon="05.699931"><ele>37</ele><time>2021-03-01T11:48:33Z</time><name>PT4455</name></trkpt>
<trkpt lat="52.091354" lon="05.699928"><ele>36.9</ele><time>2021-03-01T11:48:34Z</time><name>PT4456</name></trkpt>
<trkpt lat="52.091367" lon="05.699930"><ele>36.8</ele><time>2021-03-01T11:48:35Z</time><name>PT4457</name></trkpt>
<trkpt lat="52.091379" lon="05.699927"><ele>36.9</ele><time>2021-03-01T11:48:36Z</time><name>PT4458</name></trkpt>
<trkpt lat="52.091388" lon="05.699926"><ele>36.8</ele><time>2021-03-01T11:48:37Z</time><name>PT4459</name></trkpt>
<trkpt lat="52.091400" lon="05.699921"><ele>37.1</ele><time>2021-03-01T11:48:38Z</time><name>PT4460</name></trkpt>
<trkpt lat="52.091409" lon="05.699917"><ele>37.8</ele><time>2021-03-01T11:48:39Z</time><name>PT4461</name></trkpt>
<trkpt lat="52.091416" lon="05.699912"><ele>37.9</ele><time>2021-03-01T11:48:40Z</time><name>PT4462</name></trkpt>
<trkpt lat="52.091430" lon="05.699907"><ele>38.1</ele><time>2021-03-01T11:48:41Z</time><name>PT4463</name></trkpt>
<trkpt lat="52.091440" lon="05.699906"><ele>38.1</ele><time>2021-03-01T11:48:42Z</time><name>PT4464</name></trkpt>
<trkpt lat="52.091452" lon="05.699896"><ele>37.7</ele><time>2021-03-01T11:48:43Z</time><name>PT4465</name></trkpt>
<trkpt lat="52.091461" lon="05.699891"><ele>37.6</ele><time>2021-03-01T11:48:44Z</time><name>PT4466</name></trkpt>
<trkpt lat="52.091475" lon="05.699885"><ele>37.4</ele><time>2021-03-01T11:48:45Z</time><name>PT4467</name></trkpt>
<trkpt lat="52.091489" lon="05.699876"><ele>37.3</ele><time>2021-03-01T11:48:46Z</time><name>PT4468</name></trkpt>
<trkpt lat="52.091500" lon="05.699867"><ele>37.3</ele><time>2021-03-01T11:48:47Z</time><name>PT4469</name></trkpt>
<trkpt lat="52.091511" lon="05.699860"><ele>37.3</ele><time>2021-03-01T11:48:48Z</time><name>PT4470</name></trkpt>
<trkpt lat="52.091522" lon="05.699847"><ele>37.3</ele><time>2021-03-01T11:48:49Z</time><name>PT4471</name></trkpt>
<trkpt lat="52.091533" lon="05.699833"><ele>37.3</ele><time>2021-03-01T11:48:50Z</time><name>PT4472</name></trkpt>
<trkpt lat="52.091544" lon="05.699820"><ele>37.7</ele><time>2021-03-01T11:48:51Z</time><name>PT4473</name></trkpt>
<trkpt lat="52.091547" lon="05.699812"><ele>37.7</ele><time>2021-03-01T11:48:52Z</time><name>PT4474</name></trkpt>
<trkpt lat="52.091554" lon="05.699800"><ele>37.9</ele><time>2021-03-01T11:48:53Z</time><name>PT4475</name></trkpt>
<trkpt lat="52.091561" lon="05.699784"><ele>38.1</ele><time>2021-03-01T11:48:54Z</time><name>PT4476</name></trkpt>
<trkpt lat="52.091569" lon="05.699768"><ele>38</ele><time>2021-03-01T11:48:55Z</time><name>PT4477</name></trkpt>
<trkpt lat="52.091570" lon="05.699759"><ele>38.1</ele><time>2021-03-01T11:48:56Z</time><name>PT4478</name></trkpt>
<trkpt lat="52.091575" lon="05.699749"><ele>37.9</ele><time>2021-03-01T11:48:57Z</time><name>PT4479</name></trkpt>
<trkpt lat="52.091581" lon="05.699741"><ele>37.7</ele><time>2021-03-01T11:48:58Z</time><name>PT4480</name></trkpt>
<trkpt lat="52.091590" lon="05.699731"><ele>37.6</ele><time>2021-03-01T11:48:59Z</time><name>PT4481</name></trkpt>
<trkpt lat="52.091595" lon="05.699723"><ele>37.5</ele><time>2021-03-01T11:49:00Z</time><name>PT4482</name></trkpt>
<trkpt lat="52.091604" lon="05.699708"><ele>37.5</ele><time>2021-03-01T11:49:01Z</time><name>PT4483</name></trkpt>
<trkpt lat="52.091617" lon="05.699691"><ele>37.4</ele><time>2021-03-01T11:49:02Z</time><name>PT4484</name></trkpt>
<trkpt lat="52.091626" lon="05.699676"><ele>37.5</ele><time>2021-03-01T11:49:03Z</time><name>PT4485</name></trkpt>
<trkpt lat="52.091635" lon="05.699659"><ele>37.6</ele><time>2021-03-01T11:49:04Z</time><name>PT4486</name></trkpt>
<trkpt lat="52.091643" lon="05.699648"><ele>37.5</ele><time>2021-03-01T11:49:05Z</time><name>PT4487</name></trkpt>
<trkpt lat="52.091648" lon="05.699627"><ele>37.5</ele><time>2021-03-01T11:49:06Z</time><name>PT4488</name></trkpt>
<trkpt lat="52.091653" lon="05.699611"><ele>37.5</ele><time>2021-03-01T11:49:07Z</time><name>PT4489</name></trkpt>
<trkpt lat="52.091657" lon="05.699600"><ele>37.5</ele><time>2021-03-01T11:49:08Z</time><name>PT4490</name></trkpt>
<trkpt lat="52.091664" lon="05.699592"><ele>37.3</ele><time>2021-03-01T11:49:09Z</time><name>PT4491</name></trkpt>
<trkpt lat="52.091668" lon="05.699583"><ele>37.5</ele><time>2021-03-01T11:49:10Z</time><name>PT4492</name></trkpt>
<trkpt lat="52.091672" lon="05.699572"><ele>37.5</ele><time>2021-03-01T11:49:11Z</time><name>PT4493</name></trkpt>
<trkpt lat="52.091675" lon="05.699556"><ele>37.5</ele><time>2021-03-01T11:49:12Z</time><name>PT4494</name></trkpt>
<trkpt lat="52.091681" lon="05.699540"><ele>37.6</ele><time>2021-03-01T11:49:13Z</time><name>PT4495</name></trkpt>
<trkpt lat="52.091688" lon="05.699527"><ele>37.6</ele><time>2021-03-01T11:49:14Z</time><name>PT4496</name></trkpt>
<trkpt lat="52.091695" lon="05.699514"><ele>37.5</ele><time>2021-03-01T11:49:15Z</time><name>PT4497</name></trkpt>
<trkpt lat="52.091698" lon="05.699505"><ele>37.7</ele><time>2021-03-01T11:49:16Z</time><name>PT4498</name></trkpt>
<trkpt lat="52.091704" lon="05.699497"><ele>38.1</ele><time>2021-03-01T11:49:17Z</time><name>PT4499</name></trkpt>
<trkpt lat="52.091706" lon="05.699492"><ele>38.2</ele><time>2021-03-01T11:49:18Z</time><name>PT4500</name></trkpt>
<trkpt lat="52.091708" lon="05.699486"><ele>38.6</ele><time>2021-03-01T11:49:19Z</time><name>PT4501</name></trkpt>
<trkpt lat="52.091711" lon="05.699481"><ele>38.6</ele><time>2021-03-01T11:49:20Z</time><name>PT4502</name></trkpt>
<trkpt lat="52.091714" lon="05.699465"><ele>37.7</ele><time>2021-03-01T11:49:32Z</time><name>PT4503</name></trkpt>
<trkpt lat="52.091724" lon="05.699439"><ele>37.8</ele><time>2021-03-01T11:49:33Z</time><name>PT4504</name></trkpt>
<trkpt lat="52.091725" lon="05.699420"><ele>37.9</ele><time>2021-03-01T11:49:34Z</time><name>PT4505</name></trkpt>
<trkpt lat="52.091725" lon="05.699394"><ele>38.2</ele><time>2021-03-01T11:49:35Z</time><name>PT4506</name></trkpt>
<trkpt lat="52.091732" lon="05.699365"><ele>38.3</ele><time>2021-03-01T11:49:36Z</time><name>PT4507</name></trkpt>
<trkpt lat="52.091736" lon="05.699345"><ele>38.4</ele><time>2021-03-01T11:49:37Z</time><name>PT4508</name></trkpt>
<trkpt lat="52.091745" lon="05.699323"><ele>38.5</ele><time>2021-03-01T11:49:38Z</time><name>PT4509</name></trkpt>
<trkpt lat="52.091753" lon="05.699299"><ele>38.6</ele><time>2021-03-01T11:49:39Z</time><name>PT4510</name></trkpt>
<trkpt lat="52.091758" lon="05.699282"><ele>38.4</ele><time>2021-03-01T11:49:40Z</time><name>PT4511</name></trkpt>
<trkpt lat="52.091762" lon="05.699265"><ele>38.3</ele><time>2021-03-01T11:49:41Z</time><name>PT4512</name></trkpt>
<trkpt lat="52.091767" lon="05.699248"><ele>38.3</ele><time>2021-03-01T11:49:42Z</time><name>PT4513</name></trkpt>
<trkpt lat="52.091770" lon="05.699230"><ele>38.2</ele><time>2021-03-01T11:49:43Z</time><name>PT4514</name></trkpt>
<trkpt lat="52.091775" lon="05.699211"><ele>38.2</ele><time>2021-03-01T11:49:44Z</time><name>PT4515</name></trkpt>
<trkpt lat="52.091777" lon="05.699190"><ele>38.5</ele><time>2021-03-01T11:49:45Z</time><name>PT4516</name></trkpt>
<trkpt lat="52.091781" lon="05.699167"><ele>38.2</ele><time>2021-03-01T11:49:46Z</time><name>PT4517</name></trkpt>
<trkpt lat="52.091784" lon="05.699145"><ele>38.1</ele><time>2021-03-01T11:49:47Z</time><name>PT4518</name></trkpt>
<trkpt lat="52.091792" lon="05.699123"><ele>38.1</ele><time>2021-03-01T11:49:48Z</time><name>PT4519</name></trkpt>
<trkpt lat="52.091798" lon="05.699108"><ele>37.9</ele><time>2021-03-01T11:49:49Z</time><name>PT4520</name></trkpt>
<trkpt lat="52.091807" lon="05.699087"><ele>37.9</ele><time>2021-03-01T11:49:50Z</time><name>PT4521</name></trkpt>
<trkpt lat="52.091812" lon="05.699071"><ele>38</ele><time>2021-03-01T11:49:51Z</time><name>PT4522</name></trkpt>
<trkpt lat="52.091819" lon="05.699055"><ele>37.9</ele><time>2021-03-01T11:49:52Z</time><name>PT4523</name></trkpt>
<trkpt lat="52.091821" lon="05.699037"><ele>38.1</ele><time>2021-03-01T11:49:53Z</time><name>PT4524</name></trkpt>
<trkpt lat="52.091829" lon="05.699021"><ele>38.1</ele><time>2021-03-01T11:49:54Z</time><name>PT4525</name></trkpt>
<trkpt lat="52.091830" lon="05.699002"><ele>38.1</ele><time>2021-03-01T11:49:55Z</time><name>PT4526</name></trkpt>
<trkpt lat="52.091833" lon="05.698988"><ele>38.1</ele><time>2021-03-01T11:49:56Z</time><name>PT4527</name></trkpt>
<trkpt lat="52.091833" lon="05.698981"><ele>37.9</ele><time>2021-03-01T11:49:57Z</time><name>PT4528</name></trkpt>
<trkpt lat="52.091834" lon="05.698978"><ele>37.9</ele><time>2021-03-01T11:49:58Z</time><name>PT4529</name></trkpt>
<trkpt lat="52.091832" lon="05.698973"><ele>37.9</ele><time>2021-03-01T11:49:59Z</time><name>PT4530</name></trkpt>
<trkpt lat="52.091833" lon="05.698960"><ele>37.8</ele><time>2021-03-01T11:50:00Z</time><name>PT4531</name></trkpt>
<trkpt lat="52.091841" lon="05.698943"><ele>37.9</ele><time>2021-03-01T11:50:01Z</time><name>PT4532</name></trkpt>
<trkpt lat="52.091846" lon="05.698924"><ele>37.9</ele><time>2021-03-01T11:50:02Z</time><name>PT4533</name></trkpt>
<trkpt lat="52.091850" lon="05.698911"><ele>37.8</ele><time>2021-03-01T11:50:03Z</time><name>PT4534</name></trkpt>
<trkpt lat="52.091856" lon="05.698899"><ele>37.8</ele><time>2021-03-01T11:50:04Z</time><name>PT4535</name></trkpt>
<trkpt lat="52.091863" lon="05.698880"><ele>38</ele><time>2021-03-01T11:50:05Z</time><name>PT4536</name></trkpt>
<trkpt lat="52.091868" lon="05.698865"><ele>38</ele><time>2021-03-01T11:50:06Z</time><name>PT4537</name></trkpt>
<trkpt lat="52.091874" lon="05.698835"><ele>38.2</ele><time>2021-03-01T11:50:07Z</time><name>PT4538</name></trkpt>
<trkpt lat="52.091876" lon="05.698825"><ele>38.2</ele><time>2021-03-01T11:50:08Z</time><name>PT4539</name></trkpt>
<trkpt lat="52.091881" lon="05.698806"><ele>38.1</ele><time>2021-03-01T11:50:09Z</time><name>PT4540</name></trkpt>
<trkpt lat="52.091880" lon="05.698792"><ele>38.1</ele><time>2021-03-01T11:50:10Z</time><name>PT4541</name></trkpt>
<trkpt lat="52.091881" lon="05.698776"><ele>38.1</ele><time>2021-03-01T11:50:11Z</time><name>PT4542</name></trkpt>
<trkpt lat="52.091886" lon="05.698760"><ele>38.1</ele><time>2021-03-01T11:50:12Z</time><name>PT4543</name></trkpt>
<trkpt lat="52.091894" lon="05.698745"><ele>38.2</ele><time>2021-03-01T11:50:13Z</time><name>PT4544</name></trkpt>
<trkpt lat="52.091904" lon="05.698730"><ele>38.5</ele><time>2021-03-01T11:50:14Z</time><name>PT4545</name></trkpt>
<trkpt lat="52.091910" lon="05.698715"><ele>38.5</ele><time>2021-03-01T11:50:15Z</time><name>PT4546</name></trkpt>
<trkpt lat="52.091916" lon="05.698700"><ele>38.4</ele><time>2021-03-01T11:50:16Z</time><name>PT4547</name></trkpt>
<trkpt lat="52.091925" lon="05.698689"><ele>38.4</ele><time>2021-03-01T11:50:17Z</time><name>PT4548</name></trkpt>
<trkpt lat="52.091936" lon="05.698676"><ele>38.4</ele><time>2021-03-01T11:50:18Z</time><name>PT4549</name></trkpt>
<trkpt lat="52.091944" lon="05.698665"><ele>38.6</ele><time>2021-03-01T11:50:19Z</time><name>PT4550</name></trkpt>
<trkpt lat="52.091951" lon="05.698655"><ele>38.7</ele><time>2021-03-01T11:50:20Z</time><name>PT4551</name></trkpt>
<trkpt lat="52.091964" lon="05.698641"><ele>38.8</ele><time>2021-03-01T11:50:21Z</time><name>PT4552</name></trkpt>
<trkpt lat="52.091972" lon="05.698630"><ele>38.9</ele><time>2021-03-01T11:50:22Z</time><name>PT4553</name></trkpt>
<trkpt lat="52.091973" lon="05.698604"><ele>38.7</ele><time>2021-03-01T11:50:23Z</time><name>PT4554</name></trkpt>
<trkpt lat="52.091975" lon="05.698590"><ele>38.6</ele><time>2021-03-01T11:50:24Z</time><name>PT4555</name></trkpt>
<trkpt lat="52.091985" lon="05.698576"><ele>38.6</ele><time>2021-03-01T11:50:25Z</time><name>PT4556</name></trkpt>
<trkpt lat="52.092005" lon="05.698557"><ele>38.4</ele><time>2021-03-01T11:50:26Z</time><name>PT4557</name></trkpt>
<trkpt lat="52.092020" lon="05.698538"><ele>38.3</ele><time>2021-03-01T11:50:27Z</time><name>PT4558</name></trkpt>
<trkpt lat="52.092035" lon="05.698520"><ele>38.3</ele><time>2021-03-01T11:50:28Z</time><name>PT4559</name></trkpt>
<trkpt lat="52.092054" lon="05.698500"><ele>38.3</ele><time>2021-03-01T11:50:29Z</time><name>PT4560</name></trkpt>
<trkpt lat="52.092070" lon="05.698483"><ele>38.5</ele><time>2021-03-01T11:50:30Z</time><name>PT4561</name></trkpt>
<trkpt lat="52.092081" lon="05.698469"><ele>38.5</ele><time>2021-03-01T11:50:31Z</time><name>PT4562</name></trkpt>
<trkpt lat="52.092092" lon="05.698459"><ele>38.3</ele><time>2021-03-01T11:50:32Z</time><name>PT4563</name></trkpt>
<trkpt lat="52.092100" lon="05.698445"><ele>38.2</ele><time>2021-03-01T11:50:33Z</time><name>PT4564</name></trkpt>
<trkpt lat="52.092111" lon="05.698433"><ele>37.8</ele><time>2021-03-01T11:50:34Z</time><name>PT4565</name></trkpt>
<trkpt lat="52.092125" lon="05.698424"><ele>37.7</ele><time>2021-03-01T11:50:35Z</time><name>PT4566</name></trkpt>
<trkpt lat="52.092137" lon="05.698416"><ele>37.7</ele><time>2021-03-01T11:50:36Z</time><name>PT4567</name></trkpt>
<trkpt lat="52.092146" lon="05.698409"><ele>37.7</ele><time>2021-03-01T11:50:37Z</time><name>PT4568</name></trkpt>
<trkpt lat="52.092152" lon="05.698403"><ele>37.7</ele><time>2021-03-01T11:50:38Z</time><name>PT4569</name></trkpt>
<trkpt lat="52.092156" lon="05.698401"><ele>37.9</ele><time>2021-03-01T11:50:39Z</time><name>PT4570</name></trkpt>
<trkpt lat="52.092163" lon="05.698383"><ele>38.4</ele><time>2021-03-01T11:50:40Z</time><name>PT4571</name></trkpt>
<trkpt lat="52.092166" lon="05.698378"><ele>38.7</ele><time>2021-03-01T11:50:41Z</time><name>PT4572</name></trkpt>
<trkpt lat="52.092172" lon="05.698372"><ele>38.9</ele><time>2021-03-01T11:50:42Z</time><name>PT4573</name></trkpt>
<trkpt lat="52.092177" lon="05.698367"><ele>39</ele><time>2021-03-01T11:50:43Z</time><name>PT4574</name></trkpt>
<trkpt lat="52.092187" lon="05.698356"><ele>38.7</ele><time>2021-03-01T11:50:44Z</time><name>PT4575</name></trkpt>
<trkpt lat="52.092195" lon="05.698348"><ele>38.6</ele><time>2021-03-01T11:50:45Z</time><name>PT4576</name></trkpt>
<trkpt lat="52.092210" lon="05.698333"><ele>38.2</ele><time>2021-03-01T11:50:46Z</time><name>PT4577</name></trkpt>
<trkpt lat="52.092216" lon="05.698321"><ele>37.5</ele><time>2021-03-01T11:50:47Z</time><name>PT4578</name></trkpt>
<trkpt lat="52.092218" lon="05.698316"><ele>37.4</ele><time>2021-03-01T11:50:48Z</time><name>PT4579</name></trkpt>
<trkpt lat="52.092226" lon="05.698309"><ele>37.2</ele><time>2021-03-01T11:50:49Z</time><name>PT4580</name></trkpt>
<trkpt lat="52.092236" lon="05.698303"><ele>37.3</ele><time>2021-03-01T11:50:50Z</time><name>PT4581</name></trkpt>
<trkpt lat="52.092245" lon="05.698295"><ele>38.1</ele><time>2021-03-01T11:50:51Z</time><name>PT4582</name></trkpt>
<trkpt lat="52.092253" lon="05.698289"><ele>38.3</ele><time>2021-03-01T11:50:52Z</time><name>PT4583</name></trkpt>
<trkpt lat="52.092259" lon="05.698281"><ele>38.5</ele><time>2021-03-01T11:50:53Z</time><name>PT4584</name></trkpt>
<trkpt lat="52.092265" lon="05.698275"><ele>38.4</ele><time>2021-03-01T11:50:54Z</time><name>PT4585</name></trkpt>
<trkpt lat="52.092272" lon="05.698276"><ele>38.3</ele><time>2021-03-01T11:50:55Z</time><name>PT4586</name></trkpt>
<trkpt lat="52.092280" lon="05.698270"><ele>38.1</ele><time>2021-03-01T11:50:56Z</time><name>PT4587</name></trkpt>
<trkpt lat="52.092289" lon="05.698263"><ele>38.1</ele><time>2021-03-01T11:50:57Z</time><name>PT4588</name></trkpt>
<trkpt lat="52.092302" lon="05.698256"><ele>38.1</ele><time>2021-03-01T11:50:58Z</time><name>PT4589</name></trkpt>
<trkpt lat="52.092311" lon="05.698252"><ele>38.3</ele><time>2021-03-01T11:50:59Z</time><name>PT4590</name></trkpt>
<trkpt lat="52.092321" lon="05.698244"><ele>38.5</ele><time>2021-03-01T11:51:00Z</time><name>PT4591</name></trkpt>
<trkpt lat="52.092332" lon="05.698236"><ele>38.7</ele><time>2021-03-01T11:51:01Z</time><name>PT4592</name></trkpt>
<trkpt lat="52.092344" lon="05.698233"><ele>38.6</ele><time>2021-03-01T11:51:02Z</time><name>PT4593</name></trkpt>
<trkpt lat="52.092354" lon="05.698228"><ele>38.6</ele><time>2021-03-01T11:51:03Z</time><name>PT4594</name></trkpt>
<trkpt lat="52.092368" lon="05.698219"><ele>38.4</ele><time>2021-03-01T11:51:04Z</time><name>PT4595</name></trkpt>
<trkpt lat="52.092379" lon="05.698211"><ele>38.2</ele><time>2021-03-01T11:51:05Z</time><name>PT4596</name></trkpt>
<trkpt lat="52.092386" lon="05.698205"><ele>38.1</ele><time>2021-03-01T11:51:06Z</time><name>PT4597</name></trkpt>
<trkpt lat="52.092395" lon="05.698197"><ele>38.1</ele><time>2021-03-01T11:51:07Z</time><name>PT4598</name></trkpt>
<trkpt lat="52.092409" lon="05.698189"><ele>38.2</ele><time>2021-03-01T11:51:08Z</time><name>PT4599</name></trkpt>
<trkpt lat="52.092423" lon="05.698183"><ele>38.4</ele><time>2021-03-01T11:51:09Z</time><name>PT4600</name></trkpt>
<trkpt lat="52.092436" lon="05.698174"><ele>38.2</ele><time>2021-03-01T11:51:10Z</time><name>PT4601</name></trkpt>
<trkpt lat="52.092450" lon="05.698167"><ele>38.1</ele><time>2021-03-01T11:51:11Z</time><name>PT4602</name></trkpt>
<trkpt lat="52.092465" lon="05.698159"><ele>38</ele><time>2021-03-01T11:51:12Z</time><name>PT4603</name></trkpt>
<trkpt lat="52.092475" lon="05.698157"><ele>37.9</ele><time>2021-03-01T11:51:13Z</time><name>PT4604</name></trkpt>
<trkpt lat="52.092489" lon="05.698150"><ele>38</ele><time>2021-03-01T11:51:14Z</time><name>PT4605</name></trkpt>
<trkpt lat="52.092501" lon="05.698143"><ele>38.1</ele><time>2021-03-01T11:51:15Z</time><name>PT4606</name></trkpt>
<trkpt lat="52.092513" lon="05.698135"><ele>38.2</ele><time>2021-03-01T11:51:16Z</time><name>PT4607</name></trkpt>
<trkpt lat="52.092523" lon="05.698132"><ele>38</ele><time>2021-03-01T11:51:17Z</time><name>PT4608</name></trkpt>
<trkpt lat="52.092536" lon="05.698126"><ele>38.1</ele><time>2021-03-01T11:51:18Z</time><name>PT4609</name></trkpt>
<trkpt lat="52.092548" lon="05.698119"><ele>38.1</ele><time>2021-03-01T11:51:19Z</time><name>PT4610</name></trkpt>
<trkpt lat="52.092567" lon="05.698110"><ele>38.2</ele><time>2021-03-01T11:51:20Z</time><name>PT4611</name></trkpt>
<trkpt lat="52.092579" lon="05.698104"><ele>38.6</ele><time>2021-03-01T11:51:21Z</time><name>PT4612</name></trkpt>
<trkpt lat="52.092593" lon="05.698099"><ele>38.6</ele><time>2021-03-01T11:51:22Z</time><name>PT4613</name></trkpt>
<trkpt lat="52.092614" lon="05.698088"><ele>38.3</ele><time>2021-03-01T11:51:23Z</time><name>PT4614</name></trkpt>
<trkpt lat="52.092628" lon="05.698078"><ele>38.1</ele><time>2021-03-01T11:51:24Z</time><name>PT4615</name></trkpt>
<trkpt lat="52.092640" lon="05.698070"><ele>38.1</ele><time>2021-03-01T11:51:25Z</time><name>PT4616</name></trkpt>
<trkpt lat="52.092653" lon="05.698063"><ele>38.3</ele><time>2021-03-01T11:51:26Z</time><name>PT4617</name></trkpt>
<trkpt lat="52.092667" lon="05.698054"><ele>38.4</ele><time>2021-03-01T11:51:27Z</time><name>PT4618</name></trkpt>
<trkpt lat="52.092680" lon="05.698047"><ele>38.2</ele><time>2021-03-01T11:51:28Z</time><name>PT4619</name></trkpt>
<trkpt lat="52.092689" lon="05.698046"><ele>38.4</ele><time>2021-03-01T11:51:29Z</time><name>PT4620</name></trkpt>
<trkpt lat="52.092697" lon="05.698039"><ele>38.3</ele><time>2021-03-01T11:51:30Z</time><name>PT4621</name></trkpt>
<trkpt lat="52.092707" lon="05.698031"><ele>38.3</ele><time>2021-03-01T11:51:31Z</time><name>PT4622</name></trkpt>
<trkpt lat="52.092715" lon="05.698026"><ele>38.3</ele><time>2021-03-01T11:51:32Z</time><name>PT4623</name></trkpt>
<trkpt lat="52.092725" lon="05.698020"><ele>38.2</ele><time>2021-03-01T11:51:33Z</time><name>PT4624</name></trkpt>
<trkpt lat="52.092739" lon="05.698012"><ele>38.1</ele><time>2021-03-01T11:51:34Z</time><name>PT4625</name></trkpt>
<trkpt lat="52.092752" lon="05.698004"><ele>38.1</ele><time>2021-03-01T11:51:35Z</time><name>PT4626</name></trkpt>
<trkpt lat="52.092769" lon="05.698001"><ele>38.1</ele><time>2021-03-01T11:51:36Z</time><name>PT4627</name></trkpt>
<trkpt lat="52.092787" lon="05.697995"><ele>38.4</ele><time>2021-03-01T11:51:37Z</time><name>PT4628</name></trkpt>
<trkpt lat="52.092795" lon="05.697990"><ele>38.3</ele><time>2021-03-01T11:51:38Z</time><name>PT4629</name></trkpt>
<trkpt lat="52.092809" lon="05.697982"><ele>38.5</ele><time>2021-03-01T11:51:39Z</time><name>PT4630</name></trkpt>
<trkpt lat="52.092827" lon="05.697970"><ele>38.5</ele><time>2021-03-01T11:51:40Z</time><name>PT4631</name></trkpt>
<trkpt lat="52.092837" lon="05.697962"><ele>38.6</ele><time>2021-03-01T11:51:41Z</time><name>PT4632</name></trkpt>
<trkpt lat="52.092847" lon="05.697953"><ele>38.3</ele><time>2021-03-01T11:51:42Z</time><name>PT4633</name></trkpt>
<trkpt lat="52.092860" lon="05.697945"><ele>38.4</ele><time>2021-03-01T11:51:43Z</time><name>PT4634</name></trkpt>
<trkpt lat="52.092869" lon="05.697940"><ele>38.2</ele><time>2021-03-01T11:51:44Z</time><name>PT4635</name></trkpt>
<trkpt lat="52.092883" lon="05.697934"><ele>38.2</ele><time>2021-03-01T11:51:45Z</time><name>PT4636</name></trkpt>
<trkpt lat="52.092891" lon="05.697928"><ele>38.3</ele><time>2021-03-01T11:51:46Z</time><name>PT4637</name></trkpt>
<trkpt lat="52.092902" lon="05.697922"><ele>38.1</ele><time>2021-03-01T11:51:47Z</time><name>PT4638</name></trkpt>
<trkpt lat="52.092912" lon="05.697917"><ele>38.3</ele><time>2021-03-01T11:51:48Z</time><name>PT4639</name></trkpt>
<trkpt lat="52.092924" lon="05.697909"><ele>38.1</ele><time>2021-03-01T11:51:49Z</time><name>PT4640</name></trkpt>
<trkpt lat="52.092929" lon="05.697903"><ele>38.2</ele><time>2021-03-01T11:51:50Z</time><name>PT4641</name></trkpt>
<trkpt lat="52.092949" lon="05.697889"><ele>38.2</ele><time>2021-03-01T11:51:51Z</time><name>PT4642</name></trkpt>
<trkpt lat="52.092959" lon="05.697885"><ele>38.1</ele><time>2021-03-01T11:51:52Z</time><name>PT4643</name></trkpt>
<trkpt lat="52.092973" lon="05.697882"><ele>38.3</ele><time>2021-03-01T11:51:53Z</time><name>PT4644</name></trkpt>
<trkpt lat="52.092989" lon="05.697874"><ele>38.4</ele><time>2021-03-01T11:51:54Z</time><name>PT4645</name></trkpt>
<trkpt lat="52.093004" lon="05.697866"><ele>38.6</ele><time>2021-03-01T11:51:55Z</time><name>PT4646</name></trkpt>
<trkpt lat="52.093021" lon="05.697856"><ele>38.6</ele><time>2021-03-01T11:51:56Z</time><name>PT4647</name></trkpt>
<trkpt lat="52.093039" lon="05.697850"><ele>38.5</ele><time>2021-03-01T11:51:57Z</time><name>PT4648</name></trkpt>
<trkpt lat="52.093058" lon="05.697837"><ele>38.6</ele><time>2021-03-01T11:51:58Z</time><name>PT4649</name></trkpt>
<trkpt lat="52.093071" lon="05.697827"><ele>38.5</ele><time>2021-03-01T11:51:59Z</time><name>PT4650</name></trkpt>
<trkpt lat="52.093086" lon="05.697817"><ele>38.5</ele><time>2021-03-01T11:52:00Z</time><name>PT4651</name></trkpt>
<trkpt lat="52.093098" lon="05.697812"><ele>38.4</ele><time>2021-03-01T11:52:01Z</time><name>PT4652</name></trkpt>
<trkpt lat="52.093110" lon="05.697803"><ele>38.4</ele><time>2021-03-01T11:52:02Z</time><name>PT4653</name></trkpt>
<trkpt lat="52.093122" lon="05.697793"><ele>38.3</ele><time>2021-03-01T11:52:03Z</time><name>PT4654</name></trkpt>
<trkpt lat="52.093135" lon="05.697786"><ele>38.2</ele><time>2021-03-01T11:52:04Z</time><name>PT4655</name></trkpt>
<trkpt lat="52.093147" lon="05.697779"><ele>38.5</ele><time>2021-03-01T11:52:05Z</time><name>PT4656</name></trkpt>
<trkpt lat="52.093157" lon="05.697770"><ele>38.4</ele><time>2021-03-01T11:52:06Z</time><name>PT4657</name></trkpt>
<trkpt lat="52.093170" lon="05.697756"><ele>38.3</ele><time>2021-03-01T11:52:07Z</time><name>PT4658</name></trkpt>
<trkpt lat="52.093182" lon="05.697748"><ele>38.6</ele><time>2021-03-01T11:52:08Z</time><name>PT4659</name></trkpt>
<trkpt lat="52.093192" lon="05.697743"><ele>38.8</ele><time>2021-03-01T11:52:09Z</time><name>PT4660</name></trkpt>
<trkpt lat="52.093200" lon="05.697741"><ele>39.1</ele><time>2021-03-01T11:52:10Z</time><name>PT4661</name></trkpt>
<trkpt lat="52.093210" lon="05.697735"><ele>39.4</ele><time>2021-03-01T11:52:11Z</time><name>PT4662</name></trkpt>
<trkpt lat="52.093221" lon="05.697731"><ele>39.5</ele><time>2021-03-01T11:52:12Z</time><name>PT4663</name></trkpt>
<trkpt lat="52.093234" lon="05.697723"><ele>39.1</ele><time>2021-03-01T11:52:13Z</time><name>PT4664</name></trkpt>
<trkpt lat="52.093249" lon="05.697714"><ele>38.8</ele><time>2021-03-01T11:52:14Z</time><name>PT4665</name></trkpt>
<trkpt lat="52.093259" lon="05.697710"><ele>38.4</ele><time>2021-03-01T11:52:15Z</time><name>PT4666</name></trkpt>
<trkpt lat="52.093277" lon="05.697696"><ele>38.1</ele><time>2021-03-01T11:52:16Z</time><name>PT4667</name></trkpt>
<trkpt lat="52.093277" lon="05.697699"><ele>37.7</ele><time>2021-03-01T11:52:17Z</time><name>PT4668</name></trkpt>
<trkpt lat="52.093283" lon="05.697696"><ele>37.4</ele><time>2021-03-01T11:52:18Z</time><name>PT4669</name></trkpt>
<trkpt lat="52.093292" lon="05.697695"><ele>37.5</ele><time>2021-03-01T11:52:19Z</time><name>PT4670</name></trkpt>
<trkpt lat="52.093303" lon="05.697692"><ele>37.7</ele><time>2021-03-01T11:52:20Z</time><name>PT4671</name></trkpt>
<trkpt lat="52.093322" lon="05.697680"><ele>38</ele><time>2021-03-01T11:52:21Z</time><name>PT4672</name></trkpt>
<trkpt lat="52.093343" lon="05.697666"><ele>38.1</ele><time>2021-03-01T11:52:22Z</time><name>PT4673</name></trkpt>
<trkpt lat="52.093356" lon="05.697662"><ele>38.6</ele><time>2021-03-01T11:52:23Z</time><name>PT4674</name></trkpt>
<trkpt lat="52.093369" lon="05.697656"><ele>38.8</ele><time>2021-03-01T11:52:24Z</time><name>PT4675</name></trkpt>
<trkpt lat="52.093384" lon="05.697649"><ele>39.1</ele><time>2021-03-01T11:52:25Z</time><name>PT4676</name></trkpt>
<trkpt lat="52.093400" lon="05.697640"><ele>39.5</ele><time>2021-03-01T11:52:26Z</time><name>PT4677</name></trkpt>
<trkpt lat="52.093422" lon="05.697630"><ele>39.3</ele><time>2021-03-01T11:52:27Z</time><name>PT4678</name></trkpt>
<trkpt lat="52.093440" lon="05.697617"><ele>39.4</ele><time>2021-03-01T11:52:28Z</time><name>PT4679</name></trkpt>
<trkpt lat="52.093455" lon="05.697611"><ele>38.9</ele><time>2021-03-01T11:52:29Z</time><name>PT4680</name></trkpt>
<trkpt lat="52.093467" lon="05.697603"><ele>38.6</ele><time>2021-03-01T11:52:30Z</time><name>PT4681</name></trkpt>
<trkpt lat="52.093480" lon="05.697594"><ele>38.5</ele><time>2021-03-01T11:52:31Z</time><name>PT4682</name></trkpt>
<trkpt lat="52.093499" lon="05.697587"><ele>38.4</ele><time>2021-03-01T11:52:32Z</time><name>PT4683</name></trkpt>
<trkpt lat="52.093518" lon="05.697573"><ele>38.1</ele><time>2021-03-01T11:52:33Z</time><name>PT4684</name></trkpt>
<trkpt lat="52.093534" lon="05.697563"><ele>38.1</ele><time>2021-03-01T11:52:34Z</time><name>PT4685</name></trkpt>
<trkpt lat="52.093552" lon="05.697554"><ele>38</ele><time>2021-03-01T11:52:35Z</time><name>PT4686</name></trkpt>
<trkpt lat="52.093571" lon="05.697544"><ele>37.7</ele><time>2021-03-01T11:52:36Z</time><name>PT4687</name></trkpt>
<trkpt lat="52.093587" lon="05.697536"><ele>37.8</ele><time>2021-03-01T11:52:37Z</time><name>PT4688</name></trkpt>
<trkpt lat="52.093600" lon="05.697532"><ele>38.1</ele><time>2021-03-01T11:52:38Z</time><name>PT4689</name></trkpt>
<trkpt lat="52.093613" lon="05.697524"><ele>38.5</ele><time>2021-03-01T11:52:39Z</time><name>PT4690</name></trkpt>
<trkpt lat="52.093624" lon="05.697515"><ele>38.6</ele><time>2021-03-01T11:52:40Z</time><name>PT4691</name></trkpt>
<trkpt lat="52.093634" lon="05.697510"><ele>38.8</ele><time>2021-03-01T11:52:41Z</time><name>PT4692</name></trkpt>
<trkpt lat="52.093647" lon="05.697505"><ele>38.9</ele><time>2021-03-01T11:52:42Z</time><name>PT4693</name></trkpt>
<trkpt lat="52.093661" lon="05.697495"><ele>38.6</ele><time>2021-03-01T11:52:43Z</time><name>PT4694</name></trkpt>
<trkpt lat="52.093673" lon="05.697487"><ele>38.6</ele><time>2021-03-01T11:52:44Z</time><name>PT4695</name></trkpt>
<trkpt lat="52.093683" lon="05.697479"><ele>38.3</ele><time>2021-03-01T11:52:45Z</time><name>PT4696</name></trkpt>
<trkpt lat="52.093694" lon="05.697474"><ele>38.3</ele><time>2021-03-01T11:52:46Z</time><name>PT4697</name></trkpt>
<trkpt lat="52.093703" lon="05.697468"><ele>38.4</ele><time>2021-03-01T11:52:47Z</time><name>PT4698</name></trkpt>
<trkpt lat="52.093711" lon="05.697460"><ele>38.3</ele><time>2021-03-01T11:52:48Z</time><name>PT4699</name></trkpt>
<trkpt lat="52.093722" lon="05.697453"><ele>38.3</ele><time>2021-03-01T11:52:49Z</time><name>PT4700</name></trkpt>
<trkpt lat="52.093735" lon="05.697447"><ele>38.3</ele><time>2021-03-01T11:52:50Z</time><name>PT4701</name></trkpt>
<trkpt lat="52.093747" lon="05.697443"><ele>38.2</ele><time>2021-03-01T11:52:51Z</time><name>PT4702</name></trkpt>
<trkpt lat="52.093759" lon="05.697440"><ele>38.2</ele><time>2021-03-01T11:52:52Z</time><name>PT4703</name></trkpt>
<trkpt lat="52.093771" lon="05.697436"><ele>38.3</ele><time>2021-03-01T11:52:53Z</time><name>PT4704</name></trkpt>
<trkpt lat="52.093783" lon="05.697428"><ele>38.3</ele><time>2021-03-01T11:52:54Z</time><name>PT4705</name></trkpt>
<trkpt lat="52.093795" lon="05.697427"><ele>38.4</ele><time>2021-03-01T11:52:55Z</time><name>PT4706</name></trkpt>
<trkpt lat="52.093806" lon="05.697424"><ele>38.4</ele><time>2021-03-01T11:52:56Z</time><name>PT4707</name></trkpt>
<trkpt lat="52.093820" lon="05.697414"><ele>38.3</ele><time>2021-03-01T11:52:57Z</time><name>PT4708</name></trkpt>
<trkpt lat="52.093832" lon="05.697406"><ele>38.4</ele><time>2021-03-01T11:52:58Z</time><name>PT4709</name></trkpt>
<trkpt lat="52.093846" lon="05.697400"><ele>38.4</ele><time>2021-03-01T11:52:59Z</time><name>PT4710</name></trkpt>
<trkpt lat="52.093861" lon="05.697391"><ele>38.4</ele><time>2021-03-01T11:53:00Z</time><name>PT4711</name></trkpt>
<trkpt lat="52.093874" lon="05.697381"><ele>38.2</ele><time>2021-03-01T11:53:01Z</time><name>PT4712</name></trkpt>
<trkpt lat="52.093887" lon="05.697370"><ele>38.2</ele><time>2021-03-01T11:53:02Z</time><name>PT4713</name></trkpt>
<trkpt lat="52.093900" lon="05.697364"><ele>38.3</ele><time>2021-03-01T11:53:03Z</time><name>PT4714</name></trkpt>
<trkpt lat="52.093914" lon="05.697356"><ele>38.3</ele><time>2021-03-01T11:53:04Z</time><name>PT4715</name></trkpt>
<trkpt lat="52.093925" lon="05.697352"><ele>38.4</ele><time>2021-03-01T11:53:05Z</time><name>PT4716</name></trkpt>
<trkpt lat="52.093935" lon="05.697346"><ele>38.1</ele><time>2021-03-01T11:53:06Z</time><name>PT4717</name></trkpt>
<trkpt lat="52.093944" lon="05.697341"><ele>38.2</ele><time>2021-03-01T11:53:07Z</time><name>PT4718</name></trkpt>
<trkpt lat="52.093956" lon="05.697337"><ele>38.1</ele><time>2021-03-01T11:53:08Z</time><name>PT4719</name></trkpt>
<trkpt lat="52.093960" lon="05.697340"><ele>38.2</ele><time>2021-03-01T11:53:09Z</time><name>PT4720</name></trkpt>
<trkpt lat="52.093968" lon="05.697330"><ele>38.2</ele><time>2021-03-01T11:53:10Z</time><name>PT4721</name></trkpt>
<trkpt lat="52.093978" lon="05.697325"><ele>38.4</ele><time>2021-03-01T11:53:11Z</time><name>PT4722</name></trkpt>
<trkpt lat="52.093992" lon="05.697315"><ele>38.4</ele><time>2021-03-01T11:53:12Z</time><name>PT4723</name></trkpt>
<trkpt lat="52.094004" lon="05.697307"><ele>38.2</ele><time>2021-03-01T11:53:13Z</time><name>PT4724</name></trkpt>
<trkpt lat="52.094015" lon="05.697299"><ele>38.1</ele><time>2021-03-01T11:53:14Z</time><name>PT4725</name></trkpt>
<trkpt lat="52.094028" lon="05.697290"><ele>38.1</ele><time>2021-03-01T11:53:15Z</time><name>PT4726</name></trkpt>
<trkpt lat="52.094038" lon="05.697285"><ele>38.1</ele><time>2021-03-01T11:53:16Z</time><name>PT4727</name></trkpt>
<trkpt lat="52.094049" lon="05.697281"><ele>38.1</ele><time>2021-03-01T11:53:17Z</time><name>PT4728</name></trkpt>
<trkpt lat="52.094062" lon="05.697277"><ele>38.1</ele><time>2021-03-01T11:53:18Z</time><name>PT4729</name></trkpt>
<trkpt lat="52.094073" lon="05.697275"><ele>38.1</ele><time>2021-03-01T11:53:19Z</time><name>PT4730</name></trkpt>
<trkpt lat="52.094083" lon="05.697273"><ele>38.1</ele><time>2021-03-01T11:53:20Z</time><name>PT4731</name></trkpt>
<trkpt lat="52.094086" lon="05.697276"><ele>38.1</ele><time>2021-03-01T11:53:21Z</time><name>PT4732</name></trkpt>
<trkpt lat="52.094092" lon="05.697279"><ele>38.1</ele><time>2021-03-01T11:53:22Z</time><name>PT4733</name></trkpt>
<trkpt lat="52.094098" lon="05.697285"><ele>38.1</ele><time>2021-03-01T11:53:23Z</time><name>PT4734</name></trkpt>
<trkpt lat="52.094106" lon="05.697292"><ele>38.1</ele><time>2021-03-01T11:53:24Z</time><name>PT4735</name></trkpt>
<trkpt lat="52.094117" lon="05.697293"><ele>38.4</ele><time>2021-03-01T11:53:25Z</time><name>PT4736</name></trkpt>
<trkpt lat="52.094125" lon="05.697304"><ele>38.4</ele><time>2021-03-01T11:53:26Z</time><name>PT4737</name></trkpt>
<trkpt lat="52.094134" lon="05.697321"><ele>38.3</ele><time>2021-03-01T11:53:27Z</time><name>PT4738</name></trkpt>
<trkpt lat="52.094139" lon="05.697333"><ele>38.3</ele><time>2021-03-01T11:53:28Z</time><name>PT4739</name></trkpt>
<trkpt lat="52.094147" lon="05.697340"><ele>38.4</ele><time>2021-03-01T11:53:29Z</time><name>PT4740</name></trkpt>
<trkpt lat="52.094151" lon="05.697350"><ele>38.4</ele><time>2021-03-01T11:53:30Z</time><name>PT4741</name></trkpt>
<trkpt lat="52.094155" lon="05.697365"><ele>38.3</ele><time>2021-03-01T11:53:31Z</time><name>PT4742</name></trkpt>
<trkpt lat="52.094159" lon="05.697378"><ele>38.3</ele><time>2021-03-01T11:53:32Z</time><name>PT4743</name></trkpt>
<trkpt lat="52.094167" lon="05.697386"><ele>38.3</ele><time>2021-03-01T11:53:33Z</time><name>PT4744</name></trkpt>
<trkpt lat="52.094175" lon="05.697400"><ele>38.3</ele><time>2021-03-01T11:53:34Z</time><name>PT4745</name></trkpt>
<trkpt lat="52.094181" lon="05.697410"><ele>38.2</ele><time>2021-03-01T11:53:35Z</time><name>PT4746</name></trkpt>
<trkpt lat="52.094186" lon="05.697422"><ele>38.1</ele><time>2021-03-01T11:53:36Z</time><name>PT4747</name></trkpt>
<trkpt lat="52.094191" lon="05.697437"><ele>38.2</ele><time>2021-03-01T11:53:37Z</time><name>PT4748</name></trkpt>
<trkpt lat="52.094194" lon="05.697449"><ele>38.2</ele><time>2021-03-01T11:53:38Z</time><name>PT4749</name></trkpt>
<trkpt lat="52.094199" lon="05.697460"><ele>38.1</ele><time>2021-03-01T11:53:39Z</time><name>PT4750</name></trkpt>
<trkpt lat="52.094203" lon="05.697472"><ele>38.2</ele><time>2021-03-01T11:53:40Z</time><name>PT4751</name></trkpt>
<trkpt lat="52.094211" lon="05.697482"><ele>38.2</ele><time>2021-03-01T11:53:41Z</time><name>PT4752</name></trkpt>
<trkpt lat="52.094218" lon="05.697492"><ele>38.1</ele><time>2021-03-01T11:53:42Z</time><name>PT4753</name></trkpt>
<trkpt lat="52.094227" lon="05.697496"><ele>38.3</ele><time>2021-03-01T11:53:43Z</time><name>PT4754</name></trkpt>
<trkpt lat="52.094234" lon="05.697500"><ele>38.6</ele><time>2021-03-01T11:53:44Z</time><name>PT4755</name></trkpt>
<trkpt lat="52.094239" lon="05.697503"><ele>38.5</ele><time>2021-03-01T11:53:45Z</time><name>PT4756</name></trkpt>
<trkpt lat="52.094248" lon="05.697511"><ele>38.5</ele><time>2021-03-01T11:53:46Z</time><name>PT4757</name></trkpt>
<trkpt lat="52.094245" lon="05.697512"><ele>38.5</ele><time>2021-03-01T11:53:47Z</time><name>PT4758</name></trkpt>
<trkpt lat="52.094251" lon="05.697523"><ele>38.5</ele><time>2021-03-01T11:53:48Z</time><name>PT4759</name></trkpt>
<trkpt lat="52.094256" lon="05.697521"><ele>38.6</ele><time>2021-03-01T11:53:49Z</time><name>PT4760</name></trkpt>
<trkpt lat="52.094261" lon="05.697519"><ele>39</ele><time>2021-03-01T11:53:50Z</time><name>PT4761</name></trkpt>
<trkpt lat="52.094265" lon="05.697517"><ele>39.2</ele><time>2021-03-01T11:53:51Z</time><name>PT4762</name></trkpt>
<trkpt lat="52.094272" lon="05.697511"><ele>39.5</ele><time>2021-03-01T11:53:52Z</time><name>PT4763</name></trkpt>
<trkpt lat="52.094278" lon="05.697505"><ele>39.9</ele><time>2021-03-01T11:53:53Z</time><name>PT4764</name></trkpt>
<trkpt lat="52.094286" lon="05.697498"><ele>40</ele><time>2021-03-01T11:53:54Z</time><name>PT4765</name></trkpt>
<trkpt lat="52.094291" lon="05.697492"><ele>40.3</ele><time>2021-03-01T11:53:55Z</time><name>PT4766</name></trkpt>
<trkpt lat="52.094294" lon="05.697488"><ele>40.5</ele><time>2021-03-01T11:53:56Z</time><name>PT4767</name></trkpt>
<trkpt lat="52.094298" lon="05.697479"><ele>40.8</ele><time>2021-03-01T11:53:57Z</time><name>PT4768</name></trkpt>
<trkpt lat="52.094304" lon="05.697473"><ele>40.9</ele><time>2021-03-01T11:53:58Z</time><name>PT4769</name></trkpt>
<trkpt lat="52.094311" lon="05.697468"><ele>41.3</ele><time>2021-03-01T11:53:59Z</time><name>PT4770</name></trkpt>
<trkpt lat="52.094330" lon="05.697458"><ele>42.1</ele><time>2021-03-01T11:54:02Z</time><name>PT4771</name></trkpt>
<trkpt lat="52.094343" lon="05.697443"><ele>42.5</ele><time>2021-03-01T11:54:03Z</time><name>PT4772</name></trkpt>
<trkpt lat="52.094351" lon="05.697437"><ele>42.7</ele><time>2021-03-01T11:54:04Z</time><name>PT4773</name></trkpt>
<trkpt lat="52.094360" lon="05.697431"><ele>42.9</ele><time>2021-03-01T11:54:05Z</time><name>PT4774</name></trkpt>
<trkpt lat="52.094367" lon="05.697422"><ele>43</ele><time>2021-03-01T11:54:06Z</time><name>PT4775</name></trkpt>
<trkpt lat="52.094382" lon="05.697416"><ele>43.1</ele><time>2021-03-01T11:54:07Z</time><name>PT4776</name></trkpt>
<trkpt lat="52.094392" lon="05.697411"><ele>43.2</ele><time>2021-03-01T11:54:08Z</time><name>PT4777</name></trkpt>
<trkpt lat="52.094401" lon="05.697410"><ele>43.5</ele><time>2021-03-01T11:54:09Z</time><name>PT4778</name></trkpt>
<trkpt lat="52.094415" lon="05.697403"><ele>43.5</ele><time>2021-03-01T11:54:10Z</time><name>PT4779</name></trkpt>
<trkpt lat="52.094425" lon="05.697401"><ele>43.8</ele><time>2021-03-01T11:54:11Z</time><name>PT4780</name></trkpt>
<trkpt lat="52.094433" lon="05.697401"><ele>43.9</ele><time>2021-03-01T11:54:12Z</time><name>PT4781</name></trkpt>
<trkpt lat="52.094440" lon="05.697401"><ele>44.3</ele><time>2021-03-01T11:54:13Z</time><name>PT4782</name></trkpt>
<trkpt lat="52.094453" lon="05.697397"><ele>44.5</ele><time>2021-03-01T11:54:14Z</time><name>PT4783</name></trkpt>
<trkpt lat="52.094465" lon="05.697394"><ele>44.6</ele><time>2021-03-01T11:54:15Z</time><name>PT4784</name></trkpt>
<trkpt lat="52.094476" lon="05.697391"><ele>44.8</ele><time>2021-03-01T11:54:16Z</time><name>PT4785</name></trkpt>
<trkpt lat="52.094487" lon="05.697387"><ele>45</ele><time>2021-03-01T11:54:17Z</time><name>PT4786</name></trkpt>
<trkpt lat="52.094494" lon="05.697386"><ele>45</ele><time>2021-03-01T11:54:18Z</time><name>PT4787</name></trkpt>
<trkpt lat="52.094503" lon="05.697385"><ele>45.3</ele><time>2021-03-01T11:54:19Z</time><name>PT4788</name></trkpt>
<trkpt lat="52.094514" lon="05.697385"><ele>45.5</ele><time>2021-03-01T11:54:20Z</time><name>PT4789</name></trkpt>
<trkpt lat="52.094523" lon="05.697383"><ele>45.8</ele><time>2021-03-01T11:54:21Z</time><name>PT4790</name></trkpt>
<trkpt lat="52.094536" lon="05.697382"><ele>46</ele><time>2021-03-01T11:54:22Z</time><name>PT4791</name></trkpt>
<trkpt lat="52.094547" lon="05.697382"><ele>46.1</ele><time>2021-03-01T11:54:23Z</time><name>PT4792</name></trkpt>
<trkpt lat="52.094558" lon="05.697387"><ele>46.2</ele><time>2021-03-01T11:54:24Z</time><name>PT4793</name></trkpt>
<trkpt lat="52.094567" lon="05.697391"><ele>46.2</ele><time>2021-03-01T11:54:25Z</time><name>PT4794</name></trkpt>
<trkpt lat="52.094575" lon="05.697395"><ele>46.2</ele><time>2021-03-01T11:54:26Z</time><name>PT4795</name></trkpt>
<trkpt lat="52.094584" lon="05.697399"><ele>46.5</ele><time>2021-03-01T11:54:27Z</time><name>PT4796</name></trkpt>
<trkpt lat="52.094600" lon="05.697396"><ele>46.7</ele><time>2021-03-01T11:54:28Z</time><name>PT4797</name></trkpt>
<trkpt lat="52.094613" lon="05.697400"><ele>47.3</ele><time>2021-03-01T11:54:29Z</time><name>PT4798</name></trkpt>
<trkpt lat="52.094624" lon="05.697402"><ele>47.5</ele><time>2021-03-01T11:54:30Z</time><name>PT4799</name></trkpt>
<trkpt lat="52.094633" lon="05.697406"><ele>47.7</ele><time>2021-03-01T11:54:31Z</time><name>PT4800</name></trkpt>
<trkpt lat="52.094645" lon="05.697411"><ele>47.8</ele><time>2021-03-01T11:54:32Z</time><name>PT4801</name></trkpt>
<trkpt lat="52.094656" lon="05.697416"><ele>48.1</ele><time>2021-03-01T11:54:33Z</time><name>PT4802</name></trkpt>
<trkpt lat="52.094666" lon="05.697421"><ele>48.3</ele><time>2021-03-01T11:54:34Z</time><name>PT4803</name></trkpt>
<trkpt lat="52.094676" lon="05.697424"><ele>48.4</ele><time>2021-03-01T11:54:35Z</time><name>PT4804</name></trkpt>
<trkpt lat="52.094687" lon="05.697431"><ele>48.7</ele><time>2021-03-01T11:54:36Z</time><name>PT4805</name></trkpt>
<trkpt lat="52.094696" lon="05.697437"><ele>48.8</ele><time>2021-03-01T11:54:37Z</time><name>PT4806</name></trkpt>
<trkpt lat="52.094707" lon="05.697443"><ele>48.9</ele><time>2021-03-01T11:54:38Z</time><name>PT4807</name></trkpt>
<trkpt lat="52.094716" lon="05.697447"><ele>49.1</ele><time>2021-03-01T11:54:39Z</time><name>PT4808</name></trkpt>
<trkpt lat="52.094727" lon="05.697454"><ele>49.3</ele><time>2021-03-01T11:54:40Z</time><name>PT4809</name></trkpt>
<trkpt lat="52.094737" lon="05.697466"><ele>49.3</ele><time>2021-03-01T11:54:41Z</time><name>PT4810</name></trkpt>
<trkpt lat="52.094748" lon="05.697472"><ele>49.5</ele><time>2021-03-01T11:54:42Z</time><name>PT4811</name></trkpt>
<trkpt lat="52.094757" lon="05.697479"><ele>49.7</ele><time>2021-03-01T11:54:43Z</time><name>PT4812</name></trkpt>
<trkpt lat="52.094766" lon="05.697490"><ele>49.9</ele><time>2021-03-01T11:54:44Z</time><name>PT4813</name></trkpt>
<trkpt lat="52.094774" lon="05.697502"><ele>50.1</ele><time>2021-03-01T11:54:45Z</time><name>PT4814</name></trkpt>
<trkpt lat="52.094783" lon="05.697512"><ele>50.3</ele><time>2021-03-01T11:54:46Z</time><name>PT4815</name></trkpt>
<trkpt lat="52.094793" lon="05.697520"><ele>50.6</ele><time>2021-03-01T11:54:47Z</time><name>PT4816</name></trkpt>
<trkpt lat="52.094801" lon="05.697529"><ele>50.7</ele><time>2021-03-01T11:54:48Z</time><name>PT4817</name></trkpt>
<trkpt lat="52.094808" lon="05.697539"><ele>51.1</ele><time>2021-03-01T11:54:49Z</time><name>PT4818</name></trkpt>
<trkpt lat="52.094815" lon="05.697548"><ele>51.3</ele><time>2021-03-01T11:54:50Z</time><name>PT4819</name></trkpt>
<trkpt lat="52.094823" lon="05.697558"><ele>51.5</ele><time>2021-03-01T11:54:51Z</time><name>PT4820</name></trkpt>
<trkpt lat="52.094831" lon="05.697567"><ele>51.5</ele><time>2021-03-01T11:54:52Z</time><name>PT4821</name></trkpt>
<trkpt lat="52.094840" lon="05.697576"><ele>51.6</ele><time>2021-03-01T11:54:53Z</time><name>PT4822</name></trkpt>
<trkpt lat="52.094848" lon="05.697587"><ele>51.5</ele><time>2021-03-01T11:54:54Z</time><name>PT4823</name></trkpt>
<trkpt lat="52.094856" lon="05.697598"><ele>51.5</ele><time>2021-03-01T11:54:55Z</time><name>PT4824</name></trkpt>
<trkpt lat="52.094864" lon="05.697606"><ele>51.7</ele><time>2021-03-01T11:54:56Z</time><name>PT4825</name></trkpt>
<trkpt lat="52.094875" lon="05.697612"><ele>51.6</ele><time>2021-03-01T11:54:57Z</time><name>PT4826</name></trkpt>
<trkpt lat="52.094885" lon="05.697619"><ele>51.6</ele><time>2021-03-01T11:54:58Z</time><name>PT4827</name></trkpt>
<trkpt lat="52.094893" lon="05.697626"><ele>51.6</ele><time>2021-03-01T11:54:59Z</time><name>PT4828</name></trkpt>
<trkpt lat="52.094901" lon="05.697630"><ele>51.8</ele><time>2021-03-01T11:55:00Z</time><name>PT4829</name></trkpt>
<trkpt lat="52.094906" lon="05.697634"><ele>52</ele><time>2021-03-01T11:55:01Z</time><name>PT4830</name></trkpt>
<trkpt lat="52.094913" lon="05.697635"><ele>52</ele><time>2021-03-01T11:55:02Z</time><name>PT4831</name></trkpt>
<trkpt lat="52.094916" lon="05.697641"><ele>52.2</ele><time>2021-03-01T11:55:03Z</time><name>PT4832</name></trkpt>
<trkpt lat="52.094917" lon="05.697643"><ele>52</ele><time>2021-03-01T11:55:04Z</time><name>PT4833</name></trkpt>
<trkpt lat="52.094917" lon="05.697646"><ele>51.9</ele><time>2021-03-01T11:55:05Z</time><name>PT4834</name></trkpt>
<trkpt lat="52.094920" lon="05.697646"><ele>52</ele><time>2021-03-01T11:55:06Z</time><name>PT4835</name></trkpt>
<trkpt lat="52.094927" lon="05.697650"><ele>51.9</ele><time>2021-03-01T11:55:07Z</time><name>PT4836</name></trkpt>
<trkpt lat="52.094937" lon="05.697658"><ele>51.9</ele><time>2021-03-01T11:55:08Z</time><name>PT4837</name></trkpt>
<trkpt lat="52.094943" lon="05.697667"><ele>52</ele><time>2021-03-01T11:55:09Z</time><name>PT4838</name></trkpt>
<trkpt lat="52.094950" lon="05.697678"><ele>52</ele><time>2021-03-01T11:55:10Z</time><name>PT4839</name></trkpt>
<trkpt lat="52.094957" lon="05.697686"><ele>52</ele><time>2021-03-01T11:55:11Z</time><name>PT4840</name></trkpt>
<trkpt lat="52.094962" lon="05.697697"><ele>52</ele><time>2021-03-01T11:55:12Z</time><name>PT4841</name></trkpt>
<trkpt lat="52.094967" lon="05.697707"><ele>52.1</ele><time>2021-03-01T11:55:13Z</time><name>PT4842</name></trkpt>
<trkpt lat="52.094971" lon="05.697716"><ele>52</ele><time>2021-03-01T11:55:14Z</time><name>PT4843</name></trkpt>
<trkpt lat="52.094973" lon="05.697723"><ele>52</ele><time>2021-03-01T11:55:15Z</time><name>PT4844</name></trkpt>
<trkpt lat="52.094972" lon="05.697729"><ele>52.2</ele><time>2021-03-01T11:55:16Z</time><name>PT4845</name></trkpt>
<trkpt lat="52.094970" lon="05.697737"><ele>52.6</ele><time>2021-03-01T11:55:17Z</time><name>PT4846</name></trkpt>
<trkpt lat="52.094969" lon="05.697746"><ele>52.8</ele><time>2021-03-01T11:55:18Z</time><name>PT4847</name></trkpt>
<trkpt lat="52.094969" lon="05.697754"><ele>52.9</ele><time>2021-03-01T11:55:19Z</time><name>PT4848</name></trkpt>
<trkpt lat="52.094966" lon="05.697762"><ele>53</ele><time>2021-03-01T11:55:20Z</time><name>PT4849</name></trkpt>
<trkpt lat="52.094964" lon="05.697768"><ele>53.1</ele><time>2021-03-01T11:55:21Z</time><name>PT4850</name></trkpt>
<trkpt lat="52.094963" lon="05.697772"><ele>53.3</ele><time>2021-03-01T11:55:22Z</time><name>PT4851</name></trkpt>
<trkpt lat="52.094964" lon="05.697775"><ele>53.2</ele><time>2021-03-01T11:55:23Z</time><name>PT4852</name></trkpt>
<trkpt lat="52.094961" lon="05.697781"><ele>52.4</ele><time>2021-03-01T11:55:24Z</time><name>PT4853</name></trkpt>
<trkpt lat="52.094955" lon="05.697785"><ele>52.2</ele><time>2021-03-01T11:55:25Z</time><name>PT4854</name></trkpt>
<trkpt lat="52.094950" lon="05.697789"><ele>52.2</ele><time>2021-03-01T11:55:26Z</time><name>PT4855</name></trkpt>
<trkpt lat="52.094947" lon="05.697794"><ele>52.4</ele><time>2021-03-01T11:55:27Z</time><name>PT4856</name></trkpt>
<trkpt lat="52.094943" lon="05.697799"><ele>53.3</ele><time>2021-03-01T11:55:28Z</time><name>PT4857</name></trkpt>
<trkpt lat="52.094938" lon="05.697801"><ele>53.8</ele><time>2021-03-01T11:55:29Z</time><name>PT4858</name></trkpt>
<trkpt lat="52.094931" lon="05.697807"><ele>54</ele><time>2021-03-01T11:55:30Z</time><name>PT4859</name></trkpt>
<trkpt lat="52.094925" lon="05.697813"><ele>54.4</ele><time>2021-03-01T11:55:31Z</time><name>PT4860</name></trkpt>
<trkpt lat="52.094922" lon="05.697814"><ele>54.8</ele><time>2021-03-01T11:55:32Z</time><name>PT4861</name></trkpt>
<trkpt lat="52.094915" lon="05.697816"><ele>55.3</ele><time>2021-03-01T11:55:33Z</time><name>PT4862</name></trkpt>
<trkpt lat="52.094908" lon="05.697817"><ele>55.6</ele><time>2021-03-01T11:55:34Z</time><name>PT4863</name></trkpt>
<trkpt lat="52.094901" lon="05.697821"><ele>56</ele><time>2021-03-01T11:55:35Z</time><name>PT4864</name></trkpt>
<trkpt lat="52.094895" lon="05.697826"><ele>56.2</ele><time>2021-03-01T11:55:36Z</time><name>PT4865</name></trkpt>
<trkpt lat="52.094887" lon="05.697828"><ele>56.3</ele><time>2021-03-01T11:55:37Z</time><name>PT4866</name></trkpt>
<trkpt lat="52.094880" lon="05.697830"><ele>56.5</ele><time>2021-03-01T11:55:38Z</time><name>PT4867</name></trkpt>
<trkpt lat="52.094873" lon="05.697832"><ele>56.5</ele><time>2021-03-01T11:55:39Z</time><name>PT4868</name></trkpt>
<trkpt lat="52.094866" lon="05.697837"><ele>56.5</ele><time>2021-03-01T11:55:40Z</time><name>PT4869</name></trkpt>
<trkpt lat="52.094860" lon="05.697843"><ele>56.8</ele><time>2021-03-01T11:55:41Z</time><name>PT4870</name></trkpt>
<trkpt lat="52.094852" lon="05.697847"><ele>56.9</ele><time>2021-03-01T11:55:42Z</time><name>PT4871</name></trkpt>
<trkpt lat="52.094846" lon="05.697851"><ele>56.9</ele><time>2021-03-01T11:55:43Z</time><name>PT4872</name></trkpt>
<trkpt lat="52.094840" lon="05.697856"><ele>57.1</ele><time>2021-03-01T11:55:44Z</time><name>PT4873</name></trkpt>
<trkpt lat="52.094835" lon="05.697858"><ele>57.4</ele><time>2021-03-01T11:55:45Z</time><name>PT4874</name></trkpt>
<trkpt lat="52.094829" lon="05.697858"><ele>57.7</ele><time>2021-03-01T11:55:46Z</time><name>PT4875</name></trkpt>
<trkpt lat="52.094821" lon="05.697861"><ele>58</ele><time>2021-03-01T11:55:47Z</time><name>PT4876</name></trkpt>
<trkpt lat="52.094814" lon="05.697864"><ele>58.3</ele><time>2021-03-01T11:55:48Z</time><name>PT4877</name></trkpt>
<trkpt lat="52.094807" lon="05.697866"><ele>58.4</ele><time>2021-03-01T11:55:49Z</time><name>PT4878</name></trkpt>
<trkpt lat="52.094798" lon="05.697867"><ele>58.6</ele><time>2021-03-01T11:55:50Z</time><name>PT4879</name></trkpt>
<trkpt lat="52.094790" lon="05.697868"><ele>58.7</ele><time>2021-03-01T11:55:51Z</time><name>PT4880</name></trkpt>
<trkpt lat="52.094783" lon="05.697870"><ele>58.7</ele><time>2021-03-01T11:55:52Z</time><name>PT4881</name></trkpt>
<trkpt lat="52.094776" lon="05.697872"><ele>59.1</ele><time>2021-03-01T11:55:53Z</time><name>PT4882</name></trkpt>
<trkpt lat="52.094770" lon="05.697876"><ele>59</ele><time>2021-03-01T11:55:54Z</time><name>PT4883</name></trkpt>
<trkpt lat="52.094763" lon="05.697880"><ele>59.4</ele><time>2021-03-01T11:55:55Z</time><name>PT4884</name></trkpt>
<trkpt lat="52.094755" lon="05.697885"><ele>59.5</ele><time>2021-03-01T11:55:56Z</time><name>PT4885</name></trkpt>
<trkpt lat="52.094747" lon="05.697888"><ele>59.6</ele><time>2021-03-01T11:55:57Z</time><name>PT4886</name></trkpt>
<trkpt lat="52.094736" lon="05.697885"><ele>59.8</ele><time>2021-03-01T11:55:59Z</time><name>PT4887</name></trkpt>
<trkpt lat="52.094729" lon="05.697885"><ele>60.1</ele><time>2021-03-01T11:55:59Z</time><name>PT4888</name></trkpt>
<trkpt lat="52.094723" lon="05.697888"><ele>60.3</ele><time>2021-03-01T11:56:00Z</time><name>PT4889</name></trkpt>
<trkpt lat="52.094716" lon="05.697893"><ele>60.4</ele><time>2021-03-01T11:56:01Z</time><name>PT4890</name></trkpt>
<trkpt lat="52.094710" lon="05.697901"><ele>60.6</ele><time>2021-03-01T11:56:02Z</time><name>PT4891</name></trkpt>
<trkpt lat="52.094704" lon="05.697909"><ele>60.9</ele><time>2021-03-01T11:56:03Z</time><name>PT4892</name></trkpt>
<trkpt lat="52.094701" lon="05.697917"><ele>61</ele><time>2021-03-01T11:56:04Z</time><name>PT4893</name></trkpt>
<trkpt lat="52.094700" lon="05.697926"><ele>61.3</ele><time>2021-03-01T11:56:05Z</time><name>PT4894</name></trkpt>
<trkpt lat="52.094700" lon="05.697937"><ele>61.6</ele><time>2021-03-01T11:56:06Z</time><name>PT4895</name></trkpt>
<trkpt lat="52.094703" lon="05.697946"><ele>61.7</ele><time>2021-03-01T11:56:07Z</time><name>PT4896</name></trkpt>
<trkpt lat="52.094705" lon="05.697956"><ele>61.9</ele><time>2021-03-01T11:56:08Z</time><name>PT4897</name></trkpt>
<trkpt lat="52.094708" lon="05.697966"><ele>62.1</ele><time>2021-03-01T11:56:09Z</time><name>PT4898</name></trkpt>
<trkpt lat="52.094708" lon="05.697976"><ele>62.3</ele><time>2021-03-01T11:56:10Z</time><name>PT4899</name></trkpt>
<trkpt lat="52.094710" lon="05.697985"><ele>62.2</ele><time>2021-03-01T11:56:11Z</time><name>PT4900</name></trkpt>
<trkpt lat="52.094712" lon="05.697994"><ele>62.2</ele><time>2021-03-01T11:56:12Z</time><name>PT4901</name></trkpt>
<trkpt lat="52.094714" lon="05.698007"><ele>62.2</ele><time>2021-03-01T11:56:13Z</time><name>PT4902</name></trkpt>
<trkpt lat="52.094716" lon="05.698021"><ele>62.3</ele><time>2021-03-01T11:56:14Z</time><name>PT4903</name></trkpt>
<trkpt lat="52.094717" lon="05.698034"><ele>62.6</ele><time>2021-03-01T11:56:15Z</time><name>PT4904</name></trkpt>
<trkpt lat="52.094717" lon="05.698046"><ele>62.6</ele><time>2021-03-01T11:56:16Z</time><name>PT4905</name></trkpt>
<trkpt lat="52.094718" lon="05.698057"><ele>62.7</ele><time>2021-03-01T11:56:17Z</time><name>PT4906</name></trkpt>
<trkpt lat="52.094720" lon="05.698066"><ele>63.1</ele><time>2021-03-01T11:56:18Z</time><name>PT4907</name></trkpt>
<trkpt lat="52.094720" lon="05.698077"><ele>63</ele><time>2021-03-01T11:56:19Z</time><name>PT4908</name></trkpt>
<trkpt lat="52.094720" lon="05.698087"><ele>63.1</ele><time>2021-03-01T11:56:20Z</time><name>PT4909</name></trkpt>
<trkpt lat="52.094720" lon="05.698097"><ele>63.1</ele><time>2021-03-01T11:56:21Z</time><name>PT4910</name></trkpt>
<trkpt lat="52.094721" lon="05.698102"><ele>63.2</ele><time>2021-03-01T11:56:22Z</time><name>PT4911</name></trkpt>
<trkpt lat="52.094720" lon="05.698110"><ele>63.7</ele><time>2021-03-01T11:56:24Z</time><name>PT4912</name></trkpt>
<trkpt lat="52.094719" lon="05.698116"><ele>63.7</ele><time>2021-03-01T11:56:24Z</time><name>PT4913</name></trkpt>
<trkpt lat="52.094718" lon="05.698120"><ele>64.2</ele><time>2021-03-01T11:56:25Z</time><name>PT4914</name></trkpt>
<trkpt lat="52.094720" lon="05.698127"><ele>64.4</ele><time>2021-03-01T11:56:28Z</time><name>PT4915</name></trkpt>
<trkpt lat="52.094723" lon="05.698135"><ele>64.5</ele><time>2021-03-01T11:56:29Z</time><name>PT4916</name></trkpt>
<trkpt lat="52.094728" lon="05.698146"><ele>64.3</ele><time>2021-03-01T11:56:30Z</time><name>PT4917</name></trkpt>
<trkpt lat="52.094728" lon="05.698156"><ele>64.1</ele><time>2021-03-01T11:56:31Z</time><name>PT4918</name></trkpt>
<trkpt lat="52.094730" lon="05.698167"><ele>64</ele><time>2021-03-01T11:56:32Z</time><name>PT4919</name></trkpt>
<trkpt lat="52.094731" lon="05.698179"><ele>63.9</ele><time>2021-03-01T11:56:33Z</time><name>PT4920</name></trkpt>
<trkpt lat="52.094733" lon="05.698191"><ele>64</ele><time>2021-03-01T11:56:34Z</time><name>PT4921</name></trkpt>
<trkpt lat="52.094733" lon="05.698204"><ele>64</ele><time>2021-03-01T11:56:35Z</time><name>PT4922</name></trkpt>
<trkpt lat="52.094735" lon="05.698216"><ele>64.1</ele><time>2021-03-01T11:56:36Z</time><name>PT4923</name></trkpt>
<trkpt lat="52.094737" lon="05.698226"><ele>64.1</ele><time>2021-03-01T11:56:37Z</time><name>PT4924</name></trkpt>
<trkpt lat="52.094738" lon="05.698238"><ele>64.2</ele><time>2021-03-01T11:56:38Z</time><name>PT4925</name></trkpt>
<trkpt lat="52.094740" lon="05.698248"><ele>64.3</ele><time>2021-03-01T11:56:39Z</time><name>PT4926</name></trkpt>
<trkpt lat="52.094742" lon="05.698259"><ele>64.5</ele><time>2021-03-01T11:56:40Z</time><name>PT4927</name></trkpt>
<trkpt lat="52.094740" lon="05.698271"><ele>64.4</ele><time>2021-03-01T11:56:41Z</time><name>PT4928</name></trkpt>
<trkpt lat="52.094738" lon="05.698281"><ele>64.2</ele><time>2021-03-01T11:56:42Z</time><name>PT4929</name></trkpt>
<trkpt lat="52.094739" lon="05.698290"><ele>64.3</ele><time>2021-03-01T11:56:43Z</time><name>PT4930</name></trkpt>
<trkpt lat="52.094740" lon="05.698300"><ele>64.4</ele><time>2021-03-01T11:56:44Z</time><name>PT4931</name></trkpt>
<trkpt lat="52.094740" lon="05.698310"><ele>65.3</ele><time>2021-03-01T11:56:45Z</time><name>PT4932</name></trkpt>
<trkpt lat="52.094741" lon="05.698317"><ele>65.8</ele><time>2021-03-01T11:56:46Z</time><name>PT4933</name></trkpt>
<trkpt lat="52.094742" lon="05.698318"><ele>65.9</ele><time>2021-03-01T11:56:47Z</time><name>PT4934</name></trkpt>
<trkpt lat="52.094743" lon="05.698316"><ele>65.9</ele><time>2021-03-01T11:56:48Z</time><name>PT4935</name></trkpt>
<trkpt lat="52.094743" lon="05.698316"><ele>65.6</ele><time>2021-03-01T11:56:49Z</time><name>PT4936</name></trkpt>
<trkpt lat="52.094745" lon="05.698322"><ele>64.6</ele><time>2021-03-01T11:57:00Z</time><name>PT4937</name></trkpt>
<trkpt lat="52.094745" lon="05.698328"><ele>64.8</ele><time>2021-03-01T11:57:01Z</time><name>PT4938</name></trkpt>
<trkpt lat="52.094744" lon="05.698330"><ele>64.8</ele><time>2021-03-01T11:57:02Z</time><name>PT4939</name></trkpt>
<trkpt lat="52.094741" lon="05.698335"><ele>64.8</ele><time>2021-03-01T11:57:03Z</time><name>PT4940</name></trkpt>
<trkpt lat="52.094738" lon="05.698341"><ele>64.8</ele><time>2021-03-01T11:57:04Z</time><name>PT4941</name></trkpt>
<trkpt lat="52.094738" lon="05.698341"><ele>64.7</ele><time>2021-03-01T11:57:05Z</time><name>PT4942</name></trkpt>
<trkpt lat="52.094737" lon="05.698340"><ele>64.7</ele><time>2021-03-01T11:57:06Z</time><name>PT4943</name></trkpt>
<trkpt lat="52.094736" lon="05.698346"><ele>64.5</ele><time>2021-03-01T11:57:17Z</time><name>PT4944</name></trkpt>
<trkpt lat="52.094738" lon="05.698362"><ele>64.3</ele><time>2021-03-01T11:57:18Z</time><name>PT4945</name></trkpt>
<trkpt lat="52.094740" lon="05.698383"><ele>64.1</ele><time>2021-03-01T11:57:19Z</time><name>PT4946</name></trkpt>
<trkpt lat="52.094742" lon="05.698398"><ele>64.2</ele><time>2021-03-01T11:57:20Z</time><name>PT4947</name></trkpt>
<trkpt lat="52.094744" lon="05.698412"><ele>64.3</ele><time>2021-03-01T11:57:21Z</time><name>PT4948</name></trkpt>
<trkpt lat="52.094745" lon="05.698424"><ele>64.4</ele><time>2021-03-01T11:57:22Z</time><name>PT4949</name></trkpt>
<trkpt lat="52.094744" lon="05.698440"><ele>64.3</ele><time>2021-03-01T11:57:23Z</time><name>PT4950</name></trkpt>
<trkpt lat="52.094743" lon="05.698455"><ele>64.3</ele><time>2021-03-01T11:57:24Z</time><name>PT4951</name></trkpt>
<trkpt lat="52.094742" lon="05.698469"><ele>64.4</ele><time>2021-03-01T11:57:25Z</time><name>PT4952</name></trkpt>
<trkpt lat="52.094740" lon="05.698482"><ele>64.1</ele><time>2021-03-01T11:57:27Z</time><name>PT4953</name></trkpt>
<trkpt lat="52.094741" lon="05.698498"><ele>64.1</ele><time>2021-03-01T11:57:27Z</time><name>PT4954</name></trkpt>
<trkpt lat="52.094742" lon="05.698510"><ele>64.2</ele><time>2021-03-01T11:57:28Z</time><name>PT4955</name></trkpt>
<trkpt lat="52.094744" lon="05.698524"><ele>64.1</ele><time>2021-03-01T11:57:29Z</time><name>PT4956</name></trkpt>
<trkpt lat="52.094747" lon="05.698533"><ele>64</ele><time>2021-03-01T11:57:30Z</time><name>PT4957</name></trkpt>
<trkpt lat="52.094749" lon="05.698539"><ele>64.1</ele><time>2021-03-01T11:57:31Z</time><name>PT4958</name></trkpt>
<trkpt lat="52.094749" lon="05.698541"><ele>63.9</ele><time>2021-03-01T11:57:32Z</time><name>PT4959</name></trkpt>
<trkpt lat="52.094747" lon="05.698543"><ele>63.7</ele><time>2021-03-01T11:57:33Z</time><name>PT4960</name></trkpt>
<trkpt lat="52.094747" lon="05.698546"><ele>64.1</ele><time>2021-03-01T11:57:34Z</time><name>PT4961</name></trkpt>
<trkpt lat="52.094748" lon="05.698559"><ele>64.1</ele><time>2021-03-01T11:57:42Z</time><name>PT4962</name></trkpt>
<trkpt lat="52.094755" lon="05.698570"><ele>64</ele><time>2021-03-01T11:57:43Z</time><name>PT4963</name></trkpt>
<trkpt lat="52.094761" lon="05.698583"><ele>64</ele><time>2021-03-01T11:57:44Z</time><name>PT4964</name></trkpt>
<trkpt lat="52.094766" lon="05.698600"><ele>64.1</ele><time>2021-03-01T11:57:45Z</time><name>PT4965</name></trkpt>
<trkpt lat="52.094771" lon="05.698613"><ele>64.1</ele><time>2021-03-01T11:57:46Z</time><name>PT4966</name></trkpt>
<trkpt lat="52.094776" lon="05.698628"><ele>64.2</ele><time>2021-03-01T11:57:47Z</time><name>PT4967</name></trkpt>
<trkpt lat="52.094778" lon="05.698641"><ele>64.4</ele><time>2021-03-01T11:57:48Z</time><name>PT4968</name></trkpt>
<trkpt lat="52.094779" lon="05.698650"><ele>64.2</ele><time>2021-03-01T11:57:49Z</time><name>PT4969</name></trkpt>
<trkpt lat="52.094779" lon="05.698652"><ele>64.1</ele><time>2021-03-01T11:57:50Z</time><name>PT4970</name></trkpt>
<trkpt lat="52.094780" lon="05.698652"><ele>64.2</ele><time>2021-03-01T11:57:51Z</time><name>PT4971</name></trkpt>
<trkpt lat="52.094780" lon="05.698653"><ele>64.3</ele><time>2021-03-01T11:57:52Z</time><name>PT4972</name></trkpt>
<trkpt lat="52.094784" lon="05.698660"><ele>64.6</ele><time>2021-03-01T11:58:08Z</time><name>PT4973</name></trkpt>
<trkpt lat="52.094791" lon="05.698675"><ele>64.8</ele><time>2021-03-01T11:58:09Z</time><name>PT4974</name></trkpt>
<trkpt lat="52.094798" lon="05.698692"><ele>64.9</ele><time>2021-03-01T11:58:10Z</time><name>PT4975</name></trkpt>
<trkpt lat="52.094805" lon="05.698709"><ele>64.9</ele><time>2021-03-01T11:58:11Z</time><name>PT4976</name></trkpt>
<trkpt lat="52.094810" lon="05.698723"><ele>64.7</ele><time>2021-03-01T11:58:12Z</time><name>PT4977</name></trkpt>
<trkpt lat="52.094817" lon="05.698733"><ele>64.6</ele><time>2021-03-01T11:58:13Z</time><name>PT4978</name></trkpt>
<trkpt lat="52.094824" lon="05.698743"><ele>64.6</ele><time>2021-03-01T11:58:14Z</time><name>PT4979</name></trkpt>
<trkpt lat="52.094830" lon="05.698754"><ele>64.4</ele><time>2021-03-01T11:58:15Z</time><name>PT4980</name></trkpt>
<trkpt lat="52.094838" lon="05.698761"><ele>64.5</ele><time>2021-03-01T11:58:16Z</time><name>PT4981</name></trkpt>
<trkpt lat="52.094847" lon="05.698770"><ele>64.6</ele><time>2021-03-01T11:58:17Z</time><name>PT4982</name></trkpt>
<trkpt lat="52.094856" lon="05.698778"><ele>64.6</ele><time>2021-03-01T11:58:18Z</time><name>PT4983</name></trkpt>
<trkpt lat="52.094864" lon="05.698788"><ele>64.5</ele><time>2021-03-01T11:58:19Z</time><name>PT4984</name></trkpt>
<trkpt lat="52.094873" lon="05.698793"><ele>64.5</ele><time>2021-03-01T11:58:20Z</time><name>PT4985</name></trkpt>
<trkpt lat="52.094881" lon="05.698800"><ele>64.5</ele><time>2021-03-01T11:58:21Z</time><name>PT4986</name></trkpt>
<trkpt lat="52.094888" lon="05.698807"><ele>64.6</ele><time>2021-03-01T11:58:22Z</time><name>PT4987</name></trkpt>
<trkpt lat="52.094895" lon="05.698815"><ele>64.8</ele><time>2021-03-01T11:58:23Z</time><name>PT4988</name></trkpt>
<trkpt lat="52.094904" lon="05.698824"><ele>64.8</ele><time>2021-03-01T11:58:24Z</time><name>PT4989</name></trkpt>
<trkpt lat="52.094913" lon="05.698831"><ele>64.8</ele><time>2021-03-01T11:58:25Z</time><name>PT4990</name></trkpt>
<trkpt lat="52.094924" lon="05.698837"><ele>64.7</ele><time>2021-03-01T11:58:26Z</time><name>PT4991</name></trkpt>
<trkpt lat="52.094931" lon="05.698842"><ele>64.6</ele><time>2021-03-01T11:58:27Z</time><name>PT4992</name></trkpt>
<trkpt lat="52.094939" lon="05.698853"><ele>64.6</ele><time>2021-03-01T11:58:28Z</time><name>PT4993</name></trkpt>
<trkpt lat="52.094948" lon="05.698863"><ele>64.6</ele><time>2021-03-01T11:58:30Z</time><name>PT4994</name></trkpt>
<trkpt lat="52.094957" lon="05.698870"><ele>64.4</ele><time>2021-03-01T11:58:30Z</time><name>PT4995</name></trkpt>
<trkpt lat="52.094968" lon="05.698876"><ele>64.4</ele><time>2021-03-01T11:58:31Z</time><name>PT4996</name></trkpt>
<trkpt lat="52.094978" lon="05.698883"><ele>64.4</ele><time>2021-03-01T11:58:32Z</time><name>PT4997</name></trkpt>
<trkpt lat="52.094989" lon="05.698888"><ele>64.5</ele><time>2021-03-01T11:58:33Z</time><name>PT4998</name></trkpt>
<trkpt lat="52.094998" lon="05.698895"><ele>64.5</ele><time>2021-03-01T11:58:34Z</time><name>PT4999</name></trkpt>
<trkpt lat="52.095008" lon="05.698901"><ele>64.4</ele><time>2021-03-01T11:58:35Z</time><name>PT5000</name></trkpt>
<trkpt lat="52.095019" lon="05.698907"><ele>64.4</ele><time>2021-03-01T11:58:36Z</time><name>PT5001</name></trkpt>
<trkpt lat="52.095029" lon="05.698914"><ele>64.1</ele><time>2021-03-01T11:58:37Z</time><name>PT5002</name></trkpt>
<trkpt lat="52.095039" lon="05.698919"><ele>64.1</ele><time>2021-03-01T11:58:38Z</time><name>PT5003</name></trkpt>
<trkpt lat="52.095046" lon="05.698922"><ele>64.2</ele><time>2021-03-01T11:58:39Z</time><name>PT5004</name></trkpt>
<trkpt lat="52.095046" lon="05.698922"><ele>64.4</ele><time>2021-03-01T11:58:40Z</time><name>PT5005</name></trkpt>
<trkpt lat="52.095045" lon="05.698922"><ele>64.6</ele><time>2021-03-01T11:58:41Z</time><name>PT5006</name></trkpt>
<trkpt lat="52.095044" lon="05.698925"><ele>64.6</ele><time>2021-03-01T11:58:43Z</time><name>PT5007</name></trkpt>
<trkpt lat="52.095045" lon="05.698931"><ele>64.6</ele><time>2021-03-01T11:58:48Z</time><name>PT5008</name></trkpt>
<trkpt lat="52.095056" lon="05.698940"><ele>64.5</ele><time>2021-03-01T11:58:49Z</time><name>PT5009</name></trkpt>
<trkpt lat="52.095066" lon="05.698949"><ele>64.5</ele><time>2021-03-01T11:58:50Z</time><name>PT5010</name></trkpt>
<trkpt lat="52.095076" lon="05.698955"><ele>64.6</ele><time>2021-03-01T11:58:51Z</time><name>PT5011</name></trkpt>
<trkpt lat="52.095087" lon="05.698962"><ele>64.6</ele><time>2021-03-01T11:58:52Z</time><name>PT5012</name></trkpt>
<trkpt lat="52.095097" lon="05.698969"><ele>64.6</ele><time>2021-03-01T11:58:53Z</time><name>PT5013</name></trkpt>
<trkpt lat="52.095102" lon="05.698967"><ele>64.7</ele><time>2021-03-01T11:58:54Z</time><name>PT5014</name></trkpt>
<trkpt lat="52.095103" lon="05.698967"><ele>64.6</ele><time>2021-03-01T11:58:55Z</time><name>PT5015</name></trkpt>
<trkpt lat="52.095104" lon="05.698968"><ele>64.5</ele><time>2021-03-01T11:58:56Z</time><name>PT5016</name></trkpt>
<trkpt lat="52.095105" lon="05.698966"><ele>64.4</ele><time>2021-03-01T11:58:58Z</time><name>PT5017</name></trkpt>
<trkpt lat="52.095107" lon="05.698965"><ele>64.5</ele><time>2021-03-01T11:59:01Z</time><name>PT5018</name></trkpt>
<trkpt lat="52.095118" lon="05.698968"><ele>64.6</ele><time>2021-03-01T11:59:01Z</time><name>PT5019</name></trkpt>
<trkpt lat="52.095128" lon="05.698974"><ele>64.5</ele><time>2021-03-01T11:59:02Z</time><name>PT5020</name></trkpt>
<trkpt lat="52.095139" lon="05.698979"><ele>64.3</ele><time>2021-03-01T11:59:03Z</time><name>PT5021</name></trkpt>
<trkpt lat="52.095152" lon="05.698985"><ele>64.4</ele><time>2021-03-01T11:59:04Z</time><name>PT5022</name></trkpt>
<trkpt lat="52.095164" lon="05.698992"><ele>64.2</ele><time>2021-03-01T11:59:05Z</time><name>PT5023</name></trkpt>
<trkpt lat="52.095174" lon="05.699000"><ele>64.2</ele><time>2021-03-01T11:59:06Z</time><name>PT5024</name></trkpt>
<trkpt lat="52.095184" lon="05.699005"><ele>64.4</ele><time>2021-03-01T11:59:07Z</time><name>PT5025</name></trkpt>
<trkpt lat="52.095195" lon="05.699007"><ele>64.5</ele><time>2021-03-01T11:59:08Z</time><name>PT5026</name></trkpt>
<trkpt lat="52.095206" lon="05.699011"><ele>64.5</ele><time>2021-03-01T11:59:09Z</time><name>PT5027</name></trkpt>
<trkpt lat="52.095216" lon="05.699013"><ele>64.5</ele><time>2021-03-01T11:59:10Z</time><name>PT5028</name></trkpt>
<trkpt lat="52.095228" lon="05.699017"><ele>64.6</ele><time>2021-03-01T11:59:11Z</time><name>PT5029</name></trkpt>
<trkpt lat="52.095238" lon="05.699023"><ele>64.5</ele><time>2021-03-01T11:59:12Z</time><name>PT5030</name></trkpt>
<trkpt lat="52.095248" lon="05.699028"><ele>64.4</ele><time>2021-03-01T11:59:14Z</time><name>PT5031</name></trkpt>
<trkpt lat="52.095257" lon="05.699033"><ele>64.4</ele><time>2021-03-01T11:59:14Z</time><name>PT5032</name></trkpt>
<trkpt lat="52.095265" lon="05.699037"><ele>64.4</ele><time>2021-03-01T11:59:15Z</time><name>PT5033</name></trkpt>
<trkpt lat="52.095274" lon="05.699040"><ele>64.5</ele><time>2021-03-01T11:59:16Z</time><name>PT5034</name></trkpt>
<trkpt lat="52.095281" lon="05.699046"><ele>64.4</ele><time>2021-03-01T11:59:17Z</time><name>PT5035</name></trkpt>
<trkpt lat="52.095289" lon="05.699053"><ele>64.4</ele><time>2021-03-01T11:59:18Z</time><name>PT5036</name></trkpt>
<trkpt lat="52.095299" lon="05.699056"><ele>64.4</ele><time>2021-03-01T11:59:19Z</time><name>PT5037</name></trkpt>
<trkpt lat="52.095310" lon="05.699059"><ele>64.3</ele><time>2021-03-01T11:59:20Z</time><name>PT5038</name></trkpt>
<trkpt lat="52.095318" lon="05.699065"><ele>64.4</ele><time>2021-03-01T11:59:21Z</time><name>PT5039</name></trkpt>
<trkpt lat="52.095329" lon="05.699069"><ele>64.5</ele><time>2021-03-01T11:59:22Z</time><name>PT5040</name></trkpt>
<trkpt lat="52.095338" lon="05.699074"><ele>64.6</ele><time>2021-03-01T11:59:23Z</time><name>PT5041</name></trkpt>
<trkpt lat="52.095348" lon="05.699077"><ele>64.4</ele><time>2021-03-01T11:59:24Z</time><name>PT5042</name></trkpt>
<trkpt lat="52.095357" lon="05.699083"><ele>64.6</ele><time>2021-03-01T11:59:25Z</time><name>PT5043</name></trkpt>
<trkpt lat="52.095360" lon="05.699081"><ele>64.6</ele><time>2021-03-01T11:59:26Z</time><name>PT5044</name></trkpt>
<trkpt lat="52.095362" lon="05.699080"><ele>64.6</ele><time>2021-03-01T11:59:27Z</time><name>PT5045</name></trkpt>
<trkpt lat="52.095368" lon="05.699077"><ele>64.6</ele><time>2021-03-01T11:59:28Z</time><name>PT5046</name></trkpt>
<trkpt lat="52.095368" lon="05.699083"><ele>64.8</ele><time>2021-03-01T12:00:01Z</time><name>PT5047</name></trkpt>
<trkpt lat="52.095372" lon="05.699085"><ele>65</ele><time>2021-03-01T12:00:02Z</time><name>PT5048</name></trkpt>
<trkpt lat="52.095374" lon="05.699088"><ele>65</ele><time>2021-03-01T12:00:03Z</time><name>PT5049</name></trkpt>
<trkpt lat="52.095376" lon="05.699090"><ele>64.9</ele><time>2021-03-01T12:00:04Z</time><name>PT5050</name></trkpt>
<trkpt lat="52.095380" lon="05.699091"><ele>64.6</ele><time>2021-03-01T12:00:50Z</time><name>PT5051</name></trkpt>
<trkpt lat="52.095390" lon="05.699095"><ele>64.4</ele><time>2021-03-01T12:00:51Z</time><name>PT5052</name></trkpt>
<trkpt lat="52.095400" lon="05.699098"><ele>64.5</ele><time>2021-03-01T12:00:52Z</time><name>PT5053</name></trkpt>
<trkpt lat="52.095409" lon="05.699099"><ele>64.4</ele><time>2021-03-01T12:00:53Z</time><name>PT5054</name></trkpt>
<trkpt lat="52.095418" lon="05.699099"><ele>64.6</ele><time>2021-03-01T12:00:54Z</time><name>PT5055</name></trkpt>
<trkpt lat="52.095426" lon="05.699101"><ele>64.8</ele><time>2021-03-01T12:00:55Z</time><name>PT5056</name></trkpt>
<trkpt lat="52.095434" lon="05.699103"><ele>64.8</ele><time>2021-03-01T12:00:56Z</time><name>PT5057</name></trkpt>
<trkpt lat="52.095438" lon="05.699107"><ele>64.8</ele><time>2021-03-01T12:00:57Z</time><name>PT5058</name></trkpt>
<trkpt lat="52.095439" lon="05.699107"><ele>64.6</ele><time>2021-03-01T12:00:58Z</time><name>PT5059</name></trkpt>
<trkpt lat="52.095439" lon="05.699106"><ele>64.6</ele><time>2021-03-01T12:00:59Z</time><name>PT5060</name></trkpt>
<trkpt lat="52.095439" lon="05.699105"><ele>64.6</ele><time>2021-03-01T12:01:00Z</time><name>PT5061</name></trkpt>
<trkpt lat="52.095440" lon="05.699104"><ele>64.5</ele><time>2021-03-01T12:01:15Z</time><name>PT5062</name></trkpt>
<trkpt lat="52.095445" lon="05.699103"><ele>64.6</ele><time>2021-03-01T12:01:16Z</time><name>PT5063</name></trkpt>
<trkpt lat="52.095451" lon="05.699106"><ele>64.7</ele><time>2021-03-01T12:01:17Z</time><name>PT5064</name></trkpt>
<trkpt lat="52.095456" lon="05.699107"><ele>64.7</ele><time>2021-03-01T12:01:18Z</time><name>PT5065</name></trkpt>
<trkpt lat="52.095458" lon="05.699108"><ele>64.6</ele><time>2021-03-01T12:01:19Z</time><name>PT5066</name></trkpt>
<trkpt lat="52.095459" lon="05.699108"><ele>64.6</ele><time>2021-03-01T12:01:20Z</time><name>PT5067</name></trkpt>
<trkpt lat="52.095459" lon="05.699107"><ele>64.6</ele><time>2021-03-01T12:01:21Z</time><name>PT5068</name></trkpt>
<trkpt lat="52.095460" lon="05.699107"><ele>64.6</ele><time>2021-03-01T12:01:22Z</time><name>PT5069</name></trkpt>
<trkpt lat="52.095460" lon="05.699108"><ele>64.7</ele><time>2021-03-01T12:01:24Z</time><name>PT5070</name></trkpt>
<trkpt lat="52.095465" lon="05.699105"><ele>64.4</ele><time>2021-03-01T12:01:59Z</time><name>PT5071</name></trkpt>
<trkpt lat="52.095475" lon="05.699108"><ele>64.2</ele><time>2021-03-01T12:02:00Z</time><name>PT5072</name></trkpt>
<trkpt lat="52.095477" lon="05.699113"><ele>64.2</ele><time>2021-03-01T12:02:01Z</time><name>PT5073</name></trkpt>
<trkpt lat="52.095477" lon="05.699116"><ele>64.3</ele><time>2021-03-01T12:02:02Z</time><name>PT5074</name></trkpt>
<trkpt lat="52.095482" lon="05.699114"><ele>64.4</ele><time>2021-03-01T12:02:03Z</time><name>PT5075</name></trkpt>
<trkpt lat="52.095491" lon="05.699113"><ele>64.4</ele><time>2021-03-01T12:02:04Z</time><name>PT5076</name></trkpt>
<trkpt lat="52.095501" lon="05.699110"><ele>64.5</ele><time>2021-03-01T12:02:06Z</time><name>PT5077</name></trkpt>
<trkpt lat="52.095511" lon="05.699107"><ele>64.6</ele><time>2021-03-01T12:02:06Z</time><name>PT5078</name></trkpt>
<trkpt lat="52.095523" lon="05.699102"><ele>64.4</ele><time>2021-03-01T12:02:07Z</time><name>PT5079</name></trkpt>
<trkpt lat="52.095533" lon="05.699098"><ele>64.4</ele><time>2021-03-01T12:02:08Z</time><name>PT5080</name></trkpt>
<trkpt lat="52.095545" lon="05.699094"><ele>64.5</ele><time>2021-03-01T12:02:09Z</time><name>PT5081</name></trkpt>
<trkpt lat="52.095554" lon="05.699095"><ele>64.6</ele><time>2021-03-01T12:02:10Z</time><name>PT5082</name></trkpt>
<trkpt lat="52.095564" lon="05.699097"><ele>64.7</ele><time>2021-03-01T12:02:11Z</time><name>PT5083</name></trkpt>
<trkpt lat="52.095575" lon="05.699097"><ele>64.8</ele><time>2021-03-01T12:02:13Z</time><name>PT5084</name></trkpt>
<trkpt lat="52.095585" lon="05.699095"><ele>64.9</ele><time>2021-03-01T12:02:13Z</time><name>PT5085</name></trkpt>
<trkpt lat="52.095597" lon="05.699093"><ele>64.7</ele><time>2021-03-01T12:02:14Z</time><name>PT5086</name></trkpt>
<trkpt lat="52.095608" lon="05.699089"><ele>64.6</ele><time>2021-03-01T12:02:15Z</time><name>PT5087</name></trkpt>
<trkpt lat="52.095619" lon="05.699084"><ele>64.6</ele><time>2021-03-01T12:02:16Z</time><name>PT5088</name></trkpt>
<trkpt lat="52.095632" lon="05.699080"><ele>64.5</ele><time>2021-03-01T12:02:17Z</time><name>PT5089</name></trkpt>
<trkpt lat="52.095644" lon="05.699077"><ele>64.3</ele><time>2021-03-01T12:02:18Z</time><name>PT5090</name></trkpt>
<trkpt lat="52.095656" lon="05.699072"><ele>64.1</ele><time>2021-03-01T12:02:19Z</time><name>PT5091</name></trkpt>
<trkpt lat="52.095667" lon="05.699068"><ele>64.1</ele><time>2021-03-01T12:02:20Z</time><name>PT5092</name></trkpt>
<trkpt lat="52.095679" lon="05.699065"><ele>64.1</ele><time>2021-03-01T12:02:22Z</time><name>PT5093</name></trkpt>
<trkpt lat="52.095690" lon="05.699061"><ele>64.1</ele><time>2021-03-01T12:02:22Z</time><name>PT5094</name></trkpt>
<trkpt lat="52.095700" lon="05.699058"><ele>64.1</ele><time>2021-03-01T12:02:23Z</time><name>PT5095</name></trkpt>
<trkpt lat="52.095711" lon="05.699055"><ele>64.3</ele><time>2021-03-01T12:02:24Z</time><name>PT5096</name></trkpt>
<trkpt lat="52.095722" lon="05.699051"><ele>64.3</ele><time>2021-03-01T12:02:25Z</time><name>PT5097</name></trkpt>
<trkpt lat="52.095734" lon="05.699046"><ele>64.3</ele><time>2021-03-01T12:02:26Z</time><name>PT5098</name></trkpt>
<trkpt lat="52.095746" lon="05.699043"><ele>64.1</ele><time>2021-03-01T12:02:27Z</time><name>PT5099</name></trkpt>
<trkpt lat="52.095757" lon="05.699041"><ele>64</ele><time>2021-03-01T12:02:28Z</time><name>PT5100</name></trkpt>
<trkpt lat="52.095769" lon="05.699038"><ele>63.9</ele><time>2021-03-01T12:02:29Z</time><name>PT5101</name></trkpt>
<trkpt lat="52.095780" lon="05.699034"><ele>64</ele><time>2021-03-01T12:02:30Z</time><name>PT5102</name></trkpt>
<trkpt lat="52.095790" lon="05.699028"><ele>64.1</ele><time>2021-03-01T12:02:31Z</time><name>PT5103</name></trkpt>
<trkpt lat="52.095801" lon="05.699025"><ele>64</ele><time>2021-03-01T12:02:32Z</time><name>PT5104</name></trkpt>
<trkpt lat="52.095813" lon="05.699020"><ele>64.1</ele><time>2021-03-01T12:02:33Z</time><name>PT5105</name></trkpt>
<trkpt lat="52.095825" lon="05.699013"><ele>63.9</ele><time>2021-03-01T12:02:34Z</time><name>PT5106</name></trkpt>
<trkpt lat="52.095836" lon="05.699008"><ele>63.8</ele><time>2021-03-01T12:02:35Z</time><name>PT5107</name></trkpt>
<trkpt lat="52.095846" lon="05.699004"><ele>63.7</ele><time>2021-03-01T12:02:36Z</time><name>PT5108</name></trkpt>
<trkpt lat="52.095857" lon="05.699003"><ele>63.7</ele><time>2021-03-01T12:02:37Z</time><name>PT5109</name></trkpt>
<trkpt lat="52.095869" lon="05.699000"><ele>63.6</ele><time>2021-03-01T12:02:38Z</time><name>PT5110</name></trkpt>
<trkpt lat="52.095883" lon="05.698992"><ele>63.6</ele><time>2021-03-01T12:02:39Z</time><name>PT5111</name></trkpt>
<trkpt lat="52.095895" lon="05.698988"><ele>63.4</ele><time>2021-03-01T12:02:40Z</time><name>PT5112</name></trkpt>
<trkpt lat="52.095906" lon="05.698987"><ele>63.3</ele><time>2021-03-01T12:02:41Z</time><name>PT5113</name></trkpt>
<trkpt lat="52.095917" lon="05.698984"><ele>63.2</ele><time>2021-03-01T12:02:42Z</time><name>PT5114</name></trkpt>
<trkpt lat="52.095926" lon="05.698983"><ele>63</ele><time>2021-03-01T12:02:43Z</time><name>PT5115</name></trkpt>
<trkpt lat="52.095936" lon="05.698980"><ele>63.1</ele><time>2021-03-01T12:02:45Z</time><name>PT5116</name></trkpt>
<trkpt lat="52.095946" lon="05.698978"><ele>62.9</ele><time>2021-03-01T12:02:45Z</time><name>PT5117</name></trkpt>
<trkpt lat="52.095956" lon="05.698973"><ele>62.9</ele><time>2021-03-01T12:02:46Z</time><name>PT5118</name></trkpt>
<trkpt lat="52.095966" lon="05.698967"><ele>62.9</ele><time>2021-03-01T12:02:47Z</time><name>PT5119</name></trkpt>
<trkpt lat="52.095977" lon="05.698963"><ele>62.7</ele><time>2021-03-01T12:02:48Z</time><name>PT5120</name></trkpt>
<trkpt lat="52.095987" lon="05.698959"><ele>62.6</ele><time>2021-03-01T12:02:49Z</time><name>PT5121</name></trkpt>
<trkpt lat="52.095997" lon="05.698954"><ele>62.5</ele><time>2021-03-01T12:02:50Z</time><name>PT5122</name></trkpt>
<trkpt lat="52.096007" lon="05.698947"><ele>62.3</ele><time>2021-03-01T12:02:51Z</time><name>PT5123</name></trkpt>
<trkpt lat="52.096017" lon="05.698943"><ele>62.3</ele><time>2021-03-01T12:02:52Z</time><name>PT5124</name></trkpt>
<trkpt lat="52.096028" lon="05.698939"><ele>62</ele><time>2021-03-01T12:02:53Z</time><name>PT5125</name></trkpt>
<trkpt lat="52.096039" lon="05.698934"><ele>61.8</ele><time>2021-03-01T12:02:54Z</time><name>PT5126</name></trkpt>
<trkpt lat="52.096050" lon="05.698929"><ele>61.6</ele><time>2021-03-01T12:02:55Z</time><name>PT5127</name></trkpt>
<trkpt lat="52.096061" lon="05.698924"><ele>61.5</ele><time>2021-03-01T12:02:56Z</time><name>PT5128</name></trkpt>
<trkpt lat="52.096072" lon="05.698920"><ele>61.6</ele><time>2021-03-01T12:02:58Z</time><name>PT5129</name></trkpt>
<trkpt lat="52.096084" lon="05.698917"><ele>61.5</ele><time>2021-03-01T12:02:58Z</time><name>PT5130</name></trkpt>
<trkpt lat="52.096095" lon="05.698915"><ele>61.4</ele><time>2021-03-01T12:02:59Z</time><name>PT5131</name></trkpt>
<trkpt lat="52.096106" lon="05.698911"><ele>61.4</ele><time>2021-03-01T12:03:00Z</time><name>PT5132</name></trkpt>
<trkpt lat="52.096119" lon="05.698908"><ele>61.2</ele><time>2021-03-01T12:03:01Z</time><name>PT5133</name></trkpt>
<trkpt lat="52.096131" lon="05.698906"><ele>61.1</ele><time>2021-03-01T12:03:02Z</time><name>PT5134</name></trkpt>
<trkpt lat="52.096143" lon="05.698904"><ele>61</ele><time>2021-03-01T12:03:03Z</time><name>PT5135</name></trkpt>
<trkpt lat="52.096156" lon="05.698901"><ele>61</ele><time>2021-03-01T12:03:04Z</time><name>PT5136</name></trkpt>
<trkpt lat="52.096167" lon="05.698899"><ele>60.8</ele><time>2021-03-01T12:03:05Z</time><name>PT5137</name></trkpt>
<trkpt lat="52.096180" lon="05.698896"><ele>60.7</ele><time>2021-03-01T12:03:06Z</time><name>PT5138</name></trkpt>
<trkpt lat="52.096193" lon="05.698892"><ele>60.5</ele><time>2021-03-01T12:03:07Z</time><name>PT5139</name></trkpt>
<trkpt lat="52.096205" lon="05.698889"><ele>60.3</ele><time>2021-03-01T12:03:08Z</time><name>PT5140</name></trkpt>
<trkpt lat="52.096214" lon="05.698876"><ele>60.1</ele><time>2021-03-01T12:03:09Z</time><name>PT5141</name></trkpt>
<trkpt lat="52.096225" lon="05.698870"><ele>59.6</ele><time>2021-03-01T12:03:10Z</time><name>PT5142</name></trkpt>
<trkpt lat="52.096235" lon="05.698866"><ele>59.6</ele><time>2021-03-01T12:03:11Z</time><name>PT5143</name></trkpt>
<trkpt lat="52.096247" lon="05.698863"><ele>59.4</ele><time>2021-03-01T12:03:12Z</time><name>PT5144</name></trkpt>
<trkpt lat="52.096257" lon="05.698859"><ele>59.1</ele><time>2021-03-01T12:03:13Z</time><name>PT5145</name></trkpt>
<trkpt lat="52.096268" lon="05.698854"><ele>59.1</ele><time>2021-03-01T12:03:14Z</time><name>PT5146</name></trkpt>
<trkpt lat="52.096277" lon="05.698851"><ele>58.8</ele><time>2021-03-01T12:03:15Z</time><name>PT5147</name></trkpt>
<trkpt lat="52.096287" lon="05.698846"><ele>58.6</ele><time>2021-03-01T12:03:17Z</time><name>PT5148</name></trkpt>
<trkpt lat="52.096296" lon="05.698841"><ele>58.5</ele><time>2021-03-01T12:03:17Z</time><name>PT5149</name></trkpt>
<trkpt lat="52.096307" lon="05.698838"><ele>58.3</ele><time>2021-03-01T12:03:18Z</time><name>PT5150</name></trkpt>
<trkpt lat="52.096319" lon="05.698833"><ele>58.3</ele><time>2021-03-01T12:03:19Z</time><name>PT5151</name></trkpt>
<trkpt lat="52.096329" lon="05.698827"><ele>58.2</ele><time>2021-03-01T12:03:20Z</time><name>PT5152</name></trkpt>
<trkpt lat="52.096341" lon="05.698819"><ele>58</ele><time>2021-03-01T12:03:21Z</time><name>PT5153</name></trkpt>
<trkpt lat="52.096353" lon="05.698812"><ele>57.8</ele><time>2021-03-01T12:03:22Z</time><name>PT5154</name></trkpt>
<trkpt lat="52.096365" lon="05.698807"><ele>57.5</ele><time>2021-03-01T12:03:24Z</time><name>PT5155</name></trkpt>
<trkpt lat="52.096376" lon="05.698800"><ele>57.5</ele><time>2021-03-01T12:03:24Z</time><name>PT5156</name></trkpt>
<trkpt lat="52.096387" lon="05.698792"><ele>57.3</ele><time>2021-03-01T12:03:25Z</time><name>PT5157</name></trkpt>
<trkpt lat="52.096400" lon="05.698783"><ele>57.3</ele><time>2021-03-01T12:03:26Z</time><name>PT5158</name></trkpt>
<trkpt lat="52.096414" lon="05.698774"><ele>57.2</ele><time>2021-03-01T12:03:27Z</time><name>PT5159</name></trkpt>
<trkpt lat="52.096427" lon="05.698766"><ele>57.1</ele><time>2021-03-01T12:03:28Z</time><name>PT5160</name></trkpt>
<trkpt lat="52.096436" lon="05.698761"><ele>57.1</ele><time>2021-03-01T12:03:29Z</time><name>PT5161</name></trkpt>
<trkpt lat="52.096446" lon="05.698756"><ele>56.9</ele><time>2021-03-01T12:03:30Z</time><name>PT5162</name></trkpt>
<trkpt lat="52.096457" lon="05.698752"><ele>56.8</ele><time>2021-03-01T12:03:31Z</time><name>PT5163</name></trkpt>
<trkpt lat="52.096467" lon="05.698749"><ele>56.6</ele><time>2021-03-01T12:03:32Z</time><name>PT5164</name></trkpt>
<trkpt lat="52.096479" lon="05.698745"><ele>56.4</ele><time>2021-03-01T12:03:33Z</time><name>PT5165</name></trkpt>
<trkpt lat="52.096491" lon="05.698740"><ele>56.4</ele><time>2021-03-01T12:03:34Z</time><name>PT5166</name></trkpt>
<trkpt lat="52.096502" lon="05.698735"><ele>56.1</ele><time>2021-03-01T12:03:35Z</time><name>PT5167</name></trkpt>
<trkpt lat="52.096514" lon="05.698730"><ele>56</ele><time>2021-03-01T12:03:36Z</time><name>PT5168</name></trkpt>
<trkpt lat="52.096526" lon="05.698725"><ele>56</ele><time>2021-03-01T12:03:37Z</time><name>PT5169</name></trkpt>
<trkpt lat="52.096539" lon="05.698720"><ele>55.8</ele><time>2021-03-01T12:03:38Z</time><name>PT5170</name></trkpt>
<trkpt lat="52.096551" lon="05.698714"><ele>55.6</ele><time>2021-03-01T12:03:39Z</time><name>PT5171</name></trkpt>
<trkpt lat="52.096563" lon="05.698706"><ele>55.6</ele><time>2021-03-01T12:03:40Z</time><name>PT5172</name></trkpt>
<trkpt lat="52.096574" lon="05.698700"><ele>55.3</ele><time>2021-03-01T12:03:41Z</time><name>PT5173</name></trkpt>
<trkpt lat="52.096584" lon="05.698700"><ele>55.3</ele><time>2021-03-01T12:03:42Z</time><name>PT5174</name></trkpt>
<trkpt lat="52.096595" lon="05.698695"><ele>55.1</ele><time>2021-03-01T12:03:43Z</time><name>PT5175</name></trkpt>
<trkpt lat="52.096604" lon="05.698692"><ele>55.1</ele><time>2021-03-01T12:03:44Z</time><name>PT5176</name></trkpt>
<trkpt lat="52.096614" lon="05.698686"><ele>55.1</ele><time>2021-03-01T12:03:45Z</time><name>PT5177</name></trkpt>
<trkpt lat="52.096624" lon="05.698680"><ele>55</ele><time>2021-03-01T12:03:46Z</time><name>PT5178</name></trkpt>
<trkpt lat="52.096634" lon="05.698675"><ele>54.9</ele><time>2021-03-01T12:03:47Z</time><name>PT5179</name></trkpt>
<trkpt lat="52.096645" lon="05.698669"><ele>55</ele><time>2021-03-01T12:03:48Z</time><name>PT5180</name></trkpt>
<trkpt lat="52.096657" lon="05.698661"><ele>54.9</ele><time>2021-03-01T12:03:49Z</time><name>PT5181</name></trkpt>
<trkpt lat="52.096667" lon="05.698652"><ele>54.8</ele><time>2021-03-01T12:03:50Z</time><name>PT5182</name></trkpt>
<trkpt lat="52.096678" lon="05.698648"><ele>54.6</ele><time>2021-03-01T12:03:51Z</time><name>PT5183</name></trkpt>
<trkpt lat="52.096687" lon="05.698645"><ele>54.5</ele><time>2021-03-01T12:03:52Z</time><name>PT5184</name></trkpt>
<trkpt lat="52.096698" lon="05.698640"><ele>54.2</ele><time>2021-03-01T12:03:53Z</time><name>PT5185</name></trkpt>
<trkpt lat="52.096709" lon="05.698637"><ele>53.9</ele><time>2021-03-01T12:03:54Z</time><name>PT5186</name></trkpt>
<trkpt lat="52.096720" lon="05.698636"><ele>53.8</ele><time>2021-03-01T12:03:55Z</time><name>PT5187</name></trkpt>
<trkpt lat="52.096731" lon="05.698633"><ele>53.5</ele><time>2021-03-01T12:03:56Z</time><name>PT5188</name></trkpt>
<trkpt lat="52.096741" lon="05.698626"><ele>53.3</ele><time>2021-03-01T12:03:57Z</time><name>PT5189</name></trkpt>
<trkpt lat="52.096752" lon="05.698620"><ele>53.4</ele><time>2021-03-01T12:03:58Z</time><name>PT5190</name></trkpt>
<trkpt lat="52.096765" lon="05.698615"><ele>53.4</ele><time>2021-03-01T12:03:59Z</time><name>PT5191</name></trkpt>
<trkpt lat="52.096776" lon="05.698610"><ele>53.3</ele><time>2021-03-01T12:04:00Z</time><name>PT5192</name></trkpt>
<trkpt lat="52.096788" lon="05.698604"><ele>53.3</ele><time>2021-03-01T12:04:01Z</time><name>PT5193</name></trkpt>
<trkpt lat="52.096796" lon="05.698598"><ele>53.1</ele><time>2021-03-01T12:04:02Z</time><name>PT5194</name></trkpt>
<trkpt lat="52.096806" lon="05.698593"><ele>52.9</ele><time>2021-03-01T12:04:03Z</time><name>PT5195</name></trkpt>
<trkpt lat="52.096819" lon="05.698588"><ele>52.9</ele><time>2021-03-01T12:04:04Z</time><name>PT5196</name></trkpt>
<trkpt lat="52.096829" lon="05.698586"><ele>52.9</ele><time>2021-03-01T12:04:05Z</time><name>PT5197</name></trkpt>
<trkpt lat="52.096840" lon="05.698579"><ele>52.9</ele><time>2021-03-01T12:04:06Z</time><name>PT5198</name></trkpt>
<trkpt lat="52.096853" lon="05.698571"><ele>53</ele><time>2021-03-01T12:04:07Z</time><name>PT5199</name></trkpt>
<trkpt lat="52.096865" lon="05.698565"><ele>52.9</ele><time>2021-03-01T12:04:08Z</time><name>PT5200</name></trkpt>
<trkpt lat="52.096875" lon="05.698559"><ele>52.8</ele><time>2021-03-01T12:04:09Z</time><name>PT5201</name></trkpt>
<trkpt lat="52.096883" lon="05.698558"><ele>52.7</ele><time>2021-03-01T12:04:10Z</time><name>PT5202</name></trkpt>
<trkpt lat="52.096891" lon="05.698557"><ele>52.6</ele><time>2021-03-01T12:04:11Z</time><name>PT5203</name></trkpt>
<trkpt lat="52.096898" lon="05.698553"><ele>52.6</ele><time>2021-03-01T12:04:12Z</time><name>PT5204</name></trkpt>
<trkpt lat="52.096907" lon="05.698547"><ele>52.7</ele><time>2021-03-01T12:04:13Z</time><name>PT5205</name></trkpt>
<trkpt lat="52.096918" lon="05.698541"><ele>52.7</ele><time>2021-03-01T12:04:14Z</time><name>PT5206</name></trkpt>
<trkpt lat="52.096931" lon="05.698541"><ele>52.5</ele><time>2021-03-01T12:04:15Z</time><name>PT5207</name></trkpt>
<trkpt lat="52.096945" lon="05.698539"><ele>52.4</ele><time>2021-03-01T12:04:17Z</time><name>PT5208</name></trkpt>
<trkpt lat="52.096956" lon="05.698538"><ele>52.3</ele><time>2021-03-01T12:04:17Z</time><name>PT5209</name></trkpt>
<trkpt lat="52.096966" lon="05.698534"><ele>52.2</ele><time>2021-03-01T12:04:18Z</time><name>PT5210</name></trkpt>
<trkpt lat="52.096977" lon="05.698532"><ele>52</ele><time>2021-03-01T12:04:19Z</time><name>PT5211</name></trkpt>
<trkpt lat="52.096987" lon="05.698534"><ele>52</ele><time>2021-03-01T12:04:20Z</time><name>PT5212</name></trkpt>
<trkpt lat="52.096996" lon="05.698540"><ele>52</ele><time>2021-03-01T12:04:21Z</time><name>PT5213</name></trkpt>
<trkpt lat="52.097005" lon="05.698548"><ele>51.7</ele><time>2021-03-01T12:04:22Z</time><name>PT5214</name></trkpt>
<trkpt lat="52.097013" lon="05.698553"><ele>51.6</ele><time>2021-03-01T12:04:23Z</time><name>PT5215</name></trkpt>
<trkpt lat="52.097022" lon="05.698562"><ele>51.5</ele><time>2021-03-01T12:04:24Z</time><name>PT5216</name></trkpt>
<trkpt lat="52.097031" lon="05.698564"><ele>51.4</ele><time>2021-03-01T12:04:25Z</time><name>PT5217</name></trkpt>
<trkpt lat="52.097040" lon="05.698570"><ele>51.5</ele><time>2021-03-01T12:04:26Z</time><name>PT5218</name></trkpt>
<trkpt lat="52.097051" lon="05.698571"><ele>51.6</ele><time>2021-03-01T12:04:27Z</time><name>PT5219</name></trkpt>
<trkpt lat="52.097062" lon="05.698575"><ele>51.5</ele><time>2021-03-01T12:04:28Z</time><name>PT5220</name></trkpt>
<trkpt lat="52.097072" lon="05.698582"><ele>51.5</ele><time>2021-03-01T12:04:29Z</time><name>PT5221</name></trkpt>
<trkpt lat="52.097082" lon="05.698587"><ele>51.6</ele><time>2021-03-01T12:04:30Z</time><name>PT5222</name></trkpt>
<trkpt lat="52.097093" lon="05.698589"><ele>51.5</ele><time>2021-03-01T12:04:31Z</time><name>PT5223</name></trkpt>
<trkpt lat="52.097102" lon="05.698599"><ele>51.5</ele><time>2021-03-01T12:04:32Z</time><name>PT5224</name></trkpt>
<trkpt lat="52.097110" lon="05.698608"><ele>51.5</ele><time>2021-03-01T12:04:33Z</time><name>PT5225</name></trkpt>
<trkpt lat="52.097117" lon="05.698617"><ele>51.6</ele><time>2021-03-01T12:04:34Z</time><name>PT5226</name></trkpt>
<trkpt lat="52.097121" lon="05.698626"><ele>51.5</ele><time>2021-03-01T12:04:35Z</time><name>PT5227</name></trkpt>
<trkpt lat="52.097127" lon="05.698638"><ele>51.7</ele><time>2021-03-01T12:04:36Z</time><name>PT5228</name></trkpt>
<trkpt lat="52.097137" lon="05.698649"><ele>51.8</ele><time>2021-03-01T12:04:37Z</time><name>PT5229</name></trkpt>
<trkpt lat="52.097143" lon="05.698661"><ele>51.8</ele><time>2021-03-01T12:04:38Z</time><name>PT5230</name></trkpt>
<trkpt lat="52.097152" lon="05.698677"><ele>51.5</ele><time>2021-03-01T12:04:39Z</time><name>PT5231</name></trkpt>
<trkpt lat="52.097156" lon="05.698692"><ele>51.5</ele><time>2021-03-01T12:04:40Z</time><name>PT5232</name></trkpt>
<trkpt lat="52.097163" lon="05.698708"><ele>51.5</ele><time>2021-03-01T12:04:41Z</time><name>PT5233</name></trkpt>
<trkpt lat="52.097167" lon="05.698723"><ele>51.5</ele><time>2021-03-01T12:04:42Z</time><name>PT5234</name></trkpt>
<trkpt lat="52.097173" lon="05.698736"><ele>51.5</ele><time>2021-03-01T12:04:43Z</time><name>PT5235</name></trkpt>
<trkpt lat="52.097178" lon="05.698750"><ele>51.5</ele><time>2021-03-01T12:04:44Z</time><name>PT5236</name></trkpt>
<trkpt lat="52.097182" lon="05.698765"><ele>51.5</ele><time>2021-03-01T12:04:46Z</time><name>PT5237</name></trkpt>
<trkpt lat="52.097188" lon="05.698778"><ele>51.2</ele><time>2021-03-01T12:04:46Z</time><name>PT5238</name></trkpt>
<trkpt lat="52.097196" lon="05.698791"><ele>50.9</ele><time>2021-03-01T12:04:47Z</time><name>PT5239</name></trkpt>
<trkpt lat="52.097202" lon="05.698807"><ele>50.8</ele><time>2021-03-01T12:04:48Z</time><name>PT5240</name></trkpt>
<trkpt lat="52.097208" lon="05.698824"><ele>50.7</ele><time>2021-03-01T12:04:49Z</time><name>PT5241</name></trkpt>
<trkpt lat="52.097209" lon="05.698837"><ele>50.8</ele><time>2021-03-01T12:04:50Z</time><name>PT5242</name></trkpt>
<trkpt lat="52.097203" lon="05.698853"><ele>50.8</ele><time>2021-03-01T12:04:51Z</time><name>PT5243</name></trkpt>
<trkpt lat="52.097204" lon="05.698864"><ele>50.8</ele><time>2021-03-01T12:04:52Z</time><name>PT5244</name></trkpt>
<trkpt lat="52.097211" lon="05.698881"><ele>50.9</ele><time>2021-03-01T12:04:53Z</time><name>PT5245</name></trkpt>
<trkpt lat="52.097216" lon="05.698899"><ele>50.8</ele><time>2021-03-01T12:04:54Z</time><name>PT5246</name></trkpt>
<trkpt lat="52.097218" lon="05.698914"><ele>51</ele><time>2021-03-01T12:04:55Z</time><name>PT5247</name></trkpt>
<trkpt lat="52.097222" lon="05.698935"><ele>51.1</ele><time>2021-03-01T12:04:56Z</time><name>PT5248</name></trkpt>
<trkpt lat="52.097228" lon="05.698952"><ele>51.1</ele><time>2021-03-01T12:04:57Z</time><name>PT5249</name></trkpt>
<trkpt lat="52.097232" lon="05.698967"><ele>51.1</ele><time>2021-03-01T12:04:58Z</time><name>PT5250</name></trkpt>
<trkpt lat="52.097237" lon="05.698982"><ele>51.1</ele><time>2021-03-01T12:04:59Z</time><name>PT5251</name></trkpt>
<trkpt lat="52.097245" lon="05.699001"><ele>51</ele><time>2021-03-01T12:05:00Z</time><name>PT5252</name></trkpt>
<trkpt lat="52.097253" lon="05.699015"><ele>51</ele><time>2021-03-01T12:05:01Z</time><name>PT5253</name></trkpt>
<trkpt lat="52.097259" lon="05.699033"><ele>51</ele><time>2021-03-01T12:05:02Z</time><name>PT5254</name></trkpt>
<trkpt lat="52.097266" lon="05.699051"><ele>51.1</ele><time>2021-03-01T12:05:03Z</time><name>PT5255</name></trkpt>
<trkpt lat="52.097269" lon="05.699065"><ele>51.3</ele><time>2021-03-01T12:05:04Z</time><name>PT5256</name></trkpt>
<trkpt lat="52.097277" lon="05.699083"><ele>51.4</ele><time>2021-03-01T12:05:05Z</time><name>PT5257</name></trkpt>
<trkpt lat="52.097285" lon="05.699100"><ele>51.4</ele><time>2021-03-01T12:05:06Z</time><name>PT5258</name></trkpt>
<trkpt lat="52.097292" lon="05.699118"><ele>51.2</ele><time>2021-03-01T12:05:07Z</time><name>PT5259</name></trkpt>
<trkpt lat="52.097297" lon="05.699131"><ele>51.1</ele><time>2021-03-01T12:05:08Z</time><name>PT5260</name></trkpt>
<trkpt lat="52.097301" lon="05.699148"><ele>51.1</ele><time>2021-03-01T12:05:09Z</time><name>PT5261</name></trkpt>
<trkpt lat="52.097304" lon="05.699167"><ele>51.1</ele><time>2021-03-01T12:05:10Z</time><name>PT5262</name></trkpt>
<trkpt lat="52.097307" lon="05.699183"><ele>51.2</ele><time>2021-03-01T12:05:11Z</time><name>PT5263</name></trkpt>
<trkpt lat="52.097309" lon="05.699201"><ele>51.1</ele><time>2021-03-01T12:05:12Z</time><name>PT5264</name></trkpt>
<trkpt lat="52.097313" lon="05.699215"><ele>51.1</ele><time>2021-03-01T12:05:13Z</time><name>PT5265</name></trkpt>
<trkpt lat="52.097323" lon="05.699231"><ele>50.9</ele><time>2021-03-01T12:05:14Z</time><name>PT5266</name></trkpt>
<trkpt lat="52.097339" lon="05.699247"><ele>50.9</ele><time>2021-03-01T12:05:15Z</time><name>PT5267</name></trkpt>
<trkpt lat="52.097349" lon="05.699265"><ele>50.8</ele><time>2021-03-01T12:05:16Z</time><name>PT5268</name></trkpt>
<trkpt lat="52.097358" lon="05.699290"><ele>50.8</ele><time>2021-03-01T12:05:17Z</time><name>PT5269</name></trkpt>
<trkpt lat="52.097365" lon="05.699309"><ele>50.8</ele><time>2021-03-01T12:05:18Z</time><name>PT5270</name></trkpt>
<trkpt lat="52.097373" lon="05.699328"><ele>50.9</ele><time>2021-03-01T12:05:19Z</time><name>PT5271</name></trkpt>
<trkpt lat="52.097383" lon="05.699349"><ele>51.1</ele><time>2021-03-01T12:05:20Z</time><name>PT5272</name></trkpt>
<trkpt lat="52.097389" lon="05.699369"><ele>51.1</ele><time>2021-03-01T12:05:21Z</time><name>PT5273</name></trkpt>
<trkpt lat="52.097396" lon="05.699389"><ele>51.3</ele><time>2021-03-01T12:05:22Z</time><name>PT5274</name></trkpt>
<trkpt lat="52.097399" lon="05.699408"><ele>51.4</ele><time>2021-03-01T12:05:23Z</time><name>PT5275</name></trkpt>
<trkpt lat="52.097402" lon="05.699427"><ele>51.4</ele><time>2021-03-01T12:05:24Z</time><name>PT5276</name></trkpt>
<trkpt lat="52.097404" lon="05.699449"><ele>51.6</ele><time>2021-03-01T12:05:25Z</time><name>PT5277</name></trkpt>
<trkpt lat="52.097400" lon="05.699474"><ele>51.4</ele><time>2021-03-01T12:05:26Z</time><name>PT5278</name></trkpt>
<trkpt lat="52.097403" lon="05.699498"><ele>51.5</ele><time>2021-03-01T12:05:27Z</time><name>PT5279</name></trkpt>
<trkpt lat="52.097408" lon="05.699513"><ele>51.3</ele><time>2021-03-01T12:05:28Z</time><name>PT5280</name></trkpt>
<trkpt lat="52.097409" lon="05.699527"><ele>51.1</ele><time>2021-03-01T12:05:29Z</time><name>PT5281</name></trkpt>
<trkpt lat="52.097410" lon="05.699546"><ele>51.1</ele><time>2021-03-01T12:05:30Z</time><name>PT5282</name></trkpt>
<trkpt lat="52.097409" lon="05.699559"><ele>50.7</ele><time>2021-03-01T12:05:31Z</time><name>PT5283</name></trkpt>
<trkpt lat="52.097409" lon="05.699575"><ele>50.6</ele><time>2021-03-01T12:05:32Z</time><name>PT5284</name></trkpt>
<trkpt lat="52.097409" lon="05.699590"><ele>50.5</ele><time>2021-03-01T12:05:33Z</time><name>PT5285</name></trkpt>
<trkpt lat="52.097409" lon="05.699603"><ele>50.3</ele><time>2021-03-01T12:05:34Z</time><name>PT5286</name></trkpt>
<trkpt lat="52.097408" lon="05.699616"><ele>50.2</ele><time>2021-03-01T12:05:35Z</time><name>PT5287</name></trkpt>
<trkpt lat="52.097405" lon="05.699626"><ele>50.2</ele><time>2021-03-01T12:05:36Z</time><name>PT5288</name></trkpt>
<trkpt lat="52.097401" lon="05.699637"><ele>50.1</ele><time>2021-03-01T12:05:37Z</time><name>PT5289</name></trkpt>
<trkpt lat="52.097398" lon="05.699647"><ele>50.1</ele><time>2021-03-01T12:05:38Z</time><name>PT5290</name></trkpt>
<trkpt lat="52.097396" lon="05.699653"><ele>50.1</ele><time>2021-03-01T12:05:39Z</time><name>PT5291</name></trkpt>
<trkpt lat="52.097393" lon="05.699664"><ele>49.9</ele><time>2021-03-01T12:05:40Z</time><name>PT5292</name></trkpt>
<trkpt lat="52.097389" lon="05.699676"><ele>49.8</ele><time>2021-03-01T12:05:41Z</time><name>PT5293</name></trkpt>
<trkpt lat="52.097385" lon="05.699687"><ele>49.7</ele><time>2021-03-01T12:05:42Z</time><name>PT5294</name></trkpt>
<trkpt lat="52.097381" lon="05.699698"><ele>49.6</ele><time>2021-03-01T12:05:43Z</time><name>PT5295</name></trkpt>
<trkpt lat="52.097377" lon="05.699708"><ele>49.4</ele><time>2021-03-01T12:05:44Z</time><name>PT5296</name></trkpt>
<trkpt lat="52.097372" lon="05.699715"><ele>49.2</ele><time>2021-03-01T12:05:45Z</time><name>PT5297</name></trkpt>
<trkpt lat="52.097369" lon="05.699726"><ele>49</ele><time>2021-03-01T12:05:46Z</time><name>PT5298</name></trkpt>
<trkpt lat="52.097364" lon="05.699736"><ele>48.8</ele><time>2021-03-01T12:05:47Z</time><name>PT5299</name></trkpt>
<trkpt lat="52.097362" lon="05.699744"><ele>48.5</ele><time>2021-03-01T12:05:48Z</time><name>PT5300</name></trkpt>
<trkpt lat="52.097358" lon="05.699749"><ele>48.3</ele><time>2021-03-01T12:05:49Z</time><name>PT5301</name></trkpt>
<trkpt lat="52.097353" lon="05.699759"><ele>48</ele><time>2021-03-01T12:05:50Z</time><name>PT5302</name></trkpt>
<trkpt lat="52.097348" lon="05.699765"><ele>48</ele><time>2021-03-01T12:05:51Z</time><name>PT5303</name></trkpt>
<trkpt lat="52.097342" lon="05.699774"><ele>48</ele><time>2021-03-01T12:05:52Z</time><name>PT5304</name></trkpt>
<trkpt lat="52.097337" lon="05.699784"><ele>47.9</ele><time>2021-03-01T12:05:53Z</time><name>PT5305</name></trkpt>
<trkpt lat="52.097333" lon="05.699790"><ele>47.8</ele><time>2021-03-01T12:05:54Z</time><name>PT5306</name></trkpt>
<trkpt lat="52.097328" lon="05.699797"><ele>47.8</ele><time>2021-03-01T12:05:55Z</time><name>PT5307</name></trkpt>
<trkpt lat="52.097322" lon="05.699807"><ele>47.5</ele><time>2021-03-01T12:05:56Z</time><name>PT5308</name></trkpt>
<trkpt lat="52.097316" lon="05.699818"><ele>47.3</ele><time>2021-03-01T12:05:57Z</time><name>PT5309</name></trkpt>
<trkpt lat="52.097309" lon="05.699834"><ele>47.1</ele><time>2021-03-01T12:05:58Z</time><name>PT5310</name></trkpt>
<trkpt lat="52.097304" lon="05.699840"><ele>46.9</ele><time>2021-03-01T12:05:59Z</time><name>PT5311</name></trkpt>
<trkpt lat="52.097297" lon="05.699852"><ele>46.6</ele><time>2021-03-01T12:06:00Z</time><name>PT5312</name></trkpt>
<trkpt lat="52.097291" lon="05.699859"><ele>46.4</ele><time>2021-03-01T12:06:01Z</time><name>PT5313</name></trkpt>
<trkpt lat="52.097285" lon="05.699869"><ele>46.1</ele><time>2021-03-01T12:06:02Z</time><name>PT5314</name></trkpt>
<trkpt lat="52.097278" lon="05.699878"><ele>46</ele><time>2021-03-01T12:06:03Z</time><name>PT5315</name></trkpt>
<trkpt lat="52.097272" lon="05.699886"><ele>45.9</ele><time>2021-03-01T12:06:04Z</time><name>PT5316</name></trkpt>
<trkpt lat="52.097266" lon="05.699893"><ele>45.7</ele><time>2021-03-01T12:06:05Z</time><name>PT5317</name></trkpt>
<trkpt lat="52.097261" lon="05.699903"><ele>45.7</ele><time>2021-03-01T12:06:06Z</time><name>PT5318</name></trkpt>
<trkpt lat="52.097256" lon="05.699913"><ele>45.7</ele><time>2021-03-01T12:06:07Z</time><name>PT5319</name></trkpt>
<trkpt lat="52.097251" lon="05.699921"><ele>45.5</ele><time>2021-03-01T12:06:08Z</time><name>PT5320</name></trkpt>
<trkpt lat="52.097247" lon="05.699931"><ele>45.3</ele><time>2021-03-01T12:06:09Z</time><name>PT5321</name></trkpt>
<trkpt lat="52.097239" lon="05.699948"><ele>45.1</ele><time>2021-03-01T12:06:10Z</time><name>PT5322</name></trkpt>
<trkpt lat="52.097232" lon="05.699962"><ele>44.8</ele><time>2021-03-01T12:06:11Z</time><name>PT5323</name></trkpt>
<trkpt lat="52.097227" lon="05.699973"><ele>44.7</ele><time>2021-03-01T12:06:12Z</time><name>PT5324</name></trkpt>
<trkpt lat="52.097221" lon="05.699987"><ele>44.5</ele><time>2021-03-01T12:06:13Z</time><name>PT5325</name></trkpt>
<trkpt lat="52.097219" lon="05.699995"><ele>44.4</ele><time>2021-03-01T12:06:14Z</time><name>PT5326</name></trkpt>
<trkpt lat="52.097215" lon="05.700007"><ele>44.4</ele><time>2021-03-01T12:06:15Z</time><name>PT5327</name></trkpt>
<trkpt lat="52.097211" lon="05.700015"><ele>44.2</ele><time>2021-03-01T12:06:16Z</time><name>PT5328</name></trkpt>
<trkpt lat="52.097207" lon="05.700024"><ele>44</ele><time>2021-03-01T12:06:17Z</time><name>PT5329</name></trkpt>
<trkpt lat="52.097204" lon="05.700027"><ele>43.9</ele><time>2021-03-01T12:06:18Z</time><name>PT5330</name></trkpt>
<trkpt lat="52.097197" lon="05.700036"><ele>43.7</ele><time>2021-03-01T12:06:19Z</time><name>PT5331</name></trkpt>
<trkpt lat="52.097189" lon="05.700046"><ele>43.8</ele><time>2021-03-01T12:06:20Z</time><name>PT5332</name></trkpt>
<trkpt lat="52.097184" lon="05.700053"><ele>43.6</ele><time>2021-03-01T12:06:21Z</time><name>PT5333</name></trkpt>
<trkpt lat="52.097178" lon="05.700060"><ele>43.5</ele><time>2021-03-01T12:06:22Z</time><name>PT5334</name></trkpt>
<trkpt lat="52.097175" lon="05.700064"><ele>43.3</ele><time>2021-03-01T12:06:23Z</time><name>PT5335</name></trkpt>
<trkpt lat="52.097169" lon="05.700073"><ele>43</ele><time>2021-03-01T12:06:24Z</time><name>PT5336</name></trkpt>
<trkpt lat="52.097161" lon="05.700084"><ele>43</ele><time>2021-03-01T12:06:25Z</time><name>PT5337</name></trkpt>
<trkpt lat="52.097153" lon="05.700100"><ele>43</ele><time>2021-03-01T12:06:26Z</time><name>PT5338</name></trkpt>
<trkpt lat="52.097145" lon="05.700112"><ele>42.9</ele><time>2021-03-01T12:06:27Z</time><name>PT5339</name></trkpt>
<trkpt lat="52.097138" lon="05.700123"><ele>42.7</ele><time>2021-03-01T12:06:28Z</time><name>PT5340</name></trkpt>
<trkpt lat="52.097130" lon="05.700138"><ele>42.5</ele><time>2021-03-01T12:06:29Z</time><name>PT5341</name></trkpt>
<trkpt lat="52.097123" lon="05.700151"><ele>42.3</ele><time>2021-03-01T12:06:30Z</time><name>PT5342</name></trkpt>
<trkpt lat="52.097117" lon="05.700159"><ele>42.2</ele><time>2021-03-01T12:06:31Z</time><name>PT5343</name></trkpt>
<trkpt lat="52.097111" lon="05.700167"><ele>42.2</ele><time>2021-03-01T12:06:32Z</time><name>PT5344</name></trkpt>
<trkpt lat="52.097101" lon="05.700183"><ele>42.1</ele><time>2021-03-01T12:06:33Z</time><name>PT5345</name></trkpt>
<trkpt lat="52.097088" lon="05.700208"><ele>41.8</ele><time>2021-03-01T12:06:34Z</time><name>PT5346</name></trkpt>
<trkpt lat="52.097079" lon="05.700222"><ele>41.6</ele><time>2021-03-01T12:06:35Z</time><name>PT5347</name></trkpt>
<trkpt lat="52.097069" lon="05.700237"><ele>41.3</ele><time>2021-03-01T12:06:36Z</time><name>PT5348</name></trkpt>
<trkpt lat="52.097060" lon="05.700249"><ele>41.2</ele><time>2021-03-01T12:06:37Z</time><name>PT5349</name></trkpt>
<trkpt lat="52.097051" lon="05.700259"><ele>41</ele><time>2021-03-01T12:06:38Z</time><name>PT5350</name></trkpt>
<trkpt lat="52.097044" lon="05.700271"><ele>41</ele><time>2021-03-01T12:06:39Z</time><name>PT5351</name></trkpt>
<trkpt lat="52.097039" lon="05.700278"><ele>40.9</ele><time>2021-03-01T12:06:40Z</time><name>PT5352</name></trkpt>
<trkpt lat="52.097033" lon="05.700284"><ele>40.8</ele><time>2021-03-01T12:06:41Z</time><name>PT5353</name></trkpt>
<trkpt lat="52.097026" lon="05.700296"><ele>40.8</ele><time>2021-03-01T12:06:42Z</time><name>PT5354</name></trkpt>
<trkpt lat="52.097019" lon="05.700306"><ele>40.3</ele><time>2021-03-01T12:06:43Z</time><name>PT5355</name></trkpt>
<trkpt lat="52.097011" lon="05.700313"><ele>40</ele><time>2021-03-01T12:06:44Z</time><name>PT5356</name></trkpt>
<trkpt lat="52.097003" lon="05.700321"><ele>39.7</ele><time>2021-03-01T12:06:45Z</time><name>PT5357</name></trkpt>
<trkpt lat="52.096998" lon="05.700326"><ele>39.5</ele><time>2021-03-01T12:06:46Z</time><name>PT5358</name></trkpt>
<trkpt lat="52.096994" lon="05.700330"><ele>39.5</ele><time>2021-03-01T12:06:47Z</time><name>PT5359</name></trkpt>
<trkpt lat="52.096990" lon="05.700338"><ele>39.3</ele><time>2021-03-01T12:06:49Z</time><name>PT5360</name></trkpt>
<trkpt lat="52.096984" lon="05.700347"><ele>39.2</ele><time>2021-03-01T12:06:49Z</time><name>PT5361</name></trkpt>
<trkpt lat="52.096974" lon="05.700358"><ele>39.1</ele><time>2021-03-01T12:06:50Z</time><name>PT5362</name></trkpt>
<trkpt lat="52.096966" lon="05.700370"><ele>39</ele><time>2021-03-01T12:06:51Z</time><name>PT5363</name></trkpt>
<trkpt lat="52.096959" lon="05.700378"><ele>38.9</ele><time>2021-03-01T12:06:52Z</time><name>PT5364</name></trkpt>
<trkpt lat="52.096954" lon="05.700386"><ele>38.6</ele><time>2021-03-01T12:06:53Z</time><name>PT5365</name></trkpt>
<trkpt lat="52.096949" lon="05.700394"><ele>38.5</ele><time>2021-03-01T12:06:54Z</time><name>PT5366</name></trkpt>
<trkpt lat="52.096942" lon="05.700409"><ele>38.3</ele><time>2021-03-01T12:06:55Z</time><name>PT5367</name></trkpt>
<trkpt lat="52.096935" lon="05.700420"><ele>38.1</ele><time>2021-03-01T12:06:56Z</time><name>PT5368</name></trkpt>
<trkpt lat="52.096928" lon="05.700428"><ele>38.1</ele><time>2021-03-01T12:06:57Z</time><name>PT5369</name></trkpt>
<trkpt lat="52.096923" lon="05.700443"><ele>38.1</ele><time>2021-03-01T12:06:58Z</time><name>PT5370</name></trkpt>
<trkpt lat="52.096918" lon="05.700449"><ele>38</ele><time>2021-03-01T12:06:59Z</time><name>PT5371</name></trkpt>
<trkpt lat="52.096912" lon="05.700462"><ele>37.7</ele><time>2021-03-01T12:07:00Z</time><name>PT5372</name></trkpt>
<trkpt lat="52.096904" lon="05.700483"><ele>37.3</ele><time>2021-03-01T12:07:01Z</time><name>PT5373</name></trkpt>
<trkpt lat="52.096899" lon="05.700500"><ele>37.1</ele><time>2021-03-01T12:07:02Z</time><name>PT5374</name></trkpt>
<trkpt lat="52.096892" lon="05.700512"><ele>36.8</ele><time>2021-03-01T12:07:03Z</time><name>PT5375</name></trkpt>
<trkpt lat="52.096887" lon="05.700520"><ele>36.7</ele><time>2021-03-01T12:07:04Z</time><name>PT5376</name></trkpt>
<trkpt lat="52.096885" lon="05.700528"><ele>36.7</ele><time>2021-03-01T12:07:05Z</time><name>PT5377</name></trkpt>
<trkpt lat="52.096882" lon="05.700540"><ele>36.5</ele><time>2021-03-01T12:07:06Z</time><name>PT5378</name></trkpt>
<trkpt lat="52.096879" lon="05.700548"><ele>36.4</ele><time>2021-03-01T12:07:07Z</time><name>PT5379</name></trkpt>
<trkpt lat="52.096874" lon="05.700561"><ele>36.2</ele><time>2021-03-01T12:07:08Z</time><name>PT5380</name></trkpt>
<trkpt lat="52.096871" lon="05.700573"><ele>36</ele><time>2021-03-01T12:07:09Z</time><name>PT5381</name></trkpt>
<trkpt lat="52.096869" lon="05.700584"><ele>35.9</ele><time>2021-03-01T12:07:10Z</time><name>PT5382</name></trkpt>
<trkpt lat="52.096867" lon="05.700596"><ele>35.9</ele><time>2021-03-01T12:07:11Z</time><name>PT5383</name></trkpt>
<trkpt lat="52.096864" lon="05.700613"><ele>35.7</ele><time>2021-03-01T12:07:12Z</time><name>PT5384</name></trkpt>
<trkpt lat="52.096857" lon="05.700638"><ele>35.5</ele><time>2021-03-01T12:07:13Z</time><name>PT5385</name></trkpt>
<trkpt lat="52.096853" lon="05.700658"><ele>35.4</ele><time>2021-03-01T12:07:14Z</time><name>PT5386</name></trkpt>
<trkpt lat="52.096846" lon="05.700674"><ele>35.1</ele><time>2021-03-01T12:07:15Z</time><name>PT5387</name></trkpt>
<trkpt lat="52.096843" lon="05.700692"><ele>35</ele><time>2021-03-01T12:07:16Z</time><name>PT5388</name></trkpt>
<trkpt lat="52.096844" lon="05.700712"><ele>34.8</ele><time>2021-03-01T12:07:17Z</time><name>PT5389</name></trkpt>
<trkpt lat="52.096846" lon="05.700729"><ele>34.7</ele><time>2021-03-01T12:07:18Z</time><name>PT5390</name></trkpt>
<trkpt lat="52.096848" lon="05.700749"><ele>34.6</ele><time>2021-03-01T12:07:19Z</time><name>PT5391</name></trkpt>
<trkpt lat="52.096848" lon="05.700765"><ele>34.6</ele><time>2021-03-01T12:07:20Z</time><name>PT5392</name></trkpt>
<trkpt lat="52.096844" lon="05.700783"><ele>34.6</ele><time>2021-03-01T12:07:21Z</time><name>PT5393</name></trkpt>
<trkpt lat="52.096844" lon="05.700799"><ele>34.4</ele><time>2021-03-01T12:07:22Z</time><name>PT5394</name></trkpt>
<trkpt lat="52.096847" lon="05.700814"><ele>34.2</ele><time>2021-03-01T12:07:23Z</time><name>PT5395</name></trkpt>
<trkpt lat="52.096848" lon="05.700829"><ele>34</ele><time>2021-03-01T12:07:24Z</time><name>PT5396</name></trkpt>
<trkpt lat="52.096851" lon="05.700847"><ele>33.7</ele><time>2021-03-01T12:07:25Z</time><name>PT5397</name></trkpt>
<trkpt lat="52.096855" lon="05.700859"><ele>33.6</ele><time>2021-03-01T12:07:26Z</time><name>PT5398</name></trkpt>
<trkpt lat="52.096856" lon="05.700870"><ele>33.7</ele><time>2021-03-01T12:07:27Z</time><name>PT5399</name></trkpt>
<trkpt lat="52.096855" lon="05.700884"><ele>33.7</ele><time>2021-03-01T12:07:28Z</time><name>PT5400</name></trkpt>
<trkpt lat="52.096855" lon="05.700900"><ele>33.8</ele><time>2021-03-01T12:07:29Z</time><name>PT5401</name></trkpt>
<trkpt lat="52.096851" lon="05.700930"><ele>33.9</ele><time>2021-03-01T12:07:30Z</time><name>PT5402</name></trkpt>
<trkpt lat="52.096847" lon="05.700953"><ele>33.9</ele><time>2021-03-01T12:07:31Z</time><name>PT5403</name></trkpt>
<trkpt lat="52.096846" lon="05.700973"><ele>33.8</ele><time>2021-03-01T12:07:32Z</time><name>PT5404</name></trkpt>
<trkpt lat="52.096843" lon="05.700992"><ele>33.8</ele><time>2021-03-01T12:07:33Z</time><name>PT5405</name></trkpt>
<trkpt lat="52.096841" lon="05.701008"><ele>33.9</ele><time>2021-03-01T12:07:34Z</time><name>PT5406</name></trkpt>
<trkpt lat="52.096839" lon="05.701021"><ele>33.8</ele><time>2021-03-01T12:07:35Z</time><name>PT5407</name></trkpt>
<trkpt lat="52.096838" lon="05.701033"><ele>33.8</ele><time>2021-03-01T12:07:36Z</time><name>PT5408</name></trkpt>
<trkpt lat="52.096834" lon="05.701048"><ele>33.8</ele><time>2021-03-01T12:07:37Z</time><name>PT5409</name></trkpt>
<trkpt lat="52.096832" lon="05.701067"><ele>33.8</ele><time>2021-03-01T12:07:38Z</time><name>PT5410</name></trkpt>
<trkpt lat="52.096829" lon="05.701083"><ele>33.7</ele><time>2021-03-01T12:07:39Z</time><name>PT5411</name></trkpt>
<trkpt lat="52.096826" lon="05.701098"><ele>33.8</ele><time>2021-03-01T12:07:40Z</time><name>PT5412</name></trkpt>
<trkpt lat="52.096826" lon="05.701112"><ele>33.7</ele><time>2021-03-01T12:07:41Z</time><name>PT5413</name></trkpt>
<trkpt lat="52.096826" lon="05.701127"><ele>33.8</ele><time>2021-03-01T12:07:42Z</time><name>PT5414</name></trkpt>
<trkpt lat="52.096827" lon="05.701137"><ele>33.8</ele><time>2021-03-01T12:07:43Z</time><name>PT5415</name></trkpt>
<trkpt lat="52.096824" lon="05.701152"><ele>33.7</ele><time>2021-03-01T12:07:44Z</time><name>PT5416</name></trkpt>
<trkpt lat="52.096822" lon="05.701166"><ele>33.7</ele><time>2021-03-01T12:07:45Z</time><name>PT5417</name></trkpt>
<trkpt lat="52.096820" lon="05.701182"><ele>33.7</ele><time>2021-03-01T12:07:46Z</time><name>PT5418</name></trkpt>
<trkpt lat="52.096819" lon="05.701198"><ele>33.5</ele><time>2021-03-01T12:07:47Z</time><name>PT5419</name></trkpt>
<trkpt lat="52.096821" lon="05.701213"><ele>33.6</ele><time>2021-03-01T12:07:48Z</time><name>PT5420</name></trkpt>
<trkpt lat="52.096818" lon="05.701231"><ele>33.6</ele><time>2021-03-01T12:07:49Z</time><name>PT5421</name></trkpt>
<trkpt lat="52.096817" lon="05.701239"><ele>33.6</ele><time>2021-03-01T12:07:50Z</time><name>PT5422</name></trkpt>
<trkpt lat="52.096817" lon="05.701242"><ele>33.6</ele><time>2021-03-01T12:07:51Z</time><name>PT5423</name></trkpt>
<trkpt lat="52.096820" lon="05.701246"><ele>33.7</ele><time>2021-03-01T12:07:52Z</time><name>PT5424</name></trkpt>
<trkpt lat="52.096820" lon="05.701252"><ele>33.7</ele><time>2021-03-01T12:07:53Z</time><name>PT5425</name></trkpt>
<trkpt lat="52.096823" lon="05.701254"><ele>33.6</ele><time>2021-03-01T12:07:54Z</time><name>PT5426</name></trkpt>
<trkpt lat="52.096823" lon="05.701268"><ele>33.7</ele><time>2021-03-01T12:07:55Z</time><name>PT5427</name></trkpt>
<trkpt lat="52.096821" lon="05.701281"><ele>33.5</ele><time>2021-03-01T12:07:56Z</time><name>PT5428</name></trkpt>
<trkpt lat="52.096823" lon="05.701290"><ele>33.5</ele><time>2021-03-01T12:07:57Z</time><name>PT5429</name></trkpt>
<trkpt lat="52.096821" lon="05.701304"><ele>33.6</ele><time>2021-03-01T12:07:58Z</time><name>PT5430</name></trkpt>
<trkpt lat="52.096821" lon="05.701315"><ele>33.4</ele><time>2021-03-01T12:07:59Z</time><name>PT5431</name></trkpt>
<trkpt lat="52.096817" lon="05.701332"><ele>33.4</ele><time>2021-03-01T12:08:00Z</time><name>PT5432</name></trkpt>
<trkpt lat="52.096816" lon="05.701347"><ele>33.4</ele><time>2021-03-01T12:08:01Z</time><name>PT5433</name></trkpt>
<trkpt lat="52.096817" lon="05.701358"><ele>33.3</ele><time>2021-03-01T12:08:02Z</time><name>PT5434</name></trkpt>
<trkpt lat="52.096815" lon="05.701368"><ele>33.5</ele><time>2021-03-01T12:08:03Z</time><name>PT5435</name></trkpt>
<trkpt lat="52.096811" lon="05.701374"><ele>33.4</ele><time>2021-03-01T12:08:04Z</time><name>PT5436</name></trkpt>
<trkpt lat="52.096806" lon="05.701386"><ele>33.5</ele><time>2021-03-01T12:08:05Z</time><name>PT5437</name></trkpt>
<trkpt lat="52.096805" lon="05.701388"><ele>33.5</ele><time>2021-03-01T12:08:06Z</time><name>PT5438</name></trkpt>
<trkpt lat="52.096801" lon="05.701397"><ele>33.4</ele><time>2021-03-01T12:08:07Z</time><name>PT5439</name></trkpt>
<trkpt lat="52.096800" lon="05.701399"><ele>33.5</ele><time>2021-03-01T12:08:08Z</time><name>PT5440</name></trkpt>
<trkpt lat="52.096799" lon="05.701404"><ele>33.4</ele><time>2021-03-01T12:08:09Z</time><name>PT5441</name></trkpt>
<trkpt lat="52.096800" lon="05.701405"><ele>33.5</ele><time>2021-03-01T12:08:10Z</time><name>PT5442</name></trkpt>
<trkpt lat="52.096801" lon="05.701405"><ele>33.5</ele><time>2021-03-01T12:08:11Z</time><name>PT5443</name></trkpt>
<trkpt lat="52.096800" lon="05.701412"><ele>33.3</ele><time>2021-03-01T12:08:14Z</time><name>PT5444</name></trkpt>
<trkpt lat="52.096797" lon="05.701415"><ele>33.2</ele><time>2021-03-01T12:08:15Z</time><name>PT5445</name></trkpt>
<trkpt lat="52.096795" lon="05.701414"><ele>33</ele><time>2021-03-01T12:08:16Z</time><name>PT5446</name></trkpt>
<trkpt lat="52.096795" lon="05.701408"><ele>33</ele><time>2021-03-01T12:08:17Z</time><name>PT5447</name></trkpt>
<trkpt lat="52.096794" lon="05.701402"><ele>33.2</ele><time>2021-03-01T12:08:18Z</time><name>PT5448</name></trkpt>
<trkpt lat="52.096793" lon="05.701393"><ele>33.2</ele><time>2021-03-01T12:08:19Z</time><name>PT5449</name></trkpt>
<trkpt lat="52.096796" lon="05.701383"><ele>33.3</ele><time>2021-03-01T12:08:20Z</time><name>PT5450</name></trkpt>
<trkpt lat="52.096797" lon="05.701375"><ele>33.3</ele><time>2021-03-01T12:08:21Z</time><name>PT5451</name></trkpt>
<trkpt lat="52.096798" lon="05.701366"><ele>33.4</ele><time>2021-03-01T12:08:22Z</time><name>PT5452</name></trkpt>
<trkpt lat="52.096799" lon="05.701357"><ele>33.3</ele><time>2021-03-01T12:08:23Z</time><name>PT5453</name></trkpt>
<trkpt lat="52.096803" lon="05.701349"><ele>33.5</ele><time>2021-03-01T12:08:24Z</time><name>PT5454</name></trkpt>
<trkpt lat="52.096805" lon="05.701338"><ele>33.7</ele><time>2021-03-01T12:08:25Z</time><name>PT5455</name></trkpt>
<trkpt lat="52.096806" lon="05.701329"><ele>33.5</ele><time>2021-03-01T12:08:26Z</time><name>PT5456</name></trkpt>
<trkpt lat="52.096812" lon="05.701328"><ele>33.6</ele><time>2021-03-01T12:08:27Z</time><name>PT5457</name></trkpt>
<trkpt lat="52.096817" lon="05.701319"><ele>33.3</ele><time>2021-03-01T12:08:28Z</time><name>PT5458</name></trkpt>
<trkpt lat="52.096819" lon="05.701304"><ele>33.3</ele><time>2021-03-01T12:08:29Z</time><name>PT5459</name></trkpt>
<trkpt lat="52.096822" lon="05.701293"><ele>33.3</ele><time>2021-03-01T12:08:30Z</time><name>PT5460</name></trkpt>
<trkpt lat="52.096824" lon="05.701282"><ele>33.3</ele><time>2021-03-01T12:08:31Z</time><name>PT5461</name></trkpt>
<trkpt lat="52.096826" lon="05.701268"><ele>33.4</ele><time>2021-03-01T12:08:32Z</time><name>PT5462</name></trkpt>
<trkpt lat="52.096829" lon="05.701260"><ele>33.5</ele><time>2021-03-01T12:08:33Z</time><name>PT5463</name></trkpt>
<trkpt lat="52.096832" lon="05.701252"><ele>33.6</ele><time>2021-03-01T12:08:34Z</time><name>PT5464</name></trkpt>
<trkpt lat="52.096835" lon="05.701240"><ele>33.5</ele><time>2021-03-01T12:08:35Z</time><name>PT5465</name></trkpt>
<trkpt lat="52.096842" lon="05.701225"><ele>33.7</ele><time>2021-03-01T12:08:36Z</time><name>PT5466</name></trkpt>
<trkpt lat="52.096845" lon="05.701210"><ele>33.6</ele><time>2021-03-01T12:08:37Z</time><name>PT5467</name></trkpt>
<trkpt lat="52.096841" lon="05.701194"><ele>33.7</ele><time>2021-03-01T12:08:38Z</time><name>PT5468</name></trkpt>
<trkpt lat="52.096841" lon="05.701181"><ele>33.8</ele><time>2021-03-01T12:08:39Z</time><name>PT5469</name></trkpt>
<trkpt lat="52.096844" lon="05.701165"><ele>33.8</ele><time>2021-03-01T12:08:40Z</time><name>PT5470</name></trkpt>
<trkpt lat="52.096845" lon="05.701152"><ele>33.7</ele><time>2021-03-01T12:08:41Z</time><name>PT5471</name></trkpt>
<trkpt lat="52.096847" lon="05.701143"><ele>33.7</ele><time>2021-03-01T12:08:42Z</time><name>PT5472</name></trkpt>
<trkpt lat="52.096846" lon="05.701129"><ele>33.7</ele><time>2021-03-01T12:08:43Z</time><name>PT5473</name></trkpt>
<trkpt lat="52.096847" lon="05.701117"><ele>33.4</ele><time>2021-03-01T12:08:44Z</time><name>PT5474</name></trkpt>
<trkpt lat="52.096852" lon="05.701107"><ele>33.4</ele><time>2021-03-01T12:08:45Z</time><name>PT5475</name></trkpt>
<trkpt lat="52.096856" lon="05.701097"><ele>33.5</ele><time>2021-03-01T12:08:46Z</time><name>PT5476</name></trkpt>
<trkpt lat="52.096857" lon="05.701080"><ele>33.5</ele><time>2021-03-01T12:08:47Z</time><name>PT5477</name></trkpt>
<trkpt lat="52.096858" lon="05.701057"><ele>33.6</ele><time>2021-03-01T12:08:48Z</time><name>PT5478</name></trkpt>
<trkpt lat="52.096862" lon="05.701041"><ele>33.8</ele><time>2021-03-01T12:08:49Z</time><name>PT5479</name></trkpt>
<trkpt lat="52.096864" lon="05.701026"><ele>33.7</ele><time>2021-03-01T12:08:50Z</time><name>PT5480</name></trkpt>
<trkpt lat="52.096867" lon="05.701009"><ele>33.9</ele><time>2021-03-01T12:08:51Z</time><name>PT5481</name></trkpt>
<trkpt lat="52.096874" lon="05.700988"><ele>34.1</ele><time>2021-03-01T12:08:52Z</time><name>PT5482</name></trkpt>
<trkpt lat="52.096881" lon="05.700972"><ele>34.1</ele><time>2021-03-01T12:08:53Z</time><name>PT5483</name></trkpt>
<trkpt lat="52.096888" lon="05.700955"><ele>34.1</ele><time>2021-03-01T12:08:54Z</time><name>PT5484</name></trkpt>
<trkpt lat="52.096895" lon="05.700944"><ele>34</ele><time>2021-03-01T12:08:55Z</time><name>PT5485</name></trkpt>
<trkpt lat="52.096899" lon="05.700949"><ele>33.8</ele><time>2021-03-01T12:08:56Z</time><name>PT5486</name></trkpt>
<trkpt lat="52.096908" lon="05.700949"><ele>33.7</ele><time>2021-03-01T12:08:57Z</time><name>PT5487</name></trkpt>
<trkpt lat="52.096917" lon="05.700946"><ele>33.7</ele><time>2021-03-01T12:08:58Z</time><name>PT5488</name></trkpt>
<trkpt lat="52.096925" lon="05.700934"><ele>33.7</ele><time>2021-03-01T12:08:59Z</time><name>PT5489</name></trkpt>
<trkpt lat="52.096933" lon="05.700924"><ele>33.7</ele><time>2021-03-01T12:09:00Z</time><name>PT5490</name></trkpt>
<trkpt lat="52.096943" lon="05.700914"><ele>33.7</ele><time>2021-03-01T12:09:01Z</time><name>PT5491</name></trkpt>
<trkpt lat="52.096951" lon="05.700907"><ele>33.7</ele><time>2021-03-01T12:09:02Z</time><name>PT5492</name></trkpt>
<trkpt lat="52.096958" lon="05.700900"><ele>33.7</ele><time>2021-03-01T12:09:03Z</time><name>PT5493</name></trkpt>
<trkpt lat="52.096965" lon="05.700897"><ele>33.7</ele><time>2021-03-01T12:09:04Z</time><name>PT5494</name></trkpt>
<trkpt lat="52.096966" lon="05.700890"><ele>33.7</ele><time>2021-03-01T12:09:05Z</time><name>PT5495</name></trkpt>
<trkpt lat="52.096966" lon="05.700873"><ele>33.8</ele><time>2021-03-01T12:09:06Z</time><name>PT5496</name></trkpt>
<trkpt lat="52.096967" lon="05.700859"><ele>33.8</ele><time>2021-03-01T12:09:07Z</time><name>PT5497</name></trkpt>
<trkpt lat="52.096968" lon="05.700848"><ele>33.7</ele><time>2021-03-01T12:09:08Z</time><name>PT5498</name></trkpt>
<trkpt lat="52.096968" lon="05.700843"><ele>33.7</ele><time>2021-03-01T12:09:09Z</time><name>PT5499</name></trkpt>
<trkpt lat="52.096979" lon="05.700822"><ele>33.3</ele><time>2021-03-01T12:09:13Z</time><name>PT5500</name></trkpt>
<trkpt lat="52.096983" lon="05.700795"><ele>33.5</ele><time>2021-03-01T12:09:14Z</time><name>PT5501</name></trkpt>
<trkpt lat="52.096979" lon="05.700791"><ele>34.3</ele><time>2021-03-01T12:09:15Z</time><name>PT5502</name></trkpt>
<trkpt lat="52.096975" lon="05.700787"><ele>34.6</ele><time>2021-03-01T12:09:16Z</time><name>PT5503</name></trkpt>
<trkpt lat="52.096979" lon="05.700778"><ele>33.7</ele><time>2021-03-01T12:09:22Z</time><name>PT5504</name></trkpt>
<trkpt lat="52.096984" lon="05.700774"><ele>33.7</ele><time>2021-03-01T12:09:23Z</time><name>PT5505</name></trkpt>
<trkpt lat="52.096986" lon="05.700772"><ele>33.8</ele><time>2021-03-01T12:09:24Z</time><name>PT5506</name></trkpt>
<trkpt lat="52.096991" lon="05.700767"><ele>33.8</ele><time>2021-03-01T12:09:25Z</time><name>PT5507</name></trkpt>
<trkpt lat="52.096999" lon="05.700754"><ele>33.7</ele><time>2021-03-01T12:09:26Z</time><name>PT5508</name></trkpt>
<trkpt lat="52.097006" lon="05.700742"><ele>33.7</ele><time>2021-03-01T12:09:27Z</time><name>PT5509</name></trkpt>
<trkpt lat="52.097015" lon="05.700734"><ele>33.7</ele><time>2021-03-01T12:09:28Z</time><name>PT5510</name></trkpt>
<trkpt lat="52.097025" lon="05.700725"><ele>33.7</ele><time>2021-03-01T12:09:29Z</time><name>PT5511</name></trkpt>
<trkpt lat="52.097034" lon="05.700719"><ele>33.7</ele><time>2021-03-01T12:09:30Z</time><name>PT5512</name></trkpt>
<trkpt lat="52.097043" lon="05.700713"><ele>33.7</ele><time>2021-03-01T12:09:31Z</time><name>PT5513</name></trkpt>
<trkpt lat="52.097051" lon="05.700709"><ele>33.8</ele><time>2021-03-01T12:09:32Z</time><name>PT5514</name></trkpt>
<trkpt lat="52.097061" lon="05.700699"><ele>34.1</ele><time>2021-03-01T12:09:33Z</time><name>PT5515</name></trkpt>
<trkpt lat="52.097069" lon="05.700692"><ele>34.2</ele><time>2021-03-01T12:09:34Z</time><name>PT5516</name></trkpt>
<trkpt lat="52.097079" lon="05.700683"><ele>34.4</ele><time>2021-03-01T12:09:35Z</time><name>PT5517</name></trkpt>
<trkpt lat="52.097088" lon="05.700672"><ele>34.3</ele><time>2021-03-01T12:09:36Z</time><name>PT5518</name></trkpt>
<trkpt lat="52.097098" lon="05.700666"><ele>34.3</ele><time>2021-03-01T12:09:37Z</time><name>PT5519</name></trkpt>
<trkpt lat="52.097107" lon="05.700662"><ele>34.2</ele><time>2021-03-01T12:09:38Z</time><name>PT5520</name></trkpt>
<trkpt lat="52.097115" lon="05.700656"><ele>34.1</ele><time>2021-03-01T12:09:40Z</time><name>PT5521</name></trkpt>
<trkpt lat="52.097125" lon="05.700649"><ele>34</ele><time>2021-03-01T12:09:40Z</time><name>PT5522</name></trkpt>
<trkpt lat="52.097133" lon="05.700644"><ele>34</ele><time>2021-03-01T12:09:41Z</time><name>PT5523</name></trkpt>
<trkpt lat="52.097142" lon="05.700639"><ele>34.1</ele><time>2021-03-01T12:09:42Z</time><name>PT5524</name></trkpt>
<trkpt lat="52.097152" lon="05.700631"><ele>33.8</ele><time>2021-03-01T12:09:43Z</time><name>PT5525</name></trkpt>
<trkpt lat="52.097162" lon="05.700623"><ele>33.8</ele><time>2021-03-01T12:09:44Z</time><name>PT5526</name></trkpt>
<trkpt lat="52.097170" lon="05.700615"><ele>33.8</ele><time>2021-03-01T12:09:45Z</time><name>PT5527</name></trkpt>
<trkpt lat="52.097180" lon="05.700606"><ele>33.7</ele><time>2021-03-01T12:09:46Z</time><name>PT5528</name></trkpt>
<trkpt lat="52.097190" lon="05.700596"><ele>33.6</ele><time>2021-03-01T12:09:47Z</time><name>PT5529</name></trkpt>
<trkpt lat="52.097202" lon="05.700585"><ele>33.5</ele><time>2021-03-01T12:09:48Z</time><name>PT5530</name></trkpt>
<trkpt lat="52.097213" lon="05.700574"><ele>33.6</ele><time>2021-03-01T12:09:49Z</time><name>PT5531</name></trkpt>
<trkpt lat="52.097223" lon="05.700565"><ele>33.6</ele><time>2021-03-01T12:09:50Z</time><name>PT5532</name></trkpt>
<trkpt lat="52.097232" lon="05.700555"><ele>33.4</ele><time>2021-03-01T12:09:51Z</time><name>PT5533</name></trkpt>
<trkpt lat="52.097234" lon="05.700549"><ele>33.5</ele><time>2021-03-01T12:09:52Z</time><name>PT5534</name></trkpt>
<trkpt lat="52.097239" lon="05.700545"><ele>33.7</ele><time>2021-03-01T12:09:53Z</time><name>PT5535</name></trkpt>
<trkpt lat="52.097249" lon="05.700543"><ele>33.7</ele><time>2021-03-01T12:09:54Z</time><name>PT5536</name></trkpt>
<trkpt lat="52.097257" lon="05.700538"><ele>33.8</ele><time>2021-03-01T12:09:55Z</time><name>PT5537</name></trkpt>
<trkpt lat="52.097268" lon="05.700532"><ele>33.9</ele><time>2021-03-01T12:09:56Z</time><name>PT5538</name></trkpt>
<trkpt lat="52.097281" lon="05.700521"><ele>33.8</ele><time>2021-03-01T12:09:57Z</time><name>PT5539</name></trkpt>
<trkpt lat="52.097292" lon="05.700514"><ele>33.7</ele><time>2021-03-01T12:09:58Z</time><name>PT5540</name></trkpt>
<trkpt lat="52.097301" lon="05.700509"><ele>33.5</ele><time>2021-03-01T12:09:59Z</time><name>PT5541</name></trkpt>
<trkpt lat="52.097309" lon="05.700501"><ele>33.4</ele><time>2021-03-01T12:10:00Z</time><name>PT5542</name></trkpt>
<trkpt lat="52.097316" lon="05.700493"><ele>33.4</ele><time>2021-03-01T12:10:01Z</time><name>PT5543</name></trkpt>
<trkpt lat="52.097321" lon="05.700489"><ele>33.6</ele><time>2021-03-01T12:10:02Z</time><name>PT5544</name></trkpt>
<trkpt lat="52.097329" lon="05.700485"><ele>33.7</ele><time>2021-03-01T12:10:03Z</time><name>PT5545</name></trkpt>
<trkpt lat="52.097340" lon="05.700478"><ele>33.7</ele><time>2021-03-01T12:10:04Z</time><name>PT5546</name></trkpt>
<trkpt lat="52.097352" lon="05.700471"><ele>33.7</ele><time>2021-03-01T12:10:05Z</time><name>PT5547</name></trkpt>
<trkpt lat="52.097362" lon="05.700469"><ele>33.7</ele><time>2021-03-01T12:10:06Z</time><name>PT5548</name></trkpt>
<trkpt lat="52.097373" lon="05.700458"><ele>33.8</ele><time>2021-03-01T12:10:07Z</time><name>PT5549</name></trkpt>
<trkpt lat="52.097383" lon="05.700451"><ele>33.9</ele><time>2021-03-01T12:10:08Z</time><name>PT5550</name></trkpt>
<trkpt lat="52.097390" lon="05.700447"><ele>33.8</ele><time>2021-03-01T12:10:09Z</time><name>PT5551</name></trkpt>
<trkpt lat="52.097397" lon="05.700441"><ele>33.7</ele><time>2021-03-01T12:10:10Z</time><name>PT5552</name></trkpt>
<trkpt lat="52.097402" lon="05.700438"><ele>33.6</ele><time>2021-03-01T12:10:11Z</time><name>PT5553</name></trkpt>
<trkpt lat="52.097411" lon="05.700433"><ele>33.6</ele><time>2021-03-01T12:10:12Z</time><name>PT5554</name></trkpt>
<trkpt lat="52.097421" lon="05.700429"><ele>33.7</ele><time>2021-03-01T12:10:13Z</time><name>PT5555</name></trkpt>
<trkpt lat="52.097430" lon="05.700420"><ele>33.7</ele><time>2021-03-01T12:10:14Z</time><name>PT5556</name></trkpt>
<trkpt lat="52.097442" lon="05.700412"><ele>33.7</ele><time>2021-03-01T12:10:15Z</time><name>PT5557</name></trkpt>
<trkpt lat="52.097453" lon="05.700402"><ele>33.7</ele><time>2021-03-01T12:10:16Z</time><name>PT5558</name></trkpt>
<trkpt lat="52.097463" lon="05.700398"><ele>33.7</ele><time>2021-03-01T12:10:17Z</time><name>PT5559</name></trkpt>
<trkpt lat="52.097472" lon="05.700398"><ele>33.6</ele><time>2021-03-01T12:10:18Z</time><name>PT5560</name></trkpt>
<trkpt lat="52.097484" lon="05.700393"><ele>33.6</ele><time>2021-03-01T12:10:19Z</time><name>PT5561</name></trkpt>
<trkpt lat="52.097495" lon="05.700392"><ele>33.5</ele><time>2021-03-01T12:10:20Z</time><name>PT5562</name></trkpt>
<trkpt lat="52.097506" lon="05.700385"><ele>33.3</ele><time>2021-03-01T12:10:21Z</time><name>PT5563</name></trkpt>
<trkpt lat="52.097517" lon="05.700383"><ele>33.2</ele><time>2021-03-01T12:10:22Z</time><name>PT5564</name></trkpt>
<trkpt lat="52.097527" lon="05.700379"><ele>32.9</ele><time>2021-03-01T12:10:23Z</time><name>PT5565</name></trkpt>
<trkpt lat="52.097539" lon="05.700369"><ele>32.8</ele><time>2021-03-01T12:10:24Z</time><name>PT5566</name></trkpt>
<trkpt lat="52.097554" lon="05.700359"><ele>32.8</ele><time>2021-03-01T12:10:25Z</time><name>PT5567</name></trkpt>
<trkpt lat="52.097567" lon="05.700350"><ele>32.8</ele><time>2021-03-01T12:10:26Z</time><name>PT5568</name></trkpt>
<trkpt lat="52.097577" lon="05.700340"><ele>33</ele><time>2021-03-01T12:10:27Z</time><name>PT5569</name></trkpt>
<trkpt lat="52.097586" lon="05.700334"><ele>33</ele><time>2021-03-01T12:10:28Z</time><name>PT5570</name></trkpt>
<trkpt lat="52.097595" lon="05.700323"><ele>33</ele><time>2021-03-01T12:10:29Z</time><name>PT5571</name></trkpt>
<trkpt lat="52.097607" lon="05.700315"><ele>33.1</ele><time>2021-03-01T12:10:30Z</time><name>PT5572</name></trkpt>
<trkpt lat="52.097618" lon="05.700302"><ele>33.2</ele><time>2021-03-01T12:10:31Z</time><name>PT5573</name></trkpt>
<trkpt lat="52.097628" lon="05.700292"><ele>33.2</ele><time>2021-03-01T12:10:32Z</time><name>PT5574</name></trkpt>
<trkpt lat="52.097639" lon="05.700281"><ele>33.3</ele><time>2021-03-01T12:10:33Z</time><name>PT5575</name></trkpt>
<trkpt lat="52.097654" lon="05.700271"><ele>33.2</ele><time>2021-03-01T12:10:34Z</time><name>PT5576</name></trkpt>
<trkpt lat="52.097667" lon="05.700260"><ele>33.2</ele><time>2021-03-01T12:10:35Z</time><name>PT5577</name></trkpt>
<trkpt lat="52.097678" lon="05.700250"><ele>33.2</ele><time>2021-03-01T12:10:36Z</time><name>PT5578</name></trkpt>
<trkpt lat="52.097689" lon="05.700240"><ele>33.2</ele><time>2021-03-01T12:10:37Z</time><name>PT5579</name></trkpt>
<trkpt lat="52.097702" lon="05.700226"><ele>33.3</ele><time>2021-03-01T12:10:38Z</time><name>PT5580</name></trkpt>
<trkpt lat="52.097713" lon="05.700212"><ele>33.3</ele><time>2021-03-01T12:10:39Z</time><name>PT5581</name></trkpt>
<trkpt lat="52.097725" lon="05.700200"><ele>33.4</ele><time>2021-03-01T12:10:40Z</time><name>PT5582</name></trkpt>
<trkpt lat="52.097737" lon="05.700187"><ele>33.3</ele><time>2021-03-01T12:10:41Z</time><name>PT5583</name></trkpt>
<trkpt lat="52.097748" lon="05.700174"><ele>33.3</ele><time>2021-03-01T12:10:42Z</time><name>PT5584</name></trkpt>
<trkpt lat="52.097759" lon="05.700165"><ele>33.4</ele><time>2021-03-01T12:10:43Z</time><name>PT5585</name></trkpt>
<trkpt lat="52.097769" lon="05.700157"><ele>33.5</ele><time>2021-03-01T12:10:44Z</time><name>PT5586</name></trkpt>
<trkpt lat="52.097780" lon="05.700147"><ele>33.4</ele><time>2021-03-01T12:10:45Z</time><name>PT5587</name></trkpt>
<trkpt lat="52.097790" lon="05.700137"><ele>33.4</ele><time>2021-03-01T12:10:46Z</time><name>PT5588</name></trkpt>
<trkpt lat="52.097799" lon="05.700130"><ele>33.3</ele><time>2021-03-01T12:10:47Z</time><name>PT5589</name></trkpt>
<trkpt lat="52.097811" lon="05.700121"><ele>33.2</ele><time>2021-03-01T12:10:48Z</time><name>PT5590</name></trkpt>
<trkpt lat="52.097823" lon="05.700114"><ele>33.2</ele><time>2021-03-01T12:10:49Z</time><name>PT5591</name></trkpt>
<trkpt lat="52.097841" lon="05.700105"><ele>33.3</ele><time>2021-03-01T12:10:50Z</time><name>PT5592</name></trkpt>
<trkpt lat="52.097853" lon="05.700094"><ele>33.3</ele><time>2021-03-01T12:10:51Z</time><name>PT5593</name></trkpt>
<trkpt lat="52.097866" lon="05.700089"><ele>33.3</ele><time>2021-03-01T12:10:52Z</time><name>PT5594</name></trkpt>
<trkpt lat="52.097876" lon="05.700086"><ele>33.4</ele><time>2021-03-01T12:10:53Z</time><name>PT5595</name></trkpt>
<trkpt lat="52.097889" lon="05.700078"><ele>33.3</ele><time>2021-03-01T12:10:54Z</time><name>PT5596</name></trkpt>
<trkpt lat="52.097903" lon="05.700070"><ele>33.4</ele><time>2021-03-01T12:10:55Z</time><name>PT5597</name></trkpt>
<trkpt lat="52.097917" lon="05.700062"><ele>33.7</ele><time>2021-03-01T12:10:56Z</time><name>PT5598</name></trkpt>
<trkpt lat="52.097928" lon="05.700054"><ele>34.1</ele><time>2021-03-01T12:10:57Z</time><name>PT5599</name></trkpt>
<trkpt lat="52.097934" lon="05.700048"><ele>34</ele><time>2021-03-01T12:10:58Z</time><name>PT5600</name></trkpt>
<trkpt lat="52.097938" lon="05.700044"><ele>34.2</ele><time>2021-03-01T12:10:59Z</time><name>PT5601</name></trkpt>
<trkpt lat="52.097940" lon="05.700038"><ele>34.1</ele><time>2021-03-01T12:11:00Z</time><name>PT5602</name></trkpt>
<trkpt lat="52.097946" lon="05.700035"><ele>34.1</ele><time>2021-03-01T12:11:01Z</time><name>PT5603</name></trkpt>
<trkpt lat="52.097956" lon="05.700026"><ele>34.1</ele><time>2021-03-01T12:11:02Z</time><name>PT5604</name></trkpt>
<trkpt lat="52.097963" lon="05.700019"><ele>34.1</ele><time>2021-03-01T12:11:03Z</time><name>PT5605</name></trkpt>
<trkpt lat="52.097972" lon="05.700009"><ele>34.1</ele><time>2021-03-01T12:11:04Z</time><name>PT5606</name></trkpt>
<trkpt lat="52.097982" lon="05.700000"><ele>34.1</ele><time>2021-03-01T12:11:05Z</time><name>PT5607</name></trkpt>
<trkpt lat="52.097991" lon="05.699990"><ele>34</ele><time>2021-03-01T12:11:06Z</time><name>PT5608</name></trkpt>
<trkpt lat="52.098002" lon="05.699982"><ele>33.9</ele><time>2021-03-01T12:11:07Z</time><name>PT5609</name></trkpt>
<trkpt lat="52.098011" lon="05.699973"><ele>34</ele><time>2021-03-01T12:11:08Z</time><name>PT5610</name></trkpt>
<trkpt lat="52.098020" lon="05.699965"><ele>34</ele><time>2021-03-01T12:11:09Z</time><name>PT5611</name></trkpt>
<trkpt lat="52.098028" lon="05.699957"><ele>33.9</ele><time>2021-03-01T12:11:10Z</time><name>PT5612</name></trkpt>
<trkpt lat="52.098039" lon="05.699949"><ele>33.6</ele><time>2021-03-01T12:11:11Z</time><name>PT5613</name></trkpt>
<trkpt lat="52.098046" lon="05.699937"><ele>33.7</ele><time>2021-03-01T12:11:12Z</time><name>PT5614</name></trkpt>
<trkpt lat="52.098055" lon="05.699922"><ele>33.5</ele><time>2021-03-01T12:11:13Z</time><name>PT5615</name></trkpt>
<trkpt lat="52.098065" lon="05.699905"><ele>33.4</ele><time>2021-03-01T12:11:14Z</time><name>PT5616</name></trkpt>
<trkpt lat="52.098074" lon="05.699890"><ele>33.4</ele><time>2021-03-01T12:11:15Z</time><name>PT5617</name></trkpt>
<trkpt lat="52.098082" lon="05.699875"><ele>33.3</ele><time>2021-03-01T12:11:16Z</time><name>PT5618</name></trkpt>
<trkpt lat="52.098084" lon="05.699858"><ele>33.2</ele><time>2021-03-01T12:11:17Z</time><name>PT5619</name></trkpt>
<trkpt lat="52.098082" lon="05.699836"><ele>33.2</ele><time>2021-03-01T12:11:18Z</time><name>PT5620</name></trkpt>
<trkpt lat="52.098079" lon="05.699814"><ele>33.2</ele><time>2021-03-01T12:11:19Z</time><name>PT5621</name></trkpt>
<trkpt lat="52.098075" lon="05.699797"><ele>33.4</ele><time>2021-03-01T12:11:20Z</time><name>PT5622</name></trkpt>
<trkpt lat="52.098069" lon="05.699781"><ele>33.5</ele><time>2021-03-01T12:11:21Z</time><name>PT5623</name></trkpt>
<trkpt lat="52.098063" lon="05.699767"><ele>33.5</ele><time>2021-03-01T12:11:22Z</time><name>PT5624</name></trkpt>
<trkpt lat="52.098054" lon="05.699756"><ele>33.5</ele><time>2021-03-01T12:11:23Z</time><name>PT5625</name></trkpt>
<trkpt lat="52.098045" lon="05.699740"><ele>33.4</ele><time>2021-03-01T12:11:25Z</time><name>PT5626</name></trkpt>
<trkpt lat="52.098039" lon="05.699724"><ele>33.3</ele><time>2021-03-01T12:11:25Z</time><name>PT5627</name></trkpt>
<trkpt lat="52.098033" lon="05.699708"><ele>33.3</ele><time>2021-03-01T12:11:26Z</time><name>PT5628</name></trkpt>
<trkpt lat="52.098026" lon="05.699693"><ele>33.3</ele><time>2021-03-01T12:11:27Z</time><name>PT5629</name></trkpt>
<trkpt lat="52.098020" lon="05.699677"><ele>33.4</ele><time>2021-03-01T12:11:28Z</time><name>PT5630</name></trkpt>
<trkpt lat="52.098015" lon="05.699660"><ele>33.4</ele><time>2021-03-01T12:11:29Z</time><name>PT5631</name></trkpt>
<trkpt lat="52.098010" lon="05.699641"><ele>33.4</ele><time>2021-03-01T12:11:30Z</time><name>PT5632</name></trkpt>
<trkpt lat="52.098004" lon="05.699624"><ele>33.5</ele><time>2021-03-01T12:11:31Z</time><name>PT5633</name></trkpt>
<trkpt lat="52.097997" lon="05.699606"><ele>33.6</ele><time>2021-03-01T12:11:32Z</time><name>PT5634</name></trkpt>
<trkpt lat="52.097990" lon="05.699589"><ele>33.4</ele><time>2021-03-01T12:11:33Z</time><name>PT5635</name></trkpt>
<trkpt lat="52.097983" lon="05.699573"><ele>33.7</ele><time>2021-03-01T12:11:34Z</time><name>PT5636</name></trkpt>
<trkpt lat="52.097977" lon="05.699556"><ele>33.8</ele><time>2021-03-01T12:11:35Z</time><name>PT5637</name></trkpt>
<trkpt lat="52.097973" lon="05.699541"><ele>33.7</ele><time>2021-03-01T12:11:36Z</time><name>PT5638</name></trkpt>
<trkpt lat="52.097968" lon="05.699525"><ele>33.7</ele><time>2021-03-01T12:11:37Z</time><name>PT5639</name></trkpt>
<trkpt lat="52.097962" lon="05.699508"><ele>33.6</ele><time>2021-03-01T12:11:38Z</time><name>PT5640</name></trkpt>
<trkpt lat="52.097956" lon="05.699491"><ele>33.5</ele><time>2021-03-01T12:11:39Z</time><name>PT5641</name></trkpt>
<trkpt lat="52.097951" lon="05.699473"><ele>33.7</ele><time>2021-03-01T12:11:40Z</time><name>PT5642</name></trkpt>
<trkpt lat="52.097945" lon="05.699455"><ele>33.6</ele><time>2021-03-01T12:11:41Z</time><name>PT5643</name></trkpt>
<trkpt lat="52.097939" lon="05.699437"><ele>33.7</ele><time>2021-03-01T12:11:42Z</time><name>PT5644</name></trkpt>
<trkpt lat="52.097932" lon="05.699417"><ele>33.6</ele><time>2021-03-01T12:11:43Z</time><name>PT5645</name></trkpt>
<trkpt lat="52.097926" lon="05.699398"><ele>33.6</ele><time>2021-03-01T12:11:44Z</time><name>PT5646</name></trkpt>
<trkpt lat="52.097920" lon="05.699381"><ele>33.3</ele><time>2021-03-01T12:11:45Z</time><name>PT5647</name></trkpt>
<trkpt lat="52.097913" lon="05.699364"><ele>33.4</ele><time>2021-03-01T12:11:46Z</time><name>PT5648</name></trkpt>
<trkpt lat="52.097906" lon="05.699348"><ele>33.3</ele><time>2021-03-01T12:11:47Z</time><name>PT5649</name></trkpt>
<trkpt lat="52.097902" lon="05.699330"><ele>33.3</ele><time>2021-03-01T12:11:48Z</time><name>PT5650</name></trkpt>
<trkpt lat="52.097895" lon="05.699315"><ele>33.3</ele><time>2021-03-01T12:11:49Z</time><name>PT5651</name></trkpt>
<trkpt lat="52.097889" lon="05.699297"><ele>33.3</ele><time>2021-03-01T12:11:50Z</time><name>PT5652</name></trkpt>
<trkpt lat="52.097882" lon="05.699279"><ele>33.3</ele><time>2021-03-01T12:11:51Z</time><name>PT5653</name></trkpt>
<trkpt lat="52.097875" lon="05.699260"><ele>33.3</ele><time>2021-03-01T12:11:52Z</time><name>PT5654</name></trkpt>
<trkpt lat="52.097869" lon="05.699242"><ele>33.1</ele><time>2021-03-01T12:11:53Z</time><name>PT5655</name></trkpt>
<trkpt lat="52.097863" lon="05.699224"><ele>33.3</ele><time>2021-03-01T12:11:54Z</time><name>PT5656</name></trkpt>
<trkpt lat="52.097858" lon="05.699205"><ele>33.4</ele><time>2021-03-01T12:11:55Z</time><name>PT5657</name></trkpt>
<trkpt lat="52.097850" lon="05.699184"><ele>33.3</ele><time>2021-03-01T12:11:56Z</time><name>PT5658</name></trkpt>
<trkpt lat="52.097843" lon="05.699162"><ele>33.3</ele><time>2021-03-01T12:11:57Z</time><name>PT5659</name></trkpt>
<trkpt lat="52.097835" lon="05.699144"><ele>25</ele><time>2021-03-01T12:11:58Z</time><name>PT5660</name></trkpt>
<trkpt lat="52.097829" lon="05.699124"><ele>24.9</ele><time>2021-03-01T12:11:59Z</time><name>PT5661</name></trkpt>
<trkpt lat="52.097822" lon="05.699105"><ele>24.9</ele><time>2021-03-01T12:12:00Z</time><name>PT5662</name></trkpt>
<trkpt lat="52.097815" lon="05.699086"><ele>24.9</ele><time>2021-03-01T12:12:01Z</time><name>PT5663</name></trkpt>
<trkpt lat="52.097807" lon="05.699067"><ele>25</ele><time>2021-03-01T12:12:02Z</time><name>PT5664</name></trkpt>
<trkpt lat="52.097800" lon="05.699048"><ele>25</ele><time>2021-03-01T12:12:03Z</time><name>PT5665</name></trkpt>
<trkpt lat="52.097792" lon="05.699031"><ele>24.9</ele><time>2021-03-01T12:12:04Z</time><name>PT5666</name></trkpt>
<trkpt lat="52.097785" lon="05.699013"><ele>25.1</ele><time>2021-03-01T12:12:05Z</time><name>PT5667</name></trkpt>
<trkpt lat="52.097781" lon="05.698997"><ele>24.9</ele><time>2021-03-01T12:12:06Z</time><name>PT5668</name></trkpt>
<trkpt lat="52.097775" lon="05.698976"><ele>24</ele><time>2021-03-01T12:12:07Z</time><name>PT5669</name></trkpt>
<trkpt lat="52.097769" lon="05.698955"><ele>24.1</ele><time>2021-03-01T12:12:08Z</time><name>PT5670</name></trkpt>
<trkpt lat="52.097765" lon="05.698936"><ele>24.3</ele><time>2021-03-01T12:12:09Z</time><name>PT5671</name></trkpt>
<trkpt lat="52.097761" lon="05.698917"><ele>24.6</ele><time>2021-03-01T12:12:10Z</time><name>PT5672</name></trkpt>
<trkpt lat="52.097753" lon="05.698897"><ele>24.9</ele><time>2021-03-01T12:12:11Z</time><name>PT5673</name></trkpt>
<trkpt lat="52.097742" lon="05.698880"><ele>25.7</ele><time>2021-03-01T12:12:12Z</time><name>PT5674</name></trkpt>
<trkpt lat="52.097736" lon="05.698853"><ele>26</ele><time>2021-03-01T12:12:13Z</time><name>PT5675</name></trkpt>
<trkpt lat="52.097728" lon="05.698834"><ele>25.5</ele><time>2021-03-01T12:12:14Z</time><name>PT5676</name></trkpt>
<trkpt lat="52.097721" lon="05.698816"><ele>25.3</ele><time>2021-03-01T12:12:15Z</time><name>PT5677</name></trkpt>
<trkpt lat="52.097715" lon="05.698795"><ele>25.6</ele><time>2021-03-01T12:12:16Z</time><name>PT5678</name></trkpt>
<trkpt lat="52.097709" lon="05.698775"><ele>25.8</ele><time>2021-03-01T12:12:17Z</time><name>PT5679</name></trkpt>
<trkpt lat="52.097702" lon="05.698754"><ele>26</ele><time>2021-03-01T12:12:18Z</time><name>PT5680</name></trkpt>
<trkpt lat="52.097695" lon="05.698732"><ele>25.9</ele><time>2021-03-01T12:12:19Z</time><name>PT5681</name></trkpt>
<trkpt lat="52.097689" lon="05.698711"><ele>25.7</ele><time>2021-03-01T12:12:20Z</time><name>PT5682</name></trkpt>
<trkpt lat="52.097682" lon="05.698692"><ele>25.5</ele><time>2021-03-01T12:12:21Z</time><name>PT5683</name></trkpt>
<trkpt lat="52.097675" lon="05.698673"><ele>25.4</ele><time>2021-03-01T12:12:22Z</time><name>PT5684</name></trkpt>
<trkpt lat="52.097668" lon="05.698654"><ele>25.5</ele><time>2021-03-01T12:12:23Z</time><name>PT5685</name></trkpt>
<trkpt lat="52.097662" lon="05.698637"><ele>25.7</ele><time>2021-03-01T12:12:24Z</time><name>PT5686</name></trkpt>
<trkpt lat="52.097657" lon="05.698620"><ele>25.7</ele><time>2021-03-01T12:12:25Z</time><name>PT5687</name></trkpt>
<trkpt lat="52.097651" lon="05.698603"><ele>26.1</ele><time>2021-03-01T12:12:26Z</time><name>PT5688</name></trkpt>
<trkpt lat="52.097645" lon="05.698587"><ele>26</ele><time>2021-03-01T12:12:27Z</time><name>PT5689</name></trkpt>
<trkpt lat="52.097639" lon="05.698570"><ele>25.8</ele><time>2021-03-01T12:12:28Z</time><name>PT5690</name></trkpt>
<trkpt lat="52.097633" lon="05.698554"><ele>25.7</ele><time>2021-03-01T12:12:29Z</time><name>PT5691</name></trkpt>
<trkpt lat="52.097627" lon="05.698538"><ele>25.7</ele><time>2021-03-01T12:12:30Z</time><name>PT5692</name></trkpt>
<trkpt lat="52.097622" lon="05.698522"><ele>25.7</ele><time>2021-03-01T12:12:31Z</time><name>PT5693</name></trkpt>
<trkpt lat="52.097616" lon="05.698504"><ele>25.9</ele><time>2021-03-01T12:12:32Z</time><name>PT5694</name></trkpt>
<trkpt lat="52.097611" lon="05.698485"><ele>26</ele><time>2021-03-01T12:12:33Z</time><name>PT5695</name></trkpt>
<trkpt lat="52.097605" lon="05.698466"><ele>25.9</ele><time>2021-03-01T12:12:34Z</time><name>PT5696</name></trkpt>
<trkpt lat="52.097599" lon="05.698449"><ele>25.8</ele><time>2021-03-01T12:12:35Z</time><name>PT5697</name></trkpt>
<trkpt lat="52.097593" lon="05.698431"><ele>25.7</ele><time>2021-03-01T12:12:36Z</time><name>PT5698</name></trkpt>
<trkpt lat="52.097587" lon="05.698412"><ele>25.5</ele><time>2021-03-01T12:12:37Z</time><name>PT5699</name></trkpt>
<trkpt lat="52.097581" lon="05.698393"><ele>25.6</ele><time>2021-03-01T12:12:38Z</time><name>PT5700</name></trkpt>
<trkpt lat="52.097575" lon="05.698375"><ele>25.7</ele><time>2021-03-01T12:12:39Z</time><name>PT5701</name></trkpt>
<trkpt lat="52.097567" lon="05.698356"><ele>25.7</ele><time>2021-03-01T12:12:40Z</time><name>PT5702</name></trkpt>
<trkpt lat="52.097560" lon="05.698337"><ele>25.7</ele><time>2021-03-01T12:12:41Z</time><name>PT5703</name></trkpt>
<trkpt lat="52.097553" lon="05.698319"><ele>25.7</ele><time>2021-03-01T12:12:42Z</time><name>PT5704</name></trkpt>
<trkpt lat="52.097546" lon="05.698299"><ele>25.7</ele><time>2021-03-01T12:12:43Z</time><name>PT5705</name></trkpt>
<trkpt lat="52.097540" lon="05.698278"><ele>25.7</ele><time>2021-03-01T12:12:44Z</time><name>PT5706</name></trkpt>
<trkpt lat="52.097532" lon="05.698260"><ele>25.7</ele><time>2021-03-01T12:12:45Z</time><name>PT5707</name></trkpt>
<trkpt lat="52.097523" lon="05.698243"><ele>25.7</ele><time>2021-03-01T12:12:46Z</time><name>PT5708</name></trkpt>
<trkpt lat="52.097517" lon="05.698226"><ele>25.7</ele><time>2021-03-01T12:12:47Z</time><name>PT5709</name></trkpt>
<trkpt lat="52.097512" lon="05.698207"><ele>25.7</ele><time>2021-03-01T12:12:48Z</time><name>PT5710</name></trkpt>
<trkpt lat="52.097507" lon="05.698188"><ele>25.6</ele><time>2021-03-01T12:12:49Z</time><name>PT5711</name></trkpt>
<trkpt lat="52.097501" lon="05.698171"><ele>25.7</ele><time>2021-03-01T12:12:50Z</time><name>PT5712</name></trkpt>
<trkpt lat="52.097494" lon="05.698153"><ele>25.6</ele><time>2021-03-01T12:12:51Z</time><name>PT5713</name></trkpt>
<trkpt lat="52.097488" lon="05.698135"><ele>25.6</ele><time>2021-03-01T12:12:52Z</time><name>PT5714</name></trkpt>
<trkpt lat="52.097480" lon="05.698116"><ele>25.6</ele><time>2021-03-01T12:12:53Z</time><name>PT5715</name></trkpt>
<trkpt lat="52.097472" lon="05.698098"><ele>25.7</ele><time>2021-03-01T12:12:54Z</time><name>PT5716</name></trkpt>
<trkpt lat="52.097464" lon="05.698079"><ele>25.8</ele><time>2021-03-01T12:12:55Z</time><name>PT5717</name></trkpt>
<trkpt lat="52.097455" lon="05.698063"><ele>25.9</ele><time>2021-03-01T12:12:56Z</time><name>PT5718</name></trkpt>
<trkpt lat="52.097446" lon="05.698047"><ele>26</ele><time>2021-03-01T12:12:57Z</time><name>PT5719</name></trkpt>
<trkpt lat="52.097438" lon="05.698031"><ele>25.8</ele><time>2021-03-01T12:12:58Z</time><name>PT5720</name></trkpt>
<trkpt lat="52.097428" lon="05.698017"><ele>25.8</ele><time>2021-03-01T12:12:59Z</time><name>PT5721</name></trkpt>
<trkpt lat="52.097419" lon="05.698006"><ele>26.1</ele><time>2021-03-01T12:13:00Z</time><name>PT5722</name></trkpt>
<trkpt lat="52.097411" lon="05.697993"><ele>26</ele><time>2021-03-01T12:13:01Z</time><name>PT5723</name></trkpt>
<trkpt lat="52.097401" lon="05.697980"><ele>26</ele><time>2021-03-01T12:13:02Z</time><name>PT5724</name></trkpt>
<trkpt lat="52.097391" lon="05.697967"><ele>26.1</ele><time>2021-03-01T12:13:03Z</time><name>PT5725</name></trkpt>
<trkpt lat="52.097381" lon="05.697956"><ele>26.1</ele><time>2021-03-01T12:13:04Z</time><name>PT5726</name></trkpt>
<trkpt lat="52.097372" lon="05.697943"><ele>25.9</ele><time>2021-03-01T12:13:05Z</time><name>PT5727</name></trkpt>
<trkpt lat="52.097362" lon="05.697933"><ele>25.9</ele><time>2021-03-01T12:13:06Z</time><name>PT5728</name></trkpt>
<trkpt lat="52.097352" lon="05.697922"><ele>26</ele><time>2021-03-01T12:13:07Z</time><name>PT5729</name></trkpt>
<trkpt lat="52.097341" lon="05.697912"><ele>26.1</ele><time>2021-03-01T12:13:08Z</time><name>PT5730</name></trkpt>
<trkpt lat="52.097332" lon="05.697901"><ele>26.2</ele><time>2021-03-01T12:13:09Z</time><name>PT5731</name></trkpt>
<trkpt lat="52.097322" lon="05.697891"><ele>26.2</ele><time>2021-03-01T12:13:10Z</time><name>PT5732</name></trkpt>
<trkpt lat="52.097311" lon="05.697881"><ele>26.3</ele><time>2021-03-01T12:13:11Z</time><name>PT5733</name></trkpt>
<trkpt lat="52.097299" lon="05.697871"><ele>26.2</ele><time>2021-03-01T12:13:12Z</time><name>PT5734</name></trkpt>
<trkpt lat="52.097288" lon="05.697862"><ele>26.1</ele><time>2021-03-01T12:13:13Z</time><name>PT5735</name></trkpt>
<trkpt lat="52.097276" lon="05.697853"><ele>26</ele><time>2021-03-01T12:13:14Z</time><name>PT5736</name></trkpt>
<trkpt lat="52.097265" lon="05.697845"><ele>26</ele><time>2021-03-01T12:13:15Z</time><name>PT5737</name></trkpt>
<trkpt lat="52.097255" lon="05.697834"><ele>26.1</ele><time>2021-03-01T12:13:16Z</time><name>PT5738</name></trkpt>
<trkpt lat="52.097244" lon="05.697825"><ele>25.9</ele><time>2021-03-01T12:13:17Z</time><name>PT5739</name></trkpt>
<trkpt lat="52.097233" lon="05.697818"><ele>26.1</ele><time>2021-03-01T12:13:18Z</time><name>PT5740</name></trkpt>
<trkpt lat="52.097221" lon="05.697811"><ele>26</ele><time>2021-03-01T12:13:19Z</time><name>PT5741</name></trkpt>
<trkpt lat="52.097210" lon="05.697803"><ele>26</ele><time>2021-03-01T12:13:20Z</time><name>PT5742</name></trkpt>
<trkpt lat="52.097198" lon="05.697795"><ele>26.1</ele><time>2021-03-01T12:13:21Z</time><name>PT5743</name></trkpt>
<trkpt lat="52.097185" lon="05.697788"><ele>26.1</ele><time>2021-03-01T12:13:22Z</time><name>PT5744</name></trkpt>
<trkpt lat="52.097173" lon="05.697783"><ele>26.2</ele><time>2021-03-01T12:13:23Z</time><name>PT5745</name></trkpt>
<trkpt lat="52.097161" lon="05.697777"><ele>26.1</ele><time>2021-03-01T12:13:24Z</time><name>PT5746</name></trkpt>
<trkpt lat="52.097149" lon="05.697768"><ele>26.1</ele><time>2021-03-01T12:13:25Z</time><name>PT5747</name></trkpt>
<trkpt lat="52.097136" lon="05.697761"><ele>25.9</ele><time>2021-03-01T12:13:26Z</time><name>PT5748</name></trkpt>
<trkpt lat="52.097124" lon="05.697755"><ele>25.9</ele><time>2021-03-01T12:13:27Z</time><name>PT5749</name></trkpt>
<trkpt lat="52.097112" lon="05.697749"><ele>26</ele><time>2021-03-01T12:13:28Z</time><name>PT5750</name></trkpt>
<trkpt lat="52.097100" lon="05.697744"><ele>25.9</ele><time>2021-03-01T12:13:29Z</time><name>PT5751</name></trkpt>
<trkpt lat="52.097087" lon="05.697740"><ele>25.8</ele><time>2021-03-01T12:13:30Z</time><name>PT5752</name></trkpt>
<trkpt lat="52.097074" lon="05.697735"><ele>25.9</ele><time>2021-03-01T12:13:31Z</time><name>PT5753</name></trkpt>
<trkpt lat="52.097062" lon="05.697732"><ele>26</ele><time>2021-03-01T12:13:32Z</time><name>PT5754</name></trkpt>
<trkpt lat="52.097051" lon="05.697727"><ele>26</ele><time>2021-03-01T12:13:33Z</time><name>PT5755</name></trkpt>
<trkpt lat="52.097040" lon="05.697720"><ele>26</ele><time>2021-03-01T12:13:34Z</time><name>PT5756</name></trkpt>
<trkpt lat="52.097030" lon="05.697721"><ele>26</ele><time>2021-03-01T12:13:35Z</time><name>PT5757</name></trkpt>
<trkpt lat="52.097019" lon="05.697719"><ele>25.9</ele><time>2021-03-01T12:13:36Z</time><name>PT5758</name></trkpt>
<trkpt lat="52.097007" lon="05.697716"><ele>26</ele><time>2021-03-01T12:13:37Z</time><name>PT5759</name></trkpt>
<trkpt lat="52.096996" lon="05.697713"><ele>25.7</ele><time>2021-03-01T12:13:38Z</time><name>PT5760</name></trkpt>
<trkpt lat="52.096983" lon="05.697709"><ele>25.6</ele><time>2021-03-01T12:13:39Z</time><name>PT5761</name></trkpt>
<trkpt lat="52.096970" lon="05.697706"><ele>25.5</ele><time>2021-03-01T12:13:40Z</time><name>PT5762</name></trkpt>
<trkpt lat="52.096957" lon="05.697702"><ele>25.4</ele><time>2021-03-01T12:13:41Z</time><name>PT5763</name></trkpt>
<trkpt lat="52.096945" lon="05.697699"><ele>25.4</ele><time>2021-03-01T12:13:42Z</time><name>PT5764</name></trkpt>
<trkpt lat="52.096932" lon="05.697698"><ele>25.4</ele><time>2021-03-01T12:13:43Z</time><name>PT5765</name></trkpt>
<trkpt lat="52.096920" lon="05.697696"><ele>25.3</ele><time>2021-03-01T12:13:44Z</time><name>PT5766</name></trkpt>
<trkpt lat="52.096908" lon="05.697695"><ele>25.3</ele><time>2021-03-01T12:13:45Z</time><name>PT5767</name></trkpt>
<trkpt lat="52.096897" lon="05.697695"><ele>25</ele><time>2021-03-01T12:13:46Z</time><name>PT5768</name></trkpt>
<trkpt lat="52.096886" lon="05.697693"><ele>25</ele><time>2021-03-01T12:13:47Z</time><name>PT5769</name></trkpt>
<trkpt lat="52.096874" lon="05.697692"><ele>25.2</ele><time>2021-03-01T12:13:48Z</time><name>PT5770</name></trkpt>
<trkpt lat="52.096864" lon="05.697689"><ele>25.3</ele><time>2021-03-01T12:13:49Z</time><name>PT5771</name></trkpt>
<trkpt lat="52.096853" lon="05.697686"><ele>25.3</ele><time>2021-03-01T12:13:50Z</time><name>PT5772</name></trkpt>
<trkpt lat="52.096840" lon="05.697685"><ele>25.6</ele><time>2021-03-01T12:13:51Z</time><name>PT5773</name></trkpt>
<trkpt lat="52.096830" lon="05.697681"><ele>25.7</ele><time>2021-03-01T12:13:52Z</time><name>PT5774</name></trkpt>
<trkpt lat="52.096818" lon="05.697679"><ele>25.9</ele><time>2021-03-01T12:13:53Z</time><name>PT5775</name></trkpt>
<trkpt lat="52.096807" lon="05.697677"><ele>26.1</ele><time>2021-03-01T12:13:54Z</time><name>PT5776</name></trkpt>
<trkpt lat="52.096796" lon="05.697677"><ele>25.9</ele><time>2021-03-01T12:13:55Z</time><name>PT5777</name></trkpt>
<trkpt lat="52.096785" lon="05.697675"><ele>25.7</ele><time>2021-03-01T12:13:56Z</time><name>PT5778</name></trkpt>
<trkpt lat="52.096774" lon="05.697671"><ele>25.4</ele><time>2021-03-01T12:13:57Z</time><name>PT5779</name></trkpt>
<trkpt lat="52.096765" lon="05.697670"><ele>25.3</ele><time>2021-03-01T12:13:58Z</time><name>PT5780</name></trkpt>
<trkpt lat="52.096756" lon="05.697662"><ele>25.2</ele><time>2021-03-01T12:13:59Z</time><name>PT5781</name></trkpt>
<trkpt lat="52.096748" lon="05.697653"><ele>25.1</ele><time>2021-03-01T12:14:00Z</time><name>PT5782</name></trkpt>
<trkpt lat="52.096745" lon="05.697651"><ele>25.1</ele><time>2021-03-01T12:14:01Z</time><name>PT5783</name></trkpt>
<trkpt lat="52.096747" lon="05.697652"><ele>25</ele><time>2021-03-01T12:14:02Z</time><name>PT5784</name></trkpt>
<trkpt lat="52.096740" lon="05.697650"><ele>24.9</ele><time>2021-03-01T12:14:03Z</time><name>PT5785</name></trkpt>
<trkpt lat="52.096731" lon="05.697648"><ele>25</ele><time>2021-03-01T12:14:04Z</time><name>PT5786</name></trkpt>
<trkpt lat="52.096720" lon="05.697644"><ele>25.2</ele><time>2021-03-01T12:14:05Z</time><name>PT5787</name></trkpt>
<trkpt lat="52.096707" lon="05.697639"><ele>25.1</ele><time>2021-03-01T12:14:06Z</time><name>PT5788</name></trkpt>
<trkpt lat="52.096695" lon="05.697636"><ele>25</ele><time>2021-03-01T12:14:07Z</time><name>PT5789</name></trkpt>
<trkpt lat="52.096683" lon="05.697635"><ele>25.1</ele><time>2021-03-01T12:14:08Z</time><name>PT5790</name></trkpt>
<trkpt lat="52.096672" lon="05.697632"><ele>25.1</ele><time>2021-03-01T12:14:09Z</time><name>PT5791</name></trkpt>
<trkpt lat="52.096660" lon="05.697630"><ele>24.9</ele><time>2021-03-01T12:14:10Z</time><name>PT5792</name></trkpt>
<trkpt lat="52.096649" lon="05.697628"><ele>24.9</ele><time>2021-03-01T12:14:11Z</time><name>PT5793</name></trkpt>
<trkpt lat="52.096636" lon="05.697627"><ele>25</ele><time>2021-03-01T12:14:12Z</time><name>PT5794</name></trkpt>
<trkpt lat="52.096624" lon="05.697627"><ele>24.9</ele><time>2021-03-01T12:14:13Z</time><name>PT5795</name></trkpt>
<trkpt lat="52.096612" lon="05.697627"><ele>24.9</ele><time>2021-03-01T12:14:14Z</time><name>PT5796</name></trkpt>
<trkpt lat="52.096600" lon="05.697629"><ele>25</ele><time>2021-03-01T12:14:15Z</time><name>PT5797</name></trkpt>
<trkpt lat="52.096586" lon="05.697629"><ele>25.1</ele><time>2021-03-01T12:14:16Z</time><name>PT5798</name></trkpt>
<trkpt lat="52.096573" lon="05.697628"><ele>25.2</ele><time>2021-03-01T12:14:17Z</time><name>PT5799</name></trkpt>
<trkpt lat="52.096563" lon="05.697628"><ele>25.3</ele><time>2021-03-01T12:14:18Z</time><name>PT5800</name></trkpt>
<trkpt lat="52.096551" lon="05.697628"><ele>25.2</ele><time>2021-03-01T12:14:19Z</time><name>PT5801</name></trkpt>
<trkpt lat="52.096540" lon="05.697629"><ele>25.2</ele><time>2021-03-01T12:14:20Z</time><name>PT5802</name></trkpt>
<trkpt lat="52.096528" lon="05.697628"><ele>25.3</ele><time>2021-03-01T12:14:21Z</time><name>PT5803</name></trkpt>
<trkpt lat="52.096515" lon="05.697626"><ele>25.3</ele><time>2021-03-01T12:14:22Z</time><name>PT5804</name></trkpt>
<trkpt lat="52.096502" lon="05.697625"><ele>25.3</ele><time>2021-03-01T12:14:23Z</time><name>PT5805</name></trkpt>
<trkpt lat="52.096489" lon="05.697624"><ele>25.4</ele><time>2021-03-01T12:14:24Z</time><name>PT5806</name></trkpt>
<trkpt lat="52.096476" lon="05.697621"><ele>25.5</ele><time>2021-03-01T12:14:25Z</time><name>PT5807</name></trkpt>
<trkpt lat="52.096464" lon="05.697619"><ele>25.3</ele><time>2021-03-01T12:14:26Z</time><name>PT5808</name></trkpt>
<trkpt lat="52.096452" lon="05.697618"><ele>25.3</ele><time>2021-03-01T12:14:27Z</time><name>PT5809</name></trkpt>
<trkpt lat="52.096441" lon="05.697615"><ele>25.3</ele><time>2021-03-01T12:14:28Z</time><name>PT5810</name></trkpt>
<trkpt lat="52.096428" lon="05.697615"><ele>25.3</ele><time>2021-03-01T12:14:29Z</time><name>PT5811</name></trkpt>
<trkpt lat="52.096414" lon="05.697613"><ele>25.2</ele><time>2021-03-01T12:14:30Z</time><name>PT5812</name></trkpt>
<trkpt lat="52.096401" lon="05.697611"><ele>25.3</ele><time>2021-03-01T12:14:31Z</time><name>PT5813</name></trkpt>
<trkpt lat="52.096389" lon="05.697607"><ele>25.3</ele><time>2021-03-01T12:14:32Z</time><name>PT5814</name></trkpt>
<trkpt lat="52.096377" lon="05.697605"><ele>25.3</ele><time>2021-03-01T12:14:33Z</time><name>PT5815</name></trkpt>
<trkpt lat="52.096365" lon="05.697602"><ele>25.4</ele><time>2021-03-01T12:14:34Z</time><name>PT5816</name></trkpt>
<trkpt lat="52.096354" lon="05.697600"><ele>25.4</ele><time>2021-03-01T12:14:35Z</time><name>PT5817</name></trkpt>
<trkpt lat="52.096343" lon="05.697598"><ele>25.4</ele><time>2021-03-01T12:14:36Z</time><name>PT5818</name></trkpt>
<trkpt lat="52.096329" lon="05.697598"><ele>25.4</ele><time>2021-03-01T12:14:37Z</time><name>PT5819</name></trkpt>
<trkpt lat="52.096316" lon="05.697597"><ele>25.5</ele><time>2021-03-01T12:14:38Z</time><name>PT5820</name></trkpt>
<trkpt lat="52.096303" lon="05.697595"><ele>25.6</ele><time>2021-03-01T12:14:39Z</time><name>PT5821</name></trkpt>
<trkpt lat="52.096289" lon="05.697592"><ele>25.5</ele><time>2021-03-01T12:14:40Z</time><name>PT5822</name></trkpt>
<trkpt lat="52.096276" lon="05.697590"><ele>25.5</ele><time>2021-03-01T12:14:41Z</time><name>PT5823</name></trkpt>
<trkpt lat="52.096264" lon="05.697589"><ele>25.5</ele><time>2021-03-01T12:14:42Z</time><name>PT5824</name></trkpt>
<trkpt lat="52.096250" lon="05.697588"><ele>25.5</ele><time>2021-03-01T12:14:43Z</time><name>PT5825</name></trkpt>
<trkpt lat="52.096236" lon="05.697586"><ele>25.6</ele><time>2021-03-01T12:14:44Z</time><name>PT5826</name></trkpt>
<trkpt lat="52.096223" lon="05.697583"><ele>25.7</ele><time>2021-03-01T12:14:45Z</time><name>PT5827</name></trkpt>
<trkpt lat="52.096210" lon="05.697580"><ele>25.8</ele><time>2021-03-01T12:14:46Z</time><name>PT5828</name></trkpt>
<trkpt lat="52.096196" lon="05.697577"><ele>25.8</ele><time>2021-03-01T12:14:47Z</time><name>PT5829</name></trkpt>
<trkpt lat="52.096182" lon="05.697576"><ele>25.8</ele><time>2021-03-01T12:14:48Z</time><name>PT5830</name></trkpt>
<trkpt lat="52.096168" lon="05.697574"><ele>25.9</ele><time>2021-03-01T12:14:49Z</time><name>PT5831</name></trkpt>
<trkpt lat="52.096155" lon="05.697571"><ele>25.9</ele><time>2021-03-01T12:14:50Z</time><name>PT5832</name></trkpt>
<trkpt lat="52.096139" lon="05.697571"><ele>25.8</ele><time>2021-03-01T12:14:51Z</time><name>PT5833</name></trkpt>
<trkpt lat="52.096126" lon="05.697568"><ele>25.9</ele><time>2021-03-01T12:14:52Z</time><name>PT5834</name></trkpt>
<trkpt lat="52.096113" lon="05.697566"><ele>25.9</ele><time>2021-03-01T12:14:53Z</time><name>PT5835</name></trkpt>
<trkpt lat="52.096099" lon="05.697564"><ele>25.7</ele><time>2021-03-01T12:14:54Z</time><name>PT5836</name></trkpt>
<trkpt lat="52.096087" lon="05.697559"><ele>25.8</ele><time>2021-03-01T12:14:55Z</time><name>PT5837</name></trkpt>
<trkpt lat="52.096076" lon="05.697555"><ele>25.7</ele><time>2021-03-01T12:14:56Z</time><name>PT5838</name></trkpt>
<trkpt lat="52.096063" lon="05.697553"><ele>25.7</ele><time>2021-03-01T12:14:57Z</time><name>PT5839</name></trkpt>
<trkpt lat="52.096051" lon="05.697551"><ele>25.7</ele><time>2021-03-01T12:14:58Z</time><name>PT5840</name></trkpt>
<trkpt lat="52.096038" lon="05.697548"><ele>25.8</ele><time>2021-03-01T12:14:59Z</time><name>PT5841</name></trkpt>
<trkpt lat="52.096027" lon="05.697544"><ele>25.7</ele><time>2021-03-01T12:15:00Z</time><name>PT5842</name></trkpt>
<trkpt lat="52.096015" lon="05.697541"><ele>25.7</ele><time>2021-03-01T12:15:01Z</time><name>PT5843</name></trkpt>
<trkpt lat="52.096004" lon="05.697536"><ele>25.7</ele><time>2021-03-01T12:15:02Z</time><name>PT5844</name></trkpt>
<trkpt lat="52.095991" lon="05.697531"><ele>25.7</ele><time>2021-03-01T12:15:03Z</time><name>PT5845</name></trkpt>
<trkpt lat="52.095978" lon="05.697526"><ele>25.9</ele><time>2021-03-01T12:15:04Z</time><name>PT5846</name></trkpt>
<trkpt lat="52.095966" lon="05.697519"><ele>25.9</ele><time>2021-03-01T12:15:05Z</time><name>PT5847</name></trkpt>
<trkpt lat="52.095952" lon="05.697513"><ele>26</ele><time>2021-03-01T12:15:06Z</time><name>PT5848</name></trkpt>
<trkpt lat="52.095941" lon="05.697506"><ele>26</ele><time>2021-03-01T12:15:07Z</time><name>PT5849</name></trkpt>
<trkpt lat="52.095930" lon="05.697502"><ele>26</ele><time>2021-03-01T12:15:08Z</time><name>PT5850</name></trkpt>
<trkpt lat="52.095918" lon="05.697496"><ele>25.9</ele><time>2021-03-01T12:15:09Z</time><name>PT5851</name></trkpt>
<trkpt lat="52.095907" lon="05.697488"><ele>26</ele><time>2021-03-01T12:15:10Z</time><name>PT5852</name></trkpt>
<trkpt lat="52.095894" lon="05.697481"><ele>25.9</ele><time>2021-03-01T12:15:11Z</time><name>PT5853</name></trkpt>
<trkpt lat="52.095882" lon="05.697473"><ele>25.9</ele><time>2021-03-01T12:15:12Z</time><name>PT5854</name></trkpt>
<trkpt lat="52.095869" lon="05.697464"><ele>26</ele><time>2021-03-01T12:15:13Z</time><name>PT5855</name></trkpt>
<trkpt lat="52.095857" lon="05.697456"><ele>26.1</ele><time>2021-03-01T12:15:14Z</time><name>PT5856</name></trkpt>
<trkpt lat="52.095845" lon="05.697449"><ele>26.1</ele><time>2021-03-01T12:15:15Z</time><name>PT5857</name></trkpt>
<trkpt lat="52.095834" lon="05.697443"><ele>26.2</ele><time>2021-03-01T12:15:16Z</time><name>PT5858</name></trkpt>
<trkpt lat="52.095824" lon="05.697436"><ele>26.1</ele><time>2021-03-01T12:15:17Z</time><name>PT5859</name></trkpt>
<trkpt lat="52.095813" lon="05.697432"><ele>26</ele><time>2021-03-01T12:15:18Z</time><name>PT5860</name></trkpt>
<trkpt lat="52.095801" lon="05.697428"><ele>26</ele><time>2021-03-01T12:15:19Z</time><name>PT5861</name></trkpt>
<trkpt lat="52.095790" lon="05.697420"><ele>25.9</ele><time>2021-03-01T12:15:20Z</time><name>PT5862</name></trkpt>
<trkpt lat="52.095777" lon="05.697415"><ele>25.9</ele><time>2021-03-01T12:15:21Z</time><name>PT5863</name></trkpt>
<trkpt lat="52.095765" lon="05.697410"><ele>26.1</ele><time>2021-03-01T12:15:22Z</time><name>PT5864</name></trkpt>
<trkpt lat="52.095753" lon="05.697405"><ele>26</ele><time>2021-03-01T12:15:23Z</time><name>PT5865</name></trkpt>
<trkpt lat="52.095739" lon="05.697401"><ele>25.9</ele><time>2021-03-01T12:15:24Z</time><name>PT5866</name></trkpt>
<trkpt lat="52.095726" lon="05.697398"><ele>26</ele><time>2021-03-01T12:15:25Z</time><name>PT5867</name></trkpt>
<trkpt lat="52.095714" lon="05.697394"><ele>26.1</ele><time>2021-03-01T12:15:26Z</time><name>PT5868</name></trkpt>
<trkpt lat="52.095702" lon="05.697390"><ele>26.1</ele><time>2021-03-01T12:15:27Z</time><name>PT5869</name></trkpt>
<trkpt lat="52.095691" lon="05.697385"><ele>26.2</ele><time>2021-03-01T12:15:28Z</time><name>PT5870</name></trkpt>
<trkpt lat="52.095680" lon="05.697382"><ele>26.2</ele><time>2021-03-01T12:15:29Z</time><name>PT5871</name></trkpt>
<trkpt lat="52.095666" lon="05.697378"><ele>26.2</ele><time>2021-03-01T12:15:30Z</time><name>PT5872</name></trkpt>
<trkpt lat="52.095654" lon="05.697372"><ele>26.2</ele><time>2021-03-01T12:15:31Z</time><name>PT5873</name></trkpt>
<trkpt lat="52.095642" lon="05.697367"><ele>26.1</ele><time>2021-03-01T12:15:32Z</time><name>PT5874</name></trkpt>
<trkpt lat="52.095631" lon="05.697362"><ele>26</ele><time>2021-03-01T12:15:33Z</time><name>PT5875</name></trkpt>
<trkpt lat="52.095618" lon="05.697358"><ele>26.1</ele><time>2021-03-01T12:15:34Z</time><name>PT5876</name></trkpt>
<trkpt lat="52.095605" lon="05.697354"><ele>26.1</ele><time>2021-03-01T12:15:35Z</time><name>PT5877</name></trkpt>
<trkpt lat="52.095593" lon="05.697347"><ele>26.1</ele><time>2021-03-01T12:15:36Z</time><name>PT5878</name></trkpt>
<trkpt lat="52.095580" lon="05.697339"><ele>26.2</ele><time>2021-03-01T12:15:37Z</time><name>PT5879</name></trkpt>
<trkpt lat="52.095568" lon="05.697332"><ele>26.1</ele><time>2021-03-01T12:15:38Z</time><name>PT5880</name></trkpt>
<trkpt lat="52.095558" lon="05.697327"><ele>26</ele><time>2021-03-01T12:15:39Z</time><name>PT5881</name></trkpt>
<trkpt lat="52.095547" lon="05.697321"><ele>26</ele><time>2021-03-01T12:15:40Z</time><name>PT5882</name></trkpt>
<trkpt lat="52.095536" lon="05.697314"><ele>26.1</ele><time>2021-03-01T12:15:41Z</time><name>PT5883</name></trkpt>
<trkpt lat="52.095525" lon="05.697307"><ele>26.1</ele><time>2021-03-01T12:15:42Z</time><name>PT5884</name></trkpt>
<trkpt lat="52.095513" lon="05.697300"><ele>26</ele><time>2021-03-01T12:15:43Z</time><name>PT5885</name></trkpt>
<trkpt lat="52.095502" lon="05.697294"><ele>26</ele><time>2021-03-01T12:15:44Z</time><name>PT5886</name></trkpt>
<trkpt lat="52.095491" lon="05.697288"><ele>26</ele><time>2021-03-01T12:15:45Z</time><name>PT5887</name></trkpt>
<trkpt lat="52.095479" lon="05.697282"><ele>26.1</ele><time>2021-03-01T12:15:46Z</time><name>PT5888</name></trkpt>
<trkpt lat="52.095467" lon="05.697275"><ele>26.3</ele><time>2021-03-01T12:15:47Z</time><name>PT5889</name></trkpt>
<trkpt lat="52.095455" lon="05.697271"><ele>26.3</ele><time>2021-03-01T12:15:48Z</time><name>PT5890</name></trkpt>
<trkpt lat="52.095444" lon="05.697267"><ele>26.4</ele><time>2021-03-01T12:15:49Z</time><name>PT5891</name></trkpt>
<trkpt lat="52.095433" lon="05.697263"><ele>26.6</ele><time>2021-03-01T12:15:50Z</time><name>PT5892</name></trkpt>
<trkpt lat="52.095422" lon="05.697258"><ele>26.6</ele><time>2021-03-01T12:15:51Z</time><name>PT5893</name></trkpt>
<trkpt lat="52.095410" lon="05.697251"><ele>26.6</ele><time>2021-03-01T12:15:52Z</time><name>PT5894</name></trkpt>
<trkpt lat="52.095399" lon="05.697244"><ele>26.9</ele><time>2021-03-01T12:15:53Z</time><name>PT5895</name></trkpt>
<trkpt lat="52.095387" lon="05.697239"><ele>27.1</ele><time>2021-03-01T12:15:54Z</time><name>PT5896</name></trkpt>
<trkpt lat="52.095375" lon="05.697233"><ele>27.2</ele><time>2021-03-01T12:15:55Z</time><name>PT5897</name></trkpt>
<trkpt lat="52.095363" lon="05.697228"><ele>27.3</ele><time>2021-03-01T12:15:56Z</time><name>PT5898</name></trkpt>
<trkpt lat="52.095351" lon="05.697221"><ele>27.4</ele><time>2021-03-01T12:15:57Z</time><name>PT5899</name></trkpt>
<trkpt lat="52.095338" lon="05.697213"><ele>27.5</ele><time>2021-03-01T12:15:58Z</time><name>PT5900</name></trkpt>
<trkpt lat="52.095326" lon="05.697206"><ele>27.5</ele><time>2021-03-01T12:15:59Z</time><name>PT5901</name></trkpt>
<trkpt lat="52.095315" lon="05.697196"><ele>27.4</ele><time>2021-03-01T12:16:00Z</time><name>PT5902</name></trkpt>
<trkpt lat="52.095304" lon="05.697188"><ele>27.5</ele><time>2021-03-01T12:16:01Z</time><name>PT5903</name></trkpt>
<trkpt lat="52.095293" lon="05.697183"><ele>27.5</ele><time>2021-03-01T12:16:02Z</time><name>PT5904</name></trkpt>
<trkpt lat="52.095283" lon="05.697173"><ele>27.5</ele><time>2021-03-01T12:16:03Z</time><name>PT5905</name></trkpt>
<trkpt lat="52.095272" lon="05.697165"><ele>27.7</ele><time>2021-03-01T12:16:04Z</time><name>PT5906</name></trkpt>
<trkpt lat="52.095262" lon="05.697160"><ele>27.5</ele><time>2021-03-01T12:16:05Z</time><name>PT5907</name></trkpt>
<trkpt lat="52.095251" lon="05.697154"><ele>27.5</ele><time>2021-03-01T12:16:06Z</time><name>PT5908</name></trkpt>
<trkpt lat="52.095240" lon="05.697147"><ele>27.5</ele><time>2021-03-01T12:16:07Z</time><name>PT5909</name></trkpt>
<trkpt lat="52.095229" lon="05.697141"><ele>27.5</ele><time>2021-03-01T12:16:08Z</time><name>PT5910</name></trkpt>
<trkpt lat="52.095218" lon="05.697133"><ele>27.6</ele><time>2021-03-01T12:16:09Z</time><name>PT5911</name></trkpt>
<trkpt lat="52.095207" lon="05.697126"><ele>27.8</ele><time>2021-03-01T12:16:10Z</time><name>PT5912</name></trkpt>
<trkpt lat="52.095197" lon="05.697115"><ele>27.7</ele><time>2021-03-01T12:16:11Z</time><name>PT5913</name></trkpt>
<trkpt lat="52.095186" lon="05.697106"><ele>27.8</ele><time>2021-03-01T12:16:12Z</time><name>PT5914</name></trkpt>
<trkpt lat="52.095174" lon="05.697099"><ele>27.8</ele><time>2021-03-01T12:16:13Z</time><name>PT5915</name></trkpt>
<trkpt lat="52.095163" lon="05.697093"><ele>27.5</ele><time>2021-03-01T12:16:14Z</time><name>PT5916</name></trkpt>
<trkpt lat="52.095152" lon="05.697086"><ele>27.5</ele><time>2021-03-01T12:16:15Z</time><name>PT5917</name></trkpt>
<trkpt lat="52.095141" lon="05.697080"><ele>27.7</ele><time>2021-03-01T12:16:16Z</time><name>PT5918</name></trkpt>
<trkpt lat="52.095129" lon="05.697075"><ele>27.6</ele><time>2021-03-01T12:16:17Z</time><name>PT5919</name></trkpt>
<trkpt lat="52.095116" lon="05.697070"><ele>27</ele><time>2021-03-01T12:16:18Z</time><name>PT5920</name></trkpt>
<trkpt lat="52.095105" lon="05.697065"><ele>27.4</ele><time>2021-03-01T12:16:19Z</time><name>PT5921</name></trkpt>
<trkpt lat="52.095092" lon="05.697063"><ele>27.8</ele><time>2021-03-01T12:16:20Z</time><name>PT5922</name></trkpt>
<trkpt lat="52.095080" lon="05.697058"><ele>27.9</ele><time>2021-03-01T12:16:21Z</time><name>PT5923</name></trkpt>
<trkpt lat="52.095070" lon="05.697052"><ele>28.7</ele><time>2021-03-01T12:16:22Z</time><name>PT5924</name></trkpt>
<trkpt lat="52.095059" lon="05.697044"><ele>28.7</ele><time>2021-03-01T12:16:23Z</time><name>PT5925</name></trkpt>
<trkpt lat="52.095049" lon="05.697038"><ele>28.2</ele><time>2021-03-01T12:16:24Z</time><name>PT5926</name></trkpt>
<trkpt lat="52.095039" lon="05.697033"><ele>28.1</ele><time>2021-03-01T12:16:25Z</time><name>PT5927</name></trkpt>
<trkpt lat="52.095028" lon="05.697032"><ele>28</ele><time>2021-03-01T12:16:26Z</time><name>PT5928</name></trkpt>
<trkpt lat="52.095021" lon="05.697024"><ele>28</ele><time>2021-03-01T12:16:27Z</time><name>PT5929</name></trkpt>
<trkpt lat="52.095011" lon="05.697017"><ele>28</ele><time>2021-03-01T12:16:28Z</time><name>PT5930</name></trkpt>
<trkpt lat="52.095002" lon="05.697009"><ele>28</ele><time>2021-03-01T12:16:29Z</time><name>PT5931</name></trkpt>
<trkpt lat="52.094991" lon="05.697003"><ele>28</ele><time>2021-03-01T12:16:30Z</time><name>PT5932</name></trkpt>
<trkpt lat="52.094979" lon="05.696998"><ele>28</ele><time>2021-03-01T12:16:31Z</time><name>PT5933</name></trkpt>
<trkpt lat="52.094968" lon="05.696992"><ele>28.1</ele><time>2021-03-01T12:16:32Z</time><name>PT5934</name></trkpt>
<trkpt lat="52.094955" lon="05.696983"><ele>28</ele><time>2021-03-01T12:16:33Z</time><name>PT5935</name></trkpt>
<trkpt lat="52.094944" lon="05.696973"><ele>28.1</ele><time>2021-03-01T12:16:34Z</time><name>PT5936</name></trkpt>
<trkpt lat="52.094934" lon="05.696968"><ele>28</ele><time>2021-03-01T12:16:35Z</time><name>PT5937</name></trkpt>
<trkpt lat="52.094926" lon="05.696960"><ele>28</ele><time>2021-03-01T12:16:36Z</time><name>PT5938</name></trkpt>
<trkpt lat="52.094917" lon="05.696951"><ele>27.9</ele><time>2021-03-01T12:16:37Z</time><name>PT5939</name></trkpt>
<trkpt lat="52.094906" lon="05.696939"><ele>27.8</ele><time>2021-03-01T12:16:38Z</time><name>PT5940</name></trkpt>
<trkpt lat="52.094897" lon="05.696930"><ele>27.9</ele><time>2021-03-01T12:16:39Z</time><name>PT5941</name></trkpt>
<trkpt lat="52.094888" lon="05.696923"><ele>28</ele><time>2021-03-01T12:16:40Z</time><name>PT5942</name></trkpt>
<trkpt lat="52.094876" lon="05.696919"><ele>28.1</ele><time>2021-03-01T12:16:41Z</time><name>PT5943</name></trkpt>
<trkpt lat="52.094865" lon="05.696914"><ele>28.2</ele><time>2021-03-01T12:16:42Z</time><name>PT5944</name></trkpt>
<trkpt lat="52.094855" lon="05.696908"><ele>28.4</ele><time>2021-03-01T12:16:43Z</time><name>PT5945</name></trkpt>
<trkpt lat="52.094846" lon="05.696900"><ele>28.4</ele><time>2021-03-01T12:16:44Z</time><name>PT5946</name></trkpt>
<trkpt lat="52.094840" lon="05.696890"><ele>28.6</ele><time>2021-03-01T12:16:45Z</time><name>PT5947</name></trkpt>
<trkpt lat="52.094840" lon="05.696878"><ele>28.6</ele><time>2021-03-01T12:16:46Z</time><name>PT5948</name></trkpt>
<trkpt lat="52.094838" lon="05.696872"><ele>28.4</ele><time>2021-03-01T12:16:47Z</time><name>PT5949</name></trkpt>
<trkpt lat="52.094839" lon="05.696871"><ele>28.4</ele><time>2021-03-01T12:16:48Z</time><name>PT5950</name></trkpt>
<trkpt lat="52.094836" lon="05.696870"><ele>28.4</ele><time>2021-03-01T12:16:49Z</time><name>PT5951</name></trkpt>
<trkpt lat="52.094835" lon="05.696871"><ele>28.4</ele><time>2021-03-01T12:16:50Z</time><name>PT5952</name></trkpt>
<trkpt lat="52.094834" lon="05.696870"><ele>28.4</ele><time>2021-03-01T12:16:51Z</time><name>PT5953</name></trkpt>
<trkpt lat="52.094833" lon="05.696867"><ele>28.6</ele><time>2021-03-01T12:16:52Z</time><name>PT5954</name></trkpt>
<trkpt lat="52.094832" lon="05.696862"><ele>28.8</ele><time>2021-03-01T12:16:53Z</time><name>PT5955</name></trkpt>
<trkpt lat="52.094829" lon="05.696860"><ele>28.9</ele><time>2021-03-01T12:16:55Z</time><name>PT5956</name></trkpt>
<trkpt lat="52.094827" lon="05.696853"><ele>28.9</ele><time>2021-03-01T12:16:56Z</time><name>PT5957</name></trkpt>
<trkpt lat="52.094827" lon="05.696847"><ele>28.8</ele><time>2021-03-01T12:16:57Z</time><name>PT5958</name></trkpt>
<trkpt lat="52.094826" lon="05.696843"><ele>28.9</ele><time>2021-03-01T12:16:58Z</time><name>PT5959</name></trkpt>
<trkpt lat="52.094824" lon="05.696842"><ele>28.9</ele><time>2021-03-01T12:17:04Z</time><name>PT5960</name></trkpt>
<trkpt lat="52.094821" lon="05.696839"><ele>29</ele><time>2021-03-01T12:17:05Z</time><name>PT5961</name></trkpt>
<trkpt lat="52.094819" lon="05.696832"><ele>28.9</ele><time>2021-03-01T12:17:06Z</time><name>PT5962</name></trkpt>
<trkpt lat="52.094818" lon="05.696830"><ele>29</ele><time>2021-03-01T12:17:07Z</time><name>PT5963</name></trkpt>
<trkpt lat="52.094817" lon="05.696825"><ele>29.2</ele><time>2021-03-01T12:17:33Z</time><name>PT5964</name></trkpt>
<trkpt lat="52.094818" lon="05.696820"><ele>29.2</ele><time>2021-03-01T12:17:34Z</time><name>PT5965</name></trkpt>
<trkpt lat="52.094825" lon="05.696822"><ele>29.1</ele><time>2021-03-01T12:17:35Z</time><name>PT5966</name></trkpt>
<trkpt lat="52.094834" lon="05.696826"><ele>29</ele><time>2021-03-01T12:17:36Z</time><name>PT5967</name></trkpt>
<trkpt lat="52.094845" lon="05.696828"><ele>28.9</ele><time>2021-03-01T12:17:37Z</time><name>PT5968</name></trkpt>
<trkpt lat="52.094857" lon="05.696831"><ele>28.9</ele><time>2021-03-01T12:17:38Z</time><name>PT5969</name></trkpt>
<trkpt lat="52.094866" lon="05.696831"><ele>28.9</ele><time>2021-03-01T12:17:39Z</time><name>PT5970</name></trkpt>
<trkpt lat="52.094876" lon="05.696827"><ele>28.3</ele><time>2021-03-01T12:17:40Z</time><name>PT5971</name></trkpt>
<trkpt lat="52.094884" lon="05.696823"><ele>28</ele><time>2021-03-01T12:17:42Z</time><name>PT5972</name></trkpt>
<trkpt lat="52.094891" lon="05.696822"><ele>27.9</ele><time>2021-03-01T12:17:42Z</time><name>PT5973</name></trkpt>
<trkpt lat="52.094893" lon="05.696822"><ele>28.3</ele><time>2021-03-01T12:17:43Z</time><name>PT5974</name></trkpt>
<trkpt lat="52.094896" lon="05.696820"><ele>28.4</ele><time>2021-03-01T12:17:44Z</time><name>PT5975</name></trkpt>
<trkpt lat="52.094903" lon="05.696815"><ele>29.5</ele><time>2021-03-01T12:17:45Z</time><name>PT5976</name></trkpt>
<trkpt lat="52.094912" lon="05.696810"><ele>29.4</ele><time>2021-03-01T12:17:46Z</time><name>PT5977</name></trkpt>
<trkpt lat="52.094924" lon="05.696804"><ele>29.3</ele><time>2021-03-01T12:17:47Z</time><name>PT5978</name></trkpt>
<trkpt lat="52.094935" lon="05.696800"><ele>28.9</ele><time>2021-03-01T12:17:48Z</time><name>PT5979</name></trkpt>
<trkpt lat="52.094946" lon="05.696796"><ele>28.7</ele><time>2021-03-01T12:17:49Z</time><name>PT5980</name></trkpt>
<trkpt lat="52.094957" lon="05.696793"><ele>28.3</ele><time>2021-03-01T12:17:50Z</time><name>PT5981</name></trkpt>
<trkpt lat="52.094966" lon="05.696788"><ele>28.2</ele><time>2021-03-01T12:17:51Z</time><name>PT5982</name></trkpt>
<trkpt lat="52.094976" lon="05.696783"><ele>28.3</ele><time>2021-03-01T12:17:52Z</time><name>PT5983</name></trkpt>
<trkpt lat="52.094987" lon="05.696775"><ele>28.3</ele><time>2021-03-01T12:17:53Z</time><name>PT5984</name></trkpt>
<trkpt lat="52.094998" lon="05.696770"><ele>28.2</ele><time>2021-03-01T12:17:54Z</time><name>PT5985</name></trkpt>
<trkpt lat="52.095011" lon="05.696765"><ele>28.3</ele><time>2021-03-01T12:17:55Z</time><name>PT5986</name></trkpt>
<trkpt lat="52.095020" lon="05.696756"><ele>28.2</ele><time>2021-03-01T12:17:56Z</time><name>PT5987</name></trkpt>
<trkpt lat="52.095033" lon="05.696746"><ele>28.2</ele><time>2021-03-01T12:17:57Z</time><name>PT5988</name></trkpt>
<trkpt lat="52.095043" lon="05.696740"><ele>28</ele><time>2021-03-01T12:17:58Z</time><name>PT5989</name></trkpt>
<trkpt lat="52.095053" lon="05.696735"><ele>28.1</ele><time>2021-03-01T12:17:59Z</time><name>PT5990</name></trkpt>
<trkpt lat="52.095064" lon="05.696726"><ele>28.1</ele><time>2021-03-01T12:18:00Z</time><name>PT5991</name></trkpt>
<trkpt lat="52.095075" lon="05.696721"><ele>28.3</ele><time>2021-03-01T12:18:01Z</time><name>PT5992</name></trkpt>
<trkpt lat="52.095085" lon="05.696717"><ele>28.2</ele><time>2021-03-01T12:18:02Z</time><name>PT5993</name></trkpt>
<trkpt lat="52.095097" lon="05.696712"><ele>28.2</ele><time>2021-03-01T12:18:03Z</time><name>PT5994</name></trkpt>
<trkpt lat="52.095108" lon="05.696707"><ele>28.2</ele><time>2021-03-01T12:18:04Z</time><name>PT5995</name></trkpt>
<trkpt lat="52.095119" lon="05.696701"><ele>28.1</ele><time>2021-03-01T12:18:05Z</time><name>PT5996</name></trkpt>
<trkpt lat="52.095131" lon="05.696696"><ele>27.9</ele><time>2021-03-01T12:18:06Z</time><name>PT5997</name></trkpt>
<trkpt lat="52.095142" lon="05.696691"><ele>27.7</ele><time>2021-03-01T12:18:07Z</time><name>PT5998</name></trkpt>
<trkpt lat="52.095152" lon="05.696685"><ele>27.7</ele><time>2021-03-01T12:18:08Z</time><name>PT5999</name></trkpt>
<trkpt lat="52.095163" lon="05.696679"><ele>27.5</ele><time>2021-03-01T12:18:09Z</time><name>PT6000</name></trkpt>
<trkpt lat="52.095174" lon="05.696669"><ele>27.5</ele><time>2021-03-01T12:18:10Z</time><name>PT6001</name></trkpt>
<trkpt lat="52.095186" lon="05.696661"><ele>27.4</ele><time>2021-03-01T12:18:11Z</time><name>PT6002</name></trkpt>
<trkpt lat="52.095198" lon="05.696656"><ele>27.2</ele><time>2021-03-01T12:18:12Z</time><name>PT6003</name></trkpt>
<trkpt lat="52.095209" lon="05.696651"><ele>27.3</ele><time>2021-03-01T12:18:13Z</time><name>PT6004</name></trkpt>
<trkpt lat="52.095220" lon="05.696645"><ele>27.2</ele><time>2021-03-01T12:18:14Z</time><name>PT6005</name></trkpt>
<trkpt lat="52.095231" lon="05.696639"><ele>27.3</ele><time>2021-03-01T12:18:15Z</time><name>PT6006</name></trkpt>
<trkpt lat="52.095242" lon="05.696635"><ele>27.5</ele><time>2021-03-01T12:18:16Z</time><name>PT6007</name></trkpt>
<trkpt lat="52.095251" lon="05.696635"><ele>27.6</ele><time>2021-03-01T12:18:17Z</time><name>PT6008</name></trkpt>
<trkpt lat="52.095262" lon="05.696634"><ele>27.6</ele><time>2021-03-01T12:18:18Z</time><name>PT6009</name></trkpt>
<trkpt lat="52.095272" lon="05.696631"><ele>27.8</ele><time>2021-03-01T12:18:19Z</time><name>PT6010</name></trkpt>
<trkpt lat="52.095282" lon="05.696628"><ele>27.8</ele><time>2021-03-01T12:18:20Z</time><name>PT6011</name></trkpt>
<trkpt lat="52.095293" lon="05.696624"><ele>27.9</ele><time>2021-03-01T12:18:21Z</time><name>PT6012</name></trkpt>
<trkpt lat="52.095305" lon="05.696619"><ele>27.9</ele><time>2021-03-01T12:18:22Z</time><name>PT6013</name></trkpt>
<trkpt lat="52.095317" lon="05.696612"><ele>27.8</ele><time>2021-03-01T12:18:23Z</time><name>PT6014</name></trkpt>
<trkpt lat="52.095329" lon="05.696607"><ele>27.9</ele><time>2021-03-01T12:18:24Z</time><name>PT6015</name></trkpt>
<trkpt lat="52.095340" lon="05.696602"><ele>27.7</ele><time>2021-03-01T12:18:25Z</time><name>PT6016</name></trkpt>
<trkpt lat="52.095352" lon="05.696596"><ele>27.5</ele><time>2021-03-01T12:18:26Z</time><name>PT6017</name></trkpt>
<trkpt lat="52.095365" lon="05.696590"><ele>27.6</ele><time>2021-03-01T12:18:27Z</time><name>PT6018</name></trkpt>
<trkpt lat="52.095377" lon="05.696583"><ele>27.6</ele><time>2021-03-01T12:18:28Z</time><name>PT6019</name></trkpt>
<trkpt lat="52.095390" lon="05.696578"><ele>27.8</ele><time>2021-03-01T12:18:29Z</time><name>PT6020</name></trkpt>
<trkpt lat="52.095402" lon="05.696575"><ele>27.8</ele><time>2021-03-01T12:18:30Z</time><name>PT6021</name></trkpt>
<trkpt lat="52.095414" lon="05.696573"><ele>27.8</ele><time>2021-03-01T12:18:31Z</time><name>PT6022</name></trkpt>
<trkpt lat="52.095424" lon="05.696571"><ele>27.8</ele><time>2021-03-01T12:18:32Z</time><name>PT6023</name></trkpt>
<trkpt lat="52.095435" lon="05.696570"><ele>27.7</ele><time>2021-03-01T12:18:33Z</time><name>PT6024</name></trkpt>
<trkpt lat="52.095445" lon="05.696568"><ele>27.6</ele><time>2021-03-01T12:18:34Z</time><name>PT6025</name></trkpt>
<trkpt lat="52.095457" lon="05.696566"><ele>27.5</ele><time>2021-03-01T12:18:35Z</time><name>PT6026</name></trkpt>
<trkpt lat="52.095469" lon="05.696562"><ele>27.5</ele><time>2021-03-01T12:18:36Z</time><name>PT6027</name></trkpt>
<trkpt lat="52.095479" lon="05.696559"><ele>27.4</ele><time>2021-03-01T12:18:37Z</time><name>PT6028</name></trkpt>
<trkpt lat="52.095490" lon="05.696556"><ele>27.2</ele><time>2021-03-01T12:18:38Z</time><name>PT6029</name></trkpt>
<trkpt lat="52.095501" lon="05.696552"><ele>27.2</ele><time>2021-03-01T12:18:39Z</time><name>PT6030</name></trkpt>
<trkpt lat="52.095513" lon="05.696549"><ele>27.1</ele><time>2021-03-01T12:18:40Z</time><name>PT6031</name></trkpt>
<trkpt lat="52.095524" lon="05.696544"><ele>27.2</ele><time>2021-03-01T12:18:41Z</time><name>PT6032</name></trkpt>
<trkpt lat="52.095537" lon="05.696539"><ele>27.3</ele><time>2021-03-01T12:18:42Z</time><name>PT6033</name></trkpt>
<trkpt lat="52.095550" lon="05.696536"><ele>27.2</ele><time>2021-03-01T12:18:43Z</time><name>PT6034</name></trkpt>
<trkpt lat="52.095562" lon="05.696532"><ele>27.2</ele><time>2021-03-01T12:18:44Z</time><name>PT6035</name></trkpt>
<trkpt lat="52.095574" lon="05.696529"><ele>27.2</ele><time>2021-03-01T12:18:45Z</time><name>PT6036</name></trkpt>
<trkpt lat="52.095586" lon="05.696526"><ele>27.2</ele><time>2021-03-01T12:18:46Z</time><name>PT6037</name></trkpt>
<trkpt lat="52.095598" lon="05.696521"><ele>27.3</ele><time>2021-03-01T12:18:47Z</time><name>PT6038</name></trkpt>
<trkpt lat="52.095608" lon="05.696518"><ele>27.3</ele><time>2021-03-01T12:18:48Z</time><name>PT6039</name></trkpt>
<trkpt lat="52.095619" lon="05.696516"><ele>27.3</ele><time>2021-03-01T12:18:49Z</time><name>PT6040</name></trkpt>
<trkpt lat="52.095630" lon="05.696515"><ele>27.3</ele><time>2021-03-01T12:18:50Z</time><name>PT6041</name></trkpt>
<trkpt lat="52.095641" lon="05.696515"><ele>27.2</ele><time>2021-03-01T12:18:51Z</time><name>PT6042</name></trkpt>
<trkpt lat="52.095653" lon="05.696514"><ele>27</ele><time>2021-03-01T12:18:52Z</time><name>PT6043</name></trkpt>
<trkpt lat="52.095665" lon="05.696511"><ele>27</ele><time>2021-03-01T12:18:53Z</time><name>PT6044</name></trkpt>
<trkpt lat="52.095677" lon="05.696510"><ele>27.1</ele><time>2021-03-01T12:18:54Z</time><name>PT6045</name></trkpt>
<trkpt lat="52.095688" lon="05.696509"><ele>26.9</ele><time>2021-03-01T12:18:55Z</time><name>PT6046</name></trkpt>
<trkpt lat="52.095699" lon="05.696506"><ele>26.7</ele><time>2021-03-01T12:18:56Z</time><name>PT6047</name></trkpt>
<trkpt lat="52.095712" lon="05.696500"><ele>26.8</ele><time>2021-03-01T12:18:57Z</time><name>PT6048</name></trkpt>
<trkpt lat="52.095724" lon="05.696497"><ele>26.8</ele><time>2021-03-01T12:18:58Z</time><name>PT6049</name></trkpt>
<trkpt lat="52.095736" lon="05.696493"><ele>26.7</ele><time>2021-03-01T12:18:59Z</time><name>PT6050</name></trkpt>
<trkpt lat="52.095751" lon="05.696488"><ele>26.7</ele><time>2021-03-01T12:19:00Z</time><name>PT6051</name></trkpt>
<trkpt lat="52.095763" lon="05.696486"><ele>26.8</ele><time>2021-03-01T12:19:01Z</time><name>PT6052</name></trkpt>
<trkpt lat="52.095775" lon="05.696482"><ele>26.8</ele><time>2021-03-01T12:19:02Z</time><name>PT6053</name></trkpt>
<trkpt lat="52.095787" lon="05.696479"><ele>26.6</ele><time>2021-03-01T12:19:03Z</time><name>PT6054</name></trkpt>
<trkpt lat="52.095800" lon="05.696476"><ele>26.6</ele><time>2021-03-01T12:19:04Z</time><name>PT6055</name></trkpt>
<trkpt lat="52.095812" lon="05.696471"><ele>26.7</ele><time>2021-03-01T12:19:05Z</time><name>PT6056</name></trkpt>
<trkpt lat="52.095824" lon="05.696469"><ele>26.6</ele><time>2021-03-01T12:19:06Z</time><name>PT6057</name></trkpt>
<trkpt lat="52.095836" lon="05.696468"><ele>26.6</ele><time>2021-03-01T12:19:07Z</time><name>PT6058</name></trkpt>
<trkpt lat="52.095847" lon="05.696467"><ele>26.7</ele><time>2021-03-01T12:19:08Z</time><name>PT6059</name></trkpt>
<trkpt lat="52.095859" lon="05.696465"><ele>26.8</ele><time>2021-03-01T12:19:09Z</time><name>PT6060</name></trkpt>
<trkpt lat="52.095870" lon="05.696463"><ele>26.9</ele><time>2021-03-01T12:19:10Z</time><name>PT6061</name></trkpt>
<trkpt lat="52.095881" lon="05.696463"><ele>26.7</ele><time>2021-03-01T12:19:11Z</time><name>PT6062</name></trkpt>
<trkpt lat="52.095891" lon="05.696464"><ele>26.7</ele><time>2021-03-01T12:19:12Z</time><name>PT6063</name></trkpt>
<trkpt lat="52.095903" lon="05.696463"><ele>26.6</ele><time>2021-03-01T12:19:13Z</time><name>PT6064</name></trkpt>
<trkpt lat="52.095915" lon="05.696462"><ele>26.6</ele><time>2021-03-01T12:19:14Z</time><name>PT6065</name></trkpt>
<trkpt lat="52.095928" lon="05.696461"><ele>26.7</ele><time>2021-03-01T12:19:15Z</time><name>PT6066</name></trkpt>
<trkpt lat="52.095941" lon="05.696459"><ele>26.9</ele><time>2021-03-01T12:19:16Z</time><name>PT6067</name></trkpt>
<trkpt lat="52.095955" lon="05.696456"><ele>27</ele><time>2021-03-01T12:19:17Z</time><name>PT6068</name></trkpt>
<trkpt lat="52.095968" lon="05.696453"><ele>26.9</ele><time>2021-03-01T12:19:18Z</time><name>PT6069</name></trkpt>
<trkpt lat="52.095981" lon="05.696449"><ele>26.8</ele><time>2021-03-01T12:19:19Z</time><name>PT6070</name></trkpt>
<trkpt lat="52.095994" lon="05.696445"><ele>26.7</ele><time>2021-03-01T12:19:20Z</time><name>PT6071</name></trkpt>
<trkpt lat="52.096007" lon="05.696441"><ele>26.6</ele><time>2021-03-01T12:19:21Z</time><name>PT6072</name></trkpt>
<trkpt lat="52.096020" lon="05.696439"><ele>26.4</ele><time>2021-03-01T12:19:22Z</time><name>PT6073</name></trkpt>
<trkpt lat="52.096032" lon="05.696438"><ele>26.3</ele><time>2021-03-01T12:19:23Z</time><name>PT6074</name></trkpt>
<trkpt lat="52.096044" lon="05.696437"><ele>26.2</ele><time>2021-03-01T12:19:24Z</time><name>PT6075</name></trkpt>
<trkpt lat="52.096056" lon="05.696437"><ele>26</ele><time>2021-03-01T12:19:25Z</time><name>PT6076</name></trkpt>
<trkpt lat="52.096068" lon="05.696437"><ele>25.9</ele><time>2021-03-01T12:19:26Z</time><name>PT6077</name></trkpt>
<trkpt lat="52.096079" lon="05.696437"><ele>25.9</ele><time>2021-03-01T12:19:27Z</time><name>PT6078</name></trkpt>
<trkpt lat="52.096091" lon="05.696436"><ele>26.2</ele><time>2021-03-01T12:19:28Z</time><name>PT6079</name></trkpt>
<trkpt lat="52.096102" lon="05.696433"><ele>26.1</ele><time>2021-03-01T12:19:29Z</time><name>PT6080</name></trkpt>
<trkpt lat="52.096114" lon="05.696432"><ele>26.2</ele><time>2021-03-01T12:19:30Z</time><name>PT6081</name></trkpt>
<trkpt lat="52.096126" lon="05.696431"><ele>26.3</ele><time>2021-03-01T12:19:31Z</time><name>PT6082</name></trkpt>
<trkpt lat="52.096139" lon="05.696430"><ele>26.4</ele><time>2021-03-01T12:19:32Z</time><name>PT6083</name></trkpt>
<trkpt lat="52.096152" lon="05.696428"><ele>26.2</ele><time>2021-03-01T12:19:33Z</time><name>PT6084</name></trkpt>
<trkpt lat="52.096164" lon="05.696426"><ele>26.3</ele><time>2021-03-01T12:19:34Z</time><name>PT6085</name></trkpt>
<trkpt lat="52.096177" lon="05.696422"><ele>26.3</ele><time>2021-03-01T12:19:35Z</time><name>PT6086</name></trkpt>
<trkpt lat="52.096190" lon="05.696420"><ele>26.2</ele><time>2021-03-01T12:19:36Z</time><name>PT6087</name></trkpt>
<trkpt lat="52.096203" lon="05.696419"><ele>26.2</ele><time>2021-03-01T12:19:37Z</time><name>PT6088</name></trkpt>
<trkpt lat="52.096218" lon="05.696418"><ele>26.2</ele><time>2021-03-01T12:19:38Z</time><name>PT6089</name></trkpt>
<trkpt lat="52.096232" lon="05.696417"><ele>26.2</ele><time>2021-03-01T12:19:39Z</time><name>PT6090</name></trkpt>
<trkpt lat="52.096245" lon="05.696414"><ele>26.1</ele><time>2021-03-01T12:19:40Z</time><name>PT6091</name></trkpt>
<trkpt lat="52.096258" lon="05.696413"><ele>26</ele><time>2021-03-01T12:19:41Z</time><name>PT6092</name></trkpt>
<trkpt lat="52.096270" lon="05.696412"><ele>26</ele><time>2021-03-01T12:19:42Z</time><name>PT6093</name></trkpt>
<trkpt lat="52.096282" lon="05.696411"><ele>26</ele><time>2021-03-01T12:19:43Z</time><name>PT6094</name></trkpt>
<trkpt lat="52.096294" lon="05.696410"><ele>26</ele><time>2021-03-01T12:19:44Z</time><name>PT6095</name></trkpt>
<trkpt lat="52.096305" lon="05.696410"><ele>26</ele><time>2021-03-01T12:19:45Z</time><name>PT6096</name></trkpt>
<trkpt lat="52.096315" lon="05.696412"><ele>26.1</ele><time>2021-03-01T12:19:46Z</time><name>PT6097</name></trkpt>
<trkpt lat="52.096327" lon="05.696413"><ele>25.9</ele><time>2021-03-01T12:19:47Z</time><name>PT6098</name></trkpt>
<trkpt lat="52.096338" lon="05.696414"><ele>25.8</ele><time>2021-03-01T12:19:48Z</time><name>PT6099</name></trkpt>
<trkpt lat="52.096350" lon="05.696414"><ele>25.8</ele><time>2021-03-01T12:19:49Z</time><name>PT6100</name></trkpt>
<trkpt lat="52.096362" lon="05.696411"><ele>26.1</ele><time>2021-03-01T12:19:50Z</time><name>PT6101</name></trkpt>
<trkpt lat="52.096373" lon="05.696410"><ele>26.1</ele><time>2021-03-01T12:19:51Z</time><name>PT6102</name></trkpt>
<trkpt lat="52.096386" lon="05.696408"><ele>26</ele><time>2021-03-01T12:19:52Z</time><name>PT6103</name></trkpt>
<trkpt lat="52.096399" lon="05.696406"><ele>26.2</ele><time>2021-03-01T12:19:53Z</time><name>PT6104</name></trkpt>
<trkpt lat="52.096413" lon="05.696406"><ele>26.1</ele><time>2021-03-01T12:19:54Z</time><name>PT6105</name></trkpt>
<trkpt lat="52.096426" lon="05.696403"><ele>26</ele><time>2021-03-01T12:19:55Z</time><name>PT6106</name></trkpt>
<trkpt lat="52.096439" lon="05.696402"><ele>26</ele><time>2021-03-01T12:19:56Z</time><name>PT6107</name></trkpt>
<trkpt lat="52.096452" lon="05.696401"><ele>26.2</ele><time>2021-03-01T12:19:57Z</time><name>PT6108</name></trkpt>
<trkpt lat="52.096466" lon="05.696399"><ele>26.2</ele><time>2021-03-01T12:19:58Z</time><name>PT6109</name></trkpt>
<trkpt lat="52.096479" lon="05.696399"><ele>26.2</ele><time>2021-03-01T12:19:59Z</time><name>PT6110</name></trkpt>
<trkpt lat="52.096489" lon="05.696400"><ele>26.3</ele><time>2021-03-01T12:20:00Z</time><name>PT6111</name></trkpt>
<trkpt lat="52.096500" lon="05.696401"><ele>26.5</ele><time>2021-03-01T12:20:01Z</time><name>PT6112</name></trkpt>
<trkpt lat="52.096510" lon="05.696401"><ele>26.3</ele><time>2021-03-01T12:20:02Z</time><name>PT6113</name></trkpt>
<trkpt lat="52.096521" lon="05.696399"><ele>26.2</ele><time>2021-03-01T12:20:03Z</time><name>PT6114</name></trkpt>
<trkpt lat="52.096532" lon="05.696399"><ele>26.1</ele><time>2021-03-01T12:20:04Z</time><name>PT6115</name></trkpt>
<trkpt lat="52.096545" lon="05.696400"><ele>26</ele><time>2021-03-01T12:20:05Z</time><name>PT6116</name></trkpt>
<trkpt lat="52.096557" lon="05.696399"><ele>26</ele><time>2021-03-01T12:20:06Z</time><name>PT6117</name></trkpt>
<trkpt lat="52.096568" lon="05.696398"><ele>26</ele><time>2021-03-01T12:20:07Z</time><name>PT6118</name></trkpt>
<trkpt lat="52.096581" lon="05.696397"><ele>26</ele><time>2021-03-01T12:20:08Z</time><name>PT6119</name></trkpt>
<trkpt lat="52.096593" lon="05.696398"><ele>26</ele><time>2021-03-01T12:20:09Z</time><name>PT6120</name></trkpt>
<trkpt lat="52.096605" lon="05.696397"><ele>26.1</ele><time>2021-03-01T12:20:10Z</time><name>PT6121</name></trkpt>
<trkpt lat="52.096618" lon="05.696395"><ele>26.1</ele><time>2021-03-01T12:20:11Z</time><name>PT6122</name></trkpt>
<trkpt lat="52.096631" lon="05.696393"><ele>26</ele><time>2021-03-01T12:20:12Z</time><name>PT6123</name></trkpt>
<trkpt lat="52.096643" lon="05.696392"><ele>25.8</ele><time>2021-03-01T12:20:13Z</time><name>PT6124</name></trkpt>
<trkpt lat="52.096655" lon="05.696391"><ele>26</ele><time>2021-03-01T12:20:14Z</time><name>PT6125</name></trkpt>
<trkpt lat="52.096666" lon="05.696389"><ele>26</ele><time>2021-03-01T12:20:15Z</time><name>PT6126</name></trkpt>
<trkpt lat="52.096678" lon="05.696389"><ele>25.8</ele><time>2021-03-01T12:20:16Z</time><name>PT6127</name></trkpt>
<trkpt lat="52.096690" lon="05.696389"><ele>25.7</ele><time>2021-03-01T12:20:17Z</time><name>PT6128</name></trkpt>
<trkpt lat="52.096701" lon="05.696388"><ele>25.8</ele><time>2021-03-01T12:20:18Z</time><name>PT6129</name></trkpt>
<trkpt lat="52.096712" lon="05.696386"><ele>25.8</ele><time>2021-03-01T12:20:19Z</time><name>PT6130</name></trkpt>
<trkpt lat="52.096725" lon="05.696386"><ele>25.7</ele><time>2021-03-01T12:20:20Z</time><name>PT6131</name></trkpt>
<trkpt lat="52.096737" lon="05.696384"><ele>25.6</ele><time>2021-03-01T12:20:21Z</time><name>PT6132</name></trkpt>
<trkpt lat="52.096747" lon="05.696383"><ele>25.6</ele><time>2021-03-01T12:20:22Z</time><name>PT6133</name></trkpt>
<trkpt lat="52.096759" lon="05.696381"><ele>25.6</ele><time>2021-03-01T12:20:23Z</time><name>PT6134</name></trkpt>
<trkpt lat="52.096771" lon="05.696380"><ele>25.5</ele><time>2021-03-01T12:20:24Z</time><name>PT6135</name></trkpt>
<trkpt lat="52.096783" lon="05.696380"><ele>25.5</ele><time>2021-03-01T12:20:25Z</time><name>PT6136</name></trkpt>
<trkpt lat="52.096795" lon="05.696381"><ele>25.6</ele><time>2021-03-01T12:20:26Z</time><name>PT6137</name></trkpt>
<trkpt lat="52.096807" lon="05.696383"><ele>25.7</ele><time>2021-03-01T12:20:27Z</time><name>PT6138</name></trkpt>
<trkpt lat="52.096818" lon="05.696383"><ele>25.7</ele><time>2021-03-01T12:20:28Z</time><name>PT6139</name></trkpt>
<trkpt lat="52.096830" lon="05.696381"><ele>25.6</ele><time>2021-03-01T12:20:29Z</time><name>PT6140</name></trkpt>
<trkpt lat="52.096841" lon="05.696380"><ele>25.7</ele><time>2021-03-01T12:20:30Z</time><name>PT6141</name></trkpt>
<trkpt lat="52.096853" lon="05.696380"><ele>25.8</ele><time>2021-03-01T12:20:31Z</time><name>PT6142</name></trkpt>
<trkpt lat="52.096864" lon="05.696380"><ele>25.7</ele><time>2021-03-01T12:20:32Z</time><name>PT6143</name></trkpt>
<trkpt lat="52.096877" lon="05.696380"><ele>25.9</ele><time>2021-03-01T12:20:33Z</time><name>PT6144</name></trkpt>
<trkpt lat="52.096889" lon="05.696381"><ele>26.1</ele><time>2021-03-01T12:20:34Z</time><name>PT6145</name></trkpt>
<trkpt lat="52.096901" lon="05.696379"><ele>26</ele><time>2021-03-01T12:20:35Z</time><name>PT6146</name></trkpt>
<trkpt lat="52.096912" lon="05.696378"><ele>25.9</ele><time>2021-03-01T12:20:36Z</time><name>PT6147</name></trkpt>
<trkpt lat="52.096924" lon="05.696377"><ele>26.2</ele><time>2021-03-01T12:20:37Z</time><name>PT6148</name></trkpt>
<trkpt lat="52.096935" lon="05.696375"><ele>26</ele><time>2021-03-01T12:20:38Z</time><name>PT6149</name></trkpt>
<trkpt lat="52.096947" lon="05.696374"><ele>26.2</ele><time>2021-03-01T12:20:39Z</time><name>PT6150</name></trkpt>
<trkpt lat="52.096959" lon="05.696373"><ele>26.1</ele><time>2021-03-01T12:20:40Z</time><name>PT6151</name></trkpt>
<trkpt lat="52.096970" lon="05.696373"><ele>25.9</ele><time>2021-03-01T12:20:41Z</time><name>PT6152</name></trkpt>
<trkpt lat="52.096981" lon="05.696373"><ele>25.8</ele><time>2021-03-01T12:20:42Z</time><name>PT6153</name></trkpt>
<trkpt lat="52.096991" lon="05.696374"><ele>25.8</ele><time>2021-03-01T12:20:43Z</time><name>PT6154</name></trkpt>
<trkpt lat="52.097003" lon="05.696375"><ele>25.7</ele><time>2021-03-01T12:20:44Z</time><name>PT6155</name></trkpt>
<trkpt lat="52.097015" lon="05.696375"><ele>25.7</ele><time>2021-03-01T12:20:45Z</time><name>PT6156</name></trkpt>
<trkpt lat="52.097028" lon="05.696375"><ele>26</ele><time>2021-03-01T12:20:46Z</time><name>PT6157</name></trkpt>
<trkpt lat="52.097039" lon="05.696375"><ele>26.1</ele><time>2021-03-01T12:20:47Z</time><name>PT6158</name></trkpt>
<trkpt lat="52.097050" lon="05.696373"><ele>26</ele><time>2021-03-01T12:20:48Z</time><name>PT6159</name></trkpt>
<trkpt lat="52.097062" lon="05.696372"><ele>26</ele><time>2021-03-01T12:20:49Z</time><name>PT6160</name></trkpt>
<trkpt lat="52.097073" lon="05.696373"><ele>26.2</ele><time>2021-03-01T12:20:50Z</time><name>PT6161</name></trkpt>
<trkpt lat="52.097085" lon="05.696372"><ele>26.2</ele><time>2021-03-01T12:20:51Z</time><name>PT6162</name></trkpt>
<trkpt lat="52.097097" lon="05.696373"><ele>26.2</ele><time>2021-03-01T12:20:52Z</time><name>PT6163</name></trkpt>
<trkpt lat="52.097110" lon="05.696374"><ele>26.2</ele><time>2021-03-01T12:20:53Z</time><name>PT6164</name></trkpt>
<trkpt lat="52.097121" lon="05.696374"><ele>26.1</ele><time>2021-03-01T12:20:54Z</time><name>PT6165</name></trkpt>
<trkpt lat="52.097133" lon="05.696375"><ele>25.9</ele><time>2021-03-01T12:20:55Z</time><name>PT6166</name></trkpt>
<trkpt lat="52.097144" lon="05.696375"><ele>26</ele><time>2021-03-01T12:20:56Z</time><name>PT6167</name></trkpt>
<trkpt lat="52.097157" lon="05.696375"><ele>26</ele><time>2021-03-01T12:20:57Z</time><name>PT6168</name></trkpt>
<trkpt lat="52.097169" lon="05.696375"><ele>26</ele><time>2021-03-01T12:20:58Z</time><name>PT6169</name></trkpt>
<trkpt lat="52.097181" lon="05.696374"><ele>26.1</ele><time>2021-03-01T12:20:59Z</time><name>PT6170</name></trkpt>
<trkpt lat="52.097193" lon="05.696372"><ele>26.2</ele><time>2021-03-01T12:21:00Z</time><name>PT6171</name></trkpt>
<trkpt lat="52.097205" lon="05.696370"><ele>26.1</ele><time>2021-03-01T12:21:01Z</time><name>PT6172</name></trkpt>
<trkpt lat="52.097217" lon="05.696371"><ele>26.1</ele><time>2021-03-01T12:21:02Z</time><name>PT6173</name></trkpt>
<trkpt lat="52.097229" lon="05.696370"><ele>26.2</ele><time>2021-03-01T12:21:03Z</time><name>PT6174</name></trkpt>
<trkpt lat="52.097241" lon="05.696368"><ele>26.1</ele><time>2021-03-01T12:21:04Z</time><name>PT6175</name></trkpt>
<trkpt lat="52.097254" lon="05.696369"><ele>26.2</ele><time>2021-03-01T12:21:05Z</time><name>PT6176</name></trkpt>
<trkpt lat="52.097267" lon="05.696369"><ele>26.2</ele><time>2021-03-01T12:21:06Z</time><name>PT6177</name></trkpt>
<trkpt lat="52.097278" lon="05.696369"><ele>26.2</ele><time>2021-03-01T12:21:07Z</time><name>PT6178</name></trkpt>
<trkpt lat="52.097289" lon="05.696370"><ele>26.2</ele><time>2021-03-01T12:21:08Z</time><name>PT6179</name></trkpt>
<trkpt lat="52.097300" lon="05.696371"><ele>26.2</ele><time>2021-03-01T12:21:09Z</time><name>PT6180</name></trkpt>
<trkpt lat="52.097312" lon="05.696370"><ele>26.1</ele><time>2021-03-01T12:21:10Z</time><name>PT6181</name></trkpt>
<trkpt lat="52.097324" lon="05.696369"><ele>26.2</ele><time>2021-03-01T12:21:11Z</time><name>PT6182</name></trkpt>
<trkpt lat="52.097335" lon="05.696372"><ele>26.2</ele><time>2021-03-01T12:21:12Z</time><name>PT6183</name></trkpt>
<trkpt lat="52.097347" lon="05.696372"><ele>26.3</ele><time>2021-03-01T12:21:13Z</time><name>PT6184</name></trkpt>
<trkpt lat="52.097358" lon="05.696372"><ele>26.6</ele><time>2021-03-01T12:21:14Z</time><name>PT6185</name></trkpt>
<trkpt lat="52.097369" lon="05.696374"><ele>26.7</ele><time>2021-03-01T12:21:15Z</time><name>PT6186</name></trkpt>
<trkpt lat="52.097381" lon="05.696374"><ele>26.8</ele><time>2021-03-01T12:21:16Z</time><name>PT6187</name></trkpt>
<trkpt lat="52.097394" lon="05.696374"><ele>26.7</ele><time>2021-03-01T12:21:17Z</time><name>PT6188</name></trkpt>
<trkpt lat="52.097406" lon="05.696377"><ele>26.6</ele><time>2021-03-01T12:21:18Z</time><name>PT6189</name></trkpt>
<trkpt lat="52.097419" lon="05.696379"><ele>26.3</ele><time>2021-03-01T12:21:19Z</time><name>PT6190</name></trkpt>
<trkpt lat="52.097430" lon="05.696380"><ele>26.2</ele><time>2021-03-01T12:21:20Z</time><name>PT6191</name></trkpt>
<trkpt lat="52.097441" lon="05.696381"><ele>26.1</ele><time>2021-03-01T12:21:21Z</time><name>PT6192</name></trkpt>
<trkpt lat="52.097452" lon="05.696381"><ele>26</ele><time>2021-03-01T12:21:22Z</time><name>PT6193</name></trkpt>
<trkpt lat="52.097464" lon="05.696381"><ele>26</ele><time>2021-03-01T12:21:23Z</time><name>PT6194</name></trkpt>
<trkpt lat="52.097475" lon="05.696382"><ele>26.1</ele><time>2021-03-01T12:21:24Z</time><name>PT6195</name></trkpt>
<trkpt lat="52.097487" lon="05.696383"><ele>26.2</ele><time>2021-03-01T12:21:25Z</time><name>PT6196</name></trkpt>
<trkpt lat="52.097500" lon="05.696384"><ele>26.3</ele><time>2021-03-01T12:21:26Z</time><name>PT6197</name></trkpt>
<trkpt lat="52.097511" lon="05.696382"><ele>26.5</ele><time>2021-03-01T12:21:27Z</time><name>PT6198</name></trkpt>
<trkpt lat="52.097523" lon="05.696379"><ele>26.6</ele><time>2021-03-01T12:21:28Z</time><name>PT6199</name></trkpt>
<trkpt lat="52.097534" lon="05.696378"><ele>26.6</ele><time>2021-03-01T12:21:29Z</time><name>PT6200</name></trkpt>
<trkpt lat="52.097545" lon="05.696379"><ele>26.6</ele><time>2021-03-01T12:21:30Z</time><name>PT6201</name></trkpt>
<trkpt lat="52.097556" lon="05.696379"><ele>26.3</ele><time>2021-03-01T12:21:31Z</time><name>PT6202</name></trkpt>
<trkpt lat="52.097568" lon="05.696381"><ele>26.4</ele><time>2021-03-01T12:21:32Z</time><name>PT6203</name></trkpt>
<trkpt lat="52.097579" lon="05.696381"><ele>26.4</ele><time>2021-03-01T12:21:33Z</time><name>PT6204</name></trkpt>
<trkpt lat="52.097589" lon="05.696382"><ele>26.3</ele><time>2021-03-01T12:21:34Z</time><name>PT6205</name></trkpt>
<trkpt lat="52.097600" lon="05.696384"><ele>26.3</ele><time>2021-03-01T12:21:35Z</time><name>PT6206</name></trkpt>
<trkpt lat="52.097611" lon="05.696386"><ele>26.3</ele><time>2021-03-01T12:21:36Z</time><name>PT6207</name></trkpt>
<trkpt lat="52.097623" lon="05.696386"><ele>26.2</ele><time>2021-03-01T12:21:37Z</time><name>PT6208</name></trkpt>
<trkpt lat="52.097637" lon="05.696386"><ele>26.2</ele><time>2021-03-01T12:21:38Z</time><name>PT6209</name></trkpt>
<trkpt lat="52.097649" lon="05.696385"><ele>26.5</ele><time>2021-03-01T12:21:39Z</time><name>PT6210</name></trkpt>
<trkpt lat="52.097661" lon="05.696383"><ele>26.4</ele><time>2021-03-01T12:21:40Z</time><name>PT6211</name></trkpt>
<trkpt lat="52.097672" lon="05.696382"><ele>26.5</ele><time>2021-03-01T12:21:41Z</time><name>PT6212</name></trkpt>
<trkpt lat="52.097683" lon="05.696381"><ele>26.6</ele><time>2021-03-01T12:21:42Z</time><name>PT6213</name></trkpt>
<trkpt lat="52.097695" lon="05.696380"><ele>26.6</ele><time>2021-03-01T12:21:43Z</time><name>PT6214</name></trkpt>
<trkpt lat="52.097707" lon="05.696379"><ele>26.5</ele><time>2021-03-01T12:21:44Z</time><name>PT6215</name></trkpt>
<trkpt lat="52.097718" lon="05.696378"><ele>26.6</ele><time>2021-03-01T12:21:45Z</time><name>PT6216</name></trkpt>
<trkpt lat="52.097731" lon="05.696381"><ele>26.6</ele><time>2021-03-01T12:21:46Z</time><name>PT6217</name></trkpt>
<trkpt lat="52.097742" lon="05.696384"><ele>26.6</ele><time>2021-03-01T12:21:47Z</time><name>PT6218</name></trkpt>
<trkpt lat="52.097752" lon="05.696386"><ele>26.6</ele><time>2021-03-01T12:21:48Z</time><name>PT6219</name></trkpt>
<trkpt lat="52.097764" lon="05.696387"><ele>26.6</ele><time>2021-03-01T12:21:49Z</time><name>PT6220</name></trkpt>
<trkpt lat="52.097775" lon="05.696389"><ele>26.6</ele><time>2021-03-01T12:21:50Z</time><name>PT6221</name></trkpt>
<trkpt lat="52.097786" lon="05.696389"><ele>26.5</ele><time>2021-03-01T12:21:51Z</time><name>PT6222</name></trkpt>
<trkpt lat="52.097799" lon="05.696389"><ele>26.4</ele><time>2021-03-01T12:21:52Z</time><name>PT6223</name></trkpt>
<trkpt lat="52.097811" lon="05.696390"><ele>26.5</ele><time>2021-03-01T12:21:53Z</time><name>PT6224</name></trkpt>
<trkpt lat="52.097822" lon="05.696391"><ele>26.4</ele><time>2021-03-01T12:21:54Z</time><name>PT6225</name></trkpt>
<trkpt lat="52.097833" lon="05.696392"><ele>26.2</ele><time>2021-03-01T12:21:55Z</time><name>PT6226</name></trkpt>
<trkpt lat="52.097845" lon="05.696391"><ele>26.2</ele><time>2021-03-01T12:21:56Z</time><name>PT6227</name></trkpt>
<trkpt lat="52.097857" lon="05.696391"><ele>26.3</ele><time>2021-03-01T12:21:57Z</time><name>PT6228</name></trkpt>
<trkpt lat="52.097867" lon="05.696393"><ele>26.2</ele><time>2021-03-01T12:21:58Z</time><name>PT6229</name></trkpt>
<trkpt lat="52.097877" lon="05.696394"><ele>26.2</ele><time>2021-03-01T12:21:59Z</time><name>PT6230</name></trkpt>
<trkpt lat="52.097887" lon="05.696395"><ele>26.2</ele><time>2021-03-01T12:22:00Z</time><name>PT6231</name></trkpt>
<trkpt lat="52.097896" lon="05.696395"><ele>26.2</ele><time>2021-03-01T12:22:01Z</time><name>PT6232</name></trkpt>
<trkpt lat="52.097905" lon="05.696395"><ele>26.2</ele><time>2021-03-01T12:22:02Z</time><name>PT6233</name></trkpt>
<trkpt lat="52.097917" lon="05.696395"><ele>26.2</ele><time>2021-03-01T12:22:03Z</time><name>PT6234</name></trkpt>
<trkpt lat="52.097929" lon="05.696394"><ele>26.3</ele><time>2021-03-01T12:22:04Z</time><name>PT6235</name></trkpt>
<trkpt lat="52.097939" lon="05.696392"><ele>26.6</ele><time>2021-03-01T12:22:05Z</time><name>PT6236</name></trkpt>
<trkpt lat="52.097950" lon="05.696390"><ele>26.7</ele><time>2021-03-01T12:22:06Z</time><name>PT6237</name></trkpt>
<trkpt lat="52.097962" lon="05.696389"><ele>26.7</ele><time>2021-03-01T12:22:07Z</time><name>PT6238</name></trkpt>
<trkpt lat="52.097974" lon="05.696389"><ele>26.8</ele><time>2021-03-01T12:22:08Z</time><name>PT6239</name></trkpt>
<trkpt lat="52.097986" lon="05.696390"><ele>26.9</ele><time>2021-03-01T12:22:09Z</time><name>PT6240</name></trkpt>
<trkpt lat="52.097998" lon="05.696390"><ele>26.9</ele><time>2021-03-01T12:22:10Z</time><name>PT6241</name></trkpt>
<trkpt lat="52.098009" lon="05.696392"><ele>27</ele><time>2021-03-01T12:22:11Z</time><name>PT6242</name></trkpt>
<trkpt lat="52.098020" lon="05.696394"><ele>27.1</ele><time>2021-03-01T12:22:12Z</time><name>PT6243</name></trkpt>
<trkpt lat="52.098029" lon="05.696390"><ele>27.1</ele><time>2021-03-01T12:22:13Z</time><name>PT6244</name></trkpt>
<trkpt lat="52.098032" lon="05.696387"><ele>27.1</ele><time>2021-03-01T12:22:14Z</time><name>PT6245</name></trkpt>
<trkpt lat="52.098034" lon="05.696384"><ele>27</ele><time>2021-03-01T12:22:15Z</time><name>PT6246</name></trkpt>
<trkpt lat="52.098043" lon="05.696383"><ele>27</ele><time>2021-03-01T12:22:16Z</time><name>PT6247</name></trkpt>
<trkpt lat="52.098053" lon="05.696382"><ele>26.8</ele><time>2021-03-01T12:22:17Z</time><name>PT6248</name></trkpt>
<trkpt lat="52.098063" lon="05.696381"><ele>26.7</ele><time>2021-03-01T12:22:18Z</time><name>PT6249</name></trkpt>
<trkpt lat="52.098075" lon="05.696381"><ele>26.8</ele><time>2021-03-01T12:22:19Z</time><name>PT6250</name></trkpt>
<trkpt lat="52.098087" lon="05.696381"><ele>27.1</ele><time>2021-03-01T12:22:20Z</time><name>PT6251</name></trkpt>
<trkpt lat="52.098099" lon="05.696380"><ele>27</ele><time>2021-03-01T12:22:21Z</time><name>PT6252</name></trkpt>
<trkpt lat="52.098111" lon="05.696378"><ele>27.3</ele><time>2021-03-01T12:22:22Z</time><name>PT6253</name></trkpt>
<trkpt lat="52.098122" lon="05.696375"><ele>27.2</ele><time>2021-03-01T12:22:23Z</time><name>PT6254</name></trkpt>
<trkpt lat="52.098133" lon="05.696373"><ele>27.2</ele><time>2021-03-01T12:22:24Z</time><name>PT6255</name></trkpt>
<trkpt lat="52.098146" lon="05.696372"><ele>27.1</ele><time>2021-03-01T12:22:25Z</time><name>PT6256</name></trkpt>
<trkpt lat="52.098158" lon="05.696370"><ele>27</ele><time>2021-03-01T12:22:26Z</time><name>PT6257</name></trkpt>
<trkpt lat="52.098170" lon="05.696369"><ele>26.9</ele><time>2021-03-01T12:22:27Z</time><name>PT6258</name></trkpt>
<trkpt lat="52.098182" lon="05.696369"><ele>26.8</ele><time>2021-03-01T12:22:28Z</time><name>PT6259</name></trkpt>
<trkpt lat="52.098196" lon="05.696369"><ele>26.8</ele><time>2021-03-01T12:22:29Z</time><name>PT6260</name></trkpt>
<trkpt lat="52.098207" lon="05.696367"><ele>26.8</ele><time>2021-03-01T12:22:30Z</time><name>PT6261</name></trkpt>
<trkpt lat="52.098218" lon="05.696368"><ele>26.8</ele><time>2021-03-01T12:22:31Z</time><name>PT6262</name></trkpt>
<trkpt lat="52.098229" lon="05.696369"><ele>26.9</ele><time>2021-03-01T12:22:32Z</time><name>PT6263</name></trkpt>
<trkpt lat="52.098240" lon="05.696369"><ele>27</ele><time>2021-03-01T12:22:33Z</time><name>PT6264</name></trkpt>
<trkpt lat="52.098252" lon="05.696367"><ele>27</ele><time>2021-03-01T12:22:34Z</time><name>PT6265</name></trkpt>
<trkpt lat="52.098264" lon="05.696366"><ele>27</ele><time>2021-03-01T12:22:35Z</time><name>PT6266</name></trkpt>
<trkpt lat="52.098277" lon="05.696365"><ele>27</ele><time>2021-03-01T12:22:36Z</time><name>PT6267</name></trkpt>
<trkpt lat="52.098289" lon="05.696362"><ele>27.3</ele><time>2021-03-01T12:22:37Z</time><name>PT6268</name></trkpt>
<trkpt lat="52.098301" lon="05.696361"><ele>27.3</ele><time>2021-03-01T12:22:38Z</time><name>PT6269</name></trkpt>
<trkpt lat="52.098314" lon="05.696361"><ele>27.3</ele><time>2021-03-01T12:22:39Z</time><name>PT6270</name></trkpt>
<trkpt lat="52.098328" lon="05.696362"><ele>27.3</ele><time>2021-03-01T12:22:40Z</time><name>PT6271</name></trkpt>
<trkpt lat="52.098341" lon="05.696362"><ele>27.3</ele><time>2021-03-01T12:22:41Z</time><name>PT6272</name></trkpt>
<trkpt lat="52.098356" lon="05.696365"><ele>27.1</ele><time>2021-03-01T12:22:42Z</time><name>PT6273</name></trkpt>
<trkpt lat="52.098369" lon="05.696368"><ele>27.1</ele><time>2021-03-01T12:22:43Z</time><name>PT6274</name></trkpt>
<trkpt lat="52.098382" lon="05.696366"><ele>27.1</ele><time>2021-03-01T12:22:44Z</time><name>PT6275</name></trkpt>
<trkpt lat="52.098394" lon="05.696366"><ele>27.1</ele><time>2021-03-01T12:22:45Z</time><name>PT6276</name></trkpt>
<trkpt lat="52.098406" lon="05.696368"><ele>27.3</ele><time>2021-03-01T12:22:46Z</time><name>PT6277</name></trkpt>
<trkpt lat="52.098417" lon="05.696370"><ele>27.4</ele><time>2021-03-01T12:22:47Z</time><name>PT6278</name></trkpt>
<trkpt lat="52.098429" lon="05.696371"><ele>27.3</ele><time>2021-03-01T12:22:48Z</time><name>PT6279</name></trkpt>
<trkpt lat="52.098443" lon="05.696373"><ele>27.4</ele><time>2021-03-01T12:22:49Z</time><name>PT6280</name></trkpt>
<trkpt lat="52.098456" lon="05.696373"><ele>27.1</ele><time>2021-03-01T12:22:50Z</time><name>PT6281</name></trkpt>
<trkpt lat="52.098468" lon="05.696373"><ele>26.9</ele><time>2021-03-01T12:22:51Z</time><name>PT6282</name></trkpt>
<trkpt lat="52.098478" lon="05.696374"><ele>26.7</ele><time>2021-03-01T12:22:52Z</time><name>PT6283</name></trkpt>
<trkpt lat="52.098490" lon="05.696374"><ele>26.7</ele><time>2021-03-01T12:22:53Z</time><name>PT6284</name></trkpt>
<trkpt lat="52.098503" lon="05.696374"><ele>26.8</ele><time>2021-03-01T12:22:54Z</time><name>PT6285</name></trkpt>
<trkpt lat="52.098514" lon="05.696377"><ele>26.7</ele><time>2021-03-01T12:22:55Z</time><name>PT6286</name></trkpt>
<trkpt lat="52.098528" lon="05.696379"><ele>26.7</ele><time>2021-03-01T12:22:56Z</time><name>PT6287</name></trkpt>
<trkpt lat="52.098540" lon="05.696381"><ele>26.6</ele><time>2021-03-01T12:22:57Z</time><name>PT6288</name></trkpt>
<trkpt lat="52.098551" lon="05.696382"><ele>26.5</ele><time>2021-03-01T12:22:58Z</time><name>PT6289</name></trkpt>
<trkpt lat="52.098562" lon="05.696383"><ele>26.5</ele><time>2021-03-01T12:22:59Z</time><name>PT6290</name></trkpt>
<trkpt lat="52.098574" lon="05.696384"><ele>26.5</ele><time>2021-03-01T12:23:00Z</time><name>PT6291</name></trkpt>
<trkpt lat="52.098588" lon="05.696389"><ele>26.8</ele><time>2021-03-01T12:23:01Z</time><name>PT6292</name></trkpt>
<trkpt lat="52.098601" lon="05.696395"><ele>27</ele><time>2021-03-01T12:23:02Z</time><name>PT6293</name></trkpt>
<trkpt lat="52.098612" lon="05.696397"><ele>26.9</ele><time>2021-03-01T12:23:03Z</time><name>PT6294</name></trkpt>
<trkpt lat="52.098623" lon="05.696401"><ele>26.4</ele><time>2021-03-01T12:23:04Z</time><name>PT6295</name></trkpt>
<trkpt lat="52.098635" lon="05.696403"><ele>26.7</ele><time>2021-03-01T12:23:05Z</time><name>PT6296</name></trkpt>
<trkpt lat="52.098646" lon="05.696405"><ele>27</ele><time>2021-03-01T12:23:06Z</time><name>PT6297</name></trkpt>
<trkpt lat="52.098657" lon="05.696407"><ele>27.4</ele><time>2021-03-01T12:23:07Z</time><name>PT6298</name></trkpt>
<trkpt lat="52.098670" lon="05.696408"><ele>28</ele><time>2021-03-01T12:23:08Z</time><name>PT6299</name></trkpt>
<trkpt lat="52.098682" lon="05.696409"><ele>27.5</ele><time>2021-03-01T12:23:09Z</time><name>PT6300</name></trkpt>
<trkpt lat="52.098695" lon="05.696409"><ele>27.6</ele><time>2021-03-01T12:23:10Z</time><name>PT6301</name></trkpt>
<trkpt lat="52.098709" lon="05.696410"><ele>27.4</ele><time>2021-03-01T12:23:11Z</time><name>PT6302</name></trkpt>
<trkpt lat="52.098722" lon="05.696412"><ele>27.2</ele><time>2021-03-01T12:23:12Z</time><name>PT6303</name></trkpt>
<trkpt lat="52.098734" lon="05.696415"><ele>27.1</ele><time>2021-03-01T12:23:13Z</time><name>PT6304</name></trkpt>
<trkpt lat="52.098747" lon="05.696417"><ele>26.9</ele><time>2021-03-01T12:23:14Z</time><name>PT6305</name></trkpt>
<trkpt lat="52.098759" lon="05.696417"><ele>26.8</ele><time>2021-03-01T12:23:15Z</time><name>PT6306</name></trkpt>
<trkpt lat="52.098769" lon="05.696420"><ele>27.1</ele><time>2021-03-01T12:23:16Z</time><name>PT6307</name></trkpt>
<trkpt lat="52.098780" lon="05.696424"><ele>27.1</ele><time>2021-03-01T12:23:17Z</time><name>PT6308</name></trkpt>
<trkpt lat="52.098786" lon="05.696429"><ele>27.1</ele><time>2021-03-01T12:23:18Z</time><name>PT6309</name></trkpt>
<trkpt lat="52.098796" lon="05.696433"><ele>27</ele><time>2021-03-01T12:23:19Z</time><name>PT6310</name></trkpt>
<trkpt lat="52.098808" lon="05.696435"><ele>26.9</ele><time>2021-03-01T12:23:20Z</time><name>PT6311</name></trkpt>
<trkpt lat="52.098819" lon="05.696437"><ele>26.7</ele><time>2021-03-01T12:23:21Z</time><name>PT6312</name></trkpt>
<trkpt lat="52.098830" lon="05.696439"><ele>26.8</ele><time>2021-03-01T12:23:22Z</time><name>PT6313</name></trkpt>
<trkpt lat="52.098841" lon="05.696441"><ele>26.8</ele><time>2021-03-01T12:23:23Z</time><name>PT6314</name></trkpt>
<trkpt lat="52.098853" lon="05.696442"><ele>27.1</ele><time>2021-03-01T12:23:24Z</time><name>PT6315</name></trkpt>
<trkpt lat="52.098865" lon="05.696442"><ele>27.1</ele><time>2021-03-01T12:23:25Z</time><name>PT6316</name></trkpt>
<trkpt lat="52.098877" lon="05.696442"><ele>27.1</ele><time>2021-03-01T12:23:26Z</time><name>PT6317</name></trkpt>
<trkpt lat="52.098888" lon="05.696443"><ele>27.1</ele><time>2021-03-01T12:23:27Z</time><name>PT6318</name></trkpt>
<trkpt lat="52.098899" lon="05.696445"><ele>27.1</ele><time>2021-03-01T12:23:28Z</time><name>PT6319</name></trkpt>
<trkpt lat="52.098910" lon="05.696445"><ele>27.1</ele><time>2021-03-01T12:23:29Z</time><name>PT6320</name></trkpt>
<trkpt lat="52.098921" lon="05.696446"><ele>27.1</ele><time>2021-03-01T12:23:30Z</time><name>PT6321</name></trkpt>
<trkpt lat="52.098930" lon="05.696449"><ele>27.1</ele><time>2021-03-01T12:23:31Z</time><name>PT6322</name></trkpt>
<trkpt lat="52.098940" lon="05.696452"><ele>27.1</ele><time>2021-03-01T12:23:32Z</time><name>PT6323</name></trkpt>
<trkpt lat="52.098953" lon="05.696453"><ele>27.1</ele><time>2021-03-01T12:23:33Z</time><name>PT6324</name></trkpt>
<trkpt lat="52.098962" lon="05.696457"><ele>26.9</ele><time>2021-03-01T12:23:34Z</time><name>PT6325</name></trkpt>
<trkpt lat="52.098974" lon="05.696457"><ele>26.8</ele><time>2021-03-01T12:23:35Z</time><name>PT6326</name></trkpt>
<trkpt lat="52.098985" lon="05.696458"><ele>26.8</ele><time>2021-03-01T12:23:36Z</time><name>PT6327</name></trkpt>
<trkpt lat="52.098996" lon="05.696460"><ele>26.7</ele><time>2021-03-01T12:23:37Z</time><name>PT6328</name></trkpt>
<trkpt lat="52.099007" lon="05.696463"><ele>26.9</ele><time>2021-03-01T12:23:38Z</time><name>PT6329</name></trkpt>
<trkpt lat="52.099019" lon="05.696464"><ele>27.2</ele><time>2021-03-01T12:23:39Z</time><name>PT6330</name></trkpt>
<trkpt lat="52.099031" lon="05.696467"><ele>27.3</ele><time>2021-03-01T12:23:40Z</time><name>PT6331</name></trkpt>
<trkpt lat="52.099042" lon="05.696472"><ele>27.4</ele><time>2021-03-01T12:23:41Z</time><name>PT6332</name></trkpt>
<trkpt lat="52.099055" lon="05.696475"><ele>27.1</ele><time>2021-03-01T12:23:42Z</time><name>PT6333</name></trkpt>
<trkpt lat="52.099069" lon="05.696477"><ele>26.8</ele><time>2021-03-01T12:23:43Z</time><name>PT6334</name></trkpt>
<trkpt lat="52.099080" lon="05.696482"><ele>26.8</ele><time>2021-03-01T12:23:44Z</time><name>PT6335</name></trkpt>
<trkpt lat="52.099089" lon="05.696487"><ele>26.7</ele><time>2021-03-01T12:23:45Z</time><name>PT6336</name></trkpt>
<trkpt lat="52.099098" lon="05.696490"><ele>26.7</ele><time>2021-03-01T12:23:46Z</time><name>PT6337</name></trkpt>
<trkpt lat="52.099108" lon="05.696488"><ele>26.8</ele><time>2021-03-01T12:23:47Z</time><name>PT6338</name></trkpt>
<trkpt lat="52.099118" lon="05.696484"><ele>26.8</ele><time>2021-03-01T12:23:48Z</time><name>PT6339</name></trkpt>
<trkpt lat="52.099129" lon="05.696478"><ele>26.7</ele><time>2021-03-01T12:23:49Z</time><name>PT6340</name></trkpt>
<trkpt lat="52.099138" lon="05.696473"><ele>26.7</ele><time>2021-03-01T12:23:50Z</time><name>PT6341</name></trkpt>
<trkpt lat="52.099147" lon="05.696469"><ele>26.7</ele><time>2021-03-01T12:23:51Z</time><name>PT6342</name></trkpt>
<trkpt lat="52.099153" lon="05.696469"><ele>26.8</ele><time>2021-03-01T12:23:52Z</time><name>PT6343</name></trkpt>
<trkpt lat="52.099162" lon="05.696466"><ele>26.9</ele><time>2021-03-01T12:23:53Z</time><name>PT6344</name></trkpt>
<trkpt lat="52.099169" lon="05.696461"><ele>26.9</ele><time>2021-03-01T12:23:54Z</time><name>PT6345</name></trkpt>
<trkpt lat="52.099175" lon="05.696453"><ele>27.1</ele><time>2021-03-01T12:23:55Z</time><name>PT6346</name></trkpt>
<trkpt lat="52.099181" lon="05.696446"><ele>27</ele><time>2021-03-01T12:23:56Z</time><name>PT6347</name></trkpt>
<trkpt lat="52.099185" lon="05.696438"><ele>27</ele><time>2021-03-01T12:23:57Z</time><name>PT6348</name></trkpt>
<trkpt lat="52.099186" lon="05.696429"><ele>26.9</ele><time>2021-03-01T12:23:58Z</time><name>PT6349</name></trkpt>
<trkpt lat="52.099188" lon="05.696421"><ele>27</ele><time>2021-03-01T12:23:59Z</time><name>PT6350</name></trkpt>
<trkpt lat="52.099190" lon="05.696410"><ele>27.1</ele><time>2021-03-01T12:24:00Z</time><name>PT6351</name></trkpt>
<trkpt lat="52.099192" lon="05.696399"><ele>27.2</ele><time>2021-03-01T12:24:01Z</time><name>PT6352</name></trkpt>
<trkpt lat="52.099192" lon="05.696395"><ele>27.3</ele><time>2021-03-01T12:24:02Z</time><name>PT6353</name></trkpt>
<trkpt lat="52.099193" lon="05.696394"><ele>27.2</ele><time>2021-03-01T12:24:03Z</time><name>PT6354</name></trkpt>
<trkpt lat="52.099192" lon="05.696395"><ele>27.1</ele><time>2021-03-01T12:24:04Z</time><name>PT6355</name></trkpt>
<trkpt lat="52.099193" lon="05.696395"><ele>26.5</ele><time>2021-03-01T12:24:05Z</time><name>PT6356</name></trkpt></trkseg></trk></gpx>